<?xml version='1.0' encoding='UTF-8'?><gpx version="1.1" creator="JPX - https://github.com/jenetics/jpx" xmlns="http://www.topografix.com/GPX/1/1"><trk><trkseg><trkpt lat="43.52728483510418" lon="11.836728042509165"><ele>254.00000000000003</ele><time>2026-04-19T06:49:29Z</time></trkpt><trkpt lat="43.52735430090244" lon="11.836710750136264"><ele>254.0</ele><time>2026-04-19T06:49:33Z</time></trkpt><trkpt lat="43.527425541464005" lon="11.836689683419014"><ele>254.0</ele><time>2026-04-19T06:49:36Z</time></trkpt><trkpt lat="43.52748423240103" lon="11.83661468711237"><ele>254.0</ele><time>2026-04-19T06:49:38Z</time></trkpt><trkpt lat="43.52747466280328" lon="11.836515555381135"><ele>254.00000000000003</ele><time>2026-04-19T06:49:40Z</time></trkpt><trkpt lat="43.52744454903683" lon="11.836396728353296"><ele>254.0</ele><time>2026-04-19T06:49:42Z</time></trkpt><trkpt lat="43.5274201357693" lon="11.836309854036646"><ele>254.00000000000003</ele><time>2026-04-19T06:49:44Z</time></trkpt><trkpt lat="43.52740399435117" lon="11.83622320998872"><ele>254.0</ele><time>2026-04-19T06:50:07Z</time></trkpt><trkpt lat="43.52747440144952" lon="11.8361819474375"><ele>254.0</ele><time>2026-04-19T06:50:09Z</time></trkpt><trkpt lat="43.527540561131524" lon="11.836077906002712"><ele>254.0</ele><time>2026-04-19T06:50:11Z</time></trkpt><trkpt lat="43.527509281672145" lon="11.835927220671813"><ele>254.00000000000003</ele><time>2026-04-19T06:50:13Z</time></trkpt><trkpt lat="43.52745620138028" lon="11.835875873623007"><ele>254.0</ele><time>2026-04-19T06:50:14Z</time></trkpt><trkpt lat="43.52738147087471" lon="11.835865824779589"><ele>254.00000000000003</ele><time>2026-04-19T06:50:15Z</time></trkpt><trkpt lat="43.527303757090884" lon="11.83588809625425"><ele>254.0</ele><time>2026-04-19T06:50:16Z</time></trkpt><trkpt lat="43.527228157198536" lon="11.835922757080818"><ele>254.0</ele><time>2026-04-19T06:50:17Z</time></trkpt><trkpt lat="43.52716169561998" lon="11.835963341027156"><ele>254.0</ele><time>2026-04-19T06:50:18Z</time></trkpt><trkpt lat="43.52710744317505" lon="11.836021533711508"><ele>254.00000000000003</ele><time>2026-04-19T06:50:19Z</time></trkpt><trkpt lat="43.5270605200815" lon="11.836107614871995"><ele>254.0</ele><time>2026-04-19T06:50:20Z</time></trkpt><trkpt lat="43.52701417673621" lon="11.836206485233893"><ele>253.83333333333334</ele><time>2026-04-19T06:50:21Z</time></trkpt><trkpt lat="43.52693773488805" lon="11.836256126127257"><ele>253.66666666666669</ele><time>2026-04-19T06:50:22Z</time></trkpt><trkpt lat="43.526850012628174" lon="11.83627927657716"><ele>253.5</ele><time>2026-04-19T06:50:23Z</time></trkpt><trkpt lat="43.526783050180676" lon="11.836292235843358"><ele>253.33333333333331</ele><time>2026-04-19T06:50:24Z</time></trkpt><trkpt lat="43.526717885290275" lon="11.836322937973785"><ele>253.16666666666666</ele><time>2026-04-19T06:50:27Z</time></trkpt><trkpt lat="43.5267145048745" lon="11.83649217881183"><ele>253.0</ele><time>2026-04-19T06:50:30Z</time></trkpt><trkpt lat="43.52657978309207" lon="11.836360508053225"><ele>253.0</ele><time>2026-04-19T06:50:31Z</time></trkpt><trkpt lat="43.526550539852764" lon="11.836492101664142"><ele>253.0</ele><time>2026-04-19T06:50:32Z</time></trkpt><trkpt lat="43.52646513561154" lon="11.836462278480132"><ele>253.0</ele><time>2026-04-19T06:50:33Z</time></trkpt><trkpt lat="43.526355393266456" lon="11.836429901530284"><ele>253.0</ele><time>2026-04-19T06:50:34Z</time></trkpt><trkpt lat="43.526226055687545" lon="11.836405399972728"><ele>253.0</ele><time>2026-04-19T06:50:35Z</time></trkpt><trkpt lat="43.52609184378858" lon="11.836393556822467"><ele>253.33333333333331</ele><time>2026-04-19T06:50:36Z</time></trkpt><trkpt lat="43.52594113136746" lon="11.836395348144945"><ele>253.66666666666669</ele><time>2026-04-19T06:50:37Z</time></trkpt><trkpt lat="43.5257809845696" lon="11.836404610785634"><ele>254.0</ele><time>2026-04-19T06:50:38Z</time></trkpt><trkpt lat="43.525614308457" lon="11.83640715231878"><ele>254.0</ele><time>2026-04-19T06:50:39Z</time></trkpt><trkpt lat="43.525444982020026" lon="11.836411630646293"><ele>254.0</ele><time>2026-04-19T06:50:40Z</time></trkpt><trkpt lat="43.52527518773512" lon="11.836416383360792"><ele>254.0</ele><time>2026-04-19T06:50:41Z</time></trkpt><trkpt lat="43.5251037660891" lon="11.836418980030269"><ele>253.66666666666669</ele><time>2026-04-19T06:50:42Z</time></trkpt><trkpt lat="43.52492619638775" lon="11.836418599810585"><ele>253.33333333333331</ele><time>2026-04-19T06:50:43Z</time></trkpt><trkpt lat="43.524742931398286" lon="11.836419462955616"><ele>253.0</ele><time>2026-04-19T06:50:44Z</time></trkpt><trkpt lat="43.52455668935946" lon="11.836420861688296"><ele>251.0</ele><time>2026-04-19T06:50:45Z</time></trkpt><trkpt lat="43.52436494504228" lon="11.836421662849972"><ele>249.0</ele><time>2026-04-19T06:50:46Z</time></trkpt><trkpt lat="43.52417177423538" lon="11.836415727356874"><ele>247.0</ele><time>2026-04-19T06:50:47Z</time></trkpt><trkpt lat="43.523979095955" lon="11.836412239103979"><ele>247.0</ele><time>2026-04-19T06:50:48Z</time></trkpt><trkpt lat="43.52379226166264" lon="11.836408825108933"><ele>247.0</ele><time>2026-04-19T06:50:49Z</time></trkpt><trkpt lat="43.5236135400921" lon="11.836416488013626"><ele>247.0</ele><time>2026-04-19T06:50:50Z</time></trkpt><trkpt lat="43.52345332352696" lon="11.836415454554881"><ele>244.75</ele><time>2026-04-19T06:50:51Z</time></trkpt><trkpt lat="43.52331926737989" lon="11.836414757630521"><ele>242.5</ele><time>2026-04-19T06:50:52Z</time></trkpt><trkpt lat="43.52320263892353" lon="11.83640500750556"><ele>240.25</ele><time>2026-04-19T06:50:53Z</time></trkpt><trkpt lat="43.523107277877024" lon="11.836346742630786"><ele>238.0</ele><time>2026-04-19T06:50:54Z</time></trkpt><trkpt lat="43.52303129328824" lon="11.836266394118166"><ele>238.0</ele><time>2026-04-19T06:50:55Z</time></trkpt><trkpt lat="43.522971164011246" lon="11.836170293661068"><ele>238.0</ele><time>2026-04-19T06:50:56Z</time></trkpt><trkpt lat="43.522974816847444" lon="11.836029558493161"><ele>238.0</ele><time>2026-04-19T06:50:57Z</time></trkpt><trkpt lat="43.522969983757996" lon="11.835884608975148"><ele>238.0</ele><time>2026-04-19T06:50:58Z</time></trkpt><trkpt lat="43.52300988707416" lon="11.835749590127962"><ele>238.0</ele><time>2026-04-19T06:50:59Z</time></trkpt><trkpt lat="43.52308319873349" lon="11.83560318240091"><ele>239.33333333333331</ele><time>2026-04-19T06:51:00Z</time></trkpt><trkpt lat="43.523203528200575" lon="11.8354503760463"><ele>240.66666666666669</ele><time>2026-04-19T06:51:01Z</time></trkpt><trkpt lat="43.52330742425505" lon="11.83529271938054"><ele>242.0</ele><time>2026-04-19T06:51:02Z</time></trkpt><trkpt lat="43.52341975310749" lon="11.835144304289186"><ele>238.0</ele><time>2026-04-19T06:51:03Z</time></trkpt><trkpt lat="43.52352672746055" lon="11.834979272996495"><ele>234.0</ele><time>2026-04-19T06:51:04Z</time></trkpt><trkpt lat="43.523620621396226" lon="11.834795983031729"><ele>230.0</ele><time>2026-04-19T06:51:05Z</time></trkpt><trkpt lat="43.523695887760304" lon="11.834595633351794"><ele>234.0</ele><time>2026-04-19T06:51:06Z</time></trkpt><trkpt lat="43.52377054367356" lon="11.834381884988353"><ele>238.0</ele><time>2026-04-19T06:51:07Z</time></trkpt><trkpt lat="43.52384196222552" lon="11.83416759842393"><ele>242.0</ele><time>2026-04-19T06:51:08Z</time></trkpt><trkpt lat="43.523910173772315" lon="11.83395413331016"><ele>242.0</ele><time>2026-04-19T06:51:09Z</time></trkpt><trkpt lat="43.52396313848685" lon="11.833743795985205"><ele>242.0</ele><time>2026-04-19T06:51:10Z</time></trkpt><trkpt lat="43.52400565105073" lon="11.833530046769727"><ele>242.0</ele><time>2026-04-19T06:51:11Z</time></trkpt><trkpt lat="43.52399248206648" lon="11.833305016130998"><ele>238.0</ele><time>2026-04-19T06:51:12Z</time></trkpt><trkpt lat="43.5239764884451" lon="11.833080294953591"><ele>234.0</ele><time>2026-04-19T06:51:13Z</time></trkpt><trkpt lat="43.52395530850811" lon="11.83285622668836"><ele>230.0</ele><time>2026-04-19T06:51:14Z</time></trkpt><trkpt lat="43.52394927211811" lon="11.832627088734156"><ele>227.66666666666669</ele><time>2026-04-19T06:51:15Z</time></trkpt><trkpt lat="43.523929642717746" lon="11.832405811840633"><ele>225.33333333333331</ele><time>2026-04-19T06:51:16Z</time></trkpt><trkpt lat="43.52389525661667" lon="11.832194570669861"><ele>223.0</ele><time>2026-04-19T06:51:17Z</time></trkpt><trkpt lat="43.523877766201075" lon="11.83199788657702"><ele>223.0</ele><time>2026-04-19T06:51:18Z</time></trkpt><trkpt lat="43.523861094520626" lon="11.83182264117717"><ele>223.0</ele><time>2026-04-19T06:51:19Z</time></trkpt><trkpt lat="43.52384778414228" lon="11.831674642529261"><ele>223.0</ele><time>2026-04-19T06:51:20Z</time></trkpt><trkpt lat="43.52384383480081" lon="11.831561185883164"><ele>223.0</ele><time>2026-04-19T06:51:21Z</time></trkpt><trkpt lat="43.52383252168979" lon="11.831467112384576"><ele>223.0</ele><time>2026-04-19T06:51:22Z</time></trkpt><trkpt lat="43.523827130440466" lon="11.831327183828055"><ele>222.49999999999997</ele><time>2026-04-19T06:51:24Z</time></trkpt><trkpt lat="43.523825178649005" lon="11.831233272842448"><ele>222.0</ele><time>2026-04-19T06:51:26Z</time></trkpt><trkpt lat="43.52382276830526" lon="11.83113034132396"><ele>221.5</ele><time>2026-04-19T06:51:31Z</time></trkpt><trkpt lat="43.52381669849366" lon="11.831030773689566"><ele>221.0</ele><time>2026-04-19T06:51:39Z</time></trkpt><trkpt lat="43.52372590403126" lon="11.831022314888322"><ele>220.49999999999997</ele><time>2026-04-19T06:51:40Z</time></trkpt><trkpt lat="43.52365215885882" lon="11.831029209672444"><ele>220.0</ele><time>2026-04-19T06:51:41Z</time></trkpt><trkpt lat="43.52356734800847" lon="11.831059202872614"><ele>219.2</ele><time>2026-04-19T06:51:42Z</time></trkpt><trkpt lat="43.523475050306516" lon="11.831098737070306"><ele>218.4</ele><time>2026-04-19T06:51:43Z</time></trkpt><trkpt lat="43.52337884569798" lon="11.831164584217335"><ele>217.60000000000002</ele><time>2026-04-19T06:51:44Z</time></trkpt><trkpt lat="43.5232906014348" lon="11.831268385325808"><ele>216.8</ele><time>2026-04-19T06:51:45Z</time></trkpt><trkpt lat="43.523208259767145" lon="11.831403531595933"><ele>216.0</ele><time>2026-04-19T06:51:46Z</time></trkpt><trkpt lat="43.52312468371305" lon="11.831547442899673"><ele>216.0</ele><time>2026-04-19T06:51:47Z</time></trkpt><trkpt lat="43.52303479909075" lon="11.831689640692671"><ele>216.0</ele><time>2026-04-19T06:51:48Z</time></trkpt><trkpt lat="43.52293782256112" lon="11.83182918416022"><ele>216.0</ele><time>2026-04-19T06:51:49Z</time></trkpt><trkpt lat="43.52283016886303" lon="11.831959784713977"><ele>216.0</ele><time>2026-04-19T06:51:50Z</time></trkpt><trkpt lat="43.52272298336119" lon="11.832071725135764"><ele>215.60000000000002</ele><time>2026-04-19T06:51:51Z</time></trkpt><trkpt lat="43.52262035338577" lon="11.83215706774838"><ele>215.20000000000002</ele><time>2026-04-19T06:51:52Z</time></trkpt><trkpt lat="43.52252079691636" lon="11.832206588517998"><ele>214.79999999999998</ele><time>2026-04-19T06:51:53Z</time></trkpt><trkpt lat="43.52242540899054" lon="11.832217442911425"><ele>214.39999999999998</ele><time>2026-04-19T06:51:54Z</time></trkpt><trkpt lat="43.522325711451316" lon="11.832188394840363"><ele>214.0</ele><time>2026-04-19T06:51:55Z</time></trkpt><trkpt lat="43.522217603247164" lon="11.832147807873975"><ele>214.0</ele><time>2026-04-19T06:51:56Z</time></trkpt><trkpt lat="43.522108029863475" lon="11.832108393813602"><ele>214.0</ele><time>2026-04-19T06:51:57Z</time></trkpt><trkpt lat="43.52199500494463" lon="11.832078981692614"><ele>214.0</ele><time>2026-04-19T06:51:58Z</time></trkpt><trkpt lat="43.52187972516177" lon="11.83205187531735"><ele>214.0</ele><time>2026-04-19T06:51:59Z</time></trkpt><trkpt lat="43.52176404774211" lon="11.832025164919967"><ele>214.0</ele><time>2026-04-19T06:52:00Z</time></trkpt><trkpt lat="43.52164881093198" lon="11.832001169802743"><ele>214.0</ele><time>2026-04-19T06:52:01Z</time></trkpt><trkpt lat="43.52152065896339" lon="11.83193129994401"><ele>214.0</ele><time>2026-04-19T06:52:02Z</time></trkpt><trkpt lat="43.52137901075638" lon="11.831893391740532"><ele>214.0</ele><time>2026-04-19T06:52:03Z</time></trkpt><trkpt lat="43.5212332564384" lon="11.831874008422332"><ele>213.6</ele><time>2026-04-19T06:52:04Z</time></trkpt><trkpt lat="43.52110510850022" lon="11.831834348933278"><ele>213.2</ele><time>2026-04-19T06:52:05Z</time></trkpt><trkpt lat="43.520989455727346" lon="11.831801692717399"><ele>212.79999999999998</ele><time>2026-04-19T06:52:06Z</time></trkpt><trkpt lat="43.52088891758206" lon="11.83177498106782"><ele>212.39999999999998</ele><time>2026-04-19T06:52:07Z</time></trkpt><trkpt lat="43.520811194685905" lon="11.831755025797468"><ele>212.0</ele><time>2026-04-19T06:52:08Z</time></trkpt><trkpt lat="43.520743882861886" lon="11.831737117770048"><ele>211.83333333333334</ele><time>2026-04-19T06:52:09Z</time></trkpt><trkpt lat="43.52065122386465" lon="11.831709900139108"><ele>211.66666666666669</ele><time>2026-04-19T06:52:11Z</time></trkpt><trkpt lat="43.52058572813834" lon="11.831694388927302"><ele>211.5</ele><time>2026-04-19T06:52:14Z</time></trkpt><trkpt lat="43.52050887008052" lon="11.831672566255213"><ele>211.33333333333331</ele><time>2026-04-19T06:52:39Z</time></trkpt><trkpt lat="43.52040111819018" lon="11.831644963951788"><ele>211.16666666666666</ele><time>2026-04-19T06:52:41Z</time></trkpt><trkpt lat="43.520332695323894" lon="11.831607832431256"><ele>211.0</ele><time>2026-04-19T06:52:42Z</time></trkpt><trkpt lat="43.52025199993972" lon="11.831582874456519"><ele>210.4</ele><time>2026-04-19T06:52:43Z</time></trkpt><trkpt lat="43.52015964437316" lon="11.831554309945838"><ele>209.8</ele><time>2026-04-19T06:52:44Z</time></trkpt><trkpt lat="43.52006052984122" lon="11.831521165320797"><ele>209.20000000000002</ele><time>2026-04-19T06:52:45Z</time></trkpt><trkpt lat="43.51996754689618" lon="11.831450470792586"><ele>208.60000000000002</ele><time>2026-04-19T06:52:46Z</time></trkpt><trkpt lat="43.519872405391276" lon="11.831377419266952"><ele>208.0</ele><time>2026-04-19T06:52:47Z</time></trkpt><trkpt lat="43.51977610211615" lon="11.831299621978049"><ele>208.0</ele><time>2026-04-19T06:52:48Z</time></trkpt><trkpt lat="43.51968022835489" lon="11.831225371260455"><ele>208.0</ele><time>2026-04-19T06:52:49Z</time></trkpt><trkpt lat="43.51958897843556" lon="11.83114899564917"><ele>208.0</ele><time>2026-04-19T06:52:50Z</time></trkpt><trkpt lat="43.519508752856524" lon="11.831087860037043"><ele>208.0</ele><time>2026-04-19T06:52:51Z</time></trkpt><trkpt lat="43.51943674629478" lon="11.831031551659605"><ele>208.0</ele><time>2026-04-19T06:52:52Z</time></trkpt><trkpt lat="43.51936635493817" lon="11.830978112266967"><ele>209.0</ele><time>2026-04-19T06:52:53Z</time></trkpt><trkpt lat="43.51929795626887" lon="11.830925031435292"><ele>210.0</ele><time>2026-04-19T06:52:54Z</time></trkpt><trkpt lat="43.51921795393833" lon="11.83087986822575"><ele>211.0</ele><time>2026-04-19T06:52:55Z</time></trkpt><trkpt lat="43.519128645555924" lon="11.830850576511603"><ele>212.0</ele><time>2026-04-19T06:52:56Z</time></trkpt><trkpt lat="43.51903025927282" lon="11.830855445562232"><ele>213.0</ele><time>2026-04-19T06:52:57Z</time></trkpt><trkpt lat="43.51893546475975" lon="11.83088338989799"><ele>213.0</ele><time>2026-04-19T06:52:58Z</time></trkpt><trkpt lat="43.51883560462208" lon="11.830941867871312"><ele>213.0</ele><time>2026-04-19T06:52:59Z</time></trkpt><trkpt lat="43.51872832506783" lon="11.831018451102782"><ele>213.0</ele><time>2026-04-19T06:53:00Z</time></trkpt><trkpt lat="43.51861555350183" lon="11.831104604222613"><ele>213.0</ele><time>2026-04-19T06:53:01Z</time></trkpt><trkpt lat="43.51849103153287" lon="11.831197024230185"><ele>213.33333333333331</ele><time>2026-04-19T06:53:02Z</time></trkpt><trkpt lat="43.518359119297244" lon="11.83129358219584"><ele>213.66666666666666</ele><time>2026-04-19T06:53:03Z</time></trkpt><trkpt lat="43.51822303471324" lon="11.831398623282322"><ele>214.0</ele><time>2026-04-19T06:53:04Z</time></trkpt><trkpt lat="43.51808239293042" lon="11.831507204979708"><ele>214.0</ele><time>2026-04-19T06:53:05Z</time></trkpt><trkpt lat="43.51794078707846" lon="11.831615037229195"><ele>214.0</ele><time>2026-04-19T06:53:06Z</time></trkpt><trkpt lat="43.51779709886696" lon="11.831724208664598"><ele>214.0</ele><time>2026-04-19T06:53:07Z</time></trkpt><trkpt lat="43.51765602169789" lon="11.831831803750436"><ele>214.0</ele><time>2026-04-19T06:53:08Z</time></trkpt><trkpt lat="43.51751314924676" lon="11.831936173451258"><ele>214.0</ele><time>2026-04-19T06:53:09Z</time></trkpt><trkpt lat="43.51737079639522" lon="11.832036856110395"><ele>214.0</ele><time>2026-04-19T06:53:10Z</time></trkpt><trkpt lat="43.51723096705246" lon="11.832140352478127"><ele>214.0</ele><time>2026-04-19T06:53:11Z</time></trkpt><trkpt lat="43.51709283288149" lon="11.832244739021409"><ele>214.0</ele><time>2026-04-19T06:53:12Z</time></trkpt><trkpt lat="43.51694948751431" lon="11.83235160477425"><ele>214.0</ele><time>2026-04-19T06:53:13Z</time></trkpt><trkpt lat="43.51680763444496" lon="11.832458329313317"><ele>214.66666666666666</ele><time>2026-04-19T06:53:14Z</time></trkpt><trkpt lat="43.516665016125486" lon="11.832564614679104"><ele>215.33333333333331</ele><time>2026-04-19T06:53:15Z</time></trkpt><trkpt lat="43.51651861822201" lon="11.832669864634692"><ele>216.0</ele><time>2026-04-19T06:53:16Z</time></trkpt><trkpt lat="43.51637245295305" lon="11.832770414305214"><ele>217.66666666666669</ele><time>2026-04-19T06:53:17Z</time></trkpt><trkpt lat="43.51622502788963" lon="11.832869504547533"><ele>219.33333333333334</ele><time>2026-04-19T06:53:18Z</time></trkpt><trkpt lat="43.51607732578847" lon="11.832967480730126"><ele>221.0</ele><time>2026-04-19T06:53:19Z</time></trkpt><trkpt lat="43.5159286490862" lon="11.833064983553006"><ele>221.0</ele><time>2026-04-19T06:53:20Z</time></trkpt><trkpt lat="43.51577945993676" lon="11.833164323216376"><ele>221.0</ele><time>2026-04-19T06:53:21Z</time></trkpt><trkpt lat="43.51563086260214" lon="11.833267035468594"><ele>221.0</ele><time>2026-04-19T06:53:22Z</time></trkpt><trkpt lat="43.515484099387876" lon="11.833372136019221"><ele>222.0</ele><time>2026-04-19T06:53:23Z</time></trkpt><trkpt lat="43.515342747187525" lon="11.833468387095587"><ele>223.0</ele><time>2026-04-19T06:53:24Z</time></trkpt><trkpt lat="43.51520742513368" lon="11.833562036225898"><ele>224.0</ele><time>2026-04-19T06:53:25Z</time></trkpt><trkpt lat="43.51507374145562" lon="11.833655855625986"><ele>226.66666666666669</ele><time>2026-04-19T06:53:26Z</time></trkpt><trkpt lat="43.51494229094448" lon="11.833757987022222"><ele>229.33333333333331</ele><time>2026-04-19T06:53:27Z</time></trkpt><trkpt lat="43.514813991224365" lon="11.833866030798596"><ele>232.0</ele><time>2026-04-19T06:53:28Z</time></trkpt><trkpt lat="43.5146876638198" lon="11.833983970055158"><ele>234.33333333333331</ele><time>2026-04-19T06:53:29Z</time></trkpt><trkpt lat="43.51455850643106" lon="11.834107087285512"><ele>236.66666666666669</ele><time>2026-04-19T06:53:30Z</time></trkpt><trkpt lat="43.51442797131257" lon="11.834225522050982"><ele>239.0</ele><time>2026-04-19T06:53:31Z</time></trkpt><trkpt lat="43.51430118833634" lon="11.834335076790076"><ele>239.75</ele><time>2026-04-19T06:53:32Z</time></trkpt><trkpt lat="43.51417900343012" lon="11.834436202411164"><ele>240.5</ele><time>2026-04-19T06:53:33Z</time></trkpt><trkpt lat="43.514068317217124" lon="11.834526941786724"><ele>241.25</ele><time>2026-04-19T06:53:34Z</time></trkpt><trkpt lat="43.51396233870364" lon="11.834610372131841"><ele>242.0</ele><time>2026-04-19T06:53:35Z</time></trkpt><trkpt lat="43.51385419250831" lon="11.83469633531691"><ele>242.0</ele><time>2026-04-19T06:53:36Z</time></trkpt><trkpt lat="43.513742372964316" lon="11.834777146416624"><ele>242.0</ele><time>2026-04-19T06:53:37Z</time></trkpt><trkpt lat="43.51362386232324" lon="11.83485925777643"><ele>242.0</ele><time>2026-04-19T06:53:38Z</time></trkpt><trkpt lat="43.51350200344841" lon="11.834940465481695"><ele>242.0</ele><time>2026-04-19T06:53:39Z</time></trkpt><trkpt lat="43.51337879254265" lon="11.83502838643224"><ele>242.5</ele><time>2026-04-19T06:53:40Z</time></trkpt><trkpt lat="43.51325325073695" lon="11.835117613872915"><ele>243.0</ele><time>2026-04-19T06:53:41Z</time></trkpt><trkpt lat="43.51312886864878" lon="11.835204959734465"><ele>243.5</ele><time>2026-04-19T06:53:42Z</time></trkpt><trkpt lat="43.5130055773219" lon="11.835294733635356"><ele>244.0</ele><time>2026-04-19T06:53:43Z</time></trkpt><trkpt lat="43.51288267260662" lon="11.835387687390819"><ele>244.75</ele><time>2026-04-19T06:53:44Z</time></trkpt><trkpt lat="43.5127619348193" lon="11.83547894179544"><ele>245.5</ele><time>2026-04-19T06:53:45Z</time></trkpt><trkpt lat="43.51264394005267" lon="11.835565519891396"><ele>246.25</ele><time>2026-04-19T06:53:46Z</time></trkpt><trkpt lat="43.512533207192526" lon="11.835643579151109"><ele>247.0</ele><time>2026-04-19T06:53:47Z</time></trkpt><trkpt lat="43.51243330339274" lon="11.835717108255809"><ele>246.99999999999997</ele><time>2026-04-19T06:53:48Z</time></trkpt><trkpt lat="43.51234179167759" lon="11.83578418800841"><ele>247.0</ele><time>2026-04-19T06:53:49Z</time></trkpt><trkpt lat="43.512257886594604" lon="11.8358459616951"><ele>247.0</ele><time>2026-04-19T06:53:50Z</time></trkpt><trkpt lat="43.5121825084143" lon="11.835901051742029"><ele>247.0</ele><time>2026-04-19T06:53:51Z</time></trkpt><trkpt lat="43.51210846778915" lon="11.835958080394185"><ele>246.99999999999997</ele><time>2026-04-19T06:53:52Z</time></trkpt><trkpt lat="43.512039033648314" lon="11.836010465394997"><ele>247.0</ele><time>2026-04-19T06:53:53Z</time></trkpt><trkpt lat="43.511978600940694" lon="11.836056081580805"><ele>248.0</ele><time>2026-04-19T06:53:54Z</time></trkpt><trkpt lat="43.51185324158423" lon="11.836152338874383"><ele>249.0</ele><time>2026-04-19T06:53:56Z</time></trkpt><trkpt lat="43.511758622485544" lon="11.836224890391792"><ele>250.0</ele><time>2026-04-19T06:53:57Z</time></trkpt><trkpt lat="43.51165216082147" lon="11.836303681572536"><ele>251.0</ele><time>2026-04-19T06:53:58Z</time></trkpt><trkpt lat="43.51153546685308" lon="11.83639439536366"><ele>251.0</ele><time>2026-04-19T06:53:59Z</time></trkpt><trkpt lat="43.51141550242291" lon="11.836490784803408"><ele>251.0</ele><time>2026-04-19T06:54:00Z</time></trkpt><trkpt lat="43.51128893515568" lon="11.836585103038969"><ele>251.0</ele><time>2026-04-19T06:54:01Z</time></trkpt><trkpt lat="43.51116069720631" lon="11.836680507195547"><ele>251.0</ele><time>2026-04-19T06:54:02Z</time></trkpt><trkpt lat="43.51103527916256" lon="11.836775036522598"><ele>251.0</ele><time>2026-04-19T06:54:03Z</time></trkpt><trkpt lat="43.510912310247996" lon="11.836863021533011"><ele>251.0</ele><time>2026-04-19T06:54:04Z</time></trkpt><trkpt lat="43.510791552377206" lon="11.836950188916855"><ele>251.0</ele><time>2026-04-19T06:54:05Z</time></trkpt><trkpt lat="43.51067311452885" lon="11.837036128953224"><ele>251.0</ele><time>2026-04-19T06:54:06Z</time></trkpt><trkpt lat="43.510559575918265" lon="11.837118533609152"><ele>251.0</ele><time>2026-04-19T06:54:07Z</time></trkpt><trkpt lat="43.51045540587976" lon="11.837193815176434"><ele>251.00000000000003</ele><time>2026-04-19T06:54:08Z</time></trkpt><trkpt lat="43.51036134688281" lon="11.837263639895735"><ele>251.00000000000003</ele><time>2026-04-19T06:54:09Z</time></trkpt><trkpt lat="43.51027800277559" lon="11.837328335254664"><ele>251.0</ele><time>2026-04-19T06:54:10Z</time></trkpt><trkpt lat="43.51021151898906" lon="11.837379575973285"><ele>251.0</ele><time>2026-04-19T06:54:11Z</time></trkpt><trkpt lat="43.510154555598106" lon="11.837423321776312"><ele>251.4</ele><time>2026-04-19T06:54:12Z</time></trkpt><trkpt lat="43.51009324261543" lon="11.837466660136673"><ele>251.8</ele><time>2026-04-19T06:54:13Z</time></trkpt><trkpt lat="43.51001775869456" lon="11.837517837838849"><ele>252.20000000000002</ele><time>2026-04-19T06:54:14Z</time></trkpt><trkpt lat="43.50993425616" lon="11.83757812784065"><ele>252.60000000000002</ele><time>2026-04-19T06:54:15Z</time></trkpt><trkpt lat="43.50984205866043" lon="11.83764142256831"><ele>253.0</ele><time>2026-04-19T06:54:16Z</time></trkpt><trkpt lat="43.50973893917533" lon="11.837689614785496"><ele>252.99999999999997</ele><time>2026-04-19T06:54:17Z</time></trkpt><trkpt lat="43.509646389592774" lon="11.837711674100406"><ele>253.0</ele><time>2026-04-19T06:54:18Z</time></trkpt><trkpt lat="43.50956580621509" lon="11.83773252868248"><ele>253.0</ele><time>2026-04-19T06:54:19Z</time></trkpt><trkpt lat="43.50950372720149" lon="11.837771017266824"><ele>253.0</ele><time>2026-04-19T06:54:20Z</time></trkpt><trkpt lat="43.509439276560194" lon="11.837818654200769"><ele>252.99999999999997</ele><time>2026-04-19T06:54:21Z</time></trkpt><trkpt lat="43.50936784489841" lon="11.837873270814702"><ele>253.0</ele><time>2026-04-19T06:54:22Z</time></trkpt><trkpt lat="43.50928734532533" lon="11.83793668709408"><ele>252.99999999999997</ele><time>2026-04-19T06:54:23Z</time></trkpt><trkpt lat="43.50920851423266" lon="11.837991747183946"><ele>253.0</ele><time>2026-04-19T06:54:24Z</time></trkpt><trkpt lat="43.50913298710268" lon="11.838046353775884"><ele>253.0</ele><time>2026-04-19T06:54:25Z</time></trkpt><trkpt lat="43.50906069777959" lon="11.838101849404616"><ele>253.0</ele><time>2026-04-19T06:54:26Z</time></trkpt><trkpt lat="43.508997884320245" lon="11.838178543924203"><ele>252.99999999999997</ele><time>2026-04-19T06:54:27Z</time></trkpt><trkpt lat="43.50894416455098" lon="11.83826932278504"><ele>253.0</ele><time>2026-04-19T06:54:28Z</time></trkpt><trkpt lat="43.508895462102615" lon="11.838379391706354"><ele>253.0</ele><time>2026-04-19T06:54:29Z</time></trkpt><trkpt lat="43.50878361842578" lon="11.838433100804426"><ele>253.0</ele><time>2026-04-19T06:54:30Z</time></trkpt><trkpt lat="43.50868383390021" lon="11.838502267364902"><ele>253.0</ele><time>2026-04-19T06:54:31Z</time></trkpt><trkpt lat="43.508576339143595" lon="11.838574574333709"><ele>253.0</ele><time>2026-04-19T06:54:32Z</time></trkpt><trkpt lat="43.50846339592569" lon="11.838655578865772"><ele>252.75</ele><time>2026-04-19T06:54:33Z</time></trkpt><trkpt lat="43.508343043296485" lon="11.838743356839323"><ele>252.5</ele><time>2026-04-19T06:54:34Z</time></trkpt><trkpt lat="43.50822258235469" lon="11.838831867877623"><ele>252.25</ele><time>2026-04-19T06:54:35Z</time></trkpt><trkpt lat="43.508098256303356" lon="11.838924665234678"><ele>252.0</ele><time>2026-04-19T06:54:36Z</time></trkpt><trkpt lat="43.507972910332505" lon="11.839018509086252"><ele>252.0</ele><time>2026-04-19T06:54:37Z</time></trkpt><trkpt lat="43.50784875201296" lon="11.839110808270979"><ele>252.0</ele><time>2026-04-19T06:54:38Z</time></trkpt><trkpt lat="43.50773200640204" lon="11.83919823635898"><ele>252.0</ele><time>2026-04-19T06:54:39Z</time></trkpt><trkpt lat="43.50762146521691" lon="11.839281250344671"><ele>252.0</ele><time>2026-04-19T06:54:40Z</time></trkpt><trkpt lat="43.507529249027165" lon="11.839346994416683"><ele>252.0</ele><time>2026-04-19T06:54:41Z</time></trkpt><trkpt lat="43.507449400513565" lon="11.839403436282195"><ele>252.0</ele><time>2026-04-19T06:54:42Z</time></trkpt><trkpt lat="43.50738042220145" lon="11.839451016099504"><ele>252.0</ele><time>2026-04-19T06:54:43Z</time></trkpt><trkpt lat="43.50731136928106" lon="11.839487166370313"><ele>252.0</ele><time>2026-04-19T06:54:44Z</time></trkpt><trkpt lat="43.507249787656484" lon="11.839530239002732"><ele>252.0</ele><time>2026-04-19T06:54:45Z</time></trkpt><trkpt lat="43.507147527888115" lon="11.839458049727218"><ele>252.0</ele><time>2026-04-19T06:54:46Z</time></trkpt><trkpt lat="43.50705891407914" lon="11.839433194486993"><ele>252.16666666666666</ele><time>2026-04-19T06:54:47Z</time></trkpt><trkpt lat="43.50697024732777" lon="11.839430595689711"><ele>252.33333333333331</ele><time>2026-04-19T06:54:48Z</time></trkpt><trkpt lat="43.50688967246751" lon="11.839465120246814"><ele>252.5</ele><time>2026-04-19T06:54:49Z</time></trkpt><trkpt lat="43.506818756315205" lon="11.839532855597476"><ele>252.66666666666666</ele><time>2026-04-19T06:54:50Z</time></trkpt><trkpt lat="43.506753119948804" lon="11.839611580392143"><ele>252.83333333333331</ele><time>2026-04-19T06:54:51Z</time></trkpt><trkpt lat="43.5067308065677" lon="11.83974824123347"><ele>253.0</ele><time>2026-04-19T06:54:52Z</time></trkpt><trkpt lat="43.50671984939421" lon="11.839868535204111"><ele>253.0</ele><time>2026-04-19T06:54:53Z</time></trkpt><trkpt lat="43.50663934159365" lon="11.839989071811326"><ele>253.0</ele><time>2026-04-19T06:54:54Z</time></trkpt><trkpt lat="43.50654204158233" lon="11.840088644541405"><ele>253.0</ele><time>2026-04-19T06:54:55Z</time></trkpt><trkpt lat="43.50642739984843" lon="11.840176659791876"><ele>253.0</ele><time>2026-04-19T06:54:56Z</time></trkpt><trkpt lat="43.506299486442074" lon="11.840268865321923"><ele>252.33333333333331</ele><time>2026-04-19T06:54:57Z</time></trkpt><trkpt lat="43.50616199525539" lon="11.84037021134477"><ele>251.66666666666669</ele><time>2026-04-19T06:54:58Z</time></trkpt><trkpt lat="43.50601997951591" lon="11.840475205282255"><ele>251.0</ele><time>2026-04-19T06:54:59Z</time></trkpt><trkpt lat="43.505875303321176" lon="11.840582931161446"><ele>251.0</ele><time>2026-04-19T06:55:00Z</time></trkpt><trkpt lat="43.50572967296763" lon="11.840692677496849"><ele>251.0</ele><time>2026-04-19T06:55:01Z</time></trkpt><trkpt lat="43.50558718375754" lon="11.840797239577643"><ele>251.0</ele><time>2026-04-19T06:55:02Z</time></trkpt><trkpt lat="43.50544796502339" lon="11.840897278191301"><ele>251.33333333333334</ele><time>2026-04-19T06:55:03Z</time></trkpt><trkpt lat="43.50531078158971" lon="11.840999257141002"><ele>251.66666666666669</ele><time>2026-04-19T06:55:04Z</time></trkpt><trkpt lat="43.50517407255626" lon="11.841102417244077"><ele>252.0</ele><time>2026-04-19T06:55:05Z</time></trkpt><trkpt lat="43.50503379755431" lon="11.84120705815888"><ele>252.0</ele><time>2026-04-19T06:55:06Z</time></trkpt><trkpt lat="43.50489127316362" lon="11.841312972982315"><ele>252.0</ele><time>2026-04-19T06:55:07Z</time></trkpt><trkpt lat="43.50474619435147" lon="11.841418133979346"><ele>252.0</ele><time>2026-04-19T06:55:08Z</time></trkpt><trkpt lat="43.50459982864599" lon="11.84152265994462"><ele>251.0</ele><time>2026-04-19T06:55:09Z</time></trkpt><trkpt lat="43.50444769017242" lon="11.84163185380639"><ele>250.0</ele><time>2026-04-19T06:55:10Z</time></trkpt><trkpt lat="43.50429389256067" lon="11.84174326635426"><ele>249.0</ele><time>2026-04-19T06:55:11Z</time></trkpt><trkpt lat="43.50413539616482" lon="11.841859665347027"><ele>249.0</ele><time>2026-04-19T06:55:12Z</time></trkpt><trkpt lat="43.50397333677384" lon="11.841979094312642"><ele>249.0</ele><time>2026-04-19T06:55:13Z</time></trkpt><trkpt lat="43.503810066736975" lon="11.842103747294276"><ele>249.0</ele><time>2026-04-19T06:55:14Z</time></trkpt><trkpt lat="43.503645525314475" lon="11.842228463702504"><ele>248.33333333333331</ele><time>2026-04-19T06:55:15Z</time></trkpt><trkpt lat="43.50348054911758" lon="11.842350737778698"><ele>247.66666666666666</ele><time>2026-04-19T06:55:16Z</time></trkpt><trkpt lat="43.503312421019736" lon="11.842476035331309"><ele>247.0</ele><time>2026-04-19T06:55:17Z</time></trkpt><trkpt lat="43.50314399895878" lon="11.84260087741081"><ele>247.33333333333331</ele><time>2026-04-19T06:55:18Z</time></trkpt><trkpt lat="43.50297760659543" lon="11.842723732721726"><ele>247.66666666666669</ele><time>2026-04-19T06:55:19Z</time></trkpt><trkpt lat="43.50281135330469" lon="11.842845649694741"><ele>248.0</ele><time>2026-04-19T06:55:20Z</time></trkpt><trkpt lat="43.502646811569704" lon="11.84296746652485"><ele>248.0</ele><time>2026-04-19T06:55:21Z</time></trkpt><trkpt lat="43.502483171152036" lon="11.843089610595868"><ele>248.0</ele><time>2026-04-19T06:55:22Z</time></trkpt><trkpt lat="43.502319387048445" lon="11.84320933240252"><ele>248.0</ele><time>2026-04-19T06:55:23Z</time></trkpt><trkpt lat="43.50215701249635" lon="11.843330646690843"><ele>248.0</ele><time>2026-04-19T06:55:24Z</time></trkpt><trkpt lat="43.50199829248045" lon="11.843449931329877"><ele>248.0</ele><time>2026-04-19T06:55:25Z</time></trkpt><trkpt lat="43.50184343700005" lon="11.843567805379216"><ele>248.0</ele><time>2026-04-19T06:55:26Z</time></trkpt><trkpt lat="43.50169576372964" lon="11.843683262167726"><ele>249.33333333333334</ele><time>2026-04-19T06:55:27Z</time></trkpt><trkpt lat="43.501547006302225" lon="11.843794619842473"><ele>250.66666666666669</ele><time>2026-04-19T06:55:28Z</time></trkpt><trkpt lat="43.50139826179697" lon="11.843905751709597"><ele>252.0</ele><time>2026-04-19T06:55:29Z</time></trkpt><trkpt lat="43.50124984084025" lon="11.844016939230116"><ele>252.33333333333331</ele><time>2026-04-19T06:55:30Z</time></trkpt><trkpt lat="43.501101698194674" lon="11.844122416596548"><ele>252.66666666666666</ele><time>2026-04-19T06:55:31Z</time></trkpt><trkpt lat="43.500954291032556" lon="11.844232615012773"><ele>253.0</ele><time>2026-04-19T06:55:32Z</time></trkpt><trkpt lat="43.50080919364067" lon="11.844339252523922"><ele>252.33333333333331</ele><time>2026-04-19T06:55:33Z</time></trkpt><trkpt lat="43.500662763056305" lon="11.84444274597833"><ele>251.66666666666669</ele><time>2026-04-19T06:55:34Z</time></trkpt><trkpt lat="43.500517852769626" lon="11.844549860192284"><ele>251.0</ele><time>2026-04-19T06:55:35Z</time></trkpt><trkpt lat="43.50037224455475" lon="11.844660549572781"><ele>250.0</ele><time>2026-04-19T06:55:36Z</time></trkpt><trkpt lat="43.500225111919185" lon="11.844772012649583"><ele>249.0</ele><time>2026-04-19T06:55:37Z</time></trkpt><trkpt lat="43.50007555966299" lon="11.844878714364501"><ele>248.0</ele><time>2026-04-19T06:55:38Z</time></trkpt><trkpt lat="43.499925405836855" lon="11.844984990460112"><ele>248.0</ele><time>2026-04-19T06:55:39Z</time></trkpt><trkpt lat="43.49977358007524" lon="11.845095328457255"><ele>248.0</ele><time>2026-04-19T06:55:40Z</time></trkpt><trkpt lat="43.499624055708466" lon="11.845206650217264"><ele>248.0</ele><time>2026-04-19T06:55:41Z</time></trkpt><trkpt lat="43.49947457507177" lon="11.845321482468725"><ele>248.66666666666669</ele><time>2026-04-19T06:55:42Z</time></trkpt><trkpt lat="43.499321867662076" lon="11.845433118173728"><ele>249.33333333333331</ele><time>2026-04-19T06:55:43Z</time></trkpt><trkpt lat="43.49916947764676" lon="11.845542790502796"><ele>250.0</ele><time>2026-04-19T06:55:44Z</time></trkpt><trkpt lat="43.4990145026035" lon="11.8456545608775"><ele>250.0</ele><time>2026-04-19T06:55:45Z</time></trkpt><trkpt lat="43.49885999972113" lon="11.845768991578886"><ele>250.0</ele><time>2026-04-19T06:55:46Z</time></trkpt><trkpt lat="43.49870403390522" lon="11.845881271236125"><ele>250.0</ele><time>2026-04-19T06:55:47Z</time></trkpt><trkpt lat="43.49854625244228" lon="11.845997989617326"><ele>250.0</ele><time>2026-04-19T06:55:48Z</time></trkpt><trkpt lat="43.49838707277661" lon="11.846117699825584"><ele>250.0</ele><time>2026-04-19T06:55:49Z</time></trkpt><trkpt lat="43.49823633340456" lon="11.84623065496726"><ele>250.0</ele><time>2026-04-19T06:55:50Z</time></trkpt><trkpt lat="43.498093852752916" lon="11.846334079785477"><ele>250.0</ele><time>2026-04-19T06:55:51Z</time></trkpt><trkpt lat="43.49796033334689" lon="11.846432872002238"><ele>250.0</ele><time>2026-04-19T06:55:52Z</time></trkpt><trkpt lat="43.497834977117186" lon="11.846525533614395"><ele>250.0</ele><time>2026-04-19T06:55:53Z</time></trkpt><trkpt lat="43.49771190780295" lon="11.846616006641694"><ele>250.0</ele><time>2026-04-19T06:55:54Z</time></trkpt><trkpt lat="43.497593203566176" lon="11.846704299407904"><ele>250.2</ele><time>2026-04-19T06:55:55Z</time></trkpt><trkpt lat="43.49748504996292" lon="11.846784754435678"><ele>250.4</ele><time>2026-04-19T06:55:56Z</time></trkpt><trkpt lat="43.49739063297601" lon="11.846854405333138"><ele>250.60000000000002</ele><time>2026-04-19T06:55:57Z</time></trkpt><trkpt lat="43.497312962182725" lon="11.846913729608303"><ele>250.8</ele><time>2026-04-19T06:55:58Z</time></trkpt><trkpt lat="43.497244619599755" lon="11.84696721467318"><ele>251.0</ele><time>2026-04-19T06:55:59Z</time></trkpt><trkpt lat="43.49717546286171" lon="11.847022024619855"><ele>250.75</ele><time>2026-04-19T06:56:00Z</time></trkpt><trkpt lat="43.497077010653456" lon="11.847092185487211"><ele>250.5</ele><time>2026-04-19T06:56:01Z</time></trkpt><trkpt lat="43.49696934558016" lon="11.84716974165917"><ele>250.25</ele><time>2026-04-19T06:56:02Z</time></trkpt><trkpt lat="43.49684573062864" lon="11.847261599269215"><ele>250.0</ele><time>2026-04-19T06:56:03Z</time></trkpt><trkpt lat="43.49670802324909" lon="11.847356517752358"><ele>250.0</ele><time>2026-04-19T06:56:04Z</time></trkpt><trkpt lat="43.496573429461066" lon="11.84745635741027"><ele>250.0</ele><time>2026-04-19T06:56:05Z</time></trkpt><trkpt lat="43.49646076896252" lon="11.847541601018987"><ele>250.0</ele><time>2026-04-19T06:56:06Z</time></trkpt><trkpt lat="43.4963702116284" lon="11.847610313191305"><ele>250.0</ele><time>2026-04-19T06:56:07Z</time></trkpt><trkpt lat="43.496290937864465" lon="11.847667759622373"><ele>249.99999999999997</ele><time>2026-04-19T06:56:08Z</time></trkpt><trkpt lat="43.49621893071619" lon="11.847716938723984"><ele>250.0</ele><time>2026-04-19T06:56:09Z</time></trkpt><trkpt lat="43.49615378141856" lon="11.8477643047475"><ele>250.0</ele><time>2026-04-19T06:56:10Z</time></trkpt><trkpt lat="43.49609920398868" lon="11.847807809755075"><ele>250.0</ele><time>2026-04-19T06:56:11Z</time></trkpt><trkpt lat="43.496037814068934" lon="11.847853333454195"><ele>249.99999999999997</ele><time>2026-04-19T06:56:12Z</time></trkpt><trkpt lat="43.495940394375324" lon="11.847936716125801"><ele>250.0</ele><time>2026-04-19T06:56:13Z</time></trkpt><trkpt lat="43.495804864381604" lon="11.84802745919521"><ele>250.0</ele><time>2026-04-19T06:56:14Z</time></trkpt><trkpt lat="43.495666571684446" lon="11.848138759662701"><ele>250.0</ele><time>2026-04-19T06:56:15Z</time></trkpt><trkpt lat="43.49549651212601" lon="11.848265304916039"><ele>250.0</ele><time>2026-04-19T06:56:16Z</time></trkpt><trkpt lat="43.49531083823866" lon="11.848404229546986"><ele>247.5</ele><time>2026-04-19T06:56:17Z</time></trkpt><trkpt lat="43.4951061614077" lon="11.848531040061706"><ele>245.0</ele><time>2026-04-19T06:56:18Z</time></trkpt><trkpt lat="43.49490135512559" lon="11.848682775726843"><ele>245.0</ele><time>2026-04-19T06:56:19Z</time></trkpt><trkpt lat="43.49469987374987" lon="11.848832048193021"><ele>245.0</ele><time>2026-04-19T06:56:20Z</time></trkpt><trkpt lat="43.49449381852013" lon="11.848984709272372"><ele>245.33333333333334</ele><time>2026-04-19T06:56:21Z</time></trkpt><trkpt lat="43.49430252074958" lon="11.849145524509836"><ele>245.66666666666669</ele><time>2026-04-19T06:56:22Z</time></trkpt><trkpt lat="43.49410489916419" lon="11.849289369783095"><ele>246.0</ele><time>2026-04-19T06:56:23Z</time></trkpt><trkpt lat="43.49391886138601" lon="11.8494332585456"><ele>246.33333333333331</ele><time>2026-04-19T06:56:24Z</time></trkpt><trkpt lat="43.49373107508896" lon="11.849551228952933"><ele>246.66666666666666</ele><time>2026-04-19T06:56:25Z</time></trkpt><trkpt lat="43.49355103378867" lon="11.849689275254214"><ele>247.0</ele><time>2026-04-19T06:56:26Z</time></trkpt><trkpt lat="43.493374987425135" lon="11.849816738292361"><ele>247.0</ele><time>2026-04-19T06:56:27Z</time></trkpt><trkpt lat="43.493199128098944" lon="11.849943347227168"><ele>247.0</ele><time>2026-04-19T06:56:28Z</time></trkpt><trkpt lat="43.493022251968554" lon="11.850073920987052"><ele>247.0</ele><time>2026-04-19T06:56:29Z</time></trkpt><trkpt lat="43.49284738899412" lon="11.8502032780253"><ele>247.66666666666666</ele><time>2026-04-19T06:56:30Z</time></trkpt><trkpt lat="43.49266601126933" lon="11.850340960386493"><ele>248.33333333333331</ele><time>2026-04-19T06:56:31Z</time></trkpt><trkpt lat="43.492485473700356" lon="11.85047488060568"><ele>249.0</ele><time>2026-04-19T06:56:32Z</time></trkpt><trkpt lat="43.49230611968587" lon="11.850613761688813"><ele>249.0</ele><time>2026-04-19T06:56:33Z</time></trkpt><trkpt lat="43.49212756401613" lon="11.850746481436296"><ele>249.0</ele><time>2026-04-19T06:56:34Z</time></trkpt><trkpt lat="43.491953358257625" lon="11.850880175805726"><ele>249.0</ele><time>2026-04-19T06:56:35Z</time></trkpt><trkpt lat="43.49178481052395" lon="11.851007758631027"><ele>248.33333333333331</ele><time>2026-04-19T06:56:36Z</time></trkpt><trkpt lat="43.491620471426316" lon="11.851125472281296"><ele>247.66666666666666</ele><time>2026-04-19T06:56:37Z</time></trkpt><trkpt lat="43.49145967161021" lon="11.85124487184211"><ele>247.0</ele><time>2026-04-19T06:56:38Z</time></trkpt><trkpt lat="43.491306452556685" lon="11.851354926994897"><ele>246.66666666666666</ele><time>2026-04-19T06:56:39Z</time></trkpt><trkpt lat="43.49116162770922" lon="11.851465320743158"><ele>246.33333333333331</ele><time>2026-04-19T06:56:40Z</time></trkpt><trkpt lat="43.49102317255106" lon="11.851562942675487"><ele>246.0</ele><time>2026-04-19T06:56:41Z</time></trkpt><trkpt lat="43.4908928006093" lon="11.851646116611509"><ele>246.0</ele><time>2026-04-19T06:56:42Z</time></trkpt><trkpt lat="43.490765606147576" lon="11.851722500768403"><ele>246.0</ele><time>2026-04-19T06:56:43Z</time></trkpt><trkpt lat="43.49063315893801" lon="11.851760337970548"><ele>246.0</ele><time>2026-04-19T06:56:44Z</time></trkpt><trkpt lat="43.490483938995126" lon="11.851739068969811"><ele>246.0</ele><time>2026-04-19T06:56:45Z</time></trkpt><trkpt lat="43.49032084112868" lon="11.851712594810811"><ele>246.33333333333331</ele><time>2026-04-19T06:56:46Z</time></trkpt><trkpt lat="43.490143586278926" lon="11.851705554496943"><ele>246.66666666666666</ele><time>2026-04-19T06:56:47Z</time></trkpt><trkpt lat="43.48994765330198" lon="11.851679202800675"><ele>247.0</ele><time>2026-04-19T06:56:48Z</time></trkpt><trkpt lat="43.48975891525346" lon="11.851671614932743"><ele>247.0</ele><time>2026-04-19T06:56:49Z</time></trkpt><trkpt lat="43.489565261617635" lon="11.851669494529974"><ele>247.0</ele><time>2026-04-19T06:56:50Z</time></trkpt><trkpt lat="43.48937591629014" lon="11.851658108774183"><ele>247.0</ele><time>2026-04-19T06:56:51Z</time></trkpt><trkpt lat="43.489189377388115" lon="11.851629673046125"><ele>247.0</ele><time>2026-04-19T06:56:52Z</time></trkpt><trkpt lat="43.48900826656262" lon="11.851564096054405"><ele>247.0</ele><time>2026-04-19T06:56:53Z</time></trkpt><trkpt lat="43.48883051333007" lon="11.851477618311849"><ele>247.0</ele><time>2026-04-19T06:56:54Z</time></trkpt><trkpt lat="43.48865750830775" lon="11.851377605094449"><ele>246.0</ele><time>2026-04-19T06:56:55Z</time></trkpt><trkpt lat="43.488484514626" lon="11.851279236205896"><ele>245.0</ele><time>2026-04-19T06:56:56Z</time></trkpt><trkpt lat="43.48831202554306" lon="11.85117996347075"><ele>244.0</ele><time>2026-04-19T06:56:57Z</time></trkpt><trkpt lat="43.48814347071912" lon="11.851083197177022"><ele>244.0</ele><time>2026-04-19T06:56:58Z</time></trkpt><trkpt lat="43.48798022674739" lon="11.850990067868867"><ele>244.0</ele><time>2026-04-19T06:56:59Z</time></trkpt><trkpt lat="43.48781938469666" lon="11.850902991994774"><ele>244.0</ele><time>2026-04-19T06:57:00Z</time></trkpt><trkpt lat="43.48766197106972" lon="11.850827843439085"><ele>244.25</ele><time>2026-04-19T06:57:01Z</time></trkpt><trkpt lat="43.487513581081394" lon="11.850776132131264"><ele>244.5</ele><time>2026-04-19T06:57:02Z</time></trkpt><trkpt lat="43.487373099013425" lon="11.850740034830027"><ele>244.75</ele><time>2026-04-19T06:57:03Z</time></trkpt><trkpt lat="43.48724435927289" lon="11.85070699420139"><ele>245.0</ele><time>2026-04-19T06:57:04Z</time></trkpt><trkpt lat="43.487132128492945" lon="11.850665598827128"><ele>245.4</ele><time>2026-04-19T06:57:05Z</time></trkpt><trkpt lat="43.48703941663115" lon="11.850607678214693"><ele>245.8</ele><time>2026-04-19T06:57:06Z</time></trkpt><trkpt lat="43.486964590568576" lon="11.85052299680346"><ele>246.2</ele><time>2026-04-19T06:57:07Z</time></trkpt><trkpt lat="43.486934138990556" lon="11.85036705307767"><ele>246.6</ele><time>2026-04-19T06:57:08Z</time></trkpt><trkpt lat="43.4868780116224" lon="11.8502892006404"><ele>247.0</ele><time>2026-04-19T06:57:09Z</time></trkpt><trkpt lat="43.486836115734924" lon="11.85015372374475"><ele>247.39999999999998</ele><time>2026-04-19T06:57:10Z</time></trkpt><trkpt lat="43.48678880472428" lon="11.850039384884939"><ele>247.79999999999998</ele><time>2026-04-19T06:57:11Z</time></trkpt><trkpt lat="43.48672208113613" lon="11.849964429402736"><ele>248.2</ele><time>2026-04-19T06:57:12Z</time></trkpt><trkpt lat="43.48663477284977" lon="11.84992077960948"><ele>248.6</ele><time>2026-04-19T06:57:13Z</time></trkpt><trkpt lat="43.48652685216552" lon="11.84990190636295"><ele>249.0</ele><time>2026-04-19T06:57:14Z</time></trkpt><trkpt lat="43.48640350254634" lon="11.84990712398732"><ele>249.0</ele><time>2026-04-19T06:57:15Z</time></trkpt><trkpt lat="43.4862668119694" lon="11.849894406788263"><ele>249.0</ele><time>2026-04-19T06:57:16Z</time></trkpt><trkpt lat="43.4861227751595" lon="11.849867858061133"><ele>249.0</ele><time>2026-04-19T06:57:17Z</time></trkpt><trkpt lat="43.48597986932386" lon="11.849750938676337"><ele>249.0</ele><time>2026-04-19T06:57:18Z</time></trkpt><trkpt lat="43.485830536718765" lon="11.849660939014322"><ele>248.66666666666669</ele><time>2026-04-19T06:57:19Z</time></trkpt><trkpt lat="43.48567591172896" lon="11.849562009053376"><ele>248.33333333333334</ele><time>2026-04-19T06:57:20Z</time></trkpt><trkpt lat="43.48552831119253" lon="11.849442089498625"><ele>248.0</ele><time>2026-04-19T06:57:21Z</time></trkpt><trkpt lat="43.48538174471469" lon="11.849304089742233"><ele>247.33333333333334</ele><time>2026-04-19T06:57:22Z</time></trkpt><trkpt lat="43.48523128752606" lon="11.849172447708218"><ele>246.66666666666669</ele><time>2026-04-19T06:57:23Z</time></trkpt><trkpt lat="43.485065096628695" lon="11.8490728376661"><ele>246.0</ele><time>2026-04-19T06:57:24Z</time></trkpt><trkpt lat="43.484892962153125" lon="11.848986504289625"><ele>246.0</ele><time>2026-04-19T06:57:25Z</time></trkpt><trkpt lat="43.484727822384535" lon="11.848871137767492"><ele>246.0</ele><time>2026-04-19T06:57:26Z</time></trkpt><trkpt lat="43.48456480833385" lon="11.848751161811283"><ele>246.0</ele><time>2026-04-19T06:57:27Z</time></trkpt><trkpt lat="43.48440364137769" lon="11.848619377987868"><ele>246.33333333333331</ele><time>2026-04-19T06:57:28Z</time></trkpt><trkpt lat="43.4842388263388" lon="11.84849553923871"><ele>246.66666666666666</ele><time>2026-04-19T06:57:29Z</time></trkpt><trkpt lat="43.48408097371585" lon="11.848359398559408"><ele>247.0</ele><time>2026-04-19T06:57:30Z</time></trkpt><trkpt lat="43.48393550457362" lon="11.848236450106436"><ele>247.0</ele><time>2026-04-19T06:57:31Z</time></trkpt><trkpt lat="43.483798926161455" lon="11.848126410661147"><ele>247.0</ele><time>2026-04-19T06:57:32Z</time></trkpt><trkpt lat="43.483666546458906" lon="11.848029625252819"><ele>247.0</ele><time>2026-04-19T06:57:33Z</time></trkpt><trkpt lat="43.483535098007515" lon="11.8479598134015"><ele>247.0</ele><time>2026-04-19T06:57:34Z</time></trkpt><trkpt lat="43.48339366334257" lon="11.84792768204523"><ele>247.66666666666666</ele><time>2026-04-19T06:57:35Z</time></trkpt><trkpt lat="43.48323757153298" lon="11.847918745171581"><ele>248.33333333333331</ele><time>2026-04-19T06:57:36Z</time></trkpt><trkpt lat="43.483071595902295" lon="11.847905901850174"><ele>249.0</ele><time>2026-04-19T06:57:37Z</time></trkpt><trkpt lat="43.48290612933892" lon="11.847869633989397"><ele>249.66666666666669</ele><time>2026-04-19T06:57:38Z</time></trkpt><trkpt lat="43.482737354699964" lon="11.847809633024246"><ele>250.33333333333334</ele><time>2026-04-19T06:57:39Z</time></trkpt><trkpt lat="43.482571339121684" lon="11.847760700665036"><ele>251.0</ele><time>2026-04-19T06:57:40Z</time></trkpt><trkpt lat="43.48240162929964" lon="11.847737258620898"><ele>251.0</ele><time>2026-04-19T06:57:41Z</time></trkpt><trkpt lat="43.482234764421534" lon="11.847737467820382"><ele>251.0</ele><time>2026-04-19T06:57:42Z</time></trkpt><trkpt lat="43.482068212308675" lon="11.847738538028482"><ele>251.0</ele><time>2026-04-19T06:57:43Z</time></trkpt><trkpt lat="43.48190186333457" lon="11.847736886038643"><ele>252.33333333333334</ele><time>2026-04-19T06:57:44Z</time></trkpt><trkpt lat="43.48173766054454" lon="11.84775065935333"><ele>253.66666666666669</ele><time>2026-04-19T06:57:45Z</time></trkpt><trkpt lat="43.481577324954856" lon="11.847781848338718"><ele>255.0</ele><time>2026-04-19T06:57:46Z</time></trkpt><trkpt lat="43.4814219636621" lon="11.847816752997096"><ele>255.0</ele><time>2026-04-19T06:57:47Z</time></trkpt><trkpt lat="43.48127406228201" lon="11.847839447073458"><ele>255.0</ele><time>2026-04-19T06:57:48Z</time></trkpt><trkpt lat="43.48113309485305" lon="11.84784755076305"><ele>255.0</ele><time>2026-04-19T06:57:49Z</time></trkpt><trkpt lat="43.48099630214018" lon="11.84783899225025"><ele>255.0</ele><time>2026-04-19T06:57:50Z</time></trkpt><trkpt lat="43.48086598132086" lon="11.84780583088602"><ele>254.5</ele><time>2026-04-19T06:57:51Z</time></trkpt><trkpt lat="43.48074019404757" lon="11.847757324992912"><ele>254.0</ele><time>2026-04-19T06:57:52Z</time></trkpt><trkpt lat="43.480612213391524" lon="11.847711622000766"><ele>253.5</ele><time>2026-04-19T06:57:53Z</time></trkpt><trkpt lat="43.48048610917923" lon="11.847696209456846"><ele>253.0</ele><time>2026-04-19T06:57:54Z</time></trkpt><trkpt lat="43.48036545541668" lon="11.847718853795334"><ele>251.25</ele><time>2026-04-19T06:57:55Z</time></trkpt><trkpt lat="43.48024293048164" lon="11.847784827068153"><ele>249.5</ele><time>2026-04-19T06:57:56Z</time></trkpt><trkpt lat="43.4801176568419" lon="11.84786099072871"><ele>247.75</ele><time>2026-04-19T06:57:57Z</time></trkpt><trkpt lat="43.4799938488042" lon="11.847921186507232"><ele>246.0</ele><time>2026-04-19T06:57:58Z</time></trkpt><trkpt lat="43.47987254811506" lon="11.847979733893883"><ele>246.0</ele><time>2026-04-19T06:57:59Z</time></trkpt><trkpt lat="43.47975880297443" lon="11.84804776203609"><ele>246.0</ele><time>2026-04-19T06:58:00Z</time></trkpt><trkpt lat="43.479647353825904" lon="11.84812694156605"><ele>246.0</ele><time>2026-04-19T06:58:01Z</time></trkpt><trkpt lat="43.479546722755515" lon="11.84822581979543"><ele>246.0</ele><time>2026-04-19T06:58:02Z</time></trkpt><trkpt lat="43.47946203428359" lon="11.848318176239832"><ele>243.0</ele><time>2026-04-19T06:58:03Z</time></trkpt><trkpt lat="43.47938534708425" lon="11.848378810313934"><ele>240.00000000000003</ele><time>2026-04-19T06:58:04Z</time></trkpt><trkpt lat="43.47929624831539" lon="11.848409038458257"><ele>237.00000000000003</ele><time>2026-04-19T06:58:05Z</time></trkpt><trkpt lat="43.479203229488334" lon="11.848373079108356"><ele>234.0</ele><time>2026-04-19T06:58:06Z</time></trkpt><trkpt lat="43.47909238134689" lon="11.848351642615093"><ele>231.0</ele><time>2026-04-19T06:58:07Z</time></trkpt><trkpt lat="43.47897553557598" lon="11.84833053075243"><ele>231.0</ele><time>2026-04-19T06:58:08Z</time></trkpt><trkpt lat="43.478873022362436" lon="11.848294458969058"><ele>231.00000000000003</ele><time>2026-04-19T06:58:09Z</time></trkpt><trkpt lat="43.47880398739036" lon="11.848199403724454"><ele>231.00000000000003</ele><time>2026-04-19T06:58:10Z</time></trkpt><trkpt lat="43.478754219345795" lon="11.84808596304346"><ele>231.0</ele><time>2026-04-19T06:58:11Z</time></trkpt><trkpt lat="43.47870609594325" lon="11.847934348269062"><ele>231.0</ele><time>2026-04-19T06:58:12Z</time></trkpt><trkpt lat="43.47865089048967" lon="11.847764285278489"><ele>232.0</ele><time>2026-04-19T06:58:13Z</time></trkpt><trkpt lat="43.478612165217505" lon="11.847563455018175"><ele>233.0</ele><time>2026-04-19T06:58:14Z</time></trkpt><trkpt lat="43.47856896418904" lon="11.847346988359751"><ele>234.0</ele><time>2026-04-19T06:58:15Z</time></trkpt><trkpt lat="43.47851164380247" lon="11.847128104845611"><ele>234.0</ele><time>2026-04-19T06:58:16Z</time></trkpt><trkpt lat="43.47845784238535" lon="11.846896806586946"><ele>234.0</ele><time>2026-04-19T06:58:17Z</time></trkpt><trkpt lat="43.47840406269907" lon="11.8466534292058"><ele>234.0</ele><time>2026-04-19T06:58:18Z</time></trkpt><trkpt lat="43.47835371183725" lon="11.84642049025689"><ele>234.75</ele><time>2026-04-19T06:58:19Z</time></trkpt><trkpt lat="43.47830800230837" lon="11.846217992803197"><ele>235.5</ele><time>2026-04-19T06:58:20Z</time></trkpt><trkpt lat="43.47826841619267" lon="11.84603184129788"><ele>236.25</ele><time>2026-04-19T06:58:21Z</time></trkpt><trkpt lat="43.478236546313205" lon="11.84586697012414"><ele>237.0</ele><time>2026-04-19T06:58:22Z</time></trkpt><trkpt lat="43.47820069063407" lon="11.845719589174298"><ele>237.8</ele><time>2026-04-19T06:58:23Z</time></trkpt><trkpt lat="43.47817421306489" lon="11.845590515486135"><ele>238.6</ele><time>2026-04-19T06:58:24Z</time></trkpt><trkpt lat="43.478162255656514" lon="11.845478795207233"><ele>239.40000000000003</ele><time>2026-04-19T06:58:25Z</time></trkpt><trkpt lat="43.478141511902265" lon="11.84538686591217"><ele>240.20000000000002</ele><time>2026-04-19T06:58:26Z</time></trkpt><trkpt lat="43.47798492636167" lon="11.845358912140593"><ele>241.0</ele><time>2026-04-19T06:58:28Z</time></trkpt><trkpt lat="43.47788303347106" lon="11.845370650587432"><ele>241.0</ele><time>2026-04-19T06:58:29Z</time></trkpt><trkpt lat="43.4777581031586" lon="11.845372568782983"><ele>241.0</ele><time>2026-04-19T06:58:30Z</time></trkpt><trkpt lat="43.477622140259726" lon="11.845361647298887"><ele>241.0</ele><time>2026-04-19T06:58:31Z</time></trkpt><trkpt lat="43.477483443633055" lon="11.84535226860471"><ele>241.0</ele><time>2026-04-19T06:58:32Z</time></trkpt><trkpt lat="43.47734609116143" lon="11.84534557270561"><ele>241.0</ele><time>2026-04-19T06:58:33Z</time></trkpt><trkpt lat="43.477211630252604" lon="11.845335003916501"><ele>241.0</ele><time>2026-04-19T06:58:34Z</time></trkpt><trkpt lat="43.47707958011629" lon="11.845324635067616"><ele>241.0</ele><time>2026-04-19T06:58:35Z</time></trkpt><trkpt lat="43.476949732789805" lon="11.84531248017997"><ele>241.0</ele><time>2026-04-19T06:58:36Z</time></trkpt><trkpt lat="43.47682144361598" lon="11.845302588003678"><ele>241.0</ele><time>2026-04-19T06:58:37Z</time></trkpt><trkpt lat="43.47669659495172" lon="11.84529126530347"><ele>241.0</ele><time>2026-04-19T06:58:38Z</time></trkpt><trkpt lat="43.47657375914751" lon="11.845281191305347"><ele>241.0</ele><time>2026-04-19T06:58:39Z</time></trkpt><trkpt lat="43.4764533959938" lon="11.845269010913281"><ele>241.0</ele><time>2026-04-19T06:58:40Z</time></trkpt><trkpt lat="43.47633560730068" lon="11.845258088534656"><ele>240.75</ele><time>2026-04-19T06:58:41Z</time></trkpt><trkpt lat="43.4762177329098" lon="11.845246926200366"><ele>240.5</ele><time>2026-04-19T06:58:42Z</time></trkpt><trkpt lat="43.476100838487966" lon="11.845233526330764"><ele>240.25</ele><time>2026-04-19T06:58:43Z</time></trkpt><trkpt lat="43.4759799374576" lon="11.845223327352942"><ele>240.0</ele><time>2026-04-19T06:58:44Z</time></trkpt><trkpt lat="43.475856806573475" lon="11.845215218658751"><ele>240.0</ele><time>2026-04-19T06:58:45Z</time></trkpt><trkpt lat="43.47573083372903" lon="11.845207734043917"><ele>240.0</ele><time>2026-04-19T06:58:46Z</time></trkpt><trkpt lat="43.475601040366605" lon="11.845197134300683"><ele>240.0</ele><time>2026-04-19T06:58:47Z</time></trkpt><trkpt lat="43.47547041702661" lon="11.845189399903783"><ele>240.0</ele><time>2026-04-19T06:58:48Z</time></trkpt><trkpt lat="43.47533479916418" lon="11.845181576928036"><ele>240.75</ele><time>2026-04-19T06:58:49Z</time></trkpt><trkpt lat="43.4751950117012" lon="11.845168671510708"><ele>241.5</ele><time>2026-04-19T06:58:50Z</time></trkpt><trkpt lat="43.47505910706694" lon="11.845159305752542"><ele>242.25</ele><time>2026-04-19T06:58:51Z</time></trkpt><trkpt lat="43.47493133788664" lon="11.84515252513065"><ele>243.0</ele><time>2026-04-19T06:58:52Z</time></trkpt><trkpt lat="43.47481380462461" lon="11.845143539296645"><ele>243.0</ele><time>2026-04-19T06:58:53Z</time></trkpt><trkpt lat="43.4747135141257" lon="11.845133332604929"><ele>243.0</ele><time>2026-04-19T06:58:54Z</time></trkpt><trkpt lat="43.47462103014629" lon="11.845123230988314"><ele>243.0</ele><time>2026-04-19T06:58:55Z</time></trkpt><trkpt lat="43.47454715225305" lon="11.845111142957824"><ele>243.0</ele><time>2026-04-19T06:58:56Z</time></trkpt><trkpt lat="43.4744459333277" lon="11.845089638713263"><ele>243.0</ele><time>2026-04-19T06:58:58Z</time></trkpt><trkpt lat="43.47435247911008" lon="11.845065186771752"><ele>243.60000000000002</ele><time>2026-04-19T06:59:30Z</time></trkpt><trkpt lat="43.47424276371153" lon="11.84503100675528"><ele>244.20000000000002</ele><time>2026-04-19T06:59:32Z</time></trkpt><trkpt lat="43.47417014762022" lon="11.845009517493274"><ele>244.8</ele><time>2026-04-19T06:59:33Z</time></trkpt><trkpt lat="43.47408502487488" lon="11.844984478141575"><ele>245.4</ele><time>2026-04-19T06:59:34Z</time></trkpt><trkpt lat="43.47399014170648" lon="11.844953328689716"><ele>246.0</ele><time>2026-04-19T06:59:35Z</time></trkpt><trkpt lat="43.47389325404102" lon="11.84492064765825"><ele>246.0</ele><time>2026-04-19T06:59:36Z</time></trkpt><trkpt lat="43.47379506025914" lon="11.844887382781799"><ele>246.00000000000003</ele><time>2026-04-19T06:59:37Z</time></trkpt><trkpt lat="43.47369540123369" lon="11.844851237915474"><ele>246.00000000000003</ele><time>2026-04-19T06:59:38Z</time></trkpt><trkpt lat="43.473589673645805" lon="11.844812860786327"><ele>246.0</ele><time>2026-04-19T06:59:39Z</time></trkpt><trkpt lat="43.473477640790406" lon="11.844769061693865"><ele>246.0</ele><time>2026-04-19T06:59:40Z</time></trkpt><trkpt lat="43.473359050226364" lon="11.844725345427346"><ele>246.0</ele><time>2026-04-19T06:59:41Z</time></trkpt><trkpt lat="43.473236074901216" lon="11.844681705471423"><ele>246.0</ele><time>2026-04-19T06:59:42Z</time></trkpt><trkpt lat="43.47311059757432" lon="11.844637896038458"><ele>246.0</ele><time>2026-04-19T06:59:43Z</time></trkpt><trkpt lat="43.47298469277895" lon="11.844595230842971"><ele>246.0</ele><time>2026-04-19T06:59:44Z</time></trkpt><trkpt lat="43.47286927608349" lon="11.8445537909282"><ele>246.25</ele><time>2026-04-19T06:59:45Z</time></trkpt><trkpt lat="43.472754516332344" lon="11.84451121893174"><ele>246.5</ele><time>2026-04-19T06:59:46Z</time></trkpt><trkpt lat="43.47263333129566" lon="11.844466557579429"><ele>246.75</ele><time>2026-04-19T06:59:47Z</time></trkpt><trkpt lat="43.47251160715052" lon="11.844424372244628"><ele>247.0</ele><time>2026-04-19T06:59:48Z</time></trkpt><trkpt lat="43.47240262516369" lon="11.844385397314783"><ele>247.0</ele><time>2026-04-19T06:59:49Z</time></trkpt><trkpt lat="43.472301286102" lon="11.844347555677604"><ele>247.0</ele><time>2026-04-19T06:59:50Z</time></trkpt><trkpt lat="43.47219516683517" lon="11.844308151741357"><ele>247.0</ele><time>2026-04-19T06:59:51Z</time></trkpt><trkpt lat="43.47207995660996" lon="11.844267592924098"><ele>247.0</ele><time>2026-04-19T06:59:52Z</time></trkpt><trkpt lat="43.47195675395225" lon="11.844224195272773"><ele>246.75</ele><time>2026-04-19T06:59:53Z</time></trkpt><trkpt lat="43.471828740317484" lon="11.844170211465674"><ele>246.5</ele><time>2026-04-19T06:59:54Z</time></trkpt><trkpt lat="43.47169918952195" lon="11.844100604563002"><ele>246.25</ele><time>2026-04-19T06:59:55Z</time></trkpt><trkpt lat="43.471576575794096" lon="11.844004868362351"><ele>246.0</ele><time>2026-04-19T06:59:56Z</time></trkpt><trkpt lat="43.47146022049002" lon="11.843900930905159"><ele>246.0</ele><time>2026-04-19T06:59:57Z</time></trkpt><trkpt lat="43.471351476235654" lon="11.843774307465385"><ele>246.0</ele><time>2026-04-19T06:59:58Z</time></trkpt><trkpt lat="43.47125291510894" lon="11.843628160943622"><ele>246.0</ele><time>2026-04-19T06:59:59Z</time></trkpt><trkpt lat="43.47117215438011" lon="11.843468676288708"><ele>246.0</ele><time>2026-04-19T07:00:00Z</time></trkpt><trkpt lat="43.471104565900106" lon="11.84328866133699"><ele>246.0</ele><time>2026-04-19T07:00:01Z</time></trkpt><trkpt lat="43.47103014355426" lon="11.843118716596866"><ele>246.0</ele><time>2026-04-19T07:00:02Z</time></trkpt><trkpt lat="43.47095031389433" lon="11.842937023700907"><ele>246.0</ele><time>2026-04-19T07:00:03Z</time></trkpt><trkpt lat="43.470871071765586" lon="11.842751328424791"><ele>246.33333333333331</ele><time>2026-04-19T07:00:04Z</time></trkpt><trkpt lat="43.47079316747484" lon="11.842564446867398"><ele>246.66666666666666</ele><time>2026-04-19T07:00:05Z</time></trkpt><trkpt lat="43.47071486048593" lon="11.842377314985471"><ele>247.0</ele><time>2026-04-19T07:00:06Z</time></trkpt><trkpt lat="43.47063465724027" lon="11.842184916037644"><ele>247.0</ele><time>2026-04-19T07:00:07Z</time></trkpt><trkpt lat="43.47055438492076" lon="11.841989847559887"><ele>247.0</ele><time>2026-04-19T07:00:08Z</time></trkpt><trkpt lat="43.470472553819924" lon="11.841794316099021"><ele>247.0</ele><time>2026-04-19T07:00:09Z</time></trkpt><trkpt lat="43.47038970588325" lon="11.841599625775338"><ele>247.0</ele><time>2026-04-19T07:00:10Z</time></trkpt><trkpt lat="43.47030656032332" lon="11.841405870817384"><ele>247.0</ele><time>2026-04-19T07:00:11Z</time></trkpt><trkpt lat="43.47022564436413" lon="11.841211622534786"><ele>247.0</ele><time>2026-04-19T07:00:12Z</time></trkpt><trkpt lat="43.470150524283845" lon="11.841024010582766"><ele>246.5</ele><time>2026-04-19T07:00:13Z</time></trkpt><trkpt lat="43.470074651374325" lon="11.840837621642981"><ele>246.0</ele><time>2026-04-19T07:00:14Z</time></trkpt><trkpt lat="43.470002843356355" lon="11.840664890908595"><ele>245.5</ele><time>2026-04-19T07:00:15Z</time></trkpt><trkpt lat="43.469936073011134" lon="11.840502917183464"><ele>245.0</ele><time>2026-04-19T07:00:16Z</time></trkpt><trkpt lat="43.46987353948541" lon="11.840355259684348"><ele>245.0</ele><time>2026-04-19T07:00:17Z</time></trkpt><trkpt lat="43.46981324730115" lon="11.840226539823815"><ele>245.0</ele><time>2026-04-19T07:00:18Z</time></trkpt><trkpt lat="43.46974686120129" lon="11.840124546054298"><ele>245.0</ele><time>2026-04-19T07:00:19Z</time></trkpt><trkpt lat="43.46966884297783" lon="11.840054968989943"><ele>245.0</ele><time>2026-04-19T07:00:20Z</time></trkpt><trkpt lat="43.46958662032259" lon="11.840034319521703"><ele>245.0</ele><time>2026-04-19T07:00:21Z</time></trkpt><trkpt lat="43.46948483533392" lon="11.840053507436636"><ele>244.75</ele><time>2026-04-19T07:00:22Z</time></trkpt><trkpt lat="43.46937423251717" lon="11.840112493806886"><ele>244.5</ele><time>2026-04-19T07:00:23Z</time></trkpt><trkpt lat="43.469261623745616" lon="11.840207204678578"><ele>244.25</ele><time>2026-04-19T07:00:24Z</time></trkpt><trkpt lat="43.46913212866477" lon="11.84032854747505"><ele>244.0</ele><time>2026-04-19T07:00:25Z</time></trkpt><trkpt lat="43.46900206956577" lon="11.840434037551779"><ele>244.0</ele><time>2026-04-19T07:00:26Z</time></trkpt><trkpt lat="43.46884032158835" lon="11.840578790860834"><ele>244.0</ele><time>2026-04-19T07:00:27Z</time></trkpt><trkpt lat="43.468663539333484" lon="11.840733961409123"><ele>244.0</ele><time>2026-04-19T07:00:28Z</time></trkpt><trkpt lat="43.46847930447781" lon="11.840894136596726"><ele>245.0</ele><time>2026-04-19T07:00:29Z</time></trkpt><trkpt lat="43.46829587535199" lon="11.841053074981257"><ele>246.0</ele><time>2026-04-19T07:00:30Z</time></trkpt><trkpt lat="43.4681328656381" lon="11.841193255719576"><ele>247.0</ele><time>2026-04-19T07:00:31Z</time></trkpt><trkpt lat="43.467986700834615" lon="11.841324544019816"><ele>247.25</ele><time>2026-04-19T07:00:32Z</time></trkpt><trkpt lat="43.467847613185626" lon="11.84143551239798"><ele>247.5</ele><time>2026-04-19T07:00:33Z</time></trkpt><trkpt lat="43.467712313011866" lon="11.841519722053642"><ele>247.75</ele><time>2026-04-19T07:00:34Z</time></trkpt><trkpt lat="43.46758136557224" lon="11.841520035735153"><ele>248.0</ele><time>2026-04-19T07:00:35Z</time></trkpt><trkpt lat="43.46744587458552" lon="11.841493431414658"><ele>248.0</ele><time>2026-04-19T07:00:36Z</time></trkpt><trkpt lat="43.46732114306648" lon="11.841400179180383"><ele>248.0</ele><time>2026-04-19T07:00:37Z</time></trkpt><trkpt lat="43.46718017982567" lon="11.841317201159258"><ele>248.0</ele><time>2026-04-19T07:00:38Z</time></trkpt><trkpt lat="43.4670423098698" lon="11.841197243246526"><ele>248.0</ele><time>2026-04-19T07:00:39Z</time></trkpt><trkpt lat="43.46691669423371" lon="11.840974754948638"><ele>248.0</ele><time>2026-04-19T07:00:40Z</time></trkpt><trkpt lat="43.46674769327283" lon="11.840792629830931"><ele>248.0</ele><time>2026-04-19T07:00:41Z</time></trkpt><trkpt lat="43.46656189938552" lon="11.840611744428978"><ele>247.5</ele><time>2026-04-19T07:00:42Z</time></trkpt><trkpt lat="43.46636356805876" lon="11.840430439417554"><ele>247.0</ele><time>2026-04-19T07:00:43Z</time></trkpt><trkpt lat="43.46615859752708" lon="11.840245439595755"><ele>245.5</ele><time>2026-04-19T07:00:44Z</time></trkpt><trkpt lat="43.465958879763235" lon="11.840070509636051"><ele>244.0</ele><time>2026-04-19T07:00:45Z</time></trkpt><trkpt lat="43.46575452758627" lon="11.839900453170431"><ele>244.0</ele><time>2026-04-19T07:00:46Z</time></trkpt><trkpt lat="43.46555395480496" lon="11.839736351024523"><ele>244.0</ele><time>2026-04-19T07:00:47Z</time></trkpt><trkpt lat="43.46535433646381" lon="11.83957152338922"><ele>244.0</ele><time>2026-04-19T07:00:48Z</time></trkpt><trkpt lat="43.465160619308456" lon="11.839404994655775"><ele>244.0</ele><time>2026-04-19T07:00:49Z</time></trkpt><trkpt lat="43.464971382658696" lon="11.839239972024197"><ele>244.33333333333331</ele><time>2026-04-19T07:00:50Z</time></trkpt><trkpt lat="43.4647805291426" lon="11.839085917690735"><ele>244.66666666666669</ele><time>2026-04-19T07:00:51Z</time></trkpt><trkpt lat="43.464593687338194" lon="11.83893287454588"><ele>245.0</ele><time>2026-04-19T07:00:52Z</time></trkpt><trkpt lat="43.4644092434349" lon="11.83877657673777"><ele>245.0</ele><time>2026-04-19T07:00:53Z</time></trkpt><trkpt lat="43.46422806815381" lon="11.838622751086543"><ele>245.0</ele><time>2026-04-19T07:00:54Z</time></trkpt><trkpt lat="43.46404516004677" lon="11.838467139813737"><ele>245.0</ele><time>2026-04-19T07:00:55Z</time></trkpt><trkpt lat="43.463859482528214" lon="11.838319680768596"><ele>246.0</ele><time>2026-04-19T07:00:56Z</time></trkpt><trkpt lat="43.46368055116115" lon="11.83815405478865"><ele>247.0</ele><time>2026-04-19T07:00:57Z</time></trkpt><trkpt lat="43.463498534557836" lon="11.837990123584818"><ele>248.0</ele><time>2026-04-19T07:00:58Z</time></trkpt><trkpt lat="43.463322102354695" lon="11.837822078268289"><ele>248.0</ele><time>2026-04-19T07:00:59Z</time></trkpt><trkpt lat="43.46314952978739" lon="11.837638447302888"><ele>248.0</ele><time>2026-04-19T07:01:00Z</time></trkpt><trkpt lat="43.46298492527736" lon="11.837431566172542"><ele>248.0</ele><time>2026-04-19T07:01:01Z</time></trkpt><trkpt lat="43.46283079312303" lon="11.83720852882994"><ele>247.66666666666669</ele><time>2026-04-19T07:01:02Z</time></trkpt><trkpt lat="43.46270169433326" lon="11.836974642679246"><ele>247.33333333333331</ele><time>2026-04-19T07:01:03Z</time></trkpt><trkpt lat="43.462537366352706" lon="11.83674347017614"><ele>247.0</ele><time>2026-04-19T07:01:04Z</time></trkpt><trkpt lat="43.46241189254213" lon="11.83649676707723"><ele>246.33333333333331</ele><time>2026-04-19T07:01:05Z</time></trkpt><trkpt lat="43.46229313680882" lon="11.836249638543073"><ele>245.66666666666669</ele><time>2026-04-19T07:01:06Z</time></trkpt><trkpt lat="43.46217742483127" lon="11.835979359335301"><ele>245.0</ele><time>2026-04-19T07:01:07Z</time></trkpt><trkpt lat="43.462074804283255" lon="11.835687084448526"><ele>245.0</ele><time>2026-04-19T07:01:08Z</time></trkpt><trkpt lat="43.46200749877609" lon="11.835460448678553"><ele>245.0</ele><time>2026-04-19T07:01:09Z</time></trkpt><trkpt lat="43.46193841111965" lon="11.83516386459082"><ele>245.0</ele><time>2026-04-19T07:01:10Z</time></trkpt><trkpt lat="43.46188599310277" lon="11.834871902626928"><ele>245.0</ele><time>2026-04-19T07:01:11Z</time></trkpt><trkpt lat="43.46184478382769" lon="11.834571658675976"><ele>245.0</ele><time>2026-04-19T07:01:12Z</time></trkpt><trkpt lat="43.46180864054613" lon="11.834272683140489"><ele>245.0</ele><time>2026-04-19T07:01:13Z</time></trkpt><trkpt lat="43.461760930308934" lon="11.833982914118021"><ele>244.33333333333334</ele><time>2026-04-19T07:01:14Z</time></trkpt><trkpt lat="43.461737255609584" lon="11.833689166738932"><ele>243.66666666666669</ele><time>2026-04-19T07:01:15Z</time></trkpt><trkpt lat="43.46171081249368" lon="11.833392826364387"><ele>243.0</ele><time>2026-04-19T07:01:16Z</time></trkpt><trkpt lat="43.46167865913499" lon="11.833097790084462"><ele>243.0</ele><time>2026-04-19T07:01:17Z</time></trkpt><trkpt lat="43.461644733691706" lon="11.832801350267735"><ele>243.0</ele><time>2026-04-19T07:01:18Z</time></trkpt><trkpt lat="43.461610014618614" lon="11.832500278254987"><ele>243.0</ele><time>2026-04-19T07:01:19Z</time></trkpt><trkpt lat="43.46157341967318" lon="11.832180269005267"><ele>243.5</ele><time>2026-04-19T07:01:20Z</time></trkpt><trkpt lat="43.46154008111595" lon="11.83185151369033"><ele>244.0</ele><time>2026-04-19T07:01:21Z</time></trkpt><trkpt lat="43.4615021523212" lon="11.83151146578653"><ele>244.5</ele><time>2026-04-19T07:01:22Z</time></trkpt><trkpt lat="43.461466178879675" lon="11.831167744549846"><ele>245.0</ele><time>2026-04-19T07:01:23Z</time></trkpt><trkpt lat="43.46143394175455" lon="11.83081421000786"><ele>245.5</ele><time>2026-04-19T07:01:24Z</time></trkpt><trkpt lat="43.46140094543042" lon="11.830457545022279"><ele>246.0</ele><time>2026-04-19T07:01:25Z</time></trkpt><trkpt lat="43.4613693812977" lon="11.830094314104493"><ele>245.0</ele><time>2026-04-19T07:01:26Z</time></trkpt><trkpt lat="43.461335560002595" lon="11.829732364868498"><ele>244.0</ele><time>2026-04-19T07:01:27Z</time></trkpt><trkpt lat="43.46130298866569" lon="11.829368713114633"><ele>243.5</ele><time>2026-04-19T07:01:28Z</time></trkpt><trkpt lat="43.46126289596891" lon="11.829007839259893"><ele>243.0</ele><time>2026-04-19T07:01:29Z</time></trkpt><trkpt lat="43.46122909973036" lon="11.828650016869707"><ele>244.0</ele><time>2026-04-19T07:01:30Z</time></trkpt><trkpt lat="43.46119633823817" lon="11.828292862621907"><ele>245.0</ele><time>2026-04-19T07:01:31Z</time></trkpt><trkpt lat="43.46116657943601" lon="11.82793501970159"><ele>244.5</ele><time>2026-04-19T07:01:32Z</time></trkpt><trkpt lat="43.46112928997394" lon="11.827600068529899"><ele>244.0</ele><time>2026-04-19T07:01:33Z</time></trkpt><trkpt lat="43.46109485409593" lon="11.82726630370741"><ele>244.0</ele><time>2026-04-19T07:01:34Z</time></trkpt><trkpt lat="43.461060119002404" lon="11.826932336241189"><ele>244.0</ele><time>2026-04-19T07:01:35Z</time></trkpt><trkpt lat="43.46102030876814" lon="11.826591065971016"><ele>244.0</ele><time>2026-04-19T07:01:36Z</time></trkpt><trkpt lat="43.46097645208079" lon="11.82624337914338"><ele>244.0</ele><time>2026-04-19T07:01:37Z</time></trkpt><trkpt lat="43.46092949831815" lon="11.825893018957439"><ele>245.0</ele><time>2026-04-19T07:01:38Z</time></trkpt><trkpt lat="43.46088097670318" lon="11.825542818182178"><ele>246.0</ele><time>2026-04-19T07:01:39Z</time></trkpt><trkpt lat="43.46082912175716" lon="11.82519083941156"><ele>246.5</ele><time>2026-04-19T07:01:40Z</time></trkpt><trkpt lat="43.460770383326185" lon="11.824840863618736"><ele>247.0</ele><time>2026-04-19T07:01:41Z</time></trkpt><trkpt lat="43.46070226096142" lon="11.82449353371402"><ele>246.0</ele><time>2026-04-19T07:01:42Z</time></trkpt><trkpt lat="43.46063928201327" lon="11.824147314971208"><ele>245.0</ele><time>2026-04-19T07:01:43Z</time></trkpt><trkpt lat="43.4605746719015" lon="11.823808087176204"><ele>245.0</ele><time>2026-04-19T07:01:44Z</time></trkpt><trkpt lat="43.460508597368765" lon="11.823471073571689"><ele>245.0</ele><time>2026-04-19T07:01:45Z</time></trkpt><trkpt lat="43.46043995736583" lon="11.823141353087522"><ele>244.5</ele><time>2026-04-19T07:01:46Z</time></trkpt><trkpt lat="43.46036850276854" lon="11.822818210375567"><ele>244.0</ele><time>2026-04-19T07:01:47Z</time></trkpt><trkpt lat="43.46029596043292" lon="11.822497246135494"><ele>244.0</ele><time>2026-04-19T07:01:48Z</time></trkpt><trkpt lat="43.460219665308635" lon="11.82218767098324"><ele>244.0</ele><time>2026-04-19T07:01:49Z</time></trkpt><trkpt lat="43.46014583470275" lon="11.821871571915727"><ele>244.5</ele><time>2026-04-19T07:01:50Z</time></trkpt><trkpt lat="43.460060613641446" lon="11.821572300062359"><ele>245.0</ele><time>2026-04-19T07:01:51Z</time></trkpt><trkpt lat="43.459980529858505" lon="11.821264949927242"><ele>244.0</ele><time>2026-04-19T07:01:52Z</time></trkpt><trkpt lat="43.459904581933046" lon="11.820962320505032"><ele>243.0</ele><time>2026-04-19T07:01:53Z</time></trkpt><trkpt lat="43.459817863832484" lon="11.820656327119686"><ele>243.0</ele><time>2026-04-19T07:01:54Z</time></trkpt><trkpt lat="43.459732195731156" lon="11.820355806344082"><ele>243.0</ele><time>2026-04-19T07:01:55Z</time></trkpt><trkpt lat="43.459648738087616" lon="11.820044415077197"><ele>241.5</ele><time>2026-04-19T07:01:56Z</time></trkpt><trkpt lat="43.45956766453269" lon="11.819742983762904"><ele>240.0</ele><time>2026-04-19T07:01:57Z</time></trkpt><trkpt lat="43.45948074146534" lon="11.819436175061488"><ele>239.5</ele><time>2026-04-19T07:01:58Z</time></trkpt><trkpt lat="43.459396221339745" lon="11.819133111619081"><ele>239.0</ele><time>2026-04-19T07:01:59Z</time></trkpt><trkpt lat="43.45930997408505" lon="11.818829396672978"><ele>239.0</ele><time>2026-04-19T07:02:00Z</time></trkpt><trkpt lat="43.459223448251066" lon="11.818522512372477"><ele>239.0</ele><time>2026-04-19T07:02:01Z</time></trkpt><trkpt lat="43.459136094988246" lon="11.818211083823071"><ele>241.0</ele><time>2026-04-19T07:02:02Z</time></trkpt><trkpt lat="43.45904850900164" lon="11.817898583849507"><ele>243.0</ele><time>2026-04-19T07:02:03Z</time></trkpt><trkpt lat="43.458963174481596" lon="11.817585721063644"><ele>244.5</ele><time>2026-04-19T07:02:04Z</time></trkpt><trkpt lat="43.45887198026741" lon="11.817274060210513"><ele>246.0</ele><time>2026-04-19T07:02:05Z</time></trkpt><trkpt lat="43.45878556277557" lon="11.816959936671457"><ele>245.0</ele><time>2026-04-19T07:02:06Z</time></trkpt><trkpt lat="43.4586971524235" lon="11.816642859748026"><ele>244.0</ele><time>2026-04-19T07:02:07Z</time></trkpt><trkpt lat="43.45860766387481" lon="11.816326846725843"><ele>244.0</ele><time>2026-04-19T07:02:08Z</time></trkpt><trkpt lat="43.45851840745291" lon="11.81601131981009"><ele>244.0</ele><time>2026-04-19T07:02:09Z</time></trkpt><trkpt lat="43.458429992152844" lon="11.815691703745637"><ele>245.0</ele><time>2026-04-19T07:02:10Z</time></trkpt><trkpt lat="43.45833821171463" lon="11.81538129328015"><ele>246.0</ele><time>2026-04-19T07:02:11Z</time></trkpt><trkpt lat="43.45823773466748" lon="11.815068824958026"><ele>246.0</ele><time>2026-04-19T07:02:12Z</time></trkpt><trkpt lat="43.458126377475985" lon="11.814760641569276"><ele>246.0</ele><time>2026-04-19T07:02:13Z</time></trkpt><trkpt lat="43.458004000151355" lon="11.81447187691369"><ele>245.5</ele><time>2026-04-19T07:02:14Z</time></trkpt><trkpt lat="43.45787814426598" lon="11.814190139341267"><ele>245.0</ele><time>2026-04-19T07:02:15Z</time></trkpt><trkpt lat="43.45774581215527" lon="11.81392302470636"><ele>245.0</ele><time>2026-04-19T07:02:16Z</time></trkpt><trkpt lat="43.45761194891813" lon="11.813669769656379"><ele>245.0</ele><time>2026-04-19T07:02:17Z</time></trkpt><trkpt lat="43.45747288294206" lon="11.813427040539985"><ele>244.66666666666669</ele><time>2026-04-19T07:02:18Z</time></trkpt><trkpt lat="43.45732353597383" lon="11.813197889638971"><ele>244.33333333333331</ele><time>2026-04-19T07:02:19Z</time></trkpt><trkpt lat="43.4571776865991" lon="11.81296267173407"><ele>244.0</ele><time>2026-04-19T07:02:20Z</time></trkpt><trkpt lat="43.45702559545531" lon="11.812734501523593"><ele>244.0</ele><time>2026-04-19T07:02:21Z</time></trkpt><trkpt lat="43.45687022948381" lon="11.81251270300264"><ele>244.0</ele><time>2026-04-19T07:02:22Z</time></trkpt><trkpt lat="43.45671322776243" lon="11.812289544546838"><ele>244.0</ele><time>2026-04-19T07:02:23Z</time></trkpt><trkpt lat="43.45655328655402" lon="11.81206742231965"><ele>244.0</ele><time>2026-04-19T07:02:24Z</time></trkpt><trkpt lat="43.4563874716185" lon="11.811848891866664"><ele>244.0</ele><time>2026-04-19T07:02:25Z</time></trkpt><trkpt lat="43.45622309185791" lon="11.811627460846891"><ele>244.0</ele><time>2026-04-19T07:02:26Z</time></trkpt><trkpt lat="43.456061652428964" lon="11.81140493585561"><ele>244.0</ele><time>2026-04-19T07:02:27Z</time></trkpt><trkpt lat="43.45589579323421" lon="11.81118555314853"><ele>245.0</ele><time>2026-04-19T07:02:28Z</time></trkpt><trkpt lat="43.45573305326654" lon="11.810968448543395"><ele>246.0</ele><time>2026-04-19T07:02:29Z</time></trkpt><trkpt lat="43.45557217357597" lon="11.810746655995"><ele>246.5</ele><time>2026-04-19T07:02:30Z</time></trkpt><trkpt lat="43.45540914773264" lon="11.810528598450476"><ele>247.0</ele><time>2026-04-19T07:02:31Z</time></trkpt><trkpt lat="43.455249582617824" lon="11.810309697632784"><ele>246.66666666666666</ele><time>2026-04-19T07:02:32Z</time></trkpt><trkpt lat="43.45508313648406" lon="11.810095748465624"><ele>246.33333333333331</ele><time>2026-04-19T07:02:33Z</time></trkpt><trkpt lat="43.45492998680384" lon="11.80988111857961"><ele>246.0</ele><time>2026-04-19T07:02:34Z</time></trkpt><trkpt lat="43.45477595883627" lon="11.809665797788695"><ele>245.66666666666669</ele><time>2026-04-19T07:02:35Z</time></trkpt><trkpt lat="43.454616055007165" lon="11.809462416843935"><ele>245.33333333333334</ele><time>2026-04-19T07:02:36Z</time></trkpt><trkpt lat="43.45446222919667" lon="11.809250681019153"><ele>245.0</ele><time>2026-04-19T07:02:37Z</time></trkpt><trkpt lat="43.454310113095524" lon="11.80904002319679"><ele>245.0</ele><time>2026-04-19T07:02:38Z</time></trkpt><trkpt lat="43.454156716372715" lon="11.808835012395113"><ele>245.0</ele><time>2026-04-19T07:02:39Z</time></trkpt><trkpt lat="43.45400052024316" lon="11.808627388504657"><ele>245.0</ele><time>2026-04-19T07:02:40Z</time></trkpt><trkpt lat="43.45385104677252" lon="11.808425976689042"><ele>245.33333333333334</ele><time>2026-04-19T07:02:41Z</time></trkpt><trkpt lat="43.45370016887959" lon="11.808226439556854"><ele>245.66666666666669</ele><time>2026-04-19T07:02:42Z</time></trkpt><trkpt lat="43.45356425934325" lon="11.80804138689384"><ele>246.0</ele><time>2026-04-19T07:02:43Z</time></trkpt><trkpt lat="43.45343338395006" lon="11.807863346635092"><ele>246.0</ele><time>2026-04-19T07:02:44Z</time></trkpt><trkpt lat="43.45331001497933" lon="11.807697660819823"><ele>246.0</ele><time>2026-04-19T07:02:45Z</time></trkpt><trkpt lat="43.453194011954494" lon="11.807535492285849"><ele>246.0</ele><time>2026-04-19T07:02:46Z</time></trkpt><trkpt lat="43.453089029932435" lon="11.80737309037322"><ele>246.25</ele><time>2026-04-19T07:02:47Z</time></trkpt><trkpt lat="43.45300365012308" lon="11.807235757806563"><ele>246.5</ele><time>2026-04-19T07:02:48Z</time></trkpt><trkpt lat="43.452922979374215" lon="11.807114443198403"><ele>246.75</ele><time>2026-04-19T07:02:49Z</time></trkpt><trkpt lat="43.45284311392641" lon="11.806995851100226"><ele>247.0</ele><time>2026-04-19T07:02:50Z</time></trkpt><trkpt lat="43.45278312335198" lon="11.806881059735128"><ele>246.8</ele><time>2026-04-19T07:02:51Z</time></trkpt><trkpt lat="43.4527447407563" lon="11.80675619136969"><ele>246.6</ele><time>2026-04-19T07:02:52Z</time></trkpt><trkpt lat="43.45274684766231" lon="11.806629144653925"><ele>246.40000000000003</ele><time>2026-04-19T07:02:53Z</time></trkpt><trkpt lat="43.452781572370945" lon="11.806507950311248"><ele>246.20000000000002</ele><time>2026-04-19T07:02:54Z</time></trkpt><trkpt lat="43.45284664171229" lon="11.806407203773784"><ele>246.0</ele><time>2026-04-19T07:02:55Z</time></trkpt><trkpt lat="43.452934839771316" lon="11.806320736045029"><ele>246.16666666666666</ele><time>2026-04-19T07:02:56Z</time></trkpt><trkpt lat="43.45301437702239" lon="11.806244952801912"><ele>246.33333333333331</ele><time>2026-04-19T07:02:57Z</time></trkpt><trkpt lat="43.45307143176919" lon="11.80618036906093"><ele>246.5</ele><time>2026-04-19T07:02:58Z</time></trkpt><trkpt lat="43.45312841795989" lon="11.806127184846279"><ele>246.66666666666666</ele><time>2026-04-19T07:02:59Z</time></trkpt><trkpt lat="43.45314119594614" lon="11.806029702922473"><ele>246.83333333333331</ele><time>2026-04-19T07:03:01Z</time></trkpt><trkpt lat="43.453072602481114" lon="11.80593035496754"><ele>247.0</ele><time>2026-04-19T07:03:13Z</time></trkpt><trkpt lat="43.45299716023137" lon="11.805879480497127"><ele>247.5</ele><time>2026-04-19T07:03:14Z</time></trkpt><trkpt lat="43.45290389654611" lon="11.80586451193144"><ele>248.0</ele><time>2026-04-19T07:03:15Z</time></trkpt><trkpt lat="43.45278513444046" lon="11.80585539394564"><ele>248.5</ele><time>2026-04-19T07:03:16Z</time></trkpt><trkpt lat="43.452674116400026" lon="11.805821214229768"><ele>249.0</ele><time>2026-04-19T07:03:17Z</time></trkpt><trkpt lat="43.45252797951576" lon="11.8057507110625"><ele>249.0</ele><time>2026-04-19T07:03:18Z</time></trkpt><trkpt lat="43.45239327147987" lon="11.805641064324693"><ele>249.0</ele><time>2026-04-19T07:03:19Z</time></trkpt><trkpt lat="43.452278250733556" lon="11.805503475458773"><ele>249.0</ele><time>2026-04-19T07:03:20Z</time></trkpt><trkpt lat="43.45216076872615" lon="11.805342715848793"><ele>248.66666666666669</ele><time>2026-04-19T07:03:21Z</time></trkpt><trkpt lat="43.45205726518868" lon="11.805155210144543"><ele>248.33333333333334</ele><time>2026-04-19T07:03:22Z</time></trkpt><trkpt lat="43.45193880484695" lon="11.804973121742279"><ele>248.0</ele><time>2026-04-19T07:03:23Z</time></trkpt><trkpt lat="43.451836832535555" lon="11.804821916670601"><ele>248.0</ele><time>2026-04-19T07:03:24Z</time></trkpt><trkpt lat="43.451740690047835" lon="11.804640082770993"><ele>248.0</ele><time>2026-04-19T07:03:25Z</time></trkpt><trkpt lat="43.45164650666005" lon="11.804449723757486"><ele>248.0</ele><time>2026-04-19T07:03:26Z</time></trkpt><trkpt lat="43.451546127327866" lon="11.804265412627439"><ele>248.0</ele><time>2026-04-19T07:03:27Z</time></trkpt><trkpt lat="43.4514416282832" lon="11.804085109873746"><ele>248.0</ele><time>2026-04-19T07:03:28Z</time></trkpt><trkpt lat="43.4513503631416" lon="11.803896118278866"><ele>248.0</ele><time>2026-04-19T07:03:29Z</time></trkpt><trkpt lat="43.45128164034421" lon="11.803694875576198"><ele>248.33333333333334</ele><time>2026-04-19T07:03:30Z</time></trkpt><trkpt lat="43.45123958157622" lon="11.80348554421148"><ele>248.66666666666669</ele><time>2026-04-19T07:03:31Z</time></trkpt><trkpt lat="43.4512147017683" lon="11.803273541914557"><ele>249.0</ele><time>2026-04-19T07:03:32Z</time></trkpt><trkpt lat="43.45118955600715" lon="11.8030576927946"><ele>249.0</ele><time>2026-04-19T07:03:33Z</time></trkpt><trkpt lat="43.45115820136536" lon="11.802847817598792"><ele>249.0</ele><time>2026-04-19T07:03:34Z</time></trkpt><trkpt lat="43.45112634796427" lon="11.802640057215793"><ele>249.0</ele><time>2026-04-19T07:03:35Z</time></trkpt><trkpt lat="43.451093567427634" lon="11.802450303086022"><ele>249.25</ele><time>2026-04-19T07:03:36Z</time></trkpt><trkpt lat="43.451050811226885" lon="11.802275687160115"><ele>249.5</ele><time>2026-04-19T07:03:37Z</time></trkpt><trkpt lat="43.45099476868492" lon="11.802122052759545"><ele>249.75</ele><time>2026-04-19T07:03:38Z</time></trkpt><trkpt lat="43.45092769454137" lon="11.801970593902878"><ele>250.0</ele><time>2026-04-19T07:03:39Z</time></trkpt><trkpt lat="43.450861157832406" lon="11.801815597382433"><ele>250.0</ele><time>2026-04-19T07:03:40Z</time></trkpt><trkpt lat="43.450816879745304" lon="11.801655570116589"><ele>250.0</ele><time>2026-04-19T07:03:41Z</time></trkpt><trkpt lat="43.450755156624936" lon="11.801505391170902"><ele>250.0</ele><time>2026-04-19T07:03:42Z</time></trkpt><trkpt lat="43.45069324804591" lon="11.801351776471927"><ele>250.0</ele><time>2026-04-19T07:03:43Z</time></trkpt><trkpt lat="43.450631863053985" lon="11.801187628017132"><ele>250.0</ele><time>2026-04-19T07:03:44Z</time></trkpt><trkpt lat="43.450571206092455" lon="11.801011954402028"><ele>250.0</ele><time>2026-04-19T07:03:45Z</time></trkpt><trkpt lat="43.45048306892775" lon="11.800838192443836"><ele>250.0</ele><time>2026-04-19T07:03:46Z</time></trkpt><trkpt lat="43.450399786948644" lon="11.800644999144952"><ele>250.0</ele><time>2026-04-19T07:03:47Z</time></trkpt><trkpt lat="43.45030965420579" lon="11.800442340615929"><ele>250.0</ele><time>2026-04-19T07:03:48Z</time></trkpt><trkpt lat="43.45021826533955" lon="11.80023856794302"><ele>250.0</ele><time>2026-04-19T07:03:49Z</time></trkpt><trkpt lat="43.45012347997385" lon="11.800037257975722"><ele>250.0</ele><time>2026-04-19T07:03:50Z</time></trkpt><trkpt lat="43.45002266753523" lon="11.799849090834716"><ele>250.0</ele><time>2026-04-19T07:03:51Z</time></trkpt><trkpt lat="43.44990577791662" lon="11.799678795310047"><ele>250.0</ele><time>2026-04-19T07:03:52Z</time></trkpt><trkpt lat="43.44977141636221" lon="11.79953760314657"><ele>250.0</ele><time>2026-04-19T07:03:53Z</time></trkpt><trkpt lat="43.449633855673" lon="11.799407940099249"><ele>250.0</ele><time>2026-04-19T07:03:54Z</time></trkpt><trkpt lat="43.44950703403552" lon="11.799283524715086"><ele>250.0</ele><time>2026-04-19T07:03:55Z</time></trkpt><trkpt lat="43.44940893930607" lon="11.799137492262876"><ele>249.5</ele><time>2026-04-19T07:03:56Z</time></trkpt><trkpt lat="43.44931599671858" lon="11.79899631747981"><ele>249.0</ele><time>2026-04-19T07:03:57Z</time></trkpt><trkpt lat="43.449229585617694" lon="11.798843849736496"><ele>248.5</ele><time>2026-04-19T07:03:58Z</time></trkpt><trkpt lat="43.44915273691655" lon="11.798680302106545"><ele>248.0</ele><time>2026-04-19T07:03:59Z</time></trkpt><trkpt lat="43.44906868323722" lon="11.798513957040194"><ele>248.0</ele><time>2026-04-19T07:04:00Z</time></trkpt><trkpt lat="43.44900718929192" lon="11.798319718348244"><ele>248.0</ele><time>2026-04-19T07:04:01Z</time></trkpt><trkpt lat="43.44893489924644" lon="11.798117378377508"><ele>248.0</ele><time>2026-04-19T07:04:02Z</time></trkpt><trkpt lat="43.448856373883984" lon="11.797914149844052"><ele>248.0</ele><time>2026-04-19T07:04:03Z</time></trkpt><trkpt lat="43.448772574528924" lon="11.797722692633476"><ele>248.0</ele><time>2026-04-19T07:04:04Z</time></trkpt><trkpt lat="43.44867275214916" lon="11.797561232140135"><ele>248.0</ele><time>2026-04-19T07:04:05Z</time></trkpt><trkpt lat="43.448546880237934" lon="11.79743911091691"><ele>248.25</ele><time>2026-04-19T07:04:06Z</time></trkpt><trkpt lat="43.44841593085574" lon="11.79733811140508"><ele>248.5</ele><time>2026-04-19T07:04:07Z</time></trkpt><trkpt lat="43.44829720713832" lon="11.797253455616325"><ele>248.75</ele><time>2026-04-19T07:04:08Z</time></trkpt><trkpt lat="43.44819801323741" lon="11.797179375370453"><ele>249.0</ele><time>2026-04-19T07:04:09Z</time></trkpt><trkpt lat="43.44812317043879" lon="11.797103839786109"><ele>249.0</ele><time>2026-04-19T07:04:10Z</time></trkpt><trkpt lat="43.4480726251" lon="11.797012751822226"><ele>249.0</ele><time>2026-04-19T07:04:11Z</time></trkpt><trkpt lat="43.44803116961366" lon="11.796916741797103"><ele>249.0</ele><time>2026-04-19T07:04:12Z</time></trkpt><trkpt lat="43.447988460251096" lon="11.796836191220926"><ele>249.0</ele><time>2026-04-19T07:04:13Z</time></trkpt><trkpt lat="43.447932050404425" lon="11.79679036728776"><ele>249.0</ele><time>2026-04-19T07:04:14Z</time></trkpt><trkpt lat="43.44780781136767" lon="11.79684284633739"><ele>249.0</ele><time>2026-04-19T07:04:16Z</time></trkpt><trkpt lat="43.447721670395715" lon="11.796895127485033"><ele>249.0</ele><time>2026-04-19T07:04:17Z</time></trkpt><trkpt lat="43.44762436501504" lon="11.796984723197182"><ele>249.0</ele><time>2026-04-19T07:04:18Z</time></trkpt><trkpt lat="43.44749261860818" lon="11.796971787702331"><ele>249.0</ele><time>2026-04-19T07:04:19Z</time></trkpt><trkpt lat="43.447339825622734" lon="11.796979499703847"><ele>249.0</ele><time>2026-04-19T07:04:20Z</time></trkpt><trkpt lat="43.44718524446895" lon="11.796949291467303"><ele>249.33333333333331</ele><time>2026-04-19T07:04:21Z</time></trkpt><trkpt lat="43.44702148187077" lon="11.796908810584371"><ele>249.66666666666666</ele><time>2026-04-19T07:04:22Z</time></trkpt><trkpt lat="43.446863965294426" lon="11.796854330549065"><ele>250.0</ele><time>2026-04-19T07:04:23Z</time></trkpt><trkpt lat="43.44671199272486" lon="11.796781899625422"><ele>250.33333333333331</ele><time>2026-04-19T07:04:24Z</time></trkpt><trkpt lat="43.44656143718241" lon="11.79669172007031"><ele>250.66666666666669</ele><time>2026-04-19T07:04:25Z</time></trkpt><trkpt lat="43.44641023456861" lon="11.796590242834798"><ele>251.0</ele><time>2026-04-19T07:04:26Z</time></trkpt><trkpt lat="43.44626073806828" lon="11.796473453990707"><ele>251.0</ele><time>2026-04-19T07:04:27Z</time></trkpt><trkpt lat="43.44610869257373" lon="11.796351196411916"><ele>251.0</ele><time>2026-04-19T07:04:28Z</time></trkpt><trkpt lat="43.44595073205488" lon="11.79622788768669"><ele>251.0</ele><time>2026-04-19T07:04:29Z</time></trkpt><trkpt lat="43.44578803733684" lon="11.796106493063302"><ele>251.33333333333334</ele><time>2026-04-19T07:04:30Z</time></trkpt><trkpt lat="43.44561973886159" lon="11.795979964971734"><ele>251.66666666666669</ele><time>2026-04-19T07:04:31Z</time></trkpt><trkpt lat="43.445449872984355" lon="11.795852147440547"><ele>252.0</ele><time>2026-04-19T07:04:32Z</time></trkpt><trkpt lat="43.44527478722246" lon="11.795722725752672"><ele>251.33333333333331</ele><time>2026-04-19T07:04:33Z</time></trkpt><trkpt lat="43.445098590088556" lon="11.795593510956664"><ele>250.66666666666666</ele><time>2026-04-19T07:04:34Z</time></trkpt><trkpt lat="43.444919643988555" lon="11.795461550155423"><ele>250.0</ele><time>2026-04-19T07:04:35Z</time></trkpt><trkpt lat="43.44473896510017" lon="11.795326654131884"><ele>249.66666666666666</ele><time>2026-04-19T07:04:36Z</time></trkpt><trkpt lat="43.44455806804209" lon="11.795191586534107"><ele>249.33333333333331</ele><time>2026-04-19T07:04:37Z</time></trkpt><trkpt lat="43.44437883146737" lon="11.795059316014981"><ele>249.0</ele><time>2026-04-19T07:04:38Z</time></trkpt><trkpt lat="43.444200264467206" lon="11.79492657636241"><ele>249.0</ele><time>2026-04-19T07:04:39Z</time></trkpt><trkpt lat="43.444019836495706" lon="11.79479339190617"><ele>249.0</ele><time>2026-04-19T07:04:40Z</time></trkpt><trkpt lat="43.44384432731644" lon="11.794667337176849"><ele>249.0</ele><time>2026-04-19T07:04:41Z</time></trkpt><trkpt lat="43.443672974547255" lon="11.794548347215155"><ele>249.0</ele><time>2026-04-19T07:04:42Z</time></trkpt><trkpt lat="43.4435062613993" lon="11.794447990427237"><ele>249.0</ele><time>2026-04-19T07:04:43Z</time></trkpt><trkpt lat="43.44330812895338" lon="11.79434127861552"><ele>249.0</ele><time>2026-04-19T07:04:44Z</time></trkpt><trkpt lat="43.44311799918026" lon="11.794261608663305"><ele>249.33333333333331</ele><time>2026-04-19T07:04:45Z</time></trkpt><trkpt lat="43.442931206876345" lon="11.794210527564438"><ele>249.66666666666666</ele><time>2026-04-19T07:04:46Z</time></trkpt><trkpt lat="43.44274169907819" lon="11.794184981241497"><ele>250.0</ele><time>2026-04-19T07:04:47Z</time></trkpt><trkpt lat="43.442550202180364" lon="11.794182649736983"><ele>250.0</ele><time>2026-04-19T07:04:48Z</time></trkpt><trkpt lat="43.44236004790276" lon="11.794198788537487"><ele>250.0</ele><time>2026-04-19T07:04:49Z</time></trkpt><trkpt lat="43.44216796963082" lon="11.794219033863929"><ele>250.0</ele><time>2026-04-19T07:04:50Z</time></trkpt><trkpt lat="43.4419729562655" lon="11.794237988172332"><ele>250.33333333333331</ele><time>2026-04-19T07:04:51Z</time></trkpt><trkpt lat="43.44177483703789" lon="11.794257855590239"><ele>250.66666666666669</ele><time>2026-04-19T07:04:52Z</time></trkpt><trkpt lat="43.441575622912616" lon="11.794274894243731"><ele>251.0</ele><time>2026-04-19T07:04:53Z</time></trkpt><trkpt lat="43.44136941571362" lon="11.794275984706067"><ele>250.66666666666669</ele><time>2026-04-19T07:04:54Z</time></trkpt><trkpt lat="43.44116075290075" lon="11.794260596530243"><ele>250.33333333333331</ele><time>2026-04-19T07:04:55Z</time></trkpt><trkpt lat="43.440949145543904" lon="11.79422652895488"><ele>250.0</ele><time>2026-04-19T07:04:56Z</time></trkpt><trkpt lat="43.440737846926545" lon="11.794175323563342"><ele>250.0</ele><time>2026-04-19T07:04:57Z</time></trkpt><trkpt lat="43.440526939107706" lon="11.794126244927552"><ele>250.0</ele><time>2026-04-19T07:04:58Z</time></trkpt><trkpt lat="43.440318413452054" lon="11.794080231441423"><ele>250.0</ele><time>2026-04-19T07:04:59Z</time></trkpt><trkpt lat="43.440119354704464" lon="11.794040723583441"><ele>249.66666666666666</ele><time>2026-04-19T07:05:00Z</time></trkpt><trkpt lat="43.43992310402663" lon="11.794006597441005"><ele>249.33333333333331</ele><time>2026-04-19T07:05:01Z</time></trkpt><trkpt lat="43.439723501072" lon="11.793977972220736"><ele>249.0</ele><time>2026-04-19T07:05:02Z</time></trkpt><trkpt lat="43.43951730779147" lon="11.793968021922696"><ele>248.66666666666669</ele><time>2026-04-19T07:05:03Z</time></trkpt><trkpt lat="43.43930981891164" lon="11.79397054040935"><ele>248.33333333333334</ele><time>2026-04-19T07:05:04Z</time></trkpt><trkpt lat="43.439096338659844" lon="11.793990467148753"><ele>248.0</ele><time>2026-04-19T07:05:05Z</time></trkpt><trkpt lat="43.438881070003745" lon="11.794012375767812"><ele>248.66666666666669</ele><time>2026-04-19T07:05:06Z</time></trkpt><trkpt lat="43.438663644232506" lon="11.794030496564185"><ele>249.33333333333331</ele><time>2026-04-19T07:05:07Z</time></trkpt><trkpt lat="43.43844453162228" lon="11.794041239317778"><ele>250.0</ele><time>2026-04-19T07:05:08Z</time></trkpt><trkpt lat="43.43822894494397" lon="11.794053959801207"><ele>250.0</ele><time>2026-04-19T07:05:09Z</time></trkpt><trkpt lat="43.43802494881036" lon="11.794069443564725"><ele>250.0</ele><time>2026-04-19T07:05:10Z</time></trkpt><trkpt lat="43.437833970651134" lon="11.79408476850412"><ele>250.0</ele><time>2026-04-19T07:05:11Z</time></trkpt><trkpt lat="43.43764384746186" lon="11.794097821557935"><ele>250.0</ele><time>2026-04-19T07:05:12Z</time></trkpt><trkpt lat="43.4374473176838" lon="11.794109813663152"><ele>250.0</ele><time>2026-04-19T07:05:13Z</time></trkpt><trkpt lat="43.437247945211396" lon="11.794122696683308"><ele>250.0</ele><time>2026-04-19T07:05:14Z</time></trkpt><trkpt lat="43.43704648200151" lon="11.794129672074082"><ele>250.33333333333331</ele><time>2026-04-19T07:05:15Z</time></trkpt><trkpt lat="43.436840525510846" lon="11.794118076758716"><ele>250.66666666666669</ele><time>2026-04-19T07:05:16Z</time></trkpt><trkpt lat="43.436635007041644" lon="11.794074742086336"><ele>251.0</ele><time>2026-04-19T07:05:17Z</time></trkpt><trkpt lat="43.43643230655376" lon="11.7940059379163"><ele>251.66666666666669</ele><time>2026-04-19T07:05:18Z</time></trkpt><trkpt lat="43.43622986530848" lon="11.793915570335848"><ele>252.33333333333331</ele><time>2026-04-19T07:05:19Z</time></trkpt><trkpt lat="43.436028743900124" lon="11.793822501093521"><ele>253.0</ele><time>2026-04-19T07:05:20Z</time></trkpt><trkpt lat="43.435829657762035" lon="11.793728418836617"><ele>253.0</ele><time>2026-04-19T07:05:21Z</time></trkpt><trkpt lat="43.435642930213426" lon="11.793643360986993"><ele>253.0</ele><time>2026-04-19T07:05:22Z</time></trkpt><trkpt lat="43.43545574572759" lon="11.793560440208545"><ele>253.0</ele><time>2026-04-19T07:05:23Z</time></trkpt><trkpt lat="43.43526723267402" lon="11.793475673902668"><ele>253.66666666666666</ele><time>2026-04-19T07:05:24Z</time></trkpt><trkpt lat="43.435082816221495" lon="11.793389081078718"><ele>254.33333333333331</ele><time>2026-04-19T07:05:25Z</time></trkpt><trkpt lat="43.434905917562105" lon="11.793301053104758"><ele>255.0</ele><time>2026-04-19T07:05:26Z</time></trkpt><trkpt lat="43.434750792152435" lon="11.793247303586256"><ele>256.0</ele><time>2026-04-19T07:05:27Z</time></trkpt><trkpt lat="43.434599851487995" lon="11.793207173654924"><ele>257.0</ele><time>2026-04-19T07:05:28Z</time></trkpt><trkpt lat="43.43444349201081" lon="11.793193560140576"><ele>258.0</ele><time>2026-04-19T07:05:29Z</time></trkpt><trkpt lat="43.43428688285645" lon="11.793216052813777"><ele>258.0</ele><time>2026-04-19T07:05:30Z</time></trkpt><trkpt lat="43.434130792105655" lon="11.79327200642879"><ele>258.0</ele><time>2026-04-19T07:05:31Z</time></trkpt><trkpt lat="43.43398556584849" lon="11.793387303881936"><ele>258.0</ele><time>2026-04-19T07:05:32Z</time></trkpt><trkpt lat="43.433855997213655" lon="11.79351238695626"><ele>257.3333333333333</ele><time>2026-04-19T07:05:33Z</time></trkpt><trkpt lat="43.43373653398222" lon="11.793662189594546"><ele>256.66666666666663</ele><time>2026-04-19T07:05:34Z</time></trkpt><trkpt lat="43.43363668148891" lon="11.793837060918518"><ele>256.0</ele><time>2026-04-19T07:05:35Z</time></trkpt><trkpt lat="43.433551995843274" lon="11.794024474223948"><ele>256.0</ele><time>2026-04-19T07:05:36Z</time></trkpt><trkpt lat="43.43348526492936" lon="11.794215700469337"><ele>256.0</ele><time>2026-04-19T07:05:37Z</time></trkpt><trkpt lat="43.43341958382089" lon="11.79440567379159"><ele>256.0</ele><time>2026-04-19T07:05:38Z</time></trkpt><trkpt lat="43.43334682198445" lon="11.794597172978614"><ele>255.0</ele><time>2026-04-19T07:05:39Z</time></trkpt><trkpt lat="43.43326230498455" lon="11.794802743119146"><ele>254.0</ele><time>2026-04-19T07:05:40Z</time></trkpt><trkpt lat="43.43316532631672" lon="11.79501552146127"><ele>253.0</ele><time>2026-04-19T07:05:41Z</time></trkpt><trkpt lat="43.433059284669575" lon="11.795233034571156"><ele>253.0</ele><time>2026-04-19T07:05:42Z</time></trkpt><trkpt lat="43.43294047571195" lon="11.795448945128442"><ele>253.0</ele><time>2026-04-19T07:05:43Z</time></trkpt><trkpt lat="43.43280419186555" lon="11.795657116327193"><ele>253.0</ele><time>2026-04-19T07:05:44Z</time></trkpt><trkpt lat="43.43265874749451" lon="11.795864191064227"><ele>252.0</ele><time>2026-04-19T07:05:45Z</time></trkpt><trkpt lat="43.43250999284598" lon="11.79607229234312"><ele>251.0</ele><time>2026-04-19T07:05:46Z</time></trkpt><trkpt lat="43.432366822478905" lon="11.79627956460371"><ele>250.0</ele><time>2026-04-19T07:05:47Z</time></trkpt><trkpt lat="43.43223284415086" lon="11.796476607368087"><ele>250.0</ele><time>2026-04-19T07:05:48Z</time></trkpt><trkpt lat="43.43210523922313" lon="11.796661780228527"><ele>250.0</ele><time>2026-04-19T07:05:49Z</time></trkpt><trkpt lat="43.43198601611956" lon="11.796832794928099"><ele>250.0</ele><time>2026-04-19T07:05:50Z</time></trkpt><trkpt lat="43.431873286639636" lon="11.796992854404289"><ele>250.0</ele><time>2026-04-19T07:05:51Z</time></trkpt><trkpt lat="43.43176974879076" lon="11.797143061734104"><ele>250.0</ele><time>2026-04-19T07:05:52Z</time></trkpt><trkpt lat="43.43166878930546" lon="11.797282270384875"><ele>250.0</ele><time>2026-04-19T07:05:53Z</time></trkpt><trkpt lat="43.43155293049309" lon="11.797407957261987"><ele>250.0</ele><time>2026-04-19T07:05:54Z</time></trkpt><trkpt lat="43.43142367342104" lon="11.797516038894646"><ele>249.33333333333331</ele><time>2026-04-19T07:05:55Z</time></trkpt><trkpt lat="43.43128129034865" lon="11.79760455049299"><ele>248.66666666666669</ele><time>2026-04-19T07:05:56Z</time></trkpt><trkpt lat="43.43112217483915" lon="11.797653127557377"><ele>248.0</ele><time>2026-04-19T07:05:57Z</time></trkpt><trkpt lat="43.430953711593666" lon="11.797658522353187"><ele>248.0</ele><time>2026-04-19T07:05:58Z</time></trkpt><trkpt lat="43.430775633388286" lon="11.7976196450031"><ele>248.0</ele><time>2026-04-19T07:05:59Z</time></trkpt><trkpt lat="43.430594380758755" lon="11.797545699659453"><ele>248.0</ele><time>2026-04-19T07:06:00Z</time></trkpt><trkpt lat="43.43041423573497" lon="11.797452685020499"><ele>248.66666666666669</ele><time>2026-04-19T07:06:01Z</time></trkpt><trkpt lat="43.43023155284355" lon="11.797350521433343"><ele>249.33333333333331</ele><time>2026-04-19T07:06:02Z</time></trkpt><trkpt lat="43.43005073605616" lon="11.797259290387844"><ele>250.0</ele><time>2026-04-19T07:06:03Z</time></trkpt><trkpt lat="43.42986587230639" lon="11.797152775032007"><ele>250.0</ele><time>2026-04-19T07:06:04Z</time></trkpt><trkpt lat="43.42968549604102" lon="11.797045782907588"><ele>250.0</ele><time>2026-04-19T07:06:05Z</time></trkpt><trkpt lat="43.429502630623126" lon="11.796946371010431"><ele>250.0</ele><time>2026-04-19T07:06:06Z</time></trkpt><trkpt lat="43.42932344422552" lon="11.796845232531002"><ele>250.0</ele><time>2026-04-19T07:06:07Z</time></trkpt><trkpt lat="43.42914648115233" lon="11.796744573952402"><ele>250.0</ele><time>2026-04-19T07:06:08Z</time></trkpt><trkpt lat="43.42897322824438" lon="11.79664301455602"><ele>250.0</ele><time>2026-04-19T07:06:09Z</time></trkpt><trkpt lat="43.428799935313634" lon="11.796546273139343"><ele>250.0</ele><time>2026-04-19T07:06:10Z</time></trkpt><trkpt lat="43.42862833116446" lon="11.796447866942986"><ele>250.0</ele><time>2026-04-19T07:06:11Z</time></trkpt><trkpt lat="43.42845711597409" lon="11.796350587557674"><ele>250.0</ele><time>2026-04-19T07:06:12Z</time></trkpt><trkpt lat="43.42828102460196" lon="11.796249441711968"><ele>250.0</ele><time>2026-04-19T07:06:13Z</time></trkpt><trkpt lat="43.42810695710233" lon="11.79615594837871"><ele>250.0</ele><time>2026-04-19T07:06:14Z</time></trkpt><trkpt lat="43.42793643180368" lon="11.796059485085669"><ele>250.0</ele><time>2026-04-19T07:06:15Z</time></trkpt><trkpt lat="43.42775969634097" lon="11.795961784833148"><ele>250.66666666666666</ele><time>2026-04-19T07:06:16Z</time></trkpt><trkpt lat="43.42758269271385" lon="11.795857981830403"><ele>251.33333333333331</ele><time>2026-04-19T07:06:17Z</time></trkpt><trkpt lat="43.4274015129396" lon="11.795754358735994"><ele>252.0</ele><time>2026-04-19T07:06:18Z</time></trkpt><trkpt lat="43.42722022054999" lon="11.79565666480802"><ele>251.0</ele><time>2026-04-19T07:06:19Z</time></trkpt><trkpt lat="43.42704183592365" lon="11.79556019521614"><ele>250.0</ele><time>2026-04-19T07:06:20Z</time></trkpt><trkpt lat="43.426865316072764" lon="11.795457999640037"><ele>249.0</ele><time>2026-04-19T07:06:21Z</time></trkpt><trkpt lat="43.42668845791069" lon="11.79535963835889"><ele>249.0</ele><time>2026-04-19T07:06:22Z</time></trkpt><trkpt lat="43.4265107854851" lon="11.795260818526865"><ele>249.0</ele><time>2026-04-19T07:06:23Z</time></trkpt><trkpt lat="43.42633265952057" lon="11.7951597043179"><ele>249.0</ele><time>2026-04-19T07:06:24Z</time></trkpt><trkpt lat="43.42615437234657" lon="11.795060761061315"><ele>250.66666666666669</ele><time>2026-04-19T07:06:25Z</time></trkpt><trkpt lat="43.425986896907645" lon="11.794963436378472"><ele>252.33333333333334</ele><time>2026-04-19T07:06:26Z</time></trkpt><trkpt lat="43.425831599532536" lon="11.79487403016725"><ele>254.0</ele><time>2026-04-19T07:06:27Z</time></trkpt><trkpt lat="43.425685000265545" lon="11.794791286336357"><ele>254.0</ele><time>2026-04-19T07:06:28Z</time></trkpt><trkpt lat="43.425537093672034" lon="11.794713610963852"><ele>254.0</ele><time>2026-04-19T07:06:29Z</time></trkpt><trkpt lat="43.425383874176525" lon="11.79465028043749"><ele>254.0</ele><time>2026-04-19T07:06:30Z</time></trkpt><trkpt lat="43.425224394766715" lon="11.794603430686807"><ele>254.33333333333334</ele><time>2026-04-19T07:06:31Z</time></trkpt><trkpt lat="43.42505852328128" lon="11.79458591485541"><ele>254.66666666666669</ele><time>2026-04-19T07:06:32Z</time></trkpt><trkpt lat="43.42489503966814" lon="11.794577856304313"><ele>255.0</ele><time>2026-04-19T07:06:33Z</time></trkpt><trkpt lat="43.42472892442044" lon="11.79458546164264"><ele>256.3333333333333</ele><time>2026-04-19T07:06:34Z</time></trkpt><trkpt lat="43.42456540114311" lon="11.794600047775461"><ele>257.66666666666663</ele><time>2026-04-19T07:06:35Z</time></trkpt><trkpt lat="43.424395033601165" lon="11.79461918180751"><ele>259.0</ele><time>2026-04-19T07:06:36Z</time></trkpt><trkpt lat="43.42422374628697" lon="11.794641366166603"><ele>259.0</ele><time>2026-04-19T07:06:37Z</time></trkpt><trkpt lat="43.42404919407741" lon="11.794665430140759"><ele>259.0</ele><time>2026-04-19T07:06:38Z</time></trkpt><trkpt lat="43.423872871881365" lon="11.794690795382879"><ele>259.0</ele><time>2026-04-19T07:06:39Z</time></trkpt><trkpt lat="43.4236945186306" lon="11.79472374325171"><ele>258.0</ele><time>2026-04-19T07:06:40Z</time></trkpt><trkpt lat="43.423519948373695" lon="11.794764580903122"><ele>257.0</ele><time>2026-04-19T07:06:41Z</time></trkpt><trkpt lat="43.42334475810143" lon="11.794817819387534"><ele>256.0</ele><time>2026-04-19T07:06:42Z</time></trkpt><trkpt lat="43.42316650736012" lon="11.794874676693137"><ele>256.0</ele><time>2026-04-19T07:06:43Z</time></trkpt><trkpt lat="43.42299081344284" lon="11.794936542129365"><ele>256.0</ele><time>2026-04-19T07:06:44Z</time></trkpt><trkpt lat="43.42281708486995" lon="11.794998070979226"><ele>256.0</ele><time>2026-04-19T07:06:45Z</time></trkpt><trkpt lat="43.42263998612775" lon="11.795058747589362"><ele>255.0</ele><time>2026-04-19T07:06:46Z</time></trkpt><trkpt lat="43.42246103054074" lon="11.795118351160554"><ele>254.0</ele><time>2026-04-19T07:06:47Z</time></trkpt><trkpt lat="43.422284820311155" lon="11.795175333735523"><ele>253.0</ele><time>2026-04-19T07:06:48Z</time></trkpt><trkpt lat="43.42211006433592" lon="11.795235647259021"><ele>252.66666666666666</ele><time>2026-04-19T07:06:49Z</time></trkpt><trkpt lat="43.42193519931463" lon="11.795293363230037"><ele>252.33333333333331</ele><time>2026-04-19T07:06:50Z</time></trkpt><trkpt lat="43.42176026327743" lon="11.795352261503961"><ele>252.0</ele><time>2026-04-19T07:06:51Z</time></trkpt><trkpt lat="43.42158322865844" lon="11.795409384118413"><ele>252.0</ele><time>2026-04-19T07:06:52Z</time></trkpt><trkpt lat="43.42140189371228" lon="11.795469425322805"><ele>252.0</ele><time>2026-04-19T07:06:53Z</time></trkpt><trkpt lat="43.42121956417712" lon="11.795527885122896"><ele>252.0</ele><time>2026-04-19T07:06:54Z</time></trkpt><trkpt lat="43.4210337846278" lon="11.795580876336873"><ele>252.0</ele><time>2026-04-19T07:06:55Z</time></trkpt><trkpt lat="43.42084657484521" lon="11.795634671091761"><ele>252.0</ele><time>2026-04-19T07:06:56Z</time></trkpt><trkpt lat="43.42065866478089" lon="11.795687990115356"><ele>252.0</ele><time>2026-04-19T07:06:57Z</time></trkpt><trkpt lat="43.42047020651892" lon="11.79574088628031"><ele>252.0</ele><time>2026-04-19T07:06:58Z</time></trkpt><trkpt lat="43.42027765742322" lon="11.795791605952376"><ele>252.0</ele><time>2026-04-19T07:06:59Z</time></trkpt><trkpt lat="43.42008343944698" lon="11.795844629614063"><ele>252.0</ele><time>2026-04-19T07:07:00Z</time></trkpt><trkpt lat="43.419889321999825" lon="11.795897526289451"><ele>252.0</ele><time>2026-04-19T07:07:01Z</time></trkpt><trkpt lat="43.419694352582354" lon="11.795950885740915"><ele>252.0</ele><time>2026-04-19T07:07:02Z</time></trkpt><trkpt lat="43.41949813168566" lon="11.79600507111055"><ele>252.0</ele><time>2026-04-19T07:07:03Z</time></trkpt><trkpt lat="43.419296185791964" lon="11.796058884900628"><ele>251.66666666666669</ele><time>2026-04-19T07:07:04Z</time></trkpt><trkpt lat="43.419105707875126" lon="11.796113860276094"><ele>251.33333333333334</ele><time>2026-04-19T07:07:05Z</time></trkpt><trkpt lat="43.41892228905277" lon="11.796166691873303"><ele>251.0</ele><time>2026-04-19T07:07:06Z</time></trkpt><trkpt lat="43.41874595829309" lon="11.796220174881109"><ele>251.0</ele><time>2026-04-19T07:07:07Z</time></trkpt><trkpt lat="43.41856688196979" lon="11.796280881881161"><ele>251.0</ele><time>2026-04-19T07:07:08Z</time></trkpt><trkpt lat="43.41838679450184" lon="11.796342790460852"><ele>251.0</ele><time>2026-04-19T07:07:09Z</time></trkpt><trkpt lat="43.418209328921805" lon="11.796402274614193"><ele>251.0</ele><time>2026-04-19T07:07:10Z</time></trkpt><trkpt lat="43.418033427571935" lon="11.796464306190595"><ele>251.0</ele><time>2026-04-19T07:07:11Z</time></trkpt><trkpt lat="43.41785900257905" lon="11.796529042333619"><ele>251.0</ele><time>2026-04-19T07:07:12Z</time></trkpt><trkpt lat="43.417686274225474" lon="11.79658830098723"><ele>250.66666666666669</ele><time>2026-04-19T07:07:13Z</time></trkpt><trkpt lat="43.41750861081625" lon="11.796650499292054"><ele>250.33333333333331</ele><time>2026-04-19T07:07:14Z</time></trkpt><trkpt lat="43.41733267675541" lon="11.796701902953625"><ele>250.0</ele><time>2026-04-19T07:07:15Z</time></trkpt><trkpt lat="43.417150719561754" lon="11.796736668100044"><ele>249.0</ele><time>2026-04-19T07:07:16Z</time></trkpt><trkpt lat="43.416969161063776" lon="11.796714654241493"><ele>248.0</ele><time>2026-04-19T07:07:17Z</time></trkpt><trkpt lat="43.416784544750705" lon="11.796700662723838"><ele>247.0</ele><time>2026-04-19T07:07:18Z</time></trkpt><trkpt lat="43.41660038512777" lon="11.796652613178999"><ele>247.0</ele><time>2026-04-19T07:07:19Z</time></trkpt><trkpt lat="43.41641039480942" lon="11.796593984994411"><ele>247.0</ele><time>2026-04-19T07:07:20Z</time></trkpt><trkpt lat="43.41622114620543" lon="11.796533555546413"><ele>247.0</ele><time>2026-04-19T07:07:21Z</time></trkpt><trkpt lat="43.416035222657435" lon="11.796480591634904"><ele>247.0</ele><time>2026-04-19T07:07:22Z</time></trkpt><trkpt lat="43.41585665943412" lon="11.796443398503293"><ele>247.0</ele><time>2026-04-19T07:07:23Z</time></trkpt><trkpt lat="43.41567641532561" lon="11.796428237009494"><ele>247.0</ele><time>2026-04-19T07:07:24Z</time></trkpt><trkpt lat="43.41549778070913" lon="11.796438588209748"><ele>247.0</ele><time>2026-04-19T07:07:25Z</time></trkpt><trkpt lat="43.41532159827716" lon="11.796476401473448"><ele>247.0</ele><time>2026-04-19T07:07:26Z</time></trkpt><trkpt lat="43.4151497150404" lon="11.796535887334906"><ele>247.0</ele><time>2026-04-19T07:07:27Z</time></trkpt><trkpt lat="43.41497903592049" lon="11.796602405189224"><ele>247.0</ele><time>2026-04-19T07:07:28Z</time></trkpt><trkpt lat="43.41480689735646" lon="11.796676137789763"><ele>247.0</ele><time>2026-04-19T07:07:29Z</time></trkpt><trkpt lat="43.41464010450855" lon="11.796744602700707"><ele>247.0</ele><time>2026-04-19T07:07:30Z</time></trkpt><trkpt lat="43.414483693874985" lon="11.796803293826494"><ele>247.0</ele><time>2026-04-19T07:07:31Z</time></trkpt><trkpt lat="43.41433298267949" lon="11.796861370316597"><ele>247.0</ele><time>2026-04-19T07:07:32Z</time></trkpt><trkpt lat="43.41417833753576" lon="11.796928748911307"><ele>247.0</ele><time>2026-04-19T07:07:33Z</time></trkpt><trkpt lat="43.414030511042434" lon="11.797007387087659"><ele>247.0</ele><time>2026-04-19T07:07:34Z</time></trkpt><trkpt lat="43.413889341539004" lon="11.797104253063134"><ele>247.0</ele><time>2026-04-19T07:07:35Z</time></trkpt><trkpt lat="43.413753117160844" lon="11.797219463022214"><ele>247.0</ele><time>2026-04-19T07:07:36Z</time></trkpt><trkpt lat="43.413618535029165" lon="11.797352068883509"><ele>247.0</ele><time>2026-04-19T07:07:37Z</time></trkpt><trkpt lat="43.4134875181848" lon="11.797511941690601"><ele>247.0</ele><time>2026-04-19T07:07:38Z</time></trkpt><trkpt lat="43.41336093274297" lon="11.797686145563123"><ele>247.0</ele><time>2026-04-19T07:07:39Z</time></trkpt><trkpt lat="43.41324019702961" lon="11.797870941762758"><ele>247.33333333333331</ele><time>2026-04-19T07:07:40Z</time></trkpt><trkpt lat="43.413126019823316" lon="11.798039609691727"><ele>247.66666666666669</ele><time>2026-04-19T07:07:41Z</time></trkpt><trkpt lat="43.41301770740841" lon="11.798202279542686"><ele>248.0</ele><time>2026-04-19T07:07:42Z</time></trkpt><trkpt lat="43.41290461629583" lon="11.79836409942146"><ele>247.0</ele><time>2026-04-19T07:07:43Z</time></trkpt><trkpt lat="43.41279163871377" lon="11.798525580918735"><ele>246.0</ele><time>2026-04-19T07:07:44Z</time></trkpt><trkpt lat="43.41267914694338" lon="11.798687638503097"><ele>245.0</ele><time>2026-04-19T07:07:45Z</time></trkpt><trkpt lat="43.412567103762825" lon="11.7988503824544"><ele>245.0</ele><time>2026-04-19T07:07:46Z</time></trkpt><trkpt lat="43.41245898015804" lon="11.799009247098612"><ele>245.0</ele><time>2026-04-19T07:07:47Z</time></trkpt><trkpt lat="43.41235372928564" lon="11.799162380388825"><ele>245.0</ele><time>2026-04-19T07:07:48Z</time></trkpt><trkpt lat="43.412247662727644" lon="11.799313225298134"><ele>245.66666666666669</ele><time>2026-04-19T07:07:49Z</time></trkpt><trkpt lat="43.41213912138028" lon="11.799468924243953"><ele>246.33333333333331</ele><time>2026-04-19T07:07:50Z</time></trkpt><trkpt lat="43.41202874925936" lon="11.799630041875282"><ele>247.0</ele><time>2026-04-19T07:07:51Z</time></trkpt><trkpt lat="43.41191988709973" lon="11.799791079697151"><ele>247.0</ele><time>2026-04-19T07:07:52Z</time></trkpt><trkpt lat="43.41181567594442" lon="11.799943422000316"><ele>247.0</ele><time>2026-04-19T07:07:53Z</time></trkpt><trkpt lat="43.41171547217703" lon="11.80008511029387"><ele>247.0</ele><time>2026-04-19T07:07:54Z</time></trkpt><trkpt lat="43.41162439037946" lon="11.8002155015842"><ele>247.0</ele><time>2026-04-19T07:07:55Z</time></trkpt><trkpt lat="43.41154489581135" lon="11.800328169056522"><ele>246.83333333333331</ele><time>2026-04-19T07:07:56Z</time></trkpt><trkpt lat="43.411475505454426" lon="11.800423511951125"><ele>246.66666666666666</ele><time>2026-04-19T07:07:57Z</time></trkpt><trkpt lat="43.41141183588555" lon="11.800504508290773"><ele>246.5</ele><time>2026-04-19T07:07:58Z</time></trkpt><trkpt lat="43.41135867723305" lon="11.800560753425366"><ele>246.33333333333331</ele><time>2026-04-19T07:07:59Z</time></trkpt><trkpt lat="43.411301228899454" lon="11.800611400529219"><ele>246.16666666666666</ele><time>2026-04-19T07:08:01Z</time></trkpt><trkpt lat="43.41123060204464" lon="11.800664670218895"><ele>246.0</ele><time>2026-04-19T07:08:04Z</time></trkpt><trkpt lat="43.411137317881845" lon="11.800528866085603"><ele>246.60000000000002</ele><time>2026-04-19T07:08:05Z</time></trkpt><trkpt lat="43.41108625075046" lon="11.800439326708988"><ele>247.20000000000002</ele><time>2026-04-19T07:08:06Z</time></trkpt><trkpt lat="43.411033472370555" lon="11.800325409066902"><ele>247.79999999999998</ele><time>2026-04-19T07:08:07Z</time></trkpt><trkpt lat="43.410973663899384" lon="11.800190806461334"><ele>248.39999999999998</ele><time>2026-04-19T07:08:08Z</time></trkpt><trkpt lat="43.410915958173256" lon="11.800072865671158"><ele>249.0</ele><time>2026-04-19T07:08:09Z</time></trkpt><trkpt lat="43.410858800878216" lon="11.79995173334644"><ele>249.5</ele><time>2026-04-19T07:08:10Z</time></trkpt><trkpt lat="43.4107921939958" lon="11.799817421851904"><ele>250.0</ele><time>2026-04-19T07:08:11Z</time></trkpt><trkpt lat="43.410724823442756" lon="11.799677162917583"><ele>250.5</ele><time>2026-04-19T07:08:12Z</time></trkpt><trkpt lat="43.410654528869195" lon="11.79953324443089"><ele>251.0</ele><time>2026-04-19T07:08:13Z</time></trkpt><trkpt lat="43.41058458336588" lon="11.799393806875916"><ele>250.75</ele><time>2026-04-19T07:08:14Z</time></trkpt><trkpt lat="43.410514982305884" lon="11.799241335601028"><ele>250.5</ele><time>2026-04-19T07:08:15Z</time></trkpt><trkpt lat="43.41043865772187" lon="11.799086043334814"><ele>250.25</ele><time>2026-04-19T07:08:16Z</time></trkpt><trkpt lat="43.410356991356906" lon="11.798930770927567"><ele>250.0</ele><time>2026-04-19T07:08:17Z</time></trkpt><trkpt lat="43.41026692778703" lon="11.798774728450677"><ele>249.5</ele><time>2026-04-19T07:08:18Z</time></trkpt><trkpt lat="43.4101637118701" lon="11.798625904478543"><ele>249.0</ele><time>2026-04-19T07:08:19Z</time></trkpt><trkpt lat="43.41005348389904" lon="11.798493077057502"><ele>248.5</ele><time>2026-04-19T07:08:20Z</time></trkpt><trkpt lat="43.40992894700393" lon="11.79838057825872"><ele>248.0</ele><time>2026-04-19T07:08:21Z</time></trkpt><trkpt lat="43.40978729122755" lon="11.798285597336271"><ele>248.33333333333334</ele><time>2026-04-19T07:08:22Z</time></trkpt><trkpt lat="43.40963267857764" lon="11.798216663691436"><ele>248.66666666666669</ele><time>2026-04-19T07:08:23Z</time></trkpt><trkpt lat="43.409481439017696" lon="11.79815888969233"><ele>249.0</ele><time>2026-04-19T07:08:24Z</time></trkpt><trkpt lat="43.40934179293716" lon="11.79810964193464"><ele>249.0</ele><time>2026-04-19T07:08:25Z</time></trkpt><trkpt lat="43.40922096121545" lon="11.79807293507934"><ele>248.99999999999997</ele><time>2026-04-19T07:08:26Z</time></trkpt><trkpt lat="43.40912090022887" lon="11.798040967375126"><ele>248.99999999999997</ele><time>2026-04-19T07:08:27Z</time></trkpt><trkpt lat="43.40904184372507" lon="11.798013508013979"><ele>249.0</ele><time>2026-04-19T07:08:28Z</time></trkpt><trkpt lat="43.40897415574994" lon="11.797992133644193"><ele>249.0</ele><time>2026-04-19T07:08:29Z</time></trkpt><trkpt lat="43.408869189805564" lon="11.797954194005747"><ele>249.0</ele><time>2026-04-19T07:08:31Z</time></trkpt><trkpt lat="43.40880737419817" lon="11.79793454042989"><ele>249.0</ele><time>2026-04-19T07:08:33Z</time></trkpt><trkpt lat="43.40874189473006" lon="11.79791921435993"><ele>249.0</ele><time>2026-04-19T07:08:35Z</time></trkpt><trkpt lat="43.40868181918093" lon="11.797882498179078"><ele>249.0</ele><time>2026-04-19T07:08:36Z</time></trkpt><trkpt lat="43.40860189287254" lon="11.798030887476896"><ele>249.0</ele><time>2026-04-19T07:08:37Z</time></trkpt><trkpt lat="43.40853797008618" lon="11.79812980524335"><ele>249.0</ele><time>2026-04-19T07:08:38Z</time></trkpt><trkpt lat="43.40845252148326" lon="11.798229248872861"><ele>249.0</ele><time>2026-04-19T07:08:39Z</time></trkpt><trkpt lat="43.40835772480388" lon="11.79832159395836"><ele>249.0</ele><time>2026-04-19T07:08:40Z</time></trkpt><trkpt lat="43.408259657529406" lon="11.798414246158927"><ele>249.0</ele><time>2026-04-19T07:08:41Z</time></trkpt><trkpt lat="43.40815293937755" lon="11.798518871099077"><ele>249.0</ele><time>2026-04-19T07:08:42Z</time></trkpt><trkpt lat="43.40804731643667" lon="11.798633634914257"><ele>249.0</ele><time>2026-04-19T07:08:43Z</time></trkpt><trkpt lat="43.40792680209499" lon="11.798732923077635"><ele>249.0</ele><time>2026-04-19T07:08:44Z</time></trkpt><trkpt lat="43.40781201007591" lon="11.798848501029395"><ele>249.0</ele><time>2026-04-19T07:08:45Z</time></trkpt><trkpt lat="43.40769175972276" lon="11.798961074920873"><ele>249.0</ele><time>2026-04-19T07:08:46Z</time></trkpt><trkpt lat="43.407568471916456" lon="11.799080753404029"><ele>249.0</ele><time>2026-04-19T07:08:47Z</time></trkpt><trkpt lat="43.40744946852704" lon="11.799195822942837"><ele>249.0</ele><time>2026-04-19T07:08:48Z</time></trkpt><trkpt lat="43.407337684109365" lon="11.79929865441813"><ele>249.0</ele><time>2026-04-19T07:08:49Z</time></trkpt><trkpt lat="43.40722457117497" lon="11.799408323126691"><ele>249.0</ele><time>2026-04-19T07:08:50Z</time></trkpt><trkpt lat="43.407110860969404" lon="11.79952015122273"><ele>248.75</ele><time>2026-04-19T07:08:51Z</time></trkpt><trkpt lat="43.40699967521878" lon="11.799627587407526"><ele>248.5</ele><time>2026-04-19T07:08:52Z</time></trkpt><trkpt lat="43.406895173324" lon="11.79972748042583"><ele>248.25</ele><time>2026-04-19T07:08:53Z</time></trkpt><trkpt lat="43.4068124732593" lon="11.79980171282905"><ele>248.0</ele><time>2026-04-19T07:08:54Z</time></trkpt><trkpt lat="43.40673685420074" lon="11.79987370153369"><ele>248.00000000000003</ele><time>2026-04-19T07:08:55Z</time></trkpt><trkpt lat="43.40667394540104" lon="11.799940968409377"><ele>248.0</ele><time>2026-04-19T07:08:56Z</time></trkpt><trkpt lat="43.40660805188866" lon="11.800011686714294"><ele>248.0</ele><time>2026-04-19T07:08:57Z</time></trkpt><trkpt lat="43.40652712968451" lon="11.800100687328651"><ele>248.0</ele><time>2026-04-19T07:08:58Z</time></trkpt><trkpt lat="43.40645007770272" lon="11.800173052029841"><ele>248.00000000000003</ele><time>2026-04-19T07:08:59Z</time></trkpt><trkpt lat="43.406381494598826" lon="11.800232581688247"><ele>248.0</ele><time>2026-04-19T07:09:00Z</time></trkpt><trkpt lat="43.40631988301574" lon="11.800287271829466"><ele>248.16666666666669</ele><time>2026-04-19T07:09:01Z</time></trkpt><trkpt lat="43.406260904786166" lon="11.800344021479408"><ele>248.33333333333334</ele><time>2026-04-19T07:09:02Z</time></trkpt><trkpt lat="43.40620293728852" lon="11.800397238374803"><ele>248.5</ele><time>2026-04-19T07:09:03Z</time></trkpt><trkpt lat="43.40613910836074" lon="11.800458341393842"><ele>248.66666666666669</ele><time>2026-04-19T07:09:04Z</time></trkpt><trkpt lat="43.40606831364085" lon="11.80052615135658"><ele>248.83333333333334</ele><time>2026-04-19T07:09:05Z</time></trkpt><trkpt lat="43.40599529030508" lon="11.800602577150446"><ele>249.0</ele><time>2026-04-19T07:09:06Z</time></trkpt><trkpt lat="43.40591523459925" lon="11.800676934868664"><ele>249.0</ele><time>2026-04-19T07:09:07Z</time></trkpt><trkpt lat="43.40582239579974" lon="11.800762767973485"><ele>249.0</ele><time>2026-04-19T07:09:08Z</time></trkpt><trkpt lat="43.405710572242974" lon="11.800872034932045"><ele>249.0</ele><time>2026-04-19T07:09:09Z</time></trkpt><trkpt lat="43.405589624670995" lon="11.800993455294096"><ele>249.0</ele><time>2026-04-19T07:09:10Z</time></trkpt><trkpt lat="43.40545154992775" lon="11.80113338910815"><ele>248.66666666666669</ele><time>2026-04-19T07:09:11Z</time></trkpt><trkpt lat="43.4053007574526" lon="11.801275854811209"><ele>248.33333333333334</ele><time>2026-04-19T07:09:12Z</time></trkpt><trkpt lat="43.405149628207866" lon="11.80142139408737"><ele>248.0</ele><time>2026-04-19T07:09:13Z</time></trkpt><trkpt lat="43.404996030733514" lon="11.801576756129611"><ele>248.0</ele><time>2026-04-19T07:09:14Z</time></trkpt><trkpt lat="43.404792187274005" lon="11.801733572323993"><ele>248.0</ele><time>2026-04-19T07:09:15Z</time></trkpt><trkpt lat="43.404631607959324" lon="11.801936586481046"><ele>247.0</ele><time>2026-04-19T07:09:16Z</time></trkpt><trkpt lat="43.40444408142358" lon="11.802110567416939"><ele>246.0</ele><time>2026-04-19T07:09:17Z</time></trkpt><trkpt lat="43.40425200851753" lon="11.802296096921228"><ele>246.0</ele><time>2026-04-19T07:09:18Z</time></trkpt><trkpt lat="43.40405874708406" lon="11.802485110846753"><ele>246.0</ele><time>2026-04-19T07:09:19Z</time></trkpt><trkpt lat="43.4038604440211" lon="11.802674638408325"><ele>247.0</ele><time>2026-04-19T07:09:20Z</time></trkpt><trkpt lat="43.40366277325291" lon="11.802864533709448"><ele>248.0</ele><time>2026-04-19T07:09:21Z</time></trkpt><trkpt lat="43.40347176718659" lon="11.803052630193216"><ele>248.0</ele><time>2026-04-19T07:09:22Z</time></trkpt><trkpt lat="43.40328664602245" lon="11.80323098397605"><ele>248.0</ele><time>2026-04-19T07:09:23Z</time></trkpt><trkpt lat="43.40310820397818" lon="11.803389260979728"><ele>248.0</ele><time>2026-04-19T07:09:24Z</time></trkpt><trkpt lat="43.40293079367928" lon="11.803511785298525"><ele>247.33333333333334</ele><time>2026-04-19T07:09:25Z</time></trkpt><trkpt lat="43.40274598849591" lon="11.803614539680915"><ele>246.66666666666669</ele><time>2026-04-19T07:09:26Z</time></trkpt><trkpt lat="43.4025580984588" lon="11.803689144596467"><ele>246.0</ele><time>2026-04-19T07:09:27Z</time></trkpt><trkpt lat="43.40236666479743" lon="11.8037403112241"><ele>246.0</ele><time>2026-04-19T07:09:28Z</time></trkpt><trkpt lat="43.40217001382285" lon="11.803770837950527"><ele>246.0</ele><time>2026-04-19T07:09:29Z</time></trkpt><trkpt lat="43.40196272621927" lon="11.803785728502012"><ele>246.0</ele><time>2026-04-19T07:09:30Z</time></trkpt><trkpt lat="43.40174907931628" lon="11.803791755656768"><ele>245.66666666666669</ele><time>2026-04-19T07:09:31Z</time></trkpt><trkpt lat="43.40153166908343" lon="11.803794965436882"><ele>245.33333333333334</ele><time>2026-04-19T07:09:32Z</time></trkpt><trkpt lat="43.40130830670415" lon="11.803801076556484"><ele>245.0</ele><time>2026-04-19T07:09:33Z</time></trkpt><trkpt lat="43.401084365312016" lon="11.803806542386784"><ele>244.0</ele><time>2026-04-19T07:09:34Z</time></trkpt><trkpt lat="43.40086066400141" lon="11.803816286756856"><ele>243.0</ele><time>2026-04-19T07:09:35Z</time></trkpt><trkpt lat="43.40063235692808" lon="11.803828074056774"><ele>242.5</ele><time>2026-04-19T07:09:36Z</time></trkpt><trkpt lat="43.40040373318166" lon="11.803833239655628"><ele>242.0</ele><time>2026-04-19T07:09:37Z</time></trkpt><trkpt lat="43.40017818778506" lon="11.803839214303194"><ele>242.0</ele><time>2026-04-19T07:09:38Z</time></trkpt><trkpt lat="43.39995655809511" lon="11.803849697013355"><ele>242.0</ele><time>2026-04-19T07:09:39Z</time></trkpt><trkpt lat="43.399737212986814" lon="11.803879655127794"><ele>242.0</ele><time>2026-04-19T07:09:40Z</time></trkpt><trkpt lat="43.39952080578162" lon="11.80393570385535"><ele>244.0</ele><time>2026-04-19T07:09:41Z</time></trkpt><trkpt lat="43.39929121424532" lon="11.803975839985554"><ele>246.0</ele><time>2026-04-19T07:09:42Z</time></trkpt><trkpt lat="43.399071462294216" lon="11.80404987787985"><ele>246.0</ele><time>2026-04-19T07:09:43Z</time></trkpt><trkpt lat="43.39884987247267" lon="11.804122201825313"><ele>246.0</ele><time>2026-04-19T07:09:44Z</time></trkpt><trkpt lat="43.39862153855385" lon="11.804194222760714"><ele>246.0</ele><time>2026-04-19T07:09:45Z</time></trkpt><trkpt lat="43.398395858734084" lon="11.804259655008702"><ele>246.0</ele><time>2026-04-19T07:09:46Z</time></trkpt><trkpt lat="43.39816686041972" lon="11.804325470107477"><ele>245.5</ele><time>2026-04-19T07:09:47Z</time></trkpt><trkpt lat="43.39794654415317" lon="11.804391433333956"><ele>245.0</ele><time>2026-04-19T07:09:48Z</time></trkpt><trkpt lat="43.39772276849897" lon="11.804459262085071"><ele>245.0</ele><time>2026-04-19T07:09:49Z</time></trkpt><trkpt lat="43.39750041795802" lon="11.804529474036663"><ele>245.0</ele><time>2026-04-19T07:09:50Z</time></trkpt><trkpt lat="43.397278164313875" lon="11.804595168252165"><ele>246.5</ele><time>2026-04-19T07:09:51Z</time></trkpt><trkpt lat="43.397052519273636" lon="11.804636724632411"><ele>248.0</ele><time>2026-04-19T07:09:52Z</time></trkpt><trkpt lat="43.39683092097429" lon="11.80467028558318"><ele>248.0</ele><time>2026-04-19T07:09:53Z</time></trkpt><trkpt lat="43.39661089217983" lon="11.804705705852546"><ele>248.0</ele><time>2026-04-19T07:09:54Z</time></trkpt><trkpt lat="43.39639170204801" lon="11.804739422637752"><ele>248.0</ele><time>2026-04-19T07:09:55Z</time></trkpt><trkpt lat="43.3961678371334" lon="11.804769450417467"><ele>247.0</ele><time>2026-04-19T07:09:56Z</time></trkpt><trkpt lat="43.39594400136527" lon="11.804798422443595"><ele>246.0</ele><time>2026-04-19T07:09:57Z</time></trkpt><trkpt lat="43.395717768966264" lon="11.804832798924275"><ele>246.33333333333331</ele><time>2026-04-19T07:09:58Z</time></trkpt><trkpt lat="43.39549228044237" lon="11.804858107071867"><ele>246.66666666666666</ele><time>2026-04-19T07:09:59Z</time></trkpt><trkpt lat="43.395271603561575" lon="11.804884472489931"><ele>247.0</ele><time>2026-04-19T07:10:00Z</time></trkpt><trkpt lat="43.39505281457059" lon="11.804917818273243"><ele>247.0</ele><time>2026-04-19T07:10:01Z</time></trkpt><trkpt lat="43.39483521171532" lon="11.80494157187558"><ele>247.0</ele><time>2026-04-19T07:10:02Z</time></trkpt><trkpt lat="43.39461818677682" lon="11.804975847408313"><ele>247.0</ele><time>2026-04-19T07:10:03Z</time></trkpt><trkpt lat="43.39440702135505" lon="11.80500844495451"><ele>246.66666666666666</ele><time>2026-04-19T07:10:04Z</time></trkpt><trkpt lat="43.39419437664741" lon="11.805038222292577"><ele>246.33333333333331</ele><time>2026-04-19T07:10:05Z</time></trkpt><trkpt lat="43.39398249053864" lon="11.805066078332366"><ele>246.0</ele><time>2026-04-19T07:10:06Z</time></trkpt><trkpt lat="43.393771432814866" lon="11.805095558936824"><ele>245.66666666666669</ele><time>2026-04-19T07:10:07Z</time></trkpt><trkpt lat="43.39356162549709" lon="11.805126057408666"><ele>245.33333333333334</ele><time>2026-04-19T07:10:08Z</time></trkpt><trkpt lat="43.393352205429" lon="11.805155648623632"><ele>245.0</ele><time>2026-04-19T07:10:09Z</time></trkpt><trkpt lat="43.39314470366507" lon="11.805187934520964"><ele>245.33333333333334</ele><time>2026-04-19T07:10:10Z</time></trkpt><trkpt lat="43.392938682619885" lon="11.805215383895701"><ele>245.66666666666669</ele><time>2026-04-19T07:10:11Z</time></trkpt><trkpt lat="43.39273274383954" lon="11.805246027706739"><ele>246.0</ele><time>2026-04-19T07:10:12Z</time></trkpt><trkpt lat="43.39252657205891" lon="11.805278065518442"><ele>246.0</ele><time>2026-04-19T07:10:13Z</time></trkpt><trkpt lat="43.392334948876" lon="11.805308258185631"><ele>246.0</ele><time>2026-04-19T07:10:14Z</time></trkpt><trkpt lat="43.39215325989842" lon="11.805328272741653"><ele>246.0</ele><time>2026-04-19T07:10:15Z</time></trkpt><trkpt lat="43.39198138365886" lon="11.805353938925712"><ele>246.33333333333331</ele><time>2026-04-19T07:10:16Z</time></trkpt><trkpt lat="43.39181460383228" lon="11.805375826854734"><ele>246.66666666666666</ele><time>2026-04-19T07:10:17Z</time></trkpt><trkpt lat="43.39164279934589" lon="11.805389672843553"><ele>247.0</ele><time>2026-04-19T07:10:18Z</time></trkpt><trkpt lat="43.391459861564776" lon="11.805388414173802"><ele>247.0</ele><time>2026-04-19T07:10:19Z</time></trkpt><trkpt lat="43.39126844785502" lon="11.805368122804298"><ele>247.0</ele><time>2026-04-19T07:10:20Z</time></trkpt><trkpt lat="43.391077463304924" lon="11.805327431354147"><ele>247.0</ele><time>2026-04-19T07:10:21Z</time></trkpt><trkpt lat="43.390885697257694" lon="11.805270678312466"><ele>247.0</ele><time>2026-04-19T07:10:22Z</time></trkpt><trkpt lat="43.390692969355776" lon="11.805206414536723"><ele>247.0</ele><time>2026-04-19T07:10:23Z</time></trkpt><trkpt lat="43.39049722251022" lon="11.805142479293854"><ele>247.0</ele><time>2026-04-19T07:10:24Z</time></trkpt><trkpt lat="43.390300482201596" lon="11.805080034924151"><ele>246.66666666666666</ele><time>2026-04-19T07:10:25Z</time></trkpt><trkpt lat="43.39010322824123" lon="11.805018501509457"><ele>246.33333333333331</ele><time>2026-04-19T07:10:26Z</time></trkpt><trkpt lat="43.38990244022804" lon="11.804956357293497"><ele>246.0</ele><time>2026-04-19T07:10:27Z</time></trkpt><trkpt lat="43.38970841897958" lon="11.804896256812947"><ele>246.33333333333331</ele><time>2026-04-19T07:10:28Z</time></trkpt><trkpt lat="43.38952533266853" lon="11.804847216550668"><ele>246.66666666666666</ele><time>2026-04-19T07:10:29Z</time></trkpt><trkpt lat="43.38934720795324" lon="11.804809275828575"><ele>247.0</ele><time>2026-04-19T07:10:30Z</time></trkpt><trkpt lat="43.38916229924961" lon="11.804790729524342"><ele>247.0</ele><time>2026-04-19T07:10:31Z</time></trkpt><trkpt lat="43.3889760088856" lon="11.804804295877746"><ele>247.0</ele><time>2026-04-19T07:10:32Z</time></trkpt><trkpt lat="43.388786994906866" lon="11.804842321856656"><ele>247.0</ele><time>2026-04-19T07:10:33Z</time></trkpt><trkpt lat="43.3886006554321" lon="11.80489677468048"><ele>246.66666666666666</ele><time>2026-04-19T07:10:34Z</time></trkpt><trkpt lat="43.388411388604304" lon="11.804957968781718"><ele>246.33333333333331</ele><time>2026-04-19T07:10:35Z</time></trkpt><trkpt lat="43.38821712768226" lon="11.805014928220654"><ele>246.0</ele><time>2026-04-19T07:10:36Z</time></trkpt><trkpt lat="43.38801677042258" lon="11.805070417768885"><ele>246.0</ele><time>2026-04-19T07:10:37Z</time></trkpt><trkpt lat="43.38781405929414" lon="11.805129258072032"><ele>246.0</ele><time>2026-04-19T07:10:38Z</time></trkpt><trkpt lat="43.38760736911939" lon="11.805188851736965"><ele>246.0</ele><time>2026-04-19T07:10:39Z</time></trkpt><trkpt lat="43.38739638305378" lon="11.805243509651223"><ele>246.0</ele><time>2026-04-19T07:10:40Z</time></trkpt><trkpt lat="43.387184375843" lon="11.805300812705648"><ele>246.0</ele><time>2026-04-19T07:10:41Z</time></trkpt><trkpt lat="43.386971493404616" lon="11.805359920528394"><ele>246.0</ele><time>2026-04-19T07:10:42Z</time></trkpt><trkpt lat="43.38675728819677" lon="11.80541723543197"><ele>246.0</ele><time>2026-04-19T07:10:43Z</time></trkpt><trkpt lat="43.38654279462783" lon="11.805470840544443"><ele>246.0</ele><time>2026-04-19T07:10:44Z</time></trkpt><trkpt lat="43.38632713846726" lon="11.805521734777187"><ele>246.0</ele><time>2026-04-19T07:10:45Z</time></trkpt><trkpt lat="43.386109866504114" lon="11.805570022495706"><ele>246.33333333333331</ele><time>2026-04-19T07:10:46Z</time></trkpt><trkpt lat="43.385898693204815" lon="11.80561686643482"><ele>246.66666666666666</ele><time>2026-04-19T07:10:47Z</time></trkpt><trkpt lat="43.38568975768684" lon="11.80566323968507"><ele>247.0</ele><time>2026-04-19T07:10:48Z</time></trkpt><trkpt lat="43.38548642751414" lon="11.805708986757091"><ele>247.0</ele><time>2026-04-19T07:10:49Z</time></trkpt><trkpt lat="43.38528932407494" lon="11.805751867717"><ele>247.0</ele><time>2026-04-19T07:10:50Z</time></trkpt><trkpt lat="43.38508921932572" lon="11.805794813461569"><ele>247.0</ele><time>2026-04-19T07:10:51Z</time></trkpt><trkpt lat="43.38489297722296" lon="11.805835164980586"><ele>247.0</ele><time>2026-04-19T07:10:52Z</time></trkpt><trkpt lat="43.38469697845847" lon="11.805876818082737"><ele>247.0</ele><time>2026-04-19T07:10:53Z</time></trkpt><trkpt lat="43.384499937273496" lon="11.805919760798838"><ele>247.0</ele><time>2026-04-19T07:10:54Z</time></trkpt><trkpt lat="43.384300037507685" lon="11.805964388370137"><ele>246.66666666666666</ele><time>2026-04-19T07:10:55Z</time></trkpt><trkpt lat="43.38409344493412" lon="11.806006123016829"><ele>246.33333333333331</ele><time>2026-04-19T07:10:56Z</time></trkpt><trkpt lat="43.38388518679521" lon="11.806053071029096"><ele>246.0</ele><time>2026-04-19T07:10:57Z</time></trkpt><trkpt lat="43.383679007945226" lon="11.806099946641364"><ele>246.0</ele><time>2026-04-19T07:10:58Z</time></trkpt><trkpt lat="43.383474244454696" lon="11.806144822060542"><ele>246.0</ele><time>2026-04-19T07:10:59Z</time></trkpt><trkpt lat="43.38327287429745" lon="11.806186935984103"><ele>246.0</ele><time>2026-04-19T07:11:00Z</time></trkpt><trkpt lat="43.38307288082525" lon="11.806228912506686"><ele>246.0</ele><time>2026-04-19T07:11:01Z</time></trkpt><trkpt lat="43.38287491442659" lon="11.806268086763781"><ele>246.0</ele><time>2026-04-19T07:11:02Z</time></trkpt><trkpt lat="43.38267840354753" lon="11.806302484105956"><ele>246.0</ele><time>2026-04-19T07:11:03Z</time></trkpt><trkpt lat="43.38248024617758" lon="11.806339440615288"><ele>246.0</ele><time>2026-04-19T07:11:04Z</time></trkpt><trkpt lat="43.38228438701641" lon="11.806377219405919"><ele>246.0</ele><time>2026-04-19T07:11:05Z</time></trkpt><trkpt lat="43.38208916424225" lon="11.806416151394675"><ele>246.0</ele><time>2026-04-19T07:11:06Z</time></trkpt><trkpt lat="43.381894225771184" lon="11.806453849555018"><ele>246.33333333333331</ele><time>2026-04-19T07:11:07Z</time></trkpt><trkpt lat="43.381699181639526" lon="11.80649073540332"><ele>246.66666666666666</ele><time>2026-04-19T07:11:08Z</time></trkpt><trkpt lat="43.38150595110998" lon="11.80652589366221"><ele>247.0</ele><time>2026-04-19T07:11:09Z</time></trkpt><trkpt lat="43.38131319345755" lon="11.806563572816467"><ele>247.0</ele><time>2026-04-19T07:11:10Z</time></trkpt><trkpt lat="43.381123262539106" lon="11.806602789501165"><ele>247.0</ele><time>2026-04-19T07:11:11Z</time></trkpt><trkpt lat="43.380931535789166" lon="11.80664095692186"><ele>247.0</ele><time>2026-04-19T07:11:12Z</time></trkpt><trkpt lat="43.380738688250624" lon="11.806679375625546"><ele>247.0</ele><time>2026-04-19T07:11:13Z</time></trkpt><trkpt lat="43.38054763931017" lon="11.806717928349881"><ele>247.0</ele><time>2026-04-19T07:11:14Z</time></trkpt><trkpt lat="43.380352981719994" lon="11.80675669917806"><ele>247.0</ele><time>2026-04-19T07:11:15Z</time></trkpt><trkpt lat="43.38015744222891" lon="11.806798046677478"><ele>247.33333333333331</ele><time>2026-04-19T07:11:16Z</time></trkpt><trkpt lat="43.3799611877168" lon="11.806841899087603"><ele>247.66666666666669</ele><time>2026-04-19T07:11:17Z</time></trkpt><trkpt lat="43.37976237628133" lon="11.806887442093942"><ele>248.0</ele><time>2026-04-19T07:11:18Z</time></trkpt><trkpt lat="43.37955831564611" lon="11.806931854816131"><ele>248.0</ele><time>2026-04-19T07:11:19Z</time></trkpt><trkpt lat="43.379353245057345" lon="11.806976069923515"><ele>248.0</ele><time>2026-04-19T07:11:20Z</time></trkpt><trkpt lat="43.37914747399977" lon="11.80701873019238"><ele>248.0</ele><time>2026-04-19T07:11:21Z</time></trkpt><trkpt lat="43.3789489369423" lon="11.807062444896092"><ele>248.0</ele><time>2026-04-19T07:11:22Z</time></trkpt><trkpt lat="43.37876106311741" lon="11.807102087877215"><ele>248.0</ele><time>2026-04-19T07:11:23Z</time></trkpt><trkpt lat="43.378580543844535" lon="11.807140908949862"><ele>248.0</ele><time>2026-04-19T07:11:24Z</time></trkpt><trkpt lat="43.378390124151096" lon="11.807181472269379"><ele>248.0</ele><time>2026-04-19T07:11:25Z</time></trkpt><trkpt lat="43.3782029138861" lon="11.8072230608635"><ele>248.0</ele><time>2026-04-19T07:11:26Z</time></trkpt><trkpt lat="43.3780129085331" lon="11.807265348257902"><ele>248.0</ele><time>2026-04-19T07:11:27Z</time></trkpt><trkpt lat="43.37782030837358" lon="11.807307586944983"><ele>247.66666666666669</ele><time>2026-04-19T07:11:28Z</time></trkpt><trkpt lat="43.37763319790898" lon="11.80734358896232"><ele>247.33333333333331</ele><time>2026-04-19T07:11:29Z</time></trkpt><trkpt lat="43.377442565456114" lon="11.807380727789736"><ele>247.0</ele><time>2026-04-19T07:11:30Z</time></trkpt><trkpt lat="43.37725646982413" lon="11.807413987796284"><ele>247.33333333333331</ele><time>2026-04-19T07:11:31Z</time></trkpt><trkpt lat="43.37706641696399" lon="11.807444253050278"><ele>247.66666666666669</ele><time>2026-04-19T07:11:32Z</time></trkpt><trkpt lat="43.37688498992461" lon="11.807471898332185"><ele>248.0</ele><time>2026-04-19T07:11:33Z</time></trkpt><trkpt lat="43.376709187117925" lon="11.80749458663791"><ele>248.0</ele><time>2026-04-19T07:11:34Z</time></trkpt><trkpt lat="43.376541295464094" lon="11.807515008211068"><ele>248.0</ele><time>2026-04-19T07:11:35Z</time></trkpt><trkpt lat="43.37636284838836" lon="11.80753131148635"><ele>248.0</ele><time>2026-04-19T07:11:36Z</time></trkpt><trkpt lat="43.37618831313785" lon="11.807548477925334"><ele>248.0</ele><time>2026-04-19T07:11:37Z</time></trkpt><trkpt lat="43.37601594988692" lon="11.807570563635656"><ele>248.0</ele><time>2026-04-19T07:11:38Z</time></trkpt><trkpt lat="43.375846512913576" lon="11.80759505022299"><ele>248.0</ele><time>2026-04-19T07:11:39Z</time></trkpt><trkpt lat="43.375677368936046" lon="11.807623711774676"><ele>248.0</ele><time>2026-04-19T07:11:40Z</time></trkpt><trkpt lat="43.37550594994118" lon="11.80766321720664"><ele>248.0</ele><time>2026-04-19T07:11:41Z</time></trkpt><trkpt lat="43.37533156711488" lon="11.807709407075633"><ele>248.0</ele><time>2026-04-19T07:11:42Z</time></trkpt><trkpt lat="43.37515989712986" lon="11.807758945369345"><ele>248.0</ele><time>2026-04-19T07:11:43Z</time></trkpt><trkpt lat="43.374981543120775" lon="11.807810094680365"><ele>248.0</ele><time>2026-04-19T07:11:44Z</time></trkpt><trkpt lat="43.37480802311856" lon="11.807860154776794"><ele>248.0</ele><time>2026-04-19T07:11:45Z</time></trkpt><trkpt lat="43.374644074576246" lon="11.807909723716982"><ele>248.25</ele><time>2026-04-19T07:11:46Z</time></trkpt><trkpt lat="43.37450436000191" lon="11.807946759040401"><ele>248.5</ele><time>2026-04-19T07:11:47Z</time></trkpt><trkpt lat="43.37437125141072" lon="11.807989263674939"><ele>248.75</ele><time>2026-04-19T07:11:48Z</time></trkpt><trkpt lat="43.37425176329525" lon="11.80802610935091"><ele>249.0</ele><time>2026-04-19T07:11:49Z</time></trkpt><trkpt lat="43.37413825491138" lon="11.80805753913563"><ele>249.0</ele><time>2026-04-19T07:11:50Z</time></trkpt><trkpt lat="43.374019343121404" lon="11.80809041349735"><ele>249.0</ele><time>2026-04-19T07:11:51Z</time></trkpt><trkpt lat="43.37388495013583" lon="11.808127027960877"><ele>249.0</ele><time>2026-04-19T07:11:52Z</time></trkpt><trkpt lat="43.37374225695347" lon="11.80816926209582"><ele>249.0</ele><time>2026-04-19T07:11:53Z</time></trkpt><trkpt lat="43.37358929496434" lon="11.808214198006791"><ele>249.33333333333331</ele><time>2026-04-19T07:11:54Z</time></trkpt><trkpt lat="43.373434673621006" lon="11.808252531905358"><ele>249.66666666666666</ele><time>2026-04-19T07:11:55Z</time></trkpt><trkpt lat="43.373268767392126" lon="11.808297044564247"><ele>250.0</ele><time>2026-04-19T07:11:56Z</time></trkpt><trkpt lat="43.37310043571291" lon="11.8083294624126"><ele>249.66666666666666</ele><time>2026-04-19T07:11:57Z</time></trkpt><trkpt lat="43.3729333759759" lon="11.80834620125527"><ele>249.33333333333331</ele><time>2026-04-19T07:11:58Z</time></trkpt><trkpt lat="43.37277233946703" lon="11.80834726894557"><ele>249.0</ele><time>2026-04-19T07:11:59Z</time></trkpt><trkpt lat="43.372624564384736" lon="11.808340160616016"><ele>249.0</ele><time>2026-04-19T07:12:00Z</time></trkpt><trkpt lat="43.37248730600898" lon="11.808328667659715"><ele>249.0</ele><time>2026-04-19T07:12:01Z</time></trkpt><trkpt lat="43.3723471378553" lon="11.80831260543311"><ele>249.0</ele><time>2026-04-19T07:12:02Z</time></trkpt><trkpt lat="43.37220540546881" lon="11.80829481605637"><ele>249.0</ele><time>2026-04-19T07:12:03Z</time></trkpt><trkpt lat="43.37205971780355" lon="11.808280467036793"><ele>248.66666666666669</ele><time>2026-04-19T07:12:04Z</time></trkpt><trkpt lat="43.371914337937326" lon="11.808263245485298"><ele>248.33333333333334</ele><time>2026-04-19T07:12:05Z</time></trkpt><trkpt lat="43.37176632979186" lon="11.808243204775202"><ele>248.0</ele><time>2026-04-19T07:12:06Z</time></trkpt><trkpt lat="43.371609491544184" lon="11.808229019448138"><ele>248.0</ele><time>2026-04-19T07:12:07Z</time></trkpt><trkpt lat="43.37144867897658" lon="11.808212359513758"><ele>248.0</ele><time>2026-04-19T07:12:08Z</time></trkpt><trkpt lat="43.371279905115635" lon="11.808190141034144"><ele>248.0</ele><time>2026-04-19T07:12:09Z</time></trkpt><trkpt lat="43.371117105922416" lon="11.808171933453828"><ele>248.0</ele><time>2026-04-19T07:12:10Z</time></trkpt><trkpt lat="43.37095812368478" lon="11.808155085313645"><ele>248.0</ele><time>2026-04-19T07:12:11Z</time></trkpt><trkpt lat="43.37081380290596" lon="11.80813776579801"><ele>248.0</ele><time>2026-04-19T07:12:12Z</time></trkpt><trkpt lat="43.370674339348135" lon="11.80812286701809"><ele>248.0</ele><time>2026-04-19T07:12:13Z</time></trkpt><trkpt lat="43.37053930513759" lon="11.808106778724719"><ele>247.75</ele><time>2026-04-19T07:12:14Z</time></trkpt><trkpt lat="43.37040241283263" lon="11.808088830604998"><ele>247.5</ele><time>2026-04-19T07:12:15Z</time></trkpt><trkpt lat="43.370263269664996" lon="11.80807542587556"><ele>247.25</ele><time>2026-04-19T07:12:16Z</time></trkpt><trkpt lat="43.37012565965742" lon="11.808058099663818"><ele>247.0</ele><time>2026-04-19T07:12:17Z</time></trkpt><trkpt lat="43.3699861554218" lon="11.808043175031917"><ele>247.0</ele><time>2026-04-19T07:12:18Z</time></trkpt><trkpt lat="43.36984885210522" lon="11.808030280564001"><ele>247.0</ele><time>2026-04-19T07:12:19Z</time></trkpt><trkpt lat="43.369712564734456" lon="11.808016328176253"><ele>247.0</ele><time>2026-04-19T07:12:20Z</time></trkpt><trkpt lat="43.369574388384954" lon="11.808001152714418"><ele>247.0</ele><time>2026-04-19T07:12:21Z</time></trkpt><trkpt lat="43.369420449573646" lon="11.807984254667662"><ele>247.66666666666666</ele><time>2026-04-19T07:12:22Z</time></trkpt><trkpt lat="43.369256113536515" lon="11.80796254307706"><ele>248.33333333333331</ele><time>2026-04-19T07:12:23Z</time></trkpt><trkpt lat="43.36908812471684" lon="11.807943306855144"><ele>249.0</ele><time>2026-04-19T07:12:24Z</time></trkpt><trkpt lat="43.36891504803973" lon="11.807925804116486"><ele>249.0</ele><time>2026-04-19T07:12:25Z</time></trkpt><trkpt lat="43.36873787198476" lon="11.807906046659024"><ele>249.0</ele><time>2026-04-19T07:12:26Z</time></trkpt><trkpt lat="43.36856252623906" lon="11.807885116381387"><ele>249.0</ele><time>2026-04-19T07:12:27Z</time></trkpt><trkpt lat="43.368396370590716" lon="11.807856660099345"><ele>249.0</ele><time>2026-04-19T07:12:28Z</time></trkpt><trkpt lat="43.36824142261562" lon="11.80784595696104"><ele>249.0</ele><time>2026-04-19T07:12:29Z</time></trkpt><trkpt lat="43.36809556250541" lon="11.807824982574886"><ele>249.0</ele><time>2026-04-19T07:12:30Z</time></trkpt><trkpt lat="43.36796327110846" lon="11.807805053916491"><ele>249.0</ele><time>2026-04-19T07:12:31Z</time></trkpt><trkpt lat="43.36783149838257" lon="11.807787946550434"><ele>249.0</ele><time>2026-04-19T07:12:32Z</time></trkpt><trkpt lat="43.3677121000934" lon="11.807758008385994"><ele>248.99999999999997</ele><time>2026-04-19T07:12:33Z</time></trkpt><trkpt lat="43.36760604768632" lon="11.80772325026217"><ele>248.99999999999997</ele><time>2026-04-19T07:12:34Z</time></trkpt><trkpt lat="43.367509053155096" lon="11.807680326595667"><ele>249.0</ele><time>2026-04-19T07:12:35Z</time></trkpt><trkpt lat="43.367432800602636" lon="11.807642172900577"><ele>249.0</ele><time>2026-04-19T07:12:36Z</time></trkpt><trkpt lat="43.367345120008025" lon="11.807600108153206"><ele>249.16666666666666</ele><time>2026-04-19T07:12:38Z</time></trkpt><trkpt lat="43.36728062933524" lon="11.807574774832728"><ele>249.33333333333331</ele><time>2026-04-19T07:13:00Z</time></trkpt><trkpt lat="43.367187496706556" lon="11.807537464487607"><ele>249.5</ele><time>2026-04-19T07:13:02Z</time></trkpt><trkpt lat="43.36707586408099" lon="11.80750807574098"><ele>249.66666666666666</ele><time>2026-04-19T07:13:04Z</time></trkpt><trkpt lat="43.36698099738364" lon="11.807491547797522"><ele>249.83333333333331</ele><time>2026-04-19T07:13:06Z</time></trkpt><trkpt lat="43.366918223914155" lon="11.807479350347444"><ele>250.0</ele><time>2026-04-19T07:13:07Z</time></trkpt><trkpt lat="43.36685161629942" lon="11.807466413419304"><ele>249.99999999999997</ele><time>2026-04-19T07:13:08Z</time></trkpt><trkpt lat="43.36677287002806" lon="11.807450104318987"><ele>250.0</ele><time>2026-04-19T07:13:09Z</time></trkpt><trkpt lat="43.3666918338345" lon="11.807431347891665"><ele>250.0</ele><time>2026-04-19T07:13:10Z</time></trkpt><trkpt lat="43.36661462067305" lon="11.807414933180764"><ele>250.0</ele><time>2026-04-19T07:13:11Z</time></trkpt><trkpt lat="43.36653056761758" lon="11.807395656970755"><ele>249.99999999999997</ele><time>2026-04-19T07:13:12Z</time></trkpt><trkpt lat="43.366439338563396" lon="11.807376490090228"><ele>250.0</ele><time>2026-04-19T07:13:13Z</time></trkpt><trkpt lat="43.3663410784393" lon="11.807358294322874"><ele>250.2</ele><time>2026-04-19T07:13:14Z</time></trkpt><trkpt lat="43.36624084046327" lon="11.807339677374875"><ele>250.4</ele><time>2026-04-19T07:13:15Z</time></trkpt><trkpt lat="43.36613697050508" lon="11.80732035808822"><ele>250.60000000000002</ele><time>2026-04-19T07:13:16Z</time></trkpt><trkpt lat="43.36603478988732" lon="11.807302412124118"><ele>250.8</ele><time>2026-04-19T07:13:17Z</time></trkpt><trkpt lat="43.36593109853125" lon="11.807280876009917"><ele>251.0</ele><time>2026-04-19T07:13:18Z</time></trkpt><trkpt lat="43.36582492745853" lon="11.807257989193701"><ele>251.0</ele><time>2026-04-19T07:13:19Z</time></trkpt><trkpt lat="43.36571755097083" lon="11.80723580706718"><ele>251.0</ele><time>2026-04-19T07:13:20Z</time></trkpt><trkpt lat="43.36560491629716" lon="11.80720327302197"><ele>251.0</ele><time>2026-04-19T07:13:21Z</time></trkpt><trkpt lat="43.3654857320081" lon="11.807179208398448"><ele>251.0</ele><time>2026-04-19T07:13:22Z</time></trkpt><trkpt lat="43.3653606084023" lon="11.807153801972326"><ele>251.0</ele><time>2026-04-19T07:13:23Z</time></trkpt><trkpt lat="43.365234445385646" lon="11.807127570928444"><ele>251.0</ele><time>2026-04-19T07:13:24Z</time></trkpt><trkpt lat="43.36510359177" lon="11.807102863839098"><ele>251.0</ele><time>2026-04-19T07:13:25Z</time></trkpt><trkpt lat="43.364967658444186" lon="11.8070789817133"><ele>251.0</ele><time>2026-04-19T07:13:26Z</time></trkpt><trkpt lat="43.36482585723287" lon="11.807060858298934"><ele>251.0</ele><time>2026-04-19T07:13:27Z</time></trkpt><trkpt lat="43.36467617656785" lon="11.807045995920637"><ele>251.0</ele><time>2026-04-19T07:13:28Z</time></trkpt><trkpt lat="43.36452730634075" lon="11.807036520800372"><ele>251.0</ele><time>2026-04-19T07:13:29Z</time></trkpt><trkpt lat="43.36437050569116" lon="11.807036413660216"><ele>251.0</ele><time>2026-04-19T07:13:30Z</time></trkpt><trkpt lat="43.364207443830914" lon="11.807048280777721"><ele>251.0</ele><time>2026-04-19T07:13:31Z</time></trkpt><trkpt lat="43.36404861915867" lon="11.807065603324324"><ele>251.0</ele><time>2026-04-19T07:13:32Z</time></trkpt><trkpt lat="43.363887720720044" lon="11.807088060680151"><ele>250.33333333333334</ele><time>2026-04-19T07:13:33Z</time></trkpt><trkpt lat="43.36372675899037" lon="11.807112610937255"><ele>249.66666666666669</ele><time>2026-04-19T07:13:34Z</time></trkpt><trkpt lat="43.36356123253371" lon="11.807136174397908"><ele>249.0</ele><time>2026-04-19T07:13:35Z</time></trkpt><trkpt lat="43.36339602280355" lon="11.8071563995448"><ele>249.0</ele><time>2026-04-19T07:13:36Z</time></trkpt><trkpt lat="43.363231182219565" lon="11.807181980728126"><ele>249.0</ele><time>2026-04-19T07:13:37Z</time></trkpt><trkpt lat="43.363063592551825" lon="11.807207468505416"><ele>249.0</ele><time>2026-04-19T07:13:38Z</time></trkpt><trkpt lat="43.362894172698645" lon="11.807231606715682"><ele>248.66666666666669</ele><time>2026-04-19T07:13:39Z</time></trkpt><trkpt lat="43.362725674826855" lon="11.807254673277464"><ele>248.33333333333334</ele><time>2026-04-19T07:13:40Z</time></trkpt><trkpt lat="43.362557267842774" lon="11.80727634785302"><ele>248.0</ele><time>2026-04-19T07:13:41Z</time></trkpt><trkpt lat="43.36238333787092" lon="11.807303610284393"><ele>248.0</ele><time>2026-04-19T07:13:42Z</time></trkpt><trkpt lat="43.36220608997106" lon="11.807327825361764"><ele>248.0</ele><time>2026-04-19T07:13:43Z</time></trkpt><trkpt lat="43.36203042294099" lon="11.80735354714969"><ele>248.0</ele><time>2026-04-19T07:13:44Z</time></trkpt><trkpt lat="43.36185779572807" lon="11.807381173994202"><ele>247.66666666666669</ele><time>2026-04-19T07:13:45Z</time></trkpt><trkpt lat="43.36169294875583" lon="11.8074060330422"><ele>247.33333333333331</ele><time>2026-04-19T07:13:46Z</time></trkpt><trkpt lat="43.361533329756504" lon="11.807431241876303"><ele>247.0</ele><time>2026-04-19T07:13:47Z</time></trkpt><trkpt lat="43.36136544643815" lon="11.807451070697285"><ele>247.0</ele><time>2026-04-19T07:13:48Z</time></trkpt><trkpt lat="43.36119845460004" lon="11.807474866211072"><ele>247.0</ele><time>2026-04-19T07:13:49Z</time></trkpt><trkpt lat="43.36102548908514" lon="11.807498075911282"><ele>247.0</ele><time>2026-04-19T07:13:50Z</time></trkpt><trkpt lat="43.36085199945985" lon="11.807522988550046"><ele>247.0</ele><time>2026-04-19T07:13:51Z</time></trkpt><trkpt lat="43.36068157654348" lon="11.807547183834446"><ele>247.0</ele><time>2026-04-19T07:13:52Z</time></trkpt><trkpt lat="43.36051171785741" lon="11.807571051201297"><ele>247.0</ele><time>2026-04-19T07:13:53Z</time></trkpt><trkpt lat="43.36034830914341" lon="11.80759509315841"><ele>247.0</ele><time>2026-04-19T07:13:54Z</time></trkpt><trkpt lat="43.36019163179872" lon="11.807618678263848"><ele>247.0</ele><time>2026-04-19T07:13:55Z</time></trkpt><trkpt lat="43.360041807944874" lon="11.807642557860634"><ele>247.0</ele><time>2026-04-19T07:13:56Z</time></trkpt><trkpt lat="43.35989506997107" lon="11.807665384686253"><ele>247.0</ele><time>2026-04-19T07:13:56.999Z</time></trkpt><trkpt lat="43.35974411996804" lon="11.807684572958745"><ele>247.0</ele><time>2026-04-19T07:13:57.999Z</time></trkpt><trkpt lat="43.359589421983756" lon="11.807705669992774"><ele>247.0</ele><time>2026-04-19T07:13:58.999Z</time></trkpt><trkpt lat="43.35942612880807" lon="11.807727790559532"><ele>247.33333333333331</ele><time>2026-04-19T07:13:59.999Z</time></trkpt><trkpt lat="43.35925634007817" lon="11.807757579561647"><ele>247.66666666666669</ele><time>2026-04-19T07:14:00.999Z</time></trkpt><trkpt lat="43.359079877403616" lon="11.807801347063652"><ele>248.0</ele><time>2026-04-19T07:14:01.999Z</time></trkpt><trkpt lat="43.35890180966304" lon="11.807858032572437"><ele>248.66666666666669</ele><time>2026-04-19T07:14:02.999Z</time></trkpt><trkpt lat="43.35871605586456" lon="11.807944564339975"><ele>249.33333333333331</ele><time>2026-04-19T07:14:03.999Z</time></trkpt><trkpt lat="43.358524486716526" lon="11.808034715348876"><ele>250.0</ele><time>2026-04-19T07:14:04.999Z</time></trkpt><trkpt lat="43.358342720880145" lon="11.808113975027414"><ele>250.0</ele><time>2026-04-19T07:14:05.999Z</time></trkpt><trkpt lat="43.35816055446987" lon="11.808199192430134"><ele>250.0</ele><time>2026-04-19T07:14:06.999Z</time></trkpt><trkpt lat="43.35798146148592" lon="11.808275290388151"><ele>250.0</ele><time>2026-04-19T07:14:07.999Z</time></trkpt><trkpt lat="43.35781525982963" lon="11.808347007418107"><ele>250.0</ele><time>2026-04-19T07:14:08.999Z</time></trkpt><trkpt lat="43.357654216581096" lon="11.80842330263039"><ele>250.0</ele><time>2026-04-19T07:14:09.999Z</time></trkpt><trkpt lat="43.35749548829704" lon="11.808506311230975"><ele>250.0</ele><time>2026-04-19T07:14:10.999Z</time></trkpt><trkpt lat="43.35734080793345" lon="11.80860060912133"><ele>250.0</ele><time>2026-04-19T07:14:12Z</time></trkpt><trkpt lat="43.35718499534604" lon="11.808698281252243"><ele>250.0</ele><time>2026-04-19T07:14:13Z</time></trkpt><trkpt lat="43.357024194646314" lon="11.808795795566514"><ele>250.0</ele><time>2026-04-19T07:14:14Z</time></trkpt><trkpt lat="43.3568655796669" lon="11.808894134560296"><ele>250.0</ele><time>2026-04-19T07:14:15Z</time></trkpt><trkpt lat="43.356708315581535" lon="11.808996843640804"><ele>250.0</ele><time>2026-04-19T07:14:16Z</time></trkpt><trkpt lat="43.35656481492998" lon="11.809093505656502"><ele>250.0</ele><time>2026-04-19T07:14:17Z</time></trkpt><trkpt lat="43.35642934343066" lon="11.809183782125201"><ele>250.25</ele><time>2026-04-19T07:14:18Z</time></trkpt><trkpt lat="43.356298019698386" lon="11.809267910969488"><ele>250.5</ele><time>2026-04-19T07:14:19Z</time></trkpt><trkpt lat="43.356163153942134" lon="11.809353291884255"><ele>250.75</ele><time>2026-04-19T07:14:20Z</time></trkpt><trkpt lat="43.356022809655435" lon="11.809444883609507"><ele>251.0</ele><time>2026-04-19T07:14:21Z</time></trkpt><trkpt lat="43.35587879704538" lon="11.80954079427708"><ele>251.33333333333334</ele><time>2026-04-19T07:14:22Z</time></trkpt><trkpt lat="43.35573265461884" lon="11.809634950232436"><ele>251.66666666666669</ele><time>2026-04-19T07:14:23Z</time></trkpt><trkpt lat="43.355584791738245" lon="11.809729522181101"><ele>252.0</ele><time>2026-04-19T07:14:24Z</time></trkpt><trkpt lat="43.35543484431482" lon="11.809821961253293"><ele>252.0</ele><time>2026-04-19T07:14:25Z</time></trkpt><trkpt lat="43.35528587239532" lon="11.809911192388428"><ele>252.0</ele><time>2026-04-19T07:14:26Z</time></trkpt><trkpt lat="43.35514016715647" lon="11.809986122456591"><ele>252.0</ele><time>2026-04-19T07:14:27Z</time></trkpt><trkpt lat="43.35499632104808" lon="11.810052867421874"><ele>252.0</ele><time>2026-04-19T07:14:28Z</time></trkpt><trkpt lat="43.35485938078821" lon="11.810101765880296"><ele>252.0</ele><time>2026-04-19T07:14:29Z</time></trkpt><trkpt lat="43.35472157431893" lon="11.81014059288591"><ele>252.0</ele><time>2026-04-19T07:14:30Z</time></trkpt><trkpt lat="43.35458603281918" lon="11.810170049924235"><ele>252.0</ele><time>2026-04-19T07:14:31Z</time></trkpt><trkpt lat="43.354453078696785" lon="11.810198767323948"><ele>251.5</ele><time>2026-04-19T07:14:32Z</time></trkpt><trkpt lat="43.35432098844476" lon="11.810228398762336"><ele>251.0</ele><time>2026-04-19T07:14:33Z</time></trkpt><trkpt lat="43.35418303155848" lon="11.81025745444277"><ele>250.5</ele><time>2026-04-19T07:14:34Z</time></trkpt><trkpt lat="43.35403323692697" lon="11.810291044258252"><ele>250.0</ele><time>2026-04-19T07:14:35Z</time></trkpt><trkpt lat="43.35387536616567" lon="11.81032800629438"><ele>249.33333333333331</ele><time>2026-04-19T07:14:36Z</time></trkpt><trkpt lat="43.35371341471541" lon="11.810365052198929"><ele>248.66666666666669</ele><time>2026-04-19T07:14:37Z</time></trkpt><trkpt lat="43.353545658442215" lon="11.810402365879265"><ele>248.0</ele><time>2026-04-19T07:14:38Z</time></trkpt><trkpt lat="43.3533827261562" lon="11.810438379156414"><ele>248.0</ele><time>2026-04-19T07:14:39Z</time></trkpt><trkpt lat="43.35323297087687" lon="11.81047185959928"><ele>248.0</ele><time>2026-04-19T07:14:40Z</time></trkpt><trkpt lat="43.3530934283128" lon="11.8105032959645"><ele>248.0</ele><time>2026-04-19T07:14:41Z</time></trkpt><trkpt lat="43.35296029652743" lon="11.810533471886238"><ele>248.0</ele><time>2026-04-19T07:14:42Z</time></trkpt><trkpt lat="43.35282540547774" lon="11.81056272842989"><ele>247.75</ele><time>2026-04-19T07:14:43Z</time></trkpt><trkpt lat="43.352694545708594" lon="11.81059035262382"><ele>247.5</ele><time>2026-04-19T07:14:44Z</time></trkpt><trkpt lat="43.352580913927106" lon="11.810613660678296"><ele>247.25</ele><time>2026-04-19T07:14:45Z</time></trkpt><trkpt lat="43.35247934802974" lon="11.810633878478164"><ele>247.0</ele><time>2026-04-19T07:14:46Z</time></trkpt><trkpt lat="43.352379936602915" lon="11.810656169222169"><ele>247.0</ele><time>2026-04-19T07:14:47Z</time></trkpt><trkpt lat="43.352259876873205" lon="11.81068299950035"><ele>247.0</ele><time>2026-04-19T07:14:48Z</time></trkpt><trkpt lat="43.35212654165983" lon="11.810716241962853"><ele>247.0</ele><time>2026-04-19T07:14:49Z</time></trkpt><trkpt lat="43.351984805300745" lon="11.810743306783294"><ele>247.0</ele><time>2026-04-19T07:14:50Z</time></trkpt><trkpt lat="43.35183186475201" lon="11.810779745621232"><ele>248.0</ele><time>2026-04-19T07:14:51Z</time></trkpt><trkpt lat="43.35167152217844" lon="11.810822435917274"><ele>249.0</ele><time>2026-04-19T07:14:52Z</time></trkpt><trkpt lat="43.35150324041161" lon="11.810859149871016"><ele>250.0</ele><time>2026-04-19T07:14:53Z</time></trkpt><trkpt lat="43.35132908760621" lon="11.810900720181579"><ele>250.0</ele><time>2026-04-19T07:14:54Z</time></trkpt><trkpt lat="43.3511531990696" lon="11.810941607281475"><ele>250.0</ele><time>2026-04-19T07:14:55Z</time></trkpt><trkpt lat="43.35098444146946" lon="11.810979252372142"><ele>250.0</ele><time>2026-04-19T07:14:56Z</time></trkpt><trkpt lat="43.35081304792885" lon="11.8110190396607"><ele>250.0</ele><time>2026-04-19T07:14:57Z</time></trkpt><trkpt lat="43.35065112144632" lon="11.811049525160564"><ele>250.0</ele><time>2026-04-19T07:14:58Z</time></trkpt><trkpt lat="43.350484772763664" lon="11.811074200040114"><ele>250.0</ele><time>2026-04-19T07:14:59Z</time></trkpt><trkpt lat="43.35031110380482" lon="11.811099257994394"><ele>250.33333333333331</ele><time>2026-04-19T07:15:00Z</time></trkpt><trkpt lat="43.35013741108214" lon="11.811117906806317"><ele>250.66666666666669</ele><time>2026-04-19T07:15:01Z</time></trkpt><trkpt lat="43.34995832595578" lon="11.811129875624154"><ele>251.0</ele><time>2026-04-19T07:15:02Z</time></trkpt><trkpt lat="43.34977579152572" lon="11.81113214876756"><ele>251.33333333333334</ele><time>2026-04-19T07:15:03Z</time></trkpt><trkpt lat="43.34959686318556" lon="11.811138125513278"><ele>251.66666666666669</ele><time>2026-04-19T07:15:04Z</time></trkpt><trkpt lat="43.34939816144042" lon="11.811155701522425"><ele>252.0</ele><time>2026-04-19T07:15:05Z</time></trkpt><trkpt lat="43.34920904751771" lon="11.811176422999914"><ele>252.0</ele><time>2026-04-19T07:15:06Z</time></trkpt><trkpt lat="43.349016072744426" lon="11.811196630958818"><ele>252.0</ele><time>2026-04-19T07:15:07Z</time></trkpt><trkpt lat="43.34882832560506" lon="11.811215954721286"><ele>252.0</ele><time>2026-04-19T07:15:08Z</time></trkpt><trkpt lat="43.34864637548797" lon="11.811239700907024"><ele>252.0</ele><time>2026-04-19T07:15:09Z</time></trkpt><trkpt lat="43.348473089538054" lon="11.811258959426135"><ele>252.0</ele><time>2026-04-19T07:15:10Z</time></trkpt><trkpt lat="43.3483022886364" lon="11.811277694033196"><ele>252.0</ele><time>2026-04-19T07:15:11Z</time></trkpt><trkpt lat="43.348122392037006" lon="11.81129676540156"><ele>251.33333333333331</ele><time>2026-04-19T07:15:12Z</time></trkpt><trkpt lat="43.34793943120743" lon="11.811319932516666"><ele>250.66666666666666</ele><time>2026-04-19T07:15:13Z</time></trkpt><trkpt lat="43.347756481961085" lon="11.811343594063423"><ele>250.0</ele><time>2026-04-19T07:15:14Z</time></trkpt><trkpt lat="43.34757228701868" lon="11.811361737411229"><ele>250.0</ele><time>2026-04-19T07:15:15Z</time></trkpt><trkpt lat="43.347385603577415" lon="11.811378467442148"><ele>250.0</ele><time>2026-04-19T07:15:16Z</time></trkpt><trkpt lat="43.34719865835175" lon="11.811398578127083"><ele>250.0</ele><time>2026-04-19T07:15:17Z</time></trkpt><trkpt lat="43.34701631199618" lon="11.811419026894916"><ele>250.33333333333331</ele><time>2026-04-19T07:15:18Z</time></trkpt><trkpt lat="43.346834847144784" lon="11.811440399925218"><ele>250.66666666666669</ele><time>2026-04-19T07:15:19Z</time></trkpt><trkpt lat="43.34665247248192" lon="11.811459566808706"><ele>251.0</ele><time>2026-04-19T07:15:20Z</time></trkpt><trkpt lat="43.34647025353791" lon="11.811477372495212"><ele>250.33333333333334</ele><time>2026-04-19T07:15:21Z</time></trkpt><trkpt lat="43.3462871643363" lon="11.811493292273173"><ele>249.66666666666669</ele><time>2026-04-19T07:15:22Z</time></trkpt><trkpt lat="43.34610249090199" lon="11.811505175306213"><ele>249.0</ele><time>2026-04-19T07:15:23Z</time></trkpt><trkpt lat="43.345920114963754" lon="11.811503783534818"><ele>249.0</ele><time>2026-04-19T07:15:24Z</time></trkpt><trkpt lat="43.34573685772343" lon="11.811484159483095"><ele>249.0</ele><time>2026-04-19T07:15:25Z</time></trkpt><trkpt lat="43.345554922205444" lon="11.81145067576382"><ele>249.0</ele><time>2026-04-19T07:15:26Z</time></trkpt><trkpt lat="43.345377113756214" lon="11.811400651826506"><ele>249.0</ele><time>2026-04-19T07:15:27Z</time></trkpt><trkpt lat="43.34520074311913" lon="11.81134197547426"><ele>249.0</ele><time>2026-04-19T07:15:28Z</time></trkpt><trkpt lat="43.34502144884405" lon="11.8112838619557"><ele>249.0</ele><time>2026-04-19T07:15:29Z</time></trkpt><trkpt lat="43.34484521132379" lon="11.811225098335434"><ele>248.66666666666669</ele><time>2026-04-19T07:15:30Z</time></trkpt><trkpt lat="43.344667649815506" lon="11.81116571994401"><ele>248.33333333333334</ele><time>2026-04-19T07:15:31Z</time></trkpt><trkpt lat="43.34448827770941" lon="11.811106228949704"><ele>248.0</ele><time>2026-04-19T07:15:32Z</time></trkpt><trkpt lat="43.34430842322974" lon="11.811045929026816"><ele>248.0</ele><time>2026-04-19T07:15:33Z</time></trkpt><trkpt lat="43.34413205356061" lon="11.810986723350867"><ele>248.0</ele><time>2026-04-19T07:15:34Z</time></trkpt><trkpt lat="43.34395847050818" lon="11.810927788313698"><ele>248.0</ele><time>2026-04-19T07:15:35Z</time></trkpt><trkpt lat="43.34378490632015" lon="11.810871774041015"><ele>248.33333333333334</ele><time>2026-04-19T07:15:36Z</time></trkpt><trkpt lat="43.34361061849758" lon="11.810812451310154"><ele>248.66666666666669</ele><time>2026-04-19T07:15:37Z</time></trkpt><trkpt lat="43.34343960030911" lon="11.81075528404228"><ele>249.0</ele><time>2026-04-19T07:15:38Z</time></trkpt><trkpt lat="43.34326865668145" lon="11.810698524713498"><ele>249.0</ele><time>2026-04-19T07:15:39Z</time></trkpt><trkpt lat="43.343098416888864" lon="11.810641757145987"><ele>249.0</ele><time>2026-04-19T07:15:40Z</time></trkpt><trkpt lat="43.34292170227886" lon="11.810584216655673"><ele>249.0</ele><time>2026-04-19T07:15:41Z</time></trkpt><trkpt lat="43.3427424359786" lon="11.810523915821094"><ele>248.66666666666669</ele><time>2026-04-19T07:15:42Z</time></trkpt><trkpt lat="43.34256428328605" lon="11.81046140143956"><ele>248.33333333333334</ele><time>2026-04-19T07:15:43Z</time></trkpt><trkpt lat="43.34238360387412" lon="11.810402187852034"><ele>248.0</ele><time>2026-04-19T07:15:44Z</time></trkpt><trkpt lat="43.342200031361536" lon="11.810361198404618"><ele>247.66666666666669</ele><time>2026-04-19T07:15:45Z</time></trkpt><trkpt lat="43.342012029447694" lon="11.810336369062535"><ele>247.33333333333331</ele><time>2026-04-19T07:15:46Z</time></trkpt><trkpt lat="43.34182274712425" lon="11.810323319771044"><ele>247.0</ele><time>2026-04-19T07:15:47Z</time></trkpt><trkpt lat="43.34163127608675" lon="11.8103272189586"><ele>247.0</ele><time>2026-04-19T07:15:48Z</time></trkpt><trkpt lat="43.34143822387788" lon="11.810334377670772"><ele>247.0</ele><time>2026-04-19T07:15:49Z</time></trkpt><trkpt lat="43.34124503393954" lon="11.810347740355711"><ele>247.0</ele><time>2026-04-19T07:15:50Z</time></trkpt><trkpt lat="43.34104763200763" lon="11.81036066385494"><ele>247.0</ele><time>2026-04-19T07:15:51Z</time></trkpt><trkpt lat="43.34085200263612" lon="11.810372591193495"><ele>247.0</ele><time>2026-04-19T07:15:52Z</time></trkpt><trkpt lat="43.3406550107045" lon="11.810382868513189"><ele>247.0</ele><time>2026-04-19T07:15:53Z</time></trkpt><trkpt lat="43.340460286924575" lon="11.810393860743423"><ele>247.0</ele><time>2026-04-19T07:15:54Z</time></trkpt><trkpt lat="43.340264828096494" lon="11.810406499111394"><ele>247.0</ele><time>2026-04-19T07:15:55Z</time></trkpt><trkpt lat="43.340070111987224" lon="11.810421155989118"><ele>247.0</ele><time>2026-04-19T07:15:56Z</time></trkpt><trkpt lat="43.3398770400377" lon="11.810433012125571"><ele>247.0</ele><time>2026-04-19T07:15:57Z</time></trkpt><trkpt lat="43.3396832470376" lon="11.8104433339939"><ele>247.0</ele><time>2026-04-19T07:15:58Z</time></trkpt><trkpt lat="43.33948936007873" lon="11.810458026157654"><ele>247.0</ele><time>2026-04-19T07:15:59Z</time></trkpt><trkpt lat="43.33930044532681" lon="11.810472634399495"><ele>247.0</ele><time>2026-04-19T07:16:00Z</time></trkpt><trkpt lat="43.339108489969895" lon="11.810485789646808"><ele>247.0</ele><time>2026-04-19T07:16:01Z</time></trkpt><trkpt lat="43.33891557302041" lon="11.810497960036958"><ele>247.0</ele><time>2026-04-19T07:16:02Z</time></trkpt><trkpt lat="43.33872000308315" lon="11.810510350497971"><ele>247.0</ele><time>2026-04-19T07:16:03Z</time></trkpt><trkpt lat="43.338524108083234" lon="11.810521041554534"><ele>247.0</ele><time>2026-04-19T07:16:04Z</time></trkpt><trkpt lat="43.33832699040763" lon="11.810533717208891"><ele>247.0</ele><time>2026-04-19T07:16:05Z</time></trkpt><trkpt lat="43.33812873047287" lon="11.810549530812702"><ele>246.66666666666666</ele><time>2026-04-19T07:16:06Z</time></trkpt><trkpt lat="43.33792749559372" lon="11.810563907438501"><ele>246.33333333333331</ele><time>2026-04-19T07:16:07Z</time></trkpt><trkpt lat="43.33772537664175" lon="11.810575879735415"><ele>246.0</ele><time>2026-04-19T07:16:08Z</time></trkpt><trkpt lat="43.33752051423869" lon="11.81058878303152"><ele>246.0</ele><time>2026-04-19T07:16:09Z</time></trkpt><trkpt lat="43.33731390256222" lon="11.810602283164622"><ele>246.0</ele><time>2026-04-19T07:16:10Z</time></trkpt><trkpt lat="43.337105627020854" lon="11.81061571981321"><ele>246.0</ele><time>2026-04-19T07:16:11Z</time></trkpt><trkpt lat="43.33689739760717" lon="11.810630504374322"><ele>246.33333333333331</ele><time>2026-04-19T07:16:12Z</time></trkpt><trkpt lat="43.33668653541653" lon="11.810644776454206"><ele>246.66666666666666</ele><time>2026-04-19T07:16:13Z</time></trkpt><trkpt lat="43.33647305509588" lon="11.810659531023939"><ele>247.0</ele><time>2026-04-19T07:16:14Z</time></trkpt><trkpt lat="43.33625991815927" lon="11.81067328586045"><ele>247.33333333333331</ele><time>2026-04-19T07:16:15Z</time></trkpt><trkpt lat="43.336047505992134" lon="11.810685179222205"><ele>247.66666666666669</ele><time>2026-04-19T07:16:16Z</time></trkpt><trkpt lat="43.335834616982886" lon="11.810697835996672"><ele>248.0</ele><time>2026-04-19T07:16:17Z</time></trkpt><trkpt lat="43.33562249487338" lon="11.810711574489723"><ele>247.33333333333334</ele><time>2026-04-19T07:16:18Z</time></trkpt><trkpt lat="43.33541015738006" lon="11.810723977976863"><ele>246.66666666666669</ele><time>2026-04-19T07:16:19Z</time></trkpt><trkpt lat="43.33519691620833" lon="11.810737990751146"><ele>246.0</ele><time>2026-04-19T07:16:20Z</time></trkpt><trkpt lat="43.33498248680609" lon="11.810752298224807"><ele>246.0</ele><time>2026-04-19T07:16:21Z</time></trkpt><trkpt lat="43.33477113680135" lon="11.810767721198406"><ele>246.0</ele><time>2026-04-19T07:16:22Z</time></trkpt><trkpt lat="43.334565530741735" lon="11.810781148037593"><ele>246.0</ele><time>2026-04-19T07:16:23Z</time></trkpt><trkpt lat="43.33436296513397" lon="11.810795350577603"><ele>246.0</ele><time>2026-04-19T07:16:24Z</time></trkpt><trkpt lat="43.334160210470436" lon="11.81080959347681"><ele>246.0</ele><time>2026-04-19T07:16:25Z</time></trkpt><trkpt lat="43.33395721848316" lon="11.810821066161136"><ele>246.0</ele><time>2026-04-19T07:16:26Z</time></trkpt><trkpt lat="43.33375431789549" lon="11.810834464152203"><ele>246.0</ele><time>2026-04-19T07:16:27Z</time></trkpt><trkpt lat="43.333552907244716" lon="11.810848621158227"><ele>246.0</ele><time>2026-04-19T07:16:28Z</time></trkpt><trkpt lat="43.33335121266934" lon="11.810864292601648"><ele>246.0</ele><time>2026-04-19T07:16:29Z</time></trkpt><trkpt lat="43.3331486003592" lon="11.810880316033892"><ele>246.0</ele><time>2026-04-19T07:16:30Z</time></trkpt><trkpt lat="43.332946100356416" lon="11.810894889747855"><ele>246.0</ele><time>2026-04-19T07:16:31Z</time></trkpt><trkpt lat="43.33274030543412" lon="11.810909617553719"><ele>246.0</ele><time>2026-04-19T07:16:32Z</time></trkpt><trkpt lat="43.332536371019835" lon="11.810923021209373"><ele>246.0</ele><time>2026-04-19T07:16:33Z</time></trkpt><trkpt lat="43.332332626275836" lon="11.8109380057976"><ele>246.0</ele><time>2026-04-19T07:16:34Z</time></trkpt><trkpt lat="43.33212960210975" lon="11.810952120398989"><ele>246.0</ele><time>2026-04-19T07:16:35Z</time></trkpt><trkpt lat="43.331927751207836" lon="11.810966312602172"><ele>246.33333333333331</ele><time>2026-04-19T07:16:36Z</time></trkpt><trkpt lat="43.331726164626595" lon="11.81098216396571"><ele>246.66666666666666</ele><time>2026-04-19T07:16:37Z</time></trkpt><trkpt lat="43.33152510182838" lon="11.810996811874347"><ele>247.0</ele><time>2026-04-19T07:16:38Z</time></trkpt><trkpt lat="43.33132821641072" lon="11.81100903163631"><ele>247.0</ele><time>2026-04-19T07:16:39Z</time></trkpt><trkpt lat="43.331133433617396" lon="11.811022519308297"><ele>247.0</ele><time>2026-04-19T07:16:40Z</time></trkpt><trkpt lat="43.33094345640295" lon="11.811037253312426"><ele>247.0</ele><time>2026-04-19T07:16:41Z</time></trkpt><trkpt lat="43.330754797276036" lon="11.811049851878295"><ele>247.0</ele><time>2026-04-19T07:16:42Z</time></trkpt><trkpt lat="43.33057026055873" lon="11.8110614186672"><ele>247.0</ele><time>2026-04-19T07:16:43Z</time></trkpt><trkpt lat="43.330388024753276" lon="11.81107525735145"><ele>247.0</ele><time>2026-04-19T07:16:44Z</time></trkpt><trkpt lat="43.33020498250042" lon="11.811087181625469"><ele>246.66666666666666</ele><time>2026-04-19T07:16:45Z</time></trkpt><trkpt lat="43.330020586059184" lon="11.811100716697382"><ele>246.33333333333331</ele><time>2026-04-19T07:16:46.001Z</time></trkpt><trkpt lat="43.32983523274393" lon="11.811114347776845"><ele>246.0</ele><time>2026-04-19T07:16:47.001Z</time></trkpt><trkpt lat="43.3296503825912" lon="11.811126064107624"><ele>246.66666666666669</ele><time>2026-04-19T07:16:48.001Z</time></trkpt><trkpt lat="43.32946868314881" lon="11.811137960421611"><ele>247.33333333333334</ele><time>2026-04-19T07:16:49.001Z</time></trkpt><trkpt lat="43.329288388780185" lon="11.81115144396056"><ele>248.0</ele><time>2026-04-19T07:16:50.001Z</time></trkpt><trkpt lat="43.32910618832112" lon="11.811171612113599"><ele>248.0</ele><time>2026-04-19T07:16:51.001Z</time></trkpt><trkpt lat="43.328923738060226" lon="11.811198702371033"><ele>248.0</ele><time>2026-04-19T07:16:52.001Z</time></trkpt><trkpt lat="43.32874009447156" lon="11.811231427127403"><ele>248.0</ele><time>2026-04-19T07:16:53.001Z</time></trkpt><trkpt lat="43.32855788699679" lon="11.811265944289492"><ele>247.66666666666669</ele><time>2026-04-19T07:16:54.001Z</time></trkpt><trkpt lat="43.328385268740014" lon="11.811303293558092"><ele>247.33333333333331</ele><time>2026-04-19T07:16:55.001Z</time></trkpt><trkpt lat="43.32821107899303" lon="11.811343330303439"><ele>247.0</ele><time>2026-04-19T07:16:56.001Z</time></trkpt><trkpt lat="43.32803711482019" lon="11.811383051586247"><ele>247.0</ele><time>2026-04-19T07:16:57.001Z</time></trkpt><trkpt lat="43.327863628188226" lon="11.811422770075298"><ele>247.0</ele><time>2026-04-19T07:16:58.001Z</time></trkpt><trkpt lat="43.32768826047155" lon="11.811460207340561"><ele>247.0</ele><time>2026-04-19T07:16:59.001Z</time></trkpt><trkpt lat="43.327508925590756" lon="11.811499944459667"><ele>247.0</ele><time>2026-04-19T07:17:00.001Z</time></trkpt><trkpt lat="43.32732758645804" lon="11.811541071817981"><ele>247.0</ele><time>2026-04-19T07:17:01.001Z</time></trkpt><trkpt lat="43.32714798798475" lon="11.811583777559669"><ele>247.0</ele><time>2026-04-19T07:17:02.001Z</time></trkpt><trkpt lat="43.326976033799895" lon="11.811626503778148"><ele>246.33333333333331</ele><time>2026-04-19T07:17:03.001Z</time></trkpt><trkpt lat="43.32681159601094" lon="11.811664757068092"><ele>245.66666666666669</ele><time>2026-04-19T07:17:04.001Z</time></trkpt><trkpt lat="43.32665037883709" lon="11.811699330107801"><ele>245.0</ele><time>2026-04-19T07:17:05.001Z</time></trkpt><trkpt lat="43.32649379968029" lon="11.811731690183864"><ele>245.33333333333334</ele><time>2026-04-19T07:17:06.001Z</time></trkpt><trkpt lat="43.32633925283358" lon="11.811760823074529"><ele>245.66666666666669</ele><time>2026-04-19T07:17:07.001Z</time></trkpt><trkpt lat="43.326185078584686" lon="11.811789759174863"><ele>246.0</ele><time>2026-04-19T07:17:08.001Z</time></trkpt><trkpt lat="43.326035716903206" lon="11.811814117166556"><ele>246.25</ele><time>2026-04-19T07:17:09.001Z</time></trkpt><trkpt lat="43.32589638002492" lon="11.811836771223438"><ele>246.5</ele><time>2026-04-19T07:17:10.001Z</time></trkpt><trkpt lat="43.325768583888184" lon="11.81185711953488"><ele>246.75</ele><time>2026-04-19T07:17:11.001Z</time></trkpt><trkpt lat="43.32565418383213" lon="11.811873289487405"><ele>247.0</ele><time>2026-04-19T07:17:12.001Z</time></trkpt><trkpt lat="43.32555228145044" lon="11.811883002306674"><ele>246.6</ele><time>2026-04-19T07:17:13.001Z</time></trkpt><trkpt lat="43.325455072428454" lon="11.811889570327406"><ele>246.2</ele><time>2026-04-19T07:17:14.001Z</time></trkpt><trkpt lat="43.32536236352557" lon="11.81189087439802"><ele>245.8</ele><time>2026-04-19T07:17:15.001Z</time></trkpt><trkpt lat="43.32526706961011" lon="11.811884889537385"><ele>245.4</ele><time>2026-04-19T07:17:16.001Z</time></trkpt><trkpt lat="43.32517125210085" lon="11.811869418924557"><ele>245.0</ele><time>2026-04-19T07:17:17.001Z</time></trkpt><trkpt lat="43.32507607325469" lon="11.811831634850146"><ele>245.00000000000003</ele><time>2026-04-19T07:17:18.001Z</time></trkpt><trkpt lat="43.32498157858308" lon="11.811779044456445"><ele>245.0</ele><time>2026-04-19T07:17:19.001Z</time></trkpt><trkpt lat="43.32489682372851" lon="11.811739518580737"><ele>245.0</ele><time>2026-04-19T07:17:20.001Z</time></trkpt><trkpt lat="43.324817341766334" lon="11.811729387768548"><ele>245.0</ele><time>2026-04-19T07:17:21.001Z</time></trkpt><trkpt lat="43.324739799645236" lon="11.81174868536979"><ele>245.00000000000003</ele><time>2026-04-19T07:17:22.001Z</time></trkpt><trkpt lat="43.32466949851396" lon="11.81181094986574"><ele>245.0</ele><time>2026-04-19T07:17:23.001Z</time></trkpt><trkpt lat="43.32459463485311" lon="11.811894466446038"><ele>245.25</ele><time>2026-04-19T07:17:24.001Z</time></trkpt><trkpt lat="43.324502531679244" lon="11.811971502298912"><ele>245.5</ele><time>2026-04-19T07:17:25.001Z</time></trkpt><trkpt lat="43.32438682563978" lon="11.81202558967291"><ele>245.75</ele><time>2026-04-19T07:17:26.001Z</time></trkpt><trkpt lat="43.32425385976011" lon="11.812066033806461"><ele>246.0</ele><time>2026-04-19T07:17:27.001Z</time></trkpt><trkpt lat="43.32411160529117" lon="11.812096748265626"><ele>246.0</ele><time>2026-04-19T07:17:28.001Z</time></trkpt><trkpt lat="43.32396776668418" lon="11.812124206730305"><ele>246.0</ele><time>2026-04-19T07:17:29.001Z</time></trkpt><trkpt lat="43.32382977550372" lon="11.812145363429961"><ele>246.0</ele><time>2026-04-19T07:17:30.001Z</time></trkpt><trkpt lat="43.32369773224298" lon="11.812163731511834"><ele>246.0</ele><time>2026-04-19T07:17:31.001Z</time></trkpt><trkpt lat="43.323563321523885" lon="11.812180433161888"><ele>246.25</ele><time>2026-04-19T07:17:32.001Z</time></trkpt><trkpt lat="43.32342660880529" lon="11.81219851535785"><ele>246.5</ele><time>2026-04-19T07:17:33.001Z</time></trkpt><trkpt lat="43.32328803624647" lon="11.81221816552788"><ele>246.75</ele><time>2026-04-19T07:17:34.001Z</time></trkpt><trkpt lat="43.32315296077617" lon="11.812234513007603"><ele>247.0</ele><time>2026-04-19T07:17:35.001Z</time></trkpt><trkpt lat="43.32301922921874" lon="11.812243627987817"><ele>247.0</ele><time>2026-04-19T07:17:36.001Z</time></trkpt><trkpt lat="43.32288609636259" lon="11.812245251791305"><ele>247.0</ele><time>2026-04-19T07:17:37.001Z</time></trkpt><trkpt lat="43.322760957790074" lon="11.812246078977097"><ele>247.0</ele><time>2026-04-19T07:17:38.001Z</time></trkpt><trkpt lat="43.322637363939194" lon="11.812247199834104"><ele>247.0</ele><time>2026-04-19T07:17:39.001Z</time></trkpt><trkpt lat="43.322510318493045" lon="11.812249737980595"><ele>247.0</ele><time>2026-04-19T07:17:40.001Z</time></trkpt><trkpt lat="43.32238107928097" lon="11.812255181621872"><ele>247.0</ele><time>2026-04-19T07:17:41.001Z</time></trkpt><trkpt lat="43.322257385889216" lon="11.812264134579806"><ele>247.0</ele><time>2026-04-19T07:17:42.001Z</time></trkpt><trkpt lat="43.322132421842916" lon="11.81227730830278"><ele>247.0</ele><time>2026-04-19T07:17:43.001Z</time></trkpt><trkpt lat="43.322017094671956" lon="11.812284607103447"><ele>246.6</ele><time>2026-04-19T07:17:44.001Z</time></trkpt><trkpt lat="43.32190931377713" lon="11.812287215320268"><ele>246.2</ele><time>2026-04-19T07:17:45.001Z</time></trkpt><trkpt lat="43.32180952154865" lon="11.812288974989826"><ele>245.8</ele><time>2026-04-19T07:17:46.001Z</time></trkpt><trkpt lat="43.32171763410147" lon="11.812291491853124"><ele>245.4</ele><time>2026-04-19T07:17:47.001Z</time></trkpt><trkpt lat="43.32162579622395" lon="11.812293814492026"><ele>245.0</ele><time>2026-04-19T07:17:48.001Z</time></trkpt><trkpt lat="43.32154134399758" lon="11.812295621442724"><ele>245.0</ele><time>2026-04-19T07:17:49.001Z</time></trkpt><trkpt lat="43.321466159121584" lon="11.812296796331289"><ele>245.0</ele><time>2026-04-19T07:17:50.001Z</time></trkpt><trkpt lat="43.32139646297423" lon="11.81229777937014"><ele>245.0</ele><time>2026-04-19T07:17:51.001Z</time></trkpt><trkpt lat="43.321312322915176" lon="11.812298058833104"><ele>245.0</ele><time>2026-04-19T07:17:52.001Z</time></trkpt><trkpt lat="43.32120371447321" lon="11.812301229128694"><ele>245.0</ele><time>2026-04-19T07:17:53.001Z</time></trkpt><trkpt lat="43.321082289004984" lon="11.812306240896236"><ele>245.5</ele><time>2026-04-19T07:17:54.001Z</time></trkpt><trkpt lat="43.320949124174604" lon="11.812307427163567"><ele>246.0</ele><time>2026-04-19T07:17:55.001Z</time></trkpt><trkpt lat="43.32080884555433" lon="11.812307066408607"><ele>246.5</ele><time>2026-04-19T07:17:56.001Z</time></trkpt><trkpt lat="43.32066053692991" lon="11.812306068093772"><ele>247.0</ele><time>2026-04-19T07:17:57.001Z</time></trkpt><trkpt lat="43.3205059481518" lon="11.812309205498233"><ele>247.0</ele><time>2026-04-19T07:17:58.001Z</time></trkpt><trkpt lat="43.32034920659954" lon="11.812319925988135"><ele>247.0</ele><time>2026-04-19T07:17:59.001Z</time></trkpt><trkpt lat="43.320188146019454" lon="11.812318289628386"><ele>247.0</ele><time>2026-04-19T07:18:00.001Z</time></trkpt><trkpt lat="43.32003065110238" lon="11.812320634013558"><ele>247.0</ele><time>2026-04-19T07:18:01.001Z</time></trkpt><trkpt lat="43.31987764443432" lon="11.812323049662604"><ele>247.0</ele><time>2026-04-19T07:18:02.001Z</time></trkpt><trkpt lat="43.31972686593525" lon="11.812325985234311"><ele>247.0</ele><time>2026-04-19T07:18:03.001Z</time></trkpt><trkpt lat="43.31957491713015" lon="11.812329288924568"><ele>247.66666666666666</ele><time>2026-04-19T07:18:04.001Z</time></trkpt><trkpt lat="43.319417199553655" lon="11.812331708191866"><ele>248.33333333333331</ele><time>2026-04-19T07:18:05.001Z</time></trkpt><trkpt lat="43.31925987916931" lon="11.812334263400981"><ele>249.0</ele><time>2026-04-19T07:18:06.001Z</time></trkpt><trkpt lat="43.31910382271208" lon="11.81233986674499"><ele>249.0</ele><time>2026-04-19T07:18:07.001Z</time></trkpt><trkpt lat="43.31895574964906" lon="11.812344910054819"><ele>249.0</ele><time>2026-04-19T07:18:08.001Z</time></trkpt><trkpt lat="43.31881759818946" lon="11.812349032859391"><ele>249.0</ele><time>2026-04-19T07:18:09.001Z</time></trkpt><trkpt lat="43.31868496126151" lon="11.812351591279953"><ele>249.0</ele><time>2026-04-19T07:18:10.001Z</time></trkpt><trkpt lat="43.31854892496598" lon="11.812360781191455"><ele>249.0</ele><time>2026-04-19T07:18:11.001Z</time></trkpt><trkpt lat="43.31841785724519" lon="11.81238237488594"><ele>248.99999999999997</ele><time>2026-04-19T07:18:12.001Z</time></trkpt><trkpt lat="43.3183059762944" lon="11.812413712234953"><ele>248.99999999999997</ele><time>2026-04-19T07:18:13.001Z</time></trkpt><trkpt lat="43.31821850304511" lon="11.812442224593893"><ele>249.0</ele><time>2026-04-19T07:18:14.001Z</time></trkpt><trkpt lat="43.31814290619516" lon="11.812462134517892"><ele>249.0</ele><time>2026-04-19T07:18:15.001Z</time></trkpt><trkpt lat="43.31806600631511" lon="11.812471718136244"><ele>249.0</ele><time>2026-04-19T07:18:16.001Z</time></trkpt><trkpt lat="43.31798104203765" lon="11.812464038796518"><ele>249.0</ele><time>2026-04-19T07:18:17.001Z</time></trkpt><trkpt lat="43.317897239622084" lon="11.812479095518011"><ele>249.0</ele><time>2026-04-19T07:18:18.001Z</time></trkpt><trkpt lat="43.31782805012036" lon="11.812532893661121"><ele>249.0</ele><time>2026-04-19T07:18:19.001Z</time></trkpt><trkpt lat="43.31778033010318" lon="11.812613466460697"><ele>249.0</ele><time>2026-04-19T07:18:20.001Z</time></trkpt><trkpt lat="43.31774014162566" lon="11.812714889248626"><ele>249.0</ele><time>2026-04-19T07:18:21.001Z</time></trkpt><trkpt lat="43.31767392379754" lon="11.812807934779025"><ele>248.75</ele><time>2026-04-19T07:18:22.001Z</time></trkpt><trkpt lat="43.3175760919515" lon="11.812890067981115"><ele>248.5</ele><time>2026-04-19T07:18:23.001Z</time></trkpt><trkpt lat="43.31746468644068" lon="11.812974422935207"><ele>248.25</ele><time>2026-04-19T07:18:24.001Z</time></trkpt><trkpt lat="43.31735149571335" lon="11.81307063244657"><ele>248.0</ele><time>2026-04-19T07:18:25.001Z</time></trkpt><trkpt lat="43.31724766453807" lon="11.813157640226482"><ele>248.0</ele><time>2026-04-19T07:18:26.001Z</time></trkpt><trkpt lat="43.31715267703284" lon="11.813237565032097"><ele>248.0</ele><time>2026-04-19T07:18:27.001Z</time></trkpt><trkpt lat="43.3170638472903" lon="11.813311712422315"><ele>248.0</ele><time>2026-04-19T07:18:28.001Z</time></trkpt><trkpt lat="43.316974627652776" lon="11.813384875126145"><ele>248.0</ele><time>2026-04-19T07:18:29.001Z</time></trkpt><trkpt lat="43.316884523412355" lon="11.81345824878443"><ele>248.0</ele><time>2026-04-19T07:18:30.001Z</time></trkpt><trkpt lat="43.31679491601582" lon="11.813527853511681"><ele>248.0</ele><time>2026-04-19T07:18:31.001Z</time></trkpt><trkpt lat="43.316706453611175" lon="11.813593860261202"><ele>248.0</ele><time>2026-04-19T07:18:32.001Z</time></trkpt><trkpt lat="43.31662863416395" lon="11.813653803587624"><ele>248.0</ele><time>2026-04-19T07:18:33.001Z</time></trkpt><trkpt lat="43.31655505178727" lon="11.813710211964116"><ele>248.0</ele><time>2026-04-19T07:18:34.001Z</time></trkpt><trkpt lat="43.31647264823109" lon="11.813771897205108"><ele>248.0</ele><time>2026-04-19T07:18:35.001Z</time></trkpt><trkpt lat="43.31639089550886" lon="11.813836592066034"><ele>248.0</ele><time>2026-04-19T07:18:36.001Z</time></trkpt><trkpt lat="43.316319325799114" lon="11.81389132981284"><ele>248.0</ele><time>2026-04-19T07:18:37.001Z</time></trkpt><trkpt lat="43.31625748977795" lon="11.813939771021715"><ele>248.0</ele><time>2026-04-19T07:18:38.001Z</time></trkpt><trkpt lat="43.31615807722943" lon="11.814016209902732"><ele>248.0</ele><time>2026-04-19T07:18:40.001Z</time></trkpt><trkpt lat="43.31604433319149" lon="11.814099658228567"><ele>248.0</ele><time>2026-04-19T07:18:42.001Z</time></trkpt><trkpt lat="43.315975435243324" lon="11.814151182227235"><ele>248.0</ele><time>2026-04-19T07:18:43.001Z</time></trkpt><trkpt lat="43.315902259040804" lon="11.814207302347445"><ele>248.0</ele><time>2026-04-19T07:18:44.001Z</time></trkpt><trkpt lat="43.31582344027794" lon="11.814267667172015"><ele>248.0</ele><time>2026-04-19T07:18:45.001Z</time></trkpt><trkpt lat="43.31574043716966" lon="11.814333796205153"><ele>248.0</ele><time>2026-04-19T07:18:46.001Z</time></trkpt><trkpt lat="43.315656953505965" lon="11.814397599887462"><ele>248.0</ele><time>2026-04-19T07:18:47.001Z</time></trkpt><trkpt lat="43.3155735898583" lon="11.814459929220272"><ele>248.5</ele><time>2026-04-19T07:18:48.001Z</time></trkpt><trkpt lat="43.31548431916213" lon="11.814524475722841"><ele>249.0</ele><time>2026-04-19T07:18:49.001Z</time></trkpt><trkpt lat="43.31539189304998" lon="11.814594147619497"><ele>249.5</ele><time>2026-04-19T07:18:50.001Z</time></trkpt><trkpt lat="43.31529019497123" lon="11.814671971503982"><ele>250.0</ele><time>2026-04-19T07:18:51.001Z</time></trkpt><trkpt lat="43.31517820639391" lon="11.814757670025772"><ele>250.0</ele><time>2026-04-19T07:18:52.001Z</time></trkpt><trkpt lat="43.31506433473558" lon="11.814844177999309"><ele>250.0</ele><time>2026-04-19T07:18:53.001Z</time></trkpt><trkpt lat="43.31494517271698" lon="11.814930340517233"><ele>250.0</ele><time>2026-04-19T07:18:54.001Z</time></trkpt><trkpt lat="43.31482543394014" lon="11.815019779326136"><ele>250.0</ele><time>2026-04-19T07:18:55.001Z</time></trkpt><trkpt lat="43.314703582347995" lon="11.81511267668139"><ele>249.75</ele><time>2026-04-19T07:18:56.001Z</time></trkpt><trkpt lat="43.31458828155921" lon="11.815203681409226"><ele>249.5</ele><time>2026-04-19T07:18:57.001Z</time></trkpt><trkpt lat="43.314473179619846" lon="11.815293194017855"><ele>249.25</ele><time>2026-04-19T07:18:58.001Z</time></trkpt><trkpt lat="43.31435704718483" lon="11.815382978360752"><ele>249.0</ele><time>2026-04-19T07:18:59.001Z</time></trkpt><trkpt lat="43.31423943895589" lon="11.815471762252058"><ele>249.0</ele><time>2026-04-19T07:19:00.001Z</time></trkpt><trkpt lat="43.31412175272561" lon="11.815561335632275"><ele>249.0</ele><time>2026-04-19T07:19:01.001Z</time></trkpt><trkpt lat="43.31401254633097" lon="11.815645751939247"><ele>249.0</ele><time>2026-04-19T07:19:02.001Z</time></trkpt><trkpt lat="43.313911147377354" lon="11.815727558661212"><ele>249.0</ele><time>2026-04-19T07:19:03.001Z</time></trkpt><trkpt lat="43.313812878104685" lon="11.815805345846575"><ele>248.5</ele><time>2026-04-19T07:19:04.001Z</time></trkpt><trkpt lat="43.3137126205006" lon="11.815882248241266"><ele>248.0</ele><time>2026-04-19T07:19:05.001Z</time></trkpt><trkpt lat="43.31361171208071" lon="11.81595713991987"><ele>247.5</ele><time>2026-04-19T07:19:06.001Z</time></trkpt><trkpt lat="43.313493445947614" lon="11.816047128420228"><ele>247.0</ele><time>2026-04-19T07:19:07.001Z</time></trkpt><trkpt lat="43.3133607776581" lon="11.81615480405657"><ele>247.0</ele><time>2026-04-19T07:19:08.001Z</time></trkpt><trkpt lat="43.31322043844689" lon="11.81627116928715"><ele>247.0</ele><time>2026-04-19T07:19:09.001Z</time></trkpt><trkpt lat="43.31306048641027" lon="11.816389552514723"><ele>247.0</ele><time>2026-04-19T07:19:10.001Z</time></trkpt><trkpt lat="43.312886874560405" lon="11.816515949438886"><ele>247.33333333333331</ele><time>2026-04-19T07:19:11.001Z</time></trkpt><trkpt lat="43.31270357679206" lon="11.816639963503432"><ele>247.66666666666669</ele><time>2026-04-19T07:19:12.001Z</time></trkpt><trkpt lat="43.31250716810489" lon="11.816764697382148"><ele>248.0</ele><time>2026-04-19T07:19:13.001Z</time></trkpt><trkpt lat="43.3123012102332" lon="11.816896515051702"><ele>247.0</ele><time>2026-04-19T07:19:14.001Z</time></trkpt><trkpt lat="43.31207320876369" lon="11.817007334238436"><ele>246.0</ele><time>2026-04-19T07:19:15.001Z</time></trkpt><trkpt lat="43.31184701018096" lon="11.817158645539168"><ele>246.0</ele><time>2026-04-19T07:19:16.001Z</time></trkpt><trkpt lat="43.31161746251463" lon="11.81727960222504"><ele>246.0</ele><time>2026-04-19T07:19:17.001Z</time></trkpt><trkpt lat="43.31139320497757" lon="11.817402715794206"><ele>246.0</ele><time>2026-04-19T07:19:18.001Z</time></trkpt><trkpt lat="43.31118805477922" lon="11.817519029265352"><ele>246.0</ele><time>2026-04-19T07:19:19.001Z</time></trkpt><trkpt lat="43.310988838230486" lon="11.817627957766065"><ele>246.0</ele><time>2026-04-19T07:19:20.001Z</time></trkpt><trkpt lat="43.31079340672982" lon="11.817720570213787"><ele>246.0</ele><time>2026-04-19T07:19:21.001Z</time></trkpt><trkpt lat="43.31059368761098" lon="11.81785199500319"><ele>246.0</ele><time>2026-04-19T07:19:22.001Z</time></trkpt><trkpt lat="43.310397336498845" lon="11.817967445247"><ele>246.0</ele><time>2026-04-19T07:19:23.001Z</time></trkpt><trkpt lat="43.31020140713994" lon="11.818078905891143"><ele>246.33333333333331</ele><time>2026-04-19T07:19:24.001Z</time></trkpt><trkpt lat="43.31000160589993" lon="11.8181973993828"><ele>246.66666666666666</ele><time>2026-04-19T07:19:25.001Z</time></trkpt><trkpt lat="43.3097960759588" lon="11.81830841111751"><ele>247.0</ele><time>2026-04-19T07:19:26.001Z</time></trkpt><trkpt lat="43.30958506732342" lon="11.818414457348105"><ele>246.5</ele><time>2026-04-19T07:19:27.001Z</time></trkpt><trkpt lat="43.3093733986306" lon="11.818522673864557"><ele>246.0</ele><time>2026-04-19T07:19:28.001Z</time></trkpt><trkpt lat="43.30916054807519" lon="11.818622642491317"><ele>246.0</ele><time>2026-04-19T07:19:29.001Z</time></trkpt><trkpt lat="43.308950798612095" lon="11.818728194187004"><ele>246.0</ele><time>2026-04-19T07:19:30.001Z</time></trkpt><trkpt lat="43.30874506327355" lon="11.818827631303932"><ele>246.0</ele><time>2026-04-19T07:19:31.001Z</time></trkpt><trkpt lat="43.30854530016169" lon="11.818915186956119"><ele>246.33333333333331</ele><time>2026-04-19T07:19:32.001Z</time></trkpt><trkpt lat="43.308350133726464" lon="11.819012551995959"><ele>246.66666666666666</ele><time>2026-04-19T07:19:33.001Z</time></trkpt><trkpt lat="43.30815697310438" lon="11.819106009694845"><ele>247.0</ele><time>2026-04-19T07:19:34.001Z</time></trkpt><trkpt lat="43.30796394652819" lon="11.819201492548162"><ele>247.0</ele><time>2026-04-19T07:19:35.001Z</time></trkpt><trkpt lat="43.30777098682314" lon="11.819292278936578"><ele>247.0</ele><time>2026-04-19T07:19:36.001Z</time></trkpt><trkpt lat="43.30758287094913" lon="11.819384945599115"><ele>247.0</ele><time>2026-04-19T07:19:37.001Z</time></trkpt><trkpt lat="43.30739388382869" lon="11.819474301611884"><ele>247.0</ele><time>2026-04-19T07:19:38.001Z</time></trkpt><trkpt lat="43.30719872379528" lon="11.81956902283572"><ele>247.0</ele><time>2026-04-19T07:19:39.001Z</time></trkpt><trkpt lat="43.307006817418156" lon="11.819660129070014"><ele>247.0</ele><time>2026-04-19T07:19:40.001Z</time></trkpt><trkpt lat="43.30681663819468" lon="11.819754127676523"><ele>247.0</ele><time>2026-04-19T07:19:41.001Z</time></trkpt><trkpt lat="43.30661887795863" lon="11.819836253030694"><ele>247.0</ele><time>2026-04-19T07:19:42.001Z</time></trkpt><trkpt lat="43.30642361817033" lon="11.819925505401509"><ele>247.0</ele><time>2026-04-19T07:19:43.001Z</time></trkpt><trkpt lat="43.30621916082208" lon="11.82003131573163"><ele>247.0</ele><time>2026-04-19T07:19:44.001Z</time></trkpt><trkpt lat="43.30600981089985" lon="11.820138990371442"><ele>247.0</ele><time>2026-04-19T07:19:45.001Z</time></trkpt><trkpt lat="43.30581126846695" lon="11.820254619302487"><ele>247.0</ele><time>2026-04-19T07:19:46.001Z</time></trkpt><trkpt lat="43.30562441937641" lon="11.820378566101109"><ele>246.66666666666666</ele><time>2026-04-19T07:19:47.001Z</time></trkpt><trkpt lat="43.30544345045935" lon="11.820497599000095"><ele>246.33333333333331</ele><time>2026-04-19T07:19:48.001Z</time></trkpt><trkpt lat="43.30526173970906" lon="11.820611035618208"><ele>246.0</ele><time>2026-04-19T07:19:49.001Z</time></trkpt><trkpt lat="43.30507708646621" lon="11.820718064351308"><ele>246.0</ele><time>2026-04-19T07:19:50.001Z</time></trkpt><trkpt lat="43.3048903801224" lon="11.82083033284994"><ele>246.0</ele><time>2026-04-19T07:19:51.001Z</time></trkpt><trkpt lat="43.30469999880302" lon="11.820947575935989"><ele>246.0</ele><time>2026-04-19T07:19:52.001Z</time></trkpt><trkpt lat="43.304507324090196" lon="11.821067611890843"><ele>245.66666666666669</ele><time>2026-04-19T07:19:53.001Z</time></trkpt><trkpt lat="43.30431204297297" lon="11.821191216332851"><ele>245.33333333333334</ele><time>2026-04-19T07:19:54.001Z</time></trkpt><trkpt lat="43.30411167913364" lon="11.821316608151836"><ele>245.0</ele><time>2026-04-19T07:19:55.001Z</time></trkpt><trkpt lat="43.30391626402964" lon="11.82143916554044"><ele>245.33333333333334</ele><time>2026-04-19T07:19:56.001Z</time></trkpt><trkpt lat="43.303731430410586" lon="11.821556455887679"><ele>245.66666666666669</ele><time>2026-04-19T07:19:57.001Z</time></trkpt><trkpt lat="43.303554839809514" lon="11.821662661785323"><ele>246.0</ele><time>2026-04-19T07:19:58.001Z</time></trkpt><trkpt lat="43.303380652739534" lon="11.821770124012392"><ele>246.0</ele><time>2026-04-19T07:19:59.001Z</time></trkpt><trkpt lat="43.30320417304506" lon="11.821883847955672"><ele>246.0</ele><time>2026-04-19T07:20:00.001Z</time></trkpt><trkpt lat="43.3030260208496" lon="11.822000467587122"><ele>246.0</ele><time>2026-04-19T07:20:01.001Z</time></trkpt><trkpt lat="43.302841674351846" lon="11.822112241528549"><ele>246.0</ele><time>2026-04-19T07:20:02.001Z</time></trkpt><trkpt lat="43.302652840624226" lon="11.822223376867113"><ele>246.0</ele><time>2026-04-19T07:20:03.001Z</time></trkpt><trkpt lat="43.302461681362765" lon="11.822338391085559"><ele>246.0</ele><time>2026-04-19T07:20:04.001Z</time></trkpt><trkpt lat="43.30226983662772" lon="11.822458385509353"><ele>245.66666666666669</ele><time>2026-04-19T07:20:05.001Z</time></trkpt><trkpt lat="43.30207691885947" lon="11.822580673117212"><ele>245.33333333333334</ele><time>2026-04-19T07:20:06.001Z</time></trkpt><trkpt lat="43.30188115475649" lon="11.822701830523949"><ele>245.0</ele><time>2026-04-19T07:20:07.001Z</time></trkpt><trkpt lat="43.30168374800115" lon="11.822826029902476"><ele>245.0</ele><time>2026-04-19T07:20:08.001Z</time></trkpt><trkpt lat="43.30148632165466" lon="11.822944828728104"><ele>245.0</ele><time>2026-04-19T07:20:09Z</time></trkpt><trkpt lat="43.30129498464324" lon="11.823064771572424"><ele>245.0</ele><time>2026-04-19T07:20:10Z</time></trkpt><trkpt lat="43.3011110629151" lon="11.823179274139367"><ele>245.33333333333334</ele><time>2026-04-19T07:20:11Z</time></trkpt><trkpt lat="43.300927716057316" lon="11.823293500127534"><ele>245.66666666666669</ele><time>2026-04-19T07:20:12Z</time></trkpt><trkpt lat="43.30074036150943" lon="11.823409254029261"><ele>246.0</ele><time>2026-04-19T07:20:13Z</time></trkpt><trkpt lat="43.300551655790905" lon="11.82352519746278"><ele>246.0</ele><time>2026-04-19T07:20:14Z</time></trkpt><trkpt lat="43.30036261278859" lon="11.82364266774427"><ele>246.0</ele><time>2026-04-19T07:20:15Z</time></trkpt><trkpt lat="43.300170879092555" lon="11.823763034999825"><ele>246.0</ele><time>2026-04-19T07:20:16Z</time></trkpt><trkpt lat="43.29997982176205" lon="11.823880802502499"><ele>246.0</ele><time>2026-04-19T07:20:17Z</time></trkpt><trkpt lat="43.29978832313925" lon="11.823998183425422"><ele>246.0</ele><time>2026-04-19T07:20:18Z</time></trkpt><trkpt lat="43.29959734630828" lon="11.82411518461902"><ele>246.0</ele><time>2026-04-19T07:20:19Z</time></trkpt><trkpt lat="43.29940920637614" lon="11.824233366133257"><ele>246.33333333333331</ele><time>2026-04-19T07:20:20Z</time></trkpt><trkpt lat="43.299217231112685" lon="11.824352479290217"><ele>246.66666666666666</ele><time>2026-04-19T07:20:21Z</time></trkpt><trkpt lat="43.29902616120414" lon="11.82447001810776"><ele>247.0</ele><time>2026-04-19T07:20:22Z</time></trkpt><trkpt lat="43.29883421365281" lon="11.824590800338406"><ele>247.66666666666666</ele><time>2026-04-19T07:20:23Z</time></trkpt><trkpt lat="43.298642097239785" lon="11.824708730442653"><ele>248.33333333333331</ele><time>2026-04-19T07:20:24Z</time></trkpt><trkpt lat="43.298461785102944" lon="11.824821758308016"><ele>249.0</ele><time>2026-04-19T07:20:25Z</time></trkpt><trkpt lat="43.298286554567376" lon="11.824931328514852"><ele>249.0</ele><time>2026-04-19T07:20:26Z</time></trkpt><trkpt lat="43.29810598976611" lon="11.825038169229845"><ele>249.0</ele><time>2026-04-19T07:20:27Z</time></trkpt><trkpt lat="43.29792818582808" lon="11.825152292936671"><ele>249.0</ele><time>2026-04-19T07:20:28Z</time></trkpt><trkpt lat="43.29774089710153" lon="11.825262361413689"><ele>248.33333333333331</ele><time>2026-04-19T07:20:29Z</time></trkpt><trkpt lat="43.29754856480077" lon="11.825364422241066"><ele>247.66666666666666</ele><time>2026-04-19T07:20:30Z</time></trkpt><trkpt lat="43.297353036509676" lon="11.825459074565135"><ele>247.0</ele><time>2026-04-19T07:20:31Z</time></trkpt><trkpt lat="43.297153623436245" lon="11.825556899287765"><ele>247.0</ele><time>2026-04-19T07:20:32Z</time></trkpt><trkpt lat="43.29695090984288" lon="11.82565346419781"><ele>247.0</ele><time>2026-04-19T07:20:33Z</time></trkpt><trkpt lat="43.29674978284455" lon="11.825748149231112"><ele>247.0</ele><time>2026-04-19T07:20:34.001Z</time></trkpt><trkpt lat="43.29654597241695" lon="11.825845311714081"><ele>246.66666666666666</ele><time>2026-04-19T07:20:35.001Z</time></trkpt><trkpt lat="43.29634516306572" lon="11.825942551621361"><ele>246.33333333333331</ele><time>2026-04-19T07:20:36.001Z</time></trkpt><trkpt lat="43.296143705947124" lon="11.826042068532127"><ele>246.0</ele><time>2026-04-19T07:20:37.001Z</time></trkpt><trkpt lat="43.29595609253733" lon="11.82613237630968"><ele>246.0</ele><time>2026-04-19T07:20:38.001Z</time></trkpt><trkpt lat="43.29577907975113" lon="11.826216159393105"><ele>246.0</ele><time>2026-04-19T07:20:39.001Z</time></trkpt><trkpt lat="43.29560194037932" lon="11.826294437683233"><ele>246.0</ele><time>2026-04-19T07:20:40.001Z</time></trkpt><trkpt lat="43.29541612654453" lon="11.826365001859058"><ele>246.0</ele><time>2026-04-19T07:20:41.001Z</time></trkpt><trkpt lat="43.295225748461874" lon="11.826416707010164"><ele>246.0</ele><time>2026-04-19T07:20:42.001Z</time></trkpt><trkpt lat="43.295030026639004" lon="11.826444069600814"><ele>246.0</ele><time>2026-04-19T07:20:43.001Z</time></trkpt><trkpt lat="43.29483050131048" lon="11.826460778079191"><ele>246.33333333333331</ele><time>2026-04-19T07:20:44.001Z</time></trkpt><trkpt lat="43.294632933597065" lon="11.82647284748016"><ele>246.66666666666666</ele><time>2026-04-19T07:20:45.001Z</time></trkpt><trkpt lat="43.294432287991" lon="11.826490411152601"><ele>247.0</ele><time>2026-04-19T07:20:46.001Z</time></trkpt><trkpt lat="43.294231879734454" lon="11.826508256087727"><ele>247.0</ele><time>2026-04-19T07:20:47.001Z</time></trkpt><trkpt lat="43.2940293405045" lon="11.82652081685089"><ele>247.0</ele><time>2026-04-19T07:20:48.001Z</time></trkpt><trkpt lat="43.29382513859418" lon="11.826537424004227"><ele>247.0</ele><time>2026-04-19T07:20:49.001Z</time></trkpt><trkpt lat="43.293621828326366" lon="11.8265525645966"><ele>247.0</ele><time>2026-04-19T07:20:50.001Z</time></trkpt><trkpt lat="43.2934145810397" lon="11.826568856850226"><ele>247.0</ele><time>2026-04-19T07:20:51.001Z</time></trkpt><trkpt lat="43.293207712972524" lon="11.826585264741457"><ele>247.0</ele><time>2026-04-19T07:20:52.001Z</time></trkpt><trkpt lat="43.29299981597512" lon="11.826599427613385"><ele>247.0</ele><time>2026-04-19T07:20:53.001Z</time></trkpt><trkpt lat="43.29279071109677" lon="11.826614949390068"><ele>247.0</ele><time>2026-04-19T07:20:54.001Z</time></trkpt><trkpt lat="43.29258127197887" lon="11.826627643116769"><ele>247.0</ele><time>2026-04-19T07:20:55.001Z</time></trkpt><trkpt lat="43.292369189946626" lon="11.826641488215374"><ele>246.66666666666666</ele><time>2026-04-19T07:20:56.001Z</time></trkpt><trkpt lat="43.292158005898315" lon="11.82664956868253"><ele>246.33333333333331</ele><time>2026-04-19T07:20:57.001Z</time></trkpt><trkpt lat="43.2919447218252" lon="11.826658848482607"><ele>246.0</ele><time>2026-04-19T07:20:58.001Z</time></trkpt><trkpt lat="43.29173094011823" lon="11.82666760324695"><ele>246.0</ele><time>2026-04-19T07:20:59.001Z</time></trkpt><trkpt lat="43.29151999907798" lon="11.82667756240061"><ele>246.0</ele><time>2026-04-19T07:21:00.001Z</time></trkpt><trkpt lat="43.29130952574981" lon="11.826685277653933"><ele>246.0</ele><time>2026-04-19T07:21:01.001Z</time></trkpt><trkpt lat="43.29110015494077" lon="11.826692094801444"><ele>246.0</ele><time>2026-04-19T07:21:02.001Z</time></trkpt><trkpt lat="43.29089108592913" lon="11.826701144416953"><ele>246.0</ele><time>2026-04-19T07:21:03.001Z</time></trkpt><trkpt lat="43.2906851656559" lon="11.826709487124772"><ele>246.0</ele><time>2026-04-19T07:21:04.001Z</time></trkpt><trkpt lat="43.29048254930784" lon="11.8267192536316"><ele>246.0</ele><time>2026-04-19T07:21:05.001Z</time></trkpt><trkpt lat="43.29028075078775" lon="11.826726865488292"><ele>246.0</ele><time>2026-04-19T07:21:06.001Z</time></trkpt><trkpt lat="43.290079544767615" lon="11.826734399348146"><ele>246.0</ele><time>2026-04-19T07:21:07.001Z</time></trkpt><trkpt lat="43.289890491254766" lon="11.826739913367572"><ele>246.0</ele><time>2026-04-19T07:21:08.001Z</time></trkpt><trkpt lat="43.28970879405621" lon="11.826747886693456"><ele>246.0</ele><time>2026-04-19T07:21:09.001Z</time></trkpt><trkpt lat="43.289532982201976" lon="11.826754936666584"><ele>246.0</ele><time>2026-04-19T07:21:10.001Z</time></trkpt><trkpt lat="43.289364358985914" lon="11.826767914285414"><ele>246.0</ele><time>2026-04-19T07:21:11.001Z</time></trkpt><trkpt lat="43.28919580993666" lon="11.826781693780925"><ele>246.0</ele><time>2026-04-19T07:21:12.001Z</time></trkpt><trkpt lat="43.289015226113754" lon="11.826791778762335"><ele>246.0</ele><time>2026-04-19T07:21:13.001Z</time></trkpt><trkpt lat="43.288823908827894" lon="11.826790187934131"><ele>245.66666666666669</ele><time>2026-04-19T07:21:14.001Z</time></trkpt><trkpt lat="43.28863032230929" lon="11.82678857696762"><ele>245.33333333333334</ele><time>2026-04-19T07:21:15.001Z</time></trkpt><trkpt lat="43.28842843485931" lon="11.826796962704055"><ele>245.0</ele><time>2026-04-19T07:21:16.001Z</time></trkpt><trkpt lat="43.288221799826516" lon="11.826805012450818"><ele>245.33333333333334</ele><time>2026-04-19T07:21:17.001Z</time></trkpt><trkpt lat="43.28800922995764" lon="11.826811454855514"><ele>245.66666666666669</ele><time>2026-04-19T07:21:18.001Z</time></trkpt><trkpt lat="43.28779281612965" lon="11.826818082747247"><ele>246.0</ele><time>2026-04-19T07:21:19.001Z</time></trkpt><trkpt lat="43.28757116577422" lon="11.826826610536196"><ele>246.0</ele><time>2026-04-19T07:21:20.001Z</time></trkpt><trkpt lat="43.28734560236445" lon="11.826834878421614"><ele>246.0</ele><time>2026-04-19T07:21:21.001Z</time></trkpt><trkpt lat="43.28711644204471" lon="11.826835116831834"><ele>246.0</ele><time>2026-04-19T07:21:22.001Z</time></trkpt><trkpt lat="43.28688448643339" lon="11.826826547489215"><ele>246.0</ele><time>2026-04-19T07:21:23.001Z</time></trkpt><trkpt lat="43.28665076372222" lon="11.826808770917154"><ele>246.0</ele><time>2026-04-19T07:21:24.001Z</time></trkpt><trkpt lat="43.28641885321885" lon="11.82678728830694"><ele>246.0</ele><time>2026-04-19T07:21:25.001Z</time></trkpt><trkpt lat="43.286188147956864" lon="11.826763895280914"><ele>246.0</ele><time>2026-04-19T07:21:26.001Z</time></trkpt><trkpt lat="43.28596160638712" lon="11.826741321047098"><ele>246.0</ele><time>2026-04-19T07:21:27.001Z</time></trkpt><trkpt lat="43.285738708071754" lon="11.826724138081266"><ele>246.33333333333331</ele><time>2026-04-19T07:21:28.001Z</time></trkpt><trkpt lat="43.285520682291356" lon="11.826707560611771"><ele>246.66666666666666</ele><time>2026-04-19T07:21:29.001Z</time></trkpt><trkpt lat="43.28531254431669" lon="11.826687729863083"><ele>247.0</ele><time>2026-04-19T07:21:30.001Z</time></trkpt><trkpt lat="43.28510690996789" lon="11.826670781582047"><ele>247.0</ele><time>2026-04-19T07:21:31.001Z</time></trkpt><trkpt lat="43.28490389524796" lon="11.826655582829206"><ele>247.0</ele><time>2026-04-19T07:21:32.001Z</time></trkpt><trkpt lat="43.28469911987966" lon="11.826638431720415"><ele>247.0</ele><time>2026-04-19T07:21:33.001Z</time></trkpt><trkpt lat="43.28449199202537" lon="11.826622343881182"><ele>246.66666666666666</ele><time>2026-04-19T07:21:34.001Z</time></trkpt><trkpt lat="43.284286507328495" lon="11.826604465947195"><ele>246.33333333333331</ele><time>2026-04-19T07:21:35.001Z</time></trkpt><trkpt lat="43.28408159918063" lon="11.8265877919114"><ele>246.0</ele><time>2026-04-19T07:21:36.001Z</time></trkpt><trkpt lat="43.283877511648285" lon="11.826569428048272"><ele>246.0</ele><time>2026-04-19T07:21:37.001Z</time></trkpt><trkpt lat="43.283670674273225" lon="11.826551848898534"><ele>246.0</ele><time>2026-04-19T07:21:38.001Z</time></trkpt><trkpt lat="43.283463012958514" lon="11.826534095095301"><ele>246.0</ele><time>2026-04-19T07:21:39.001Z</time></trkpt><trkpt lat="43.28325527391787" lon="11.826517904355262"><ele>246.33333333333331</ele><time>2026-04-19T07:21:40.001Z</time></trkpt><trkpt lat="43.28304610024351" lon="11.826502847097121"><ele>246.66666666666666</ele><time>2026-04-19T07:21:41.001Z</time></trkpt><trkpt lat="43.2828358775487" lon="11.826486512384783"><ele>247.0</ele><time>2026-04-19T07:21:42.001Z</time></trkpt><trkpt lat="43.282629151506924" lon="11.826466237389221"><ele>247.0</ele><time>2026-04-19T07:21:43.001Z</time></trkpt><trkpt lat="43.28242287540043" lon="11.826449840006788"><ele>247.0</ele><time>2026-04-19T07:21:44.001Z</time></trkpt><trkpt lat="43.28221710383444" lon="11.826431880628334"><ele>247.0</ele><time>2026-04-19T07:21:45.001Z</time></trkpt><trkpt lat="43.28201658327543" lon="11.826414702779713"><ele>247.0</ele><time>2026-04-19T07:21:46.001Z</time></trkpt><trkpt lat="43.28181953183029" lon="11.826397697308122"><ele>247.0</ele><time>2026-04-19T07:21:47.001Z</time></trkpt><trkpt lat="43.281636860038475" lon="11.826382152013474"><ele>247.0</ele><time>2026-04-19T07:21:48.001Z</time></trkpt><trkpt lat="43.28148480072161" lon="11.826371014832091"><ele>246.6</ele><time>2026-04-19T07:21:49.001Z</time></trkpt><trkpt lat="43.28135547684654" lon="11.826361129624244"><ele>246.2</ele><time>2026-04-19T07:21:50.001Z</time></trkpt><trkpt lat="43.28124084548519" lon="11.826350252300237"><ele>245.8</ele><time>2026-04-19T07:21:51.001Z</time></trkpt><trkpt lat="43.28113718957623" lon="11.82633868915608"><ele>245.4</ele><time>2026-04-19T07:21:52.001Z</time></trkpt><trkpt lat="43.28103751674673" lon="11.826328314797983"><ele>245.0</ele><time>2026-04-19T07:21:53.001Z</time></trkpt><trkpt lat="43.28092411722406" lon="11.826319927980332"><ele>245.0</ele><time>2026-04-19T07:21:54.001Z</time></trkpt><trkpt lat="43.28079908133836" lon="11.826310798301849"><ele>245.0</ele><time>2026-04-19T07:21:55.001Z</time></trkpt><trkpt lat="43.28068037020761" lon="11.826299948208861"><ele>245.0</ele><time>2026-04-19T07:21:56.001Z</time></trkpt><trkpt lat="43.28057358448035" lon="11.826290813902546"><ele>245.0</ele><time>2026-04-19T07:21:57.001Z</time></trkpt><trkpt lat="43.280467362029064" lon="11.826282113589691"><ele>245.25</ele><time>2026-04-19T07:21:58.001Z</time></trkpt><trkpt lat="43.28035789349134" lon="11.826273877960023"><ele>245.5</ele><time>2026-04-19T07:21:59.001Z</time></trkpt><trkpt lat="43.28024674560484" lon="11.826261669678974"><ele>245.75</ele><time>2026-04-19T07:22:00.001Z</time></trkpt><trkpt lat="43.28013443476679" lon="11.826248353020148"><ele>246.0</ele><time>2026-04-19T07:22:01.001Z</time></trkpt><trkpt lat="43.280012005003805" lon="11.826239569483574"><ele>246.0</ele><time>2026-04-19T07:22:02.001Z</time></trkpt><trkpt lat="43.27988679532727" lon="11.826230236063196"><ele>246.0</ele><time>2026-04-19T07:22:03.001Z</time></trkpt><trkpt lat="43.27977321806743" lon="11.826221550554045"><ele>246.0</ele><time>2026-04-19T07:22:04.001Z</time></trkpt><trkpt lat="43.279665274323705" lon="11.826212805998221"><ele>246.0</ele><time>2026-04-19T07:22:05.001Z</time></trkpt><trkpt lat="43.27955363552141" lon="11.826206300205625"><ele>246.0</ele><time>2026-04-19T07:22:06.001Z</time></trkpt><trkpt lat="43.27941860107864" lon="11.826204316369987"><ele>246.0</ele><time>2026-04-19T07:22:07.001Z</time></trkpt><trkpt lat="43.279275060802796" lon="11.826171926605904"><ele>246.0</ele><time>2026-04-19T07:22:08.001Z</time></trkpt><trkpt lat="43.2791022194788" lon="11.826156511902788"><ele>245.66666666666669</ele><time>2026-04-19T07:22:09.001Z</time></trkpt><trkpt lat="43.278906789057956" lon="11.82614062107376"><ele>245.33333333333334</ele><time>2026-04-19T07:22:10.001Z</time></trkpt><trkpt lat="43.278708600943716" lon="11.826142012327178"><ele>245.0</ele><time>2026-04-19T07:22:11.001Z</time></trkpt><trkpt lat="43.27852130210146" lon="11.82611890275502"><ele>245.0</ele><time>2026-04-19T07:22:12.001Z</time></trkpt><trkpt lat="43.27832012611534" lon="11.826101703917722"><ele>245.0</ele><time>2026-04-19T07:22:13.001Z</time></trkpt><trkpt lat="43.278113506073424" lon="11.8260843918296"><ele>245.0</ele><time>2026-04-19T07:22:14.001Z</time></trkpt><trkpt lat="43.27790614793999" lon="11.826064631794033"><ele>245.33333333333334</ele><time>2026-04-19T07:22:15Z</time></trkpt><trkpt lat="43.27769595563565" lon="11.826047963925367"><ele>245.66666666666669</ele><time>2026-04-19T07:22:16Z</time></trkpt><trkpt lat="43.277482287001696" lon="11.826030996809706"><ele>246.0</ele><time>2026-04-19T07:22:17Z</time></trkpt><trkpt lat="43.277270140577635" lon="11.82601400407837"><ele>246.0</ele><time>2026-04-19T07:22:18Z</time></trkpt><trkpt lat="43.27705680917358" lon="11.825994697976766"><ele>246.0</ele><time>2026-04-19T07:22:19Z</time></trkpt><trkpt lat="43.27684677419923" lon="11.825974971890824"><ele>246.0</ele><time>2026-04-19T07:22:20Z</time></trkpt><trkpt lat="43.276640480314704" lon="11.82595639170167"><ele>246.33333333333331</ele><time>2026-04-19T07:22:21Z</time></trkpt><trkpt lat="43.276435654430564" lon="11.82593874916619"><ele>246.66666666666666</ele><time>2026-04-19T07:22:22Z</time></trkpt><trkpt lat="43.276229093676186" lon="11.825920326434044"><ele>247.0</ele><time>2026-04-19T07:22:23Z</time></trkpt><trkpt lat="43.276022933563155" lon="11.825900489681977"><ele>247.0</ele><time>2026-04-19T07:22:24Z</time></trkpt><trkpt lat="43.27581452161841" lon="11.825883215729569"><ele>247.0</ele><time>2026-04-19T07:22:25Z</time></trkpt><trkpt lat="43.27560751713754" lon="11.825865841442612"><ele>247.0</ele><time>2026-04-19T07:22:26Z</time></trkpt><trkpt lat="43.27540073278174" lon="11.825849034850126"><ele>246.66666666666666</ele><time>2026-04-19T07:22:27Z</time></trkpt><trkpt lat="43.27519438923225" lon="11.82582960194402"><ele>246.33333333333331</ele><time>2026-04-19T07:22:28Z</time></trkpt><trkpt lat="43.27498723771565" lon="11.825807089007183"><ele>246.0</ele><time>2026-04-19T07:22:29Z</time></trkpt><trkpt lat="43.27478134712762" lon="11.825781034480583"><ele>245.66666666666669</ele><time>2026-04-19T07:22:30Z</time></trkpt><trkpt lat="43.27458994501611" lon="11.825752044968457"><ele>245.33333333333334</ele><time>2026-04-19T07:22:31Z</time></trkpt><trkpt lat="43.27440863680177" lon="11.825714687182911"><ele>245.0</ele><time>2026-04-19T07:22:32Z</time></trkpt><trkpt lat="43.274235744370884" lon="11.825666105181604"><ele>245.0</ele><time>2026-04-19T07:22:33Z</time></trkpt><trkpt lat="43.27406523412589" lon="11.825609055519655"><ele>245.0</ele><time>2026-04-19T07:22:34Z</time></trkpt><trkpt lat="43.273899719628965" lon="11.825548182080848"><ele>245.0</ele><time>2026-04-19T07:22:35Z</time></trkpt><trkpt lat="43.27373440482722" lon="11.825478458566486"><ele>246.0</ele><time>2026-04-19T07:22:36Z</time></trkpt><trkpt lat="43.27356791151161" lon="11.825404100354952"><ele>247.0</ele><time>2026-04-19T07:22:37Z</time></trkpt><trkpt lat="43.27339676868034" lon="11.825330107143078"><ele>248.0</ele><time>2026-04-19T07:22:38Z</time></trkpt><trkpt lat="43.27322329185538" lon="11.825257002645737"><ele>248.0</ele><time>2026-04-19T07:22:39Z</time></trkpt><trkpt lat="43.27304689985857" lon="11.825180044845965"><ele>248.0</ele><time>2026-04-19T07:22:40.001Z</time></trkpt><trkpt lat="43.27286992136975" lon="11.825101480550233"><ele>248.0</ele><time>2026-04-19T07:22:41.001Z</time></trkpt><trkpt lat="43.27269045767913" lon="11.825021882056932"><ele>248.33333333333334</ele><time>2026-04-19T07:22:42.001Z</time></trkpt><trkpt lat="43.27250861154029" lon="11.824939603352485"><ele>248.66666666666669</ele><time>2026-04-19T07:22:43.001Z</time></trkpt><trkpt lat="43.272322659246484" lon="11.824856752306118"><ele>249.0</ele><time>2026-04-19T07:22:44.001Z</time></trkpt><trkpt lat="43.272131201854904" lon="11.824772164928744"><ele>248.33333333333331</ele><time>2026-04-19T07:22:45.001Z</time></trkpt><trkpt lat="43.27194101277846" lon="11.824684041787542"><ele>247.66666666666666</ele><time>2026-04-19T07:22:46.001Z</time></trkpt><trkpt lat="43.27174350985352" lon="11.82459738401123"><ele>247.0</ele><time>2026-04-19T07:22:47.001Z</time></trkpt><trkpt lat="43.27153787997386" lon="11.824510430969495"><ele>247.33333333333331</ele><time>2026-04-19T07:22:48.001Z</time></trkpt><trkpt lat="43.27133724240828" lon="11.824422735802415"><ele>247.66666666666669</ele><time>2026-04-19T07:22:49.001Z</time></trkpt><trkpt lat="43.271137165478955" lon="11.824333876066671"><ele>248.0</ele><time>2026-04-19T07:22:50.001Z</time></trkpt><trkpt lat="43.27095032303425" lon="11.824246978266139"><ele>248.0</ele><time>2026-04-19T07:22:51.001Z</time></trkpt><trkpt lat="43.27077127499201" lon="11.824169906864459"><ele>248.0</ele><time>2026-04-19T07:22:52.001Z</time></trkpt><trkpt lat="43.27059761096614" lon="11.824094651326268"><ele>248.0</ele><time>2026-04-19T07:22:53.001Z</time></trkpt><trkpt lat="43.270429036303646" lon="11.824020739158492"><ele>248.0</ele><time>2026-04-19T07:22:54.001Z</time></trkpt><trkpt lat="43.270257192783795" lon="11.823945134929973"><ele>248.0</ele><time>2026-04-19T07:22:55.001Z</time></trkpt><trkpt lat="43.270078731858824" lon="11.82386718859244"><ele>248.0</ele><time>2026-04-19T07:22:56.001Z</time></trkpt><trkpt lat="43.2699081298064" lon="11.823791027681457"><ele>248.0</ele><time>2026-04-19T07:22:57.001Z</time></trkpt><trkpt lat="43.26974321867133" lon="11.823716370411276"><ele>248.0</ele><time>2026-04-19T07:22:58.001Z</time></trkpt><trkpt lat="43.26957322235008" lon="11.823643832101276"><ele>248.0</ele><time>2026-04-19T07:22:59.001Z</time></trkpt><trkpt lat="43.26939917270349" lon="11.823570196299809"><ele>248.0</ele><time>2026-04-19T07:23:00.001Z</time></trkpt><trkpt lat="43.2692355474818" lon="11.823496142309008"><ele>248.0</ele><time>2026-04-19T07:23:01.001Z</time></trkpt><trkpt lat="43.26907570537103" lon="11.823427117366574"><ele>248.0</ele><time>2026-04-19T07:23:02.001Z</time></trkpt><trkpt lat="43.268912304383036" lon="11.82335840765161"><ele>248.33333333333334</ele><time>2026-04-19T07:23:03.001Z</time></trkpt><trkpt lat="43.268744205035155" lon="11.823284485208925"><ele>248.66666666666669</ele><time>2026-04-19T07:23:04.001Z</time></trkpt><trkpt lat="43.26857032328535" lon="11.823208535858402"><ele>249.0</ele><time>2026-04-19T07:23:05.001Z</time></trkpt><trkpt lat="43.26839422440772" lon="11.823128636370638"><ele>249.0</ele><time>2026-04-19T07:23:06.001Z</time></trkpt><trkpt lat="43.26821775330731" lon="11.823048692140668"><ele>249.0</ele><time>2026-04-19T07:23:07.001Z</time></trkpt><trkpt lat="43.268040618859196" lon="11.822966940992746"><ele>249.0</ele><time>2026-04-19T07:23:08.001Z</time></trkpt><trkpt lat="43.26786058326147" lon="11.822889544259066"><ele>249.0</ele><time>2026-04-19T07:23:09.001Z</time></trkpt><trkpt lat="43.267680941656266" lon="11.822813252503908"><ele>249.0</ele><time>2026-04-19T07:23:10.001Z</time></trkpt><trkpt lat="43.267502074080014" lon="11.822735338309263"><ele>249.0</ele><time>2026-04-19T07:23:11.001Z</time></trkpt><trkpt lat="43.26732349356126" lon="11.822656415791148"><ele>250.33333333333331</ele><time>2026-04-19T07:23:12.001Z</time></trkpt><trkpt lat="43.2671446856403" lon="11.822578120370066"><ele>251.66666666666666</ele><time>2026-04-19T07:23:13.001Z</time></trkpt><trkpt lat="43.266972453503506" lon="11.822499062726664"><ele>253.0</ele><time>2026-04-19T07:23:14.001Z</time></trkpt><trkpt lat="43.266810546884244" lon="11.82242359887858"><ele>253.0</ele><time>2026-04-19T07:23:15.001Z</time></trkpt><trkpt lat="43.26666442553987" lon="11.822358703716285"><ele>253.0</ele><time>2026-04-19T07:23:16.001Z</time></trkpt><trkpt lat="43.26653456491016" lon="11.822303588815856"><ele>253.0</ele><time>2026-04-19T07:23:17.001Z</time></trkpt><trkpt lat="43.26642273059759" lon="11.822257827751402"><ele>253.0</ele><time>2026-04-19T07:23:18.001Z</time></trkpt><trkpt lat="43.26632193435356" lon="11.82222372856321"><ele>253.16666666666666</ele><time>2026-04-19T07:23:19.001Z</time></trkpt><trkpt lat="43.2662313873573" lon="11.822200395465359"><ele>253.33333333333331</ele><time>2026-04-19T07:23:20.001Z</time></trkpt><trkpt lat="43.26613919637208" lon="11.82217140128106"><ele>253.5</ele><time>2026-04-19T07:23:21.001Z</time></trkpt><trkpt lat="43.2660488256188" lon="11.8221259781751"><ele>253.66666666666669</ele><time>2026-04-19T07:23:22.001Z</time></trkpt><trkpt lat="43.26596417745482" lon="11.82208697122299"><ele>253.83333333333334</ele><time>2026-04-19T07:23:23.001Z</time></trkpt><trkpt lat="43.26589137063508" lon="11.822088782776687"><ele>254.0</ele><time>2026-04-19T07:23:24.001Z</time></trkpt><trkpt lat="43.26580729037438" lon="11.822210266718734"><ele>254.0</ele><time>2026-04-19T07:23:26.001Z</time></trkpt><trkpt lat="43.26578873273952" lon="11.822330014704553"><ele>253.99999999999997</ele><time>2026-04-19T07:23:27.001Z</time></trkpt><trkpt lat="43.26578805885643" lon="11.82245451849967"><ele>253.99999999999997</ele><time>2026-04-19T07:23:28.001Z</time></trkpt><trkpt lat="43.265773678590996" lon="11.822593078615581"><ele>254.0</ele><time>2026-04-19T07:23:29.001Z</time></trkpt><trkpt lat="43.26574745972929" lon="11.822768920352264"><ele>254.0</ele><time>2026-04-19T07:23:30.001Z</time></trkpt><trkpt lat="43.26569053163058" lon="11.822954798164666"><ele>253.33333333333334</ele><time>2026-04-19T07:23:31.001Z</time></trkpt><trkpt lat="43.26562254898608" lon="11.823150010744845"><ele>252.66666666666669</ele><time>2026-04-19T07:23:32.001Z</time></trkpt><trkpt lat="43.265554928311786" lon="11.823355429945446"><ele>252.0</ele><time>2026-04-19T07:23:33.001Z</time></trkpt><trkpt lat="43.26549156815326" lon="11.823571174037507"><ele>250.33333333333331</ele><time>2026-04-19T07:23:34.001Z</time></trkpt><trkpt lat="43.26542806423558" lon="11.82379928166891"><ele>248.66666666666666</ele><time>2026-04-19T07:23:35.001Z</time></trkpt><trkpt lat="43.265358877170534" lon="11.824027819240296"><ele>247.0</ele><time>2026-04-19T07:23:36.001Z</time></trkpt><trkpt lat="43.26528576675791" lon="11.824257290272577"><ele>246.66666666666666</ele><time>2026-04-19T07:23:37.001Z</time></trkpt><trkpt lat="43.265211233668424" lon="11.824489385013878"><ele>246.33333333333331</ele><time>2026-04-19T07:23:38.001Z</time></trkpt><trkpt lat="43.26512857738464" lon="11.82472320325719"><ele>246.0</ele><time>2026-04-19T07:23:39.001Z</time></trkpt><trkpt lat="43.26503888570787" lon="11.82494981654907"><ele>245.66666666666669</ele><time>2026-04-19T07:23:40.001Z</time></trkpt><trkpt lat="43.2649345536351" lon="11.825169982972467"><ele>245.33333333333334</ele><time>2026-04-19T07:23:41.001Z</time></trkpt><trkpt lat="43.264815803833734" lon="11.825371909700184"><ele>245.0</ele><time>2026-04-19T07:23:42.001Z</time></trkpt><trkpt lat="43.264682900719826" lon="11.825557348239036"><ele>245.0</ele><time>2026-04-19T07:23:43.001Z</time></trkpt><trkpt lat="43.26453702793829" lon="11.825723261071236"><ele>245.0</ele><time>2026-04-19T07:23:44.001Z</time></trkpt><trkpt lat="43.26438085496872" lon="11.825871714590484"><ele>245.0</ele><time>2026-04-19T07:23:45.001Z</time></trkpt><trkpt lat="43.26421307297698" lon="11.82599683212856"><ele>245.0</ele><time>2026-04-19T07:23:46.001Z</time></trkpt><trkpt lat="43.26403297740335" lon="11.826097316455972"><ele>245.0</ele><time>2026-04-19T07:23:47.001Z</time></trkpt><trkpt lat="43.26384273149548" lon="11.826173219389672"><ele>245.0</ele><time>2026-04-19T07:23:48.001Z</time></trkpt><trkpt lat="43.263642309365714" lon="11.826231924540803"><ele>245.66666666666669</ele><time>2026-04-19T07:23:49.001Z</time></trkpt><trkpt lat="43.26343214864634" lon="11.82628568398758"><ele>246.33333333333331</ele><time>2026-04-19T07:23:50.001Z</time></trkpt><trkpt lat="43.263217986430135" lon="11.826337383229495"><ele>247.0</ele><time>2026-04-19T07:23:51.001Z</time></trkpt><trkpt lat="43.26299878886015" lon="11.826380922488124"><ele>247.0</ele><time>2026-04-19T07:23:52.001Z</time></trkpt><trkpt lat="43.262775103038784" lon="11.826431787847019"><ele>247.0</ele><time>2026-04-19T07:23:53.001Z</time></trkpt><trkpt lat="43.26254872668679" lon="11.82648038811187"><ele>247.0</ele><time>2026-04-19T07:23:54.001Z</time></trkpt><trkpt lat="43.26232701377498" lon="11.826521664303549"><ele>247.0</ele><time>2026-04-19T07:23:55.001Z</time></trkpt><trkpt lat="43.262116755383694" lon="11.826565951686263"><ele>247.0</ele><time>2026-04-19T07:23:56.001Z</time></trkpt><trkpt lat="43.2619080506016" lon="11.82660972972799"><ele>247.0</ele><time>2026-04-19T07:23:57.001Z</time></trkpt><trkpt lat="43.26169413817515" lon="11.826649742932068"><ele>247.0</ele><time>2026-04-19T07:23:58.001Z</time></trkpt><trkpt lat="43.26147517135714" lon="11.82669260937398"><ele>247.0</ele><time>2026-04-19T07:23:59.001Z</time></trkpt><trkpt lat="43.26125718576762" lon="11.82673723988273"><ele>247.0</ele><time>2026-04-19T07:24:00.001Z</time></trkpt><trkpt lat="43.26103439594082" lon="11.826785152025668"><ele>247.0</ele><time>2026-04-19T07:24:01.001Z</time></trkpt><trkpt lat="43.260805532203264" lon="11.82683305306106"><ele>247.0</ele><time>2026-04-19T07:24:02.001Z</time></trkpt><trkpt lat="43.26057471451501" lon="11.82688418868862"><ele>247.0</ele><time>2026-04-19T07:24:03.001Z</time></trkpt><trkpt lat="43.260344874863826" lon="11.826940060062702"><ele>247.0</ele><time>2026-04-19T07:24:04.001Z</time></trkpt><trkpt lat="43.260120063947085" lon="11.827004944380288"><ele>247.0</ele><time>2026-04-19T07:24:05.001Z</time></trkpt><trkpt lat="43.25990505020868" lon="11.82709000434627"><ele>247.0</ele><time>2026-04-19T07:24:06.001Z</time></trkpt><trkpt lat="43.259692759565944" lon="11.827196890373125"><ele>247.0</ele><time>2026-04-19T07:24:07.001Z</time></trkpt><trkpt lat="43.25948515109871" lon="11.827332715029751"><ele>247.0</ele><time>2026-04-19T07:24:08.001Z</time></trkpt><trkpt lat="43.25929002422355" lon="11.827491408839466"><ele>247.0</ele><time>2026-04-19T07:24:09.001Z</time></trkpt><trkpt lat="43.259099758799174" lon="11.827670494009142"><ele>247.0</ele><time>2026-04-19T07:24:10.001Z</time></trkpt><trkpt lat="43.258914897586116" lon="11.827862768699438"><ele>247.0</ele><time>2026-04-19T07:24:11.001Z</time></trkpt><trkpt lat="43.25873237966887" lon="11.82805409654123"><ele>247.0</ele><time>2026-04-19T07:24:12.001Z</time></trkpt><trkpt lat="43.25855367125624" lon="11.828244549523115"><ele>247.0</ele><time>2026-04-19T07:24:13.001Z</time></trkpt><trkpt lat="43.25837334168792" lon="11.82843048316052"><ele>247.0</ele><time>2026-04-19T07:24:14.001Z</time></trkpt><trkpt lat="43.258190381008355" lon="11.828612037812317"><ele>247.0</ele><time>2026-04-19T07:24:15.001Z</time></trkpt><trkpt lat="43.25800550661973" lon="11.828784965356347"><ele>247.0</ele><time>2026-04-19T07:24:16.001Z</time></trkpt><trkpt lat="43.25781374679761" lon="11.828947940939555"><ele>247.0</ele><time>2026-04-19T07:24:17.001Z</time></trkpt><trkpt lat="43.257620031834705" lon="11.829096836893926"><ele>247.0</ele><time>2026-04-19T07:24:18.001Z</time></trkpt><trkpt lat="43.25741761651413" lon="11.829226227788206"><ele>247.0</ele><time>2026-04-19T07:24:19.001Z</time></trkpt><trkpt lat="43.25722482993943" lon="11.82936444167623"><ele>246.66666666666666</ele><time>2026-04-19T07:24:20.001Z</time></trkpt><trkpt lat="43.257026166771226" lon="11.829477341087571"><ele>246.33333333333331</ele><time>2026-04-19T07:24:21Z</time></trkpt><trkpt lat="43.25681541393298" lon="11.82957562524325"><ele>246.0</ele><time>2026-04-19T07:24:22Z</time></trkpt><trkpt lat="43.256601546814245" lon="11.829654194462767"><ele>246.5</ele><time>2026-04-19T07:24:23Z</time></trkpt><trkpt lat="43.256379067144074" lon="11.82972024054793"><ele>247.0</ele><time>2026-04-19T07:24:24Z</time></trkpt><trkpt lat="43.256152875254315" lon="11.829770214734818"><ele>247.0</ele><time>2026-04-19T07:24:25Z</time></trkpt><trkpt lat="43.255929063530424" lon="11.82981456260507"><ele>247.0</ele><time>2026-04-19T07:24:26Z</time></trkpt><trkpt lat="43.2557083126858" lon="11.829859330049784"><ele>247.0</ele><time>2026-04-19T07:24:27Z</time></trkpt><trkpt lat="43.25548859772823" lon="11.829901818304227"><ele>246.66666666666666</ele><time>2026-04-19T07:24:28Z</time></trkpt><trkpt lat="43.2552727711444" lon="11.829946068755339"><ele>246.33333333333331</ele><time>2026-04-19T07:24:29Z</time></trkpt><trkpt lat="43.255048756333025" lon="11.829992410359527"><ele>246.0</ele><time>2026-04-19T07:24:30Z</time></trkpt><trkpt lat="43.25482718496713" lon="11.830038338709615"><ele>246.0</ele><time>2026-04-19T07:24:31Z</time></trkpt><trkpt lat="43.254607074262786" lon="11.83008188562669"><ele>246.0</ele><time>2026-04-19T07:24:32Z</time></trkpt><trkpt lat="43.25438347721519" lon="11.830110681152844"><ele>246.0</ele><time>2026-04-19T07:24:33Z</time></trkpt><trkpt lat="43.25415948647311" lon="11.830121350725667"><ele>247.5</ele><time>2026-04-19T07:24:34Z</time></trkpt><trkpt lat="43.253933857214605" lon="11.830110174207476"><ele>249.0</ele><time>2026-04-19T07:24:35Z</time></trkpt><trkpt lat="43.25370992056163" lon="11.830096971466663"><ele>249.0</ele><time>2026-04-19T07:24:36Z</time></trkpt><trkpt lat="43.25348787848354" lon="11.83006987723506"><ele>249.0</ele><time>2026-04-19T07:24:37Z</time></trkpt><trkpt lat="43.253269141455384" lon="11.830008814397704"><ele>249.0</ele><time>2026-04-19T07:24:38Z</time></trkpt><trkpt lat="43.253048788029936" lon="11.829936752809049"><ele>247.5</ele><time>2026-04-19T07:24:39Z</time></trkpt><trkpt lat="43.25282781962784" lon="11.82983697992845"><ele>246.0</ele><time>2026-04-19T07:24:40Z</time></trkpt><trkpt lat="43.25261076857271" lon="11.829742850596103"><ele>246.0</ele><time>2026-04-19T07:24:41Z</time></trkpt><trkpt lat="43.25239340028479" lon="11.829660464047006"><ele>246.0</ele><time>2026-04-19T07:24:42Z</time></trkpt><trkpt lat="43.25217120434251" lon="11.829605477710375"><ele>246.33333333333331</ele><time>2026-04-19T07:24:43Z</time></trkpt><trkpt lat="43.25194835190251" lon="11.82956704386971"><ele>246.66666666666666</ele><time>2026-04-19T07:24:44Z</time></trkpt><trkpt lat="43.25173232672837" lon="11.829542685882645"><ele>247.0</ele><time>2026-04-19T07:24:45Z</time></trkpt><trkpt lat="43.25151395691977" lon="11.829524921015526"><ele>247.33333333333331</ele><time>2026-04-19T07:24:46Z</time></trkpt><trkpt lat="43.25129651879667" lon="11.82952386270713"><ele>247.66666666666669</ele><time>2026-04-19T07:24:47Z</time></trkpt><trkpt lat="43.25108665807183" lon="11.829538691459168"><ele>248.0</ele><time>2026-04-19T07:24:48Z</time></trkpt><trkpt lat="43.25087667263784" lon="11.829567038179743"><ele>248.0</ele><time>2026-04-19T07:24:49Z</time></trkpt><trkpt lat="43.25066101857136" lon="11.829606897174092"><ele>248.0</ele><time>2026-04-19T07:24:50Z</time></trkpt><trkpt lat="43.25044489826187" lon="11.82966059401966"><ele>248.0</ele><time>2026-04-19T07:24:51Z</time></trkpt><trkpt lat="43.25022970190741" lon="11.829726474011487"><ele>248.33333333333334</ele><time>2026-04-19T07:24:52Z</time></trkpt><trkpt lat="43.2500175028976" lon="11.829800656412731"><ele>248.66666666666669</ele><time>2026-04-19T07:24:53Z</time></trkpt><trkpt lat="43.24980697393181" lon="11.82988359274078"><ele>249.0</ele><time>2026-04-19T07:24:54Z</time></trkpt><trkpt lat="43.24960894680161" lon="11.829968788308866"><ele>249.0</ele><time>2026-04-19T07:24:55Z</time></trkpt><trkpt lat="43.2494167100517" lon="11.830052815472728"><ele>249.0</ele><time>2026-04-19T07:24:56Z</time></trkpt><trkpt lat="43.249222942517775" lon="11.830128433836425"><ele>249.0</ele><time>2026-04-19T07:24:57Z</time></trkpt><trkpt lat="43.24903122680334" lon="11.830187417610091"><ele>248.66666666666669</ele><time>2026-04-19T07:24:58.001Z</time></trkpt><trkpt lat="43.248834608047204" lon="11.830226400115727"><ele>248.33333333333334</ele><time>2026-04-19T07:24:59.001Z</time></trkpt><trkpt lat="43.248633539398945" lon="11.830251659890722"><ele>248.0</ele><time>2026-04-19T07:25:00.001Z</time></trkpt><trkpt lat="43.24842865922644" lon="11.83026543772307"><ele>248.0</ele><time>2026-04-19T07:25:01.001Z</time></trkpt><trkpt lat="43.24822655436557" lon="11.830261629929012"><ele>248.0</ele><time>2026-04-19T07:25:02.001Z</time></trkpt><trkpt lat="43.248025264505046" lon="11.83024102753263"><ele>248.0</ele><time>2026-04-19T07:25:03.001Z</time></trkpt><trkpt lat="43.247819397870444" lon="11.830207748959447"><ele>248.0</ele><time>2026-04-19T07:25:04.001Z</time></trkpt><trkpt lat="43.247608738660105" lon="11.830163498291713"><ele>248.0</ele><time>2026-04-19T07:25:05.001Z</time></trkpt><trkpt lat="43.247393429610824" lon="11.830102346438416"><ele>248.0</ele><time>2026-04-19T07:25:06.001Z</time></trkpt><trkpt lat="43.24717964834777" lon="11.830016880171"><ele>248.0</ele><time>2026-04-19T07:25:07.001Z</time></trkpt><trkpt lat="43.2469663023017" lon="11.829937460028889"><ele>248.0</ele><time>2026-04-19T07:25:08.001Z</time></trkpt><trkpt lat="43.24674969425984" lon="11.829857119056395"><ele>248.0</ele><time>2026-04-19T07:25:09.001Z</time></trkpt><trkpt lat="43.2465383462203" lon="11.829772302794792"><ele>247.33333333333334</ele><time>2026-04-19T07:25:10.001Z</time></trkpt><trkpt lat="43.24631831499282" lon="11.829695646217981"><ele>246.66666666666669</ele><time>2026-04-19T07:25:11.001Z</time></trkpt><trkpt lat="43.24610494447746" lon="11.829614448125524"><ele>246.0</ele><time>2026-04-19T07:25:12.001Z</time></trkpt><trkpt lat="43.24588456467947" lon="11.829520020332842"><ele>246.0</ele><time>2026-04-19T07:25:13.001Z</time></trkpt><trkpt lat="43.245699482574274" lon="11.829459642904759"><ele>246.0</ele><time>2026-04-19T07:25:14.001Z</time></trkpt><trkpt lat="43.24550636664984" lon="11.829389348862568"><ele>246.0</ele><time>2026-04-19T07:25:15.001Z</time></trkpt><trkpt lat="43.24531293788273" lon="11.82932295212911"><ele>246.66666666666669</ele><time>2026-04-19T07:25:16.001Z</time></trkpt><trkpt lat="43.24511187290583" lon="11.829241722419097"><ele>247.33333333333334</ele><time>2026-04-19T07:25:17.001Z</time></trkpt><trkpt lat="43.24491289970472" lon="11.829168955309088"><ele>248.0</ele><time>2026-04-19T07:25:18.001Z</time></trkpt><trkpt lat="43.24470993329553" lon="11.829090419279986"><ele>248.0</ele><time>2026-04-19T07:25:19.001Z</time></trkpt><trkpt lat="43.24450641682087" lon="11.82901497412389"><ele>248.0</ele><time>2026-04-19T07:25:20.001Z</time></trkpt><trkpt lat="43.24429837191157" lon="11.8289373580004"><ele>248.0</ele><time>2026-04-19T07:25:21.001Z</time></trkpt><trkpt lat="43.24409260150589" lon="11.82886137787855"><ele>247.66666666666669</ele><time>2026-04-19T07:25:22.001Z</time></trkpt><trkpt lat="43.243886770096985" lon="11.828778950420144"><ele>247.33333333333331</ele><time>2026-04-19T07:25:23.001Z</time></trkpt><trkpt lat="43.24367697034119" lon="11.828695761345509"><ele>247.0</ele><time>2026-04-19T07:25:24.001Z</time></trkpt><trkpt lat="43.24347186627496" lon="11.82860439990469"><ele>247.0</ele><time>2026-04-19T07:25:25.001Z</time></trkpt><trkpt lat="43.24326949503905" lon="11.828501378991984"><ele>247.0</ele><time>2026-04-19T07:25:26.001Z</time></trkpt><trkpt lat="43.24306662105433" lon="11.82839313482508"><ele>247.0</ele><time>2026-04-19T07:25:27.001Z</time></trkpt><trkpt lat="43.24286437441389" lon="11.828282686212697"><ele>247.33333333333331</ele><time>2026-04-19T07:25:28.001Z</time></trkpt><trkpt lat="43.24266509132649" lon="11.828156559829278"><ele>247.66666666666669</ele><time>2026-04-19T07:25:29.001Z</time></trkpt><trkpt lat="43.242469004002565" lon="11.828023721935566"><ele>248.0</ele><time>2026-04-19T07:25:30.001Z</time></trkpt><trkpt lat="43.242276223810144" lon="11.827894294745613"><ele>247.66666666666669</ele><time>2026-04-19T07:25:31.001Z</time></trkpt><trkpt lat="43.24208620080525" lon="11.827757804836317"><ele>247.33333333333331</ele><time>2026-04-19T07:25:32.001Z</time></trkpt><trkpt lat="43.241898143394785" lon="11.827624367471456"><ele>247.0</ele><time>2026-04-19T07:25:33.001Z</time></trkpt><trkpt lat="43.24171164630431" lon="11.827496498926832"><ele>247.0</ele><time>2026-04-19T07:25:34.001Z</time></trkpt><trkpt lat="43.24153359402864" lon="11.827367737938033"><ele>247.0</ele><time>2026-04-19T07:25:35.001Z</time></trkpt><trkpt lat="43.24136661374294" lon="11.827240597005725"><ele>247.0</ele><time>2026-04-19T07:25:36.001Z</time></trkpt><trkpt lat="43.2412068323749" lon="11.827130623237249"><ele>247.33333333333331</ele><time>2026-04-19T07:25:37.001Z</time></trkpt><trkpt lat="43.241053841729766" lon="11.827018386652492"><ele>247.66666666666669</ele><time>2026-04-19T07:25:38.001Z</time></trkpt><trkpt lat="43.24091004958844" lon="11.82690769696589"><ele>248.0</ele><time>2026-04-19T07:25:39.001Z</time></trkpt><trkpt lat="43.24077615306403" lon="11.826799852252126"><ele>248.0</ele><time>2026-04-19T07:25:40.001Z</time></trkpt><trkpt lat="43.24065358224231" lon="11.826702319335272"><ele>248.0</ele><time>2026-04-19T07:25:41.001Z</time></trkpt><trkpt lat="43.24053969135266" lon="11.826614745325765"><ele>248.0</ele><time>2026-04-19T07:25:42.001Z</time></trkpt><trkpt lat="43.240446072833464" lon="11.826545176286425"><ele>248.0</ele><time>2026-04-19T07:25:43.001Z</time></trkpt><trkpt lat="43.24038055546299" lon="11.826502622713798"><ele>248.0</ele><time>2026-04-19T07:25:44.001Z</time></trkpt><trkpt lat="43.24031627812749" lon="11.826445107613841"><ele>248.0</ele><time>2026-04-19T07:25:45.001Z</time></trkpt><trkpt lat="43.24024000046951" lon="11.826324570923555"><ele>248.0</ele><time>2026-04-19T07:25:47.001Z</time></trkpt><trkpt lat="43.24020152386476" lon="11.826246291683278"><ele>248.0</ele><time>2026-04-19T07:25:48.001Z</time></trkpt><trkpt lat="43.240200604332806" lon="11.826146569483369"><ele>248.0</ele><time>2026-04-19T07:25:49.001Z</time></trkpt><trkpt lat="43.24012541673363" lon="11.826018137349399"><ele>248.0</ele><time>2026-04-19T07:25:50.001Z</time></trkpt><trkpt lat="43.24005240440908" lon="11.825947258230443"><ele>248.0</ele><time>2026-04-19T07:25:51.001Z</time></trkpt><trkpt lat="43.239972449771" lon="11.825906969314866"><ele>248.0</ele><time>2026-04-19T07:25:52.001Z</time></trkpt><trkpt lat="43.23989949854596" lon="11.825952399613266"><ele>248.0</ele><time>2026-04-19T07:25:53.001Z</time></trkpt><trkpt lat="43.23981800859953" lon="11.82601492738495"><ele>248.0</ele><time>2026-04-19T07:25:54.001Z</time></trkpt><trkpt lat="43.23974044765669" lon="11.826112369788143"><ele>248.25</ele><time>2026-04-19T07:25:55.001Z</time></trkpt><trkpt lat="43.23965228945147" lon="11.826241499939965"><ele>248.5</ele><time>2026-04-19T07:25:56.001Z</time></trkpt><trkpt lat="43.23953414459707" lon="11.826362441660672"><ele>248.75</ele><time>2026-04-19T07:25:57.001Z</time></trkpt><trkpt lat="43.23939262705307" lon="11.826455145614844"><ele>249.0</ele><time>2026-04-19T07:25:58.001Z</time></trkpt><trkpt lat="43.239256001888386" lon="11.826547819077978"><ele>249.0</ele><time>2026-04-19T07:25:59.001Z</time></trkpt><trkpt lat="43.239136765332326" lon="11.826686016896812"><ele>249.0</ele><time>2026-04-19T07:26:00.001Z</time></trkpt><trkpt lat="43.239021805470436" lon="11.82685815964581"><ele>249.0</ele><time>2026-04-19T07:26:01.001Z</time></trkpt><trkpt lat="43.23891780149247" lon="11.827051846848944"><ele>248.66666666666669</ele><time>2026-04-19T07:26:02.001Z</time></trkpt><trkpt lat="43.23882670442193" lon="11.827254939839234"><ele>248.33333333333334</ele><time>2026-04-19T07:26:03.001Z</time></trkpt><trkpt lat="43.23873555195778" lon="11.827461422328513"><ele>248.0</ele><time>2026-04-19T07:26:04.001Z</time></trkpt><trkpt lat="43.23863677009379" lon="11.82766957532788"><ele>248.0</ele><time>2026-04-19T07:26:05.001Z</time></trkpt><trkpt lat="43.23853734651463" lon="11.827870059730028"><ele>248.0</ele><time>2026-04-19T07:26:06.001Z</time></trkpt><trkpt lat="43.23843445721905" lon="11.828064483787438"><ele>248.0</ele><time>2026-04-19T07:26:07.001Z</time></trkpt><trkpt lat="43.2383260146602" lon="11.82825674544337"><ele>248.0</ele><time>2026-04-19T07:26:08.001Z</time></trkpt><trkpt lat="43.23821946281545" lon="11.828452250795022"><ele>248.0</ele><time>2026-04-19T07:26:09.001Z</time></trkpt><trkpt lat="43.23810051504394" lon="11.82863899953034"><ele>248.0</ele><time>2026-04-19T07:26:10.001Z</time></trkpt><trkpt lat="43.237961754599596" lon="11.828811221420564"><ele>248.33333333333334</ele><time>2026-04-19T07:26:11.001Z</time></trkpt><trkpt lat="43.237796726287364" lon="11.828934553165682"><ele>248.66666666666669</ele><time>2026-04-19T07:26:12.001Z</time></trkpt><trkpt lat="43.23765544833468" lon="11.829084630038482"><ele>249.0</ele><time>2026-04-19T07:26:13.001Z</time></trkpt><trkpt lat="43.237519221679555" lon="11.829206366426916"><ele>248.5</ele><time>2026-04-19T07:26:14.001Z</time></trkpt><trkpt lat="43.23740723410253" lon="11.829337091109085"><ele>248.0</ele><time>2026-04-19T07:26:15.001Z</time></trkpt><trkpt lat="43.237319093210154" lon="11.829487434460306"><ele>247.5</ele><time>2026-04-19T07:26:16.001Z</time></trkpt><trkpt lat="43.237264023274186" lon="11.829656179778008"><ele>247.0</ele><time>2026-04-19T07:26:17.001Z</time></trkpt><trkpt lat="43.237233221745626" lon="11.829851410475118"><ele>247.0</ele><time>2026-04-19T07:26:18.001Z</time></trkpt><trkpt lat="43.237215424338146" lon="11.830065059932144"><ele>247.0</ele><time>2026-04-19T07:26:19.001Z</time></trkpt><trkpt lat="43.23718634905566" lon="11.830283211776806"><ele>247.0</ele><time>2026-04-19T07:26:20.001Z</time></trkpt><trkpt lat="43.23715045301303" lon="11.830510535269509"><ele>247.0</ele><time>2026-04-19T07:26:21.001Z</time></trkpt><trkpt lat="43.23711076035468" lon="11.830699865902618"><ele>247.0</ele><time>2026-04-19T07:26:22.001Z</time></trkpt><trkpt lat="43.23705600547225" lon="11.830880543705042"><ele>247.0</ele><time>2026-04-19T07:26:23.001Z</time></trkpt><trkpt lat="43.236976741625575" lon="11.831067139945226"><ele>247.0</ele><time>2026-04-19T07:26:24.001Z</time></trkpt><trkpt lat="43.236883845745396" lon="11.831266742304852"><ele>247.0</ele><time>2026-04-19T07:26:25.001Z</time></trkpt><trkpt lat="43.23678925226894" lon="11.831478613991539"><ele>247.0</ele><time>2026-04-19T07:26:26.001Z</time></trkpt><trkpt lat="43.236692212710196" lon="11.831702660421728"><ele>247.0</ele><time>2026-04-19T07:26:27Z</time></trkpt><trkpt lat="43.23659305826889" lon="11.83192987877303"><ele>246.66666666666666</ele><time>2026-04-19T07:26:28Z</time></trkpt><trkpt lat="43.23649481786264" lon="11.83215831897195"><ele>246.33333333333331</ele><time>2026-04-19T07:26:29Z</time></trkpt><trkpt lat="43.236396984441214" lon="11.83237271738027"><ele>246.0</ele><time>2026-04-19T07:26:30Z</time></trkpt><trkpt lat="43.236300112586726" lon="11.832583890542375"><ele>245.33333333333331</ele><time>2026-04-19T07:26:31Z</time></trkpt><trkpt lat="43.23620271129554" lon="11.832802381995732"><ele>244.66666666666666</ele><time>2026-04-19T07:26:32Z</time></trkpt><trkpt lat="43.23610142129142" lon="11.83302000230987"><ele>244.0</ele><time>2026-04-19T07:26:33Z</time></trkpt><trkpt lat="43.235993370763715" lon="11.833244790984912"><ele>244.33333333333331</ele><time>2026-04-19T07:26:34Z</time></trkpt><trkpt lat="43.23588469563466" lon="11.833473415668127"><ele>244.66666666666669</ele><time>2026-04-19T07:26:35Z</time></trkpt><trkpt lat="43.235772938687006" lon="11.833708709145544"><ele>245.0</ele><time>2026-04-19T07:26:36Z</time></trkpt><trkpt lat="43.235661265803685" lon="11.83394529528893"><ele>244.66666666666669</ele><time>2026-04-19T07:26:37Z</time></trkpt><trkpt lat="43.23554852337722" lon="11.83418131580831"><ele>244.33333333333331</ele><time>2026-04-19T07:26:38Z</time></trkpt><trkpt lat="43.235437629591736" lon="11.834415472660252"><ele>244.0</ele><time>2026-04-19T07:26:39Z</time></trkpt><trkpt lat="43.23533041735892" lon="11.834641743534839"><ele>244.0</ele><time>2026-04-19T07:26:40Z</time></trkpt><trkpt lat="43.23523047136521" lon="11.834857070226239"><ele>244.0</ele><time>2026-04-19T07:26:41Z</time></trkpt><trkpt lat="43.235135112998606" lon="11.835059134512882"><ele>244.0</ele><time>2026-04-19T07:26:42Z</time></trkpt><trkpt lat="43.23503790907618" lon="11.835256838290496"><ele>244.0</ele><time>2026-04-19T07:26:43Z</time></trkpt><trkpt lat="43.23494316713559" lon="11.835446913792731"><ele>244.0</ele><time>2026-04-19T07:26:44Z</time></trkpt><trkpt lat="43.23486017335645" lon="11.835613438329588"><ele>244.0</ele><time>2026-04-19T07:26:45Z</time></trkpt><trkpt lat="43.2347797720854" lon="11.835770801911593"><ele>243.75</ele><time>2026-04-19T07:26:46Z</time></trkpt><trkpt lat="43.234707627448316" lon="11.835919354285814"><ele>243.5</ele><time>2026-04-19T07:26:47Z</time></trkpt><trkpt lat="43.23462825250971" lon="11.836073736172326"><ele>243.25</ele><time>2026-04-19T07:26:48Z</time></trkpt><trkpt lat="43.23454198546148" lon="11.836248172963046"><ele>243.0</ele><time>2026-04-19T07:26:49Z</time></trkpt><trkpt lat="43.23444702033228" lon="11.836430377627062"><ele>244.0</ele><time>2026-04-19T07:26:50Z</time></trkpt><trkpt lat="43.23436055915486" lon="11.836597735537945"><ele>245.0</ele><time>2026-04-19T07:26:51Z</time></trkpt><trkpt lat="43.23426204064299" lon="11.836749665985096"><ele>246.0</ele><time>2026-04-19T07:26:52Z</time></trkpt><trkpt lat="43.234152261307294" lon="11.836893926370335"><ele>246.33333333333331</ele><time>2026-04-19T07:26:53Z</time></trkpt><trkpt lat="43.23401864871664" lon="11.837037658077435"><ele>246.66666666666666</ele><time>2026-04-19T07:26:54Z</time></trkpt><trkpt lat="43.23387315000613" lon="11.837148788743809"><ele>247.0</ele><time>2026-04-19T07:26:55Z</time></trkpt><trkpt lat="43.23372721380779" lon="11.837250883394084"><ele>247.0</ele><time>2026-04-19T07:26:56Z</time></trkpt><trkpt lat="43.23358190637489" lon="11.837365668497483"><ele>247.0</ele><time>2026-04-19T07:26:57Z</time></trkpt><trkpt lat="43.233436667819156" lon="11.837492976018856"><ele>247.0</ele><time>2026-04-19T07:26:58Z</time></trkpt><trkpt lat="43.23331543030001" lon="11.837635560520354"><ele>247.0</ele><time>2026-04-19T07:26:59Z</time></trkpt><trkpt lat="43.23321377141934" lon="11.83780525546292"><ele>247.0</ele><time>2026-04-19T07:27:00Z</time></trkpt><trkpt lat="43.23312548153211" lon="11.838002366154903"><ele>247.0</ele><time>2026-04-19T07:27:01Z</time></trkpt><trkpt lat="43.23304277936309" lon="11.838216634927418"><ele>247.0</ele><time>2026-04-19T07:27:02Z</time></trkpt><trkpt lat="43.23295858475537" lon="11.838432507217975"><ele>247.0</ele><time>2026-04-19T07:27:03Z</time></trkpt><trkpt lat="43.23287023653381" lon="11.838651313029677"><ele>247.0</ele><time>2026-04-19T07:27:04Z</time></trkpt><trkpt lat="43.232779476527604" lon="11.838859038684753"><ele>247.0</ele><time>2026-04-19T07:27:05Z</time></trkpt><trkpt lat="43.232690242889724" lon="11.83903812604786"><ele>247.0</ele><time>2026-04-19T07:27:06Z</time></trkpt><trkpt lat="43.23259581287655" lon="11.839176375515793"><ele>247.0</ele><time>2026-04-19T07:27:07Z</time></trkpt><trkpt lat="43.232499335651895" lon="11.83927874137617"><ele>247.0</ele><time>2026-04-19T07:27:08Z</time></trkpt><trkpt lat="43.23239501226077" lon="11.83935613851888"><ele>246.66666666666666</ele><time>2026-04-19T07:27:09Z</time></trkpt><trkpt lat="43.23226665317508" lon="11.839436682359104"><ele>246.33333333333331</ele><time>2026-04-19T07:27:10Z</time></trkpt><trkpt lat="43.232123288215206" lon="11.8395285778019"><ele>246.0</ele><time>2026-04-19T07:27:11Z</time></trkpt><trkpt lat="43.231966762969975" lon="11.839630140255961"><ele>246.0</ele><time>2026-04-19T07:27:12Z</time></trkpt><trkpt lat="43.23180705266272" lon="11.839735788476734"><ele>246.0</ele><time>2026-04-19T07:27:13.001Z</time></trkpt><trkpt lat="43.231676245649155" lon="11.839830601526963"><ele>246.0</ele><time>2026-04-19T07:27:14.001Z</time></trkpt><trkpt lat="43.23156805720299" lon="11.839903179453225"><ele>246.0</ele><time>2026-04-19T07:27:15.001Z</time></trkpt><trkpt lat="43.23146370495455" lon="11.839964756517425"><ele>246.75</ele><time>2026-04-19T07:27:16.001Z</time></trkpt><trkpt lat="43.231355932439826" lon="11.83999754069139"><ele>247.5</ele><time>2026-04-19T07:27:17.001Z</time></trkpt><trkpt lat="43.23124305093836" lon="11.839993660234686"><ele>248.25</ele><time>2026-04-19T07:27:18.001Z</time></trkpt><trkpt lat="43.231114882044295" lon="11.839952874317158"><ele>249.0</ele><time>2026-04-19T07:27:19.001Z</time></trkpt><trkpt lat="43.23096915806389" lon="11.839871231393994"><ele>249.0</ele><time>2026-04-19T07:27:20.001Z</time></trkpt><trkpt lat="43.230818490893604" lon="11.839753558249306"><ele>249.0</ele><time>2026-04-19T07:27:21.001Z</time></trkpt><trkpt lat="43.23066043053954" lon="11.839626167652707"><ele>249.0</ele><time>2026-04-19T07:27:22.001Z</time></trkpt><trkpt lat="43.23050246624881" lon="11.839512756314623"><ele>249.33333333333331</ele><time>2026-04-19T07:27:23.001Z</time></trkpt><trkpt lat="43.23034573777373" lon="11.839403119666636"><ele>249.66666666666666</ele><time>2026-04-19T07:27:24.001Z</time></trkpt><trkpt lat="43.23019072211675" lon="11.839292545835862"><ele>250.0</ele><time>2026-04-19T07:27:25.001Z</time></trkpt><trkpt lat="43.230036329662795" lon="11.839179332302876"><ele>249.66666666666666</ele><time>2026-04-19T07:27:26.001Z</time></trkpt><trkpt lat="43.229882469313644" lon="11.839068394739629"><ele>249.33333333333331</ele><time>2026-04-19T07:27:27.001Z</time></trkpt><trkpt lat="43.229733714228665" lon="11.838963771854937"><ele>249.0</ele><time>2026-04-19T07:27:28.001Z</time></trkpt><trkpt lat="43.22959394443077" lon="11.838865305029426"><ele>249.0</ele><time>2026-04-19T07:27:29.001Z</time></trkpt><trkpt lat="43.22945552422282" lon="11.83876198221358"><ele>249.0</ele><time>2026-04-19T07:27:30.001Z</time></trkpt><trkpt lat="43.22931859725546" lon="11.838646368246442"><ele>249.0</ele><time>2026-04-19T07:27:31.001Z</time></trkpt><trkpt lat="43.2291846328697" lon="11.838504017580894"><ele>248.66666666666669</ele><time>2026-04-19T07:27:32.001Z</time></trkpt><trkpt lat="43.22906771608849" lon="11.838309870858842"><ele>248.33333333333334</ele><time>2026-04-19T07:27:33.001Z</time></trkpt><trkpt lat="43.228928212632134" lon="11.83812830827521"><ele>248.0</ele><time>2026-04-19T07:27:34.001Z</time></trkpt><trkpt lat="43.22879794313301" lon="11.837929006880524"><ele>248.0</ele><time>2026-04-19T07:27:35.001Z</time></trkpt><trkpt lat="43.22865950992942" lon="11.837730972349593"><ele>248.0</ele><time>2026-04-19T07:27:36.001Z</time></trkpt><trkpt lat="43.22852362734895" lon="11.837531060247489"><ele>248.0</ele><time>2026-04-19T07:27:37.001Z</time></trkpt><trkpt lat="43.22839183249162" lon="11.837334236489143"><ele>248.0</ele><time>2026-04-19T07:27:38.001Z</time></trkpt><trkpt lat="43.228266196626706" lon="11.837146252065622"><ele>248.0</ele><time>2026-04-19T07:27:39.001Z</time></trkpt><trkpt lat="43.228152997219986" lon="11.836980160501104"><ele>248.0</ele><time>2026-04-19T07:27:40.001Z</time></trkpt><trkpt lat="43.22805588911904" lon="11.836841111108445"><ele>248.25</ele><time>2026-04-19T07:27:41.001Z</time></trkpt><trkpt lat="43.22796275790504" lon="11.836727990725304"><ele>248.5</ele><time>2026-04-19T07:27:42.001Z</time></trkpt><trkpt lat="43.227859890195674" lon="11.836654431336703"><ele>248.75</ele><time>2026-04-19T07:27:43.001Z</time></trkpt><trkpt lat="43.22774666030564" lon="11.836622637010766"><ele>249.0</ele><time>2026-04-19T07:27:44.001Z</time></trkpt><trkpt lat="43.22762499793123" lon="11.83663601765984"><ele>249.0</ele><time>2026-04-19T07:27:45.001Z</time></trkpt><trkpt lat="43.22750428283984" lon="11.836698891162603"><ele>249.0</ele><time>2026-04-19T07:27:46.001Z</time></trkpt><trkpt lat="43.22738683028822" lon="11.836804547651905"><ele>249.0</ele><time>2026-04-19T07:27:47.001Z</time></trkpt><trkpt lat="43.22727538070294" lon="11.836936798604007"><ele>249.0</ele><time>2026-04-19T07:27:48.001Z</time></trkpt><trkpt lat="43.22716168858909" lon="11.837074302747494"><ele>249.5</ele><time>2026-04-19T07:27:49.001Z</time></trkpt><trkpt lat="43.22705042303955" lon="11.837191912271493"><ele>250.0</ele><time>2026-04-19T07:27:50.001Z</time></trkpt><trkpt lat="43.226942332205645" lon="11.83728289224244"><ele>250.5</ele><time>2026-04-19T07:27:51.001Z</time></trkpt><trkpt lat="43.22683283811683" lon="11.837347626015926"><ele>251.0</ele><time>2026-04-19T07:27:52.001Z</time></trkpt><trkpt lat="43.22671148083943" lon="11.837364067358804"><ele>251.0</ele><time>2026-04-19T07:27:53.001Z</time></trkpt><trkpt lat="43.22658908299045" lon="11.837296444716761"><ele>251.0</ele><time>2026-04-19T07:27:54.001Z</time></trkpt><trkpt lat="43.22647806908271" lon="11.837208485054456"><ele>251.0</ele><time>2026-04-19T07:27:55.001Z</time></trkpt><trkpt lat="43.22638548512443" lon="11.837073325969628"><ele>251.0</ele><time>2026-04-19T07:27:56.001Z</time></trkpt><trkpt lat="43.22626546042782" lon="11.836927654733477"><ele>249.66666666666669</ele><time>2026-04-19T07:27:57.001Z</time></trkpt><trkpt lat="43.2261547146938" lon="11.836747727043564"><ele>248.33333333333331</ele><time>2026-04-19T07:27:58.001Z</time></trkpt><trkpt lat="43.22603582521488" lon="11.836571696464556"><ele>247.0</ele><time>2026-04-19T07:27:59.001Z</time></trkpt><trkpt lat="43.22590733462203" lon="11.836401317176934"><ele>247.0</ele><time>2026-04-19T07:28:00.001Z</time></trkpt><trkpt lat="43.22576812062773" lon="11.83624015548385"><ele>247.0</ele><time>2026-04-19T07:28:01.001Z</time></trkpt><trkpt lat="43.225612980360566" lon="11.836088048434386"><ele>247.0</ele><time>2026-04-19T07:28:02.001Z</time></trkpt><trkpt lat="43.2254444587937" lon="11.835953403268155"><ele>247.33333333333331</ele><time>2026-04-19T07:28:03.001Z</time></trkpt><trkpt lat="43.22527030178414" lon="11.835837455112898"><ele>247.66666666666669</ele><time>2026-04-19T07:28:04.001Z</time></trkpt><trkpt lat="43.225104681090095" lon="11.835735115996782"><ele>248.0</ele><time>2026-04-19T07:28:05.001Z</time></trkpt><trkpt lat="43.224949311323044" lon="11.835633998079578"><ele>248.33333333333334</ele><time>2026-04-19T07:28:06.001Z</time></trkpt><trkpt lat="43.224793067257885" lon="11.835528864011925"><ele>248.66666666666669</ele><time>2026-04-19T07:28:07.001Z</time></trkpt><trkpt lat="43.22463445020509" lon="11.835419306416666"><ele>249.0</ele><time>2026-04-19T07:28:08.001Z</time></trkpt><trkpt lat="43.22447618812714" lon="11.835314203743605"><ele>249.0</ele><time>2026-04-19T07:28:09.001Z</time></trkpt><trkpt lat="43.22431500758209" lon="11.835232388042808"><ele>249.0</ele><time>2026-04-19T07:28:10.001Z</time></trkpt><trkpt lat="43.22414931903024" lon="11.835179541576974"><ele>249.0</ele><time>2026-04-19T07:28:11.001Z</time></trkpt><trkpt lat="43.22397998663329" lon="11.835155380984663"><ele>249.33333333333331</ele><time>2026-04-19T07:28:12.001Z</time></trkpt><trkpt lat="43.22381172076546" lon="11.835161241796367"><ele>249.66666666666666</ele><time>2026-04-19T07:28:13.001Z</time></trkpt><trkpt lat="43.223645060053606" lon="11.835197167932712"><ele>250.0</ele><time>2026-04-19T07:28:14.001Z</time></trkpt><trkpt lat="43.22347492939962" lon="11.835261091303913"><ele>250.0</ele><time>2026-04-19T07:28:15.001Z</time></trkpt><trkpt lat="43.223302662024324" lon="11.835339644078543"><ele>250.0</ele><time>2026-04-19T07:28:16.001Z</time></trkpt><trkpt lat="43.22312579274661" lon="11.835431863023834"><ele>250.0</ele><time>2026-04-19T07:28:17.001Z</time></trkpt><trkpt lat="43.22294283555627" lon="11.835523941714232"><ele>250.33333333333331</ele><time>2026-04-19T07:28:18.001Z</time></trkpt><trkpt lat="43.22276201279843" lon="11.835618308114265"><ele>250.66666666666669</ele><time>2026-04-19T07:28:19.001Z</time></trkpt><trkpt lat="43.222590880275604" lon="11.835713132130836"><ele>251.0</ele><time>2026-04-19T07:28:20.001Z</time></trkpt><trkpt lat="43.22242810972829" lon="11.835770968777906"><ele>251.0</ele><time>2026-04-19T07:28:21.001Z</time></trkpt><trkpt lat="43.22228548163482" lon="11.835857646972965"><ele>251.0</ele><time>2026-04-19T07:28:22.001Z</time></trkpt><trkpt lat="43.22214528290473" lon="11.83590836828807"><ele>251.0</ele><time>2026-04-19T07:28:23.001Z</time></trkpt><trkpt lat="43.22200976216985" lon="11.835943839500642"><ele>251.0</ele><time>2026-04-19T07:28:24.001Z</time></trkpt><trkpt lat="43.22188295484335" lon="11.835944205565951"><ele>251.0</ele><time>2026-04-19T07:28:25.001Z</time></trkpt><trkpt lat="43.22176997950323" lon="11.835900458987837"><ele>251.00000000000003</ele><time>2026-04-19T07:28:26.001Z</time></trkpt><trkpt lat="43.22167849091765" lon="11.83581720774861"><ele>251.00000000000003</ele><time>2026-04-19T07:28:27.001Z</time></trkpt><trkpt lat="43.221622041326754" lon="11.835684175992045"><ele>251.0</ele><time>2026-04-19T07:28:28.001Z</time></trkpt><trkpt lat="43.22158628901476" lon="11.835548947137971"><ele>251.0</ele><time>2026-04-19T07:28:29.001Z</time></trkpt><trkpt lat="43.221545765858" lon="11.835391892724138"><ele>251.0</ele><time>2026-04-19T07:28:30.001Z</time></trkpt><trkpt lat="43.22149345008883" lon="11.835261361826731"><ele>251.00000000000003</ele><time>2026-04-19T07:28:31.001Z</time></trkpt><trkpt lat="43.22145372063999" lon="11.835159507870767"><ele>251.00000000000003</ele><time>2026-04-19T07:28:32.001Z</time></trkpt><trkpt lat="43.221388501995015" lon="11.835093714276763"><ele>251.0</ele><time>2026-04-19T07:28:33Z</time></trkpt><trkpt lat="43.22129596171854" lon="11.83506393602805"><ele>251.0</ele><time>2026-04-19T07:28:34Z</time></trkpt><trkpt lat="43.221174848569376" lon="11.835075841531445"><ele>250.0</ele><time>2026-04-19T07:28:35Z</time></trkpt><trkpt lat="43.22102227906593" lon="11.835127504956406"><ele>249.0</ele><time>2026-04-19T07:28:36Z</time></trkpt><trkpt lat="43.22084008300669" lon="11.83518866246972"><ele>248.0</ele><time>2026-04-19T07:28:37Z</time></trkpt><trkpt lat="43.22064806650761" lon="11.835237694488995"><ele>248.0</ele><time>2026-04-19T07:28:38Z</time></trkpt><trkpt lat="43.220452978855874" lon="11.835293871926817"><ele>248.0</ele><time>2026-04-19T07:28:39Z</time></trkpt><trkpt lat="43.22025622724633" lon="11.835347853633403"><ele>248.0</ele><time>2026-04-19T07:28:40Z</time></trkpt><trkpt lat="43.22006135348408" lon="11.835403955194819"><ele>248.0</ele><time>2026-04-19T07:28:41Z</time></trkpt><trkpt lat="43.21987516873157" lon="11.835466544475713"><ele>248.0</ele><time>2026-04-19T07:28:42Z</time></trkpt><trkpt lat="43.21968655983452" lon="11.835561961929912"><ele>248.0</ele><time>2026-04-19T07:28:43Z</time></trkpt><trkpt lat="43.219502773605015" lon="11.835686927055832"><ele>247.66666666666669</ele><time>2026-04-19T07:28:44Z</time></trkpt><trkpt lat="43.219322543943434" lon="11.835842318673318"><ele>247.33333333333331</ele><time>2026-04-19T07:28:45Z</time></trkpt><trkpt lat="43.21913955403335" lon="11.83600385178054"><ele>247.0</ele><time>2026-04-19T07:28:46Z</time></trkpt><trkpt lat="43.21895186654182" lon="11.836157086462231"><ele>246.33333333333331</ele><time>2026-04-19T07:28:47Z</time></trkpt><trkpt lat="43.21876164574848" lon="11.836310665985946"><ele>245.66666666666669</ele><time>2026-04-19T07:28:48Z</time></trkpt><trkpt lat="43.21856722705724" lon="11.836463389871131"><ele>245.0</ele><time>2026-04-19T07:28:49Z</time></trkpt><trkpt lat="43.21837218581126" lon="11.836619595813612"><ele>245.0</ele><time>2026-04-19T07:28:50Z</time></trkpt><trkpt lat="43.21817498704157" lon="11.836772680166817"><ele>245.0</ele><time>2026-04-19T07:28:51Z</time></trkpt><trkpt lat="43.21797638481032" lon="11.836927722746557"><ele>245.66666666666669</ele><time>2026-04-19T07:28:52Z</time></trkpt><trkpt lat="43.21777854150586" lon="11.83708372230055"><ele>246.33333333333331</ele><time>2026-04-19T07:28:53Z</time></trkpt><trkpt lat="43.217598875" lon="11.837228240733829"><ele>247.0</ele><time>2026-04-19T07:28:54Z</time></trkpt><trkpt lat="43.21742553361828" lon="11.83736522407665"><ele>247.0</ele><time>2026-04-19T07:28:55Z</time></trkpt><trkpt lat="43.21726283994741" lon="11.837490834207038"><ele>247.0</ele><time>2026-04-19T07:28:56Z</time></trkpt><trkpt lat="43.217108331238194" lon="11.837614247837271"><ele>247.0</ele><time>2026-04-19T07:28:57Z</time></trkpt><trkpt lat="43.216954912981" lon="11.837745351430618"><ele>247.0</ele><time>2026-04-19T07:28:58Z</time></trkpt><trkpt lat="43.216800396823366" lon="11.837881644064574"><ele>247.0</ele><time>2026-04-19T07:28:59Z</time></trkpt><trkpt lat="43.21664738986068" lon="11.838025360096614"><ele>247.0</ele><time>2026-04-19T07:29:00Z</time></trkpt><trkpt lat="43.216494189425845" lon="11.838171253432888"><ele>247.33333333333331</ele><time>2026-04-19T07:29:01Z</time></trkpt><trkpt lat="43.21633644569974" lon="11.838320474556017"><ele>247.66666666666669</ele><time>2026-04-19T07:29:02Z</time></trkpt><trkpt lat="43.216185969302636" lon="11.838462027087276"><ele>248.0</ele><time>2026-04-19T07:29:03Z</time></trkpt><trkpt lat="43.21603457116948" lon="11.838609365424754"><ele>248.0</ele><time>2026-04-19T07:29:04Z</time></trkpt><trkpt lat="43.21587933577541" lon="11.83875353160245"><ele>248.0</ele><time>2026-04-19T07:29:05Z</time></trkpt><trkpt lat="43.2157241957559" lon="11.838904109131667"><ele>248.0</ele><time>2026-04-19T07:29:06Z</time></trkpt><trkpt lat="43.21556685708798" lon="11.83905508587404"><ele>248.0</ele><time>2026-04-19T07:29:07Z</time></trkpt><trkpt lat="43.21540645900829" lon="11.839204566701946"><ele>248.0</ele><time>2026-04-19T07:29:08Z</time></trkpt><trkpt lat="43.215243324711054" lon="11.839359045187708"><ele>248.0</ele><time>2026-04-19T07:29:09Z</time></trkpt><trkpt lat="43.21507601433905" lon="11.839512689916113"><ele>248.0</ele><time>2026-04-19T07:29:10Z</time></trkpt><trkpt lat="43.214906403181864" lon="11.839668846674389"><ele>248.0</ele><time>2026-04-19T07:29:11Z</time></trkpt><trkpt lat="43.21473568297294" lon="11.839825140619824"><ele>248.0</ele><time>2026-04-19T07:29:12Z</time></trkpt><trkpt lat="43.214564963570425" lon="11.83997801575442"><ele>248.0</ele><time>2026-04-19T07:29:13Z</time></trkpt><trkpt lat="43.21440320143706" lon="11.84012966721492"><ele>248.0</ele><time>2026-04-19T07:29:14Z</time></trkpt><trkpt lat="43.214243180382624" lon="11.840278313409208"><ele>248.0</ele><time>2026-04-19T07:29:15Z</time></trkpt><trkpt lat="43.21408904610167" lon="11.840422623499373"><ele>248.33333333333334</ele><time>2026-04-19T07:29:16Z</time></trkpt><trkpt lat="43.213940716139476" lon="11.840551374065937"><ele>248.66666666666669</ele><time>2026-04-19T07:29:17Z</time></trkpt><trkpt lat="43.21378412019925" lon="11.840658297655"><ele>249.0</ele><time>2026-04-19T07:29:18Z</time></trkpt><trkpt lat="43.21360917051181" lon="11.840743236945944"><ele>249.0</ele><time>2026-04-19T07:29:19Z</time></trkpt><trkpt lat="43.213419357623955" lon="11.840802784812354"><ele>249.0</ele><time>2026-04-19T07:29:20Z</time></trkpt><trkpt lat="43.21322399128588" lon="11.840839613106322"><ele>249.0</ele><time>2026-04-19T07:29:21Z</time></trkpt><trkpt lat="43.21302839860522" lon="11.840876297448764"><ele>249.0</ele><time>2026-04-19T07:29:22Z</time></trkpt><trkpt lat="43.21284220233224" lon="11.840918484258513"><ele>249.0</ele><time>2026-04-19T07:29:23Z</time></trkpt><trkpt lat="43.212655316433484" lon="11.840959968579108"><ele>249.0</ele><time>2026-04-19T07:29:24Z</time></trkpt><trkpt lat="43.21246671782912" lon="11.841002055765783"><ele>249.0</ele><time>2026-04-19T07:29:25Z</time></trkpt><trkpt lat="43.212281570692774" lon="11.841043167199087"><ele>249.0</ele><time>2026-04-19T07:29:26Z</time></trkpt><trkpt lat="43.21209853858976" lon="11.841082728802915"><ele>249.0</ele><time>2026-04-19T07:29:27Z</time></trkpt><trkpt lat="43.21191663428881" lon="11.841126290493905"><ele>249.0</ele><time>2026-04-19T07:29:28Z</time></trkpt><trkpt lat="43.21173382607692" lon="11.841181671422696"><ele>249.0</ele><time>2026-04-19T07:29:29Z</time></trkpt><trkpt lat="43.21154131806798" lon="11.841255140098792"><ele>249.0</ele><time>2026-04-19T07:29:30Z</time></trkpt><trkpt lat="43.21134398591025" lon="11.841351272443141"><ele>248.33333333333331</ele><time>2026-04-19T07:29:31Z</time></trkpt><trkpt lat="43.21114559325032" lon="11.841457304315522"><ele>247.66666666666666</ele><time>2026-04-19T07:29:32Z</time></trkpt><trkpt lat="43.210943332351434" lon="11.841562201233941"><ele>247.0</ele><time>2026-04-19T07:29:33Z</time></trkpt><trkpt lat="43.21075220639734" lon="11.84166325138901"><ele>247.0</ele><time>2026-04-19T07:29:34Z</time></trkpt><trkpt lat="43.21057580718744" lon="11.841766910941912"><ele>247.0</ele><time>2026-04-19T07:29:35Z</time></trkpt><trkpt lat="43.21040119978179" lon="11.841880732340734"><ele>247.0</ele><time>2026-04-19T07:29:36Z</time></trkpt><trkpt lat="43.21022680245642" lon="11.84200867513472"><ele>247.33333333333331</ele><time>2026-04-19T07:29:37Z</time></trkpt><trkpt lat="43.210045876123" lon="11.842148985625524"><ele>247.66666666666669</ele><time>2026-04-19T07:29:38Z</time></trkpt><trkpt lat="43.20986286627601" lon="11.842289670345444"><ele>248.0</ele><time>2026-04-19T07:29:39Z</time></trkpt><trkpt lat="43.20967633138132" lon="11.842431638873835"><ele>248.0</ele><time>2026-04-19T07:29:40Z</time></trkpt><trkpt lat="43.20948749198637" lon="11.842573109471429"><ele>248.0</ele><time>2026-04-19T07:29:41Z</time></trkpt><trkpt lat="43.20929758094699" lon="11.842717643208491"><ele>248.0</ele><time>2026-04-19T07:29:42.001Z</time></trkpt><trkpt lat="43.20910666586076" lon="11.842861316195247"><ele>248.0</ele><time>2026-04-19T07:29:43.001Z</time></trkpt><trkpt lat="43.20891618084382" lon="11.843003674847424"><ele>248.0</ele><time>2026-04-19T07:29:44.001Z</time></trkpt><trkpt lat="43.208723116871006" lon="11.843146712725535"><ele>248.0</ele><time>2026-04-19T07:29:45.001Z</time></trkpt><trkpt lat="43.208531174060646" lon="11.843290976980676"><ele>248.0</ele><time>2026-04-19T07:29:46.001Z</time></trkpt><trkpt lat="43.20833815056852" lon="11.84343659453756"><ele>248.0</ele><time>2026-04-19T07:29:47.001Z</time></trkpt><trkpt lat="43.20814504171316" lon="11.843585088381792"><ele>248.0</ele><time>2026-04-19T07:29:48.001Z</time></trkpt><trkpt lat="43.20795605905386" lon="11.843732235558205"><ele>248.0</ele><time>2026-04-19T07:29:49.001Z</time></trkpt><trkpt lat="43.207767448088426" lon="11.84388672046122"><ele>248.0</ele><time>2026-04-19T07:29:50.001Z</time></trkpt><trkpt lat="43.20758477739826" lon="11.844051988226008"><ele>248.0</ele><time>2026-04-19T07:29:51.001Z</time></trkpt><trkpt lat="43.207410016697494" lon="11.844236023186767"><ele>248.0</ele><time>2026-04-19T07:29:52.001Z</time></trkpt><trkpt lat="43.20724123061704" lon="11.844426660400387"><ele>248.0</ele><time>2026-04-19T07:29:53.001Z</time></trkpt><trkpt lat="43.207075182597045" lon="11.844607692313572"><ele>248.0</ele><time>2026-04-19T07:29:54.001Z</time></trkpt><trkpt lat="43.206916982311355" lon="11.844785379970867"><ele>248.0</ele><time>2026-04-19T07:29:55.001Z</time></trkpt><trkpt lat="43.20676600538877" lon="11.844980849487651"><ele>248.0</ele><time>2026-04-19T07:29:56.001Z</time></trkpt><trkpt lat="43.20662580303799" lon="11.845196869609792"><ele>248.0</ele><time>2026-04-19T07:29:57.001Z</time></trkpt><trkpt lat="43.20648607281355" lon="11.845421390548287"><ele>247.66666666666669</ele><time>2026-04-19T07:29:58.001Z</time></trkpt><trkpt lat="43.20634258294774" lon="11.845643635375579"><ele>247.33333333333331</ele><time>2026-04-19T07:29:59.001Z</time></trkpt><trkpt lat="43.20620082557792" lon="11.845860204563637"><ele>247.0</ele><time>2026-04-19T07:30:00.001Z</time></trkpt><trkpt lat="43.206058157323874" lon="11.846079751067546"><ele>247.0</ele><time>2026-04-19T07:30:01.001Z</time></trkpt><trkpt lat="43.20591769212647" lon="11.846295145425369"><ele>247.0</ele><time>2026-04-19T07:30:02.001Z</time></trkpt><trkpt lat="43.205779097676334" lon="11.846503801511176"><ele>247.0</ele><time>2026-04-19T07:30:03.001Z</time></trkpt><trkpt lat="43.20564186011418" lon="11.8467084892663"><ele>248.33333333333331</ele><time>2026-04-19T07:30:04.001Z</time></trkpt><trkpt lat="43.20551204301133" lon="11.84690499584022"><ele>249.66666666666669</ele><time>2026-04-19T07:30:05.001Z</time></trkpt><trkpt lat="43.20538919206143" lon="11.847091543289723"><ele>251.0</ele><time>2026-04-19T07:30:06.001Z</time></trkpt><trkpt lat="43.205278362827556" lon="11.84725925449676"><ele>251.0</ele><time>2026-04-19T07:30:07.001Z</time></trkpt><trkpt lat="43.20517216730793" lon="11.84741590044701"><ele>251.0</ele><time>2026-04-19T07:30:08.001Z</time></trkpt><trkpt lat="43.20506710844717" lon="11.84755883135476"><ele>251.0</ele><time>2026-04-19T07:30:09.001Z</time></trkpt><trkpt lat="43.20494543798292" lon="11.847690294825725"><ele>250.33333333333334</ele><time>2026-04-19T07:30:10.001Z</time></trkpt><trkpt lat="43.204807862150176" lon="11.847793893804225"><ele>249.66666666666669</ele><time>2026-04-19T07:30:11.001Z</time></trkpt><trkpt lat="43.20465155265592" lon="11.847873344958593"><ele>249.0</ele><time>2026-04-19T07:30:12.001Z</time></trkpt><trkpt lat="43.20447170147059" lon="11.847935480320123"><ele>249.0</ele><time>2026-04-19T07:30:13.001Z</time></trkpt><trkpt lat="43.20427544654339" lon="11.84798713538675"><ele>249.0</ele><time>2026-04-19T07:30:14.001Z</time></trkpt><trkpt lat="43.20406924771064" lon="11.848032662787075"><ele>249.0</ele><time>2026-04-19T07:30:15.001Z</time></trkpt><trkpt lat="43.20386250599731" lon="11.848089008544871"><ele>248.66666666666669</ele><time>2026-04-19T07:30:16.001Z</time></trkpt><trkpt lat="43.20365817610526" lon="11.848148006562074"><ele>248.33333333333334</ele><time>2026-04-19T07:30:17.001Z</time></trkpt><trkpt lat="43.203452463320374" lon="11.84820509170183"><ele>248.0</ele><time>2026-04-19T07:30:18.001Z</time></trkpt><trkpt lat="43.20324872332483" lon="11.848261169423575"><ele>248.33333333333334</ele><time>2026-04-19T07:30:19.001Z</time></trkpt><trkpt lat="43.20304412104927" lon="11.848316613315909"><ele>248.66666666666669</ele><time>2026-04-19T07:30:20.001Z</time></trkpt><trkpt lat="43.20284343518514" lon="11.848374250164833"><ele>249.0</ele><time>2026-04-19T07:30:21.001Z</time></trkpt><trkpt lat="43.202648212551516" lon="11.848430737502735"><ele>249.0</ele><time>2026-04-19T07:30:22.001Z</time></trkpt><trkpt lat="43.20247171688988" lon="11.848503316792012"><ele>249.0</ele><time>2026-04-19T07:30:23.001Z</time></trkpt><trkpt lat="43.20231134177248" lon="11.848613545021346"><ele>249.0</ele><time>2026-04-19T07:30:24.001Z</time></trkpt><trkpt lat="43.20216043394118" lon="11.848773978826088"><ele>249.0</ele><time>2026-04-19T07:30:25.001Z</time></trkpt><trkpt lat="43.20201766880677" lon="11.848970048398607"><ele>249.0</ele><time>2026-04-19T07:30:26.001Z</time></trkpt><trkpt lat="43.20187711117465" lon="11.8491828794643"><ele>249.0</ele><time>2026-04-19T07:30:27.001Z</time></trkpt><trkpt lat="43.201744829014636" lon="11.849383663306408"><ele>249.0</ele><time>2026-04-19T07:30:28.001Z</time></trkpt><trkpt lat="43.20161771070729" lon="11.84956135040774"><ele>249.0</ele><time>2026-04-19T07:30:29.001Z</time></trkpt><trkpt lat="43.20148686573473" lon="11.849715445830675"><ele>249.0</ele><time>2026-04-19T07:30:30.001Z</time></trkpt><trkpt lat="43.20133316918764" lon="11.849851148792357"><ele>248.33333333333331</ele><time>2026-04-19T07:30:31.001Z</time></trkpt><trkpt lat="43.20115511055183" lon="11.849954761088934"><ele>247.66666666666666</ele><time>2026-04-19T07:30:32.001Z</time></trkpt><trkpt lat="43.20096491301299" lon="11.850021976804456"><ele>247.0</ele><time>2026-04-19T07:30:33.001Z</time></trkpt><trkpt lat="43.20077239011141" lon="11.850077290134351"><ele>247.66666666666666</ele><time>2026-04-19T07:30:34.001Z</time></trkpt><trkpt lat="43.20058238816399" lon="11.850137944035414"><ele>248.33333333333331</ele><time>2026-04-19T07:30:35.001Z</time></trkpt><trkpt lat="43.200393829212196" lon="11.85020671214856"><ele>249.0</ele><time>2026-04-19T07:30:36.001Z</time></trkpt><trkpt lat="43.20020225132585" lon="11.850279746256426"><ele>249.0</ele><time>2026-04-19T07:30:37.001Z</time></trkpt><trkpt lat="43.200007474267785" lon="11.850350082829301"><ele>249.0</ele><time>2026-04-19T07:30:38.001Z</time></trkpt><trkpt lat="43.199805727133906" lon="11.850423604346995"><ele>249.0</ele><time>2026-04-19T07:30:39Z</time></trkpt><trkpt lat="43.199600549485226" lon="11.850498623237305"><ele>249.0</ele><time>2026-04-19T07:30:40Z</time></trkpt><trkpt lat="43.19939150525047" lon="11.85057216467869"><ele>249.0</ele><time>2026-04-19T07:30:41Z</time></trkpt><trkpt lat="43.19917712563127" lon="11.850647992363577"><ele>249.0</ele><time>2026-04-19T07:30:42Z</time></trkpt><trkpt lat="43.198962488950436" lon="11.850727793820209"><ele>249.0</ele><time>2026-04-19T07:30:43Z</time></trkpt><trkpt lat="43.19874602774789" lon="11.850803774593823"><ele>249.0</ele><time>2026-04-19T07:30:44Z</time></trkpt><trkpt lat="43.198534514457386" lon="11.85088822998997"><ele>249.0</ele><time>2026-04-19T07:30:45Z</time></trkpt><trkpt lat="43.19831700700607" lon="11.850958279676757"><ele>249.0</ele><time>2026-04-19T07:30:46Z</time></trkpt><trkpt lat="43.198089094741995" lon="11.851006069334057"><ele>249.0</ele><time>2026-04-19T07:30:47Z</time></trkpt><trkpt lat="43.1978920528097" lon="11.851113401678123"><ele>249.0</ele><time>2026-04-19T07:30:48Z</time></trkpt><trkpt lat="43.197681018565184" lon="11.851189219278142"><ele>249.0</ele><time>2026-04-19T07:30:49Z</time></trkpt><trkpt lat="43.19747280323363" lon="11.85126716082349"><ele>249.0</ele><time>2026-04-19T07:30:50Z</time></trkpt><trkpt lat="43.1972648293651" lon="11.85134539051829"><ele>249.0</ele><time>2026-04-19T07:30:51Z</time></trkpt><trkpt lat="43.19705952602153" lon="11.851422929417136"><ele>249.0</ele><time>2026-04-19T07:30:52Z</time></trkpt><trkpt lat="43.196856177455345" lon="11.8514995373268"><ele>249.0</ele><time>2026-04-19T07:30:53Z</time></trkpt><trkpt lat="43.19665420590904" lon="11.851570423017794"><ele>249.0</ele><time>2026-04-19T07:30:54Z</time></trkpt><trkpt lat="43.19645355337947" lon="11.851641607243735"><ele>248.33333333333331</ele><time>2026-04-19T07:30:55Z</time></trkpt><trkpt lat="43.196251129219256" lon="11.851718955208606"><ele>247.66666666666666</ele><time>2026-04-19T07:30:56Z</time></trkpt><trkpt lat="43.19605064179522" lon="11.851796371781123"><ele>247.0</ele><time>2026-04-19T07:30:57Z</time></trkpt><trkpt lat="43.19585257742062" lon="11.851876250887383"><ele>248.0</ele><time>2026-04-19T07:30:58Z</time></trkpt><trkpt lat="43.195655620482" lon="11.851960235727626"><ele>249.0</ele><time>2026-04-19T07:30:59Z</time></trkpt><trkpt lat="43.19545491536092" lon="11.852055703648976"><ele>250.0</ele><time>2026-04-19T07:31:00Z</time></trkpt><trkpt lat="43.195249027901326" lon="11.852154421791184"><ele>250.0</ele><time>2026-04-19T07:31:01Z</time></trkpt><trkpt lat="43.19503697208924" lon="11.852257193187347"><ele>250.0</ele><time>2026-04-19T07:31:02Z</time></trkpt><trkpt lat="43.194828546255515" lon="11.852358651901765"><ele>250.0</ele><time>2026-04-19T07:31:03Z</time></trkpt><trkpt lat="43.194625639222075" lon="11.852459351503608"><ele>249.66666666666666</ele><time>2026-04-19T07:31:04Z</time></trkpt><trkpt lat="43.194427724152945" lon="11.85255580356306"><ele>249.33333333333331</ele><time>2026-04-19T07:31:05Z</time></trkpt><trkpt lat="43.19424468323225" lon="11.852646698223428"><ele>249.0</ele><time>2026-04-19T07:31:06Z</time></trkpt><trkpt lat="43.19406864207058" lon="11.852732048384398"><ele>249.66666666666669</ele><time>2026-04-19T07:31:07Z</time></trkpt><trkpt lat="43.19390347007711" lon="11.852811393666986"><ele>250.33333333333334</ele><time>2026-04-19T07:31:08Z</time></trkpt><trkpt lat="43.1937478042929" lon="11.852886468571715"><ele>251.0</ele><time>2026-04-19T07:31:09Z</time></trkpt><trkpt lat="43.193604677875946" lon="11.85295826044499"><ele>251.0</ele><time>2026-04-19T07:31:10Z</time></trkpt><trkpt lat="43.19347372930579" lon="11.853040661627466"><ele>251.0</ele><time>2026-04-19T07:31:11Z</time></trkpt><trkpt lat="43.193342987850485" lon="11.85315645171546"><ele>251.0</ele><time>2026-04-19T07:31:12Z</time></trkpt><trkpt lat="43.19320920948791" lon="11.853312405660068"><ele>251.33333333333334</ele><time>2026-04-19T07:31:13Z</time></trkpt><trkpt lat="43.193071878293175" lon="11.853502110454434"><ele>251.66666666666669</ele><time>2026-04-19T07:31:14Z</time></trkpt><trkpt lat="43.192928790490804" lon="11.853670749901609"><ele>252.0</ele><time>2026-04-19T07:31:15Z</time></trkpt><trkpt lat="43.192780833887134" lon="11.853849725612003"><ele>252.0</ele><time>2026-04-19T07:31:16Z</time></trkpt><trkpt lat="43.192635368373026" lon="11.85402956759195"><ele>252.0</ele><time>2026-04-19T07:31:17Z</time></trkpt><trkpt lat="43.192491119919524" lon="11.85420970370513"><ele>252.0</ele><time>2026-04-19T07:31:18Z</time></trkpt><trkpt lat="43.19234588927445" lon="11.854393989923219"><ele>252.0</ele><time>2026-04-19T07:31:19Z</time></trkpt><trkpt lat="43.19219985474543" lon="11.854571462940896"><ele>252.0</ele><time>2026-04-19T07:31:20Z</time></trkpt><trkpt lat="43.1920591852258" lon="11.854754557244593"><ele>252.0</ele><time>2026-04-19T07:31:21Z</time></trkpt><trkpt lat="43.191905807796935" lon="11.854923287330102"><ele>252.0</ele><time>2026-04-19T07:31:22Z</time></trkpt><trkpt lat="43.19176515273989" lon="11.855089831408415"><ele>252.0</ele><time>2026-04-19T07:31:23Z</time></trkpt><trkpt lat="43.19162624951178" lon="11.855262640388395"><ele>252.0</ele><time>2026-04-19T07:31:24Z</time></trkpt><trkpt lat="43.19148197356342" lon="11.855438025329486"><ele>252.0</ele><time>2026-04-19T07:31:25Z</time></trkpt><trkpt lat="43.19133386261374" lon="11.85561626348741"><ele>252.0</ele><time>2026-04-19T07:31:26Z</time></trkpt><trkpt lat="43.191188170545374" lon="11.855796634106493"><ele>252.0</ele><time>2026-04-19T07:31:27Z</time></trkpt><trkpt lat="43.19104537895149" lon="11.8559690480534"><ele>252.0</ele><time>2026-04-19T07:31:28Z</time></trkpt><trkpt lat="43.19090646443573" lon="11.856136728563067"><ele>252.0</ele><time>2026-04-19T07:31:29Z</time></trkpt><trkpt lat="43.19077054934175" lon="11.85630218916102"><ele>252.0</ele><time>2026-04-19T07:31:30Z</time></trkpt><trkpt lat="43.19063164128501" lon="11.856471133257712"><ele>252.0</ele><time>2026-04-19T07:31:31Z</time></trkpt><trkpt lat="43.19049024914654" lon="11.856643390947735"><ele>252.0</ele><time>2026-04-19T07:31:32Z</time></trkpt><trkpt lat="43.19035753187013" lon="11.85679966455452"><ele>252.0</ele><time>2026-04-19T07:31:33Z</time></trkpt><trkpt lat="43.19023288467804" lon="11.85693952845308"><ele>252.0</ele><time>2026-04-19T07:31:34Z</time></trkpt><trkpt lat="43.190105273322295" lon="11.857065869983256"><ele>252.0</ele><time>2026-04-19T07:31:35Z</time></trkpt><trkpt lat="43.189954830114374" lon="11.857194831968998"><ele>252.0</ele><time>2026-04-19T07:31:36Z</time></trkpt><trkpt lat="43.189790679290425" lon="11.857307558019647"><ele>252.0</ele><time>2026-04-19T07:31:37Z</time></trkpt><trkpt lat="43.18961820069795" lon="11.857411033944176"><ele>252.0</ele><time>2026-04-19T07:31:38Z</time></trkpt><trkpt lat="43.18944596617625" lon="11.857526419036661"><ele>252.0</ele><time>2026-04-19T07:31:39Z</time></trkpt><trkpt lat="43.18927253536891" lon="11.857648629988137"><ele>251.0</ele><time>2026-04-19T07:31:40Z</time></trkpt><trkpt lat="43.18909613262673" lon="11.857764227181656"><ele>250.0</ele><time>2026-04-19T07:31:41Z</time></trkpt><trkpt lat="43.18891654292737" lon="11.857886681127324"><ele>249.0</ele><time>2026-04-19T07:31:42Z</time></trkpt><trkpt lat="43.18873507017423" lon="11.858010140247915"><ele>249.0</ele><time>2026-04-19T07:31:43Z</time></trkpt><trkpt lat="43.18855144623211" lon="11.858137627336156"><ele>249.0</ele><time>2026-04-19T07:31:44Z</time></trkpt><trkpt lat="43.188367127569414" lon="11.858266818393616"><ele>249.0</ele><time>2026-04-19T07:31:45Z</time></trkpt><trkpt lat="43.18817938798749" lon="11.85839926032342"><ele>249.66666666666669</ele><time>2026-04-19T07:31:46Z</time></trkpt><trkpt lat="43.187987771967705" lon="11.858533586383356"><ele>250.33333333333334</ele><time>2026-04-19T07:31:47Z</time></trkpt><trkpt lat="43.18779311147359" lon="11.85866901853236"><ele>251.0</ele><time>2026-04-19T07:31:48Z</time></trkpt><trkpt lat="43.18759727484011" lon="11.858802446363356"><ele>251.0</ele><time>2026-04-19T07:31:49.001Z</time></trkpt><trkpt lat="43.18739852407213" lon="11.858934701962113"><ele>251.0</ele><time>2026-04-19T07:31:50.001Z</time></trkpt><trkpt lat="43.187198904106644" lon="11.859069289980301"><ele>251.0</ele><time>2026-04-19T07:31:51.001Z</time></trkpt><trkpt lat="43.18699818014686" lon="11.85921522062113"><ele>251.0</ele><time>2026-04-19T07:31:52.001Z</time></trkpt><trkpt lat="43.18679254325573" lon="11.859363869947662"><ele>251.0</ele><time>2026-04-19T07:31:53.001Z</time></trkpt><trkpt lat="43.18659591663268" lon="11.859495433035057"><ele>251.0</ele><time>2026-04-19T07:31:54.001Z</time></trkpt><trkpt lat="43.186383648431054" lon="11.859600947539542"><ele>251.0</ele><time>2026-04-19T07:31:55.001Z</time></trkpt><trkpt lat="43.186186122152215" lon="11.859777272966015"><ele>251.0</ele><time>2026-04-19T07:31:56.001Z</time></trkpt><trkpt lat="43.18598534772694" lon="11.859921785390066"><ele>251.0</ele><time>2026-04-19T07:31:57.001Z</time></trkpt><trkpt lat="43.18578479304487" lon="11.86006124770621"><ele>250.66666666666669</ele><time>2026-04-19T07:31:58.001Z</time></trkpt><trkpt lat="43.185586194352446" lon="11.860196200450916"><ele>250.33333333333331</ele><time>2026-04-19T07:31:59.001Z</time></trkpt><trkpt lat="43.185393637921074" lon="11.860334264783896"><ele>250.0</ele><time>2026-04-19T07:32:00.001Z</time></trkpt><trkpt lat="43.185191426458" lon="11.86048444442658"><ele>250.0</ele><time>2026-04-19T07:32:01.001Z</time></trkpt><trkpt lat="43.1849763915944" lon="11.86066092282428"><ele>250.0</ele><time>2026-04-19T07:32:02.001Z</time></trkpt><trkpt lat="43.18480001535712" lon="11.860802373276716"><ele>249.5</ele><time>2026-04-19T07:32:03.001Z</time></trkpt><trkpt lat="43.18461640836162" lon="11.86098048560845"><ele>249.0</ele><time>2026-04-19T07:32:04.001Z</time></trkpt><trkpt lat="43.184430173281136" lon="11.861163605721787"><ele>249.0</ele><time>2026-04-19T07:32:05.001Z</time></trkpt><trkpt lat="43.184251804747404" lon="11.861327632059405"><ele>249.0</ele><time>2026-04-19T07:32:06.001Z</time></trkpt><trkpt lat="43.18407268440892" lon="11.861484302788593"><ele>249.0</ele><time>2026-04-19T07:32:07.001Z</time></trkpt><trkpt lat="43.183912986442785" lon="11.861628965686451"><ele>249.0</ele><time>2026-04-19T07:32:08.001Z</time></trkpt><trkpt lat="43.18368953923195" lon="11.861834880910061"><ele>249.0</ele><time>2026-04-19T07:32:09.001Z</time></trkpt><trkpt lat="43.1835015262445" lon="11.862003258197813"><ele>249.0</ele><time>2026-04-19T07:32:10.001Z</time></trkpt><trkpt lat="43.183316448853255" lon="11.862176551243866"><ele>249.0</ele><time>2026-04-19T07:32:11.001Z</time></trkpt><trkpt lat="43.18313242387777" lon="11.862351513300895"><ele>249.0</ele><time>2026-04-19T07:32:12.001Z</time></trkpt><trkpt lat="43.1829512595197" lon="11.862516454218122"><ele>249.0</ele><time>2026-04-19T07:32:13.001Z</time></trkpt><trkpt lat="43.18277975752665" lon="11.862677425924591"><ele>249.0</ele><time>2026-04-19T07:32:14.001Z</time></trkpt><trkpt lat="43.18260201889872" lon="11.862836491532793"><ele>249.0</ele><time>2026-04-19T07:32:15.001Z</time></trkpt><trkpt lat="43.18242058487915" lon="11.863002344256543"><ele>249.0</ele><time>2026-04-19T07:32:16.001Z</time></trkpt><trkpt lat="43.18223738966909" lon="11.86317086038533"><ele>249.0</ele><time>2026-04-19T07:32:17.001Z</time></trkpt><trkpt lat="43.18205280496646" lon="11.863341389612016"><ele>249.0</ele><time>2026-04-19T07:32:18.001Z</time></trkpt><trkpt lat="43.181868309476194" lon="11.863509455215013"><ele>249.66666666666669</ele><time>2026-04-19T07:32:19.001Z</time></trkpt><trkpt lat="43.181684673242" lon="11.863679629116785"><ele>250.33333333333334</ele><time>2026-04-19T07:32:20.001Z</time></trkpt><trkpt lat="43.18150849890059" lon="11.863837895085204"><ele>251.0</ele><time>2026-04-19T07:32:21.001Z</time></trkpt><trkpt lat="43.18133643334627" lon="11.863993181352573"><ele>251.0</ele><time>2026-04-19T07:32:22.001Z</time></trkpt><trkpt lat="43.18116067132262" lon="11.864153741302788"><ele>251.0</ele><time>2026-04-19T07:32:23.001Z</time></trkpt><trkpt lat="43.180985023306626" lon="11.864331848580699"><ele>251.0</ele><time>2026-04-19T07:32:24.001Z</time></trkpt><trkpt lat="43.18080900722568" lon="11.86451021778843"><ele>250.33333333333334</ele><time>2026-04-19T07:32:25.001Z</time></trkpt><trkpt lat="43.18063519045942" lon="11.864688515388647"><ele>249.66666666666669</ele><time>2026-04-19T07:32:26.001Z</time></trkpt><trkpt lat="43.18046271745697" lon="11.864861576736372"><ele>249.0</ele><time>2026-04-19T07:32:27.001Z</time></trkpt><trkpt lat="43.18031057663636" lon="11.865078066037219"><ele>249.66666666666669</ele><time>2026-04-19T07:32:28.001Z</time></trkpt><trkpt lat="43.18016048191031" lon="11.86528667380735"><ele>250.33333333333334</ele><time>2026-04-19T07:32:29.001Z</time></trkpt><trkpt lat="43.180013330345815" lon="11.865495026603094"><ele>251.0</ele><time>2026-04-19T07:32:30.001Z</time></trkpt><trkpt lat="43.179883132859196" lon="11.865681815046594"><ele>250.66666666666669</ele><time>2026-04-19T07:32:31.001Z</time></trkpt><trkpt lat="43.179740739187245" lon="11.86587294228638"><ele>250.33333333333331</ele><time>2026-04-19T07:32:32.001Z</time></trkpt><trkpt lat="43.17959736902333" lon="11.866068701268484"><ele>250.0</ele><time>2026-04-19T07:32:33.001Z</time></trkpt><trkpt lat="43.17945075890045" lon="11.866266843128324"><ele>250.66666666666666</ele><time>2026-04-19T07:32:34.001Z</time></trkpt><trkpt lat="43.17930174325304" lon="11.866460004236234"><ele>251.33333333333331</ele><time>2026-04-19T07:32:35.001Z</time></trkpt><trkpt lat="43.17915317487743" lon="11.866657448762135"><ele>252.0</ele><time>2026-04-19T07:32:36.001Z</time></trkpt><trkpt lat="43.179003844777334" lon="11.866854693084132"><ele>252.0</ele><time>2026-04-19T07:32:37.001Z</time></trkpt><trkpt lat="43.178855120467055" lon="11.867050863590066"><ele>252.0</ele><time>2026-04-19T07:32:38.001Z</time></trkpt><trkpt lat="43.178708873297694" lon="11.867247178976887"><ele>252.0</ele><time>2026-04-19T07:32:39.001Z</time></trkpt><trkpt lat="43.17856089376874" lon="11.867439874092314"><ele>251.66666666666669</ele><time>2026-04-19T07:32:40.001Z</time></trkpt><trkpt lat="43.17841309412193" lon="11.867636513485616"><ele>251.33333333333334</ele><time>2026-04-19T07:32:41.001Z</time></trkpt><trkpt lat="43.1782625341894" lon="11.867841492548209"><ele>251.0</ele><time>2026-04-19T07:32:42.001Z</time></trkpt><trkpt lat="43.178108666112365" lon="11.86804216627424"><ele>251.0</ele><time>2026-04-19T07:32:43.001Z</time></trkpt><trkpt lat="43.1779578915215" lon="11.868241863029773"><ele>251.0</ele><time>2026-04-19T07:32:44.001Z</time></trkpt><trkpt lat="43.17780813377241" lon="11.868442428234506"><ele>251.0</ele><time>2026-04-19T07:32:45Z</time></trkpt><trkpt lat="43.17766040771204" lon="11.868640681429863"><ele>251.0</ele><time>2026-04-19T07:32:46Z</time></trkpt><trkpt lat="43.17751039856075" lon="11.868839522675449"><ele>251.0</ele><time>2026-04-19T07:32:47Z</time></trkpt><trkpt lat="43.177361480790005" lon="11.869035338784666"><ele>251.0</ele><time>2026-04-19T07:32:48Z</time></trkpt><trkpt lat="43.177215894128786" lon="11.86923218852621"><ele>250.66666666666669</ele><time>2026-04-19T07:32:49Z</time></trkpt><trkpt lat="43.177071447023515" lon="11.86942217853087"><ele>250.33333333333331</ele><time>2026-04-19T07:32:50Z</time></trkpt><trkpt lat="43.17692918466404" lon="11.86961309249758"><ele>250.0</ele><time>2026-04-19T07:32:51Z</time></trkpt><trkpt lat="43.17678626692355" lon="11.869804136026998"><ele>250.0</ele><time>2026-04-19T07:32:52Z</time></trkpt><trkpt lat="43.1766449047798" lon="11.869992685452903"><ele>250.0</ele><time>2026-04-19T07:32:53Z</time></trkpt><trkpt lat="43.17651529266153" lon="11.87019562313614"><ele>250.0</ele><time>2026-04-19T07:32:54Z</time></trkpt><trkpt lat="43.17638993162771" lon="11.87041101351281"><ele>250.33333333333331</ele><time>2026-04-19T07:32:55Z</time></trkpt><trkpt lat="43.17626524792549" lon="11.870635647523029"><ele>250.66666666666669</ele><time>2026-04-19T07:32:56Z</time></trkpt><trkpt lat="43.1761570113488" lon="11.870833628032964"><ele>251.0</ele><time>2026-04-19T07:32:57Z</time></trkpt><trkpt lat="43.17603972546422" lon="11.871006068166322"><ele>251.0</ele><time>2026-04-19T07:32:58Z</time></trkpt><trkpt lat="43.1759264144126" lon="11.871176164852502"><ele>251.0</ele><time>2026-04-19T07:32:59Z</time></trkpt><trkpt lat="43.17581016187121" lon="11.871321472743746"><ele>251.0</ele><time>2026-04-19T07:33:00Z</time></trkpt><trkpt lat="43.175670120238394" lon="11.871475804765243"><ele>251.33333333333334</ele><time>2026-04-19T07:33:01Z</time></trkpt><trkpt lat="43.175504369211566" lon="11.871629959442917"><ele>251.66666666666669</ele><time>2026-04-19T07:33:02Z</time></trkpt><trkpt lat="43.17533444528327" lon="11.871763907812518"><ele>252.0</ele><time>2026-04-19T07:33:03Z</time></trkpt><trkpt lat="43.175148329688454" lon="11.871897109966293"><ele>252.0</ele><time>2026-04-19T07:33:04Z</time></trkpt><trkpt lat="43.17496775231732" lon="11.872042784863366"><ele>252.0</ele><time>2026-04-19T07:33:05Z</time></trkpt><trkpt lat="43.1747863460317" lon="11.872197709883382"><ele>252.0</ele><time>2026-04-19T07:33:06Z</time></trkpt><trkpt lat="43.174595056266305" lon="11.872338780092791"><ele>252.0</ele><time>2026-04-19T07:33:07Z</time></trkpt><trkpt lat="43.174400448710344" lon="11.87247936920288"><ele>252.0</ele><time>2026-04-19T07:33:08Z</time></trkpt><trkpt lat="43.17420750805692" lon="11.872625452122785"><ele>252.0</ele><time>2026-04-19T07:33:09Z</time></trkpt><trkpt lat="43.17401098520261" lon="11.872767699252838"><ele>251.0</ele><time>2026-04-19T07:33:10Z</time></trkpt><trkpt lat="43.17381433447361" lon="11.872917949204458"><ele>250.0</ele><time>2026-04-19T07:33:11Z</time></trkpt><trkpt lat="43.173619797750156" lon="11.873071892404356"><ele>250.0</ele><time>2026-04-19T07:33:12Z</time></trkpt><trkpt lat="43.173417009044464" lon="11.87321717689842"><ele>250.0</ele><time>2026-04-19T07:33:13Z</time></trkpt><trkpt lat="43.173240649945846" lon="11.873375303620634"><ele>250.0</ele><time>2026-04-19T07:33:14Z</time></trkpt><trkpt lat="43.173047630955985" lon="11.873517499285196"><ele>250.0</ele><time>2026-04-19T07:33:15Z</time></trkpt><trkpt lat="43.1728511740254" lon="11.873664578055394"><ele>250.0</ele><time>2026-04-19T07:33:16Z</time></trkpt><trkpt lat="43.17265791209779" lon="11.873810186275605"><ele>250.0</ele><time>2026-04-19T07:33:17Z</time></trkpt><trkpt lat="43.172459534790164" lon="11.873960958769553"><ele>250.0</ele><time>2026-04-19T07:33:18Z</time></trkpt><trkpt lat="43.172264604948055" lon="11.87411171169989"><ele>250.0</ele><time>2026-04-19T07:33:19Z</time></trkpt><trkpt lat="43.17206995846865" lon="11.87425806219494"><ele>250.0</ele><time>2026-04-19T07:33:20Z</time></trkpt><trkpt lat="43.171875294244934" lon="11.874409119338901"><ele>250.0</ele><time>2026-04-19T07:33:21Z</time></trkpt><trkpt lat="43.171682562282044" lon="11.874556864600153"><ele>250.0</ele><time>2026-04-19T07:33:22Z</time></trkpt><trkpt lat="43.17149639084119" lon="11.87469902128413"><ele>250.0</ele><time>2026-04-19T07:33:23Z</time></trkpt><trkpt lat="43.17131854314577" lon="11.874838841467572"><ele>249.66666666666666</ele><time>2026-04-19T07:33:24Z</time></trkpt><trkpt lat="43.17115150497529" lon="11.874969243208543"><ele>249.33333333333331</ele><time>2026-04-19T07:33:25Z</time></trkpt><trkpt lat="43.17098780369919" lon="11.875100088247555"><ele>249.0</ele><time>2026-04-19T07:33:26Z</time></trkpt><trkpt lat="43.17082261840501" lon="11.875258726944807"><ele>249.0</ele><time>2026-04-19T07:33:27Z</time></trkpt><trkpt lat="43.17065633955277" lon="11.875441263273908"><ele>249.0</ele><time>2026-04-19T07:33:28Z</time></trkpt><trkpt lat="43.17048193953718" lon="11.87563514680189"><ele>249.0</ele><time>2026-04-19T07:33:29Z</time></trkpt><trkpt lat="43.170301661667324" lon="11.875833086138503"><ele>250.5</ele><time>2026-04-19T07:33:30Z</time></trkpt><trkpt lat="43.170114833961975" lon="11.87603098904283"><ele>252.0</ele><time>2026-04-19T07:33:31Z</time></trkpt><trkpt lat="43.16992548207242" lon="11.876228781211267"><ele>250.0</ele><time>2026-04-19T07:33:32Z</time></trkpt><trkpt lat="43.16973529276473" lon="11.876433488151568"><ele>248.0</ele><time>2026-04-19T07:33:33Z</time></trkpt><trkpt lat="43.16954388262732" lon="11.876642175593844"><ele>249.0</ele><time>2026-04-19T07:33:34Z</time></trkpt><trkpt lat="43.16935244388639" lon="11.876845730444105"><ele>250.0</ele><time>2026-04-19T07:33:35Z</time></trkpt><trkpt lat="43.16916442690666" lon="11.877049663239946"><ele>248.5</ele><time>2026-04-19T07:33:36Z</time></trkpt><trkpt lat="43.16897330298215" lon="11.877250254147949"><ele>247.0</ele><time>2026-04-19T07:33:37Z</time></trkpt><trkpt lat="43.16878650406733" lon="11.87744270054047"><ele>248.5</ele><time>2026-04-19T07:33:38Z</time></trkpt><trkpt lat="43.16860012392226" lon="11.877638237105959"><ele>250.0</ele><time>2026-04-19T07:33:39Z</time></trkpt><trkpt lat="43.16841298171478" lon="11.877840230756007"><ele>250.0</ele><time>2026-04-19T07:33:40Z</time></trkpt><trkpt lat="43.16822944667419" lon="11.878037568599124"><ele>250.0</ele><time>2026-04-19T07:33:41Z</time></trkpt><trkpt lat="43.16804816856375" lon="11.878232468390566"><ele>249.5</ele><time>2026-04-19T07:33:42Z</time></trkpt><trkpt lat="43.167868577633485" lon="11.878419098198716"><ele>249.0</ele><time>2026-04-19T07:33:43Z</time></trkpt><trkpt lat="43.16769198465424" lon="11.878609354953918"><ele>249.66666666666669</ele><time>2026-04-19T07:33:44Z</time></trkpt><trkpt lat="43.1675129890674" lon="11.878797952507856"><ele>250.33333333333334</ele><time>2026-04-19T07:33:45Z</time></trkpt><trkpt lat="43.1673412607679" lon="11.878979765137396"><ele>251.0</ele><time>2026-04-19T07:33:46Z</time></trkpt><trkpt lat="43.167172299331675" lon="11.879158403529368"><ele>251.0</ele><time>2026-04-19T07:33:47Z</time></trkpt><trkpt lat="43.16700808690408" lon="11.87933147924062"><ele>251.0</ele><time>2026-04-19T07:33:48Z</time></trkpt><trkpt lat="43.166840634565396" lon="11.879516264695184"><ele>251.0</ele><time>2026-04-19T07:33:49Z</time></trkpt><trkpt lat="43.16667063867069" lon="11.879698293807236"><ele>250.33333333333334</ele><time>2026-04-19T07:33:50Z</time></trkpt><trkpt lat="43.16649699615006" lon="11.87987927101319"><ele>249.66666666666669</ele><time>2026-04-19T07:33:51Z</time></trkpt><trkpt lat="43.166322533007374" lon="11.880060098510443"><ele>249.0</ele><time>2026-04-19T07:33:52Z</time></trkpt><trkpt lat="43.16614443988561" lon="11.880254466288983"><ele>249.0</ele><time>2026-04-19T07:33:53Z</time></trkpt><trkpt lat="43.16596722934718" lon="11.880438971605107"><ele>249.0</ele><time>2026-04-19T07:33:54Z</time></trkpt><trkpt lat="43.16579533987917" lon="11.880631866028276"><ele>249.0</ele><time>2026-04-19T07:33:55Z</time></trkpt><trkpt lat="43.16562143162433" lon="11.880811742521205"><ele>249.0</ele><time>2026-04-19T07:33:56Z</time></trkpt><trkpt lat="43.16543938346388" lon="11.880980242580986"><ele>249.0</ele><time>2026-04-19T07:33:57Z</time></trkpt><trkpt lat="43.165246926713216" lon="11.881127353400352"><ele>249.0</ele><time>2026-04-19T07:33:58Z</time></trkpt><trkpt lat="43.165046089576535" lon="11.881252615745751"><ele>249.0</ele><time>2026-04-19T07:33:59Z</time></trkpt><trkpt lat="43.16483809055174" lon="11.881359266470444"><ele>249.0</ele><time>2026-04-19T07:34:00Z</time></trkpt><trkpt lat="43.164630288092866" lon="11.881429142935133"><ele>249.0</ele><time>2026-04-19T07:34:01Z</time></trkpt><trkpt lat="43.16441061664538" lon="11.881476828305798"><ele>249.0</ele><time>2026-04-19T07:34:02Z</time></trkpt><trkpt lat="43.164198760775996" lon="11.88150766905709"><ele>249.0</ele><time>2026-04-19T07:34:03Z</time></trkpt><trkpt lat="43.16399477364652" lon="11.881533381061848"><ele>249.0</ele><time>2026-04-19T07:34:04Z</time></trkpt><trkpt lat="43.16379617301892" lon="11.881565940989514"><ele>248.66666666666669</ele><time>2026-04-19T07:34:05Z</time></trkpt><trkpt lat="43.163594564010204" lon="11.88159727188576"><ele>248.33333333333334</ele><time>2026-04-19T07:34:06Z</time></trkpt><trkpt lat="43.163393430858775" lon="11.881636846181658"><ele>248.0</ele><time>2026-04-19T07:34:07Z</time></trkpt><trkpt lat="43.16320265791518" lon="11.881686001634575"><ele>248.33333333333334</ele><time>2026-04-19T07:34:08Z</time></trkpt><trkpt lat="43.16303213712976" lon="11.881748772203908"><ele>248.66666666666669</ele><time>2026-04-19T07:34:09.001Z</time></trkpt><trkpt lat="43.16287906954634" lon="11.881829146227805"><ele>249.0</ele><time>2026-04-19T07:34:10.001Z</time></trkpt><trkpt lat="43.16273489773465" lon="11.881932664540866"><ele>249.33333333333331</ele><time>2026-04-19T07:34:11.001Z</time></trkpt><trkpt lat="43.16259146883723" lon="11.882057840737595"><ele>249.66666666666666</ele><time>2026-04-19T07:34:12.001Z</time></trkpt><trkpt lat="43.16245258293013" lon="11.882198147264234"><ele>250.0</ele><time>2026-04-19T07:34:13.001Z</time></trkpt><trkpt lat="43.162313585489294" lon="11.882360485126027"><ele>249.66666666666666</ele><time>2026-04-19T07:34:14.001Z</time></trkpt><trkpt lat="43.16218263185367" lon="11.882553884628015"><ele>249.33333333333331</ele><time>2026-04-19T07:34:15.001Z</time></trkpt><trkpt lat="43.162057768100304" lon="11.882780222298015"><ele>249.0</ele><time>2026-04-19T07:34:16.001Z</time></trkpt><trkpt lat="43.161934297489026" lon="11.88302172733421"><ele>249.0</ele><time>2026-04-19T07:34:17.001Z</time></trkpt><trkpt lat="43.16180941678125" lon="11.88326328079304"><ele>249.0</ele><time>2026-04-19T07:34:18.001Z</time></trkpt><trkpt lat="43.1616842979391" lon="11.88350368118751"><ele>249.0</ele><time>2026-04-19T07:34:19.001Z</time></trkpt><trkpt lat="43.16155629634271" lon="11.88374319534163"><ele>248.66666666666669</ele><time>2026-04-19T07:34:20.001Z</time></trkpt><trkpt lat="43.16142301162319" lon="11.88398339781602"><ele>248.33333333333334</ele><time>2026-04-19T07:34:21.001Z</time></trkpt><trkpt lat="43.16128764228698" lon="11.884226497896849"><ele>248.0</ele><time>2026-04-19T07:34:22.001Z</time></trkpt><trkpt lat="43.16115530552987" lon="11.884480472321211"><ele>248.0</ele><time>2026-04-19T07:34:23.001Z</time></trkpt><trkpt lat="43.16102210006785" lon="11.884733938985358"><ele>248.0</ele><time>2026-04-19T07:34:24.001Z</time></trkpt><trkpt lat="43.1608851519027" lon="11.884982426244694"><ele>248.33333333333334</ele><time>2026-04-19T07:34:25.001Z</time></trkpt><trkpt lat="43.160751622134725" lon="11.88523241306728"><ele>248.66666666666669</ele><time>2026-04-19T07:34:26.001Z</time></trkpt><trkpt lat="43.16061898676248" lon="11.885477109821032"><ele>249.0</ele><time>2026-04-19T07:34:27.001Z</time></trkpt><trkpt lat="43.16048922485224" lon="11.885714505275535"><ele>249.33333333333331</ele><time>2026-04-19T07:34:28.001Z</time></trkpt><trkpt lat="43.16036112139281" lon="11.885947214261492"><ele>249.66666666666666</ele><time>2026-04-19T07:34:29.001Z</time></trkpt><trkpt lat="43.160231952816275" lon="11.88618213425905"><ele>250.0</ele><time>2026-04-19T07:34:30.001Z</time></trkpt><trkpt lat="43.16010544559526" lon="11.886409022824965"><ele>250.0</ele><time>2026-04-19T07:34:31.001Z</time></trkpt><trkpt lat="43.15997758542163" lon="11.886630658488247"><ele>250.0</ele><time>2026-04-19T07:34:32.001Z</time></trkpt><trkpt lat="43.15984382142351" lon="11.886858976591391"><ele>250.0</ele><time>2026-04-19T07:34:33.001Z</time></trkpt><trkpt lat="43.15970459987415" lon="11.887085962349015"><ele>250.0</ele><time>2026-04-19T07:34:34.001Z</time></trkpt><trkpt lat="43.159559654898054" lon="11.887304687927518"><ele>250.0</ele><time>2026-04-19T07:34:35.001Z</time></trkpt><trkpt lat="43.15941127808672" lon="11.887521127481033"><ele>250.0</ele><time>2026-04-19T07:34:36.001Z</time></trkpt><trkpt lat="43.15926552887986" lon="11.887742361145731"><ele>250.0</ele><time>2026-04-19T07:34:37.001Z</time></trkpt><trkpt lat="43.15911792352275" lon="11.887963102291017"><ele>250.0</ele><time>2026-04-19T07:34:38.001Z</time></trkpt><trkpt lat="43.158972513426114" lon="11.888176668810074"><ele>250.0</ele><time>2026-04-19T07:34:39.001Z</time></trkpt><trkpt lat="43.158825292352546" lon="11.888394268701344"><ele>250.0</ele><time>2026-04-19T07:34:40.001Z</time></trkpt><trkpt lat="43.15867907076129" lon="11.888611535626952"><ele>250.0</ele><time>2026-04-19T07:34:41.001Z</time></trkpt><trkpt lat="43.158529622877296" lon="11.888827066580872"><ele>250.0</ele><time>2026-04-19T07:34:42.001Z</time></trkpt><trkpt lat="43.15837352615573" lon="11.889042569850295"><ele>250.0</ele><time>2026-04-19T07:34:43.001Z</time></trkpt><trkpt lat="43.15821591482693" lon="11.889252609442474"><ele>250.0</ele><time>2026-04-19T07:34:44.001Z</time></trkpt><trkpt lat="43.15805898793662" lon="11.88945820526589"><ele>250.0</ele><time>2026-04-19T07:34:45.001Z</time></trkpt><trkpt lat="43.15790065559581" lon="11.889666301856844"><ele>250.33333333333331</ele><time>2026-04-19T07:34:46.001Z</time></trkpt><trkpt lat="43.15774305074939" lon="11.88987913215461"><ele>250.66666666666669</ele><time>2026-04-19T07:34:47.001Z</time></trkpt><trkpt lat="43.15758833187066" lon="11.890086941006594"><ele>251.0</ele><time>2026-04-19T07:34:48.001Z</time></trkpt><trkpt lat="43.15743407173234" lon="11.890289970522552"><ele>250.0</ele><time>2026-04-19T07:34:49.001Z</time></trkpt><trkpt lat="43.15727881210117" lon="11.890490364702837"><ele>249.0</ele><time>2026-04-19T07:34:50.001Z</time></trkpt><trkpt lat="43.157123614553036" lon="11.890687321808178"><ele>248.0</ele><time>2026-04-19T07:34:51Z</time></trkpt><trkpt lat="43.15696458818052" lon="11.890877331264813"><ele>249.66666666666669</ele><time>2026-04-19T07:34:52Z</time></trkpt><trkpt lat="43.15680264484382" lon="11.89106002464884"><ele>251.33333333333331</ele><time>2026-04-19T07:34:53Z</time></trkpt><trkpt lat="43.156650167718006" lon="11.891232032531427"><ele>253.0</ele><time>2026-04-19T07:34:54Z</time></trkpt><trkpt lat="43.1565061262894" lon="11.891393284960612"><ele>253.0</ele><time>2026-04-19T07:34:55Z</time></trkpt><trkpt lat="43.15636541949045" lon="11.891554394859856"><ele>253.0</ele><time>2026-04-19T07:34:56Z</time></trkpt><trkpt lat="43.15622242041209" lon="11.891720451112276"><ele>253.0</ele><time>2026-04-19T07:34:57Z</time></trkpt><trkpt lat="43.15607416624844" lon="11.891896978218906"><ele>253.0</ele><time>2026-04-19T07:34:58Z</time></trkpt><trkpt lat="43.15592023109448" lon="11.892074216481847"><ele>253.0</ele><time>2026-04-19T07:34:59Z</time></trkpt><trkpt lat="43.15576173854204" lon="11.892254695562293"><ele>253.0</ele><time>2026-04-19T07:35:00Z</time></trkpt><trkpt lat="43.15560643736498" lon="11.892437052255191"><ele>252.66666666666666</ele><time>2026-04-19T07:35:01Z</time></trkpt><trkpt lat="43.155438494384356" lon="11.892624108483403"><ele>252.33333333333331</ele><time>2026-04-19T07:35:02Z</time></trkpt><trkpt lat="43.15526799636881" lon="11.89282387291176"><ele>252.0</ele><time>2026-04-19T07:35:03Z</time></trkpt><trkpt lat="43.155106829872636" lon="11.893012292565526"><ele>252.0</ele><time>2026-04-19T07:35:04Z</time></trkpt><trkpt lat="43.15495423957486" lon="11.893188972047618"><ele>252.0</ele><time>2026-04-19T07:35:05Z</time></trkpt><trkpt lat="43.15480773840875" lon="11.89336182888245"><ele>252.0</ele><time>2026-04-19T07:35:06Z</time></trkpt><trkpt lat="43.15466461927797" lon="11.893527206967708"><ele>252.33333333333331</ele><time>2026-04-19T07:35:07Z</time></trkpt><trkpt lat="43.154522077701564" lon="11.893688996783194"><ele>252.66666666666666</ele><time>2026-04-19T07:35:08Z</time></trkpt><trkpt lat="43.154376844261726" lon="11.893858144392073"><ele>253.0</ele><time>2026-04-19T07:35:09Z</time></trkpt><trkpt lat="43.154240380396544" lon="11.894015879222133"><ele>253.0</ele><time>2026-04-19T07:35:10Z</time></trkpt><trkpt lat="43.15410691847761" lon="11.894168422259426"><ele>253.0</ele><time>2026-04-19T07:35:11Z</time></trkpt><trkpt lat="43.15396377879014" lon="11.894320278369717"><ele>253.0</ele><time>2026-04-19T07:35:12Z</time></trkpt><trkpt lat="43.15380680776426" lon="11.894469084411494"><ele>252.33333333333331</ele><time>2026-04-19T07:35:13Z</time></trkpt><trkpt lat="43.15364304226399" lon="11.894608949962327"><ele>251.66666666666669</ele><time>2026-04-19T07:35:14Z</time></trkpt><trkpt lat="43.15346353523311" lon="11.894710105090336"><ele>251.0</ele><time>2026-04-19T07:35:15Z</time></trkpt><trkpt lat="43.153265345169686" lon="11.894788046571712"><ele>251.0</ele><time>2026-04-19T07:35:16Z</time></trkpt><trkpt lat="43.15306317779117" lon="11.894857610241717"><ele>251.0</ele><time>2026-04-19T07:35:17Z</time></trkpt><trkpt lat="43.152877855712" lon="11.894931016308549"><ele>251.0</ele><time>2026-04-19T07:35:18Z</time></trkpt><trkpt lat="43.152701771838316" lon="11.894998814190528"><ele>251.0</ele><time>2026-04-19T07:35:19Z</time></trkpt><trkpt lat="43.15252170530431" lon="11.895071737042743"><ele>251.0</ele><time>2026-04-19T07:35:20Z</time></trkpt><trkpt lat="43.15233892084957" lon="11.895147845853145"><ele>251.0</ele><time>2026-04-19T07:35:21Z</time></trkpt><trkpt lat="43.15215349339429" lon="11.895220931318198"><ele>253.0</ele><time>2026-04-19T07:35:22Z</time></trkpt><trkpt lat="43.15196355865062" lon="11.89529585049183"><ele>255.0</ele><time>2026-04-19T07:35:23Z</time></trkpt><trkpt lat="43.151771027050515" lon="11.895376555501924"><ele>257.0</ele><time>2026-04-19T07:35:24Z</time></trkpt><trkpt lat="43.15157753605329" lon="11.895457652002928"><ele>255.66666666666669</ele><time>2026-04-19T07:35:25Z</time></trkpt><trkpt lat="43.15138500171843" lon="11.895533512822213"><ele>254.33333333333331</ele><time>2026-04-19T07:35:26Z</time></trkpt><trkpt lat="43.151198668172924" lon="11.89561033244036"><ele>253.0</ele><time>2026-04-19T07:35:27Z</time></trkpt><trkpt lat="43.15101371872607" lon="11.895684325585242"><ele>253.0</ele><time>2026-04-19T07:35:28Z</time></trkpt><trkpt lat="43.150829468865126" lon="11.895759549749387"><ele>253.0</ele><time>2026-04-19T07:35:29Z</time></trkpt><trkpt lat="43.15064973787911" lon="11.895834749164665"><ele>253.0</ele><time>2026-04-19T07:35:30Z</time></trkpt><trkpt lat="43.15047173066786" lon="11.895907747797189"><ele>254.33333333333331</ele><time>2026-04-19T07:35:31Z</time></trkpt><trkpt lat="43.150296306866025" lon="11.895980147702295"><ele>255.66666666666669</ele><time>2026-04-19T07:35:32Z</time></trkpt><trkpt lat="43.150123721194284" lon="11.89605272533818"><ele>257.0</ele><time>2026-04-19T07:35:33Z</time></trkpt><trkpt lat="43.14995037459808" lon="11.896121110296491"><ele>256.6666666666667</ele><time>2026-04-19T07:35:34Z</time></trkpt><trkpt lat="43.14976869769445" lon="11.896179726596458"><ele>256.3333333333333</ele><time>2026-04-19T07:35:35Z</time></trkpt><trkpt lat="43.14958429103828" lon="11.896212833421519"><ele>256.0</ele><time>2026-04-19T07:35:36Z</time></trkpt><trkpt lat="43.149391595174095" lon="11.896228754281962"><ele>256.0</ele><time>2026-04-19T07:35:37Z</time></trkpt><trkpt lat="43.14919823171275" lon="11.89623915706219"><ele>256.0</ele><time>2026-04-19T07:35:38Z</time></trkpt><trkpt lat="43.14900056152741" lon="11.896255029888422"><ele>256.0</ele><time>2026-04-19T07:35:39Z</time></trkpt><trkpt lat="43.148802930632904" lon="11.896274606530376"><ele>256.0</ele><time>2026-04-19T07:35:40Z</time></trkpt><trkpt lat="43.14860148736375" lon="11.896293925789813"><ele>256.0</ele><time>2026-04-19T07:35:41Z</time></trkpt><trkpt lat="43.14839883860289" lon="11.896316738981652"><ele>256.0</ele><time>2026-04-19T07:35:42Z</time></trkpt><trkpt lat="43.14819874244015" lon="11.896337189347305"><ele>254.33333333333331</ele><time>2026-04-19T07:35:43Z</time></trkpt><trkpt lat="43.14799338751104" lon="11.896357804514635"><ele>252.66666666666669</ele><time>2026-04-19T07:35:44Z</time></trkpt><trkpt lat="43.14778526197529" lon="11.896379444274213"><ele>251.0</ele><time>2026-04-19T07:35:45Z</time></trkpt><trkpt lat="43.147577604990616" lon="11.896400101354152"><ele>251.0</ele><time>2026-04-19T07:35:46Z</time></trkpt><trkpt lat="43.14737903134359" lon="11.8964160524672"><ele>251.0</ele><time>2026-04-19T07:35:47Z</time></trkpt><trkpt lat="43.1471938815502" lon="11.89643530268524"><ele>251.0</ele><time>2026-04-19T07:35:48Z</time></trkpt><trkpt lat="43.1470139704327" lon="11.89645257761616"><ele>251.0</ele><time>2026-04-19T07:35:49Z</time></trkpt><trkpt lat="43.146834140901845" lon="11.896466749597275"><ele>251.0</ele><time>2026-04-19T07:35:50Z</time></trkpt><trkpt lat="43.14666235091509" lon="11.896482028146371"><ele>251.0</ele><time>2026-04-19T07:35:51Z</time></trkpt><trkpt lat="43.146499904055005" lon="11.89649829156083"><ele>250.75</ele><time>2026-04-19T07:35:52Z</time></trkpt><trkpt lat="43.14634734356072" lon="11.896510725294105"><ele>250.5</ele><time>2026-04-19T07:35:53Z</time></trkpt><trkpt lat="43.14620673548595" lon="11.896521674646753"><ele>250.25</ele><time>2026-04-19T07:35:54Z</time></trkpt><trkpt lat="43.14607135815455" lon="11.896533743326748"><ele>250.0</ele><time>2026-04-19T07:35:55Z</time></trkpt><trkpt lat="43.14593991203142" lon="11.896545454299767"><ele>250.0</ele><time>2026-04-19T07:35:56Z</time></trkpt><trkpt lat="43.14580231264059" lon="11.896560992663403"><ele>250.0</ele><time>2026-04-19T07:35:57Z</time></trkpt><trkpt lat="43.14568494798808" lon="11.8965731575104"><ele>250.0</ele><time>2026-04-19T07:35:58Z</time></trkpt><trkpt lat="43.14558135199498" lon="11.89658346440637"><ele>250.0</ele><time>2026-04-19T07:35:59Z</time></trkpt><trkpt lat="43.14549154768016" lon="11.896591551720723"><ele>250.0</ele><time>2026-04-19T07:36:00Z</time></trkpt><trkpt lat="43.145426259904326" lon="11.896599912235287"><ele>250.0</ele><time>2026-04-19T07:36:01Z</time></trkpt><trkpt lat="43.14533276532983" lon="11.89661061687172"><ele>250.0</ele><time>2026-04-19T07:36:03Z</time></trkpt><trkpt lat="43.14520377960879" lon="11.896561838490921"><ele>250.0</ele><time>2026-04-19T07:36:08Z</time></trkpt><trkpt lat="43.145154606584434" lon="11.896474190741307"><ele>250.0</ele><time>2026-04-19T07:36:09Z</time></trkpt><trkpt lat="43.1450993105682" lon="11.896377440712643"><ele>250.0</ele><time>2026-04-19T07:36:10Z</time></trkpt><trkpt lat="43.145031467345945" lon="11.89626025350056"><ele>250.0</ele><time>2026-04-19T07:36:11Z</time></trkpt><trkpt lat="43.14497001353426" lon="11.896161226393572"><ele>250.0</ele><time>2026-04-19T07:36:12Z</time></trkpt><trkpt lat="43.144923501186504" lon="11.896078030511287"><ele>250.0</ele><time>2026-04-19T07:36:13Z</time></trkpt><trkpt lat="43.144885025842065" lon="11.896008034663136"><ele>250.0</ele><time>2026-04-19T07:36:14Z</time></trkpt><trkpt lat="43.14481581264241" lon="11.895882969401262"><ele>249.6</ele><time>2026-04-19T07:36:16Z</time></trkpt><trkpt lat="43.14475222514019" lon="11.895778634376871"><ele>249.2</ele><time>2026-04-19T07:36:18Z</time></trkpt><trkpt lat="43.144703287873355" lon="11.895690294462149"><ele>248.8</ele><time>2026-04-19T07:36:20Z</time></trkpt><trkpt lat="43.14465048455723" lon="11.895596049731783"><ele>248.4</ele><time>2026-04-19T07:37:15Z</time></trkpt><trkpt lat="43.144577579831825" lon="11.895462810732115"><ele>248.0</ele><time>2026-04-19T07:37:17Z</time></trkpt><trkpt lat="43.14453690446719" lon="11.895381603651566"><ele>248.00000000000003</ele><time>2026-04-19T07:37:18Z</time></trkpt><trkpt lat="43.14449503877386" lon="11.89528383068122"><ele>248.0</ele><time>2026-04-19T07:37:19Z</time></trkpt><trkpt lat="43.144463505840235" lon="11.895174932632274"><ele>248.0</ele><time>2026-04-19T07:37:20Z</time></trkpt><trkpt lat="43.14443149240634" lon="11.895076196105599"><ele>248.0</ele><time>2026-04-19T07:37:21Z</time></trkpt><trkpt lat="43.14440085074364" lon="11.894982289068835"><ele>248.00000000000003</ele><time>2026-04-19T07:37:22Z</time></trkpt><trkpt lat="43.14436839506932" lon="11.894880504660527"><ele>248.0</ele><time>2026-04-19T07:37:23Z</time></trkpt><trkpt lat="43.14433108577212" lon="11.894771964426772"><ele>248.0</ele><time>2026-04-19T07:37:24Z</time></trkpt><trkpt lat="43.14428644250101" lon="11.894659642992394"><ele>248.0</ele><time>2026-04-19T07:37:25Z</time></trkpt><trkpt lat="43.14423105049536" lon="11.894548355450008"><ele>248.0</ele><time>2026-04-19T07:37:26Z</time></trkpt><trkpt lat="43.14416402017681" lon="11.894436981093994"><ele>248.0</ele><time>2026-04-19T07:37:27Z</time></trkpt><trkpt lat="43.144096427447174" lon="11.894322302532528"><ele>248.0</ele><time>2026-04-19T07:37:28Z</time></trkpt><trkpt lat="43.14402461357938" lon="11.89419398155198"><ele>248.0</ele><time>2026-04-19T07:37:29Z</time></trkpt><trkpt lat="43.14395103485628" lon="11.894058177107459"><ele>248.0</ele><time>2026-04-19T07:37:30Z</time></trkpt><trkpt lat="43.14387573220684" lon="11.89392421361401"><ele>248.0</ele><time>2026-04-19T07:37:31Z</time></trkpt><trkpt lat="43.14379615726094" lon="11.893779334591947"><ele>248.0</ele><time>2026-04-19T07:37:32Z</time></trkpt><trkpt lat="43.14371799553407" lon="11.893611639493665"><ele>248.0</ele><time>2026-04-19T07:37:33Z</time></trkpt><trkpt lat="43.1436487034676" lon="11.893401635891927"><ele>248.0</ele><time>2026-04-19T07:37:34Z</time></trkpt><trkpt lat="43.14359682823034" lon="11.89319078363457"><ele>248.0</ele><time>2026-04-19T07:37:35Z</time></trkpt><trkpt lat="43.14355255872381" lon="11.892993743784592"><ele>248.0</ele><time>2026-04-19T07:37:36Z</time></trkpt><trkpt lat="43.14350792362681" lon="11.89281572358376"><ele>248.0</ele><time>2026-04-19T07:37:37Z</time></trkpt><trkpt lat="43.14346255178617" lon="11.8926429462964"><ele>248.0</ele><time>2026-04-19T07:37:38Z</time></trkpt><trkpt lat="43.14342781354572" lon="11.892476682529438"><ele>248.0</ele><time>2026-04-19T07:37:39Z</time></trkpt><trkpt lat="43.1433777495529" lon="11.892295472433565"><ele>247.33333333333334</ele><time>2026-04-19T07:37:40Z</time></trkpt><trkpt lat="43.143326206511446" lon="11.89208214013252"><ele>246.66666666666669</ele><time>2026-04-19T07:37:41Z</time></trkpt><trkpt lat="43.14327032680866" lon="11.89185216269624"><ele>246.0</ele><time>2026-04-19T07:37:42Z</time></trkpt><trkpt lat="43.143213489287575" lon="11.89162335873353"><ele>247.33333333333331</ele><time>2026-04-19T07:37:43Z</time></trkpt><trkpt lat="43.14315651217819" lon="11.89139526170222"><ele>248.66666666666666</ele><time>2026-04-19T07:37:44Z</time></trkpt><trkpt lat="43.14309990868328" lon="11.891175058624006"><ele>250.0</ele><time>2026-04-19T07:37:45Z</time></trkpt><trkpt lat="43.1430518882145" lon="11.890974589967879"><ele>250.66666666666666</ele><time>2026-04-19T07:37:46Z</time></trkpt><trkpt lat="43.14299680935542" lon="11.890773929366373"><ele>251.33333333333331</ele><time>2026-04-19T07:37:47Z</time></trkpt><trkpt lat="43.142938873737116" lon="11.890554873653647"><ele>252.0</ele><time>2026-04-19T07:37:48Z</time></trkpt><trkpt lat="43.14288759644411" lon="11.890334029340183"><ele>252.0</ele><time>2026-04-19T07:37:49Z</time></trkpt><trkpt lat="43.14284241318087" lon="11.890093230299328"><ele>252.0</ele><time>2026-04-19T07:37:50Z</time></trkpt><trkpt lat="43.14276741677069" lon="11.889859091148878"><ele>252.0</ele><time>2026-04-19T07:37:51Z</time></trkpt><trkpt lat="43.142713740329775" lon="11.889612437372106"><ele>251.0</ele><time>2026-04-19T07:37:52Z</time></trkpt><trkpt lat="43.14264987760938" lon="11.889378931245654"><ele>250.0</ele><time>2026-04-19T07:37:53Z</time></trkpt><trkpt lat="43.14259772090589" lon="11.889161248270877"><ele>249.0</ele><time>2026-04-19T07:37:54Z</time></trkpt><trkpt lat="43.142546978902416" lon="11.888953852878704"><ele>249.0</ele><time>2026-04-19T07:37:55Z</time></trkpt><trkpt lat="43.14249041743414" lon="11.88873598307716"><ele>249.0</ele><time>2026-04-19T07:37:56Z</time></trkpt><trkpt lat="43.142428379096515" lon="11.888502061742178"><ele>249.0</ele><time>2026-04-19T07:37:57Z</time></trkpt><trkpt lat="43.14238222362961" lon="11.888245520287978"><ele>249.0</ele><time>2026-04-19T07:37:58Z</time></trkpt><trkpt lat="43.14231833194329" lon="11.8879859675378"><ele>249.0</ele><time>2026-04-19T07:37:59Z</time></trkpt><trkpt lat="43.14225156603814" lon="11.887720216627377"><ele>249.0</ele><time>2026-04-19T07:38:00Z</time></trkpt><trkpt lat="43.142184769694424" lon="11.887451500007705"><ele>249.33333333333331</ele><time>2026-04-19T07:38:01Z</time></trkpt><trkpt lat="43.14211670961382" lon="11.887176339527663"><ele>249.66666666666666</ele><time>2026-04-19T07:38:02Z</time></trkpt><trkpt lat="43.14205006149761" lon="11.886906075505337"><ele>250.0</ele><time>2026-04-19T07:38:03Z</time></trkpt><trkpt lat="43.141983277871546" lon="11.886635262003285"><ele>249.33333333333331</ele><time>2026-04-19T07:38:04Z</time></trkpt><trkpt lat="43.14191673329318" lon="11.886365417865013"><ele>248.66666666666669</ele><time>2026-04-19T07:38:05Z</time></trkpt><trkpt lat="43.141847569195455" lon="11.886087634560528"><ele>248.0</ele><time>2026-04-19T07:38:06Z</time></trkpt><trkpt lat="43.14178277832307" lon="11.885829588131207"><ele>248.33333333333334</ele><time>2026-04-19T07:38:07Z</time></trkpt><trkpt lat="43.141720157957415" lon="11.885580186357526"><ele>248.66666666666669</ele><time>2026-04-19T07:38:08Z</time></trkpt><trkpt lat="43.141656255095945" lon="11.885325676685593"><ele>249.0</ele><time>2026-04-19T07:38:09Z</time></trkpt><trkpt lat="43.141592144222436" lon="11.885070338551389"><ele>249.33333333333331</ele><time>2026-04-19T07:38:10Z</time></trkpt><trkpt lat="43.1415287307299" lon="11.88482140311158"><ele>249.66666666666666</ele><time>2026-04-19T07:38:11Z</time></trkpt><trkpt lat="43.14145321519693" lon="11.88459326690856"><ele>250.0</ele><time>2026-04-19T07:38:12Z</time></trkpt><trkpt lat="43.14140196720225" lon="11.884363895404082"><ele>249.66666666666666</ele><time>2026-04-19T07:38:13Z</time></trkpt><trkpt lat="43.1413711709545" lon="11.884130395362222"><ele>249.33333333333331</ele><time>2026-04-19T07:38:14Z</time></trkpt><trkpt lat="43.14133138699599" lon="11.883897544988493"><ele>249.0</ele><time>2026-04-19T07:38:15Z</time></trkpt><trkpt lat="43.14130046087958" lon="11.883661919280158"><ele>249.0</ele><time>2026-04-19T07:38:16Z</time></trkpt><trkpt lat="43.1412605940054" lon="11.88343083961001"><ele>249.0</ele><time>2026-04-19T07:38:17Z</time></trkpt><trkpt lat="43.141244178594384" lon="11.883194939379084"><ele>249.0</ele><time>2026-04-19T07:38:18Z</time></trkpt><trkpt lat="43.14123534803702" lon="11.882961999461646"><ele>248.66666666666669</ele><time>2026-04-19T07:38:19Z</time></trkpt><trkpt lat="43.14123396743101" lon="11.882729461876083"><ele>248.33333333333334</ele><time>2026-04-19T07:38:20Z</time></trkpt><trkpt lat="43.141259896317095" lon="11.882501075159936"><ele>248.0</ele><time>2026-04-19T07:38:21Z</time></trkpt><trkpt lat="43.1412782706312" lon="11.88226816869265"><ele>248.0</ele><time>2026-04-19T07:38:22Z</time></trkpt><trkpt lat="43.141297227829384" lon="11.882033149661016"><ele>248.0</ele><time>2026-04-19T07:38:23Z</time></trkpt><trkpt lat="43.14130155642594" lon="11.881796852490764"><ele>248.0</ele><time>2026-04-19T07:38:24Z</time></trkpt><trkpt lat="43.14132135354457" lon="11.881565059665258"><ele>248.33333333333334</ele><time>2026-04-19T07:38:25Z</time></trkpt><trkpt lat="43.14134176405447" lon="11.881326682694304"><ele>248.66666666666669</ele><time>2026-04-19T07:38:26Z</time></trkpt><trkpt lat="43.141365939903395" lon="11.881073284285637"><ele>249.0</ele><time>2026-04-19T07:38:27Z</time></trkpt><trkpt lat="43.14138912126971" lon="11.880794168289043"><ele>249.0</ele><time>2026-04-19T07:38:28Z</time></trkpt><trkpt lat="43.141417510972104" lon="11.880500324256914"><ele>249.0</ele><time>2026-04-19T07:38:29Z</time></trkpt><trkpt lat="43.141454566883596" lon="11.880193314573441"><ele>249.0</ele><time>2026-04-19T07:38:30Z</time></trkpt><trkpt lat="43.14149227148265" lon="11.879870303100269"><ele>249.0</ele><time>2026-04-19T07:38:31Z</time></trkpt><trkpt lat="43.141534342021586" lon="11.879538204596244"><ele>249.0</ele><time>2026-04-19T07:38:32Z</time></trkpt><trkpt lat="43.141580597308256" lon="11.879202479400929"><ele>248.5</ele><time>2026-04-19T07:38:33Z</time></trkpt><trkpt lat="43.141625967111445" lon="11.878862910215943"><ele>248.0</ele><time>2026-04-19T07:38:34Z</time></trkpt><trkpt lat="43.14167023039139" lon="11.87852138278052"><ele>248.0</ele><time>2026-04-19T07:38:35Z</time></trkpt><trkpt lat="43.141715170027204" lon="11.878182862484842"><ele>248.0</ele><time>2026-04-19T07:38:36Z</time></trkpt><trkpt lat="43.14176028621703" lon="11.87784886353885"><ele>248.5</ele><time>2026-04-19T07:38:37Z</time></trkpt><trkpt lat="43.14180354497326" lon="11.877517270028681"><ele>249.0</ele><time>2026-04-19T07:38:38Z</time></trkpt><trkpt lat="43.14184831580162" lon="11.877197061271902"><ele>249.0</ele><time>2026-04-19T07:38:39Z</time></trkpt><trkpt lat="43.14188658063946" lon="11.876898036581721"><ele>249.0</ele><time>2026-04-19T07:38:40Z</time></trkpt><trkpt lat="43.14192479527085" lon="11.876614175398522"><ele>249.0</ele><time>2026-04-19T07:38:41Z</time></trkpt><trkpt lat="43.14196247864935" lon="11.876332579449183"><ele>249.33333333333331</ele><time>2026-04-19T07:38:42.001Z</time></trkpt><trkpt lat="43.1419989138467" lon="11.876064277387982"><ele>249.66666666666666</ele><time>2026-04-19T07:38:43.001Z</time></trkpt><trkpt lat="43.14203635464634" lon="11.875805935072353"><ele>250.0</ele><time>2026-04-19T07:38:44.001Z</time></trkpt><trkpt lat="43.14207724094494" lon="11.875549651956732"><ele>250.0</ele><time>2026-04-19T07:38:45.001Z</time></trkpt><trkpt lat="43.14212296294172" lon="11.875286792103735"><ele>250.0</ele><time>2026-04-19T07:38:46.001Z</time></trkpt><trkpt lat="43.142175958659834" lon="11.875017437841397"><ele>250.0</ele><time>2026-04-19T07:38:47.001Z</time></trkpt><trkpt lat="43.14223532741779" lon="11.87473929245729"><ele>250.0</ele><time>2026-04-19T07:38:48.001Z</time></trkpt><trkpt lat="43.142294758561434" lon="11.874447863224626"><ele>250.0</ele><time>2026-04-19T07:38:49.001Z</time></trkpt><trkpt lat="43.14234229617638" lon="11.874147273300725"><ele>250.0</ele><time>2026-04-19T07:38:50.001Z</time></trkpt><trkpt lat="43.14238110867025" lon="11.873842429911745"><ele>249.5</ele><time>2026-04-19T07:38:51.001Z</time></trkpt><trkpt lat="43.142414993017574" lon="11.87353203009559"><ele>249.0</ele><time>2026-04-19T07:38:52.001Z</time></trkpt><trkpt lat="43.14244885943267" lon="11.873216513672253"><ele>249.0</ele><time>2026-04-19T07:38:53.001Z</time></trkpt><trkpt lat="43.142480877611504" lon="11.872902932277524"><ele>249.0</ele><time>2026-04-19T07:38:54.001Z</time></trkpt><trkpt lat="43.14251214792227" lon="11.872586515041762"><ele>249.0</ele><time>2026-04-19T07:38:55.001Z</time></trkpt><trkpt lat="43.14253579085755" lon="11.872269227606226"><ele>249.0</ele><time>2026-04-19T07:38:56.001Z</time></trkpt><trkpt lat="43.142556006356365" lon="11.87195105277236"><ele>249.5</ele><time>2026-04-19T07:38:57.001Z</time></trkpt><trkpt lat="43.14257855129873" lon="11.871631304323621"><ele>250.0</ele><time>2026-04-19T07:38:58.001Z</time></trkpt><trkpt lat="43.142603725967085" lon="11.871314008658205"><ele>250.0</ele><time>2026-04-19T07:38:59.001Z</time></trkpt><trkpt lat="43.142630019039565" lon="11.871000280659938"><ele>250.0</ele><time>2026-04-19T07:39:00.001Z</time></trkpt><trkpt lat="43.14265820163766" lon="11.870689701149965"><ele>250.0</ele><time>2026-04-19T07:39:01.001Z</time></trkpt><trkpt lat="43.14268495149571" lon="11.870386624493793"><ele>250.0</ele><time>2026-04-19T07:39:02.001Z</time></trkpt><trkpt lat="43.14271128486354" lon="11.870100686938201"><ele>250.0</ele><time>2026-04-19T07:39:03Z</time></trkpt><trkpt lat="43.14273854766454" lon="11.869827965602191"><ele>250.0</ele><time>2026-04-19T07:39:04Z</time></trkpt><trkpt lat="43.142757109139765" lon="11.869562339645022"><ele>250.0</ele><time>2026-04-19T07:39:05Z</time></trkpt><trkpt lat="43.14278150600048" lon="11.86928979982279"><ele>250.0</ele><time>2026-04-19T07:39:06Z</time></trkpt><trkpt lat="43.14280659433772" lon="11.869011920403132"><ele>250.0</ele><time>2026-04-19T07:39:07Z</time></trkpt><trkpt lat="43.14283130549022" lon="11.868729534029885"><ele>250.0</ele><time>2026-04-19T07:39:08Z</time></trkpt><trkpt lat="43.142855428920726" lon="11.868448306757477"><ele>250.0</ele><time>2026-04-19T07:39:09Z</time></trkpt><trkpt lat="43.142873063740986" lon="11.868184580194242"><ele>250.66666666666666</ele><time>2026-04-19T07:39:10Z</time></trkpt><trkpt lat="43.14288289925679" lon="11.867938894182666"><ele>251.33333333333331</ele><time>2026-04-19T07:39:11Z</time></trkpt><trkpt lat="43.14286744726428" lon="11.867706527573633"><ele>252.0</ele><time>2026-04-19T07:39:12Z</time></trkpt><trkpt lat="43.14282261724142" lon="11.867480150928682"><ele>252.0</ele><time>2026-04-19T07:39:13Z</time></trkpt><trkpt lat="43.14274861630881" lon="11.867259836785612"><ele>252.0</ele><time>2026-04-19T07:39:14Z</time></trkpt><trkpt lat="43.142647579347084" lon="11.867043801344074"><ele>252.0</ele><time>2026-04-19T07:39:15Z</time></trkpt><trkpt lat="43.14253092827616" lon="11.866831309946853"><ele>252.0</ele><time>2026-04-19T07:39:16Z</time></trkpt><trkpt lat="43.14240932409572" lon="11.866614872760948"><ele>252.0</ele><time>2026-04-19T07:39:17Z</time></trkpt><trkpt lat="43.14230050145688" lon="11.866408089621004"><ele>252.0</ele><time>2026-04-19T07:39:18Z</time></trkpt><trkpt lat="43.14219804596973" lon="11.866216341341088"><ele>252.0</ele><time>2026-04-19T07:39:19Z</time></trkpt><trkpt lat="43.142094234882066" lon="11.866042194010024"><ele>252.0</ele><time>2026-04-19T07:39:20Z</time></trkpt><trkpt lat="43.14198264715014" lon="11.865890386884994"><ele>252.0</ele><time>2026-04-19T07:39:21Z</time></trkpt><trkpt lat="43.141852743447004" lon="11.865765043248695"><ele>252.0</ele><time>2026-04-19T07:39:22Z</time></trkpt><trkpt lat="43.14170953239707" lon="11.8656728931406"><ele>252.0</ele><time>2026-04-19T07:39:23Z</time></trkpt><trkpt lat="43.141563292155475" lon="11.865585818050116"><ele>252.0</ele><time>2026-04-19T07:39:24Z</time></trkpt><trkpt lat="43.141421485376824" lon="11.865502773497306"><ele>252.0</ele><time>2026-04-19T07:39:25Z</time></trkpt><trkpt lat="43.14127949931828" lon="11.86541561684663"><ele>252.0</ele><time>2026-04-19T07:39:26Z</time></trkpt><trkpt lat="43.14113366859201" lon="11.865322305328277"><ele>252.0</ele><time>2026-04-19T07:39:27Z</time></trkpt><trkpt lat="43.14098348160207" lon="11.8652235242247"><ele>252.0</ele><time>2026-04-19T07:39:28Z</time></trkpt><trkpt lat="43.14084616308489" lon="11.86512533814044"><ele>252.0</ele><time>2026-04-19T07:39:29Z</time></trkpt><trkpt lat="43.140720525502395" lon="11.865013032768733"><ele>252.0</ele><time>2026-04-19T07:39:30Z</time></trkpt><trkpt lat="43.140599110109" lon="11.86487065508411"><ele>252.0</ele><time>2026-04-19T07:39:31Z</time></trkpt><trkpt lat="43.1404874873476" lon="11.864701896291495"><ele>252.0</ele><time>2026-04-19T07:39:32Z</time></trkpt><trkpt lat="43.140380960046485" lon="11.864522351717063"><ele>252.0</ele><time>2026-04-19T07:39:33Z</time></trkpt><trkpt lat="43.14026207360418" lon="11.864337783437453"><ele>252.66666666666669</ele><time>2026-04-19T07:39:34Z</time></trkpt><trkpt lat="43.14013233993716" lon="11.864160759871062"><ele>253.33333333333334</ele><time>2026-04-19T07:39:35Z</time></trkpt><trkpt lat="43.13999096939354" lon="11.863986787477817"><ele>254.0</ele><time>2026-04-19T07:39:36Z</time></trkpt><trkpt lat="43.139845640655324" lon="11.863814540087247"><ele>254.0</ele><time>2026-04-19T07:39:37Z</time></trkpt><trkpt lat="43.139700934692186" lon="11.863640092051089"><ele>254.0</ele><time>2026-04-19T07:39:38Z</time></trkpt><trkpt lat="43.139562152495486" lon="11.863465374031202"><ele>254.0</ele><time>2026-04-19T07:39:39Z</time></trkpt><trkpt lat="43.13942083060052" lon="11.863293616546953"><ele>254.0</ele><time>2026-04-19T07:39:40Z</time></trkpt><trkpt lat="43.139280167851254" lon="11.863130129934861"><ele>254.0</ele><time>2026-04-19T07:39:41Z</time></trkpt><trkpt lat="43.13915517478582" lon="11.862975915545276"><ele>254.0</ele><time>2026-04-19T07:39:42Z</time></trkpt><trkpt lat="43.13904062072124" lon="11.862823302814798"><ele>253.66666666666669</ele><time>2026-04-19T07:39:43Z</time></trkpt><trkpt lat="43.13893470686358" lon="11.862649932238226"><ele>253.33333333333331</ele><time>2026-04-19T07:39:44Z</time></trkpt><trkpt lat="43.13884406083404" lon="11.862459918210337"><ele>253.0</ele><time>2026-04-19T07:39:45Z</time></trkpt><trkpt lat="43.13876128753544" lon="11.862265699479146"><ele>253.66666666666666</ele><time>2026-04-19T07:39:46Z</time></trkpt><trkpt lat="43.138681943927224" lon="11.8620789387302"><ele>254.33333333333331</ele><time>2026-04-19T07:39:47Z</time></trkpt><trkpt lat="43.138599008378826" lon="11.861886961184664"><ele>255.0</ele><time>2026-04-19T07:39:48Z</time></trkpt><trkpt lat="43.13850901416016" lon="11.861679556511875"><ele>255.66666666666669</ele><time>2026-04-19T07:39:49Z</time></trkpt><trkpt lat="43.138415257538576" lon="11.8614667645534"><ele>256.33333333333337</ele><time>2026-04-19T07:39:50Z</time></trkpt><trkpt lat="43.138328333190124" lon="11.861263082069877"><ele>257.0</ele><time>2026-04-19T07:39:51Z</time></trkpt><trkpt lat="43.13826193560889" lon="11.861059766327132"><ele>256.6666666666667</ele><time>2026-04-19T07:39:52Z</time></trkpt><trkpt lat="43.138229581344646" lon="11.860849201314277"><ele>256.3333333333333</ele><time>2026-04-19T07:39:53Z</time></trkpt><trkpt lat="43.13824081920837" lon="11.860641963662161"><ele>256.0</ele><time>2026-04-19T07:39:54Z</time></trkpt><trkpt lat="43.13828260377231" lon="11.860434249499011"><ele>256.0</ele><time>2026-04-19T07:39:55Z</time></trkpt><trkpt lat="43.13833025350914" lon="11.86022127532924"><ele>256.0</ele><time>2026-04-19T07:39:56Z</time></trkpt><trkpt lat="43.13837208608422" lon="11.860008747176854"><ele>256.0</ele><time>2026-04-19T07:39:57Z</time></trkpt><trkpt lat="43.13841035471526" lon="11.859801119112788"><ele>256.25</ele><time>2026-04-19T07:39:58Z</time></trkpt><trkpt lat="43.13844953300203" lon="11.85959969592904"><ele>256.5</ele><time>2026-04-19T07:39:59Z</time></trkpt><trkpt lat="43.13848878141949" lon="11.859399003783313"><ele>256.75</ele><time>2026-04-19T07:40:00Z</time></trkpt><trkpt lat="43.13852419857767" lon="11.859208741823558"><ele>257.0</ele><time>2026-04-19T07:40:01Z</time></trkpt><trkpt lat="43.13855509505124" lon="11.85902499039838"><ele>257.0</ele><time>2026-04-19T07:40:02Z</time></trkpt><trkpt lat="43.13858218069359" lon="11.858847291155303"><ele>257.0</ele><time>2026-04-19T07:40:03Z</time></trkpt><trkpt lat="43.13859193076601" lon="11.858686156172283"><ele>257.0</ele><time>2026-04-19T07:40:04Z</time></trkpt><trkpt lat="43.13857899296195" lon="11.858538236503962"><ele>257.0</ele><time>2026-04-19T07:40:05Z</time></trkpt><trkpt lat="43.13854452565806" lon="11.858389022554007"><ele>257.0</ele><time>2026-04-19T07:40:06Z</time></trkpt><trkpt lat="43.138485551669575" lon="11.858222992176703"><ele>257.0</ele><time>2026-04-19T07:40:07Z</time></trkpt><trkpt lat="43.1384068262079" lon="11.858050610348274"><ele>257.0</ele><time>2026-04-19T07:40:08Z</time></trkpt><trkpt lat="43.13832781719521" lon="11.857897776778742"><ele>257.0</ele><time>2026-04-19T07:40:09Z</time></trkpt><trkpt lat="43.13826420534738" lon="11.857758416971237"><ele>256.75</ele><time>2026-04-19T07:40:10Z</time></trkpt><trkpt lat="43.1382060546587" lon="11.857600141852346"><ele>256.5</ele><time>2026-04-19T07:40:11Z</time></trkpt><trkpt lat="43.13815531433911" lon="11.857414275819842"><ele>256.25</ele><time>2026-04-19T07:40:12Z</time></trkpt><trkpt lat="43.13811922321847" lon="11.857207432923317"><ele>256.0</ele><time>2026-04-19T07:40:13Z</time></trkpt><trkpt lat="43.138088331078976" lon="11.856978813824611"><ele>256.0</ele><time>2026-04-19T07:40:14Z</time></trkpt><trkpt lat="43.13805683832323" lon="11.85675059343799"><ele>256.0</ele><time>2026-04-19T07:40:15Z</time></trkpt><trkpt lat="43.13803406290812" lon="11.85653511061617"><ele>256.0</ele><time>2026-04-19T07:40:16Z</time></trkpt><trkpt lat="43.138009128002686" lon="11.856326936464592"><ele>256.0</ele><time>2026-04-19T07:40:17Z</time></trkpt><trkpt lat="43.1379802085304" lon="11.856117051163286"><ele>256.0</ele><time>2026-04-19T07:40:18Z</time></trkpt><trkpt lat="43.13795133960399" lon="11.855904294561933"><ele>256.0</ele><time>2026-04-19T07:40:19Z</time></trkpt><trkpt lat="43.13792491217628" lon="11.85569263890101"><ele>256.5</ele><time>2026-04-19T07:40:20Z</time></trkpt><trkpt lat="43.1378995851559" lon="11.855489707188207"><ele>257.0</ele><time>2026-04-19T07:40:21Z</time></trkpt><trkpt lat="43.13787230273536" lon="11.85529411783483"><ele>257.5</ele><time>2026-04-19T07:40:22Z</time></trkpt><trkpt lat="43.13784609893395" lon="11.855111127596924"><ele>258.0</ele><time>2026-04-19T07:40:23Z</time></trkpt><trkpt lat="43.13782044815951" lon="11.854950179741529"><ele>258.2</ele><time>2026-04-19T07:40:24Z</time></trkpt><trkpt lat="43.13779628931507" lon="11.854789386978856"><ele>258.4</ele><time>2026-04-19T07:40:25Z</time></trkpt><trkpt lat="43.13777723506612" lon="11.854633450563664"><ele>258.59999999999997</ele><time>2026-04-19T07:40:26Z</time></trkpt><trkpt lat="43.13775638826415" lon="11.854494598778507"><ele>258.8</ele><time>2026-04-19T07:40:27Z</time></trkpt><trkpt lat="43.13773541307094" lon="11.854363627036236"><ele>259.0</ele><time>2026-04-19T07:40:28Z</time></trkpt><trkpt lat="43.137715400618326" lon="11.854252427192304"><ele>259.2</ele><time>2026-04-19T07:40:29Z</time></trkpt><trkpt lat="43.13769922519409" lon="11.854141763652494"><ele>259.4</ele><time>2026-04-19T07:40:30Z</time></trkpt><trkpt lat="43.13768115668997" lon="11.854003084160954"><ele>259.6</ele><time>2026-04-19T07:40:31Z</time></trkpt><trkpt lat="43.13766168912259" lon="11.85384778752443"><ele>259.8</ele><time>2026-04-19T07:40:32Z</time></trkpt><trkpt lat="43.13764079054775" lon="11.853679399484939"><ele>260.0</ele><time>2026-04-19T07:40:33Z</time></trkpt><trkpt lat="43.137613690163754" lon="11.853503272918143"><ele>260.25</ele><time>2026-04-19T07:40:34Z</time></trkpt><trkpt lat="43.13758519725878" lon="11.85332226780859"><ele>260.5</ele><time>2026-04-19T07:40:35Z</time></trkpt><trkpt lat="43.13755389252689" lon="11.85312909951089"><ele>260.75</ele><time>2026-04-19T07:40:36Z</time></trkpt><trkpt lat="43.13751624508612" lon="11.852926618616944"><ele>261.0</ele><time>2026-04-19T07:40:37Z</time></trkpt><trkpt lat="43.13747408110121" lon="11.852719481345229"><ele>261.3333333333333</ele><time>2026-04-19T07:40:38Z</time></trkpt><trkpt lat="43.13742909326529" lon="11.852509563144087"><ele>261.66666666666663</ele><time>2026-04-19T07:40:39Z</time></trkpt><trkpt lat="43.13738129586363" lon="11.852296697586365"><ele>262.0</ele><time>2026-04-19T07:40:40Z</time></trkpt><trkpt lat="43.13733453602001" lon="11.852086635766154"><ele>262.3333333333333</ele><time>2026-04-19T07:40:41Z</time></trkpt><trkpt lat="43.13728917555253" lon="11.851877045597858"><ele>262.6666666666667</ele><time>2026-04-19T07:40:42Z</time></trkpt><trkpt lat="43.13724114486936" lon="11.851666861192477"><ele>263.0</ele><time>2026-04-19T07:40:43Z</time></trkpt><trkpt lat="43.13718687991955" lon="11.851452212530932"><ele>263.0</ele><time>2026-04-19T07:40:44Z</time></trkpt><trkpt lat="43.13712597429108" lon="11.851245996734901"><ele>263.0</ele><time>2026-04-19T07:40:45.001Z</time></trkpt><trkpt lat="43.13706717224918" lon="11.851063100120543"><ele>263.0</ele><time>2026-04-19T07:40:46.001Z</time></trkpt><trkpt lat="43.13701293743113" lon="11.850898546495207"><ele>263.0</ele><time>2026-04-19T07:40:47.001Z</time></trkpt><trkpt lat="43.136967077830164" lon="11.850757297151342"><ele>263.2</ele><time>2026-04-19T07:40:48.001Z</time></trkpt><trkpt lat="43.13693095403008" lon="11.850634132713004"><ele>263.4</ele><time>2026-04-19T07:40:49.001Z</time></trkpt><trkpt lat="43.1369026220302" lon="11.85052971940424"><ele>263.59999999999997</ele><time>2026-04-19T07:40:50.001Z</time></trkpt><trkpt lat="43.13689308012364" lon="11.850418616481038"><ele>263.8</ele><time>2026-04-19T07:40:51.001Z</time></trkpt><trkpt lat="43.13678539486951" lon="11.85032744352527"><ele>264.0</ele><time>2026-04-19T07:40:52.001Z</time></trkpt><trkpt lat="43.13670299064101" lon="11.850219044622296"><ele>264.0</ele><time>2026-04-19T07:40:53.001Z</time></trkpt><trkpt lat="43.13660936455639" lon="11.850104600391678"><ele>264.0</ele><time>2026-04-19T07:40:54.001Z</time></trkpt><trkpt lat="43.13651025774491" lon="11.849982882788995"><ele>264.0</ele><time>2026-04-19T07:40:55.001Z</time></trkpt><trkpt lat="43.13640842289237" lon="11.849855817813346"><ele>264.0</ele><time>2026-04-19T07:40:56.001Z</time></trkpt><trkpt lat="43.13630403877857" lon="11.849718636393218"><ele>265.3333333333333</ele><time>2026-04-19T07:40:57.001Z</time></trkpt><trkpt lat="43.13619649204845" lon="11.849573837985306"><ele>266.66666666666663</ele><time>2026-04-19T07:40:58.001Z</time></trkpt><trkpt lat="43.136081832357945" lon="11.849426009506386"><ele>268.0</ele><time>2026-04-19T07:40:59.001Z</time></trkpt><trkpt lat="43.13596156285525" lon="11.849273784499864"><ele>268.3333333333333</ele><time>2026-04-19T07:41:00.001Z</time></trkpt><trkpt lat="43.1358365530673" lon="11.849119973903937"><ele>268.6666666666667</ele><time>2026-04-19T07:41:01.001Z</time></trkpt><trkpt lat="43.135705941272384" lon="11.848964745365576"><ele>269.0</ele><time>2026-04-19T07:41:02.001Z</time></trkpt><trkpt lat="43.135563140302075" lon="11.848807234209776"><ele>269.0</ele><time>2026-04-19T07:41:03.001Z</time></trkpt><trkpt lat="43.135421386979125" lon="11.848654174954325"><ele>269.0</ele><time>2026-04-19T07:41:04.001Z</time></trkpt><trkpt lat="43.1352868196061" lon="11.848506172593206"><ele>269.0</ele><time>2026-04-19T07:41:05.001Z</time></trkpt><trkpt lat="43.13516633876529" lon="11.848371256659519"><ele>269.33333333333337</ele><time>2026-04-19T07:41:06.001Z</time></trkpt><trkpt lat="43.13505108092921" lon="11.848229657381586"><ele>269.6666666666667</ele><time>2026-04-19T07:41:07.001Z</time></trkpt><trkpt lat="43.134942635957906" lon="11.848080935794998"><ele>270.0</ele><time>2026-04-19T07:41:08.001Z</time></trkpt><trkpt lat="43.13483056648216" lon="11.847925620428963"><ele>270.0</ele><time>2026-04-19T07:41:09Z</time></trkpt><trkpt lat="43.13471921544869" lon="11.847773915513299"><ele>270.0</ele><time>2026-04-19T07:41:10Z</time></trkpt><trkpt lat="43.13461312786044" lon="11.84761539997372"><ele>270.0</ele><time>2026-04-19T07:41:11Z</time></trkpt><trkpt lat="43.134509548737356" lon="11.847464864768279"><ele>270.3333333333333</ele><time>2026-04-19T07:41:12Z</time></trkpt><trkpt lat="43.13440849089976" lon="11.847327339684387"><ele>270.66666666666663</ele><time>2026-04-19T07:41:13Z</time></trkpt><trkpt lat="43.13429864864595" lon="11.847172668221718"><ele>271.0</ele><time>2026-04-19T07:41:14Z</time></trkpt><trkpt lat="43.134192077854955" lon="11.847002668426319"><ele>271.0</ele><time>2026-04-19T07:41:15Z</time></trkpt><trkpt lat="43.13409513252129" lon="11.8468223633409"><ele>271.0</ele><time>2026-04-19T07:41:16Z</time></trkpt><trkpt lat="43.13400123943549" lon="11.846641323780373"><ele>271.0</ele><time>2026-04-19T07:41:17Z</time></trkpt><trkpt lat="43.13391475722092" lon="11.846448989460113"><ele>271.3333333333333</ele><time>2026-04-19T07:41:18Z</time></trkpt><trkpt lat="43.13383241039403" lon="11.846265394513173"><ele>271.6666666666667</ele><time>2026-04-19T07:41:19Z</time></trkpt><trkpt lat="43.13375026673174" lon="11.846080897077721"><ele>272.0</ele><time>2026-04-19T07:41:20Z</time></trkpt><trkpt lat="43.1336636707276" lon="11.845902173854402"><ele>271.33333333333337</ele><time>2026-04-19T07:41:21Z</time></trkpt><trkpt lat="43.13356477858425" lon="11.845727279353314"><ele>270.6666666666667</ele><time>2026-04-19T07:41:22Z</time></trkpt><trkpt lat="43.13346071784854" lon="11.845551888967034"><ele>270.0</ele><time>2026-04-19T07:41:23Z</time></trkpt><trkpt lat="43.13334347979934" lon="11.845373240977523"><ele>270.0</ele><time>2026-04-19T07:41:24Z</time></trkpt><trkpt lat="43.13322315423338" lon="11.845195389942667"><ele>270.0</ele><time>2026-04-19T07:41:25Z</time></trkpt><trkpt lat="43.13310583134768" lon="11.845021626505737"><ele>270.0</ele><time>2026-04-19T07:41:26Z</time></trkpt><trkpt lat="43.13299727153008" lon="11.844860733258844"><ele>271.6666666666667</ele><time>2026-04-19T07:41:27Z</time></trkpt><trkpt lat="43.13289312454909" lon="11.844711275157474"><ele>273.33333333333337</ele><time>2026-04-19T07:41:28Z</time></trkpt><trkpt lat="43.132784131282364" lon="11.844558869652055"><ele>275.0</ele><time>2026-04-19T07:41:29Z</time></trkpt><trkpt lat="43.13267532459516" lon="11.844401957227424"><ele>275.0</ele><time>2026-04-19T07:41:30Z</time></trkpt><trkpt lat="43.13256651137976" lon="11.844239483039098"><ele>275.0</ele><time>2026-04-19T07:41:31Z</time></trkpt><trkpt lat="43.13245378236307" lon="11.844075812138783"><ele>275.0</ele><time>2026-04-19T07:41:32Z</time></trkpt><trkpt lat="43.132335422591595" lon="11.843906802523707"><ele>275.33333333333337</ele><time>2026-04-19T07:41:33Z</time></trkpt><trkpt lat="43.13221846578611" lon="11.843734356418848"><ele>275.6666666666667</ele><time>2026-04-19T07:41:34Z</time></trkpt><trkpt lat="43.132107216090915" lon="11.843571540350865"><ele>276.0</ele><time>2026-04-19T07:41:35Z</time></trkpt><trkpt lat="43.132003888824094" lon="11.843406222273593"><ele>275.0</ele><time>2026-04-19T07:41:36Z</time></trkpt><trkpt lat="43.13190290139237" lon="11.84323964278134"><ele>274.0</ele><time>2026-04-19T07:41:37Z</time></trkpt><trkpt lat="43.131802974865856" lon="11.84306030345752"><ele>273.0</ele><time>2026-04-19T07:41:38Z</time></trkpt><trkpt lat="43.13170497566992" lon="11.842875572634576"><ele>273.0</ele><time>2026-04-19T07:41:39Z</time></trkpt><trkpt lat="43.131604318838455" lon="11.842695748287442"><ele>273.0</ele><time>2026-04-19T07:41:40Z</time></trkpt><trkpt lat="43.13150244528143" lon="11.84251125384196"><ele>273.0</ele><time>2026-04-19T07:41:41Z</time></trkpt><trkpt lat="43.13139444752899" lon="11.842322746790773"><ele>273.6666666666667</ele><time>2026-04-19T07:41:42Z</time></trkpt><trkpt lat="43.13127910784324" lon="11.84213448000305"><ele>274.33333333333337</ele><time>2026-04-19T07:41:43Z</time></trkpt><trkpt lat="43.1311606098757" lon="11.841945898675469"><ele>275.0</ele><time>2026-04-19T07:41:44Z</time></trkpt><trkpt lat="43.13104675492835" lon="11.841768197048301"><ele>275.33333333333337</ele><time>2026-04-19T07:41:45Z</time></trkpt><trkpt lat="43.13094010258904" lon="11.841599227075584"><ele>275.6666666666667</ele><time>2026-04-19T07:41:46Z</time></trkpt><trkpt lat="43.13083011193079" lon="11.841427215030764"><ele>276.0</ele><time>2026-04-19T07:41:47Z</time></trkpt><trkpt lat="43.13071894007461" lon="11.84125283957292"><ele>275.3333333333333</ele><time>2026-04-19T07:41:48Z</time></trkpt><trkpt lat="43.130614960235015" lon="11.841093180061852"><ele>274.66666666666663</ele><time>2026-04-19T07:41:49Z</time></trkpt><trkpt lat="43.13051468177899" lon="11.840936583102325"><ele>274.0</ele><time>2026-04-19T07:41:50Z</time></trkpt><trkpt lat="43.13040834414" lon="11.840780931717918"><ele>275.66666666666663</ele><time>2026-04-19T07:41:51Z</time></trkpt><trkpt lat="43.13029463684292" lon="11.840624476830154"><ele>277.3333333333333</ele><time>2026-04-19T07:41:52Z</time></trkpt><trkpt lat="43.13017525946079" lon="11.840468702566952"><ele>279.0</ele><time>2026-04-19T07:41:53Z</time></trkpt><trkpt lat="43.13005402952321" lon="11.840321246914643"><ele>279.0</ele><time>2026-04-19T07:41:54Z</time></trkpt><trkpt lat="43.1299328554048" lon="11.840178615728142"><ele>279.0</ele><time>2026-04-19T07:41:55Z</time></trkpt><trkpt lat="43.12980382406208" lon="11.840036135824738"><ele>279.0</ele><time>2026-04-19T07:41:56Z</time></trkpt><trkpt lat="43.12967044702726" lon="11.839891384450386"><ele>279.0</ele><time>2026-04-19T07:41:57Z</time></trkpt><trkpt lat="43.12953482933271" lon="11.839743468913245"><ele>279.0</ele><time>2026-04-19T07:41:58Z</time></trkpt><trkpt lat="43.129401506932254" lon="11.839591184754422"><ele>279.0</ele><time>2026-04-19T07:41:59Z</time></trkpt><trkpt lat="43.12926733939855" lon="11.839437618108006"><ele>279.0</ele><time>2026-04-19T07:42:00Z</time></trkpt><trkpt lat="43.12914494111367" lon="11.839278916513603"><ele>279.0</ele><time>2026-04-19T07:42:01Z</time></trkpt><trkpt lat="43.12904144900864" lon="11.83910622827"><ele>279.0</ele><time>2026-04-19T07:42:02Z</time></trkpt><trkpt lat="43.128930081376794" lon="11.838934539871206"><ele>279.0</ele><time>2026-04-19T07:42:03Z</time></trkpt><trkpt lat="43.12881877716522" lon="11.838752314049568"><ele>279.0</ele><time>2026-04-19T07:42:04Z</time></trkpt><trkpt lat="43.12870186251638" lon="11.838574126801857"><ele>279.0</ele><time>2026-04-19T07:42:05Z</time></trkpt><trkpt lat="43.12860540368954" lon="11.83839202893446"><ele>280.3333333333333</ele><time>2026-04-19T07:42:06Z</time></trkpt><trkpt lat="43.12851383937478" lon="11.838225581178284"><ele>281.66666666666663</ele><time>2026-04-19T07:42:07Z</time></trkpt><trkpt lat="43.12842232682786" lon="11.838062392855184"><ele>283.0</ele><time>2026-04-19T07:42:08Z</time></trkpt><trkpt lat="43.12832743557158" lon="11.837906871038983"><ele>283.66666666666663</ele><time>2026-04-19T07:42:09Z</time></trkpt><trkpt lat="43.128215989614695" lon="11.837759994707781"><ele>284.3333333333333</ele><time>2026-04-19T07:42:10Z</time></trkpt><trkpt lat="43.12808155278894" lon="11.837628926801724"><ele>285.0</ele><time>2026-04-19T07:42:11Z</time></trkpt><trkpt lat="43.1279260772193" lon="11.837509212322983"><ele>287.0</ele><time>2026-04-19T07:42:12Z</time></trkpt><trkpt lat="43.12776256943089" lon="11.837397467730273"><ele>289.0</ele><time>2026-04-19T07:42:13Z</time></trkpt><trkpt lat="43.12759976622412" lon="11.837281280695755"><ele>291.0</ele><time>2026-04-19T07:42:14Z</time></trkpt><trkpt lat="43.12744661134864" lon="11.837164538280513"><ele>291.6666666666667</ele><time>2026-04-19T07:42:15Z</time></trkpt><trkpt lat="43.12730656782225" lon="11.83705527803983"><ele>292.33333333333337</ele><time>2026-04-19T07:42:16Z</time></trkpt><trkpt lat="43.12716907473081" lon="11.836948036082678"><ele>293.0</ele><time>2026-04-19T07:42:17Z</time></trkpt><trkpt lat="43.1270290309163" lon="11.836836530309265"><ele>295.6666666666667</ele><time>2026-04-19T07:42:18Z</time></trkpt><trkpt lat="43.12688865365107" lon="11.836728455075106"><ele>298.3333333333333</ele><time>2026-04-19T07:42:19Z</time></trkpt><trkpt lat="43.12674289511202" lon="11.836632559308374"><ele>301.0</ele><time>2026-04-19T07:42:20Z</time></trkpt><trkpt lat="43.12659736876369" lon="11.836543123482572"><ele>301.0</ele><time>2026-04-19T07:42:21Z</time></trkpt><trkpt lat="43.12645994246623" lon="11.836445674589875"><ele>301.0</ele><time>2026-04-19T07:42:22Z</time></trkpt><trkpt lat="43.12633398413716" lon="11.83632502957519"><ele>301.0</ele><time>2026-04-19T07:42:23Z</time></trkpt><trkpt lat="43.12623424978827" lon="11.836170258832022"><ele>301.0</ele><time>2026-04-19T07:42:24Z</time></trkpt><trkpt lat="43.12614714909889" lon="11.835984272218255"><ele>301.0</ele><time>2026-04-19T07:42:25Z</time></trkpt><trkpt lat="43.126074759431894" lon="11.835809755237227"><ele>301.0</ele><time>2026-04-19T07:42:26Z</time></trkpt><trkpt lat="43.12601063297858" lon="11.835657062688941"><ele>301.0</ele><time>2026-04-19T07:42:27Z</time></trkpt><trkpt lat="43.125943344938904" lon="11.835503313501246"><ele>303.0</ele><time>2026-04-19T07:42:28Z</time></trkpt><trkpt lat="43.12587613615935" lon="11.835321536113549"><ele>305.0</ele><time>2026-04-19T07:42:29Z</time></trkpt><trkpt lat="43.125844398617915" lon="11.835095516577775"><ele>307.0</ele><time>2026-04-19T07:42:30Z</time></trkpt><trkpt lat="43.12580135333195" lon="11.834861210762408"><ele>307.75</ele><time>2026-04-19T07:42:31Z</time></trkpt><trkpt lat="43.125746271921436" lon="11.834653445373464"><ele>308.5</ele><time>2026-04-19T07:42:32Z</time></trkpt><trkpt lat="43.12571140764363" lon="11.834459947006772"><ele>309.25</ele><time>2026-04-19T07:42:33Z</time></trkpt><trkpt lat="43.12567999161825" lon="11.834274980151273"><ele>310.0</ele><time>2026-04-19T07:42:34Z</time></trkpt><trkpt lat="43.1256506838999" lon="11.834078363214857"><ele>309.0</ele><time>2026-04-19T07:42:35Z</time></trkpt><trkpt lat="43.12564851726533" lon="11.83385890909564"><ele>308.0</ele><time>2026-04-19T07:42:36Z</time></trkpt><trkpt lat="43.125645529234355" lon="11.833620146755258"><ele>307.0</ele><time>2026-04-19T07:42:37Z</time></trkpt><trkpt lat="43.12562258541957" lon="11.833390673295769"><ele>307.0</ele><time>2026-04-19T07:42:38Z</time></trkpt><trkpt lat="43.12559356019686" lon="11.833192730080647"><ele>307.0</ele><time>2026-04-19T07:42:39Z</time></trkpt><trkpt lat="43.125534276840824" lon="11.833011479481781"><ele>307.0</ele><time>2026-04-19T07:42:40Z</time></trkpt><trkpt lat="43.12545546327892" lon="11.832825145837774"><ele>307.0</ele><time>2026-04-19T07:42:41Z</time></trkpt><trkpt lat="43.12537544990595" lon="11.832627938312385"><ele>309.3333333333333</ele><time>2026-04-19T07:42:42Z</time></trkpt><trkpt lat="43.125293908417355" lon="11.832429539628162"><ele>311.6666666666667</ele><time>2026-04-19T07:42:43Z</time></trkpt><trkpt lat="43.12520872444595" lon="11.832227941597843"><ele>314.0</ele><time>2026-04-19T07:42:44Z</time></trkpt><trkpt lat="43.12513124599067" lon="11.832026338949456"><ele>314.0</ele><time>2026-04-19T07:42:45Z</time></trkpt><trkpt lat="43.12505381794232" lon="11.83183570702569"><ele>314.0</ele><time>2026-04-19T07:42:46Z</time></trkpt><trkpt lat="43.124963247567536" lon="11.83166365067732"><ele>314.0</ele><time>2026-04-19T07:42:47Z</time></trkpt><trkpt lat="43.12486736749728" lon="11.831495434205245"><ele>314.5</ele><time>2026-04-19T07:42:48Z</time></trkpt><trkpt lat="43.124766044489085" lon="11.831349058956368"><ele>315.0</ele><time>2026-04-19T07:42:49Z</time></trkpt><trkpt lat="43.12466385159207" lon="11.831217593053617"><ele>315.5</ele><time>2026-04-19T07:42:50Z</time></trkpt><trkpt lat="43.12456581247081" lon="11.831081902083982"><ele>316.0</ele><time>2026-04-19T07:42:51Z</time></trkpt><trkpt lat="43.12448588032607" lon="11.830912410863688"><ele>316.0</ele><time>2026-04-19T07:42:52Z</time></trkpt><trkpt lat="43.12438044179587" lon="11.830770018383781"><ele>316.0</ele><time>2026-04-19T07:42:53Z</time></trkpt><trkpt lat="43.1242825018902" lon="11.83064368670282"><ele>316.0</ele><time>2026-04-19T07:42:54Z</time></trkpt><trkpt lat="43.12417805746088" lon="11.830545044203314"><ele>316.0</ele><time>2026-04-19T07:42:55Z</time></trkpt><trkpt lat="43.12407720718685" lon="11.830467290822936"><ele>315.6</ele><time>2026-04-19T07:42:56Z</time></trkpt><trkpt lat="43.123983982154535" lon="11.830395217845574"><ele>315.20000000000005</ele><time>2026-04-19T07:42:57Z</time></trkpt><trkpt lat="43.12389098015312" lon="11.830311426598083"><ele>314.79999999999995</ele><time>2026-04-19T07:42:58Z</time></trkpt><trkpt lat="43.12379328057871" lon="11.830226416576185"><ele>314.4</ele><time>2026-04-19T07:42:59Z</time></trkpt><trkpt lat="43.123695487075175" lon="11.830155427306936"><ele>314.0</ele><time>2026-04-19T07:43:00Z</time></trkpt><trkpt lat="43.12360013704419" lon="11.83010152077601"><ele>315.6</ele><time>2026-04-19T07:43:01Z</time></trkpt><trkpt lat="43.12350849742103" lon="11.83006289226011"><ele>317.2</ele><time>2026-04-19T07:43:02.001Z</time></trkpt><trkpt lat="43.123418592429026" lon="11.830038111980276"><ele>318.8</ele><time>2026-04-19T07:43:03.001Z</time></trkpt><trkpt lat="43.12331943706699" lon="11.83002084900148"><ele>320.40000000000003</ele><time>2026-04-19T07:43:04.001Z</time></trkpt><trkpt lat="43.12321388056525" lon="11.830005395520969"><ele>322.0</ele><time>2026-04-19T07:43:05.001Z</time></trkpt><trkpt lat="43.123124107138395" lon="11.829992310506533"><ele>322.3333333333333</ele><time>2026-04-19T07:43:06.001Z</time></trkpt><trkpt lat="43.123048739002" lon="11.829980972829857"><ele>322.66666666666663</ele><time>2026-04-19T07:43:07.001Z</time></trkpt><trkpt lat="43.12298463188885" lon="11.829966184936183"><ele>323.0</ele><time>2026-04-19T07:43:08.001Z</time></trkpt><trkpt lat="43.12289400554734" lon="11.82993673945967"><ele>323.3333333333333</ele><time>2026-04-19T07:43:10.001Z</time></trkpt><trkpt lat="43.122813313256714" lon="11.8298980824977"><ele>323.6666666666667</ele><time>2026-04-19T07:43:13.001Z</time></trkpt><trkpt lat="43.12273291515356" lon="11.829859187430992"><ele>324.0</ele><time>2026-04-19T07:43:16Z</time></trkpt><trkpt lat="43.1227101279419" lon="11.829748148650813"><ele>324.0</ele><time>2026-04-19T07:43:17Z</time></trkpt><trkpt lat="43.12268816802177" lon="11.829637237575017"><ele>324.0</ele><time>2026-04-19T07:43:18Z</time></trkpt><trkpt lat="43.12267473437689" lon="11.829503089061813"><ele>324.0</ele><time>2026-04-19T07:43:19Z</time></trkpt><trkpt lat="43.122658475876726" lon="11.829351143673929"><ele>324.0</ele><time>2026-04-19T07:43:20Z</time></trkpt><trkpt lat="43.122638532867434" lon="11.829204319593963"><ele>324.0</ele><time>2026-04-19T07:43:21Z</time></trkpt><trkpt lat="43.12261995658757" lon="11.829051251506376"><ele>323.75</ele><time>2026-04-19T07:43:22Z</time></trkpt><trkpt lat="43.1226032111927" lon="11.828871891740029"><ele>323.5</ele><time>2026-04-19T07:43:23Z</time></trkpt><trkpt lat="43.122576738411844" lon="11.82870613630714"><ele>323.25</ele><time>2026-04-19T07:43:24Z</time></trkpt><trkpt lat="43.12255199460992" lon="11.828545329237476"><ele>323.0</ele><time>2026-04-19T07:43:25Z</time></trkpt><trkpt lat="43.122523015975055" lon="11.828378139752935"><ele>321.75</ele><time>2026-04-19T07:43:26Z</time></trkpt><trkpt lat="43.122497225013184" lon="11.828206668378343"><ele>320.5</ele><time>2026-04-19T07:43:27Z</time></trkpt><trkpt lat="43.12246894845337" lon="11.828046424646812"><ele>319.25</ele><time>2026-04-19T07:43:28Z</time></trkpt><trkpt lat="43.12244934602665" lon="11.827893286031317"><ele>318.0</ele><time>2026-04-19T07:43:29Z</time></trkpt><trkpt lat="43.12244103073231" lon="11.827739443945463"><ele>318.0</ele><time>2026-04-19T07:43:30Z</time></trkpt><trkpt lat="43.12243493573477" lon="11.827572373939253"><ele>318.0</ele><time>2026-04-19T07:43:31Z</time></trkpt><trkpt lat="43.12242941477267" lon="11.827398978061138"><ele>318.0</ele><time>2026-04-19T07:43:32Z</time></trkpt><trkpt lat="43.122427539243965" lon="11.827231450688805"><ele>318.0</ele><time>2026-04-19T07:43:33Z</time></trkpt><trkpt lat="43.12242934552719" lon="11.827080857373502"><ele>318.0</ele><time>2026-04-19T07:43:34Z</time></trkpt><trkpt lat="43.12243102019637" lon="11.82694604461869"><ele>318.0</ele><time>2026-04-19T07:43:35Z</time></trkpt><trkpt lat="43.12243265927728" lon="11.826819160071876"><ele>318.0</ele><time>2026-04-19T07:43:36Z</time></trkpt><trkpt lat="43.12242559122862" lon="11.826687259816318"><ele>318.0</ele><time>2026-04-19T07:43:37Z</time></trkpt><trkpt lat="43.12241869604659" lon="11.826538794222524"><ele>318.0</ele><time>2026-04-19T07:43:38Z</time></trkpt><trkpt lat="43.122407353952376" lon="11.826373723284432"><ele>316.75</ele><time>2026-04-19T07:43:39Z</time></trkpt><trkpt lat="43.1223797355826" lon="11.826202343431632"><ele>315.5</ele><time>2026-04-19T07:43:40Z</time></trkpt><trkpt lat="43.122333393825976" lon="11.8260393556199"><ele>314.25</ele><time>2026-04-19T07:43:41Z</time></trkpt><trkpt lat="43.12226935337579" lon="11.825875099885508"><ele>313.0</ele><time>2026-04-19T07:43:42Z</time></trkpt><trkpt lat="43.12219085663437" lon="11.82571884892974"><ele>312.75</ele><time>2026-04-19T07:43:43Z</time></trkpt><trkpt lat="43.12210081885695" lon="11.825574939922335"><ele>312.5</ele><time>2026-04-19T07:43:44Z</time></trkpt><trkpt lat="43.122010095593325" lon="11.82543456676184"><ele>312.25</ele><time>2026-04-19T07:43:45Z</time></trkpt><trkpt lat="43.12192240149958" lon="11.825290431659734"><ele>312.0</ele><time>2026-04-19T07:43:46Z</time></trkpt><trkpt lat="43.121845569212674" lon="11.825156318741046"><ele>311.3333333333333</ele><time>2026-04-19T07:43:47Z</time></trkpt><trkpt lat="43.121778958784944" lon="11.825037780407362"><ele>310.6666666666667</ele><time>2026-04-19T07:43:48Z</time></trkpt><trkpt lat="43.121721099910125" lon="11.824936898708549"><ele>310.0</ele><time>2026-04-19T07:43:49Z</time></trkpt><trkpt lat="43.12167332540248" lon="11.82485277561184"><ele>309.33333333333337</ele><time>2026-04-19T07:43:50Z</time></trkpt><trkpt lat="43.12163438924051" lon="11.82478484765021"><ele>308.6666666666667</ele><time>2026-04-19T07:43:51Z</time></trkpt><trkpt lat="43.12158962064414" lon="11.824694843511224"><ele>308.0</ele><time>2026-04-19T07:43:53Z</time></trkpt><trkpt lat="43.12156139047287" lon="11.824587095839583"><ele>308.0</ele><time>2026-04-19T07:43:56Z</time></trkpt><trkpt lat="43.12154677856143" lon="11.824491841115622"><ele>308.0</ele><time>2026-04-19T07:43:58Z</time></trkpt><trkpt lat="43.12155905158651" lon="11.824401725527148"><ele>308.0</ele><time>2026-04-19T07:43:59Z</time></trkpt><trkpt lat="43.1214810165989" lon="11.824304566067958"><ele>308.0</ele><time>2026-04-19T07:44:00Z</time></trkpt><trkpt lat="43.12142146865885" lon="11.824197819904438"><ele>308.0</ele><time>2026-04-19T07:44:01Z</time></trkpt><trkpt lat="43.121355184943944" lon="11.824086591018258"><ele>308.0</ele><time>2026-04-19T07:44:02Z</time></trkpt><trkpt lat="43.12128819980332" lon="11.823958324874178"><ele>308.75</ele><time>2026-04-19T07:44:03Z</time></trkpt><trkpt lat="43.12122777722133" lon="11.823817019269878"><ele>309.5</ele><time>2026-04-19T07:44:04Z</time></trkpt><trkpt lat="43.121171427099156" lon="11.823661101394624"><ele>310.25</ele><time>2026-04-19T07:44:05Z</time></trkpt><trkpt lat="43.12111696531872" lon="11.82350075287612"><ele>311.0</ele><time>2026-04-19T07:44:06Z</time></trkpt><trkpt lat="43.121061542036536" lon="11.823334221142007"><ele>311.0</ele><time>2026-04-19T07:44:07Z</time></trkpt><trkpt lat="43.12100372342481" lon="11.823159262062173"><ele>311.0</ele><time>2026-04-19T07:44:08Z</time></trkpt><trkpt lat="43.12094842033917" lon="11.822992497565796"><ele>311.0</ele><time>2026-04-19T07:44:09Z</time></trkpt><trkpt lat="43.12089265826588" lon="11.822839410690458"><ele>311.0</ele><time>2026-04-19T07:44:10Z</time></trkpt><trkpt lat="43.12083852487311" lon="11.822683691388303"><ele>310.75</ele><time>2026-04-19T07:44:11Z</time></trkpt><trkpt lat="43.12078747689838" lon="11.822515798479902"><ele>310.5</ele><time>2026-04-19T07:44:12Z</time></trkpt><trkpt lat="43.120750478928905" lon="11.822342138465727"><ele>310.25</ele><time>2026-04-19T07:44:13Z</time></trkpt><trkpt lat="43.120737994300775" lon="11.822164970891652"><ele>310.0</ele><time>2026-04-19T07:44:14Z</time></trkpt><trkpt lat="43.120727946556165" lon="11.821985591841688"><ele>310.25</ele><time>2026-04-19T07:44:15Z</time></trkpt><trkpt lat="43.12071997991103" lon="11.821796834741901"><ele>310.5</ele><time>2026-04-19T07:44:16Z</time></trkpt><trkpt lat="43.12069798412682" lon="11.821608320135887"><ele>310.75</ele><time>2026-04-19T07:44:17Z</time></trkpt><trkpt lat="43.12069739762241" lon="11.821416166840992"><ele>311.0</ele><time>2026-04-19T07:44:18Z</time></trkpt><trkpt lat="43.12069379476587" lon="11.821227258445855"><ele>311.0</ele><time>2026-04-19T07:44:19Z</time></trkpt><trkpt lat="43.12068929765129" lon="11.821040381909068"><ele>311.0</ele><time>2026-04-19T07:44:20Z</time></trkpt><trkpt lat="43.120683813394436" lon="11.82085567410482"><ele>311.0</ele><time>2026-04-19T07:44:21Z</time></trkpt><trkpt lat="43.12068079580147" lon="11.820672335686295"><ele>311.0</ele><time>2026-04-19T07:44:22Z</time></trkpt><trkpt lat="43.12067548958916" lon="11.82048038529729"><ele>310.5</ele><time>2026-04-19T07:44:23Z</time></trkpt><trkpt lat="43.1206660040671" lon="11.820279736765656"><ele>310.0</ele><time>2026-04-19T07:44:24Z</time></trkpt><trkpt lat="43.12065858721952" lon="11.820069425681366"><ele>309.5</ele><time>2026-04-19T07:44:25Z</time></trkpt><trkpt lat="43.12064665775496" lon="11.819871911507407"><ele>309.0</ele><time>2026-04-19T07:44:26Z</time></trkpt><trkpt lat="43.120622598245454" lon="11.819694481044019"><ele>310.25</ele><time>2026-04-19T07:44:27Z</time></trkpt><trkpt lat="43.12059256976029" lon="11.819514169994884"><ele>311.5</ele><time>2026-04-19T07:44:28Z</time></trkpt><trkpt lat="43.120555256950425" lon="11.819326367717183"><ele>312.75</ele><time>2026-04-19T07:44:29Z</time></trkpt><trkpt lat="43.120523698803545" lon="11.819129751776575"><ele>314.0</ele><time>2026-04-19T07:44:30Z</time></trkpt><trkpt lat="43.12050120411138" lon="11.818930769879342"><ele>313.6666666666667</ele><time>2026-04-19T07:44:31Z</time></trkpt><trkpt lat="43.12051391185647" lon="11.818725546931763"><ele>313.3333333333333</ele><time>2026-04-19T07:44:32Z</time></trkpt><trkpt lat="43.120574510141736" lon="11.81853235240025"><ele>313.0</ele><time>2026-04-19T07:44:33Z</time></trkpt><trkpt lat="43.12063017159115" lon="11.818340529347598"><ele>313.0</ele><time>2026-04-19T07:44:34Z</time></trkpt><trkpt lat="43.12067948129143" lon="11.818152252011439"><ele>313.0</ele><time>2026-04-19T07:44:35Z</time></trkpt><trkpt lat="43.12074165862671" lon="11.817962736503375"><ele>313.0</ele><time>2026-04-19T07:44:36Z</time></trkpt><trkpt lat="43.12079431875795" lon="11.817758503932826"><ele>313.3333333333333</ele><time>2026-04-19T07:44:37Z</time></trkpt><trkpt lat="43.120832074646025" lon="11.817540926894912"><ele>313.6666666666667</ele><time>2026-04-19T07:44:38Z</time></trkpt><trkpt lat="43.12085210519613" lon="11.817319470795468"><ele>314.0</ele><time>2026-04-19T07:44:39Z</time></trkpt><trkpt lat="43.12086042320183" lon="11.817096978922264"><ele>314.0</ele><time>2026-04-19T07:44:40Z</time></trkpt><trkpt lat="43.12085805913168" lon="11.816864946468074"><ele>314.0</ele><time>2026-04-19T07:44:41Z</time></trkpt><trkpt lat="43.12084882741412" lon="11.816627670773459"><ele>314.0</ele><time>2026-04-19T07:44:42Z</time></trkpt><trkpt lat="43.12083277035306" lon="11.816399432499816"><ele>314.0</ele><time>2026-04-19T07:44:43Z</time></trkpt><trkpt lat="43.12081575504394" lon="11.816170627679975"><ele>314.0</ele><time>2026-04-19T07:44:44Z</time></trkpt><trkpt lat="43.12080279245497" lon="11.815951147799248"><ele>314.0</ele><time>2026-04-19T07:44:45Z</time></trkpt><trkpt lat="43.120782173753504" lon="11.815742592868201"><ele>313.25</ele><time>2026-04-19T07:44:46Z</time></trkpt><trkpt lat="43.12076818122782" lon="11.815542105811605"><ele>312.5</ele><time>2026-04-19T07:44:47Z</time></trkpt><trkpt lat="43.120755250708335" lon="11.815354215592281"><ele>311.75</ele><time>2026-04-19T07:44:48Z</time></trkpt><trkpt lat="43.120739161798845" lon="11.815166910007836"><ele>311.0</ele><time>2026-04-19T07:44:49Z</time></trkpt><trkpt lat="43.120717218107494" lon="11.814969395128667"><ele>310.5</ele><time>2026-04-19T07:44:50Z</time></trkpt><trkpt lat="43.12068997578196" lon="11.814779516587842"><ele>310.0</ele><time>2026-04-19T07:44:51Z</time></trkpt><trkpt lat="43.12065974369647" lon="11.81460447156444"><ele>309.5</ele><time>2026-04-19T07:44:52Z</time></trkpt><trkpt lat="43.120624929556776" lon="11.814427974658132"><ele>309.0</ele><time>2026-04-19T07:44:53Z</time></trkpt><trkpt lat="43.120589153444676" lon="11.81424534620341"><ele>309.0</ele><time>2026-04-19T07:44:54Z</time></trkpt><trkpt lat="43.120554121530404" lon="11.814061784500222"><ele>309.0</ele><time>2026-04-19T07:44:55Z</time></trkpt><trkpt lat="43.120518185312015" lon="11.81387787584098"><ele>309.0</ele><time>2026-04-19T07:44:56Z</time></trkpt><trkpt lat="43.120482476750475" lon="11.813688434858534"><ele>309.0</ele><time>2026-04-19T07:44:57Z</time></trkpt><trkpt lat="43.1204464478022" lon="11.813494103569052"><ele>309.5</ele><time>2026-04-19T07:44:58Z</time></trkpt><trkpt lat="43.120411222743606" lon="11.813295257729093"><ele>310.0</ele><time>2026-04-19T07:44:59Z</time></trkpt><trkpt lat="43.12037419452531" lon="11.81309954194473"><ele>310.5</ele><time>2026-04-19T07:45:00Z</time></trkpt><trkpt lat="43.12033844900043" lon="11.812914014103784"><ele>311.0</ele><time>2026-04-19T07:45:01Z</time></trkpt><trkpt lat="43.1203014287682" lon="11.812731609453873"><ele>311.75</ele><time>2026-04-19T07:45:02Z</time></trkpt><trkpt lat="43.120264153643774" lon="11.812551819065668"><ele>312.5</ele><time>2026-04-19T07:45:03Z</time></trkpt><trkpt lat="43.12022162486444" lon="11.812373680572057"><ele>313.25</ele><time>2026-04-19T07:45:04Z</time></trkpt><trkpt lat="43.12016283952826" lon="11.812202467471764"><ele>314.0</ele><time>2026-04-19T07:45:05Z</time></trkpt><trkpt lat="43.12008839061387" lon="11.812041155332437"><ele>314.0</ele><time>2026-04-19T07:45:06Z</time></trkpt><trkpt lat="43.11999829684918" lon="11.811887416678793"><ele>314.0</ele><time>2026-04-19T07:45:07Z</time></trkpt><trkpt lat="43.11989305684602" lon="11.811742384189342"><ele>314.0</ele><time>2026-04-19T07:45:08Z</time></trkpt><trkpt lat="43.1197847072678" lon="11.811605804424937"><ele>314.0</ele><time>2026-04-19T07:45:09Z</time></trkpt><trkpt lat="43.11969256647968" lon="11.81147327862297"><ele>315.75</ele><time>2026-04-19T07:45:10Z</time></trkpt><trkpt lat="43.1196082395563" lon="11.811357690072288"><ele>317.5</ele><time>2026-04-19T07:45:11Z</time></trkpt><trkpt lat="43.1195229675786" lon="11.811245867614476"><ele>319.25</ele><time>2026-04-19T07:45:12Z</time></trkpt><trkpt lat="43.11943701916695" lon="11.811129154010128"><ele>321.0</ele><time>2026-04-19T07:45:13.001Z</time></trkpt><trkpt lat="43.11935193954716" lon="11.811017333148394"><ele>322.5</ele><time>2026-04-19T07:45:14.001Z</time></trkpt><trkpt lat="43.119269521413834" lon="11.81090943204499"><ele>324.0</ele><time>2026-04-19T07:45:15.001Z</time></trkpt><trkpt lat="43.11917956451159" lon="11.810799544607132"><ele>325.5</ele><time>2026-04-19T07:45:16.001Z</time></trkpt><trkpt lat="43.11908735616196" lon="11.810696466191432"><ele>327.0</ele><time>2026-04-19T07:45:17.001Z</time></trkpt><trkpt lat="43.11900010146697" lon="11.810611895810908"><ele>328.25</ele><time>2026-04-19T07:45:18.001Z</time></trkpt><trkpt lat="43.118908487426935" lon="11.810536820817891"><ele>329.5</ele><time>2026-04-19T07:45:19.001Z</time></trkpt><trkpt lat="43.11880938101839" lon="11.810475010967451"><ele>330.75</ele><time>2026-04-19T07:45:20.001Z</time></trkpt><trkpt lat="43.118703865732584" lon="11.810416088405109"><ele>332.0</ele><time>2026-04-19T07:45:21Z</time></trkpt><trkpt lat="43.11858863398991" lon="11.810362850888465"><ele>332.0</ele><time>2026-04-19T07:45:22Z</time></trkpt><trkpt lat="43.11846829670525" lon="11.810314581122157"><ele>332.0</ele><time>2026-04-19T07:45:23Z</time></trkpt><trkpt lat="43.11834307833942" lon="11.810278003016334"><ele>332.0</ele><time>2026-04-19T07:45:24Z</time></trkpt><trkpt lat="43.11821698144672" lon="11.810253165160134"><ele>332.0</ele><time>2026-04-19T07:45:25Z</time></trkpt><trkpt lat="43.11809384164319" lon="11.81023794247666"><ele>333.0</ele><time>2026-04-19T07:45:26Z</time></trkpt><trkpt lat="43.1179760179782" lon="11.810233106166578"><ele>334.0</ele><time>2026-04-19T07:45:27Z</time></trkpt><trkpt lat="43.11786262285742" lon="11.810247419634809"><ele>335.0</ele><time>2026-04-19T07:45:28Z</time></trkpt><trkpt lat="43.11774583661128" lon="11.810288580122256"><ele>336.0</ele><time>2026-04-19T07:45:29Z</time></trkpt><trkpt lat="43.11763076903656" lon="11.810349803952022"><ele>336.0</ele><time>2026-04-19T07:45:30Z</time></trkpt><trkpt lat="43.117516152210655" lon="11.810425970121802"><ele>336.0</ele><time>2026-04-19T07:45:31Z</time></trkpt><trkpt lat="43.117416383455" lon="11.810501203164165"><ele>336.0</ele><time>2026-04-19T07:45:32Z</time></trkpt><trkpt lat="43.117320644875136" lon="11.81058320730893"><ele>336.0</ele><time>2026-04-19T07:45:33Z</time></trkpt><trkpt lat="43.117218711996934" lon="11.81067407173256"><ele>335.75</ele><time>2026-04-19T07:45:34Z</time></trkpt><trkpt lat="43.1171157854841" lon="11.81076275481899"><ele>335.5</ele><time>2026-04-19T07:45:35Z</time></trkpt><trkpt lat="43.11701780642788" lon="11.810844542223201"><ele>335.25</ele><time>2026-04-19T07:45:36Z</time></trkpt><trkpt lat="43.116922747078014" lon="11.810924399131034"><ele>335.0</ele><time>2026-04-19T07:45:37Z</time></trkpt><trkpt lat="43.116825415921824" lon="11.811006357977613"><ele>335.0</ele><time>2026-04-19T07:45:38Z</time></trkpt><trkpt lat="43.11672824564911" lon="11.811089396640917"><ele>335.0</ele><time>2026-04-19T07:45:39Z</time></trkpt><trkpt lat="43.11663262913269" lon="11.81116763532335"><ele>335.0</ele><time>2026-04-19T07:45:40Z</time></trkpt><trkpt lat="43.11653806368498" lon="11.81123274507074"><ele>335.0</ele><time>2026-04-19T07:45:41Z</time></trkpt><trkpt lat="43.11644607721919" lon="11.81128373060789"><ele>335.0</ele><time>2026-04-19T07:45:42Z</time></trkpt><trkpt lat="43.1163564357209" lon="11.811304142884246"><ele>336.2</ele><time>2026-04-19T07:45:43Z</time></trkpt><trkpt lat="43.11625929175153" lon="11.811289588353032"><ele>337.4</ele><time>2026-04-19T07:45:44Z</time></trkpt><trkpt lat="43.116166804872364" lon="11.811231902306037"><ele>338.6</ele><time>2026-04-19T07:45:45Z</time></trkpt><trkpt lat="43.116088741686916" lon="11.811134552050662"><ele>339.8</ele><time>2026-04-19T07:45:46Z</time></trkpt><trkpt lat="43.11605313624664" lon="11.811006557894336"><ele>341.0</ele><time>2026-04-19T07:45:47Z</time></trkpt><trkpt lat="43.116001121935845" lon="11.810890704821897"><ele>342.20000000000005</ele><time>2026-04-19T07:45:48Z</time></trkpt><trkpt lat="43.11595459342241" lon="11.810765969927067"><ele>343.40000000000003</ele><time>2026-04-19T07:45:49Z</time></trkpt><trkpt lat="43.115898358206515" lon="11.810664382891668"><ele>344.6</ele><time>2026-04-19T07:45:50Z</time></trkpt><trkpt lat="43.11582911109952" lon="11.810579675383359"><ele>345.8</ele><time>2026-04-19T07:45:51Z</time></trkpt><trkpt lat="43.115742767347015" lon="11.810505269392102"><ele>347.0</ele><time>2026-04-19T07:45:52Z</time></trkpt><trkpt lat="43.11564268794341" lon="11.810454547216077"><ele>347.0</ele><time>2026-04-19T07:45:53Z</time></trkpt><trkpt lat="43.11553823775474" lon="11.810428146302492"><ele>347.0</ele><time>2026-04-19T07:45:54Z</time></trkpt><trkpt lat="43.11543600053681" lon="11.810415233855052"><ele>347.0</ele><time>2026-04-19T07:45:55Z</time></trkpt><trkpt lat="43.11533504503131" lon="11.810404523013654"><ele>347.0</ele><time>2026-04-19T07:45:56Z</time></trkpt><trkpt lat="43.11523990339757" lon="11.810391362855583"><ele>347.0</ele><time>2026-04-19T07:45:57Z</time></trkpt><trkpt lat="43.11515631766779" lon="11.810375402779039"><ele>347.0</ele><time>2026-04-19T07:45:58Z</time></trkpt><trkpt lat="43.11507407041416" lon="11.810358380651618"><ele>347.0</ele><time>2026-04-19T07:45:59Z</time></trkpt><trkpt lat="43.11500088824672" lon="11.810332422251559"><ele>347.0</ele><time>2026-04-19T07:46:00Z</time></trkpt><trkpt lat="43.114935859176384" lon="11.810290240796055"><ele>347.0</ele><time>2026-04-19T07:46:01Z</time></trkpt><trkpt lat="43.11487955069197" lon="11.810223139317856"><ele>347.0</ele><time>2026-04-19T07:46:02Z</time></trkpt><trkpt lat="43.114842154976195" lon="11.810130492057631"><ele>347.0</ele><time>2026-04-19T07:46:03Z</time></trkpt><trkpt lat="43.11482911700128" lon="11.810016834599319"><ele>346.8</ele><time>2026-04-19T07:46:04Z</time></trkpt><trkpt lat="43.11484464876926" lon="11.809896111385827"><ele>346.6</ele><time>2026-04-19T07:46:05Z</time></trkpt><trkpt lat="43.11490649084685" lon="11.809798707499352"><ele>346.40000000000003</ele><time>2026-04-19T07:46:06Z</time></trkpt><trkpt lat="43.114978130959585" lon="11.80972322487282"><ele>346.20000000000005</ele><time>2026-04-19T07:46:07Z</time></trkpt><trkpt lat="43.11506140220256" lon="11.809668007870977"><ele>346.0</ele><time>2026-04-19T07:46:08Z</time></trkpt><trkpt lat="43.115145534993985" lon="11.809593663572889"><ele>346.6</ele><time>2026-04-19T07:46:09Z</time></trkpt><trkpt lat="43.11524667651667" lon="11.809547398098776"><ele>347.20000000000005</ele><time>2026-04-19T07:46:10Z</time></trkpt><trkpt lat="43.115351927471785" lon="11.809488466948316"><ele>347.79999999999995</ele><time>2026-04-19T07:46:11Z</time></trkpt><trkpt lat="43.11545703227772" lon="11.809422960664232"><ele>348.4</ele><time>2026-04-19T07:46:12Z</time></trkpt><trkpt lat="43.11554464769507" lon="11.80936689677492"><ele>349.0</ele><time>2026-04-19T07:46:13Z</time></trkpt><trkpt lat="43.11562328713624" lon="11.809303566504884"><ele>349.0</ele><time>2026-04-19T07:46:14Z</time></trkpt><trkpt lat="43.11570983558424" lon="11.80922455586522"><ele>349.0</ele><time>2026-04-19T07:46:15Z</time></trkpt><trkpt lat="43.11579530115427" lon="11.809125968178131"><ele>349.0</ele><time>2026-04-19T07:46:16Z</time></trkpt><trkpt lat="43.11587463949036" lon="11.809010490611216"><ele>349.0</ele><time>2026-04-19T07:46:17Z</time></trkpt><trkpt lat="43.115942602457615" lon="11.808880058465002"><ele>349.0</ele><time>2026-04-19T07:46:18Z</time></trkpt><trkpt lat="43.11599162309283" lon="11.808758770954581"><ele>350.75</ele><time>2026-04-19T07:46:19Z</time></trkpt><trkpt lat="43.11602924894511" lon="11.80863418008379"><ele>352.5</ele><time>2026-04-19T07:46:20Z</time></trkpt><trkpt lat="43.116061791499504" lon="11.808485536770526"><ele>354.25</ele><time>2026-04-19T07:46:21Z</time></trkpt><trkpt lat="43.11607948267102" lon="11.808313518722349"><ele>356.0</ele><time>2026-04-19T07:46:22Z</time></trkpt><trkpt lat="43.116081853700734" lon="11.808117670279294"><ele>357.6666666666667</ele><time>2026-04-19T07:46:23Z</time></trkpt><trkpt lat="43.11607506390557" lon="11.807896866019544"><ele>359.3333333333333</ele><time>2026-04-19T07:46:24Z</time></trkpt><trkpt lat="43.11609357677675" lon="11.807650218251784"><ele>361.0</ele><time>2026-04-19T07:46:25Z</time></trkpt><trkpt lat="43.11609613957929" lon="11.807360664485705"><ele>362.3333333333333</ele><time>2026-04-19T07:46:26Z</time></trkpt><trkpt lat="43.11609901117207" lon="11.80706423308183"><ele>363.6666666666667</ele><time>2026-04-19T07:46:27Z</time></trkpt><trkpt lat="43.11609097369775" lon="11.806810869497319"><ele>365.0</ele><time>2026-04-19T07:46:28Z</time></trkpt><trkpt lat="43.116092983659584" lon="11.80658718667735"><ele>365.0</ele><time>2026-04-19T07:46:29Z</time></trkpt><trkpt lat="43.11609000137758" lon="11.806367655815569"><ele>365.0</ele><time>2026-04-19T07:46:30Z</time></trkpt><trkpt lat="43.116108569223854" lon="11.806114227072403"><ele>365.0</ele><time>2026-04-19T07:46:31Z</time></trkpt><trkpt lat="43.116111194454874" lon="11.805822705930908"><ele>366.5</ele><time>2026-04-19T07:46:32Z</time></trkpt><trkpt lat="43.11611415496854" lon="11.805492856753823"><ele>368.0</ele><time>2026-04-19T07:46:33Z</time></trkpt><trkpt lat="43.11611733923349" lon="11.805138077737473"><ele>369.6666666666667</ele><time>2026-04-19T07:46:34Z</time></trkpt><trkpt lat="43.11610597161871" lon="11.804813406069755"><ele>371.3333333333333</ele><time>2026-04-19T07:46:35Z</time></trkpt><trkpt lat="43.11610973948754" lon="11.804525862277943"><ele>373.0</ele><time>2026-04-19T07:46:36Z</time></trkpt><trkpt lat="43.116112696955376" lon="11.80425944203131"><ele>373.3333333333333</ele><time>2026-04-19T07:46:37Z</time></trkpt><trkpt lat="43.11611431026711" lon="11.804016790697466"><ele>373.6666666666667</ele><time>2026-04-19T07:46:38Z</time></trkpt><trkpt lat="43.116116869114585" lon="11.803797578925638"><ele>374.0</ele><time>2026-04-19T07:46:39Z</time></trkpt><trkpt lat="43.11611257359359" lon="11.803596647668437"><ele>373.5</ele><time>2026-04-19T07:46:40Z</time></trkpt><trkpt lat="43.11609217950853" lon="11.803416930602456"><ele>373.0</ele><time>2026-04-19T07:46:41Z</time></trkpt><trkpt lat="43.11603541501411" lon="11.803249057704347"><ele>372.5</ele><time>2026-04-19T07:46:42Z</time></trkpt><trkpt lat="43.11593647183064" lon="11.803088767061391"><ele>372.0</ele><time>2026-04-19T07:46:43Z</time></trkpt><trkpt lat="43.115812391474485" lon="11.802946722539014"><ele>370.25</ele><time>2026-04-19T07:46:44Z</time></trkpt><trkpt lat="43.11568685571139" lon="11.802815957461666"><ele>368.5</ele><time>2026-04-19T07:46:45Z</time></trkpt><trkpt lat="43.115580973854556" lon="11.80269320373643"><ele>366.75</ele><time>2026-04-19T07:46:46Z</time></trkpt><trkpt lat="43.11549070880769" lon="11.802564840092282"><ele>365.0</ele><time>2026-04-19T07:46:47Z</time></trkpt><trkpt lat="43.115420178349986" lon="11.802420004257655"><ele>365.0</ele><time>2026-04-19T07:46:48Z</time></trkpt><trkpt lat="43.11537919662443" lon="11.802265804388629"><ele>365.0</ele><time>2026-04-19T07:46:49Z</time></trkpt><trkpt lat="43.115363626386554" lon="11.802093896676688"><ele>365.0</ele><time>2026-04-19T07:46:50Z</time></trkpt><trkpt lat="43.115375307571185" lon="11.801920496391988"><ele>365.0</ele><time>2026-04-19T07:46:51Z</time></trkpt><trkpt lat="43.115417783801696" lon="11.801734667031212"><ele>365.33333333333337</ele><time>2026-04-19T07:46:52Z</time></trkpt><trkpt lat="43.11548135074616" lon="11.801535890896348"><ele>365.6666666666667</ele><time>2026-04-19T07:46:53Z</time></trkpt><trkpt lat="43.11555177278019" lon="11.80133409472018"><ele>366.0</ele><time>2026-04-19T07:46:54Z</time></trkpt><trkpt lat="43.115623621302674" lon="11.801120914574014"><ele>366.0</ele><time>2026-04-19T07:46:55Z</time></trkpt><trkpt lat="43.11569114690186" lon="11.800897980381855"><ele>366.0</ele><time>2026-04-19T07:46:56Z</time></trkpt><trkpt lat="43.11574505483073" lon="11.800661519162812"><ele>366.0</ele><time>2026-04-19T07:46:57Z</time></trkpt><trkpt lat="43.11577747806058" lon="11.800413261439363"><ele>372.33333333333337</ele><time>2026-04-19T07:46:58Z</time></trkpt><trkpt lat="43.115787954244766" lon="11.800152363077617"><ele>378.6666666666667</ele><time>2026-04-19T07:46:59Z</time></trkpt><trkpt lat="43.11577961068827" lon="11.799889779150131"><ele>385.0</ele><time>2026-04-19T07:47:00Z</time></trkpt><trkpt lat="43.11575452613768" lon="11.799623767297495"><ele>384.0</ele><time>2026-04-19T07:47:01Z</time></trkpt><trkpt lat="43.11570990010526" lon="11.799364487199842"><ele>383.0</ele><time>2026-04-19T07:47:02Z</time></trkpt><trkpt lat="43.11565293755067" lon="11.799126440272564"><ele>382.0</ele><time>2026-04-19T07:47:03Z</time></trkpt><trkpt lat="43.11558807170013" lon="11.798902105495047"><ele>382.0</ele><time>2026-04-19T07:47:04Z</time></trkpt><trkpt lat="43.11551760493753" lon="11.798688041444723"><ele>382.0</ele><time>2026-04-19T07:47:05Z</time></trkpt><trkpt lat="43.11543679298604" lon="11.798487329770555"><ele>382.0</ele><time>2026-04-19T07:47:06Z</time></trkpt><trkpt lat="43.115335624093944" lon="11.798308364288882"><ele>385.66666666666663</ele><time>2026-04-19T07:47:07Z</time></trkpt><trkpt lat="43.115209170286164" lon="11.798153500794706"><ele>389.3333333333333</ele><time>2026-04-19T07:47:08Z</time></trkpt><trkpt lat="43.11505574681045" lon="11.798029608154296"><ele>393.0</ele><time>2026-04-19T07:47:09Z</time></trkpt><trkpt lat="43.1148859006217" lon="11.797928459602355"><ele>393.33333333333337</ele><time>2026-04-19T07:47:10Z</time></trkpt><trkpt lat="43.11470706259018" lon="11.797840450548494"><ele>393.6666666666667</ele><time>2026-04-19T07:47:11Z</time></trkpt><trkpt lat="43.1145433623755" lon="11.797752930300176"><ele>394.0</ele><time>2026-04-19T07:47:12Z</time></trkpt><trkpt lat="43.11440642532918" lon="11.797659242756023"><ele>393.75</ele><time>2026-04-19T07:47:13Z</time></trkpt><trkpt lat="43.114286935358194" lon="11.797563108555472"><ele>393.5</ele><time>2026-04-19T07:47:14Z</time></trkpt><trkpt lat="43.11416737431343" lon="11.79744637919591"><ele>393.25</ele><time>2026-04-19T07:47:15Z</time></trkpt><trkpt lat="43.114018455188955" lon="11.797365209170675"><ele>393.0</ele><time>2026-04-19T07:47:16Z</time></trkpt><trkpt lat="43.1138906931945" lon="11.797223124442176"><ele>393.0</ele><time>2026-04-19T07:47:17Z</time></trkpt><trkpt lat="43.11375438857364" lon="11.79708325461367"><ele>393.0</ele><time>2026-04-19T07:47:18Z</time></trkpt><trkpt lat="43.11362206068001" lon="11.796920369063484"><ele>393.0</ele><time>2026-04-19T07:47:19Z</time></trkpt><trkpt lat="43.11347280909782" lon="11.796756896465391"><ele>394.33333333333337</ele><time>2026-04-19T07:47:20Z</time></trkpt><trkpt lat="43.113326078066834" lon="11.796586529547158"><ele>395.6666666666667</ele><time>2026-04-19T07:47:21Z</time></trkpt><trkpt lat="43.11317761308234" lon="11.796417835260465"><ele>397.0</ele><time>2026-04-19T07:47:22Z</time></trkpt><trkpt lat="43.1130286628964" lon="11.796260202276473"><ele>397.0</ele><time>2026-04-19T07:47:23Z</time></trkpt><trkpt lat="43.11289503044994" lon="11.796112984354245"><ele>397.0</ele><time>2026-04-19T07:47:24.001Z</time></trkpt><trkpt lat="43.11276948949126" lon="11.795973652442717"><ele>397.0</ele><time>2026-04-19T07:47:25.001Z</time></trkpt><trkpt lat="43.11266965631122" lon="11.79580638356065"><ele>398.0</ele><time>2026-04-19T07:47:26.001Z</time></trkpt><trkpt lat="43.112565203150595" lon="11.795620580649262"><ele>399.0</ele><time>2026-04-19T07:47:27Z</time></trkpt><trkpt lat="43.11246992546611" lon="11.795430217067906"><ele>400.0</ele><time>2026-04-19T07:47:28Z</time></trkpt><trkpt lat="43.112382308743406" lon="11.795278219776739"><ele>403.33333333333337</ele><time>2026-04-19T07:47:29Z</time></trkpt><trkpt lat="43.11232948673432" lon="11.795087658321501"><ele>406.66666666666663</ele><time>2026-04-19T07:47:30Z</time></trkpt><trkpt lat="43.11228342468484" lon="11.794880847622025"><ele>410.0</ele><time>2026-04-19T07:47:31Z</time></trkpt><trkpt lat="43.11223727103175" lon="11.7946552244316"><ele>410.0</ele><time>2026-04-19T07:47:32Z</time></trkpt><trkpt lat="43.11219161146458" lon="11.794417594491927"><ele>410.0</ele><time>2026-04-19T07:47:33Z</time></trkpt><trkpt lat="43.1121469782744" lon="11.794174110012936"><ele>410.0</ele><time>2026-04-19T07:47:34Z</time></trkpt><trkpt lat="43.11211179520039" lon="11.793934493173891"><ele>413.0</ele><time>2026-04-19T07:47:35Z</time></trkpt><trkpt lat="43.11207022024795" lon="11.793691937381164"><ele>416.0</ele><time>2026-04-19T07:47:36Z</time></trkpt><trkpt lat="43.11204475541394" lon="11.793440543354786"><ele>419.0</ele><time>2026-04-19T07:47:37Z</time></trkpt><trkpt lat="43.11200498230544" lon="11.79319238203007"><ele>422.66666666666663</ele><time>2026-04-19T07:47:38Z</time></trkpt><trkpt lat="43.111940281684355" lon="11.792962353209791"><ele>426.33333333333337</ele><time>2026-04-19T07:47:39Z</time></trkpt><trkpt lat="43.11186714046786" lon="11.7927352910973"><ele>430.0</ele><time>2026-04-19T07:47:40Z</time></trkpt><trkpt lat="43.11180419278068" lon="11.792515877108174"><ele>433.33333333333337</ele><time>2026-04-19T07:47:41Z</time></trkpt><trkpt lat="43.111772230880035" lon="11.792295638460818"><ele>436.66666666666663</ele><time>2026-04-19T07:47:42Z</time></trkpt><trkpt lat="43.11178648431084" lon="11.792060938109014"><ele>440.0</ele><time>2026-04-19T07:47:43Z</time></trkpt><trkpt lat="43.111782309287996" lon="11.791835870329859"><ele>441.25</ele><time>2026-04-19T07:47:44Z</time></trkpt><trkpt lat="43.11179179416236" lon="11.791640004671297"><ele>442.5</ele><time>2026-04-19T07:47:45Z</time></trkpt><trkpt lat="43.11179265516966" lon="11.791469949371258"><ele>443.75</ele><time>2026-04-19T07:47:46Z</time></trkpt><trkpt lat="43.11177934469866" lon="11.791319244725004"><ele>445.0</ele><time>2026-04-19T07:47:47Z</time></trkpt><trkpt lat="43.111745209836776" lon="11.791192664614314"><ele>445.0</ele><time>2026-04-19T07:47:48Z</time></trkpt><trkpt lat="43.11168245328039" lon="11.791083003315864"><ele>445.0</ele><time>2026-04-19T07:47:49Z</time></trkpt><trkpt lat="43.11158362232124" lon="11.790983368594647"><ele>445.0</ele><time>2026-04-19T07:47:50Z</time></trkpt><trkpt lat="43.111448571515886" lon="11.790902249690722"><ele>445.0</ele><time>2026-04-19T07:47:51Z</time></trkpt><trkpt lat="43.11127848020943" lon="11.79080085447341"><ele>449.0</ele><time>2026-04-19T07:47:52Z</time></trkpt><trkpt lat="43.111104179269816" lon="11.790689922845552"><ele>453.0</ele><time>2026-04-19T07:47:53Z</time></trkpt><trkpt lat="43.11094561549302" lon="11.790572388320216"><ele>457.0</ele><time>2026-04-19T07:47:54Z</time></trkpt><trkpt lat="43.11080307452207" lon="11.790463407691844"><ele>459.25</ele><time>2026-04-19T07:47:55Z</time></trkpt><trkpt lat="43.110671454742736" lon="11.790363826049019"><ele>461.5</ele><time>2026-04-19T07:47:56Z</time></trkpt><trkpt lat="43.110558190402095" lon="11.790262154597386"><ele>463.75</ele><time>2026-04-19T07:47:57Z</time></trkpt><trkpt lat="43.11046189159081" lon="11.790139012859575"><ele>466.0</ele><time>2026-04-19T07:47:58Z</time></trkpt><trkpt lat="43.110367422094974" lon="11.789984796399613"><ele>466.6666666666667</ele><time>2026-04-19T07:47:59Z</time></trkpt><trkpt lat="43.11027470587615" lon="11.789812400223616"><ele>467.33333333333337</ele><time>2026-04-19T07:48:00Z</time></trkpt><trkpt lat="43.110183095025306" lon="11.78964499499466"><ele>468.0</ele><time>2026-04-19T07:48:01Z</time></trkpt><trkpt lat="43.11009068507557" lon="11.789489193715111"><ele>468.33333333333337</ele><time>2026-04-19T07:48:02Z</time></trkpt><trkpt lat="43.1099909986172" lon="11.789338679727315"><ele>468.6666666666667</ele><time>2026-04-19T07:48:03Z</time></trkpt><trkpt lat="43.10988604590264" lon="11.78918322251141"><ele>469.0</ele><time>2026-04-19T07:48:04Z</time></trkpt><trkpt lat="43.109783541000006" lon="11.789023344531753"><ele>469.5</ele><time>2026-04-19T07:48:05Z</time></trkpt><trkpt lat="43.109682308295206" lon="11.788867702930105"><ele>470.0</ele><time>2026-04-19T07:48:06Z</time></trkpt><trkpt lat="43.10958286132823" lon="11.788714569766634"><ele>470.5</ele><time>2026-04-19T07:48:07Z</time></trkpt><trkpt lat="43.10948686193958" lon="11.788568422805076"><ele>471.0</ele><time>2026-04-19T07:48:08Z</time></trkpt><trkpt lat="43.109399701702195" lon="11.788408125724981"><ele>471.0</ele><time>2026-04-19T07:48:09Z</time></trkpt><trkpt lat="43.109311021941025" lon="11.788243538169393"><ele>471.0</ele><time>2026-04-19T07:48:10Z</time></trkpt><trkpt lat="43.109218764606204" lon="11.788070579525934"><ele>471.0</ele><time>2026-04-19T07:48:11Z</time></trkpt><trkpt lat="43.10912598443954" lon="11.787888207458224"><ele>469.66666666666663</ele><time>2026-04-19T07:48:12Z</time></trkpt><trkpt lat="43.109026850026396" lon="11.787696917428406"><ele>468.3333333333333</ele><time>2026-04-19T07:48:13Z</time></trkpt><trkpt lat="43.10892811327086" lon="11.787513680434882"><ele>467.0</ele><time>2026-04-19T07:48:14Z</time></trkpt><trkpt lat="43.10882283881014" lon="11.787352895545153"><ele>467.0</ele><time>2026-04-19T07:48:15Z</time></trkpt><trkpt lat="43.10869806936573" lon="11.787210518772564"><ele>467.0</ele><time>2026-04-19T07:48:16Z</time></trkpt><trkpt lat="43.108555125202486" lon="11.787094067626628"><ele>467.0</ele><time>2026-04-19T07:48:17Z</time></trkpt><trkpt lat="43.1083995174739" lon="11.786997625915095"><ele>467.0</ele><time>2026-04-19T07:48:18Z</time></trkpt><trkpt lat="43.108245147342664" lon="11.786904275765425"><ele>467.0</ele><time>2026-04-19T07:48:19Z</time></trkpt><trkpt lat="43.10809653948035" lon="11.786807301789985"><ele>467.0</ele><time>2026-04-19T07:48:20Z</time></trkpt><trkpt lat="43.1079520339901" lon="11.786712210926629"><ele>471.66666666666663</ele><time>2026-04-19T07:48:21Z</time></trkpt><trkpt lat="43.107809518660495" lon="11.786614732187443"><ele>476.33333333333337</ele><time>2026-04-19T07:48:22Z</time></trkpt><trkpt lat="43.10766420388005" lon="11.786517813020254"><ele>481.0</ele><time>2026-04-19T07:48:23Z</time></trkpt><trkpt lat="43.107510547993925" lon="11.78641763167744"><ele>482.0</ele><time>2026-04-19T07:48:24Z</time></trkpt><trkpt lat="43.10735502169482" lon="11.786316151830858"><ele>483.0</ele><time>2026-04-19T07:48:25Z</time></trkpt><trkpt lat="43.107197470815514" lon="11.786223643657886"><ele>484.0</ele><time>2026-04-19T07:48:26Z</time></trkpt><trkpt lat="43.10703812847822" lon="11.786155560571585"><ele>484.0</ele><time>2026-04-19T07:48:27Z</time></trkpt><trkpt lat="43.10686691444667" lon="11.786112195367052"><ele>484.0</ele><time>2026-04-19T07:48:28Z</time></trkpt><trkpt lat="43.106688360289986" lon="11.786088854153242"><ele>484.0</ele><time>2026-04-19T07:48:29Z</time></trkpt><trkpt lat="43.106514472053576" lon="11.786075402653006"><ele>484.33333333333337</ele><time>2026-04-19T07:48:30Z</time></trkpt><trkpt lat="43.10636049953987" lon="11.78606199574591"><ele>484.66666666666663</ele><time>2026-04-19T07:48:31Z</time></trkpt><trkpt lat="43.10620795740106" lon="11.786049887293288"><ele>485.0</ele><time>2026-04-19T07:48:32Z</time></trkpt><trkpt lat="43.10604934032337" lon="11.786032831084693"><ele>485.0</ele><time>2026-04-19T07:48:33Z</time></trkpt><trkpt lat="43.105875965826876" lon="11.786015312291495"><ele>485.0</ele><time>2026-04-19T07:48:34Z</time></trkpt><trkpt lat="43.105701521267584" lon="11.7859954823001"><ele>485.0</ele><time>2026-04-19T07:48:35Z</time></trkpt><trkpt lat="43.10552844218454" lon="11.785975266641026"><ele>484.66666666666663</ele><time>2026-04-19T07:48:36Z</time></trkpt><trkpt lat="43.10535903257275" lon="11.785953216401888"><ele>484.33333333333337</ele><time>2026-04-19T07:48:37Z</time></trkpt><trkpt lat="43.10518930227682" lon="11.785929914682946"><ele>484.0</ele><time>2026-04-19T07:48:38Z</time></trkpt><trkpt lat="43.10503280362159" lon="11.785902939861113"><ele>484.33333333333337</ele><time>2026-04-19T07:48:39Z</time></trkpt><trkpt lat="43.104879619449505" lon="11.785877439438284"><ele>484.66666666666663</ele><time>2026-04-19T07:48:40Z</time></trkpt><trkpt lat="43.10471774989943" lon="11.785851150342202"><ele>485.0</ele><time>2026-04-19T07:48:41Z</time></trkpt><trkpt lat="43.10455197166424" lon="11.785827540034159"><ele>485.0</ele><time>2026-04-19T07:48:42Z</time></trkpt><trkpt lat="43.10438078569236" lon="11.785810732653276"><ele>485.0</ele><time>2026-04-19T07:48:43Z</time></trkpt><trkpt lat="43.104205005721646" lon="11.785793392858684"><ele>485.0</ele><time>2026-04-19T07:48:44Z</time></trkpt><trkpt lat="43.10402709181311" lon="11.785777474330079"><ele>483.66666666666663</ele><time>2026-04-19T07:48:45Z</time></trkpt><trkpt lat="43.10385206630779" lon="11.785767310714045"><ele>482.33333333333337</ele><time>2026-04-19T07:48:46Z</time></trkpt><trkpt lat="43.103672892663475" lon="11.785761554662837"><ele>481.0</ele><time>2026-04-19T07:48:47Z</time></trkpt><trkpt lat="43.10350091272382" lon="11.785751505171001"><ele>481.0</ele><time>2026-04-19T07:48:48Z</time></trkpt><trkpt lat="43.10333927950402" lon="11.785733204642579"><ele>481.0</ele><time>2026-04-19T07:48:49Z</time></trkpt><trkpt lat="43.1031772982644" lon="11.785721220668869"><ele>481.0</ele><time>2026-04-19T07:48:50Z</time></trkpt><trkpt lat="43.10301041674248" lon="11.785706353508278"><ele>482.6666666666667</ele><time>2026-04-19T07:48:51Z</time></trkpt><trkpt lat="43.10283746656964" lon="11.785689955443543"><ele>484.33333333333337</ele><time>2026-04-19T07:48:52Z</time></trkpt><trkpt lat="43.10266546010947" lon="11.785678256336737"><ele>486.0</ele><time>2026-04-19T07:48:53Z</time></trkpt><trkpt lat="43.10250009336402" lon="11.785664862421761"><ele>486.75</ele><time>2026-04-19T07:48:54Z</time></trkpt><trkpt lat="43.10235236788382" lon="11.785653389955888"><ele>487.5</ele><time>2026-04-19T07:48:55Z</time></trkpt><trkpt lat="43.10220780264074" lon="11.785640071556282"><ele>488.25</ele><time>2026-04-19T07:48:56Z</time></trkpt><trkpt lat="43.10205949751132" lon="11.78562855398922"><ele>489.0</ele><time>2026-04-19T07:48:57Z</time></trkpt><trkpt lat="43.10190659840556" lon="11.785615808789077"><ele>489.0</ele><time>2026-04-19T07:48:58Z</time></trkpt><trkpt lat="43.1017522451265" lon="11.785599119650879"><ele>489.0</ele><time>2026-04-19T07:48:59Z</time></trkpt><trkpt lat="43.1016085204699" lon="11.785590193429009"><ele>489.0</ele><time>2026-04-19T07:49:00Z</time></trkpt><trkpt lat="43.101476065844494" lon="11.785579661089214"><ele>489.0</ele><time>2026-04-19T07:49:01Z</time></trkpt><trkpt lat="43.101356470719374" lon="11.785567242453206"><ele>489.6</ele><time>2026-04-19T07:49:02Z</time></trkpt><trkpt lat="43.10125061608145" lon="11.785556449562332"><ele>490.2</ele><time>2026-04-19T07:49:03Z</time></trkpt><trkpt lat="43.101159929115894" lon="11.785550572355385"><ele>490.80000000000007</ele><time>2026-04-19T07:49:04Z</time></trkpt><trkpt lat="43.1010826944893" lon="11.785547380946904"><ele>491.40000000000003</ele><time>2026-04-19T07:49:05Z</time></trkpt><trkpt lat="43.10097236792708" lon="11.785536934514163"><ele>492.0</ele><time>2026-04-19T07:49:07Z</time></trkpt><trkpt lat="43.1008589759081" lon="11.785528648771063"><ele>492.0</ele><time>2026-04-19T07:49:09Z</time></trkpt><trkpt lat="43.100792724319966" lon="11.785521117418307"><ele>492.0</ele><time>2026-04-19T07:49:10Z</time></trkpt><trkpt lat="43.1007209510563" lon="11.785510942986953"><ele>492.0</ele><time>2026-04-19T07:49:11Z</time></trkpt><trkpt lat="43.10064342769254" lon="11.785500524036609"><ele>492.0</ele><time>2026-04-19T07:49:12Z</time></trkpt><trkpt lat="43.10056072948619" lon="11.785494278139264"><ele>492.0</ele><time>2026-04-19T07:49:13Z</time></trkpt><trkpt lat="43.10047567595627" lon="11.785490459100188"><ele>492.0</ele><time>2026-04-19T07:49:14Z</time></trkpt><trkpt lat="43.10038958796716" lon="11.78548254283872"><ele>493.0</ele><time>2026-04-19T07:49:15Z</time></trkpt><trkpt lat="43.100297138133584" lon="11.78547760997965"><ele>494.00000000000006</ele><time>2026-04-19T07:49:16Z</time></trkpt><trkpt lat="43.10020384740846" lon="11.785469848589576"><ele>495.00000000000006</ele><time>2026-04-19T07:49:17Z</time></trkpt><trkpt lat="43.100110128979026" lon="11.785459323714317"><ele>496.0</ele><time>2026-04-19T07:49:18Z</time></trkpt><trkpt lat="43.10000398166886" lon="11.785450809745884"><ele>497.0</ele><time>2026-04-19T07:49:19Z</time></trkpt><trkpt lat="43.09989426644767" lon="11.785443896598398"><ele>500.20000000000005</ele><time>2026-04-19T07:49:20Z</time></trkpt><trkpt lat="43.09978494829359" lon="11.785434200014043"><ele>503.40000000000003</ele><time>2026-04-19T07:49:21Z</time></trkpt><trkpt lat="43.09967847408782" lon="11.785426628944967"><ele>506.59999999999997</ele><time>2026-04-19T07:49:22Z</time></trkpt><trkpt lat="43.099572742643254" lon="11.785420947677167"><ele>509.79999999999995</ele><time>2026-04-19T07:49:23Z</time></trkpt><trkpt lat="43.09946745379131" lon="11.785413101532054"><ele>513.0</ele><time>2026-04-19T07:49:24Z</time></trkpt><trkpt lat="43.099364021355726" lon="11.785404995481777"><ele>513.0</ele><time>2026-04-19T07:49:25Z</time></trkpt><trkpt lat="43.09926259733235" lon="11.78539848013446"><ele>513.0</ele><time>2026-04-19T07:49:26Z</time></trkpt><trkpt lat="43.09916601239334" lon="11.78539257964195"><ele>513.0</ele><time>2026-04-19T07:49:27Z</time></trkpt><trkpt lat="43.099063451619735" lon="11.785380053874805"><ele>513.0</ele><time>2026-04-19T07:49:28Z</time></trkpt><trkpt lat="43.09895580236164" lon="11.785368556145848"><ele>513.0</ele><time>2026-04-19T07:49:29Z</time></trkpt><trkpt lat="43.09884496768019" lon="11.785362146125031"><ele>514.4</ele><time>2026-04-19T07:49:30Z</time></trkpt><trkpt lat="43.09873876261805" lon="11.785351638773545"><ele>515.8</ele><time>2026-04-19T07:49:31Z</time></trkpt><trkpt lat="43.09862943772387" lon="11.785342987545407"><ele>517.2</ele><time>2026-04-19T07:49:32Z</time></trkpt><trkpt lat="43.09852190598056" lon="11.78533026441287"><ele>518.6</ele><time>2026-04-19T07:49:33Z</time></trkpt><trkpt lat="43.098424205295025" lon="11.785327988039363"><ele>520.0</ele><time>2026-04-19T07:49:34Z</time></trkpt><trkpt lat="43.098351453356514" lon="11.785304184110865"><ele>520.0</ele><time>2026-04-19T07:49:35Z</time></trkpt><trkpt lat="43.098285562424756" lon="11.785304952781544"><ele>520.0</ele><time>2026-04-19T07:49:36Z</time></trkpt><trkpt lat="43.098175560962396" lon="11.785298568992285"><ele>520.0</ele><time>2026-04-19T07:49:38Z</time></trkpt><trkpt lat="43.098102336015046" lon="11.78528992217821"><ele>520.0</ele><time>2026-04-19T07:49:40Z</time></trkpt><trkpt lat="43.09802457441144" lon="11.785284280355498"><ele>520.0</ele><time>2026-04-19T07:49:44Z</time></trkpt><trkpt lat="43.09796301058682" lon="11.785303718513182"><ele>520.0</ele><time>2026-04-19T07:49:47Z</time></trkpt><trkpt lat="43.097958877879094" lon="11.78543851118547"><ele>519.5</ele><time>2026-04-19T07:49:50Z</time></trkpt><trkpt lat="43.0979897287935" lon="11.785541748616058"><ele>519.0</ele><time>2026-04-19T07:49:53Z</time></trkpt><trkpt lat="43.098012737079614" lon="11.78563757515267"><ele>518.5</ele><time>2026-04-19T07:49:55Z</time></trkpt><trkpt lat="43.0980180105921" lon="11.78574170866188"><ele>518.0</ele><time>2026-04-19T07:49:57Z</time></trkpt><trkpt lat="43.098009672190635" lon="11.785859847487036"><ele>517.5</ele><time>2026-04-19T07:49:59Z</time></trkpt><trkpt lat="43.097997120709564" lon="11.785990109523471"><ele>517.0</ele><time>2026-04-19T07:50:01Z</time></trkpt><trkpt lat="43.097970731015586" lon="11.78608359749404"><ele>517.0</ele><time>2026-04-19T07:50:03Z</time></trkpt><trkpt lat="43.09791760761741" lon="11.786198280515459"><ele>517.0</ele><time>2026-04-19T07:50:05Z</time></trkpt><trkpt lat="43.09784277402206" lon="11.786319891929702"><ele>517.0</ele><time>2026-04-19T07:50:07Z</time></trkpt><trkpt lat="43.09773923566259" lon="11.786431107432929"><ele>517.0</ele><time>2026-04-19T07:50:09Z</time></trkpt><trkpt lat="43.09767822565872" lon="11.78649381939503"><ele>517.0</ele><time>2026-04-19T07:50:10Z</time></trkpt><trkpt lat="43.09760914265239" lon="11.786556310574731"><ele>517.0</ele><time>2026-04-19T07:50:11Z</time></trkpt><trkpt lat="43.09754511739015" lon="11.786603924290342"><ele>517.0</ele><time>2026-04-19T07:50:12Z</time></trkpt><trkpt lat="43.09747242323463" lon="11.786638406403261"><ele>517.0</ele><time>2026-04-19T07:50:13Z</time></trkpt><trkpt lat="43.09740283766791" lon="11.78666560887875"><ele>517.0</ele><time>2026-04-19T07:50:14Z</time></trkpt><trkpt lat="43.09733445817923" lon="11.786685878698583"><ele>517.0</ele><time>2026-04-19T07:50:15Z</time></trkpt><trkpt lat="43.09726336754468" lon="11.7866984754373"><ele>517.0</ele><time>2026-04-19T07:50:16Z</time></trkpt><trkpt lat="43.0971922062584" lon="11.786701548792728"><ele>517.0</ele><time>2026-04-19T07:50:17Z</time></trkpt><trkpt lat="43.09712359167164" lon="11.786690586055975"><ele>517.0</ele><time>2026-04-19T07:50:18Z</time></trkpt><trkpt lat="43.09700029985794" lon="11.786663223249288"><ele>517.0</ele><time>2026-04-19T07:50:20Z</time></trkpt><trkpt lat="43.09693121750509" lon="11.786631553842728"><ele>517.0</ele><time>2026-04-19T07:50:21Z</time></trkpt><trkpt lat="43.096864306975704" lon="11.786582770794066"><ele>517.0</ele><time>2026-04-19T07:50:22Z</time></trkpt><trkpt lat="43.09679318129963" lon="11.786525533235318"><ele>517.0</ele><time>2026-04-19T07:50:23Z</time></trkpt><trkpt lat="43.09671436891098" lon="11.78646280680875"><ele>517.0</ele><time>2026-04-19T07:50:24Z</time></trkpt><trkpt lat="43.096634267392865" lon="11.786400831207928"><ele>516.0</ele><time>2026-04-19T07:50:25Z</time></trkpt><trkpt lat="43.09655623232914" lon="11.786336452503527"><ele>515.0</ele><time>2026-04-19T07:50:26Z</time></trkpt><trkpt lat="43.09647897541922" lon="11.786271826550793"><ele>514.0</ele><time>2026-04-19T07:50:27Z</time></trkpt><trkpt lat="43.096401541908634" lon="11.786207953441425"><ele>513.0</ele><time>2026-04-19T07:50:28Z</time></trkpt><trkpt lat="43.09632600003679" lon="11.786146118605178"><ele>512.0</ele><time>2026-04-19T07:50:29Z</time></trkpt><trkpt lat="43.09625481819827" lon="11.786085813087068"><ele>511.0</ele><time>2026-04-19T07:50:30Z</time></trkpt><trkpt lat="43.096174989679014" lon="11.786017009593735"><ele>515.0</ele><time>2026-04-19T07:50:31Z</time></trkpt><trkpt lat="43.09608892739335" lon="11.785951051504503"><ele>519.0</ele><time>2026-04-19T07:50:32Z</time></trkpt><trkpt lat="43.09600424333835" lon="11.785884689928658"><ele>523.0</ele><time>2026-04-19T07:50:33Z</time></trkpt><trkpt lat="43.09592158200658" lon="11.78582183425052"><ele>527.0</ele><time>2026-04-19T07:50:34Z</time></trkpt><trkpt lat="43.095842767612474" lon="11.785765115521665"><ele>531.0</ele><time>2026-04-19T07:50:35Z</time></trkpt><trkpt lat="43.09576330803166" lon="11.785702988550238"><ele>529.8</ele><time>2026-04-19T07:50:36Z</time></trkpt><trkpt lat="43.095681615081006" lon="11.78563110965046"><ele>528.6</ele><time>2026-04-19T07:50:37Z</time></trkpt><trkpt lat="43.095602094973735" lon="11.785552824412857"><ele>527.4</ele><time>2026-04-19T07:50:38Z</time></trkpt><trkpt lat="43.09552655156895" lon="11.78546679080782"><ele>526.2</ele><time>2026-04-19T07:50:39Z</time></trkpt><trkpt lat="43.095454208910475" lon="11.785379439586515"><ele>525.0</ele><time>2026-04-19T07:50:40Z</time></trkpt><trkpt lat="43.09538415157203" lon="11.785293778844983"><ele>525.0</ele><time>2026-04-19T07:50:41Z</time></trkpt><trkpt lat="43.095323738307485" lon="11.785215501911164"><ele>525.0</ele><time>2026-04-19T07:50:42Z</time></trkpt><trkpt lat="43.09527182643389" lon="11.785127558206693"><ele>525.0</ele><time>2026-04-19T07:50:43Z</time></trkpt><trkpt lat="43.0952317603175" lon="11.785021656237104"><ele>525.0</ele><time>2026-04-19T07:50:44Z</time></trkpt><trkpt lat="43.09520649662873" lon="11.784907708158235"><ele>525.0</ele><time>2026-04-19T07:50:45Z</time></trkpt><trkpt lat="43.095193436573055" lon="11.784779417287004"><ele>525.0</ele><time>2026-04-19T07:50:46Z</time></trkpt><trkpt lat="43.09518087053995" lon="11.78464885693461"><ele>526.4</ele><time>2026-04-19T07:50:47Z</time></trkpt><trkpt lat="43.095172022556376" lon="11.784516358867945"><ele>527.8</ele><time>2026-04-19T07:50:48Z</time></trkpt><trkpt lat="43.09516327456215" lon="11.784387522652711"><ele>529.2</ele><time>2026-04-19T07:50:49Z</time></trkpt><trkpt lat="43.095153659026856" lon="11.78427142518132"><ele>530.6</ele><time>2026-04-19T07:50:50Z</time></trkpt><trkpt lat="43.09513784076876" lon="11.78415753088813"><ele>532.0</ele><time>2026-04-19T07:50:51Z</time></trkpt><trkpt lat="43.095107268213404" lon="11.784038983131715"><ele>533.0</ele><time>2026-04-19T07:50:52Z</time></trkpt><trkpt lat="43.09505977608496" lon="11.78392558764698"><ele>534.0</ele><time>2026-04-19T07:50:53Z</time></trkpt><trkpt lat="43.09499835648633" lon="11.783822486754254"><ele>535.0</ele><time>2026-04-19T07:50:54Z</time></trkpt><trkpt lat="43.094924755814326" lon="11.783729799722261"><ele>536.0</ele><time>2026-04-19T07:50:55Z</time></trkpt><trkpt lat="43.09484465209404" lon="11.783643397041997"><ele>537.0</ele><time>2026-04-19T07:50:56Z</time></trkpt><trkpt lat="43.0947616426522" lon="11.783561799688274"><ele>536.6</ele><time>2026-04-19T07:50:57Z</time></trkpt><trkpt lat="43.094676902164686" lon="11.783483788425647"><ele>536.2</ele><time>2026-04-19T07:50:58Z</time></trkpt><trkpt lat="43.09458887735072" lon="11.783409446604582"><ele>535.8</ele><time>2026-04-19T07:50:59Z</time></trkpt><trkpt lat="43.094501996211385" lon="11.783346782530131"><ele>535.4</ele><time>2026-04-19T07:51:00Z</time></trkpt><trkpt lat="43.09441243056254" lon="11.783286818211327"><ele>535.0</ele><time>2026-04-19T07:51:01Z</time></trkpt><trkpt lat="43.094324976039225" lon="11.783236450708518"><ele>535.0</ele><time>2026-04-19T07:51:02Z</time></trkpt><trkpt lat="43.09423137542985" lon="11.783196113145904"><ele>535.0</ele><time>2026-04-19T07:51:03Z</time></trkpt><trkpt lat="43.09413417080652" lon="11.78316471270027"><ele>535.0</ele><time>2026-04-19T07:51:04Z</time></trkpt><trkpt lat="43.094042168236115" lon="11.783154640076063"><ele>535.0</ele><time>2026-04-19T07:51:05Z</time></trkpt><trkpt lat="43.09396361840387" lon="11.783160442722675"><ele>535.0</ele><time>2026-04-19T07:51:06Z</time></trkpt><trkpt lat="43.09389617955395" lon="11.783185117657508"><ele>535.0</ele><time>2026-04-19T07:51:07Z</time></trkpt><trkpt lat="43.09383249019557" lon="11.783228920907915"><ele>533.1666666666667</ele><time>2026-04-19T07:51:08Z</time></trkpt><trkpt lat="43.09376376563531" lon="11.783299553550053"><ele>531.3333333333334</ele><time>2026-04-19T07:51:09Z</time></trkpt><trkpt lat="43.09370668314186" lon="11.783368809613702"><ele>529.5</ele><time>2026-04-19T07:51:10Z</time></trkpt><trkpt lat="43.09364389319772" lon="11.783446383947773"><ele>527.6666666666666</ele><time>2026-04-19T07:51:11Z</time></trkpt><trkpt lat="43.09356684923622" lon="11.783521365636139"><ele>525.8333333333333</ele><time>2026-04-19T07:51:12Z</time></trkpt><trkpt lat="43.09349148365769" lon="11.783601624179116"><ele>524.0</ele><time>2026-04-19T07:51:13Z</time></trkpt><trkpt lat="43.0934217677336" lon="11.783679191945405"><ele>524.0</ele><time>2026-04-19T07:51:14Z</time></trkpt><trkpt lat="43.093350913901354" lon="11.783751792355632"><ele>524.0</ele><time>2026-04-19T07:51:15Z</time></trkpt><trkpt lat="43.09327771543683" lon="11.783813811868475"><ele>524.0</ele><time>2026-04-19T07:51:16Z</time></trkpt><trkpt lat="43.09320189383804" lon="11.783862942313347"><ele>524.0</ele><time>2026-04-19T07:51:17Z</time></trkpt><trkpt lat="43.09312518804067" lon="11.78389618131642"><ele>524.0</ele><time>2026-04-19T07:51:18Z</time></trkpt><trkpt lat="43.09305294326646" lon="11.783921715695682"><ele>524.0</ele><time>2026-04-19T07:51:19Z</time></trkpt><trkpt lat="43.092981680622806" lon="11.783939780833208"><ele>524.5</ele><time>2026-04-19T07:51:20Z</time></trkpt><trkpt lat="43.09291044287733" lon="11.783946032449828"><ele>525.0</ele><time>2026-04-19T07:51:21Z</time></trkpt><trkpt lat="43.09282887028423" lon="11.783939071461136"><ele>525.5</ele><time>2026-04-19T07:51:22Z</time></trkpt><trkpt lat="43.0927421457717" lon="11.783923546378094"><ele>526.0</ele><time>2026-04-19T07:51:23Z</time></trkpt><trkpt lat="43.09265051831662" lon="11.783897114209516"><ele>526.5</ele><time>2026-04-19T07:51:24Z</time></trkpt><trkpt lat="43.092558763217745" lon="11.783862236372142"><ele>527.0</ele><time>2026-04-19T07:51:25Z</time></trkpt><trkpt lat="43.09247088468766" lon="11.783823405964156"><ele>526.2</ele><time>2026-04-19T07:51:26Z</time></trkpt><trkpt lat="43.09237848872249" lon="11.783778358936411"><ele>525.4000000000001</ele><time>2026-04-19T07:51:27Z</time></trkpt><trkpt lat="43.092285699201234" lon="11.783726065093347"><ele>524.5999999999999</ele><time>2026-04-19T07:51:28Z</time></trkpt><trkpt lat="43.09218970234426" lon="11.783666947876606"><ele>523.8</ele><time>2026-04-19T07:51:29Z</time></trkpt><trkpt lat="43.09209339974173" lon="11.78361135035173"><ele>523.0</ele><time>2026-04-19T07:51:30Z</time></trkpt><trkpt lat="43.091990600799846" lon="11.783553350047397"><ele>523.0</ele><time>2026-04-19T07:51:31Z</time></trkpt><trkpt lat="43.091886708982855" lon="11.783501177234587"><ele>523.0</ele><time>2026-04-19T07:51:32Z</time></trkpt><trkpt lat="43.09178062740073" lon="11.783452852645006"><ele>523.0</ele><time>2026-04-19T07:51:33Z</time></trkpt><trkpt lat="43.09167140422292" lon="11.7834143065265"><ele>523.0</ele><time>2026-04-19T07:51:34Z</time></trkpt><trkpt lat="43.091565832979775" lon="11.783368399418228"><ele>523.0</ele><time>2026-04-19T07:51:35Z</time></trkpt><trkpt lat="43.091456465565514" lon="11.783329546774464"><ele>523.0</ele><time>2026-04-19T07:51:36Z</time></trkpt><trkpt lat="43.091352409813425" lon="11.783288287247418"><ele>523.0</ele><time>2026-04-19T07:51:37Z</time></trkpt><trkpt lat="43.091248287803765" lon="11.783243508873259"><ele>523.0</ele><time>2026-04-19T07:51:38Z</time></trkpt><trkpt lat="43.09114053181153" lon="11.783186186660933"><ele>523.0</ele><time>2026-04-19T07:51:39Z</time></trkpt><trkpt lat="43.09103965215926" lon="11.783111090023114"><ele>523.0</ele><time>2026-04-19T07:51:40Z</time></trkpt><trkpt lat="43.09094808012786" lon="11.783029029340534"><ele>523.0</ele><time>2026-04-19T07:51:41Z</time></trkpt><trkpt lat="43.090863703550426" lon="11.782947367365052"><ele>523.0</ele><time>2026-04-19T07:51:42Z</time></trkpt><trkpt lat="43.09079357086151" lon="11.78287536532071"><ele>523.0</ele><time>2026-04-19T07:51:43Z</time></trkpt><trkpt lat="43.09072156312162" lon="11.782806709358042"><ele>523.0</ele><time>2026-04-19T07:51:44Z</time></trkpt><trkpt lat="43.090637695803544" lon="11.782740620096634"><ele>523.0</ele><time>2026-04-19T07:51:45Z</time></trkpt><trkpt lat="43.090546929468886" lon="11.782685882716052"><ele>525.6</ele><time>2026-04-19T07:51:46Z</time></trkpt><trkpt lat="43.09044990567821" lon="11.782642633859282"><ele>528.1999999999999</ele><time>2026-04-19T07:51:47Z</time></trkpt><trkpt lat="43.09035007793143" lon="11.782605029644024"><ele>530.8</ele><time>2026-04-19T07:51:48Z</time></trkpt><trkpt lat="43.0902477167622" lon="11.782574870421776"><ele>533.4</ele><time>2026-04-19T07:51:49Z</time></trkpt><trkpt lat="43.090146559734734" lon="11.782554853351874"><ele>536.0</ele><time>2026-04-19T07:51:50Z</time></trkpt><trkpt lat="43.0900435938814" lon="11.78254322868782"><ele>536.0</ele><time>2026-04-19T07:51:51Z</time></trkpt><trkpt lat="43.089941084617266" lon="11.782534157647078"><ele>536.0</ele><time>2026-04-19T07:51:52Z</time></trkpt><trkpt lat="43.08984047262053" lon="11.782520522281848"><ele>536.0</ele><time>2026-04-19T07:51:53Z</time></trkpt><trkpt lat="43.089738186387294" lon="11.782492961655247"><ele>536.0</ele><time>2026-04-19T07:51:54Z</time></trkpt><trkpt lat="43.089642737490294" lon="11.782443785144741"><ele>536.0</ele><time>2026-04-19T07:51:55Z</time></trkpt><trkpt lat="43.08955926977326" lon="11.782377694817045"><ele>533.0</ele><time>2026-04-19T07:51:56Z</time></trkpt><trkpt lat="43.089489413167506" lon="11.782297129317161"><ele>530.0</ele><time>2026-04-19T07:51:57Z</time></trkpt><trkpt lat="43.08943618384436" lon="11.7821900267349"><ele>527.0</ele><time>2026-04-19T07:51:58Z</time></trkpt><trkpt lat="43.08940323659789" lon="11.78205768363043"><ele>524.0</ele><time>2026-04-19T07:51:59Z</time></trkpt><trkpt lat="43.08938775906357" lon="11.781911083604626"><ele>521.0</ele><time>2026-04-19T07:52:00Z</time></trkpt><trkpt lat="43.08938713214905" lon="11.781765470458687"><ele>521.0</ele><time>2026-04-19T07:52:01Z</time></trkpt><trkpt lat="43.08938994932987" lon="11.781625498621764"><ele>521.0</ele><time>2026-04-19T07:52:02Z</time></trkpt><trkpt lat="43.08938832699225" lon="11.781493548686413"><ele>521.0</ele><time>2026-04-19T07:52:03Z</time></trkpt><trkpt lat="43.08936809522846" lon="11.781340821433211"><ele>521.0</ele><time>2026-04-19T07:52:04Z</time></trkpt><trkpt lat="43.08933226879965" lon="11.781178313330354"><ele>521.0</ele><time>2026-04-19T07:52:05Z</time></trkpt><trkpt lat="43.089284070330294" lon="11.781021139286716"><ele>523.75</ele><time>2026-04-19T07:52:06Z</time></trkpt><trkpt lat="43.089228476867625" lon="11.780870573371564"><ele>526.5</ele><time>2026-04-19T07:52:07Z</time></trkpt><trkpt lat="43.089173370278644" lon="11.780731401510533"><ele>529.25</ele><time>2026-04-19T07:52:08Z</time></trkpt><trkpt lat="43.08911853632657" lon="11.780597085479709"><ele>532.0</ele><time>2026-04-19T07:52:09Z</time></trkpt><trkpt lat="43.089056663331874" lon="11.780457281161256"><ele>527.5</ele><time>2026-04-19T07:52:10Z</time></trkpt><trkpt lat="43.08898897251539" lon="11.78032140122662"><ele>523.0</ele><time>2026-04-19T07:52:11Z</time></trkpt><trkpt lat="43.088910972028444" lon="11.78019753610089"><ele>518.5</ele><time>2026-04-19T07:52:12Z</time></trkpt><trkpt lat="43.08882825768283" lon="11.780076985168185"><ele>514.0</ele><time>2026-04-19T07:52:13Z</time></trkpt><trkpt lat="43.08874371213005" lon="11.7799530724608"><ele>514.0</ele><time>2026-04-19T07:52:14Z</time></trkpt><trkpt lat="43.088654831921495" lon="11.779826125384975"><ele>514.0</ele><time>2026-04-19T07:52:15Z</time></trkpt><trkpt lat="43.08856611674635" lon="11.7796943001289"><ele>514.0</ele><time>2026-04-19T07:52:16Z</time></trkpt><trkpt lat="43.08847320726954" lon="11.779564286263541"><ele>514.0</ele><time>2026-04-19T07:52:17Z</time></trkpt><trkpt lat="43.08837934716558" lon="11.77943635489281"><ele>516.75</ele><time>2026-04-19T07:52:18Z</time></trkpt><trkpt lat="43.088287266324954" lon="11.779312514106515"><ele>519.5</ele><time>2026-04-19T07:52:19Z</time></trkpt><trkpt lat="43.088197156901856" lon="11.77918839513244"><ele>522.25</ele><time>2026-04-19T07:52:20Z</time></trkpt><trkpt lat="43.08811508917619" lon="11.779064214712292"><ele>525.0</ele><time>2026-04-19T07:52:21Z</time></trkpt><trkpt lat="43.08804320518214" lon="11.778934201995325"><ele>520.25</ele><time>2026-04-19T07:52:22Z</time></trkpt><trkpt lat="43.08798234817818" lon="11.778799893806035"><ele>515.5</ele><time>2026-04-19T07:52:23Z</time></trkpt><trkpt lat="43.087935527879324" lon="11.778650040092053"><ele>510.75</ele><time>2026-04-19T07:52:24Z</time></trkpt><trkpt lat="43.08789662345303" lon="11.778487563599176"><ele>506.0</ele><time>2026-04-19T07:52:25Z</time></trkpt><trkpt lat="43.08786735624533" lon="11.778332379990287"><ele>506.0</ele><time>2026-04-19T07:52:26Z</time></trkpt><trkpt lat="43.08785049301014" lon="11.77818228063256"><ele>506.0</ele><time>2026-04-19T07:52:27Z</time></trkpt><trkpt lat="43.08783497437791" lon="11.77802588915707"><ele>506.0</ele><time>2026-04-19T07:52:28Z</time></trkpt><trkpt lat="43.087808952014555" lon="11.777869986316585"><ele>506.0</ele><time>2026-04-19T07:52:29Z</time></trkpt><trkpt lat="43.08777277407703" lon="11.77772256817854"><ele>507.0</ele><time>2026-04-19T07:52:30Z</time></trkpt><trkpt lat="43.08773063433156" lon="11.777573607612183"><ele>508.0</ele><time>2026-04-19T07:52:31Z</time></trkpt><trkpt lat="43.08768510578922" lon="11.777438534435676"><ele>509.0</ele><time>2026-04-19T07:52:32Z</time></trkpt><trkpt lat="43.087636012574414" lon="11.777309065523346"><ele>510.0</ele><time>2026-04-19T07:52:33Z</time></trkpt><trkpt lat="43.087588655628764" lon="11.777167576372548"><ele>511.0</ele><time>2026-04-19T07:52:34Z</time></trkpt><trkpt lat="43.08755066434303" lon="11.77703122358017"><ele>511.00000000000006</ele><time>2026-04-19T07:52:35Z</time></trkpt><trkpt lat="43.087523319877135" lon="11.776898231089442"><ele>511.0</ele><time>2026-04-19T07:52:36Z</time></trkpt><trkpt lat="43.08750542207928" lon="11.776780018032857"><ele>511.0</ele><time>2026-04-19T07:52:37Z</time></trkpt><trkpt lat="43.08748733987141" lon="11.776668046707151"><ele>511.0</ele><time>2026-04-19T07:52:38Z</time></trkpt><trkpt lat="43.08746943381356" lon="11.776555177119995"><ele>511.00000000000006</ele><time>2026-04-19T07:52:39Z</time></trkpt><trkpt lat="43.087453697489465" lon="11.776448671730854"><ele>511.0</ele><time>2026-04-19T07:52:40Z</time></trkpt><trkpt lat="43.08743798516336" lon="11.776354024211267"><ele>510.1666666666667</ele><time>2026-04-19T07:52:41Z</time></trkpt><trkpt lat="43.08740976282699" lon="11.776202561870411"><ele>509.33333333333337</ele><time>2026-04-19T07:52:43Z</time></trkpt><trkpt lat="43.087389489153644" lon="11.77610227075179"><ele>508.5</ele><time>2026-04-19T07:52:46Z</time></trkpt><trkpt lat="43.08735685625721" lon="11.776015339030135"><ele>507.66666666666663</ele><time>2026-04-19T07:52:48Z</time></trkpt><trkpt lat="43.087366833629154" lon="11.775917977293204"><ele>506.8333333333333</ele><time>2026-04-19T07:52:49Z</time></trkpt><trkpt lat="43.08735047133683" lon="11.775809386895913"><ele>506.0</ele><time>2026-04-19T07:52:50Z</time></trkpt><trkpt lat="43.087317473192215" lon="11.775675401208533"><ele>506.0</ele><time>2026-04-19T07:52:51Z</time></trkpt><trkpt lat="43.08727872545561" lon="11.775520898978897"><ele>506.0</ele><time>2026-04-19T07:52:52Z</time></trkpt><trkpt lat="43.08723132999244" lon="11.775343487317546"><ele>506.0</ele><time>2026-04-19T07:52:53Z</time></trkpt><trkpt lat="43.08718261262219" lon="11.77516138145479"><ele>506.0</ele><time>2026-04-19T07:52:54Z</time></trkpt><trkpt lat="43.087132042758455" lon="11.774973433115665"><ele>506.5</ele><time>2026-04-19T07:52:55Z</time></trkpt><trkpt lat="43.08708471651905" lon="11.774796797884358"><ele>507.0</ele><time>2026-04-19T07:52:56Z</time></trkpt><trkpt lat="43.087031089737" lon="11.774633019934786"><ele>507.5</ele><time>2026-04-19T07:52:57Z</time></trkpt><trkpt lat="43.08697352284955" lon="11.774471315728167"><ele>508.0</ele><time>2026-04-19T07:52:58Z</time></trkpt><trkpt lat="43.086911286295646" lon="11.7743051774369"><ele>509.25</ele><time>2026-04-19T07:52:59Z</time></trkpt><trkpt lat="43.086848074549785" lon="11.774134175369458"><ele>510.5</ele><time>2026-04-19T07:53:00Z</time></trkpt><trkpt lat="43.086784143294054" lon="11.773961654153895"><ele>511.75</ele><time>2026-04-19T07:53:01Z</time></trkpt><trkpt lat="43.08672408915342" lon="11.773791940351748"><ele>513.0</ele><time>2026-04-19T07:53:02Z</time></trkpt><trkpt lat="43.08666735892714" lon="11.77361957845946"><ele>512.5</ele><time>2026-04-19T07:53:03Z</time></trkpt><trkpt lat="43.08661842844191" lon="11.773455542832888"><ele>512.0</ele><time>2026-04-19T07:53:04Z</time></trkpt><trkpt lat="43.086575799203665" lon="11.773298320047479"><ele>511.5</ele><time>2026-04-19T07:53:05Z</time></trkpt><trkpt lat="43.08653956551728" lon="11.773134863004078"><ele>511.0</ele><time>2026-04-19T07:53:06Z</time></trkpt><trkpt lat="43.08651343687337" lon="11.772965568472806"><ele>513.0</ele><time>2026-04-19T07:53:07Z</time></trkpt><trkpt lat="43.086499377213414" lon="11.772790725063581"><ele>515.0</ele><time>2026-04-19T07:53:08Z</time></trkpt><trkpt lat="43.08649888219143" lon="11.772620396003889"><ele>517.0</ele><time>2026-04-19T07:53:09Z</time></trkpt><trkpt lat="43.086508630255445" lon="11.772456235682107"><ele>519.0</ele><time>2026-04-19T07:53:10Z</time></trkpt><trkpt lat="43.08652215754761" lon="11.772292337563334"><ele>520.5</ele><time>2026-04-19T07:53:11Z</time></trkpt><trkpt lat="43.08653835855242" lon="11.772116953916745"><ele>522.0</ele><time>2026-04-19T07:53:12Z</time></trkpt><trkpt lat="43.08654793867842" lon="11.771938489223881"><ele>523.5</ele><time>2026-04-19T07:53:13Z</time></trkpt><trkpt lat="43.0865496024842" lon="11.771759127753871"><ele>525.0</ele><time>2026-04-19T07:53:14Z</time></trkpt><trkpt lat="43.08654321775362" lon="11.771584367201697"><ele>525.25</ele><time>2026-04-19T07:53:15Z</time></trkpt><trkpt lat="43.08653421462582" lon="11.771411179868931"><ele>525.5</ele><time>2026-04-19T07:53:16Z</time></trkpt><trkpt lat="43.0865242803" lon="11.771234551311224"><ele>525.75</ele><time>2026-04-19T07:53:17Z</time></trkpt><trkpt lat="43.08651611221109" lon="11.771055619896881"><ele>526.0</ele><time>2026-04-19T07:53:18Z</time></trkpt><trkpt lat="43.08650778861258" lon="11.770874041695972"><ele>524.5</ele><time>2026-04-19T07:53:19Z</time></trkpt><trkpt lat="43.086496421416584" lon="11.770689560037827"><ele>523.0</ele><time>2026-04-19T07:53:20Z</time></trkpt><trkpt lat="43.08648336713063" lon="11.770502290617976"><ele>521.5</ele><time>2026-04-19T07:53:21Z</time></trkpt><trkpt lat="43.08647156312287" lon="11.770311294507525"><ele>520.0</ele><time>2026-04-19T07:53:22Z</time></trkpt><trkpt lat="43.08645652503178" lon="11.770111819858357"><ele>518.5</ele><time>2026-04-19T07:53:23Z</time></trkpt><trkpt lat="43.08643497707526" lon="11.769913521230588"><ele>517.0</ele><time>2026-04-19T07:53:24Z</time></trkpt><trkpt lat="43.08640865780847" lon="11.769716992233796"><ele>515.5</ele><time>2026-04-19T07:53:25Z</time></trkpt><trkpt lat="43.08638195975497" lon="11.769516298534507"><ele>514.0</ele><time>2026-04-19T07:53:26Z</time></trkpt><trkpt lat="43.08635855971627" lon="11.769317037585353"><ele>513.0</ele><time>2026-04-19T07:53:27Z</time></trkpt><trkpt lat="43.08634489543346" lon="11.769113147778933"><ele>512.0</ele><time>2026-04-19T07:53:28Z</time></trkpt><trkpt lat="43.08634371521883" lon="11.768899095400284"><ele>511.0</ele><time>2026-04-19T07:53:29Z</time></trkpt><trkpt lat="43.086356060054996" lon="11.76866926291983"><ele>509.6666666666667</ele><time>2026-04-19T07:53:30Z</time></trkpt><trkpt lat="43.08637846388697" lon="11.768430502598887"><ele>508.33333333333337</ele><time>2026-04-19T07:53:31Z</time></trkpt><trkpt lat="43.086398820364465" lon="11.768173070901131"><ele>507.0</ele><time>2026-04-19T07:53:32Z</time></trkpt><trkpt lat="43.08642098786868" lon="11.767891977226922"><ele>505.0</ele><time>2026-04-19T07:53:33Z</time></trkpt><trkpt lat="43.08644545071215" lon="11.767618308296012"><ele>503.0</ele><time>2026-04-19T07:53:34Z</time></trkpt><trkpt lat="43.08648639456596" lon="11.767321407455274"><ele>501.0</ele><time>2026-04-19T07:53:35Z</time></trkpt><trkpt lat="43.08650433599389" lon="11.767003665197363"><ele>499.0</ele><time>2026-04-19T07:53:36Z</time></trkpt><trkpt lat="43.08655511663387" lon="11.766686926572536"><ele>497.0</ele><time>2026-04-19T07:53:37Z</time></trkpt><trkpt lat="43.08659138491116" lon="11.766362167345703"><ele>497.5</ele><time>2026-04-19T07:53:38Z</time></trkpt><trkpt lat="43.086614350166094" lon="11.766042598964304"><ele>498.0</ele><time>2026-04-19T07:53:39Z</time></trkpt><trkpt lat="43.08664656021417" lon="11.765726277992012"><ele>498.0</ele><time>2026-04-19T07:53:40Z</time></trkpt><trkpt lat="43.08666845494255" lon="11.765407516516442"><ele>498.0</ele><time>2026-04-19T07:53:41Z</time></trkpt><trkpt lat="43.08670121442195" lon="11.765099358370573"><ele>497.33333333333337</ele><time>2026-04-19T07:53:42Z</time></trkpt><trkpt lat="43.08673360342808" lon="11.764796790247328"><ele>496.6666666666667</ele><time>2026-04-19T07:53:43Z</time></trkpt><trkpt lat="43.0867665086553" lon="11.764490510628404"><ele>496.0</ele><time>2026-04-19T07:53:44Z</time></trkpt><trkpt lat="43.086802976016486" lon="11.764185073723285"><ele>494.6666666666667</ele><time>2026-04-19T07:53:45Z</time></trkpt><trkpt lat="43.086839523972266" lon="11.763890987951715"><ele>493.33333333333337</ele><time>2026-04-19T07:53:46Z</time></trkpt><trkpt lat="43.086875462569886" lon="11.763608877681936"><ele>492.0</ele><time>2026-04-19T07:53:47Z</time></trkpt><trkpt lat="43.086905589951826" lon="11.76333058796486"><ele>491.33333333333337</ele><time>2026-04-19T07:53:48Z</time></trkpt><trkpt lat="43.086930718614745" lon="11.76306744719121"><ele>490.6666666666667</ele><time>2026-04-19T07:53:49Z</time></trkpt><trkpt lat="43.08695482350332" lon="11.762805468969717"><ele>490.0</ele><time>2026-04-19T07:53:50Z</time></trkpt><trkpt lat="43.08696493226049" lon="11.762561075382186"><ele>490.0</ele><time>2026-04-19T07:53:51Z</time></trkpt><trkpt lat="43.086965517621984" lon="11.762313906505273"><ele>490.0</ele><time>2026-04-19T07:53:52Z</time></trkpt><trkpt lat="43.08695744057182" lon="11.762065394403285"><ele>490.0</ele><time>2026-04-19T07:53:53Z</time></trkpt><trkpt lat="43.086926545299455" lon="11.761835877307888"><ele>490.0</ele><time>2026-04-19T07:53:54Z</time></trkpt><trkpt lat="43.086876921535534" lon="11.761609960463657"><ele>490.0</ele><time>2026-04-19T07:53:55Z</time></trkpt><trkpt lat="43.086810987375785" lon="11.761378768846145"><ele>490.0</ele><time>2026-04-19T07:53:56Z</time></trkpt><trkpt lat="43.086740960072376" lon="11.761142962846446"><ele>489.6666666666667</ele><time>2026-04-19T07:53:57Z</time></trkpt><trkpt lat="43.08667127709574" lon="11.760887841450565"><ele>489.33333333333337</ele><time>2026-04-19T07:53:58Z</time></trkpt><trkpt lat="43.08660674857383" lon="11.760633455404035"><ele>489.0</ele><time>2026-04-19T07:53:59Z</time></trkpt><trkpt lat="43.08655894987726" lon="11.760407129835462"><ele>489.33333333333337</ele><time>2026-04-19T07:54:00Z</time></trkpt><trkpt lat="43.08654050591395" lon="11.760188437406587"><ele>489.6666666666667</ele><time>2026-04-19T07:54:01Z</time></trkpt><trkpt lat="43.08654177551712" lon="11.7599775690742"><ele>490.0</ele><time>2026-04-19T07:54:02Z</time></trkpt><trkpt lat="43.086579207035115" lon="11.759756766494599"><ele>490.0</ele><time>2026-04-19T07:54:03Z</time></trkpt><trkpt lat="43.08664763973928" lon="11.759523515619806"><ele>490.0</ele><time>2026-04-19T07:54:04Z</time></trkpt><trkpt lat="43.086744552514034" lon="11.759256791141697"><ele>490.0</ele><time>2026-04-19T07:54:05Z</time></trkpt><trkpt lat="43.08689587812486" lon="11.759002444919304"><ele>490.33333333333337</ele><time>2026-04-19T07:54:06Z</time></trkpt><trkpt lat="43.08701732187919" lon="11.75877148377424"><ele>490.66666666666663</ele><time>2026-04-19T07:54:07Z</time></trkpt><trkpt lat="43.087101263379076" lon="11.758583895966169"><ele>491.0</ele><time>2026-04-19T07:54:08Z</time></trkpt><trkpt lat="43.08722914640063" lon="11.758333143799826"><ele>488.5</ele><time>2026-04-19T07:54:09Z</time></trkpt><trkpt lat="43.087361732886315" lon="11.758065786816159"><ele>486.0</ele><time>2026-04-19T07:54:10Z</time></trkpt><trkpt lat="43.087493589720765" lon="11.757826362956989"><ele>486.66666666666663</ele><time>2026-04-19T07:54:11Z</time></trkpt><trkpt lat="43.087620712097944" lon="11.757601444043425"><ele>487.3333333333333</ele><time>2026-04-19T07:54:12Z</time></trkpt><trkpt lat="43.0877438422513" lon="11.757385609852927"><ele>488.0</ele><time>2026-04-19T07:54:13Z</time></trkpt><trkpt lat="43.087886349486986" lon="11.757207622899198"><ele>488.0</ele><time>2026-04-19T07:54:14Z</time></trkpt><trkpt lat="43.088058908813046" lon="11.757005779031708"><ele>488.0</ele><time>2026-04-19T07:54:15Z</time></trkpt><trkpt lat="43.08823693560543" lon="11.756823308446439"><ele>488.0</ele><time>2026-04-19T07:54:16Z</time></trkpt><trkpt lat="43.08840119954873" lon="11.75663007658755"><ele>486.66666666666663</ele><time>2026-04-19T07:54:17Z</time></trkpt><trkpt lat="43.08855443331267" lon="11.7564247391042"><ele>485.33333333333337</ele><time>2026-04-19T07:54:18Z</time></trkpt><trkpt lat="43.08869404337328" lon="11.756207983444517"><ele>484.0</ele><time>2026-04-19T07:54:19Z</time></trkpt><trkpt lat="43.088822114148286" lon="11.755985547199245"><ele>483.0</ele><time>2026-04-19T07:54:20Z</time></trkpt><trkpt lat="43.0889451161402" lon="11.755759009228152"><ele>482.0</ele><time>2026-04-19T07:54:21Z</time></trkpt><trkpt lat="43.08905910217637" lon="11.755527337188976"><ele>481.0</ele><time>2026-04-19T07:54:22Z</time></trkpt><trkpt lat="43.08916431378776" lon="11.755297665060972"><ele>484.33333333333337</ele><time>2026-04-19T07:54:23Z</time></trkpt><trkpt lat="43.089263346972714" lon="11.755086650328336"><ele>487.66666666666663</ele><time>2026-04-19T07:54:24Z</time></trkpt><trkpt lat="43.08936274255016" lon="11.754893831451025"><ele>491.0</ele><time>2026-04-19T07:54:25Z</time></trkpt><trkpt lat="43.08946753352972" lon="11.754719179671314"><ele>491.0</ele><time>2026-04-19T07:54:26Z</time></trkpt><trkpt lat="43.089589338834735" lon="11.754570164104429"><ele>491.0</ele><time>2026-04-19T07:54:27Z</time></trkpt><trkpt lat="43.08972719031109" lon="11.754449693873424"><ele>491.0</ele><time>2026-04-19T07:54:28Z</time></trkpt><trkpt lat="43.089880754927876" lon="11.75436166960741"><ele>491.3333333333333</ele><time>2026-04-19T07:54:29Z</time></trkpt><trkpt lat="43.09005505337936" lon="11.754302610760908"><ele>491.66666666666663</ele><time>2026-04-19T07:54:30Z</time></trkpt><trkpt lat="43.09024983402333" lon="11.754254128364579"><ele>492.0</ele><time>2026-04-19T07:54:31Z</time></trkpt><trkpt lat="43.0904544578944" lon="11.754213743182708"><ele>492.0</ele><time>2026-04-19T07:54:32Z</time></trkpt><trkpt lat="43.0906585858429" lon="11.754173128861884"><ele>492.0</ele><time>2026-04-19T07:54:33Z</time></trkpt><trkpt lat="43.09084797290741" lon="11.754131164268975"><ele>492.0</ele><time>2026-04-19T07:54:34Z</time></trkpt><trkpt lat="43.09102459523815" lon="11.754085439029831"><ele>490.33333333333337</ele><time>2026-04-19T07:54:35Z</time></trkpt><trkpt lat="43.091186756326394" lon="11.754041487955881"><ele>488.6666666666667</ele><time>2026-04-19T07:54:36Z</time></trkpt><trkpt lat="43.09133606296319" lon="11.753970953211489"><ele>487.0</ele><time>2026-04-19T07:54:37Z</time></trkpt><trkpt lat="43.09147164973048" lon="11.753865180085795"><ele>489.0</ele><time>2026-04-19T07:54:38Z</time></trkpt><trkpt lat="43.091598195726206" lon="11.753718528021492"><ele>491.0</ele><time>2026-04-19T07:54:39Z</time></trkpt><trkpt lat="43.09172022122081" lon="11.753544255783568"><ele>493.0</ele><time>2026-04-19T07:54:40Z</time></trkpt><trkpt lat="43.0918553339331" lon="11.753372787403267"><ele>493.0</ele><time>2026-04-19T07:54:41Z</time></trkpt><trkpt lat="43.09200680187045" lon="11.753210233757178"><ele>493.0</ele><time>2026-04-19T07:54:42Z</time></trkpt><trkpt lat="43.092169025692854" lon="11.753066667440988"><ele>493.0</ele><time>2026-04-19T07:54:43Z</time></trkpt><trkpt lat="43.092331505257675" lon="11.752923769261168"><ele>495.33333333333337</ele><time>2026-04-19T07:54:44Z</time></trkpt><trkpt lat="43.0924907706123" lon="11.752771508722983"><ele>497.66666666666663</ele><time>2026-04-19T07:54:45Z</time></trkpt><trkpt lat="43.09265109493474" lon="11.75262281337094"><ele>500.0</ele><time>2026-04-19T07:54:46Z</time></trkpt><trkpt lat="43.09282251404026" lon="11.752496165556499"><ele>500.0</ele><time>2026-04-19T07:54:47Z</time></trkpt><trkpt lat="43.09300153674185" lon="11.752401612668224"><ele>500.0</ele><time>2026-04-19T07:54:48Z</time></trkpt><trkpt lat="43.09318309599326" lon="11.752322125513311"><ele>500.0</ele><time>2026-04-19T07:54:49Z</time></trkpt><trkpt lat="43.09336122535437" lon="11.752244430928616"><ele>496.3333333333333</ele><time>2026-04-19T07:54:50Z</time></trkpt><trkpt lat="43.09353401764844" lon="11.752167076271308"><ele>492.66666666666663</ele><time>2026-04-19T07:54:51Z</time></trkpt><trkpt lat="43.09370766733027" lon="11.752106522825844"><ele>489.0</ele><time>2026-04-19T07:54:52Z</time></trkpt><trkpt lat="43.0938686401085" lon="11.752057826705535"><ele>489.0</ele><time>2026-04-19T07:54:53Z</time></trkpt><trkpt lat="43.09401981256045" lon="11.752016991076768"><ele>489.0</ele><time>2026-04-19T07:54:54Z</time></trkpt><trkpt lat="43.09416520882213" lon="11.751957670703826"><ele>489.0</ele><time>2026-04-19T07:54:55Z</time></trkpt><trkpt lat="43.094296410285196" lon="11.751873017960989"><ele>491.0</ele><time>2026-04-19T07:54:56Z</time></trkpt><trkpt lat="43.0944058639" lon="11.751758400738678"><ele>493.0</ele><time>2026-04-19T07:54:57Z</time></trkpt><trkpt lat="43.09450010995536" lon="11.751603740981853"><ele>495.0</ele><time>2026-04-19T07:54:58Z</time></trkpt><trkpt lat="43.09457052810072" lon="11.751405687081474"><ele>497.0</ele><time>2026-04-19T07:54:59Z</time></trkpt><trkpt lat="43.09461464740534" lon="11.751182136036181"><ele>502.66666666666663</ele><time>2026-04-19T07:55:00Z</time></trkpt><trkpt lat="43.094649820238715" lon="11.750958918472636"><ele>508.33333333333337</ele><time>2026-04-19T07:55:01Z</time></trkpt><trkpt lat="43.094706407782546" lon="11.75074799665008"><ele>514.0</ele><time>2026-04-19T07:55:02Z</time></trkpt><trkpt lat="43.094801757707955" lon="11.75055311555946"><ele>514.0</ele><time>2026-04-19T07:55:03Z</time></trkpt><trkpt lat="43.09490849538154" lon="11.75037779842864"><ele>514.0</ele><time>2026-04-19T07:55:04Z</time></trkpt><trkpt lat="43.09501297777916" lon="11.750229243716847"><ele>514.0</ele><time>2026-04-19T07:55:05Z</time></trkpt><trkpt lat="43.095133321748456" lon="11.750120306155672"><ele>513.25</ele><time>2026-04-19T07:55:06Z</time></trkpt><trkpt lat="43.09527299196206" lon="11.750056049706341"><ele>512.5</ele><time>2026-04-19T07:55:07Z</time></trkpt><trkpt lat="43.09541516043735" lon="11.750023130345456"><ele>511.75</ele><time>2026-04-19T07:55:08Z</time></trkpt><trkpt lat="43.09553978487398" lon="11.749949275013012"><ele>511.0</ele><time>2026-04-19T07:55:09Z</time></trkpt><trkpt lat="43.095645091692866" lon="11.749811793797546"><ele>511.0</ele><time>2026-04-19T07:55:10Z</time></trkpt><trkpt lat="43.09572079691061" lon="11.749636112679525"><ele>511.0</ele><time>2026-04-19T07:55:11Z</time></trkpt><trkpt lat="43.09578538768161" lon="11.749451203517143"><ele>511.0</ele><time>2026-04-19T07:55:12Z</time></trkpt><trkpt lat="43.095871733269384" lon="11.749293152234106"><ele>511.0</ele><time>2026-04-19T07:55:13Z</time></trkpt><trkpt lat="43.096001239800486" lon="11.749183511927283"><ele>511.0</ele><time>2026-04-19T07:55:14Z</time></trkpt><trkpt lat="43.09616087636579" lon="11.749118942498253"><ele>511.0</ele><time>2026-04-19T07:55:15Z</time></trkpt><trkpt lat="43.0963240984865" lon="11.749077939879443"><ele>511.0</ele><time>2026-04-19T07:55:16Z</time></trkpt><trkpt lat="43.09647110359565" lon="11.748993750037327"><ele>509.6666666666667</ele><time>2026-04-19T07:55:17Z</time></trkpt><trkpt lat="43.096624333502916" lon="11.748913135534949"><ele>508.33333333333337</ele><time>2026-04-19T07:55:18Z</time></trkpt><trkpt lat="43.09678974458562" lon="11.74891671837208"><ele>507.0</ele><time>2026-04-19T07:55:19Z</time></trkpt><trkpt lat="43.09694528827728" lon="11.748906630852439"><ele>507.0</ele><time>2026-04-19T07:55:20Z</time></trkpt><trkpt lat="43.097088926018024" lon="11.748919215797745"><ele>507.0</ele><time>2026-04-19T07:55:21Z</time></trkpt><trkpt lat="43.0972316431463" lon="11.748913929672758"><ele>507.0</ele><time>2026-04-19T07:55:22Z</time></trkpt><trkpt lat="43.097378957136" lon="11.74887888691906"><ele>507.0</ele><time>2026-04-19T07:55:23Z</time></trkpt><trkpt lat="43.09752906017953" lon="11.748802478071461"><ele>506.66666666666663</ele><time>2026-04-19T07:55:24Z</time></trkpt><trkpt lat="43.09767607858493" lon="11.748681061036741"><ele>506.3333333333333</ele><time>2026-04-19T07:55:25Z</time></trkpt><trkpt lat="43.09781649976111" lon="11.748515230958645"><ele>506.0</ele><time>2026-04-19T07:55:26Z</time></trkpt><trkpt lat="43.09795258041695" lon="11.74832778553802"><ele>506.0</ele><time>2026-04-19T07:55:27Z</time></trkpt><trkpt lat="43.09807530688397" lon="11.748158328863106"><ele>506.0</ele><time>2026-04-19T07:55:28Z</time></trkpt><trkpt lat="43.09819049815957" lon="11.748006446295964"><ele>506.0</ele><time>2026-04-19T07:55:29Z</time></trkpt><trkpt lat="43.098308619879546" lon="11.747860880365502"><ele>506.0</ele><time>2026-04-19T07:55:30Z</time></trkpt><trkpt lat="43.098426420438535" lon="11.747735888603517"><ele>506.0</ele><time>2026-04-19T07:55:31Z</time></trkpt><trkpt lat="43.098547562794465" lon="11.747629660372427"><ele>506.0</ele><time>2026-04-19T07:55:32Z</time></trkpt><trkpt lat="43.0986681672892" lon="11.74754037247443"><ele>506.0</ele><time>2026-04-19T07:55:33Z</time></trkpt><trkpt lat="43.09879124846573" lon="11.747443773626868"><ele>505.66666666666663</ele><time>2026-04-19T07:55:34Z</time></trkpt><trkpt lat="43.09892061344714" lon="11.747332656752302"><ele>505.33333333333337</ele><time>2026-04-19T07:55:35Z</time></trkpt><trkpt lat="43.0990525634971" lon="11.747217190113748"><ele>505.0</ele><time>2026-04-19T07:55:36Z</time></trkpt><trkpt lat="43.09917230975342" lon="11.74710024606517"><ele>505.0</ele><time>2026-04-19T07:55:37Z</time></trkpt><trkpt lat="43.09927527918945" lon="11.746970106074775"><ele>505.0</ele><time>2026-04-19T07:55:38Z</time></trkpt><trkpt lat="43.09936407746824" lon="11.746801280178577"><ele>505.0</ele><time>2026-04-19T07:55:39Z</time></trkpt><trkpt lat="43.099432057852106" lon="11.74658826418522"><ele>508.0</ele><time>2026-04-19T07:55:40Z</time></trkpt><trkpt lat="43.099495346698696" lon="11.74636006052121"><ele>511.0</ele><time>2026-04-19T07:55:41Z</time></trkpt><trkpt lat="43.09955921687698" lon="11.746152132725854"><ele>514.0</ele><time>2026-04-19T07:55:42Z</time></trkpt><trkpt lat="43.0996416567443" lon="11.745979969476183"><ele>514.0</ele><time>2026-04-19T07:55:43Z</time></trkpt><trkpt lat="43.099749352926075" lon="11.745826738154094"><ele>514.0</ele><time>2026-04-19T07:55:44Z</time></trkpt><trkpt lat="43.09989835605219" lon="11.745755847512227"><ele>514.0</ele><time>2026-04-19T07:55:45Z</time></trkpt><trkpt lat="43.1000503487236" lon="11.745720787130779"><ele>512.5</ele><time>2026-04-19T07:55:46Z</time></trkpt><trkpt lat="43.10019687891039" lon="11.745690186458019"><ele>511.0</ele><time>2026-04-19T07:55:47Z</time></trkpt><trkpt lat="43.10033182569641" lon="11.745697074126081"><ele>509.5</ele><time>2026-04-19T07:55:48Z</time></trkpt><trkpt lat="43.10045504962854" lon="11.745674194456047"><ele>508.0</ele><time>2026-04-19T07:55:49Z</time></trkpt><trkpt lat="43.10056539090752" lon="11.745602694767909"><ele>508.0</ele><time>2026-04-19T07:55:50Z</time></trkpt><trkpt lat="43.100660081173544" lon="11.74548396020423"><ele>508.0</ele><time>2026-04-19T07:55:51Z</time></trkpt><trkpt lat="43.10072913289484" lon="11.745316038912458"><ele>508.0</ele><time>2026-04-19T07:55:52Z</time></trkpt><trkpt lat="43.10076044696332" lon="11.7451137820794"><ele>508.0</ele><time>2026-04-19T07:55:53Z</time></trkpt><trkpt lat="43.100766216215675" lon="11.744891760410221"><ele>507.6666666666667</ele><time>2026-04-19T07:55:54Z</time></trkpt><trkpt lat="43.10076731465095" lon="11.744660168185616"><ele>507.33333333333337</ele><time>2026-04-19T07:55:55Z</time></trkpt><trkpt lat="43.100770716859486" lon="11.744421806218554"><ele>507.0</ele><time>2026-04-19T07:55:56Z</time></trkpt><trkpt lat="43.100780914705396" lon="11.74417778582213"><ele>507.0</ele><time>2026-04-19T07:55:57Z</time></trkpt><trkpt lat="43.100794595092" lon="11.743973651782298"><ele>507.0</ele><time>2026-04-19T07:55:58Z</time></trkpt><trkpt lat="43.1008027974938" lon="11.743772985366762"><ele>507.0</ele><time>2026-04-19T07:55:59Z</time></trkpt><trkpt lat="43.10080234939051" lon="11.743577484696788"><ele>507.0</ele><time>2026-04-19T07:56:00Z</time></trkpt><trkpt lat="43.10077627030009" lon="11.743387898364206"><ele>508.0</ele><time>2026-04-19T07:56:01Z</time></trkpt><trkpt lat="43.100719637331565" lon="11.74319769881335"><ele>509.0</ele><time>2026-04-19T07:56:02Z</time></trkpt><trkpt lat="43.100631774000306" lon="11.743019363526543"><ele>510.0</ele><time>2026-04-19T07:56:03Z</time></trkpt><trkpt lat="43.10051266438746" lon="11.742845729420862"><ele>508.0</ele><time>2026-04-19T07:56:04Z</time></trkpt><trkpt lat="43.100371325960666" lon="11.742680700586833"><ele>506.0</ele><time>2026-04-19T07:56:05Z</time></trkpt><trkpt lat="43.10021801841881" lon="11.742517712366524"><ele>504.0</ele><time>2026-04-19T07:56:06Z</time></trkpt><trkpt lat="43.1000706901678" lon="11.74236005815937"><ele>504.0</ele><time>2026-04-19T07:56:07Z</time></trkpt><trkpt lat="43.099931541251735" lon="11.742211168602555"><ele>504.0</ele><time>2026-04-19T07:56:08Z</time></trkpt><trkpt lat="43.09979911550496" lon="11.742068963714914"><ele>504.0</ele><time>2026-04-19T07:56:09Z</time></trkpt><trkpt lat="43.09966744253906" lon="11.741938925042152"><ele>503.5</ele><time>2026-04-19T07:56:10Z</time></trkpt><trkpt lat="43.09953299498523" lon="11.741829656419196"><ele>503.0</ele><time>2026-04-19T07:56:11Z</time></trkpt><trkpt lat="43.099395101824335" lon="11.741750756627239"><ele>502.5</ele><time>2026-04-19T07:56:12Z</time></trkpt><trkpt lat="43.0992559197683" lon="11.741708743703674"><ele>502.0</ele><time>2026-04-19T07:56:13Z</time></trkpt><trkpt lat="43.09912467212728" lon="11.741678092330435"><ele>501.0</ele><time>2026-04-19T07:56:14Z</time></trkpt><trkpt lat="43.09899897522886" lon="11.741615867409113"><ele>500.0</ele><time>2026-04-19T07:56:15Z</time></trkpt><trkpt lat="43.09888944637481" lon="11.741522895950864"><ele>499.0</ele><time>2026-04-19T07:56:16Z</time></trkpt><trkpt lat="43.098806653751645" lon="11.741386046832842"><ele>498.0</ele><time>2026-04-19T07:56:17Z</time></trkpt><trkpt lat="43.09875180740575" lon="11.74120647787554"><ele>497.33333333333337</ele><time>2026-04-19T07:56:18Z</time></trkpt><trkpt lat="43.09872933872346" lon="11.740988095809783"><ele>496.6666666666667</ele><time>2026-04-19T07:56:19Z</time></trkpt><trkpt lat="43.098704918992006" lon="11.740771871626492"><ele>496.0</ele><time>2026-04-19T07:56:20Z</time></trkpt><trkpt lat="43.098674269961876" lon="11.740566105542408"><ele>496.0</ele><time>2026-04-19T07:56:21Z</time></trkpt><trkpt lat="43.09866050119201" lon="11.740370145917867"><ele>496.0</ele><time>2026-04-19T07:56:22Z</time></trkpt><trkpt lat="43.09864711999781" lon="11.74015484226064"><ele>496.0</ele><time>2026-04-19T07:56:23Z</time></trkpt><trkpt lat="43.09868091703634" lon="11.739930144064209"><ele>496.0</ele><time>2026-04-19T07:56:24Z</time></trkpt><trkpt lat="43.098733912186" lon="11.739719519687654"><ele>496.0</ele><time>2026-04-19T07:56:25Z</time></trkpt><trkpt lat="43.098808065129035" lon="11.739512644877378"><ele>496.0</ele><time>2026-04-19T07:56:26Z</time></trkpt><trkpt lat="43.098882727198095" lon="11.739306782833143"><ele>496.0</ele><time>2026-04-19T07:56:27Z</time></trkpt><trkpt lat="43.09892382265329" lon="11.73910894356342"><ele>496.0</ele><time>2026-04-19T07:56:28Z</time></trkpt><trkpt lat="43.09896967540436" lon="11.738925471652198"><ele>496.0</ele><time>2026-04-19T07:56:29Z</time></trkpt><trkpt lat="43.0989695976956" lon="11.73871502532343"><ele>496.0</ele><time>2026-04-19T07:56:30Z</time></trkpt><trkpt lat="43.09893729186916" lon="11.738492163751982"><ele>496.33333333333337</ele><time>2026-04-19T07:56:31Z</time></trkpt><trkpt lat="43.09887990743377" lon="11.738259843543489"><ele>496.66666666666663</ele><time>2026-04-19T07:56:32Z</time></trkpt><trkpt lat="43.098808906561246" lon="11.738036949731617"><ele>497.0</ele><time>2026-04-19T07:56:33Z</time></trkpt><trkpt lat="43.09871764483726" lon="11.73783161938154"><ele>497.66666666666663</ele><time>2026-04-19T07:56:34Z</time></trkpt><trkpt lat="43.09863841072165" lon="11.737626041191076"><ele>498.33333333333337</ele><time>2026-04-19T07:56:35Z</time></trkpt><trkpt lat="43.098619553374434" lon="11.737386568779684"><ele>499.0</ele><time>2026-04-19T07:56:36Z</time></trkpt><trkpt lat="43.09858675436897" lon="11.73711336286631"><ele>499.6666666666667</ele><time>2026-04-19T07:56:37Z</time></trkpt><trkpt lat="43.09857235873677" lon="11.736840931283608"><ele>500.33333333333337</ele><time>2026-04-19T07:56:38Z</time></trkpt><trkpt lat="43.098543104701456" lon="11.736592478224313"><ele>501.0</ele><time>2026-04-19T07:56:39Z</time></trkpt><trkpt lat="43.09852684011449" lon="11.736362530275668"><ele>501.0</ele><time>2026-04-19T07:56:40Z</time></trkpt><trkpt lat="43.09854874648363" lon="11.736136321795001"><ele>501.0</ele><time>2026-04-19T07:56:41Z</time></trkpt><trkpt lat="43.098547400441184" lon="11.73590892562905"><ele>501.0</ele><time>2026-04-19T07:56:42Z</time></trkpt><trkpt lat="43.098541896452204" lon="11.735663563411865"><ele>501.66666666666663</ele><time>2026-04-19T07:56:43Z</time></trkpt><trkpt lat="43.09849745276006" lon="11.735410274266922"><ele>502.3333333333333</ele><time>2026-04-19T07:56:44Z</time></trkpt><trkpt lat="43.098429305252836" lon="11.735161433240297"><ele>503.0</ele><time>2026-04-19T07:56:45Z</time></trkpt><trkpt lat="43.09837029221751" lon="11.734930137889867"><ele>501.3333333333333</ele><time>2026-04-19T07:56:46Z</time></trkpt><trkpt lat="43.09835597421962" lon="11.734702242101909"><ele>499.66666666666663</ele><time>2026-04-19T07:56:47Z</time></trkpt><trkpt lat="43.09835578468797" lon="11.734428865523595"><ele>498.0</ele><time>2026-04-19T07:56:48Z</time></trkpt><trkpt lat="43.098357422941795" lon="11.73422680795038"><ele>497.33333333333337</ele><time>2026-04-19T07:56:49Z</time></trkpt><trkpt lat="43.0983909708806" lon="11.734001975300664"><ele>496.6666666666667</ele><time>2026-04-19T07:56:50Z</time></trkpt><trkpt lat="43.09840942746655" lon="11.733759863887675"><ele>496.0</ele><time>2026-04-19T07:56:51Z</time></trkpt><trkpt lat="43.098423379753704" lon="11.733526197576872"><ele>494.6666666666667</ele><time>2026-04-19T07:56:52Z</time></trkpt><trkpt lat="43.098435519804745" lon="11.73329994502505"><ele>493.33333333333337</ele><time>2026-04-19T07:56:53Z</time></trkpt><trkpt lat="43.098450704403085" lon="11.73308509761879"><ele>492.0</ele><time>2026-04-19T07:56:54Z</time></trkpt><trkpt lat="43.09847060443884" lon="11.732878939570297"><ele>491.0</ele><time>2026-04-19T07:56:55Z</time></trkpt><trkpt lat="43.09849582106064" lon="11.73268300294365"><ele>490.0</ele><time>2026-04-19T07:56:56Z</time></trkpt><trkpt lat="43.09853750640913" lon="11.732484375555975"><ele>489.0</ele><time>2026-04-19T07:56:57Z</time></trkpt><trkpt lat="43.09860466867803" lon="11.732276580100407"><ele>489.0</ele><time>2026-04-19T07:56:58Z</time></trkpt><trkpt lat="43.09869706755104" lon="11.732068183659436"><ele>489.0</ele><time>2026-04-19T07:56:59Z</time></trkpt><trkpt lat="43.09880719555398" lon="11.7318635820645"><ele>489.0</ele><time>2026-04-19T07:57:00Z</time></trkpt><trkpt lat="43.09892619182526" lon="11.731660024662277"><ele>487.0</ele><time>2026-04-19T07:57:01Z</time></trkpt><trkpt lat="43.09904967082359" lon="11.731459415673806"><ele>485.0</ele><time>2026-04-19T07:57:02Z</time></trkpt><trkpt lat="43.09917079945815" lon="11.731268621485905"><ele>483.0</ele><time>2026-04-19T07:57:03Z</time></trkpt><trkpt lat="43.09927132650709" lon="11.731062672856913"><ele>482.33333333333337</ele><time>2026-04-19T07:57:04Z</time></trkpt><trkpt lat="43.09937995526748" lon="11.73087371846174"><ele>481.6666666666667</ele><time>2026-04-19T07:57:05Z</time></trkpt><trkpt lat="43.09948841643719" lon="11.730685239264574"><ele>481.0</ele><time>2026-04-19T07:57:06Z</time></trkpt><trkpt lat="43.09959306366213" lon="11.730498854103825"><ele>481.0</ele><time>2026-04-19T07:57:07Z</time></trkpt><trkpt lat="43.099691195999284" lon="11.73032800801946"><ele>481.0</ele><time>2026-04-19T07:57:08Z</time></trkpt><trkpt lat="43.09978633253274" lon="11.73016226428925"><ele>481.0</ele><time>2026-04-19T07:57:09Z</time></trkpt><trkpt lat="43.0998864340571" lon="11.729974551179088"><ele>482.0</ele><time>2026-04-19T07:57:10Z</time></trkpt><trkpt lat="43.0999906042162" lon="11.729776865206711"><ele>483.0</ele><time>2026-04-19T07:57:11Z</time></trkpt><trkpt lat="43.1000945634689" lon="11.729568429645433"><ele>484.0</ele><time>2026-04-19T07:57:12Z</time></trkpt><trkpt lat="43.100197117220986" lon="11.729357240002258"><ele>485.6666666666667</ele><time>2026-04-19T07:57:13Z</time></trkpt><trkpt lat="43.10029973850987" lon="11.729139367390594"><ele>487.33333333333337</ele><time>2026-04-19T07:57:14Z</time></trkpt><trkpt lat="43.100403661335044" lon="11.728924991735015"><ele>489.0</ele><time>2026-04-19T07:57:15Z</time></trkpt><trkpt lat="43.10050640938238" lon="11.72870573884782"><ele>490.33333333333337</ele><time>2026-04-19T07:57:16Z</time></trkpt><trkpt lat="43.10062001189372" lon="11.728481380090539"><ele>491.6666666666667</ele><time>2026-04-19T07:57:17Z</time></trkpt><trkpt lat="43.100732067110705" lon="11.728257010743686"><ele>493.0</ele><time>2026-04-19T07:57:18Z</time></trkpt><trkpt lat="43.10079280020575" lon="11.728018087401532"><ele>493.0</ele><time>2026-04-19T07:57:19Z</time></trkpt><trkpt lat="43.100878094328245" lon="11.727773200546867"><ele>493.0</ele><time>2026-04-19T07:57:20Z</time></trkpt><trkpt lat="43.100960391721046" lon="11.727516303564945"><ele>493.0</ele><time>2026-04-19T07:57:21Z</time></trkpt><trkpt lat="43.10103755183084" lon="11.727248466473869"><ele>493.0</ele><time>2026-04-19T07:57:22Z</time></trkpt><trkpt lat="43.101106756564924" lon="11.726971466420082"><ele>493.0</ele><time>2026-04-19T07:57:23Z</time></trkpt><trkpt lat="43.10116432043108" lon="11.726688082921365"><ele>493.0</ele><time>2026-04-19T07:57:24Z</time></trkpt><trkpt lat="43.1012178291156" lon="11.726413384126015"><ele>493.33333333333337</ele><time>2026-04-19T07:57:25Z</time></trkpt><trkpt lat="43.10126782282361" lon="11.726154177212226"><ele>493.66666666666663</ele><time>2026-04-19T07:57:26Z</time></trkpt><trkpt lat="43.10131786207926" lon="11.725902665789109"><ele>494.0</ele><time>2026-04-19T07:57:27Z</time></trkpt><trkpt lat="43.10137088607486" lon="11.725651408102028"><ele>494.0</ele><time>2026-04-19T07:57:28Z</time></trkpt><trkpt lat="43.10142560941946" lon="11.725396169585043"><ele>494.0</ele><time>2026-04-19T07:57:29Z</time></trkpt><trkpt lat="43.10148556293173" lon="11.725142365540473"><ele>494.0</ele><time>2026-04-19T07:57:30Z</time></trkpt><trkpt lat="43.10155575205618" lon="11.724891021966684"><ele>490.3333333333333</ele><time>2026-04-19T07:57:31Z</time></trkpt><trkpt lat="43.10163735385667" lon="11.724645783040131"><ele>486.66666666666663</ele><time>2026-04-19T07:57:32Z</time></trkpt><trkpt lat="43.10172284389465" lon="11.724414330356055"><ele>483.0</ele><time>2026-04-19T07:57:33Z</time></trkpt><trkpt lat="43.1018046904004" lon="11.724198188386667"><ele>483.0</ele><time>2026-04-19T07:57:34Z</time></trkpt><trkpt lat="43.101881286526186" lon="11.724010972562018"><ele>483.0</ele><time>2026-04-19T07:57:35Z</time></trkpt><trkpt lat="43.101959178879405" lon="11.723839496118522"><ele>483.0</ele><time>2026-04-19T07:57:36Z</time></trkpt><trkpt lat="43.10204564780855" lon="11.723691994574477"><ele>483.0</ele><time>2026-04-19T07:57:37Z</time></trkpt><trkpt lat="43.10214724124466" lon="11.7235694408419"><ele>484.33333333333337</ele><time>2026-04-19T07:57:38Z</time></trkpt><trkpt lat="43.10228466553683" lon="11.723502707054422"><ele>485.6666666666667</ele><time>2026-04-19T07:57:39Z</time></trkpt><trkpt lat="43.10243851279281" lon="11.723470575359235"><ele>487.0</ele><time>2026-04-19T07:57:40Z</time></trkpt><trkpt lat="43.1026064521099" lon="11.723463960010346"><ele>487.0</ele><time>2026-04-19T07:57:41Z</time></trkpt><trkpt lat="43.10276662424278" lon="11.723439507465264"><ele>487.0</ele><time>2026-04-19T07:57:42Z</time></trkpt><trkpt lat="43.10291612502117" lon="11.723444449472863"><ele>487.0</ele><time>2026-04-19T07:57:43Z</time></trkpt><trkpt lat="43.10305704401002" lon="11.723442275027788"><ele>487.0</ele><time>2026-04-19T07:57:44Z</time></trkpt><trkpt lat="43.10319547714775" lon="11.723437985535575"><ele>487.0</ele><time>2026-04-19T07:57:45Z</time></trkpt><trkpt lat="43.10334332102813" lon="11.723429272622258"><ele>487.0</ele><time>2026-04-19T07:57:46Z</time></trkpt><trkpt lat="43.103501413814875" lon="11.723421745787855"><ele>487.0</ele><time>2026-04-19T07:57:47Z</time></trkpt><trkpt lat="43.10366113717388" lon="11.723417274840182"><ele>487.33333333333337</ele><time>2026-04-19T07:57:48Z</time></trkpt><trkpt lat="43.10381960384352" lon="11.723416375909773"><ele>487.66666666666663</ele><time>2026-04-19T07:57:49Z</time></trkpt><trkpt lat="43.103974865408475" lon="11.723419154058298"><ele>488.0</ele><time>2026-04-19T07:57:50Z</time></trkpt><trkpt lat="43.10412792816492" lon="11.723423500485707"><ele>488.0</ele><time>2026-04-19T07:57:51Z</time></trkpt><trkpt lat="43.10428375095988" lon="11.723430307795814"><ele>488.0</ele><time>2026-04-19T07:57:52Z</time></trkpt><trkpt lat="43.10444225777733" lon="11.723437517081988"><ele>488.0</ele><time>2026-04-19T07:57:53Z</time></trkpt><trkpt lat="43.10460133940203" lon="11.723441700054039"><ele>488.0</ele><time>2026-04-19T07:57:54Z</time></trkpt><trkpt lat="43.10475742619115" lon="11.723446068171096"><ele>488.0</ele><time>2026-04-19T07:57:55Z</time></trkpt><trkpt lat="43.104910886838795" lon="11.72345421767393"><ele>488.0</ele><time>2026-04-19T07:57:56Z</time></trkpt><trkpt lat="43.10506380932821" lon="11.723474322831818"><ele>488.0</ele><time>2026-04-19T07:57:57Z</time></trkpt><trkpt lat="43.10521804380691" lon="11.723543188159365"><ele>488.0</ele><time>2026-04-19T07:57:58Z</time></trkpt><trkpt lat="43.10537958841736" lon="11.72361344165233"><ele>488.0</ele><time>2026-04-19T07:57:59Z</time></trkpt><trkpt lat="43.10554229595656" lon="11.723668648337739"><ele>488.0</ele><time>2026-04-19T07:58:00Z</time></trkpt><trkpt lat="43.10568869927579" lon="11.723738819624788"><ele>488.0</ele><time>2026-04-19T07:58:01Z</time></trkpt><trkpt lat="43.10583804689479" lon="11.723807082255115"><ele>488.0</ele><time>2026-04-19T07:58:02Z</time></trkpt><trkpt lat="43.105993212868604" lon="11.72387012305802"><ele>488.66666666666663</ele><time>2026-04-19T07:58:03Z</time></trkpt><trkpt lat="43.10616100387909" lon="11.723920665968672"><ele>489.33333333333337</ele><time>2026-04-19T07:58:04Z</time></trkpt><trkpt lat="43.10634598353625" lon="11.72395511409747"><ele>490.0</ele><time>2026-04-19T07:58:05Z</time></trkpt><trkpt lat="43.106545524706625" lon="11.723966498819093"><ele>489.33333333333337</ele><time>2026-04-19T07:58:06Z</time></trkpt><trkpt lat="43.10675354312276" lon="11.723964053347514"><ele>488.66666666666663</ele><time>2026-04-19T07:58:07Z</time></trkpt><trkpt lat="43.10696232549717" lon="11.723958365983119"><ele>488.0</ele><time>2026-04-19T07:58:08Z</time></trkpt><trkpt lat="43.1071636774697" lon="11.723959876048657"><ele>488.0</ele><time>2026-04-19T07:58:09Z</time></trkpt><trkpt lat="43.10735550498035" lon="11.723966320236098"><ele>488.0</ele><time>2026-04-19T07:58:10Z</time></trkpt><trkpt lat="43.10754113281235" lon="11.723970841036712"><ele>488.0</ele><time>2026-04-19T07:58:11Z</time></trkpt><trkpt lat="43.10771569303622" lon="11.723974264705294"><ele>487.66666666666663</ele><time>2026-04-19T07:58:12Z</time></trkpt><trkpt lat="43.10787945034168" lon="11.723978837091993"><ele>487.33333333333337</ele><time>2026-04-19T07:58:13Z</time></trkpt><trkpt lat="43.10803436446515" lon="11.723982009869749"><ele>487.0</ele><time>2026-04-19T07:58:14Z</time></trkpt><trkpt lat="43.10817835392504" lon="11.723971897028536"><ele>487.0</ele><time>2026-04-19T07:58:15Z</time></trkpt><trkpt lat="43.10831026439864" lon="11.72392855834537"><ele>487.0</ele><time>2026-04-19T07:58:16Z</time></trkpt><trkpt lat="43.108428949664074" lon="11.723852452212324"><ele>487.0</ele><time>2026-04-19T07:58:17Z</time></trkpt><trkpt lat="43.10854360348929" lon="11.72374384002168"><ele>487.0</ele><time>2026-04-19T07:58:18Z</time></trkpt><trkpt lat="43.10865133708459" lon="11.723605911625977"><ele>488.25</ele><time>2026-04-19T07:58:19Z</time></trkpt><trkpt lat="43.108742085535376" lon="11.72344688053663"><ele>489.5</ele><time>2026-04-19T07:58:20Z</time></trkpt><trkpt lat="43.10881144298996" lon="11.723275977094929"><ele>490.75</ele><time>2026-04-19T07:58:21Z</time></trkpt><trkpt lat="43.10885953815247" lon="11.723096260895367"><ele>492.0</ele><time>2026-04-19T07:58:22Z</time></trkpt><trkpt lat="43.108884916376915" lon="11.722898659744912"><ele>493.0</ele><time>2026-04-19T07:58:23Z</time></trkpt><trkpt lat="43.10888992192886" lon="11.722686669293502"><ele>494.0</ele><time>2026-04-19T07:58:24Z</time></trkpt><trkpt lat="43.10886621997901" lon="11.722469813911857"><ele>495.0</ele><time>2026-04-19T07:58:25Z</time></trkpt><trkpt lat="43.108816115522" lon="11.722243161065538"><ele>495.0</ele><time>2026-04-19T07:58:26Z</time></trkpt><trkpt lat="43.10875405575531" lon="11.72201271195941"><ele>495.0</ele><time>2026-04-19T07:58:27Z</time></trkpt><trkpt lat="43.10870028555122" lon="11.721800120088043"><ele>495.0</ele><time>2026-04-19T07:58:28Z</time></trkpt><trkpt lat="43.108653102718165" lon="11.721607414199466"><ele>495.75</ele><time>2026-04-19T07:58:29Z</time></trkpt><trkpt lat="43.108605120504684" lon="11.721426493206767"><ele>496.5</ele><time>2026-04-19T07:58:30Z</time></trkpt><trkpt lat="43.108546303263765" lon="11.721241261990022"><ele>497.25</ele><time>2026-04-19T07:58:31Z</time></trkpt><trkpt lat="43.10847357119319" lon="11.721046867783409"><ele>498.0</ele><time>2026-04-19T07:58:32Z</time></trkpt><trkpt lat="43.10838434079104" lon="11.720846808748297"><ele>498.33333333333337</ele><time>2026-04-19T07:58:33Z</time></trkpt><trkpt lat="43.10828514482422" lon="11.72064981693516"><ele>498.6666666666667</ele><time>2026-04-19T07:58:34Z</time></trkpt><trkpt lat="43.1081763375144" lon="11.720451708809634"><ele>499.0</ele><time>2026-04-19T07:58:35Z</time></trkpt><trkpt lat="43.108067580196355" lon="11.72025085219268"><ele>497.33333333333337</ele><time>2026-04-19T07:58:36Z</time></trkpt><trkpt lat="43.107965165765606" lon="11.720050868832827"><ele>495.66666666666663</ele><time>2026-04-19T07:58:37Z</time></trkpt><trkpt lat="43.10786181784012" lon="11.719854066085528"><ele>494.0</ele><time>2026-04-19T07:58:38Z</time></trkpt><trkpt lat="43.10775758052605" lon="11.7196543701464"><ele>494.0</ele><time>2026-04-19T07:58:39Z</time></trkpt><trkpt lat="43.10765559741602" lon="11.719451868137511"><ele>494.0</ele><time>2026-04-19T07:58:40Z</time></trkpt><trkpt lat="43.10755623310339" lon="11.719251037441197"><ele>494.0</ele><time>2026-04-19T07:58:41Z</time></trkpt><trkpt lat="43.10746289738029" lon="11.719052619974333"><ele>494.3333333333333</ele><time>2026-04-19T07:58:42Z</time></trkpt><trkpt lat="43.10736950456244" lon="11.718851426128984"><ele>494.66666666666663</ele><time>2026-04-19T07:58:43Z</time></trkpt><trkpt lat="43.10727397927223" lon="11.718651664917775"><ele>495.0</ele><time>2026-04-19T07:58:44Z</time></trkpt><trkpt lat="43.1071759598189" lon="11.71845498929735"><ele>495.0</ele><time>2026-04-19T07:58:45Z</time></trkpt><trkpt lat="43.10708159436324" lon="11.718264341911002"><ele>495.0</ele><time>2026-04-19T07:58:46Z</time></trkpt><trkpt lat="43.10698840687522" lon="11.718082190528806"><ele>495.0</ele><time>2026-04-19T07:58:47Z</time></trkpt><trkpt lat="43.106887626788854" lon="11.71791605289172"><ele>495.0</ele><time>2026-04-19T07:58:48Z</time></trkpt><trkpt lat="43.106777946950885" lon="11.717761290979276"><ele>495.0</ele><time>2026-04-19T07:58:49Z</time></trkpt><trkpt lat="43.106661040632915" lon="11.717608889266316"><ele>495.0</ele><time>2026-04-19T07:58:50Z</time></trkpt><trkpt lat="43.106547593106896" lon="11.7174596027862"><ele>496.25</ele><time>2026-04-19T07:58:51Z</time></trkpt><trkpt lat="43.10643848370449" lon="11.717312363110056"><ele>497.5</ele><time>2026-04-19T07:58:52Z</time></trkpt><trkpt lat="43.10633576769261" lon="11.71717211221985"><ele>498.75</ele><time>2026-04-19T07:58:53Z</time></trkpt><trkpt lat="43.106233745792245" lon="11.717035811493849"><ele>500.0</ele><time>2026-04-19T07:58:54Z</time></trkpt><trkpt lat="43.10612768713541" lon="11.716890056126802"><ele>500.3333333333333</ele><time>2026-04-19T07:58:55Z</time></trkpt><trkpt lat="43.10601575679229" lon="11.716735494849955"><ele>500.66666666666663</ele><time>2026-04-19T07:58:56Z</time></trkpt><trkpt lat="43.10590257300503" lon="11.71658365853679"><ele>501.0</ele><time>2026-04-19T07:58:57Z</time></trkpt><trkpt lat="43.10578767855079" lon="11.71643289440083"><ele>501.0</ele><time>2026-04-19T07:58:58Z</time></trkpt><trkpt lat="43.10568131610743" lon="11.716288609638468"><ele>501.0</ele><time>2026-04-19T07:58:59Z</time></trkpt><trkpt lat="43.105580523987946" lon="11.716147326111992"><ele>501.0</ele><time>2026-04-19T07:59:00Z</time></trkpt><trkpt lat="43.1054933804946" lon="11.716001673837583"><ele>501.0</ele><time>2026-04-19T07:59:01Z</time></trkpt><trkpt lat="43.10543352192682" lon="11.715844945165072"><ele>501.0</ele><time>2026-04-19T07:59:02Z</time></trkpt><trkpt lat="43.10539418638182" lon="11.715669309686803"><ele>501.0</ele><time>2026-04-19T07:59:03Z</time></trkpt><trkpt lat="43.105380842868016" lon="11.715462102464492"><ele>501.0</ele><time>2026-04-19T07:59:04Z</time></trkpt><trkpt lat="43.105387152916684" lon="11.715242936482468"><ele>501.0</ele><time>2026-04-19T07:59:05Z</time></trkpt><trkpt lat="43.10539732369397" lon="11.715019893783847"><ele>500.66666666666663</ele><time>2026-04-19T07:59:06Z</time></trkpt><trkpt lat="43.10541214430102" lon="11.714797159137975"><ele>500.3333333333333</ele><time>2026-04-19T07:59:07Z</time></trkpt><trkpt lat="43.10542592886244" lon="11.714574487364333"><ele>500.0</ele><time>2026-04-19T07:59:08Z</time></trkpt><trkpt lat="43.10543955367115" lon="11.714347519131472"><ele>499.0</ele><time>2026-04-19T07:59:09Z</time></trkpt><trkpt lat="43.10545319975698" lon="11.714116957512799"><ele>498.0</ele><time>2026-04-19T07:59:10Z</time></trkpt><trkpt lat="43.10546838193305" lon="11.713890337266694"><ele>497.0</ele><time>2026-04-19T07:59:11Z</time></trkpt><trkpt lat="43.10548026423742" lon="11.713672287922652"><ele>496.66666666666663</ele><time>2026-04-19T07:59:12Z</time></trkpt><trkpt lat="43.105491209974986" lon="11.713472259482096"><ele>496.33333333333337</ele><time>2026-04-19T07:59:13Z</time></trkpt><trkpt lat="43.10551463776696" lon="11.713269233073072"><ele>496.0</ele><time>2026-04-19T07:59:14Z</time></trkpt><trkpt lat="43.10555569897035" lon="11.71305763365251"><ele>496.0</ele><time>2026-04-19T07:59:15Z</time></trkpt><trkpt lat="43.10560882036531" lon="11.712844774917901"><ele>496.0</ele><time>2026-04-19T07:59:16Z</time></trkpt><trkpt lat="43.105680386311356" lon="11.712622479489527"><ele>496.0</ele><time>2026-04-19T07:59:17Z</time></trkpt><trkpt lat="43.10574567143271" lon="11.712383644879356"><ele>499.0</ele><time>2026-04-19T07:59:18Z</time></trkpt><trkpt lat="43.10580321324207" lon="11.71214724826259"><ele>502.0</ele><time>2026-04-19T07:59:19Z</time></trkpt><trkpt lat="43.10587160381974" lon="11.711924984984083"><ele>505.0</ele><time>2026-04-19T07:59:20Z</time></trkpt><trkpt lat="43.1059506371639" lon="11.711715440066568"><ele>506.0</ele><time>2026-04-19T07:59:21Z</time></trkpt><trkpt lat="43.10603968206411" lon="11.711509264853452"><ele>507.0</ele><time>2026-04-19T07:59:22Z</time></trkpt><trkpt lat="43.10612804167994" lon="11.711304631168343"><ele>508.0</ele><time>2026-04-19T07:59:23Z</time></trkpt><trkpt lat="43.10621705294859" lon="11.711112196300167"><ele>506.0</ele><time>2026-04-19T07:59:24Z</time></trkpt><trkpt lat="43.1062971610554" lon="11.71092581269862"><ele>504.0</ele><time>2026-04-19T07:59:25Z</time></trkpt><trkpt lat="43.1063654884144" lon="11.710736174426623"><ele>502.0</ele><time>2026-04-19T07:59:26Z</time></trkpt><trkpt lat="43.106410423002394" lon="11.710532237394865"><ele>502.0</ele><time>2026-04-19T07:59:27Z</time></trkpt><trkpt lat="43.10642567707012" lon="11.710315334074862"><ele>502.0</ele><time>2026-04-19T07:59:28Z</time></trkpt><trkpt lat="43.10642534986089" lon="11.710092101149746"><ele>502.0</ele><time>2026-04-19T07:59:29Z</time></trkpt><trkpt lat="43.10641423306984" lon="11.709870421973775"><ele>499.75</ele><time>2026-04-19T07:59:30Z</time></trkpt><trkpt lat="43.10640519155436" lon="11.709661248591527"><ele>497.5</ele><time>2026-04-19T07:59:31Z</time></trkpt><trkpt lat="43.106404761903995" lon="11.709477170176996"><ele>495.25</ele><time>2026-04-19T07:59:32Z</time></trkpt><trkpt lat="43.10641641726256" lon="11.709302110473052"><ele>493.0</ele><time>2026-04-19T07:59:33Z</time></trkpt><trkpt lat="43.106473425209415" lon="11.709136885072022"><ele>491.5</ele><time>2026-04-19T07:59:34Z</time></trkpt><trkpt lat="43.106555811074195" lon="11.708995781422951"><ele>490.0</ele><time>2026-04-19T07:59:35Z</time></trkpt><trkpt lat="43.10666099012357" lon="11.708887680528726"><ele>488.5</ele><time>2026-04-19T07:59:36Z</time></trkpt><trkpt lat="43.10677984642007" lon="11.70876758068876"><ele>487.0</ele><time>2026-04-19T07:59:37Z</time></trkpt><trkpt lat="43.106876151518804" lon="11.708664045378834"><ele>488.6</ele><time>2026-04-19T07:59:38Z</time></trkpt><trkpt lat="43.10694959038468" lon="11.70855068488962"><ele>490.20000000000005</ele><time>2026-04-19T07:59:39Z</time></trkpt><trkpt lat="43.10699465835606" lon="11.708413330457962"><ele>491.8</ele><time>2026-04-19T07:59:40Z</time></trkpt><trkpt lat="43.107010496864454" lon="11.708262711645249"><ele>493.4</ele><time>2026-04-19T07:59:41Z</time></trkpt><trkpt lat="43.10699849351828" lon="11.708102971976478"><ele>495.0</ele><time>2026-04-19T07:59:42Z</time></trkpt><trkpt lat="43.10696668704712" lon="11.70793301979642"><ele>495.0</ele><time>2026-04-19T07:59:43Z</time></trkpt><trkpt lat="43.10690604433099" lon="11.70774975649351"><ele>495.0</ele><time>2026-04-19T07:59:44Z</time></trkpt><trkpt lat="43.10680921528205" lon="11.707574624389212"><ele>495.0</ele><time>2026-04-19T07:59:45Z</time></trkpt><trkpt lat="43.10669563730583" lon="11.707413410558981"><ele>494.75</ele><time>2026-04-19T07:59:46Z</time></trkpt><trkpt lat="43.10658317413351" lon="11.707267870958514"><ele>494.5</ele><time>2026-04-19T07:59:47Z</time></trkpt><trkpt lat="43.10647827875738" lon="11.707138435375976"><ele>494.25</ele><time>2026-04-19T07:59:48Z</time></trkpt><trkpt lat="43.106370823408284" lon="11.707025014861967"><ele>494.0</ele><time>2026-04-19T07:59:49Z</time></trkpt><trkpt lat="43.10624927480717" lon="11.706923938195906"><ele>495.25</ele><time>2026-04-19T07:59:50Z</time></trkpt><trkpt lat="43.10611551501808" lon="11.706847987995392"><ele>496.5</ele><time>2026-04-19T07:59:51Z</time></trkpt><trkpt lat="43.105977325927185" lon="11.706788207457608"><ele>497.75</ele><time>2026-04-19T07:59:52Z</time></trkpt><trkpt lat="43.10584311214372" lon="11.706713840900791"><ele>499.0</ele><time>2026-04-19T07:59:53Z</time></trkpt><trkpt lat="43.10571632037779" lon="11.706612413574303"><ele>492.6666666666667</ele><time>2026-04-19T07:59:54Z</time></trkpt><trkpt lat="43.10559881747415" lon="11.706485566006721"><ele>486.33333333333337</ele><time>2026-04-19T07:59:55Z</time></trkpt><trkpt lat="43.105490289106214" lon="11.706322523285095"><ele>480.0</ele><time>2026-04-19T07:59:56Z</time></trkpt><trkpt lat="43.10539035317452" lon="11.70613062066315"><ele>483.0</ele><time>2026-04-19T07:59:57Z</time></trkpt><trkpt lat="43.105293602720025" lon="11.705940682973122"><ele>486.0</ele><time>2026-04-19T07:59:58Z</time></trkpt><trkpt lat="43.10519007483531" lon="11.70576698405936"><ele>489.0</ele><time>2026-04-19T07:59:59Z</time></trkpt><trkpt lat="43.10508188631423" lon="11.7056114723584"><ele>489.0</ele><time>2026-04-19T08:00:00Z</time></trkpt><trkpt lat="43.10496852623691" lon="11.705466198359662"><ele>489.0</ele><time>2026-04-19T08:00:01Z</time></trkpt><trkpt lat="43.10485605489323" lon="11.70533335921033"><ele>489.0</ele><time>2026-04-19T08:00:02Z</time></trkpt><trkpt lat="43.104737250108954" lon="11.705213723164345"><ele>488.0</ele><time>2026-04-19T08:00:03Z</time></trkpt><trkpt lat="43.104610562596044" lon="11.705111962639059"><ele>487.0</ele><time>2026-04-19T08:00:04Z</time></trkpt><trkpt lat="43.10447702874589" lon="11.705026576765501"><ele>486.0</ele><time>2026-04-19T08:00:05Z</time></trkpt><trkpt lat="43.10434033613652" lon="11.704955761169828"><ele>485.0</ele><time>2026-04-19T08:00:06Z</time></trkpt><trkpt lat="43.10419870911763" lon="11.704891177927472"><ele>481.0</ele><time>2026-04-19T08:00:07Z</time></trkpt><trkpt lat="43.10405647125446" lon="11.7048250970825"><ele>477.0</ele><time>2026-04-19T08:00:08Z</time></trkpt><trkpt lat="43.103916127232154" lon="11.704752240593441"><ele>473.0</ele><time>2026-04-19T08:00:09Z</time></trkpt><trkpt lat="43.10378448992991" lon="11.704671797738857"><ele>469.0</ele><time>2026-04-19T08:00:10Z</time></trkpt><trkpt lat="43.10366680423718" lon="11.704580601201593"><ele>469.0</ele><time>2026-04-19T08:00:11Z</time></trkpt><trkpt lat="43.1035757292204" lon="11.704465894641055"><ele>469.0</ele><time>2026-04-19T08:00:12Z</time></trkpt><trkpt lat="43.103509117871916" lon="11.704327969838152"><ele>469.0</ele><time>2026-04-19T08:00:13Z</time></trkpt><trkpt lat="43.10347676944886" lon="11.704167469677815"><ele>469.0</ele><time>2026-04-19T08:00:14Z</time></trkpt><trkpt lat="43.10348137522367" lon="11.70399780565483"><ele>470.0</ele><time>2026-04-19T08:00:15Z</time></trkpt><trkpt lat="43.103520873119905" lon="11.70381372167621"><ele>471.0</ele><time>2026-04-19T08:00:16Z</time></trkpt><trkpt lat="43.10357831032248" lon="11.703627428639695"><ele>472.0</ele><time>2026-04-19T08:00:17Z</time></trkpt><trkpt lat="43.10364031780299" lon="11.703454203340872"><ele>473.0</ele><time>2026-04-19T08:00:18Z</time></trkpt><trkpt lat="43.103715013902374" lon="11.70329266027398"><ele>473.0</ele><time>2026-04-19T08:00:19Z</time></trkpt><trkpt lat="43.10379707552737" lon="11.70313051134235"><ele>473.0</ele><time>2026-04-19T08:00:20Z</time></trkpt><trkpt lat="43.103885919342375" lon="11.702971424918294"><ele>473.0</ele><time>2026-04-19T08:00:21Z</time></trkpt><trkpt lat="43.103978420322655" lon="11.702834092570164"><ele>473.0</ele><time>2026-04-19T08:00:22Z</time></trkpt><trkpt lat="43.10405534389846" lon="11.702702248376303"><ele>473.0</ele><time>2026-04-19T08:00:23Z</time></trkpt><trkpt lat="43.10411833872661" lon="11.702571243859559"><ele>472.99999999999994</ele><time>2026-04-19T08:00:24Z</time></trkpt><trkpt lat="43.104169910112304" lon="11.702440732761902"><ele>472.99999999999994</ele><time>2026-04-19T08:00:25Z</time></trkpt><trkpt lat="43.10420411680989" lon="11.702305566078673"><ele>473.0</ele><time>2026-04-19T08:00:26Z</time></trkpt><trkpt lat="43.104207694308876" lon="11.702155594656299"><ele>473.0</ele><time>2026-04-19T08:00:27Z</time></trkpt><trkpt lat="43.10417823098101" lon="11.701993836334639"><ele>472.25</ele><time>2026-04-19T08:00:28Z</time></trkpt><trkpt lat="43.104122273793045" lon="11.70181582682478"><ele>471.5</ele><time>2026-04-19T08:00:29Z</time></trkpt><trkpt lat="43.10406395375728" lon="11.701623126038822"><ele>470.75</ele><time>2026-04-19T08:00:30Z</time></trkpt><trkpt lat="43.10401369018841" lon="11.701424473067098"><ele>470.0</ele><time>2026-04-19T08:00:31Z</time></trkpt><trkpt lat="43.103960349479784" lon="11.701234235463785"><ele>468.3333333333333</ele><time>2026-04-19T08:00:32Z</time></trkpt><trkpt lat="43.10389339590425" lon="11.701053361469683"><ele>466.66666666666663</ele><time>2026-04-19T08:00:33Z</time></trkpt><trkpt lat="43.10380465535219" lon="11.700881375992328"><ele>465.0</ele><time>2026-04-19T08:00:34Z</time></trkpt><trkpt lat="43.10370225742107" lon="11.700716449461348"><ele>465.0</ele><time>2026-04-19T08:00:35Z</time></trkpt><trkpt lat="43.10359870705855" lon="11.700550514814637"><ele>465.0</ele><time>2026-04-19T08:00:36Z</time></trkpt><trkpt lat="43.10349428346334" lon="11.700382008180593"><ele>465.0</ele><time>2026-04-19T08:00:37Z</time></trkpt><trkpt lat="43.10339436882461" lon="11.70021253644697"><ele>463.0</ele><time>2026-04-19T08:00:38Z</time></trkpt><trkpt lat="43.103297277115615" lon="11.700040197987553"><ele>461.0</ele><time>2026-04-19T08:00:39Z</time></trkpt><trkpt lat="43.10320127060334" lon="11.699854401140328"><ele>459.0</ele><time>2026-04-19T08:00:40Z</time></trkpt><trkpt lat="43.10311670171485" lon="11.69965929828956"><ele>464.66666666666663</ele><time>2026-04-19T08:00:41Z</time></trkpt><trkpt lat="43.10304486242251" lon="11.699467359436683"><ele>470.3333333333333</ele><time>2026-04-19T08:00:42Z</time></trkpt><trkpt lat="43.10297912820621" lon="11.69928034311574"><ele>476.0</ele><time>2026-04-19T08:00:43Z</time></trkpt><trkpt lat="43.102909234945884" lon="11.69910407014385"><ele>476.0</ele><time>2026-04-19T08:00:44Z</time></trkpt><trkpt lat="43.10282673415182" lon="11.698936962936907"><ele>476.0</ele><time>2026-04-19T08:00:45Z</time></trkpt><trkpt lat="43.10274624093058" lon="11.698783772834725"><ele>476.0</ele><time>2026-04-19T08:00:46Z</time></trkpt><trkpt lat="43.10268072147054" lon="11.698655869878234"><ele>476.0</ele><time>2026-04-19T08:00:47Z</time></trkpt><trkpt lat="43.102623988076985" lon="11.698539367950573"><ele>476.4</ele><time>2026-04-19T08:00:48Z</time></trkpt><trkpt lat="43.102564904540266" lon="11.69842702909666"><ele>476.8</ele><time>2026-04-19T08:00:49Z</time></trkpt><trkpt lat="43.10250881290312" lon="11.698320677915191"><ele>477.19999999999993</ele><time>2026-04-19T08:00:50Z</time></trkpt><trkpt lat="43.10244917031311" lon="11.698201577045882"><ele>477.59999999999997</ele><time>2026-04-19T08:00:51Z</time></trkpt><trkpt lat="43.10238368172106" lon="11.698071921025564"><ele>478.0</ele><time>2026-04-19T08:00:52Z</time></trkpt><trkpt lat="43.10231253634318" lon="11.697938806896786"><ele>478.0</ele><time>2026-04-19T08:00:53Z</time></trkpt><trkpt lat="43.10223062794942" lon="11.697796546667034"><ele>478.0</ele><time>2026-04-19T08:00:54Z</time></trkpt><trkpt lat="43.10212658396445" lon="11.697651200846366"><ele>478.0</ele><time>2026-04-19T08:00:55Z</time></trkpt><trkpt lat="43.1020029537896" lon="11.697506432538814"><ele>478.0</ele><time>2026-04-19T08:00:56Z</time></trkpt><trkpt lat="43.10186755054916" lon="11.697361890182323"><ele>473.6666666666667</ele><time>2026-04-19T08:00:57Z</time></trkpt><trkpt lat="43.101736899105" lon="11.697220401372338"><ele>469.33333333333337</ele><time>2026-04-19T08:00:58Z</time></trkpt><trkpt lat="43.101617705348175" lon="11.697099891163845"><ele>465.0</ele><time>2026-04-19T08:00:59Z</time></trkpt><trkpt lat="43.10150161036264" lon="11.696993810425182"><ele>460.33333333333337</ele><time>2026-04-19T08:01:00Z</time></trkpt><trkpt lat="43.10137604775146" lon="11.696887950501248"><ele>455.6666666666667</ele><time>2026-04-19T08:01:01Z</time></trkpt><trkpt lat="43.10123710199436" lon="11.696784348807483"><ele>451.0</ele><time>2026-04-19T08:01:02Z</time></trkpt><trkpt lat="43.101087351001986" lon="11.696697850612718"><ele>451.0</ele><time>2026-04-19T08:01:03Z</time></trkpt><trkpt lat="43.10091768280976" lon="11.696627545832593"><ele>451.0</ele><time>2026-04-19T08:01:04Z</time></trkpt><trkpt lat="43.10072789759674" lon="11.69658419935475"><ele>451.0</ele><time>2026-04-19T08:01:05Z</time></trkpt><trkpt lat="43.100544423402845" lon="11.696551428793725"><ele>449.6666666666667</ele><time>2026-04-19T08:01:06Z</time></trkpt><trkpt lat="43.10037245293229" lon="11.696510324388443"><ele>448.33333333333337</ele><time>2026-04-19T08:01:07Z</time></trkpt><trkpt lat="43.10020507473743" lon="11.696459896788264"><ele>447.0</ele><time>2026-04-19T08:01:08Z</time></trkpt><trkpt lat="43.10004242102645" lon="11.69640412410038"><ele>444.33333333333337</ele><time>2026-04-19T08:01:09Z</time></trkpt><trkpt lat="43.09987938341736" lon="11.696346550488219"><ele>441.6666666666667</ele><time>2026-04-19T08:01:10Z</time></trkpt><trkpt lat="43.09972296664598" lon="11.696285508591735"><ele>439.0</ele><time>2026-04-19T08:01:11Z</time></trkpt><trkpt lat="43.09956936761342" lon="11.696213001666377"><ele>439.0</ele><time>2026-04-19T08:01:12Z</time></trkpt><trkpt lat="43.09942620266339" lon="11.696110745618265"><ele>439.0</ele><time>2026-04-19T08:01:13Z</time></trkpt><trkpt lat="43.099285248730915" lon="11.695965248055458"><ele>439.0</ele><time>2026-04-19T08:01:14Z</time></trkpt><trkpt lat="43.09913108487314" lon="11.69578590229011"><ele>436.33333333333337</ele><time>2026-04-19T08:01:15Z</time></trkpt><trkpt lat="43.098962061920545" lon="11.69558705320875"><ele>433.66666666666663</ele><time>2026-04-19T08:01:16Z</time></trkpt><trkpt lat="43.0987955773397" lon="11.695396513954138"><ele>431.0</ele><time>2026-04-19T08:01:17Z</time></trkpt><trkpt lat="43.09863837962674" lon="11.695219175247356"><ele>429.66666666666663</ele><time>2026-04-19T08:01:18Z</time></trkpt><trkpt lat="43.09848352978799" lon="11.695045532796875"><ele>428.33333333333337</ele><time>2026-04-19T08:01:19Z</time></trkpt><trkpt lat="43.0983322957014" lon="11.694875841106844"><ele>427.0</ele><time>2026-04-19T08:01:20Z</time></trkpt><trkpt lat="43.09818181615249" lon="11.694710215682314"><ele>426.6666666666667</ele><time>2026-04-19T08:01:21Z</time></trkpt><trkpt lat="43.09802642935937" lon="11.694540421735573"><ele>426.33333333333337</ele><time>2026-04-19T08:01:22Z</time></trkpt><trkpt lat="43.097870742177626" lon="11.694364007259676"><ele>426.0</ele><time>2026-04-19T08:01:23Z</time></trkpt><trkpt lat="43.09771355661312" lon="11.694182517179273"><ele>424.66666666666663</ele><time>2026-04-19T08:01:24Z</time></trkpt><trkpt lat="43.09755064249217" lon="11.69400318821726"><ele>423.3333333333333</ele><time>2026-04-19T08:01:25Z</time></trkpt><trkpt lat="43.09739452244422" lon="11.69382887440095"><ele>422.0</ele><time>2026-04-19T08:01:26Z</time></trkpt><trkpt lat="43.097250141249" lon="11.693668394996436"><ele>421.66666666666663</ele><time>2026-04-19T08:01:27Z</time></trkpt><trkpt lat="43.09710980663095" lon="11.693515493222865"><ele>421.33333333333337</ele><time>2026-04-19T08:01:28Z</time></trkpt><trkpt lat="43.096975287239445" lon="11.693372293410384"><ele>421.0</ele><time>2026-04-19T08:01:29Z</time></trkpt><trkpt lat="43.09685211572797" lon="11.693231771291785"><ele>421.0</ele><time>2026-04-19T08:01:30Z</time></trkpt><trkpt lat="43.09674685491927" lon="11.693084223642627"><ele>421.0</ele><time>2026-04-19T08:01:31Z</time></trkpt><trkpt lat="43.096666094831704" lon="11.692911683406091"><ele>421.0</ele><time>2026-04-19T08:01:32Z</time></trkpt><trkpt lat="43.09661620379284" lon="11.692697371881485"><ele>420.33333333333337</ele><time>2026-04-19T08:01:33Z</time></trkpt><trkpt lat="43.096595948315375" lon="11.692447803607893"><ele>419.66666666666663</ele><time>2026-04-19T08:01:34Z</time></trkpt><trkpt lat="43.09659235433756" lon="11.692176332669668"><ele>419.0</ele><time>2026-04-19T08:01:35Z</time></trkpt><trkpt lat="43.09658121568193" lon="11.69189322928423"><ele>418.0</ele><time>2026-04-19T08:01:36Z</time></trkpt><trkpt lat="43.09656006972123" lon="11.69161913700666"><ele>417.0</ele><time>2026-04-19T08:01:37Z</time></trkpt><trkpt lat="43.09654521193107" lon="11.691368254602555"><ele>416.0</ele><time>2026-04-19T08:01:38Z</time></trkpt><trkpt lat="43.09652054751722" lon="11.691141059081898"><ele>416.66666666666663</ele><time>2026-04-19T08:01:39Z</time></trkpt><trkpt lat="43.096464230554545" lon="11.690939439164826"><ele>417.33333333333337</ele><time>2026-04-19T08:01:40Z</time></trkpt><trkpt lat="43.09636742279026" lon="11.690737865651737"><ele>418.0</ele><time>2026-04-19T08:01:41Z</time></trkpt><trkpt lat="43.09623829380281" lon="11.690566738684156"><ele>418.0</ele><time>2026-04-19T08:01:42Z</time></trkpt><trkpt lat="43.09608842135163" lon="11.690418505993293"><ele>418.0</ele><time>2026-04-19T08:01:43Z</time></trkpt><trkpt lat="43.09593433552378" lon="11.690263387167802"><ele>418.0</ele><time>2026-04-19T08:01:44Z</time></trkpt><trkpt lat="43.09578484497258" lon="11.690097974819954"><ele>419.33333333333337</ele><time>2026-04-19T08:01:45Z</time></trkpt><trkpt lat="43.09563799037377" lon="11.689941973129113"><ele>420.66666666666663</ele><time>2026-04-19T08:01:46Z</time></trkpt><trkpt lat="43.095496886200856" lon="11.689785986278938"><ele>422.0</ele><time>2026-04-19T08:01:47Z</time></trkpt><trkpt lat="43.09534796412129" lon="11.689634510287693"><ele>422.0</ele><time>2026-04-19T08:01:48Z</time></trkpt><trkpt lat="43.095193555295204" lon="11.689493758819783"><ele>422.0</ele><time>2026-04-19T08:01:49Z</time></trkpt><trkpt lat="43.095032006968715" lon="11.689372012807642"><ele>422.0</ele><time>2026-04-19T08:01:50Z</time></trkpt><trkpt lat="43.09486719114604" lon="11.689255490091412"><ele>423.66666666666663</ele><time>2026-04-19T08:01:51Z</time></trkpt><trkpt lat="43.09469935733562" lon="11.68914618467097"><ele>425.33333333333337</ele><time>2026-04-19T08:01:52Z</time></trkpt><trkpt lat="43.094531129253376" lon="11.689050592088455"><ele>427.0</ele><time>2026-04-19T08:01:53Z</time></trkpt><trkpt lat="43.09434206630679" lon="11.689021295324075"><ele>427.0</ele><time>2026-04-19T08:01:54Z</time></trkpt><trkpt lat="43.09417102350645" lon="11.688980710155619"><ele>427.0</ele><time>2026-04-19T08:01:55Z</time></trkpt><trkpt lat="43.09399736118152" lon="11.688952864334988"><ele>427.0</ele><time>2026-04-19T08:01:56Z</time></trkpt><trkpt lat="43.09382409725976" lon="11.68893727369645"><ele>426.6666666666667</ele><time>2026-04-19T08:01:57Z</time></trkpt><trkpt lat="43.09365137075178" lon="11.68892803052155"><ele>426.33333333333337</ele><time>2026-04-19T08:01:58Z</time></trkpt><trkpt lat="43.09347591668726" lon="11.688895575338828"><ele>426.0</ele><time>2026-04-19T08:01:59Z</time></trkpt><trkpt lat="43.09330938106736" lon="11.688800632333994"><ele>427.0</ele><time>2026-04-19T08:02:00Z</time></trkpt><trkpt lat="43.09314017566425" lon="11.688723244448322"><ele>428.0</ele><time>2026-04-19T08:02:01Z</time></trkpt><trkpt lat="43.09298961885774" lon="11.6886116517994"><ele>429.0</ele><time>2026-04-19T08:02:02Z</time></trkpt><trkpt lat="43.09284646079936" lon="11.68849771459242"><ele>429.0</ele><time>2026-04-19T08:02:03Z</time></trkpt><trkpt lat="43.092719505146924" lon="11.688381345588049"><ele>429.0</ele><time>2026-04-19T08:02:04Z</time></trkpt><trkpt lat="43.09260145402158" lon="11.688282602459779"><ele>429.0</ele><time>2026-04-19T08:02:05Z</time></trkpt><trkpt lat="43.092488940212526" lon="11.688197110950856"><ele>429.0</ele><time>2026-04-19T08:02:06Z</time></trkpt><trkpt lat="43.09239294377842" lon="11.688125154795506"><ele>430.4</ele><time>2026-04-19T08:02:07Z</time></trkpt><trkpt lat="43.092307514106196" lon="11.688047260707068"><ele>431.79999999999995</ele><time>2026-04-19T08:02:08Z</time></trkpt><trkpt lat="43.092229996632895" lon="11.687969329259522"><ele>433.20000000000005</ele><time>2026-04-19T08:02:09Z</time></trkpt><trkpt lat="43.09214652803018" lon="11.687884224415091"><ele>434.6</ele><time>2026-04-19T08:02:10Z</time></trkpt><trkpt lat="43.092054963386644" lon="11.68780478755168"><ele>436.0</ele><time>2026-04-19T08:02:11Z</time></trkpt><trkpt lat="43.09196683925518" lon="11.687713091024339"><ele>436.0</ele><time>2026-04-19T08:02:12Z</time></trkpt><trkpt lat="43.091891222456155" lon="11.687622260444266"><ele>436.0</ele><time>2026-04-19T08:02:13Z</time></trkpt><trkpt lat="43.09182771534857" lon="11.687523749701349"><ele>436.0</ele><time>2026-04-19T08:02:14Z</time></trkpt><trkpt lat="43.09178623203596" lon="11.68741400491906"><ele>436.0</ele><time>2026-04-19T08:02:15Z</time></trkpt><trkpt lat="43.09178287457265" lon="11.687290887360106"><ele>436.0</ele><time>2026-04-19T08:02:16Z</time></trkpt><trkpt lat="43.09176793696683" lon="11.68718334611429"><ele>436.0</ele><time>2026-04-19T08:02:17Z</time></trkpt><trkpt lat="43.09175328627178" lon="11.687089768900043"><ele>436.0</ele><time>2026-04-19T08:02:18Z</time></trkpt><trkpt lat="43.09172211860543" lon="11.686938349409148"><ele>436.0</ele><time>2026-04-19T08:02:20Z</time></trkpt><trkpt lat="43.09168018107675" lon="11.68683600259996"><ele>436.0</ele><time>2026-04-19T08:02:21Z</time></trkpt><trkpt lat="43.09159598845551" lon="11.686719074401033"><ele>436.0</ele><time>2026-04-19T08:02:22Z</time></trkpt><trkpt lat="43.09150645721857" lon="11.686651229940432"><ele>437.0</ele><time>2026-04-19T08:02:23Z</time></trkpt><trkpt lat="43.09140663009455" lon="11.686600549080776"><ele>438.0</ele><time>2026-04-19T08:02:24Z</time></trkpt><trkpt lat="43.09130936846397" lon="11.686559967703223"><ele>439.0</ele><time>2026-04-19T08:02:25Z</time></trkpt><trkpt lat="43.09122150805289" lon="11.686506565858258"><ele>440.0</ele><time>2026-04-19T08:02:26Z</time></trkpt><trkpt lat="43.09112476615977" lon="11.68644452863038"><ele>441.0</ele><time>2026-04-19T08:02:27Z</time></trkpt><trkpt lat="43.09102461605009" lon="11.686387044434007"><ele>441.0</ele><time>2026-04-19T08:02:28Z</time></trkpt><trkpt lat="43.090921861290106" lon="11.686332275151422"><ele>441.0</ele><time>2026-04-19T08:02:29Z</time></trkpt><trkpt lat="43.09081633973788" lon="11.686275741584227"><ele>441.0</ele><time>2026-04-19T08:02:30Z</time></trkpt><trkpt lat="43.09071134085688" lon="11.686216104524508"><ele>441.0</ele><time>2026-04-19T08:02:31Z</time></trkpt><trkpt lat="43.09060927730628" lon="11.686155092324693"><ele>441.0</ele><time>2026-04-19T08:02:32Z</time></trkpt><trkpt lat="43.09050975725136" lon="11.68608993587286"><ele>441.5</ele><time>2026-04-19T08:02:33Z</time></trkpt><trkpt lat="43.090410101050665" lon="11.686014062581515"><ele>442.0</ele><time>2026-04-19T08:02:34Z</time></trkpt><trkpt lat="43.0903086486684" lon="11.68592516414893"><ele>442.5</ele><time>2026-04-19T08:02:35Z</time></trkpt><trkpt lat="43.09020935348258" lon="11.685821616447955"><ele>443.0</ele><time>2026-04-19T08:02:36Z</time></trkpt><trkpt lat="43.09011530852676" lon="11.685712485678438"><ele>443.0</ele><time>2026-04-19T08:02:37Z</time></trkpt><trkpt lat="43.0900223826245" lon="11.685609494137934"><ele>443.0</ele><time>2026-04-19T08:02:38Z</time></trkpt><trkpt lat="43.089929965189846" lon="11.685508470411829"><ele>443.0</ele><time>2026-04-19T08:02:39Z</time></trkpt><trkpt lat="43.089840314337664" lon="11.685407133341396"><ele>443.0</ele><time>2026-04-19T08:02:40Z</time></trkpt><trkpt lat="43.08975303057865" lon="11.685307657528844"><ele>443.79999999999995</ele><time>2026-04-19T08:02:41Z</time></trkpt><trkpt lat="43.08966973554165" lon="11.685217317739188"><ele>444.59999999999997</ele><time>2026-04-19T08:02:42Z</time></trkpt><trkpt lat="43.089594709159684" lon="11.685137385586913"><ele>445.40000000000003</ele><time>2026-04-19T08:02:43Z</time></trkpt><trkpt lat="43.08952664108891" lon="11.685062201868638"><ele>446.20000000000005</ele><time>2026-04-19T08:02:44Z</time></trkpt><trkpt lat="43.0894559855434" lon="11.684980343285034"><ele>447.0</ele><time>2026-04-19T08:02:45Z</time></trkpt><trkpt lat="43.08937980196335" lon="11.68489340786193"><ele>447.0</ele><time>2026-04-19T08:02:46Z</time></trkpt><trkpt lat="43.08929901681653" lon="11.68480670590929"><ele>447.0</ele><time>2026-04-19T08:02:47Z</time></trkpt><trkpt lat="43.089209368078954" lon="11.684718542690165"><ele>447.0</ele><time>2026-04-19T08:02:48Z</time></trkpt><trkpt lat="43.089113088515134" lon="11.684620580571112"><ele>447.0</ele><time>2026-04-19T08:02:49Z</time></trkpt><trkpt lat="43.089017914110705" lon="11.684512416272252"><ele>448.5</ele><time>2026-04-19T08:02:50Z</time></trkpt><trkpt lat="43.088919928854196" lon="11.684402017264679"><ele>450.0</ele><time>2026-04-19T08:02:51Z</time></trkpt><trkpt lat="43.08882140423221" lon="11.684292452627384"><ele>451.5</ele><time>2026-04-19T08:02:52Z</time></trkpt><trkpt lat="43.08872483097006" lon="11.684174610052366"><ele>453.0</ele><time>2026-04-19T08:02:53Z</time></trkpt><trkpt lat="43.088629552434945" lon="11.684046577794884"><ele>453.0</ele><time>2026-04-19T08:02:54Z</time></trkpt><trkpt lat="43.08853380251789" lon="11.683905488064331"><ele>453.0</ele><time>2026-04-19T08:02:55Z</time></trkpt><trkpt lat="43.08844386522302" lon="11.683751872292882"><ele>453.0</ele><time>2026-04-19T08:02:56Z</time></trkpt><trkpt lat="43.08836893167495" lon="11.683575118972824"><ele>453.0</ele><time>2026-04-19T08:02:57Z</time></trkpt><trkpt lat="43.08831654233059" lon="11.683410993803621"><ele>453.25</ele><time>2026-04-19T08:02:58Z</time></trkpt><trkpt lat="43.08827081828912" lon="11.683245989008824"><ele>453.5</ele><time>2026-04-19T08:02:59Z</time></trkpt><trkpt lat="43.0882147957547" lon="11.683095927477176"><ele>453.75</ele><time>2026-04-19T08:03:00Z</time></trkpt><trkpt lat="43.08817837783867" lon="11.682932577001518"><ele>454.0</ele><time>2026-04-19T08:03:01Z</time></trkpt><trkpt lat="43.08814667295297" lon="11.682778562944115"><ele>455.75</ele><time>2026-04-19T08:03:02Z</time></trkpt><trkpt lat="43.08811374029364" lon="11.682642545970943"><ele>457.5</ele><time>2026-04-19T08:03:03Z</time></trkpt><trkpt lat="43.08807377510758" lon="11.682501433633222"><ele>459.25</ele><time>2026-04-19T08:03:04Z</time></trkpt><trkpt lat="43.08803565036303" lon="11.682351119326789"><ele>461.0</ele><time>2026-04-19T08:03:05Z</time></trkpt><trkpt lat="43.08799677593306" lon="11.682187107217668"><ele>461.0</ele><time>2026-04-19T08:03:06Z</time></trkpt><trkpt lat="43.08795898818325" lon="11.682018077716677"><ele>461.0</ele><time>2026-04-19T08:03:07Z</time></trkpt><trkpt lat="43.0879174858961" lon="11.681848563344783"><ele>461.0</ele><time>2026-04-19T08:03:08Z</time></trkpt><trkpt lat="43.08787299342765" lon="11.681678561443677"><ele>461.0</ele><time>2026-04-19T08:03:09Z</time></trkpt><trkpt lat="43.087828704127986" lon="11.681497769383725"><ele>460.5</ele><time>2026-04-19T08:03:10Z</time></trkpt><trkpt lat="43.08778570064383" lon="11.681308823632913"><ele>460.0</ele><time>2026-04-19T08:03:11Z</time></trkpt><trkpt lat="43.087741729146074" lon="11.681119902943971"><ele>459.5</ele><time>2026-04-19T08:03:12Z</time></trkpt><trkpt lat="43.0876960051234" lon="11.680930029008433"><ele>459.0</ele><time>2026-04-19T08:03:13Z</time></trkpt><trkpt lat="43.08764881407013" lon="11.680740235798007"><ele>459.0</ele><time>2026-04-19T08:03:14Z</time></trkpt><trkpt lat="43.08760178153646" lon="11.680549352191143"><ele>459.0</ele><time>2026-04-19T08:03:15Z</time></trkpt><trkpt lat="43.08755480859524" lon="11.680360288162365"><ele>459.0</ele><time>2026-04-19T08:03:16Z</time></trkpt><trkpt lat="43.08750548705368" lon="11.680176020592784"><ele>459.0</ele><time>2026-04-19T08:03:17Z</time></trkpt><trkpt lat="43.08745343944751" lon="11.680005330244622"><ele>457.66666666666663</ele><time>2026-04-19T08:03:18Z</time></trkpt><trkpt lat="43.08738308566782" lon="11.679830304705417"><ele>456.3333333333333</ele><time>2026-04-19T08:03:19Z</time></trkpt><trkpt lat="43.087290518672354" lon="11.679663922353052"><ele>455.0</ele><time>2026-04-19T08:03:20Z</time></trkpt><trkpt lat="43.087190747037205" lon="11.679507495708643"><ele>455.5</ele><time>2026-04-19T08:03:21Z</time></trkpt><trkpt lat="43.087081163107015" lon="11.679360351302403"><ele>456.0</ele><time>2026-04-19T08:03:22Z</time></trkpt><trkpt lat="43.086965611391506" lon="11.679230529415637"><ele>456.5</ele><time>2026-04-19T08:03:23Z</time></trkpt><trkpt lat="43.086847951988446" lon="11.67911727655468"><ele>457.0</ele><time>2026-04-19T08:03:24Z</time></trkpt><trkpt lat="43.08673249420696" lon="11.679021994585673"><ele>457.0</ele><time>2026-04-19T08:03:25Z</time></trkpt><trkpt lat="43.08661806140313" lon="11.67893071594594"><ele>457.0</ele><time>2026-04-19T08:03:26Z</time></trkpt><trkpt lat="43.08650873503362" lon="11.678836872161451"><ele>457.0</ele><time>2026-04-19T08:03:27Z</time></trkpt><trkpt lat="43.08640209755605" lon="11.678741636417293"><ele>457.0</ele><time>2026-04-19T08:03:28Z</time></trkpt><trkpt lat="43.08629983894814" lon="11.678654153534188"><ele>456.5</ele><time>2026-04-19T08:03:29Z</time></trkpt><trkpt lat="43.08619125588834" lon="11.678564316466266"><ele>456.0</ele><time>2026-04-19T08:03:30Z</time></trkpt><trkpt lat="43.086075027300936" lon="11.678469008729715"><ele>455.5</ele><time>2026-04-19T08:03:31Z</time></trkpt><trkpt lat="43.085956652297575" lon="11.678369389708108"><ele>455.0</ele><time>2026-04-19T08:03:32Z</time></trkpt><trkpt lat="43.08583902482925" lon="11.67826838098942"><ele>454.0</ele><time>2026-04-19T08:03:33Z</time></trkpt><trkpt lat="43.085720604842884" lon="11.678166693241208"><ele>453.0</ele><time>2026-04-19T08:03:34Z</time></trkpt><trkpt lat="43.085605287300766" lon="11.678071552580258"><ele>452.0</ele><time>2026-04-19T08:03:35Z</time></trkpt><trkpt lat="43.085503974533474" lon="11.677986323598072"><ele>451.0</ele><time>2026-04-19T08:03:36Z</time></trkpt><trkpt lat="43.08541156647409" lon="11.67790325656318"><ele>451.0</ele><time>2026-04-19T08:03:37Z</time></trkpt><trkpt lat="43.08532287818865" lon="11.677816547605303"><ele>451.0</ele><time>2026-04-19T08:03:38Z</time></trkpt><trkpt lat="43.08523430253325" lon="11.677718188666917"><ele>451.0</ele><time>2026-04-19T08:03:39Z</time></trkpt><trkpt lat="43.085148437495576" lon="11.677599504537017"><ele>451.0</ele><time>2026-04-19T08:03:40Z</time></trkpt><trkpt lat="43.08507087144974" lon="11.677469901236199"><ele>451.20000000000005</ele><time>2026-04-19T08:03:41Z</time></trkpt><trkpt lat="43.08499744558741" lon="11.677331373459563"><ele>451.40000000000003</ele><time>2026-04-19T08:03:42Z</time></trkpt><trkpt lat="43.084939466952065" lon="11.677209326889757"><ele>451.6</ele><time>2026-04-19T08:03:43Z</time></trkpt><trkpt lat="43.084883679471645" lon="11.677098862994251"><ele>451.8</ele><time>2026-04-19T08:03:44Z</time></trkpt><trkpt lat="43.084833449577694" lon="11.677001569317596"><ele>452.0</ele><time>2026-04-19T08:03:45Z</time></trkpt><trkpt lat="43.084781895214874" lon="11.676909662897996"><ele>451.66666666666663</ele><time>2026-04-19T08:03:46Z</time></trkpt><trkpt lat="43.08473290631978" lon="11.676825998642107"><ele>451.3333333333333</ele><time>2026-04-19T08:03:47Z</time></trkpt><trkpt lat="43.08468177863297" lon="11.676748168038623"><ele>451.0</ele><time>2026-04-19T08:03:48Z</time></trkpt><trkpt lat="43.08463422429736" lon="11.676679745238074"><ele>450.66666666666663</ele><time>2026-04-19T08:03:49Z</time></trkpt><trkpt lat="43.084559700377035" lon="11.676584285235064"><ele>450.3333333333333</ele><time>2026-04-19T08:03:51Z</time></trkpt><trkpt lat="43.08449343494575" lon="11.676476158889605"><ele>450.0</ele><time>2026-04-19T08:03:53Z</time></trkpt><trkpt lat="43.0844712455201" lon="11.676393541552992"><ele>450.0</ele><time>2026-04-19T08:03:54Z</time></trkpt><trkpt lat="43.08444633368719" lon="11.676308628215654"><ele>450.0</ele><time>2026-04-19T08:03:55Z</time></trkpt><trkpt lat="43.08440543985178" lon="11.67622531549323"><ele>450.0</ele><time>2026-04-19T08:03:56Z</time></trkpt><trkpt lat="43.08435993197786" lon="11.676120638062072"><ele>450.0</ele><time>2026-04-19T08:03:57Z</time></trkpt><trkpt lat="43.08432334151472" lon="11.675986027604054"><ele>450.0</ele><time>2026-04-19T08:03:58Z</time></trkpt><trkpt lat="43.08430023021845" lon="11.675834358237553"><ele>450.0</ele><time>2026-04-19T08:03:59Z</time></trkpt><trkpt lat="43.084276226097764" lon="11.67567854704908"><ele>451.0</ele><time>2026-04-19T08:04:00Z</time></trkpt><trkpt lat="43.08423414553549" lon="11.675523050165411"><ele>452.0</ele><time>2026-04-19T08:04:01Z</time></trkpt><trkpt lat="43.084186990283875" lon="11.675366679449327"><ele>453.0</ele><time>2026-04-19T08:04:02Z</time></trkpt><trkpt lat="43.08412747411789" lon="11.675211312318039"><ele>454.0</ele><time>2026-04-19T08:04:03Z</time></trkpt><trkpt lat="43.08404205357996" lon="11.67504944959236"><ele>456.33333333333337</ele><time>2026-04-19T08:04:04Z</time></trkpt><trkpt lat="43.08393623636844" lon="11.674883184590927"><ele>458.66666666666663</ele><time>2026-04-19T08:04:05Z</time></trkpt><trkpt lat="43.08382557711091" lon="11.674713768412259"><ele>461.0</ele><time>2026-04-19T08:04:06Z</time></trkpt><trkpt lat="43.08371354003203" lon="11.674529999769378"><ele>461.66666666666663</ele><time>2026-04-19T08:04:07Z</time></trkpt><trkpt lat="43.08361629680558" lon="11.674326157091016"><ele>462.33333333333337</ele><time>2026-04-19T08:04:08Z</time></trkpt><trkpt lat="43.08352394534591" lon="11.674102467729215"><ele>463.0</ele><time>2026-04-19T08:04:09Z</time></trkpt><trkpt lat="43.08343984558489" lon="11.67386258023623"><ele>464.33333333333337</ele><time>2026-04-19T08:04:10Z</time></trkpt><trkpt lat="43.08337459813166" lon="11.673601623316957"><ele>465.66666666666663</ele><time>2026-04-19T08:04:11Z</time></trkpt><trkpt lat="43.08331826237798" lon="11.673325194623036"><ele>467.0</ele><time>2026-04-19T08:04:12Z</time></trkpt><trkpt lat="43.08326332580756" lon="11.673042099505622"><ele>468.66666666666663</ele><time>2026-04-19T08:04:13Z</time></trkpt><trkpt lat="43.08320257369839" lon="11.672763943900579"><ele>470.33333333333337</ele><time>2026-04-19T08:04:14Z</time></trkpt><trkpt lat="43.083135073122605" lon="11.67251274309634"><ele>472.0</ele><time>2026-04-19T08:04:15Z</time></trkpt><trkpt lat="43.083063220280934" lon="11.672290088140828"><ele>472.0</ele><time>2026-04-19T08:04:16Z</time></trkpt><trkpt lat="43.08298136092949" lon="11.672077539635955"><ele>472.0</ele><time>2026-04-19T08:04:17Z</time></trkpt><trkpt lat="43.082897480902474" lon="11.671891341310674"><ele>472.0</ele><time>2026-04-19T08:04:18Z</time></trkpt><trkpt lat="43.08281141260235" lon="11.671734877895323"><ele>472.8</ele><time>2026-04-19T08:04:19Z</time></trkpt><trkpt lat="43.08272723366353" lon="11.671596754858896"><ele>473.6</ele><time>2026-04-19T08:04:20Z</time></trkpt><trkpt lat="43.08265522305258" lon="11.671471707770234"><ele>474.40000000000003</ele><time>2026-04-19T08:04:21Z</time></trkpt><trkpt lat="43.08260454958358" lon="11.671361877797667"><ele>475.20000000000005</ele><time>2026-04-19T08:04:22Z</time></trkpt><trkpt lat="43.08256867825587" lon="11.671250910475246"><ele>476.0</ele><time>2026-04-19T08:04:23Z</time></trkpt><trkpt lat="43.08253956713408" lon="11.67114911968927"><ele>476.0</ele><time>2026-04-19T08:04:24Z</time></trkpt><trkpt lat="43.082501343542276" lon="11.671078223384328"><ele>476.0</ele><time>2026-04-19T08:04:25Z</time></trkpt><trkpt lat="43.082369882666065" lon="11.671065728229701"><ele>476.0</ele><time>2026-04-19T08:04:27Z</time></trkpt><trkpt lat="43.08230652650668" lon="11.671121427487385"><ele>476.0</ele><time>2026-04-19T08:04:28Z</time></trkpt><trkpt lat="43.082241788468316" lon="11.671220657110943"><ele>476.0</ele><time>2026-04-19T08:04:29Z</time></trkpt><trkpt lat="43.082168453857996" lon="11.671301431869779"><ele>476.25</ele><time>2026-04-19T08:04:30Z</time></trkpt><trkpt lat="43.0821014720666" lon="11.67138393393274"><ele>476.5</ele><time>2026-04-19T08:04:31Z</time></trkpt><trkpt lat="43.08197564293809" lon="11.671396509921223"><ele>476.75</ele><time>2026-04-19T08:04:32Z</time></trkpt><trkpt lat="43.081863450817416" lon="11.67143676162532"><ele>477.0</ele><time>2026-04-19T08:04:33Z</time></trkpt><trkpt lat="43.08173333659212" lon="11.671466565838788"><ele>478.0</ele><time>2026-04-19T08:04:34Z</time></trkpt><trkpt lat="43.08158295740835" lon="11.671497961969518"><ele>479.0</ele><time>2026-04-19T08:04:35Z</time></trkpt><trkpt lat="43.081445464222426" lon="11.671532139367496"><ele>480.0</ele><time>2026-04-19T08:04:36Z</time></trkpt><trkpt lat="43.08132406596152" lon="11.671562570073096"><ele>481.0</ele><time>2026-04-19T08:04:37Z</time></trkpt><trkpt lat="43.0812115869163" lon="11.6715987724028"><ele>481.0</ele><time>2026-04-19T08:04:38Z</time></trkpt><trkpt lat="43.08110582690416" lon="11.671637359338646"><ele>481.0</ele><time>2026-04-19T08:04:39Z</time></trkpt><trkpt lat="43.08098792454452" lon="11.671715834620226"><ele>481.0</ele><time>2026-04-19T08:04:40Z</time></trkpt><trkpt lat="43.08086711084573" lon="11.671829142100536"><ele>481.0</ele><time>2026-04-19T08:04:41Z</time></trkpt><trkpt lat="43.08074208235404" lon="11.671981349967272"><ele>481.6666666666667</ele><time>2026-04-19T08:04:42Z</time></trkpt><trkpt lat="43.08061827823793" lon="11.672150936442875"><ele>482.33333333333337</ele><time>2026-04-19T08:04:43Z</time></trkpt><trkpt lat="43.08049462141155" lon="11.672313239189112"><ele>483.0</ele><time>2026-04-19T08:04:44Z</time></trkpt><trkpt lat="43.080386063874485" lon="11.672450300641247"><ele>483.0</ele><time>2026-04-19T08:04:45Z</time></trkpt><trkpt lat="43.08028394741076" lon="11.672577983412975"><ele>482.99999999999994</ele><time>2026-04-19T08:04:46Z</time></trkpt><trkpt lat="43.08019661370993" lon="11.67268869165646"><ele>482.99999999999994</ele><time>2026-04-19T08:04:47Z</time></trkpt><trkpt lat="43.080125101542535" lon="11.672785551195501"><ele>483.0</ele><time>2026-04-19T08:04:48Z</time></trkpt><trkpt lat="43.08006272534547" lon="11.672876658613433"><ele>483.0</ele><time>2026-04-19T08:04:49Z</time></trkpt><trkpt lat="43.07999405226082" lon="11.672973037450893"><ele>483.59999999999997</ele><time>2026-04-19T08:04:50Z</time></trkpt><trkpt lat="43.079912022819954" lon="11.673096963029042"><ele>484.19999999999993</ele><time>2026-04-19T08:04:51Z</time></trkpt><trkpt lat="43.07983181563823" lon="11.67319969644722"><ele>484.8</ele><time>2026-04-19T08:04:52Z</time></trkpt><trkpt lat="43.07976620876441" lon="11.673289844002081"><ele>485.4</ele><time>2026-04-19T08:04:53Z</time></trkpt><trkpt lat="43.07970246223187" lon="11.67338899513555"><ele>486.0</ele><time>2026-04-19T08:04:54Z</time></trkpt><trkpt lat="43.07963612331091" lon="11.673509180609924"><ele>486.0</ele><time>2026-04-19T08:04:55Z</time></trkpt><trkpt lat="43.07955718035695" lon="11.67368249049756"><ele>486.0</ele><time>2026-04-19T08:04:56Z</time></trkpt><trkpt lat="43.07947508438236" lon="11.673885330840744"><ele>486.0</ele><time>2026-04-19T08:04:57Z</time></trkpt><trkpt lat="43.07939014857924" lon="11.674084282902683"><ele>486.0</ele><time>2026-04-19T08:04:58Z</time></trkpt><trkpt lat="43.07929253032308" lon="11.674280331440249"><ele>486.0</ele><time>2026-04-19T08:04:59Z</time></trkpt><trkpt lat="43.07918806685556" lon="11.674481191044269"><ele>486.0</ele><time>2026-04-19T08:05:00Z</time></trkpt><trkpt lat="43.079082371127626" lon="11.674668724449287"><ele>486.66666666666663</ele><time>2026-04-19T08:05:01Z</time></trkpt><trkpt lat="43.07897420956669" lon="11.674842913439052"><ele>487.3333333333333</ele><time>2026-04-19T08:05:02Z</time></trkpt><trkpt lat="43.07887137422477" lon="11.674993943004306"><ele>488.0</ele><time>2026-04-19T08:05:03Z</time></trkpt><trkpt lat="43.07877553489243" lon="11.67512449407293"><ele>488.3333333333333</ele><time>2026-04-19T08:05:04Z</time></trkpt><trkpt lat="43.078671684764316" lon="11.675283270324233"><ele>488.66666666666663</ele><time>2026-04-19T08:05:05Z</time></trkpt><trkpt lat="43.078571112438894" lon="11.67544650866361"><ele>489.0</ele><time>2026-04-19T08:05:06Z</time></trkpt><trkpt lat="43.07847276458592" lon="11.675603215519917"><ele>489.0</ele><time>2026-04-19T08:05:07Z</time></trkpt><trkpt lat="43.078374851403225" lon="11.675752512077876"><ele>489.0</ele><time>2026-04-19T08:05:08Z</time></trkpt><trkpt lat="43.07828728464784" lon="11.67588862782271"><ele>489.0</ele><time>2026-04-19T08:05:09Z</time></trkpt><trkpt lat="43.078215125200686" lon="11.676000214297137"><ele>489.0</ele><time>2026-04-19T08:05:10Z</time></trkpt><trkpt lat="43.078151416903395" lon="11.676100506300992"><ele>489.0</ele><time>2026-04-19T08:05:11Z</time></trkpt><trkpt lat="43.07808824316313" lon="11.676195568024559"><ele>489.0</ele><time>2026-04-19T08:05:12Z</time></trkpt><trkpt lat="43.07801522916115" lon="11.676305111826377"><ele>489.0</ele><time>2026-04-19T08:05:13Z</time></trkpt><trkpt lat="43.07792805514615" lon="11.676440934157114"><ele>489.0</ele><time>2026-04-19T08:05:14Z</time></trkpt><trkpt lat="43.07784807468323" lon="11.676574965815684"><ele>489.0</ele><time>2026-04-19T08:05:15Z</time></trkpt><trkpt lat="43.07778193301088" lon="11.676689672336575"><ele>489.0</ele><time>2026-04-19T08:05:16Z</time></trkpt><trkpt lat="43.07772932377375" lon="11.676796265247603"><ele>489.0</ele><time>2026-04-19T08:05:17Z</time></trkpt><trkpt lat="43.07768797127969" lon="11.67689436318459"><ele>489.0</ele><time>2026-04-19T08:05:18Z</time></trkpt><trkpt lat="43.07766052005885" lon="11.676990955767659"><ele>489.0</ele><time>2026-04-19T08:05:19Z</time></trkpt><trkpt lat="43.07764678226779" lon="11.677083122192702"><ele>489.0</ele><time>2026-04-19T08:05:20Z</time></trkpt><trkpt lat="43.07762938048744" lon="11.677186480291246"><ele>489.1666666666667</ele><time>2026-04-19T08:05:22Z</time></trkpt><trkpt lat="43.077601712188" lon="11.677310114210664"><ele>489.33333333333337</ele><time>2026-04-19T08:05:25Z</time></trkpt><trkpt lat="43.07757779876882" lon="11.6774446684087"><ele>489.5</ele><time>2026-04-19T08:05:27Z</time></trkpt><trkpt lat="43.07757251845991" lon="11.677532013955318"><ele>489.6666666666667</ele><time>2026-04-19T08:05:28Z</time></trkpt><trkpt lat="43.077571074220096" lon="11.677636417760102"><ele>489.83333333333337</ele><time>2026-04-19T08:05:29Z</time></trkpt><trkpt lat="43.07757290903132" lon="11.677751962982468"><ele>490.0</ele><time>2026-04-19T08:05:30Z</time></trkpt><trkpt lat="43.077570296323735" lon="11.677873175135508"><ele>490.1666666666667</ele><time>2026-04-19T08:05:31Z</time></trkpt><trkpt lat="43.07756376660444" lon="11.67799945237422"><ele>490.33333333333337</ele><time>2026-04-19T08:05:32Z</time></trkpt><trkpt lat="43.07755480578782" lon="11.678109149240631"><ele>490.5</ele><time>2026-04-19T08:05:33Z</time></trkpt><trkpt lat="43.07754772529756" lon="11.6782213958532"><ele>490.66666666666663</ele><time>2026-04-19T08:05:34Z</time></trkpt><trkpt lat="43.07753981076175" lon="11.678340910136098"><ele>490.8333333333333</ele><time>2026-04-19T08:05:35Z</time></trkpt><trkpt lat="43.07753090430917" lon="11.678448739725443"><ele>491.0</ele><time>2026-04-19T08:05:36Z</time></trkpt><trkpt lat="43.07752551469661" lon="11.678544790385788"><ele>490.99999999999994</ele><time>2026-04-19T08:05:37Z</time></trkpt><trkpt lat="43.07752030002194" lon="11.678632287616734"><ele>491.0</ele><time>2026-04-19T08:05:38Z</time></trkpt><trkpt lat="43.07752629825959" lon="11.678755126687228"><ele>491.0</ele><time>2026-04-19T08:05:40Z</time></trkpt><trkpt lat="43.077616731334594" lon="11.678807062413464"><ele>491.0</ele><time>2026-04-19T08:05:43Z</time></trkpt><trkpt lat="43.07771900630206" lon="11.678820288961646"><ele>490.99999999999994</ele><time>2026-04-19T08:05:45Z</time></trkpt><trkpt lat="43.07779748686042" lon="11.678804888286765"><ele>491.0</ele><time>2026-04-19T08:05:47Z</time></trkpt><trkpt lat="43.077848119379745" lon="11.678737280931664"><ele>491.0</ele><time>2026-04-19T08:05:50Z</time></trkpt><trkpt lat="43.07787152763477" lon="11.67864442495178"><ele>491.0</ele><time>2026-04-19T08:06:32Z</time></trkpt><trkpt lat="43.07783503607241" lon="11.678717251389518"><ele>491.0</ele><time>2026-04-19T08:06:44Z</time></trkpt></trkseg><trkseg><trkpt lat="43.07787061327486" lon="11.678692001587057"><ele>491.0</ele><time>2026-04-19T08:43:37Z</time></trkpt><trkpt lat="43.07789682005256" lon="11.678592093472318"><ele>491.0</ele><time>2026-04-19T08:44:31Z</time></trkpt><trkpt lat="43.07792834874677" lon="11.678502173511724"><ele>491.0</ele><time>2026-04-19T08:44:33Z</time></trkpt><trkpt lat="43.077974212572634" lon="11.678354194897155"><ele>491.0</ele><time>2026-04-19T08:44:35Z</time></trkpt><trkpt lat="43.078025331767286" lon="11.678217824378608"><ele>491.0</ele><time>2026-04-19T08:44:37Z</time></trkpt><trkpt lat="43.078080456672005" lon="11.678097094619432"><ele>490.99999999999994</ele><time>2026-04-19T08:44:39Z</time></trkpt><trkpt lat="43.07813137106847" lon="11.678001714520773"><ele>491.0</ele><time>2026-04-19T08:44:57Z</time></trkpt><trkpt lat="43.07823960889737" lon="11.677930887747355"><ele>491.0</ele><time>2026-04-19T08:45:00Z</time></trkpt><trkpt lat="43.07830182528241" lon="11.677906052655281"><ele>491.0</ele><time>2026-04-19T08:45:01Z</time></trkpt><trkpt lat="43.078365032493195" lon="11.677863605730069"><ele>490.99999999999994</ele><time>2026-04-19T08:45:02Z</time></trkpt><trkpt lat="43.07844568812185" lon="11.677836483453108"><ele>491.0</ele><time>2026-04-19T08:45:03Z</time></trkpt><trkpt lat="43.07850941229402" lon="11.677772306278039"><ele>490.20000000000005</ele><time>2026-04-19T08:45:04Z</time></trkpt><trkpt lat="43.07859203738393" lon="11.677726233206903"><ele>489.40000000000003</ele><time>2026-04-19T08:45:05Z</time></trkpt><trkpt lat="43.078675362494046" lon="11.67766568806308"><ele>488.6</ele><time>2026-04-19T08:45:06Z</time></trkpt><trkpt lat="43.0787724127578" lon="11.67762569588296"><ele>487.8</ele><time>2026-04-19T08:45:07Z</time></trkpt><trkpt lat="43.078862457056864" lon="11.677566998393342"><ele>487.0</ele><time>2026-04-19T08:45:08Z</time></trkpt><trkpt lat="43.07895238917938" lon="11.677486511163542"><ele>487.0</ele><time>2026-04-19T08:45:09Z</time></trkpt><trkpt lat="43.07905478684973" lon="11.677429932797367"><ele>487.0</ele><time>2026-04-19T08:45:10Z</time></trkpt><trkpt lat="43.079162643942496" lon="11.677357758543417"><ele>487.0</ele><time>2026-04-19T08:45:11Z</time></trkpt><trkpt lat="43.0792812339122" lon="11.677272595923522"><ele>487.0</ele><time>2026-04-19T08:45:12Z</time></trkpt><trkpt lat="43.07940577268586" lon="11.677214202888575"><ele>487.25</ele><time>2026-04-19T08:45:13Z</time></trkpt><trkpt lat="43.07950700542871" lon="11.677111683472218"><ele>487.5</ele><time>2026-04-19T08:45:14Z</time></trkpt><trkpt lat="43.07962175770068" lon="11.677051021888012"><ele>487.75</ele><time>2026-04-19T08:45:15Z</time></trkpt><trkpt lat="43.07973838956136" lon="11.676978822722873"><ele>488.0</ele><time>2026-04-19T08:45:16Z</time></trkpt><trkpt lat="43.079859067847806" lon="11.67690288861789"><ele>487.25</ele><time>2026-04-19T08:45:17Z</time></trkpt><trkpt lat="43.07998385558341" lon="11.67682014634556"><ele>486.5</ele><time>2026-04-19T08:45:18Z</time></trkpt><trkpt lat="43.08010959364413" lon="11.676759358559814"><ele>485.75</ele><time>2026-04-19T08:45:19Z</time></trkpt><trkpt lat="43.080225331968194" lon="11.676660868519173"><ele>485.0</ele><time>2026-04-19T08:45:20Z</time></trkpt><trkpt lat="43.0803530728289" lon="11.676583372701293"><ele>485.0</ele><time>2026-04-19T08:45:21Z</time></trkpt><trkpt lat="43.08047682506969" lon="11.676512368083115"><ele>485.0</ele><time>2026-04-19T08:45:22Z</time></trkpt><trkpt lat="43.08059821008037" lon="11.676464936992417"><ele>485.0</ele><time>2026-04-19T08:45:23Z</time></trkpt><trkpt lat="43.08073497263417" lon="11.67645150304536"><ele>485.0</ele><time>2026-04-19T08:45:24Z</time></trkpt><trkpt lat="43.080887561381196" lon="11.676421737106198"><ele>482.66666666666663</ele><time>2026-04-19T08:45:25Z</time></trkpt><trkpt lat="43.081064036113226" lon="11.67639673453964"><ele>480.33333333333337</ele><time>2026-04-19T08:45:26Z</time></trkpt><trkpt lat="43.0812487250764" lon="11.676385735431777"><ele>478.0</ele><time>2026-04-19T08:45:27Z</time></trkpt><trkpt lat="43.08144317671055" lon="11.676377762114223"><ele>475.33333333333337</ele><time>2026-04-19T08:45:28Z</time></trkpt><trkpt lat="43.08163841965269" lon="11.676370820401333"><ele>472.66666666666663</ele><time>2026-04-19T08:45:29Z</time></trkpt><trkpt lat="43.08183180071033" lon="11.67637173654141"><ele>470.0</ele><time>2026-04-19T08:45:30Z</time></trkpt><trkpt lat="43.0820236933319" lon="11.676390368426015"><ele>470.0</ele><time>2026-04-19T08:45:31Z</time></trkpt><trkpt lat="43.08221143974806" lon="11.676414738613138"><ele>470.0</ele><time>2026-04-19T08:45:32Z</time></trkpt><trkpt lat="43.08240501145339" lon="11.676421360136093"><ele>470.0</ele><time>2026-04-19T08:45:33Z</time></trkpt><trkpt lat="43.082592927273666" lon="11.67645182928299"><ele>467.0</ele><time>2026-04-19T08:45:34Z</time></trkpt><trkpt lat="43.08276652848597" lon="11.676485232565424"><ele>464.0</ele><time>2026-04-19T08:45:35Z</time></trkpt><trkpt lat="43.08293157461767" lon="11.676508985943512"><ele>461.0</ele><time>2026-04-19T08:45:36Z</time></trkpt><trkpt lat="43.08308387506884" lon="11.676533397155376"><ele>461.0</ele><time>2026-04-19T08:45:37Z</time></trkpt><trkpt lat="43.08324617305564" lon="11.676558376149886"><ele>461.0</ele><time>2026-04-19T08:45:38Z</time></trkpt><trkpt lat="43.08341197117593" lon="11.676589481962075"><ele>461.0</ele><time>2026-04-19T08:45:39Z</time></trkpt><trkpt lat="43.083578765354574" lon="11.676616079843221"><ele>459.75</ele><time>2026-04-19T08:45:40Z</time></trkpt><trkpt lat="43.08373240890115" lon="11.676635410004014"><ele>458.5</ele><time>2026-04-19T08:45:41Z</time></trkpt><trkpt lat="43.08386712565019" lon="11.676647493352801"><ele>457.25</ele><time>2026-04-19T08:45:42Z</time></trkpt><trkpt lat="43.083981697830275" lon="11.676639460854037"><ele>456.0</ele><time>2026-04-19T08:45:43Z</time></trkpt><trkpt lat="43.08407218879284" lon="11.676615293104444"><ele>454.8</ele><time>2026-04-19T08:45:44Z</time></trkpt><trkpt lat="43.08414384802675" lon="11.676580792015999"><ele>453.6</ele><time>2026-04-19T08:45:45Z</time></trkpt><trkpt lat="43.0842553539685" lon="11.67654075951414"><ele>452.4</ele><time>2026-04-19T08:45:47Z</time></trkpt><trkpt lat="43.08433149634922" lon="11.676526819740575"><ele>451.2</ele><time>2026-04-19T08:45:48Z</time></trkpt><trkpt lat="43.084394178741285" lon="11.676491219547941"><ele>450.0</ele><time>2026-04-19T08:45:49Z</time></trkpt><trkpt lat="43.084451889095845" lon="11.67634414998756"><ele>450.0</ele><time>2026-04-19T08:45:51Z</time></trkpt><trkpt lat="43.084441167437895" lon="11.67625539072244"><ele>450.0</ele><time>2026-04-19T08:45:52Z</time></trkpt><trkpt lat="43.08439539977131" lon="11.676167593950261"><ele>450.0</ele><time>2026-04-19T08:45:53Z</time></trkpt><trkpt lat="43.0843384644585" lon="11.676050523782852"><ele>450.0</ele><time>2026-04-19T08:45:54Z</time></trkpt><trkpt lat="43.08429559633441" lon="11.675870828898953"><ele>450.0</ele><time>2026-04-19T08:45:55Z</time></trkpt><trkpt lat="43.0842685391841" lon="11.675655080602052"><ele>451.33333333333337</ele><time>2026-04-19T08:45:56Z</time></trkpt><trkpt lat="43.08421978088008" lon="11.675439006801641"><ele>452.6666666666667</ele><time>2026-04-19T08:45:57Z</time></trkpt><trkpt lat="43.08413884145209" lon="11.675225712773626"><ele>454.0</ele><time>2026-04-19T08:45:58Z</time></trkpt><trkpt lat="43.08403275274853" lon="11.675032607010445"><ele>456.33333333333337</ele><time>2026-04-19T08:45:59Z</time></trkpt><trkpt lat="43.08391237108958" lon="11.67484454293595"><ele>458.66666666666663</ele><time>2026-04-19T08:46:00Z</time></trkpt><trkpt lat="43.08379307709887" lon="11.674663370665119"><ele>461.0</ele><time>2026-04-19T08:46:01Z</time></trkpt><trkpt lat="43.0836914402743" lon="11.674482764010328"><ele>461.66666666666663</ele><time>2026-04-19T08:46:02Z</time></trkpt><trkpt lat="43.08361171306177" lon="11.674301641650167"><ele>462.33333333333337</ele><time>2026-04-19T08:46:03Z</time></trkpt><trkpt lat="43.08353406283075" lon="11.674107490212117"><ele>463.0</ele><time>2026-04-19T08:46:04Z</time></trkpt><trkpt lat="43.08345887983454" lon="11.673898126620047"><ele>463.0</ele><time>2026-04-19T08:46:05Z</time></trkpt><trkpt lat="43.0833924155209" lon="11.673672426647986"><ele>463.0</ele><time>2026-04-19T08:46:06Z</time></trkpt><trkpt lat="43.08333935164429" lon="11.673421205547076"><ele>463.0</ele><time>2026-04-19T08:46:07Z</time></trkpt><trkpt lat="43.08328808084616" lon="11.673162143142072"><ele>466.0</ele><time>2026-04-19T08:46:08Z</time></trkpt><trkpt lat="43.08323059738157" lon="11.672902205270626"><ele>469.0</ele><time>2026-04-19T08:46:09Z</time></trkpt><trkpt lat="43.083171017691086" lon="11.672650410566922"><ele>472.0</ele><time>2026-04-19T08:46:10Z</time></trkpt><trkpt lat="43.08310355840656" lon="11.672417581234955"><ele>472.0</ele><time>2026-04-19T08:46:11Z</time></trkpt><trkpt lat="43.08302599163413" lon="11.672209151326602"><ele>472.0</ele><time>2026-04-19T08:46:12Z</time></trkpt><trkpt lat="43.08294533850284" lon="11.672015140220473"><ele>472.0</ele><time>2026-04-19T08:46:13Z</time></trkpt><trkpt lat="43.08285975831147" lon="11.671834816225799"><ele>473.0</ele><time>2026-04-19T08:46:14Z</time></trkpt><trkpt lat="43.08277807804797" lon="11.671672695743272"><ele>474.0</ele><time>2026-04-19T08:46:15Z</time></trkpt><trkpt lat="43.082699158886335" lon="11.671543729814392"><ele>475.0</ele><time>2026-04-19T08:46:16Z</time></trkpt><trkpt lat="43.08264181323154" lon="11.671451313495469"><ele>476.0</ele><time>2026-04-19T08:46:17Z</time></trkpt><trkpt lat="43.082591378298595" lon="11.671337032112918"><ele>475.99999999999994</ele><time>2026-04-19T08:46:19Z</time></trkpt><trkpt lat="43.08256639459152" lon="11.67121883743901"><ele>476.0</ele><time>2026-04-19T08:46:21Z</time></trkpt><trkpt lat="43.08255396039461" lon="11.671133189437768"><ele>476.0</ele><time>2026-04-19T08:46:22Z</time></trkpt><trkpt lat="43.08254665781227" lon="11.671040497200169"><ele>476.0</ele><time>2026-04-19T08:46:23Z</time></trkpt><trkpt lat="43.082554052960724" lon="11.6709333160206"><ele>475.99999999999994</ele><time>2026-04-19T08:46:24.001Z</time></trkpt><trkpt lat="43.082592820629024" lon="11.670823455815531"><ele>476.0</ele><time>2026-04-19T08:46:25.001Z</time></trkpt><trkpt lat="43.08263629719895" lon="11.670712706925597"><ele>476.0</ele><time>2026-04-19T08:46:26.001Z</time></trkpt><trkpt lat="43.082684980915325" lon="11.67060114339648"><ele>476.0</ele><time>2026-04-19T08:46:27.001Z</time></trkpt><trkpt lat="43.08275037174568" lon="11.670475208257448"><ele>476.0</ele><time>2026-04-19T08:46:28.001Z</time></trkpt><trkpt lat="43.082829054033745" lon="11.670301170379918"><ele>476.0</ele><time>2026-04-19T08:46:29.001Z</time></trkpt><trkpt lat="43.082931968949744" lon="11.670096025768158"><ele>475.66666666666663</ele><time>2026-04-19T08:46:30.001Z</time></trkpt><trkpt lat="43.08302189087027" lon="11.669848328577098"><ele>475.33333333333337</ele><time>2026-04-19T08:46:31.001Z</time></trkpt><trkpt lat="43.08310939819027" lon="11.669604106415747"><ele>475.0</ele><time>2026-04-19T08:46:32.001Z</time></trkpt><trkpt lat="43.08318040400564" lon="11.669375342734952"><ele>474.33333333333337</ele><time>2026-04-19T08:46:33.001Z</time></trkpt><trkpt lat="43.08326154820444" lon="11.66915465513436"><ele>473.66666666666663</ele><time>2026-04-19T08:46:34.001Z</time></trkpt><trkpt lat="43.083343998612186" lon="11.668926835308365"><ele>473.0</ele><time>2026-04-19T08:46:35Z</time></trkpt><trkpt lat="43.08342566727865" lon="11.668701301599516"><ele>471.3333333333333</ele><time>2026-04-19T08:46:36Z</time></trkpt><trkpt lat="43.08350868691714" lon="11.668471089046959"><ele>469.66666666666663</ele><time>2026-04-19T08:46:37Z</time></trkpt><trkpt lat="43.083584261050966" lon="11.668235497759031"><ele>468.0</ele><time>2026-04-19T08:46:38Z</time></trkpt><trkpt lat="43.08366163852937" lon="11.66800007901694"><ele>468.0</ele><time>2026-04-19T08:46:39Z</time></trkpt><trkpt lat="43.083736819695254" lon="11.667751668494647"><ele>468.0</ele><time>2026-04-19T08:46:40Z</time></trkpt><trkpt lat="43.08380407115454" lon="11.66750212428026"><ele>468.0</ele><time>2026-04-19T08:46:41Z</time></trkpt><trkpt lat="43.08387389699679" lon="11.667264662176832"><ele>468.0</ele><time>2026-04-19T08:46:42Z</time></trkpt><trkpt lat="43.083941074019734" lon="11.667031972302004"><ele>468.0</ele><time>2026-04-19T08:46:43Z</time></trkpt><trkpt lat="43.08402175415482" lon="11.666792860807462"><ele>468.0</ele><time>2026-04-19T08:46:44Z</time></trkpt><trkpt lat="43.0841249965276" lon="11.666553442624435"><ele>466.33333333333337</ele><time>2026-04-19T08:46:45Z</time></trkpt><trkpt lat="43.08424316930294" lon="11.666317721594961"><ele>464.6666666666667</ele><time>2026-04-19T08:46:46Z</time></trkpt><trkpt lat="43.08436268238727" lon="11.666090166712829"><ele>463.0</ele><time>2026-04-19T08:46:47Z</time></trkpt><trkpt lat="43.08447376535542" lon="11.665875621495234"><ele>462.6666666666667</ele><time>2026-04-19T08:46:48Z</time></trkpt><trkpt lat="43.084577962372045" lon="11.665667582548707"><ele>462.33333333333337</ele><time>2026-04-19T08:46:49Z</time></trkpt><trkpt lat="43.08467684295087" lon="11.665468135638248"><ele>462.0</ele><time>2026-04-19T08:46:50Z</time></trkpt><trkpt lat="43.08477337526155" lon="11.665275470925206"><ele>462.0</ele><time>2026-04-19T08:46:51Z</time></trkpt><trkpt lat="43.08486578883209" lon="11.6650925844013"><ele>462.0</ele><time>2026-04-19T08:46:52Z</time></trkpt><trkpt lat="43.08495428287354" lon="11.664913746902867"><ele>462.0</ele><time>2026-04-19T08:46:53Z</time></trkpt><trkpt lat="43.085038887790574" lon="11.664733586866962"><ele>460.66666666666663</ele><time>2026-04-19T08:46:54Z</time></trkpt><trkpt lat="43.08511950732023" lon="11.664530330645977"><ele>459.3333333333333</ele><time>2026-04-19T08:46:55Z</time></trkpt><trkpt lat="43.085186473112564" lon="11.66429038405671"><ele>458.0</ele><time>2026-04-19T08:46:56Z</time></trkpt><trkpt lat="43.08523920627932" lon="11.664023539993831"><ele>458.0</ele><time>2026-04-19T08:46:57Z</time></trkpt><trkpt lat="43.085297464451315" lon="11.66376618320785"><ele>458.0</ele><time>2026-04-19T08:46:58Z</time></trkpt><trkpt lat="43.085353078371696" lon="11.66353666894082"><ele>458.0</ele><time>2026-04-19T08:46:59Z</time></trkpt><trkpt lat="43.085401979069" lon="11.663322173648597"><ele>457.3333333333333</ele><time>2026-04-19T08:47:00Z</time></trkpt><trkpt lat="43.08545195524275" lon="11.663118563234338"><ele>456.66666666666663</ele><time>2026-04-19T08:47:01Z</time></trkpt><trkpt lat="43.085502249548625" lon="11.6629165734498"><ele>456.0</ele><time>2026-04-19T08:47:02Z</time></trkpt><trkpt lat="43.085553862349045" lon="11.662713660587382"><ele>455.0</ele><time>2026-04-19T08:47:03Z</time></trkpt><trkpt lat="43.085613634474775" lon="11.662519039834914"><ele>454.0</ele><time>2026-04-19T08:47:04Z</time></trkpt><trkpt lat="43.08567708978125" lon="11.662342119625936"><ele>453.0</ele><time>2026-04-19T08:47:05Z</time></trkpt><trkpt lat="43.085746129906696" lon="11.662173245196472"><ele>452.0</ele><time>2026-04-19T08:47:06Z</time></trkpt><trkpt lat="43.085812655256326" lon="11.662001689401793"><ele>451.0</ele><time>2026-04-19T08:47:07Z</time></trkpt><trkpt lat="43.085877583358304" lon="11.661814490542895"><ele>450.0</ele><time>2026-04-19T08:47:08Z</time></trkpt><trkpt lat="43.08594112771432" lon="11.661633477575188"><ele>449.0</ele><time>2026-04-19T08:47:09Z</time></trkpt><trkpt lat="43.08600591288449" lon="11.661455905204985"><ele>448.0</ele><time>2026-04-19T08:47:10Z</time></trkpt><trkpt lat="43.08607217313764" lon="11.661275956192865"><ele>446.0</ele><time>2026-04-19T08:47:11Z</time></trkpt><trkpt lat="43.08614427487685" lon="11.661093515069469"><ele>444.0</ele><time>2026-04-19T08:47:12Z</time></trkpt><trkpt lat="43.08621671062549" lon="11.660910239128928"><ele>442.0</ele><time>2026-04-19T08:47:13Z</time></trkpt><trkpt lat="43.0862903774686" lon="11.66072564638659"><ele>442.0</ele><time>2026-04-19T08:47:14Z</time></trkpt><trkpt lat="43.086363021436604" lon="11.660551659404035"><ele>442.0</ele><time>2026-04-19T08:47:15Z</time></trkpt><trkpt lat="43.08643126445732" lon="11.660392173784752"><ele>442.0</ele><time>2026-04-19T08:47:16Z</time></trkpt><trkpt lat="43.086493484550175" lon="11.660247453214572"><ele>442.0</ele><time>2026-04-19T08:47:17Z</time></trkpt><trkpt lat="43.086559110961446" lon="11.660113168245383"><ele>441.25</ele><time>2026-04-19T08:47:18Z</time></trkpt><trkpt lat="43.08664106446508" lon="11.660002906415286"><ele>440.5</ele><time>2026-04-19T08:47:19Z</time></trkpt><trkpt lat="43.08674665702855" lon="11.659942823662746"><ele>439.75</ele><time>2026-04-19T08:47:20Z</time></trkpt><trkpt lat="43.08685097224852" lon="11.659872841491469"><ele>439.0</ele><time>2026-04-19T08:47:21Z</time></trkpt><trkpt lat="43.086978413575125" lon="11.659886397275601"><ele>439.0</ele><time>2026-04-19T08:47:22Z</time></trkpt><trkpt lat="43.0871109622132" lon="11.659900034246709"><ele>439.0</ele><time>2026-04-19T08:47:23Z</time></trkpt><trkpt lat="43.087246549954" lon="11.65990138328156"><ele>439.0</ele><time>2026-04-19T08:47:24Z</time></trkpt><trkpt lat="43.08738983169118" lon="11.659926329742714"><ele>439.0</ele><time>2026-04-19T08:47:25Z</time></trkpt><trkpt lat="43.08752192424518" lon="11.659940941861702"><ele>438.5</ele><time>2026-04-19T08:47:26Z</time></trkpt><trkpt lat="43.087654103708" lon="11.659958364242158"><ele>438.0</ele><time>2026-04-19T08:47:27Z</time></trkpt><trkpt lat="43.08778554659151" lon="11.659976810801519"><ele>437.5</ele><time>2026-04-19T08:47:28Z</time></trkpt><trkpt lat="43.08791270069061" lon="11.659996019366861"><ele>437.0</ele><time>2026-04-19T08:47:29Z</time></trkpt><trkpt lat="43.08803278148875" lon="11.660010634064042"><ele>437.0</ele><time>2026-04-19T08:47:30Z</time></trkpt><trkpt lat="43.088146646579425" lon="11.660019144686741"><ele>437.00000000000006</ele><time>2026-04-19T08:47:31Z</time></trkpt><trkpt lat="43.08825716557616" lon="11.660013213828837"><ele>437.00000000000006</ele><time>2026-04-19T08:47:32Z</time></trkpt><trkpt lat="43.0883584055238" lon="11.659972801257046"><ele>437.0</ele><time>2026-04-19T08:47:33Z</time></trkpt><trkpt lat="43.088447235450495" lon="11.659887807345457"><ele>437.0</ele><time>2026-04-19T08:47:34Z</time></trkpt><trkpt lat="43.0885203365837" lon="11.65976502724705"><ele>436.0</ele><time>2026-04-19T08:47:35Z</time></trkpt><trkpt lat="43.08856952177646" lon="11.659621653161965"><ele>435.0</ele><time>2026-04-19T08:47:36Z</time></trkpt><trkpt lat="43.0885775017455" lon="11.65947019063936"><ele>434.0</ele><time>2026-04-19T08:47:37Z</time></trkpt><trkpt lat="43.08856206703973" lon="11.659317164611576"><ele>433.0</ele><time>2026-04-19T08:47:38Z</time></trkpt><trkpt lat="43.08851521134604" lon="11.659161257221287"><ele>431.75</ele><time>2026-04-19T08:47:39Z</time></trkpt><trkpt lat="43.08846054503271" lon="11.659007693124734"><ele>430.5</ele><time>2026-04-19T08:47:40Z</time></trkpt><trkpt lat="43.08841315346822" lon="11.65885661778374"><ele>429.25</ele><time>2026-04-19T08:47:41Z</time></trkpt><trkpt lat="43.08842374469976" lon="11.658701375055678"><ele>428.0</ele><time>2026-04-19T08:47:42Z</time></trkpt><trkpt lat="43.08847292561024" lon="11.658550043839089"><ele>427.0</ele><time>2026-04-19T08:47:43Z</time></trkpt><trkpt lat="43.088551981243356" lon="11.658424369737638"><ele>426.0</ele><time>2026-04-19T08:47:44Z</time></trkpt><trkpt lat="43.08864755553879" lon="11.658305670919205"><ele>425.0</ele><time>2026-04-19T08:47:45Z</time></trkpt><trkpt lat="43.08874711280337" lon="11.658156352545939"><ele>424.0</ele><time>2026-04-19T08:47:46Z</time></trkpt><trkpt lat="43.08885927375252" lon="11.658022881029053"><ele>424.0</ele><time>2026-04-19T08:47:47Z</time></trkpt><trkpt lat="43.08895998228742" lon="11.657900685035338"><ele>424.0</ele><time>2026-04-19T08:47:48Z</time></trkpt><trkpt lat="43.08905384099644" lon="11.657780927958061"><ele>424.0</ele><time>2026-04-19T08:47:49Z</time></trkpt><trkpt lat="43.08914431218932" lon="11.657664062138338"><ele>424.0</ele><time>2026-04-19T08:47:50Z</time></trkpt><trkpt lat="43.08923136029483" lon="11.657556691173008"><ele>422.75</ele><time>2026-04-19T08:47:51Z</time></trkpt><trkpt lat="43.089314561051545" lon="11.657450264208764"><ele>421.5</ele><time>2026-04-19T08:47:52Z</time></trkpt><trkpt lat="43.089401374676875" lon="11.657353961702801"><ele>420.25</ele><time>2026-04-19T08:47:53Z</time></trkpt><trkpt lat="43.089511723225684" lon="11.657254423587146"><ele>419.0</ele><time>2026-04-19T08:47:54Z</time></trkpt><trkpt lat="43.089638662489236" lon="11.657178224302367"><ele>419.0</ele><time>2026-04-19T08:47:55Z</time></trkpt><trkpt lat="43.089767872596056" lon="11.65712952127777"><ele>419.0</ele><time>2026-04-19T08:47:56Z</time></trkpt><trkpt lat="43.08989153988192" lon="11.657089771683452"><ele>419.0</ele><time>2026-04-19T08:47:57Z</time></trkpt><trkpt lat="43.09000169417906" lon="11.657032192812432"><ele>419.0</ele><time>2026-04-19T08:47:58Z</time></trkpt><trkpt lat="43.090097619988285" lon="11.656948734590683"><ele>418.5</ele><time>2026-04-19T08:47:59Z</time></trkpt><trkpt lat="43.09018310699401" lon="11.656841069386768"><ele>418.0</ele><time>2026-04-19T08:48:00Z</time></trkpt><trkpt lat="43.09024991611257" lon="11.656709146075166"><ele>417.5</ele><time>2026-04-19T08:48:01Z</time></trkpt><trkpt lat="43.09029528178378" lon="11.656555015339663"><ele>417.0</ele><time>2026-04-19T08:48:02Z</time></trkpt><trkpt lat="43.090320235754" lon="11.656388986453567"><ele>417.0</ele><time>2026-04-19T08:48:03Z</time></trkpt><trkpt lat="43.090313190552074" lon="11.65621430484567"><ele>417.0</ele><time>2026-04-19T08:48:04Z</time></trkpt><trkpt lat="43.09029458342116" lon="11.656031376044158"><ele>417.0</ele><time>2026-04-19T08:48:05Z</time></trkpt><trkpt lat="43.09027733299888" lon="11.655858701928016"><ele>417.0</ele><time>2026-04-19T08:48:06Z</time></trkpt><trkpt lat="43.09027900438155" lon="11.655680006260578"><ele>416.0</ele><time>2026-04-19T08:48:07Z</time></trkpt><trkpt lat="43.09029960067142" lon="11.655499167862548"><ele>415.0</ele><time>2026-04-19T08:48:08Z</time></trkpt><trkpt lat="43.09033553654576" lon="11.655324805126236"><ele>414.0</ele><time>2026-04-19T08:48:09Z</time></trkpt><trkpt lat="43.09038528068205" lon="11.655164806884297"><ele>413.0</ele><time>2026-04-19T08:48:10Z</time></trkpt><trkpt lat="43.090463259831715" lon="11.655023808748458"><ele>413.0</ele><time>2026-04-19T08:48:11Z</time></trkpt><trkpt lat="43.09056290902843" lon="11.654893470369831"><ele>413.0</ele><time>2026-04-19T08:48:12Z</time></trkpt><trkpt lat="43.09068470559658" lon="11.654780342951819"><ele>413.0</ele><time>2026-04-19T08:48:13Z</time></trkpt><trkpt lat="43.09081469942846" lon="11.65468322567424"><ele>413.0</ele><time>2026-04-19T08:48:14Z</time></trkpt><trkpt lat="43.09094257208094" lon="11.654592907936843"><ele>413.0</ele><time>2026-04-19T08:48:15Z</time></trkpt><trkpt lat="43.09106717780849" lon="11.654497163665368"><ele>413.0</ele><time>2026-04-19T08:48:16Z</time></trkpt><trkpt lat="43.09118383787668" lon="11.654403828800891"><ele>413.0</ele><time>2026-04-19T08:48:17Z</time></trkpt><trkpt lat="43.091299372855886" lon="11.654313739728765"><ele>413.0</ele><time>2026-04-19T08:48:18Z</time></trkpt><trkpt lat="43.091411358632186" lon="11.654226244435556"><ele>411.5</ele><time>2026-04-19T08:48:19Z</time></trkpt><trkpt lat="43.09151830801318" lon="11.65414948134229"><ele>410.0</ele><time>2026-04-19T08:48:20Z</time></trkpt><trkpt lat="43.091626252811814" lon="11.654092692966588"><ele>408.5</ele><time>2026-04-19T08:48:21Z</time></trkpt><trkpt lat="43.09173592208671" lon="11.654064093397082"><ele>407.0</ele><time>2026-04-19T08:48:22Z</time></trkpt><trkpt lat="43.09185301855271" lon="11.654055191427004"><ele>407.0</ele><time>2026-04-19T08:48:23Z</time></trkpt><trkpt lat="43.091974589251805" lon="11.654062024045496"><ele>407.0</ele><time>2026-04-19T08:48:24Z</time></trkpt><trkpt lat="43.09209547419024" lon="11.654102421106469"><ele>407.0</ele><time>2026-04-19T08:48:25Z</time></trkpt><trkpt lat="43.09221365842803" lon="11.654168445031528"><ele>407.0</ele><time>2026-04-19T08:48:26Z</time></trkpt><trkpt lat="43.09232731871597" lon="11.654232673230101"><ele>406.40000000000003</ele><time>2026-04-19T08:48:27Z</time></trkpt><trkpt lat="43.092432602200084" lon="11.654287614349393"><ele>405.8</ele><time>2026-04-19T08:48:28Z</time></trkpt><trkpt lat="43.09253204477654" lon="11.654330386607054"><ele>405.2</ele><time>2026-04-19T08:48:29Z</time></trkpt><trkpt lat="43.09262504417429" lon="11.65435646342413"><ele>404.6</ele><time>2026-04-19T08:48:30Z</time></trkpt><trkpt lat="43.09271193943694" lon="11.654348586045721"><ele>404.0</ele><time>2026-04-19T08:48:31Z</time></trkpt><trkpt lat="43.092792324156584" lon="11.654309696684768"><ele>404.0</ele><time>2026-04-19T08:48:32Z</time></trkpt><trkpt lat="43.09286912987369" lon="11.654238023951983"><ele>404.0</ele><time>2026-04-19T08:48:33Z</time></trkpt><trkpt lat="43.09291315008173" lon="11.654104614142918"><ele>404.0</ele><time>2026-04-19T08:48:34Z</time></trkpt><trkpt lat="43.092915291524925" lon="11.65396168955279"><ele>404.0</ele><time>2026-04-19T08:48:35Z</time></trkpt><trkpt lat="43.092861650529365" lon="11.653849761935067"><ele>404.0</ele><time>2026-04-19T08:48:36Z</time></trkpt><trkpt lat="43.092797729807955" lon="11.653736007239024"><ele>404.0</ele><time>2026-04-19T08:48:37Z</time></trkpt><trkpt lat="43.09268377555372" lon="11.653699444610858"><ele>404.0</ele><time>2026-04-19T08:48:38Z</time></trkpt><trkpt lat="43.092571947430734" lon="11.653685000333196"><ele>404.0</ele><time>2026-04-19T08:48:39Z</time></trkpt><trkpt lat="43.09245746934137" lon="11.653681218876617"><ele>404.0</ele><time>2026-04-19T08:48:40.001Z</time></trkpt><trkpt lat="43.09232774613755" lon="11.653662983808168"><ele>404.75</ele><time>2026-04-19T08:48:41Z</time></trkpt><trkpt lat="43.09219474623208" lon="11.653622765477818"><ele>405.5</ele><time>2026-04-19T08:48:42Z</time></trkpt><trkpt lat="43.09206872226441" lon="11.653573233268938"><ele>406.25</ele><time>2026-04-19T08:48:43Z</time></trkpt><trkpt lat="43.091953208125595" lon="11.653526717493271"><ele>407.0</ele><time>2026-04-19T08:48:44Z</time></trkpt><trkpt lat="43.09184428351821" lon="11.653482508779716"><ele>404.75</ele><time>2026-04-19T08:48:45Z</time></trkpt><trkpt lat="43.091739535512296" lon="11.653438129234429"><ele>402.5</ele><time>2026-04-19T08:48:46Z</time></trkpt><trkpt lat="43.091627829242476" lon="11.653398481201483"><ele>400.25</ele><time>2026-04-19T08:48:47Z</time></trkpt><trkpt lat="43.091511190659986" lon="11.653372344617368"><ele>398.0</ele><time>2026-04-19T08:48:48Z</time></trkpt><trkpt lat="43.0913924349375" lon="11.65336865373672"><ele>396.5</ele><time>2026-04-19T08:48:49Z</time></trkpt><trkpt lat="43.091271817620736" lon="11.653382772831572"><ele>395.0</ele><time>2026-04-19T08:48:50Z</time></trkpt><trkpt lat="43.09115046285706" lon="11.65340214558078"><ele>393.5</ele><time>2026-04-19T08:48:51Z</time></trkpt><trkpt lat="43.09103211968687" lon="11.653418264666222"><ele>392.0</ele><time>2026-04-19T08:48:52Z</time></trkpt><trkpt lat="43.09091793281111" lon="11.653432390290051"><ele>392.0</ele><time>2026-04-19T08:48:53Z</time></trkpt><trkpt lat="43.090799059395934" lon="11.653447688836124"><ele>392.0</ele><time>2026-04-19T08:48:54Z</time></trkpt><trkpt lat="43.090671413719704" lon="11.653463011281863"><ele>392.0</ele><time>2026-04-19T08:48:55Z</time></trkpt><trkpt lat="43.09054329165489" lon="11.653480691949113"><ele>392.0</ele><time>2026-04-19T08:48:56Z</time></trkpt><trkpt lat="43.09042310340822" lon="11.6534996017055"><ele>393.25</ele><time>2026-04-19T08:48:57Z</time></trkpt><trkpt lat="43.09029842156345" lon="11.653528265063178"><ele>394.5</ele><time>2026-04-19T08:48:58Z</time></trkpt><trkpt lat="43.09018172371224" lon="11.65358067890047"><ele>395.75</ele><time>2026-04-19T08:48:59Z</time></trkpt><trkpt lat="43.090075770797185" lon="11.653661065397943"><ele>397.0</ele><time>2026-04-19T08:49:00Z</time></trkpt><trkpt lat="43.08996993106626" lon="11.653757855868884"><ele>395.5</ele><time>2026-04-19T08:49:01Z</time></trkpt><trkpt lat="43.08985542781089" lon="11.653838783870516"><ele>394.0</ele><time>2026-04-19T08:49:02Z</time></trkpt><trkpt lat="43.08972832724772" lon="11.653881925163665"><ele>392.5</ele><time>2026-04-19T08:49:03Z</time></trkpt><trkpt lat="43.089593640548905" lon="11.653900939347476"><ele>391.0</ele><time>2026-04-19T08:49:04Z</time></trkpt><trkpt lat="43.08945635184781" lon="11.65390812384205"><ele>391.0</ele><time>2026-04-19T08:49:05Z</time></trkpt><trkpt lat="43.0893234375288" lon="11.65390611252419"><ele>391.0</ele><time>2026-04-19T08:49:06Z</time></trkpt><trkpt lat="43.08920769704463" lon="11.653893894892557"><ele>391.0</ele><time>2026-04-19T08:49:07Z</time></trkpt><trkpt lat="43.08910131780538" lon="11.653855736466808"><ele>391.0</ele><time>2026-04-19T08:49:08Z</time></trkpt><trkpt lat="43.089007102454694" lon="11.653781880012662"><ele>389.5</ele><time>2026-04-19T08:49:09Z</time></trkpt><trkpt lat="43.08892494213623" lon="11.653675350132337"><ele>388.0</ele><time>2026-04-19T08:49:10Z</time></trkpt><trkpt lat="43.08886257908053" lon="11.653539283651524"><ele>386.5</ele><time>2026-04-19T08:49:11Z</time></trkpt><trkpt lat="43.08882555368254" lon="11.65337886497232"><ele>385.0</ele><time>2026-04-19T08:49:12Z</time></trkpt><trkpt lat="43.08880661848253" lon="11.653204425893794"><ele>384.25</ele><time>2026-04-19T08:49:13Z</time></trkpt><trkpt lat="43.08879066758306" lon="11.653030322535306"><ele>383.5</ele><time>2026-04-19T08:49:14Z</time></trkpt><trkpt lat="43.08877504348569" lon="11.652868068103997"><ele>382.75</ele><time>2026-04-19T08:49:15Z</time></trkpt><trkpt lat="43.08876269801595" lon="11.652712310411935"><ele>382.0</ele><time>2026-04-19T08:49:16Z</time></trkpt><trkpt lat="43.088752481371706" lon="11.652569016301808"><ele>381.20000000000005</ele><time>2026-04-19T08:49:17Z</time></trkpt><trkpt lat="43.088731748506774" lon="11.652436939372986"><ele>380.4</ele><time>2026-04-19T08:49:18Z</time></trkpt><trkpt lat="43.08869461991735" lon="11.652321705696922"><ele>379.6</ele><time>2026-04-19T08:49:19Z</time></trkpt><trkpt lat="43.08864141548885" lon="11.652215917762359"><ele>378.79999999999995</ele><time>2026-04-19T08:49:20Z</time></trkpt><trkpt lat="43.08856443499885" lon="11.65212789879625"><ele>378.0</ele><time>2026-04-19T08:49:21Z</time></trkpt><trkpt lat="43.08845995822222" lon="11.652075593048872"><ele>378.0</ele><time>2026-04-19T08:49:22Z</time></trkpt><trkpt lat="43.088345588035345" lon="11.652052527727207"><ele>378.0</ele><time>2026-04-19T08:49:23Z</time></trkpt><trkpt lat="43.088220984922955" lon="11.652053518964498"><ele>378.0</ele><time>2026-04-19T08:49:24Z</time></trkpt><trkpt lat="43.088091902199615" lon="11.652057789377366"><ele>378.0</ele><time>2026-04-19T08:49:25Z</time></trkpt><trkpt lat="43.08796076880704" lon="11.652074653314605"><ele>377.0</ele><time>2026-04-19T08:49:26Z</time></trkpt><trkpt lat="43.08783918058907" lon="11.652107909816614"><ele>376.0</ele><time>2026-04-19T08:49:27Z</time></trkpt><trkpt lat="43.08772656709762" lon="11.652163630687037"><ele>375.0</ele><time>2026-04-19T08:49:28Z</time></trkpt><trkpt lat="43.08762396744675" lon="11.65223510503745"><ele>374.0</ele><time>2026-04-19T08:49:29Z</time></trkpt><trkpt lat="43.08752464893393" lon="11.652299739023036"><ele>372.6</ele><time>2026-04-19T08:49:30Z</time></trkpt><trkpt lat="43.08742360324776" lon="11.652346029447505"><ele>371.2</ele><time>2026-04-19T08:49:31Z</time></trkpt><trkpt lat="43.087314607789004" lon="11.65237371562192"><ele>369.8</ele><time>2026-04-19T08:49:32Z</time></trkpt><trkpt lat="43.08720350506992" lon="11.652381781718216"><ele>368.40000000000003</ele><time>2026-04-19T08:49:33Z</time></trkpt><trkpt lat="43.08709309186707" lon="11.652366268352475"><ele>367.0</ele><time>2026-04-19T08:49:34Z</time></trkpt><trkpt lat="43.08699093895948" lon="11.652330252932693"><ele>367.0</ele><time>2026-04-19T08:49:35Z</time></trkpt><trkpt lat="43.0868963212933" lon="11.652276027477486"><ele>367.0</ele><time>2026-04-19T08:49:36Z</time></trkpt><trkpt lat="43.086801886463284" lon="11.652204541715959"><ele>367.0</ele><time>2026-04-19T08:49:37Z</time></trkpt><trkpt lat="43.08670251322921" lon="11.65212994559458"><ele>367.0</ele><time>2026-04-19T08:49:38Z</time></trkpt><trkpt lat="43.08659648505139" lon="11.652057618042917"><ele>367.0</ele><time>2026-04-19T08:49:39Z</time></trkpt><trkpt lat="43.08648790085264" lon="11.651980061523345"><ele>367.5</ele><time>2026-04-19T08:49:40Z</time></trkpt><trkpt lat="43.08637947706717" lon="11.651900286515112"><ele>368.0</ele><time>2026-04-19T08:49:41Z</time></trkpt><trkpt lat="43.08626774259466" lon="11.651817796335171"><ele>368.5</ele><time>2026-04-19T08:49:42Z</time></trkpt><trkpt lat="43.08615356657521" lon="11.651730334253271"><ele>369.0</ele><time>2026-04-19T08:49:43Z</time></trkpt><trkpt lat="43.086040528448926" lon="11.651640533258066"><ele>369.0</ele><time>2026-04-19T08:49:44Z</time></trkpt><trkpt lat="43.0859279647283" lon="11.651550365303635"><ele>369.0</ele><time>2026-04-19T08:49:45Z</time></trkpt><trkpt lat="43.08581848343374" lon="11.65145817695147"><ele>369.0</ele><time>2026-04-19T08:49:46Z</time></trkpt><trkpt lat="43.08570990773894" lon="11.651360323630213"><ele>369.0</ele><time>2026-04-19T08:49:47Z</time></trkpt><trkpt lat="43.085602542460286" lon="11.651257510366976"><ele>369.0</ele><time>2026-04-19T08:49:48Z</time></trkpt><trkpt lat="43.08549436493326" lon="11.651155754699333"><ele>369.0</ele><time>2026-04-19T08:49:49Z</time></trkpt><trkpt lat="43.085385711236555" lon="11.651055882091802"><ele>369.0</ele><time>2026-04-19T08:49:50Z</time></trkpt><trkpt lat="43.085273908634" lon="11.650955036640026"><ele>369.0</ele><time>2026-04-19T08:49:51Z</time></trkpt><trkpt lat="43.08516586968319" lon="11.650858285085812"><ele>369.0</ele><time>2026-04-19T08:49:52Z</time></trkpt><trkpt lat="43.085063552715866" lon="11.650765250947597"><ele>369.0</ele><time>2026-04-19T08:49:53Z</time></trkpt><trkpt lat="43.08495798457611" lon="11.650667373876153"><ele>369.0</ele><time>2026-04-19T08:49:54Z</time></trkpt><trkpt lat="43.08485101885355" lon="11.6505679067201"><ele>369.0</ele><time>2026-04-19T08:49:55Z</time></trkpt><trkpt lat="43.08474210345568" lon="11.65046535673555"><ele>368.0</ele><time>2026-04-19T08:49:56Z</time></trkpt><trkpt lat="43.08463249610472" lon="11.650357820803709"><ele>367.0</ele><time>2026-04-19T08:49:57Z</time></trkpt><trkpt lat="43.084522303340044" lon="11.65023611153387"><ele>366.0</ele><time>2026-04-19T08:49:58Z</time></trkpt><trkpt lat="43.084416336706646" lon="11.650108633470492"><ele>365.0</ele><time>2026-04-19T08:49:59Z</time></trkpt><trkpt lat="43.08431633191924" lon="11.649973350577909"><ele>365.0</ele><time>2026-04-19T08:50:00Z</time></trkpt><trkpt lat="43.08422048791246" lon="11.649826457273713"><ele>365.0</ele><time>2026-04-19T08:50:01Z</time></trkpt><trkpt lat="43.08412979787423" lon="11.649670951162618"><ele>365.0</ele><time>2026-04-19T08:50:02Z</time></trkpt><trkpt lat="43.084031893543255" lon="11.649509488009071"><ele>365.0</ele><time>2026-04-19T08:50:03Z</time></trkpt><trkpt lat="43.08393276701656" lon="11.649347810821252"><ele>364.6666666666667</ele><time>2026-04-19T08:50:04Z</time></trkpt><trkpt lat="43.08383482681841" lon="11.64918078333657"><ele>364.3333333333333</ele><time>2026-04-19T08:50:05Z</time></trkpt><trkpt lat="43.08373737821466" lon="11.649016232706192"><ele>364.0</ele><time>2026-04-19T08:50:06Z</time></trkpt><trkpt lat="43.08364023666195" lon="11.648848660417816"><ele>364.0</ele><time>2026-04-19T08:50:07Z</time></trkpt><trkpt lat="43.08354535846796" lon="11.648680644238404"><ele>364.0</ele><time>2026-04-19T08:50:08Z</time></trkpt><trkpt lat="43.08344561095936" lon="11.648514275128234"><ele>364.0</ele><time>2026-04-19T08:50:09Z</time></trkpt><trkpt lat="43.08334543171827" lon="11.648349433190877"><ele>363.66666666666663</ele><time>2026-04-19T08:50:10Z</time></trkpt><trkpt lat="43.08324648470586" lon="11.648187449203052"><ele>363.3333333333333</ele><time>2026-04-19T08:50:11Z</time></trkpt><trkpt lat="43.083146786901175" lon="11.648021568649856"><ele>363.0</ele><time>2026-04-19T08:50:12Z</time></trkpt><trkpt lat="43.083055937251096" lon="11.64786652658163"><ele>365.0</ele><time>2026-04-19T08:50:13Z</time></trkpt><trkpt lat="43.08296497055706" lon="11.647706207484001"><ele>367.0</ele><time>2026-04-19T08:50:14Z</time></trkpt><trkpt lat="43.08287677092525" lon="11.647557731781594"><ele>369.0</ele><time>2026-04-19T08:50:15Z</time></trkpt><trkpt lat="43.082792835955075" lon="11.64741094664524"><ele>371.0</ele><time>2026-04-19T08:50:16Z</time></trkpt><trkpt lat="43.082709850776716" lon="11.64726375540675"><ele>371.0</ele><time>2026-04-19T08:50:17Z</time></trkpt><trkpt lat="43.082622916731324" lon="11.64711616229246"><ele>371.0</ele><time>2026-04-19T08:50:18Z</time></trkpt><trkpt lat="43.08253105243277" lon="11.646967976455452"><ele>371.0</ele><time>2026-04-19T08:50:19Z</time></trkpt><trkpt lat="43.08244273702839" lon="11.646820533541357"><ele>371.0</ele><time>2026-04-19T08:50:20Z</time></trkpt><trkpt lat="43.08235556443748" lon="11.64667458602048"><ele>370.75</ele><time>2026-04-19T08:50:21Z</time></trkpt><trkpt lat="43.082267717033695" lon="11.646526976236208"><ele>370.5</ele><time>2026-04-19T08:50:22Z</time></trkpt><trkpt lat="43.0821792515414" lon="11.64637907902292"><ele>370.25</ele><time>2026-04-19T08:50:23Z</time></trkpt><trkpt lat="43.08209248523912" lon="11.64622400068601"><ele>370.0</ele><time>2026-04-19T08:50:24Z</time></trkpt><trkpt lat="43.08200908628063" lon="11.646066102816453"><ele>370.0</ele><time>2026-04-19T08:50:25Z</time></trkpt><trkpt lat="43.0819265728058" lon="11.645899994326866"><ele>370.0</ele><time>2026-04-19T08:50:26Z</time></trkpt><trkpt lat="43.081852739964845" lon="11.645735576111884"><ele>370.0</ele><time>2026-04-19T08:50:27Z</time></trkpt><trkpt lat="43.08178364352362" lon="11.645532259109467"><ele>370.0</ele><time>2026-04-19T08:50:28Z</time></trkpt><trkpt lat="43.081728956359285" lon="11.645332954196284"><ele>370.0</ele><time>2026-04-19T08:50:29Z</time></trkpt><trkpt lat="43.08169111024006" lon="11.6451411539025"><ele>370.0</ele><time>2026-04-19T08:50:30Z</time></trkpt><trkpt lat="43.081666938231464" lon="11.644942322762523"><ele>370.0</ele><time>2026-04-19T08:50:31Z</time></trkpt><trkpt lat="43.08163372197891" lon="11.644747802651503"><ele>370.5</ele><time>2026-04-19T08:50:32Z</time></trkpt><trkpt lat="43.08162328504348" lon="11.644546982026947"><ele>371.0</ele><time>2026-04-19T08:50:33Z</time></trkpt><trkpt lat="43.081632347232926" lon="11.644345999091666"><ele>371.5</ele><time>2026-04-19T08:50:34Z</time></trkpt><trkpt lat="43.08164348029334" lon="11.644146753357278"><ele>372.0</ele><time>2026-04-19T08:50:35Z</time></trkpt><trkpt lat="43.08164938481066" lon="11.643950935077132"><ele>372.0</ele><time>2026-04-19T08:50:36Z</time></trkpt><trkpt lat="43.08165354728886" lon="11.643750844718435"><ele>372.0</ele><time>2026-04-19T08:50:37Z</time></trkpt><trkpt lat="43.08166037729023" lon="11.643544142604936"><ele>372.0</ele><time>2026-04-19T08:50:38Z</time></trkpt><trkpt lat="43.081665311978306" lon="11.643346533956013"><ele>372.0</ele><time>2026-04-19T08:50:39Z</time></trkpt><trkpt lat="43.08167208977246" lon="11.643149883891612"><ele>372.0</ele><time>2026-04-19T08:50:40Z</time></trkpt><trkpt lat="43.08168210597165" lon="11.642952454619298"><ele>372.0</ele><time>2026-04-19T08:50:41Z</time></trkpt><trkpt lat="43.08169052825282" lon="11.642753642711142"><ele>372.0</ele><time>2026-04-19T08:50:42Z</time></trkpt><trkpt lat="43.08169704093039" lon="11.642557428274825"><ele>372.0</ele><time>2026-04-19T08:50:43Z</time></trkpt><trkpt lat="43.08170337279309" lon="11.64236435190934"><ele>371.75</ele><time>2026-04-19T08:50:44Z</time></trkpt><trkpt lat="43.08171002604367" lon="11.64217504265398"><ele>371.5</ele><time>2026-04-19T08:50:45Z</time></trkpt><trkpt lat="43.08171893776884" lon="11.641984715338896"><ele>371.25</ele><time>2026-04-19T08:50:46Z</time></trkpt><trkpt lat="43.0817352887326" lon="11.641796165467456"><ele>371.0</ele><time>2026-04-19T08:50:47Z</time></trkpt><trkpt lat="43.08176720703552" lon="11.641602856497741"><ele>370.75</ele><time>2026-04-19T08:50:48Z</time></trkpt><trkpt lat="43.081823286556954" lon="11.64142264596894"><ele>370.5</ele><time>2026-04-19T08:50:49Z</time></trkpt><trkpt lat="43.081898300725854" lon="11.641251373894809"><ele>370.25</ele><time>2026-04-19T08:50:50Z</time></trkpt><trkpt lat="43.08198593817082" lon="11.641086481968525"><ele>370.0</ele><time>2026-04-19T08:50:51Z</time></trkpt><trkpt lat="43.082087550757" lon="11.640937005537701"><ele>370.0</ele><time>2026-04-19T08:50:52Z</time></trkpt><trkpt lat="43.082189677122265" lon="11.640798954089576"><ele>370.0</ele><time>2026-04-19T08:50:53Z</time></trkpt><trkpt lat="43.08228852988024" lon="11.64066058360031"><ele>370.0</ele><time>2026-04-19T08:50:54Z</time></trkpt><trkpt lat="43.0823819061586" lon="11.640522972887956"><ele>370.0</ele><time>2026-04-19T08:50:55Z</time></trkpt><trkpt lat="43.08247734147333" lon="11.64037660676088"><ele>367.66666666666663</ele><time>2026-04-19T08:50:56Z</time></trkpt><trkpt lat="43.08256882663294" lon="11.640214779458505"><ele>365.3333333333333</ele><time>2026-04-19T08:50:57Z</time></trkpt><trkpt lat="43.082653843208504" lon="11.640034050228087"><ele>363.0</ele><time>2026-04-19T08:50:58Z</time></trkpt><trkpt lat="43.082735708740984" lon="11.63983844552389"><ele>363.0</ele><time>2026-04-19T08:50:59Z</time></trkpt><trkpt lat="43.08281137266086" lon="11.639629251245326"><ele>363.0</ele><time>2026-04-19T08:51:00Z</time></trkpt><trkpt lat="43.08288107568366" lon="11.63942130478789"><ele>363.0</ele><time>2026-04-19T08:51:01Z</time></trkpt><trkpt lat="43.08294659334799" lon="11.639219391615365"><ele>362.3333333333333</ele><time>2026-04-19T08:51:02Z</time></trkpt><trkpt lat="43.083016519339346" lon="11.639019132265046"><ele>361.66666666666663</ele><time>2026-04-19T08:51:03Z</time></trkpt><trkpt lat="43.083080607132295" lon="11.638818735503062"><ele>361.0</ele><time>2026-04-19T08:51:04Z</time></trkpt><trkpt lat="43.083143230024" lon="11.638628326986261"><ele>360.0</ele><time>2026-04-19T08:51:05Z</time></trkpt><trkpt lat="43.08320144938862" lon="11.638443152752496"><ele>359.0</ele><time>2026-04-19T08:51:06Z</time></trkpt><trkpt lat="43.08325506598501" lon="11.638252678365218"><ele>358.0</ele><time>2026-04-19T08:51:07Z</time></trkpt><trkpt lat="43.083306793120016" lon="11.638059157170941"><ele>357.0</ele><time>2026-04-19T08:51:08Z</time></trkpt><trkpt lat="43.083351861376116" lon="11.637858021544934"><ele>355.3333333333333</ele><time>2026-04-19T08:51:09Z</time></trkpt><trkpt lat="43.083384473711206" lon="11.637651310013219"><ele>353.66666666666663</ele><time>2026-04-19T08:51:10Z</time></trkpt><trkpt lat="43.08340468746601" lon="11.637437523987957"><ele>352.0</ele><time>2026-04-19T08:51:11Z</time></trkpt><trkpt lat="43.08341665609561" lon="11.637217582572084"><ele>352.0</ele><time>2026-04-19T08:51:12Z</time></trkpt><trkpt lat="43.083426229678686" lon="11.636993625717137"><ele>352.0</ele><time>2026-04-19T08:51:13Z</time></trkpt><trkpt lat="43.08343283823661" lon="11.636770016834218"><ele>352.0</ele><time>2026-04-19T08:51:14Z</time></trkpt><trkpt lat="43.08343833011402" lon="11.636544008193269"><ele>351.0</ele><time>2026-04-19T08:51:15Z</time></trkpt><trkpt lat="43.083442843673346" lon="11.636322968028129"><ele>350.0</ele><time>2026-04-19T08:51:16Z</time></trkpt><trkpt lat="43.08344786001762" lon="11.636109586381176"><ele>349.0</ele><time>2026-04-19T08:51:17Z</time></trkpt><trkpt lat="43.08345352488647" lon="11.63589547199803"><ele>349.0</ele><time>2026-04-19T08:51:18Z</time></trkpt><trkpt lat="43.083458615167444" lon="11.635682714453397"><ele>349.0</ele><time>2026-04-19T08:51:19Z</time></trkpt><trkpt lat="43.083463946084564" lon="11.635468467745227"><ele>349.0</ele><time>2026-04-19T08:51:20Z</time></trkpt><trkpt lat="43.083470412126495" lon="11.635255226919275"><ele>349.0</ele><time>2026-04-19T08:51:21Z</time></trkpt><trkpt lat="43.08347800849596" lon="11.635043804639965"><ele>349.0</ele><time>2026-04-19T08:51:22Z</time></trkpt><trkpt lat="43.083487947503585" lon="11.634833571751479"><ele>349.0</ele><time>2026-04-19T08:51:23Z</time></trkpt><trkpt lat="43.0835049238351" lon="11.634627253851054"><ele>350.0</ele><time>2026-04-19T08:51:24Z</time></trkpt><trkpt lat="43.08352919532592" lon="11.634422845983096"><ele>351.0</ele><time>2026-04-19T08:51:25Z</time></trkpt><trkpt lat="43.0835575156283" lon="11.634223682781046"><ele>352.0</ele><time>2026-04-19T08:51:26Z</time></trkpt><trkpt lat="43.083584602301684" lon="11.634028336362363"><ele>353.0</ele><time>2026-04-19T08:51:27Z</time></trkpt><trkpt lat="43.083609909994614" lon="11.633840008724066"><ele>353.0</ele><time>2026-04-19T08:51:28Z</time></trkpt><trkpt lat="43.083635878591345" lon="11.633650647447366"><ele>353.0</ele><time>2026-04-19T08:51:29Z</time></trkpt><trkpt lat="43.08365896890446" lon="11.633454144490164"><ele>353.0</ele><time>2026-04-19T08:51:30Z</time></trkpt><trkpt lat="43.08368082236571" lon="11.633252465214044"><ele>353.0</ele><time>2026-04-19T08:51:31Z</time></trkpt><trkpt lat="43.0837038767073" lon="11.633045790843402"><ele>354.0</ele><time>2026-04-19T08:51:32Z</time></trkpt><trkpt lat="43.08372192969949" lon="11.632830642911982"><ele>355.0</ele><time>2026-04-19T08:51:33Z</time></trkpt><trkpt lat="43.08373580219918" lon="11.632611399799845"><ele>356.0</ele><time>2026-04-19T08:51:34Z</time></trkpt><trkpt lat="43.08374598670051" lon="11.63239304244571"><ele>356.0</ele><time>2026-04-19T08:51:35Z</time></trkpt><trkpt lat="43.08375537286928" lon="11.632178086816726"><ele>356.0</ele><time>2026-04-19T08:51:36Z</time></trkpt><trkpt lat="43.08376590789237" lon="11.631963770348454"><ele>356.0</ele><time>2026-04-19T08:51:37Z</time></trkpt><trkpt lat="43.08377507917292" lon="11.631751941119278"><ele>353.25</ele><time>2026-04-19T08:51:38Z</time></trkpt><trkpt lat="43.083784164779495" lon="11.631546264348453"><ele>350.5</ele><time>2026-04-19T08:51:39Z</time></trkpt><trkpt lat="43.08379048108315" lon="11.631348363772796"><ele>347.75</ele><time>2026-04-19T08:51:40Z</time></trkpt><trkpt lat="43.08379613449383" lon="11.63115559073816"><ele>345.0</ele><time>2026-04-19T08:51:41Z</time></trkpt><trkpt lat="43.083805695053265" lon="11.630973780652594"><ele>343.5</ele><time>2026-04-19T08:51:42Z</time></trkpt><trkpt lat="43.083813556166774" lon="11.630788576246236"><ele>342.0</ele><time>2026-04-19T08:51:43Z</time></trkpt><trkpt lat="43.0838164021411" lon="11.630606115264584"><ele>340.5</ele><time>2026-04-19T08:51:44Z</time></trkpt><trkpt lat="43.0838126121273" lon="11.63042524961086"><ele>339.0</ele><time>2026-04-19T08:51:45Z</time></trkpt><trkpt lat="43.083793345062546" lon="11.630244056528541"><ele>339.0</ele><time>2026-04-19T08:51:46Z</time></trkpt><trkpt lat="43.08375570534948" lon="11.630066130977282"><ele>339.0</ele><time>2026-04-19T08:51:47Z</time></trkpt><trkpt lat="43.08369455377561" lon="11.629891803283554"><ele>339.0</ele><time>2026-04-19T08:51:48Z</time></trkpt><trkpt lat="43.0836147265765" lon="11.62972900540295"><ele>339.0</ele><time>2026-04-19T08:51:49Z</time></trkpt><trkpt lat="43.08351667084042" lon="11.629589773974061"><ele>339.5</ele><time>2026-04-19T08:51:50Z</time></trkpt><trkpt lat="43.083404130929935" lon="11.629472874585"><ele>340.0</ele><time>2026-04-19T08:51:51Z</time></trkpt><trkpt lat="43.083278551094736" lon="11.629382033175984"><ele>340.5</ele><time>2026-04-19T08:51:52Z</time></trkpt><trkpt lat="43.083140694224255" lon="11.629311155961068"><ele>341.0</ele><time>2026-04-19T08:51:53Z</time></trkpt><trkpt lat="43.082992167459" lon="11.629266136847635"><ele>339.0</ele><time>2026-04-19T08:51:54Z</time></trkpt><trkpt lat="43.08282848808016" lon="11.629245815874471"><ele>337.0</ele><time>2026-04-19T08:51:55Z</time></trkpt><trkpt lat="43.08266189917784" lon="11.629235173989041"><ele>335.0</ele><time>2026-04-19T08:51:56Z</time></trkpt><trkpt lat="43.08249057705292" lon="11.629217911897264"><ele>335.6666666666667</ele><time>2026-04-19T08:51:57Z</time></trkpt><trkpt lat="43.082316559805165" lon="11.629201406131601"><ele>336.3333333333333</ele><time>2026-04-19T08:51:58Z</time></trkpt><trkpt lat="43.082142952236474" lon="11.629162466312513"><ele>337.0</ele><time>2026-04-19T08:51:59Z</time></trkpt><trkpt lat="43.081981177585284" lon="11.62916766930479"><ele>337.0</ele><time>2026-04-19T08:52:00Z</time></trkpt><trkpt lat="43.081822797322744" lon="11.629150163141789"><ele>337.0</ele><time>2026-04-19T08:52:01Z</time></trkpt><trkpt lat="43.081660624967654" lon="11.629133843219094"><ele>337.0</ele><time>2026-04-19T08:52:02Z</time></trkpt><trkpt lat="43.08149832151051" lon="11.62911705665313"><ele>339.0</ele><time>2026-04-19T08:52:03Z</time></trkpt><trkpt lat="43.081338708709545" lon="11.62909065724407"><ele>341.0</ele><time>2026-04-19T08:52:04Z</time></trkpt><trkpt lat="43.081183988738104" lon="11.629044498270664"><ele>343.0</ele><time>2026-04-19T08:52:05Z</time></trkpt><trkpt lat="43.08103971759174" lon="11.628968668496137"><ele>343.0</ele><time>2026-04-19T08:52:06Z</time></trkpt><trkpt lat="43.080910173025224" lon="11.628889117648871"><ele>343.0</ele><time>2026-04-19T08:52:07Z</time></trkpt><trkpt lat="43.08078574486359" lon="11.62881094389451"><ele>343.0</ele><time>2026-04-19T08:52:08Z</time></trkpt><trkpt lat="43.08065429880276" lon="11.628722227807403"><ele>343.0</ele><time>2026-04-19T08:52:09Z</time></trkpt><trkpt lat="43.08052263014282" lon="11.628643249498664"><ele>344.0</ele><time>2026-04-19T08:52:10Z</time></trkpt><trkpt lat="43.08039369636733" lon="11.628584820017913"><ele>345.0</ele><time>2026-04-19T08:52:11Z</time></trkpt><trkpt lat="43.08026434523173" lon="11.628550340891548"><ele>346.0</ele><time>2026-04-19T08:52:12Z</time></trkpt><trkpt lat="43.08011674853609" lon="11.628561129422827"><ele>347.0</ele><time>2026-04-19T08:52:13Z</time></trkpt><trkpt lat="43.07995032120422" lon="11.62860069109718"><ele>345.6666666666667</ele><time>2026-04-19T08:52:14Z</time></trkpt><trkpt lat="43.07975246064077" lon="11.628617036760112"><ele>344.3333333333333</ele><time>2026-04-19T08:52:15Z</time></trkpt><trkpt lat="43.079527285651814" lon="11.628658361367766"><ele>343.0</ele><time>2026-04-19T08:52:16Z</time></trkpt><trkpt lat="43.07929176071032" lon="11.628715691786624"><ele>342.66666666666663</ele><time>2026-04-19T08:52:17Z</time></trkpt><trkpt lat="43.07906398909595" lon="11.62874756746929"><ele>342.3333333333333</ele><time>2026-04-19T08:52:18Z</time></trkpt><trkpt lat="43.07885700890727" lon="11.62876827007575"><ele>342.0</ele><time>2026-04-19T08:52:19Z</time></trkpt><trkpt lat="43.07866069980415" lon="11.628768656215522"><ele>342.0</ele><time>2026-04-19T08:52:20Z</time></trkpt><trkpt lat="43.078474326362596" lon="11.628737556522816"><ele>342.0</ele><time>2026-04-19T08:52:21Z</time></trkpt><trkpt lat="43.07827394549082" lon="11.628676407685756"><ele>342.0</ele><time>2026-04-19T08:52:22Z</time></trkpt><trkpt lat="43.07806313108388" lon="11.628586985535275"><ele>344.0</ele><time>2026-04-19T08:52:23Z</time></trkpt><trkpt lat="43.077835500612686" lon="11.62848288670144"><ele>346.0</ele><time>2026-04-19T08:52:24Z</time></trkpt><trkpt lat="43.077602344988264" lon="11.62837684912549"><ele>345.0</ele><time>2026-04-19T08:52:25Z</time></trkpt><trkpt lat="43.07736286337493" lon="11.628270562071878"><ele>344.0</ele><time>2026-04-19T08:52:26Z</time></trkpt><trkpt lat="43.07712104359915" lon="11.628165875670039"><ele>344.0</ele><time>2026-04-19T08:52:27Z</time></trkpt><trkpt lat="43.07688326492943" lon="11.628044620542623"><ele>344.0</ele><time>2026-04-19T08:52:28Z</time></trkpt><trkpt lat="43.07664825080653" lon="11.627915329646996"><ele>346.5</ele><time>2026-04-19T08:52:29Z</time></trkpt><trkpt lat="43.07640431103378" lon="11.627843353158624"><ele>349.0</ele><time>2026-04-19T08:52:30Z</time></trkpt><trkpt lat="43.07618503831194" lon="11.627752005865672"><ele>349.0</ele><time>2026-04-19T08:52:31Z</time></trkpt><trkpt lat="43.07597631062044" lon="11.627656950331314"><ele>349.0</ele><time>2026-04-19T08:52:32Z</time></trkpt><trkpt lat="43.07577431592099" lon="11.62755830961586"><ele>349.0</ele><time>2026-04-19T08:52:33Z</time></trkpt><trkpt lat="43.0755719609005" lon="11.627467107911826"><ele>351.0</ele><time>2026-04-19T08:52:34Z</time></trkpt><trkpt lat="43.075377012583054" lon="11.627387166664569"><ele>353.0</ele><time>2026-04-19T08:52:35Z</time></trkpt><trkpt lat="43.07519258842917" lon="11.627309525457445"><ele>355.0</ele><time>2026-04-19T08:52:36Z</time></trkpt><trkpt lat="43.07502545044896" lon="11.62724019755734"><ele>354.66666666666663</ele><time>2026-04-19T08:52:37Z</time></trkpt><trkpt lat="43.07486763664186" lon="11.627170440546747"><ele>354.3333333333333</ele><time>2026-04-19T08:52:38Z</time></trkpt><trkpt lat="43.07472445978939" lon="11.627064186349195"><ele>354.0</ele><time>2026-04-19T08:52:39Z</time></trkpt><trkpt lat="43.07459229630343" lon="11.626928022040055"><ele>354.0</ele><time>2026-04-19T08:52:40Z</time></trkpt><trkpt lat="43.07447475036797" lon="11.626750167094055"><ele>354.0</ele><time>2026-04-19T08:52:41Z</time></trkpt><trkpt lat="43.07435184715051" lon="11.626546802757666"><ele>354.0</ele><time>2026-04-19T08:52:42Z</time></trkpt><trkpt lat="43.074238672972115" lon="11.626356363068624"><ele>354.0</ele><time>2026-04-19T08:52:43Z</time></trkpt><trkpt lat="43.07412354350699" lon="11.626197450985485"><ele>354.0</ele><time>2026-04-19T08:52:44Z</time></trkpt><trkpt lat="43.07402720231312" lon="11.626019067834749"><ele>354.0</ele><time>2026-04-19T08:52:45Z</time></trkpt><trkpt lat="43.07393388462137" lon="11.62585394023661"><ele>353.75</ele><time>2026-04-19T08:52:46Z</time></trkpt><trkpt lat="43.073840119093646" lon="11.625700122003364"><ele>353.5</ele><time>2026-04-19T08:52:47Z</time></trkpt><trkpt lat="43.07374766401968" lon="11.625543031138639"><ele>353.25</ele><time>2026-04-19T08:52:48Z</time></trkpt><trkpt lat="43.07365924499738" lon="11.625387083256548"><ele>353.0</ele><time>2026-04-19T08:52:49Z</time></trkpt><trkpt lat="43.07357179618615" lon="11.625238193550409"><ele>353.5</ele><time>2026-04-19T08:52:50Z</time></trkpt><trkpt lat="43.07348801973318" lon="11.62509050725206"><ele>354.0</ele><time>2026-04-19T08:52:51Z</time></trkpt><trkpt lat="43.07341209032328" lon="11.624946698554785"><ele>354.5</ele><time>2026-04-19T08:52:52Z</time></trkpt><trkpt lat="43.07333391631286" lon="11.624794016495187"><ele>355.0</ele><time>2026-04-19T08:52:53Z</time></trkpt><trkpt lat="43.073266539706005" lon="11.624624723257993"><ele>356.66666666666663</ele><time>2026-04-19T08:52:54Z</time></trkpt><trkpt lat="43.073216275314536" lon="11.624424848710168"><ele>358.3333333333333</ele><time>2026-04-19T08:52:55Z</time></trkpt><trkpt lat="43.07317216898901" lon="11.624208434715582"><ele>360.0</ele><time>2026-04-19T08:52:56Z</time></trkpt><trkpt lat="43.073135823574056" lon="11.623973656243832"><ele>360.0</ele><time>2026-04-19T08:52:57Z</time></trkpt><trkpt lat="43.07311398364756" lon="11.623717999268525"><ele>360.0</ele><time>2026-04-19T08:52:58Z</time></trkpt><trkpt lat="43.07313201604194" lon="11.623447520954588"><ele>360.0</ele><time>2026-04-19T08:52:59Z</time></trkpt><trkpt lat="43.07315730786696" lon="11.62316698067912"><ele>360.0</ele><time>2026-04-19T08:53:00Z</time></trkpt><trkpt lat="43.07320884697366" lon="11.622885301695208"><ele>360.0</ele><time>2026-04-19T08:53:01Z</time></trkpt><trkpt lat="43.07325564135638" lon="11.6226078999434"><ele>360.0</ele><time>2026-04-19T08:53:02Z</time></trkpt><trkpt lat="43.07331876447492" lon="11.62235299827397"><ele>360.6666666666667</ele><time>2026-04-19T08:53:03Z</time></trkpt><trkpt lat="43.073377971145" lon="11.622116227360902"><ele>361.33333333333337</ele><time>2026-04-19T08:53:04Z</time></trkpt><trkpt lat="43.07342481889086" lon="11.621879162228076"><ele>362.0</ele><time>2026-04-19T08:53:05Z</time></trkpt><trkpt lat="43.07346050666726" lon="11.621654090066796"><ele>362.6666666666667</ele><time>2026-04-19T08:53:06Z</time></trkpt><trkpt lat="43.07347270196341" lon="11.62143468720143"><ele>363.3333333333333</ele><time>2026-04-19T08:53:07Z</time></trkpt><trkpt lat="43.073464718277116" lon="11.621208579896752"><ele>364.0</ele><time>2026-04-19T08:53:08Z</time></trkpt><trkpt lat="43.073440609233245" lon="11.62096928570475"><ele>365.0</ele><time>2026-04-19T08:53:08.999Z</time></trkpt><trkpt lat="43.073397260119954" lon="11.620732853591628"><ele>366.0</ele><time>2026-04-19T08:53:09.999Z</time></trkpt><trkpt lat="43.07333505165927" lon="11.62050799920493"><ele>367.0</ele><time>2026-04-19T08:53:10.999Z</time></trkpt><trkpt lat="43.07325059072296" lon="11.620302559224"><ele>367.66666666666663</ele><time>2026-04-19T08:53:11.999Z</time></trkpt><trkpt lat="43.07314535495548" lon="11.620105199844199"><ele>368.3333333333333</ele><time>2026-04-19T08:53:12.999Z</time></trkpt><trkpt lat="43.073026058743594" lon="11.619919299168815"><ele>369.0</ele><time>2026-04-19T08:53:13.999Z</time></trkpt><trkpt lat="43.072893077492616" lon="11.619756977941528"><ele>369.0</ele><time>2026-04-19T08:53:14.999Z</time></trkpt><trkpt lat="43.07274279718211" lon="11.619613691491073"><ele>369.0</ele><time>2026-04-19T08:53:15.999Z</time></trkpt><trkpt lat="43.07257825434068" lon="11.619491569733416"><ele>369.0</ele><time>2026-04-19T08:53:16.999Z</time></trkpt><trkpt lat="43.07240265126357" lon="11.619383299460257"><ele>368.0</ele><time>2026-04-19T08:53:17.999Z</time></trkpt><trkpt lat="43.07222939104782" lon="11.619273830729885"><ele>367.0</ele><time>2026-04-19T08:53:18.999Z</time></trkpt><trkpt lat="43.07205370446682" lon="11.619159916598184"><ele>366.0</ele><time>2026-04-19T08:53:19.999Z</time></trkpt><trkpt lat="43.0718753902444" lon="11.619046762202213"><ele>366.0</ele><time>2026-04-19T08:53:20.999Z</time></trkpt><trkpt lat="43.071694085256254" lon="11.618931651295263"><ele>366.0</ele><time>2026-04-19T08:53:21.999Z</time></trkpt><trkpt lat="43.07150790272153" lon="11.618810409616737"><ele>366.0</ele><time>2026-04-19T08:53:22.999Z</time></trkpt><trkpt lat="43.071313559169546" lon="11.618681075115692"><ele>367.6666666666667</ele><time>2026-04-19T08:53:23.999Z</time></trkpt><trkpt lat="43.07111174291411" lon="11.618548366645392"><ele>369.33333333333337</ele><time>2026-04-19T08:53:24.999Z</time></trkpt><trkpt lat="43.070919208397335" lon="11.618423012157033"><ele>371.0</ele><time>2026-04-19T08:53:25.999Z</time></trkpt><trkpt lat="43.07072865227538" lon="11.61829103238118"><ele>373.33333333333337</ele><time>2026-04-19T08:53:26.999Z</time></trkpt><trkpt lat="43.07054798454159" lon="11.618140217144173"><ele>375.6666666666667</ele><time>2026-04-19T08:53:27.999Z</time></trkpt><trkpt lat="43.070383344477904" lon="11.617955473771636"><ele>378.0</ele><time>2026-04-19T08:53:28.999Z</time></trkpt><trkpt lat="43.07024800900868" lon="11.617742910093254"><ele>378.3333333333333</ele><time>2026-04-19T08:53:29.999Z</time></trkpt><trkpt lat="43.07015111763033" lon="11.617493665327173"><ele>378.66666666666663</ele><time>2026-04-19T08:53:30.999Z</time></trkpt><trkpt lat="43.07004796466264" lon="11.6172461996368"><ele>379.0</ele><time>2026-04-19T08:53:31.999Z</time></trkpt><trkpt lat="43.069980323874816" lon="11.61698912695605"><ele>379.3333333333333</ele><time>2026-04-19T08:53:32.999Z</time></trkpt><trkpt lat="43.06991533179497" lon="11.616759129051959"><ele>379.6666666666667</ele><time>2026-04-19T08:53:33.999Z</time></trkpt><trkpt lat="43.06985066517476" lon="11.616543739099926"><ele>380.0</ele><time>2026-04-19T08:53:34.999Z</time></trkpt><trkpt lat="43.06978288454077" lon="11.61633613084488"><ele>381.33333333333337</ele><time>2026-04-19T08:53:35.999Z</time></trkpt><trkpt lat="43.06970345246702" lon="11.616140820527722"><ele>382.6666666666667</ele><time>2026-04-19T08:53:36.999Z</time></trkpt><trkpt lat="43.06960395009678" lon="11.615941552588547"><ele>384.0</ele><time>2026-04-19T08:53:37.999Z</time></trkpt><trkpt lat="43.06948621461285" lon="11.615744407849835"><ele>384.0</ele><time>2026-04-19T08:53:38.999Z</time></trkpt><trkpt lat="43.069350295021714" lon="11.615587550281404"><ele>384.0</ele><time>2026-04-19T08:53:39.999Z</time></trkpt><trkpt lat="43.06920721109665" lon="11.615458374471533"><ele>384.0</ele><time>2026-04-19T08:53:40.999Z</time></trkpt><trkpt lat="43.069048573363716" lon="11.615353385444642"><ele>387.0</ele><time>2026-04-19T08:53:41.999Z</time></trkpt><trkpt lat="43.068885133187955" lon="11.615275295651863"><ele>390.0</ele><time>2026-04-19T08:53:42.999Z</time></trkpt><trkpt lat="43.06872214899741" lon="11.615213134696694"><ele>393.0</ele><time>2026-04-19T08:53:43.999Z</time></trkpt><trkpt lat="43.068566898103796" lon="11.615159666769262"><ele>393.0</ele><time>2026-04-19T08:53:44.999Z</time></trkpt><trkpt lat="43.068421166892136" lon="11.615111315954906"><ele>393.0</ele><time>2026-04-19T08:53:45.999Z</time></trkpt><trkpt lat="43.06826761980097" lon="11.61505480353588"><ele>393.0</ele><time>2026-04-19T08:53:46.999Z</time></trkpt><trkpt lat="43.06809511480497" lon="11.614982612177732"><ele>394.0</ele><time>2026-04-19T08:53:47.999Z</time></trkpt><trkpt lat="43.067917603585244" lon="11.614909510466033"><ele>395.0</ele><time>2026-04-19T08:53:48.999Z</time></trkpt><trkpt lat="43.067723537075175" lon="11.614834740800974"><ele>396.0</ele><time>2026-04-19T08:53:49.999Z</time></trkpt><trkpt lat="43.067522723806576" lon="11.614761676986861"><ele>396.33333333333337</ele><time>2026-04-19T08:53:50.999Z</time></trkpt><trkpt lat="43.06731726983095" lon="11.614687338976152"><ele>396.6666666666667</ele><time>2026-04-19T08:53:51.999Z</time></trkpt><trkpt lat="43.06711731298497" lon="11.614616209375049"><ele>397.0</ele><time>2026-04-19T08:53:52.999Z</time></trkpt><trkpt lat="43.06693562197181" lon="11.614549643749529"><ele>396.33333333333337</ele><time>2026-04-19T08:53:53.999Z</time></trkpt><trkpt lat="43.06675699709942" lon="11.61447650789167"><ele>395.66666666666663</ele><time>2026-04-19T08:53:54.999Z</time></trkpt><trkpt lat="43.06658277344127" lon="11.614386280677419"><ele>395.0</ele><time>2026-04-19T08:53:55.999Z</time></trkpt><trkpt lat="43.06641378796713" lon="11.61427837582957"><ele>396.66666666666663</ele><time>2026-04-19T08:53:56.999Z</time></trkpt><trkpt lat="43.066276512795696" lon="11.614110664480965"><ele>398.33333333333337</ele><time>2026-04-19T08:53:57.999Z</time></trkpt><trkpt lat="43.06614531769951" lon="11.613933586246114"><ele>400.0</ele><time>2026-04-19T08:53:58.999Z</time></trkpt><trkpt lat="43.0660173130827" lon="11.613740988897943"><ele>400.0</ele><time>2026-04-19T08:53:59.999Z</time></trkpt><trkpt lat="43.06592045351118" lon="11.613501508603754"><ele>400.0</ele><time>2026-04-19T08:54:00.999Z</time></trkpt><trkpt lat="43.065836500069516" lon="11.61325959499567"><ele>400.0</ele><time>2026-04-19T08:54:01.999Z</time></trkpt><trkpt lat="43.06575545933989" lon="11.61303540679068"><ele>399.6666666666667</ele><time>2026-04-19T08:54:02.999Z</time></trkpt><trkpt lat="43.06567432460246" lon="11.612831587384333"><ele>399.33333333333337</ele><time>2026-04-19T08:54:03.999Z</time></trkpt><trkpt lat="43.065599776787714" lon="11.612641056112206"><ele>399.0</ele><time>2026-04-19T08:54:04.999Z</time></trkpt><trkpt lat="43.065530093867594" lon="11.612456269022976"><ele>399.0</ele><time>2026-04-19T08:54:05.999Z</time></trkpt><trkpt lat="43.065461756108135" lon="11.61227537516024"><ele>399.0</ele><time>2026-04-19T08:54:06.999Z</time></trkpt><trkpt lat="43.06539253491167" lon="11.612095539013822"><ele>399.0</ele><time>2026-04-19T08:54:07.999Z</time></trkpt><trkpt lat="43.06532760383695" lon="11.611926997591782"><ele>399.0</ele><time>2026-04-19T08:54:08.999Z</time></trkpt><trkpt lat="43.0652658806705" lon="11.61176341189167"><ele>400.0</ele><time>2026-04-19T08:54:09.999Z</time></trkpt><trkpt lat="43.06520086015068" lon="11.61160399760142"><ele>401.0</ele><time>2026-04-19T08:54:10.999Z</time></trkpt><trkpt lat="43.06513384669809" lon="11.61144663451284"><ele>402.0</ele><time>2026-04-19T08:54:11.999Z</time></trkpt><trkpt lat="43.065056055129794" lon="11.611296943052015"><ele>403.0</ele><time>2026-04-19T08:54:12.999Z</time></trkpt><trkpt lat="43.06497451774707" lon="11.611144658313263"><ele>402.25</ele><time>2026-04-19T08:54:13.999Z</time></trkpt><trkpt lat="43.06487983803007" lon="11.611016922010437"><ele>401.5</ele><time>2026-04-19T08:54:14.999Z</time></trkpt><trkpt lat="43.06476743182618" lon="11.610887103245014"><ele>400.75</ele><time>2026-04-19T08:54:15.999Z</time></trkpt><trkpt lat="43.06463312870179" lon="11.610753915011777"><ele>400.0</ele><time>2026-04-19T08:54:16.999Z</time></trkpt><trkpt lat="43.064479693431366" lon="11.610608941739669"><ele>400.0</ele><time>2026-04-19T08:54:17.999Z</time></trkpt><trkpt lat="43.06429718038876" lon="11.610477557652652"><ele>400.0</ele><time>2026-04-19T08:54:18.999Z</time></trkpt><trkpt lat="43.06412171052607" lon="11.610371876739487"><ele>400.0</ele><time>2026-04-19T08:54:19.999Z</time></trkpt><trkpt lat="43.0639678490422" lon="11.610261080884849"><ele>405.0</ele><time>2026-04-19T08:54:20.999Z</time></trkpt><trkpt lat="43.06382575258231" lon="11.610168497720657"><ele>410.0</ele><time>2026-04-19T08:54:21.999Z</time></trkpt><trkpt lat="43.06368921910166" lon="11.610080785933832"><ele>415.0</ele><time>2026-04-19T08:54:22.999Z</time></trkpt><trkpt lat="43.06355692859131" lon="11.6099930607838"><ele>415.0</ele><time>2026-04-19T08:54:23.999Z</time></trkpt><trkpt lat="43.06342268352277" lon="11.60990442506523"><ele>415.0</ele><time>2026-04-19T08:54:24.999Z</time></trkpt><trkpt lat="43.0632874677626" lon="11.609810683135407"><ele>415.0</ele><time>2026-04-19T08:54:25.999Z</time></trkpt><trkpt lat="43.06314699230267" lon="11.609711318370726"><ele>414.6666666666667</ele><time>2026-04-19T08:54:26.999Z</time></trkpt><trkpt lat="43.06300059979255" lon="11.609587432990246"><ele>414.33333333333337</ele><time>2026-04-19T08:54:27.999Z</time></trkpt><trkpt lat="43.06285254207421" lon="11.60943379208904"><ele>414.0</ele><time>2026-04-19T08:54:28.999Z</time></trkpt><trkpt lat="43.062705748747874" lon="11.609257505058943"><ele>414.0</ele><time>2026-04-19T08:54:29.999Z</time></trkpt><trkpt lat="43.06256381117163" lon="11.609073448993152"><ele>414.0</ele><time>2026-04-19T08:54:30.999Z</time></trkpt><trkpt lat="43.06242234964726" lon="11.608883890332338"><ele>414.0</ele><time>2026-04-19T08:54:31.999Z</time></trkpt><trkpt lat="43.0622780514984" lon="11.608690009737762"><ele>411.0</ele><time>2026-04-19T08:54:32.999Z</time></trkpt><trkpt lat="43.062127484278314" lon="11.60849545676451"><ele>408.0</ele><time>2026-04-19T08:54:33.999Z</time></trkpt><trkpt lat="43.06197302724673" lon="11.608300275246044"><ele>405.0</ele><time>2026-04-19T08:54:34.999Z</time></trkpt><trkpt lat="43.06182422040276" lon="11.608099060022079"><ele>405.0</ele><time>2026-04-19T08:54:35.999Z</time></trkpt><trkpt lat="43.061689615030424" lon="11.607891899299881"><ele>405.0</ele><time>2026-04-19T08:54:36.999Z</time></trkpt><trkpt lat="43.06156204954542" lon="11.607688538064027"><ele>405.0</ele><time>2026-04-19T08:54:37.999Z</time></trkpt><trkpt lat="43.06144603803338" lon="11.607490810065336"><ele>404.0</ele><time>2026-04-19T08:54:38.999Z</time></trkpt><trkpt lat="43.06133995669606" lon="11.607310975081765"><ele>403.0</ele><time>2026-04-19T08:54:39.999Z</time></trkpt><trkpt lat="43.06124994714365" lon="11.607148719962268"><ele>402.0</ele><time>2026-04-19T08:54:40.999Z</time></trkpt><trkpt lat="43.061176128939174" lon="11.607002225381668"><ele>401.0</ele><time>2026-04-19T08:54:41.999Z</time></trkpt><trkpt lat="43.06110869642265" lon="11.606855082462639"><ele>401.0</ele><time>2026-04-19T08:54:42.999Z</time></trkpt><trkpt lat="43.06104443134899" lon="11.606700923115568"><ele>401.0</ele><time>2026-04-19T08:54:43.999Z</time></trkpt><trkpt lat="43.060985702784066" lon="11.606549131084256"><ele>401.0</ele><time>2026-04-19T08:54:44.999Z</time></trkpt><trkpt lat="43.06093280429267" lon="11.60643352620662"><ele>401.0</ele><time>2026-04-19T08:54:45.999Z</time></trkpt><trkpt lat="43.06089770040116" lon="11.606350487149061"><ele>401.0</ele><time>2026-04-19T08:54:46.999Z</time></trkpt><trkpt lat="43.0608441602985" lon="11.606234164667175"><ele>401.4</ele><time>2026-04-19T08:54:48.999Z</time></trkpt><trkpt lat="43.060786494154925" lon="11.60611269126948"><ele>401.8</ele><time>2026-04-19T08:54:50.999Z</time></trkpt><trkpt lat="43.060748323697446" lon="11.605961727638773"><ele>402.2</ele><time>2026-04-19T08:54:52.999Z</time></trkpt><trkpt lat="43.0607632192674" lon="11.605853916648183"><ele>402.59999999999997</ele><time>2026-04-19T08:54:53.999Z</time></trkpt><trkpt lat="43.060807384436124" lon="11.605734210261202"><ele>403.0</ele><time>2026-04-19T08:54:54.999Z</time></trkpt><trkpt lat="43.06086463234838" lon="11.605620351576299"><ele>403.0</ele><time>2026-04-19T08:54:55.999Z</time></trkpt><trkpt lat="43.06091483550256" lon="11.60551395645112"><ele>403.0</ele><time>2026-04-19T08:54:56.998Z</time></trkpt><trkpt lat="43.06095199302679" lon="11.60539504335602"><ele>403.0</ele><time>2026-04-19T08:54:57.998Z</time></trkpt><trkpt lat="43.06098111317855" lon="11.605249885643014"><ele>403.0</ele><time>2026-04-19T08:54:58.998Z</time></trkpt><trkpt lat="43.06099537272907" lon="11.605097846422632"><ele>403.0</ele><time>2026-04-19T08:54:59.999Z</time></trkpt><trkpt lat="43.06098969530051" lon="11.604938208892392"><ele>404.5</ele><time>2026-04-19T08:55:00.999Z</time></trkpt><trkpt lat="43.060976618598986" lon="11.604777134605651"><ele>406.0</ele><time>2026-04-19T08:55:01.999Z</time></trkpt><trkpt lat="43.06096550985886" lon="11.604624176740852"><ele>407.5</ele><time>2026-04-19T08:55:02.999Z</time></trkpt><trkpt lat="43.06095984511842" lon="11.604469841688969"><ele>409.0</ele><time>2026-04-19T08:55:03.999Z</time></trkpt><trkpt lat="43.060953694922006" lon="11.604319599371863"><ele>409.0</ele><time>2026-04-19T08:55:04.999Z</time></trkpt><trkpt lat="43.060951689190325" lon="11.604171303621834"><ele>409.0</ele><time>2026-04-19T08:55:05.999Z</time></trkpt><trkpt lat="43.060953526102956" lon="11.604019752975802"><ele>409.0</ele><time>2026-04-19T08:55:06.999Z</time></trkpt><trkpt lat="43.06095729089789" lon="11.60386532299793"><ele>409.0</ele><time>2026-04-19T08:55:07.999Z</time></trkpt><trkpt lat="43.060961556539034" lon="11.60370861513275"><ele>409.0</ele><time>2026-04-19T08:55:08.999Z</time></trkpt><trkpt lat="43.06096337923999" lon="11.603543056750382"><ele>408.75</ele><time>2026-04-19T08:55:09.999Z</time></trkpt><trkpt lat="43.06096267388361" lon="11.603380406205943"><ele>408.5</ele><time>2026-04-19T08:55:10.999Z</time></trkpt><trkpt lat="43.06095988036379" lon="11.603223485885538"><ele>408.25</ele><time>2026-04-19T08:55:11.999Z</time></trkpt><trkpt lat="43.06095152411155" lon="11.603065431663978"><ele>408.0</ele><time>2026-04-19T08:55:12.999Z</time></trkpt><trkpt lat="43.060937371621016" lon="11.602911012671985"><ele>406.59999999999997</ele><time>2026-04-19T08:55:13.999Z</time></trkpt><trkpt lat="43.060919971648524" lon="11.602760280026397"><ele>405.2</ele><time>2026-04-19T08:55:14.999Z</time></trkpt><trkpt lat="43.060901325361066" lon="11.602607567945924"><ele>403.8</ele><time>2026-04-19T08:55:15.999Z</time></trkpt><trkpt lat="43.06088163990019" lon="11.602460429099962"><ele>402.4</ele><time>2026-04-19T08:55:16.999Z</time></trkpt><trkpt lat="43.060859385404584" lon="11.60232135558106"><ele>401.0</ele><time>2026-04-19T08:55:17.999Z</time></trkpt><trkpt lat="43.060830537407426" lon="11.60219626139175"><ele>400.99999999999994</ele><time>2026-04-19T08:55:18.999Z</time></trkpt><trkpt lat="43.060790880661514" lon="11.60208185268105"><ele>401.0</ele><time>2026-04-19T08:55:20Z</time></trkpt><trkpt lat="43.060741132647664" lon="11.60198348033576"><ele>401.0</ele><time>2026-04-19T08:55:21Z</time></trkpt><trkpt lat="43.060695103219615" lon="11.601897683874633"><ele>401.0</ele><time>2026-04-19T08:55:22Z</time></trkpt><trkpt lat="43.06066382450328" lon="11.601817709857789"><ele>400.99999999999994</ele><time>2026-04-19T08:55:23Z</time></trkpt><trkpt lat="43.060653760748416" lon="11.601732273444533"><ele>401.0</ele><time>2026-04-19T08:55:24Z</time></trkpt><trkpt lat="43.06070779119699" lon="11.601584005136127"><ele>400.20000000000005</ele><time>2026-04-19T08:55:26Z</time></trkpt><trkpt lat="43.0607780928331" lon="11.60149494540459"><ele>399.40000000000003</ele><time>2026-04-19T08:55:27Z</time></trkpt><trkpt lat="43.060860915769524" lon="11.60140302687343"><ele>398.6</ele><time>2026-04-19T08:55:28Z</time></trkpt><trkpt lat="43.060929078130535" lon="11.601289993332921"><ele>397.8</ele><time>2026-04-19T08:55:29Z</time></trkpt><trkpt lat="43.06098011022693" lon="11.601165237554463"><ele>397.0</ele><time>2026-04-19T08:55:30Z</time></trkpt><trkpt lat="43.06102186714481" lon="11.601052269759167"><ele>394.83333333333337</ele><time>2026-04-19T08:55:31Z</time></trkpt><trkpt lat="43.06106537956264" lon="11.600938735285911"><ele>392.6666666666667</ele><time>2026-04-19T08:55:32Z</time></trkpt><trkpt lat="43.06110676776056" lon="11.600835290141376"><ele>390.5</ele><time>2026-04-19T08:55:33Z</time></trkpt><trkpt lat="43.06114701096681" lon="11.600731097206031"><ele>388.33333333333337</ele><time>2026-04-19T08:55:34Z</time></trkpt><trkpt lat="43.061184839096114" lon="11.600629979296313"><ele>386.1666666666667</ele><time>2026-04-19T08:55:35Z</time></trkpt><trkpt lat="43.06121945855885" lon="11.60053714610996"><ele>384.0</ele><time>2026-04-19T08:55:36Z</time></trkpt><trkpt lat="43.061251251900345" lon="11.600460026387026"><ele>384.0</ele><time>2026-04-19T08:55:37Z</time></trkpt><trkpt lat="43.06131037797808" lon="11.600369585293304"><ele>384.0</ele><time>2026-04-19T08:55:39Z</time></trkpt><trkpt lat="43.06145724473002" lon="11.60033946138582"><ele>384.0</ele><time>2026-04-19T08:55:42Z</time></trkpt><trkpt lat="43.061499368595705" lon="11.600501801106272"><ele>384.0</ele><time>2026-04-19T08:55:44Z</time></trkpt><trkpt lat="43.06150339675623" lon="11.600606293956705"><ele>384.0</ele><time>2026-04-19T08:55:45Z</time></trkpt><trkpt lat="43.06149493055249" lon="11.60072208270203"><ele>384.0</ele><time>2026-04-19T08:55:46Z</time></trkpt><trkpt lat="43.061495880526515" lon="11.600856485235395"><ele>384.0</ele><time>2026-04-19T08:55:47Z</time></trkpt><trkpt lat="43.061500988873284" lon="11.600986979782475"><ele>384.0</ele><time>2026-04-19T08:55:48Z</time></trkpt><trkpt lat="43.06149971824662" lon="11.60109527165688"><ele>384.0</ele><time>2026-04-19T08:55:49Z</time></trkpt><trkpt lat="43.06150162169124" lon="11.601197944054558"><ele>384.0</ele><time>2026-04-19T08:55:50Z</time></trkpt><trkpt lat="43.061505585937056" lon="11.601306690077527"><ele>384.0</ele><time>2026-04-19T08:55:51Z</time></trkpt><trkpt lat="43.061515810991985" lon="11.601425737912203"><ele>385.2</ele><time>2026-04-19T08:55:52Z</time></trkpt><trkpt lat="43.061550091900315" lon="11.601536254809568"><ele>386.4</ele><time>2026-04-19T08:55:53Z</time></trkpt><trkpt lat="43.0616204811072" lon="11.601634487660462"><ele>387.6</ele><time>2026-04-19T08:55:54Z</time></trkpt><trkpt lat="43.06169887009729" lon="11.601709156480013"><ele>388.8</ele><time>2026-04-19T08:55:55Z</time></trkpt><trkpt lat="43.06176693463949" lon="11.601778607948956"><ele>390.0</ele><time>2026-04-19T08:55:56Z</time></trkpt><trkpt lat="43.06182011651978" lon="11.601865398855459"><ele>390.0</ele><time>2026-04-19T08:55:57Z</time></trkpt><trkpt lat="43.061839704661324" lon="11.601966883879172"><ele>390.0</ele><time>2026-04-19T08:55:58Z</time></trkpt><trkpt lat="43.06183514646516" lon="11.602062917396292"><ele>390.0</ele><time>2026-04-19T08:55:59Z</time></trkpt><trkpt lat="43.06176819468747" lon="11.602192481120426"><ele>390.0</ele><time>2026-04-19T08:56:01Z</time></trkpt><trkpt lat="43.0617140214982" lon="11.602239808762617"><ele>390.0</ele><time>2026-04-19T08:56:02Z</time></trkpt><trkpt lat="43.061641371729884" lon="11.602254914266881"><ele>390.0</ele><time>2026-04-19T08:56:03Z</time></trkpt><trkpt lat="43.06157180660786" lon="11.602239246092314"><ele>390.5</ele><time>2026-04-19T08:56:04Z</time></trkpt><trkpt lat="43.06151013245076" lon="11.602192609230622"><ele>391.0</ele><time>2026-04-19T08:56:05Z</time></trkpt><trkpt lat="43.0614650007006" lon="11.602114903605596"><ele>391.5</ele><time>2026-04-19T08:56:06Z</time></trkpt><trkpt lat="43.06142496791836" lon="11.601996295030716"><ele>392.0</ele><time>2026-04-19T08:56:07Z</time></trkpt><trkpt lat="43.06138815905809" lon="11.601869743635847"><ele>392.5</ele><time>2026-04-19T08:56:08Z</time></trkpt><trkpt lat="43.06131028139512" lon="11.6017738867637"><ele>393.0</ele><time>2026-04-19T08:56:09Z</time></trkpt><trkpt lat="43.06129163594857" lon="11.60157933248979"><ele>393.0</ele><time>2026-04-19T08:56:10Z</time></trkpt><trkpt lat="43.06122128157901" lon="11.601421334018207"><ele>393.0</ele><time>2026-04-19T08:56:11Z</time></trkpt><trkpt lat="43.06114106978771" lon="11.601268785817513"><ele>393.0</ele><time>2026-04-19T08:56:12Z</time></trkpt><trkpt lat="43.0610812561736" lon="11.60111197331354"><ele>393.0</ele><time>2026-04-19T08:56:13Z</time></trkpt><trkpt lat="43.06101077687861" lon="11.600967027619726"><ele>391.25</ele><time>2026-04-19T08:56:14Z</time></trkpt><trkpt lat="43.06093600089081" lon="11.600824602320964"><ele>389.5</ele><time>2026-04-19T08:56:15Z</time></trkpt><trkpt lat="43.060857433775894" lon="11.600660664766782"><ele>387.75</ele><time>2026-04-19T08:56:16Z</time></trkpt><trkpt lat="43.060774352918095" lon="11.600491652332728"><ele>386.0</ele><time>2026-04-19T08:56:17Z</time></trkpt><trkpt lat="43.06069496428907" lon="11.60032487053206"><ele>383.0</ele><time>2026-04-19T08:56:18Z</time></trkpt><trkpt lat="43.06061494843789" lon="11.600149682495594"><ele>380.0</ele><time>2026-04-19T08:56:19Z</time></trkpt><trkpt lat="43.0605384773557" lon="11.59997960518022"><ele>377.0</ele><time>2026-04-19T08:56:20Z</time></trkpt><trkpt lat="43.06045341836052" lon="11.59979748328756"><ele>377.0</ele><time>2026-04-19T08:56:21Z</time></trkpt><trkpt lat="43.060382221089164" lon="11.599613502790275"><ele>377.0</ele><time>2026-04-19T08:56:22Z</time></trkpt><trkpt lat="43.06030447758567" lon="11.599424072400861"><ele>377.0</ele><time>2026-04-19T08:56:23Z</time></trkpt><trkpt lat="43.06023199907307" lon="11.59923679090899"><ele>373.6666666666667</ele><time>2026-04-19T08:56:24Z</time></trkpt><trkpt lat="43.060168950234605" lon="11.599038500692311"><ele>370.3333333333333</ele><time>2026-04-19T08:56:25Z</time></trkpt><trkpt lat="43.060108818469956" lon="11.598840375404052"><ele>367.0</ele><time>2026-04-19T08:56:26Z</time></trkpt><trkpt lat="43.06006201439795" lon="11.598647726481897"><ele>365.75</ele><time>2026-04-19T08:56:27Z</time></trkpt><trkpt lat="43.06001872795478" lon="11.598462197945594"><ele>364.5</ele><time>2026-04-19T08:56:28Z</time></trkpt><trkpt lat="43.059981129594114" lon="11.598283662376662"><ele>363.25</ele><time>2026-04-19T08:56:29Z</time></trkpt><trkpt lat="43.059945321207714" lon="11.598094931106123"><ele>362.0</ele><time>2026-04-19T08:56:30Z</time></trkpt><trkpt lat="43.05991354809272" lon="11.59789264616521"><ele>368.33333333333337</ele><time>2026-04-19T08:56:31Z</time></trkpt><trkpt lat="43.05988542239846" lon="11.597675475492572"><ele>374.6666666666667</ele><time>2026-04-19T08:56:32Z</time></trkpt><trkpt lat="43.059858510980526" lon="11.597456794165293"><ele>381.0</ele><time>2026-04-19T08:56:33Z</time></trkpt><trkpt lat="43.05984133406441" lon="11.597223235629224"><ele>381.6666666666667</ele><time>2026-04-19T08:56:34Z</time></trkpt><trkpt lat="43.059834593470256" lon="11.596985282609513"><ele>382.33333333333337</ele><time>2026-04-19T08:56:35Z</time></trkpt><trkpt lat="43.0598266389049" lon="11.596750442914809"><ele>383.0</ele><time>2026-04-19T08:56:36Z</time></trkpt><trkpt lat="43.059821088304574" lon="11.596511998786577"><ele>383.0</ele><time>2026-04-19T08:56:37Z</time></trkpt><trkpt lat="43.0598175283752" lon="11.596272353134479"><ele>383.0</ele><time>2026-04-19T08:56:38Z</time></trkpt><trkpt lat="43.05981430963205" lon="11.59602847211171"><ele>383.0</ele><time>2026-04-19T08:56:39Z</time></trkpt><trkpt lat="43.059810198381044" lon="11.595796594198973"><ele>382.0</ele><time>2026-04-19T08:56:40Z</time></trkpt><trkpt lat="43.05980900454525" lon="11.595573005230635"><ele>381.0</ele><time>2026-04-19T08:56:41Z</time></trkpt><trkpt lat="43.05981014685019" lon="11.595355827260434"><ele>380.0</ele><time>2026-04-19T08:56:42Z</time></trkpt><trkpt lat="43.05981237344699" lon="11.595128918985454"><ele>379.0</ele><time>2026-04-19T08:56:43Z</time></trkpt><trkpt lat="43.05982134071479" lon="11.594900733963065"><ele>378.0</ele><time>2026-04-19T08:56:44Z</time></trkpt><trkpt lat="43.059831236545314" lon="11.594669013756445"><ele>377.0</ele><time>2026-04-19T08:56:45Z</time></trkpt><trkpt lat="43.05984855323875" lon="11.594428145422276"><ele>374.33333333333337</ele><time>2026-04-19T08:56:46Z</time></trkpt><trkpt lat="43.05987883468808" lon="11.594191605905635"><ele>371.6666666666667</ele><time>2026-04-19T08:56:47Z</time></trkpt><trkpt lat="43.05991089335778" lon="11.59396475310917"><ele>369.0</ele><time>2026-04-19T08:56:48Z</time></trkpt><trkpt lat="43.05994267870503" lon="11.593745808784478"><ele>363.6666666666667</ele><time>2026-04-19T08:56:49Z</time></trkpt><trkpt lat="43.05998507910312" lon="11.59353413534197"><ele>358.33333333333337</ele><time>2026-04-19T08:56:50Z</time></trkpt><trkpt lat="43.06003612706671" lon="11.593322444565539"><ele>353.0</ele><time>2026-04-19T08:56:51Z</time></trkpt><trkpt lat="43.06009087950792" lon="11.593112159754398"><ele>353.0</ele><time>2026-04-19T08:56:52Z</time></trkpt><trkpt lat="43.06015171815326" lon="11.592900589905783"><ele>353.0</ele><time>2026-04-19T08:56:53Z</time></trkpt><trkpt lat="43.06022949923922" lon="11.592663398365877"><ele>353.0</ele><time>2026-04-19T08:56:54Z</time></trkpt><trkpt lat="43.06031370817427" lon="11.592439003613771"><ele>350.6666666666667</ele><time>2026-04-19T08:56:55Z</time></trkpt><trkpt lat="43.060397528495834" lon="11.592215215101486"><ele>348.3333333333333</ele><time>2026-04-19T08:56:56Z</time></trkpt><trkpt lat="43.06048943126426" lon="11.592009198134026"><ele>346.0</ele><time>2026-04-19T08:56:57Z</time></trkpt><trkpt lat="43.060584282876185" lon="11.59181322707069"><ele>345.0</ele><time>2026-04-19T08:56:58Z</time></trkpt><trkpt lat="43.060682856918206" lon="11.591620528903888"><ele>344.0</ele><time>2026-04-19T08:56:59.001Z</time></trkpt><trkpt lat="43.06078437761463" lon="11.591424833979325"><ele>343.0</ele><time>2026-04-19T08:57:00.001Z</time></trkpt><trkpt lat="43.06088522998633" lon="11.591233163252188"><ele>344.0</ele><time>2026-04-19T08:57:01.001Z</time></trkpt><trkpt lat="43.0609857303771" lon="11.591047229299908"><ele>345.0</ele><time>2026-04-19T08:57:02.001Z</time></trkpt><trkpt lat="43.06108650759822" lon="11.590859072887952"><ele>346.0</ele><time>2026-04-19T08:57:03Z</time></trkpt><trkpt lat="43.06119106151688" lon="11.59065675173311"><ele>346.0</ele><time>2026-04-19T08:57:04Z</time></trkpt><trkpt lat="43.061300155878435" lon="11.590446941542888"><ele>346.0</ele><time>2026-04-19T08:57:05Z</time></trkpt><trkpt lat="43.06141200025531" lon="11.590231153760257"><ele>346.0</ele><time>2026-04-19T08:57:06Z</time></trkpt><trkpt lat="43.06151502522813" lon="11.590017128528709"><ele>344.66666666666663</ele><time>2026-04-19T08:57:07Z</time></trkpt><trkpt lat="43.06160970140438" lon="11.589811759742965"><ele>343.3333333333333</ele><time>2026-04-19T08:57:08Z</time></trkpt><trkpt lat="43.061699799157445" lon="11.58959657767012"><ele>342.0</ele><time>2026-04-19T08:57:09Z</time></trkpt><trkpt lat="43.06178576433324" lon="11.589366446599117"><ele>342.0</ele><time>2026-04-19T08:57:10Z</time></trkpt><trkpt lat="43.06187029745799" lon="11.589126692947248"><ele>342.0</ele><time>2026-04-19T08:57:11Z</time></trkpt><trkpt lat="43.06195185978847" lon="11.588889754430546"><ele>342.0</ele><time>2026-04-19T08:57:12Z</time></trkpt><trkpt lat="43.06203053788413" lon="11.588655932959584"><ele>341.3333333333333</ele><time>2026-04-19T08:57:13Z</time></trkpt><trkpt lat="43.06210468187093" lon="11.588429277122739"><ele>340.66666666666663</ele><time>2026-04-19T08:57:14Z</time></trkpt><trkpt lat="43.062176462778396" lon="11.588206340758958"><ele>340.0</ele><time>2026-04-19T08:57:15Z</time></trkpt><trkpt lat="43.06224743173622" lon="11.587995639665872"><ele>339.3333333333333</ele><time>2026-04-19T08:57:16Z</time></trkpt><trkpt lat="43.062325612896025" lon="11.587784749817393"><ele>338.6666666666667</ele><time>2026-04-19T08:57:17Z</time></trkpt><trkpt lat="43.06240789610502" lon="11.587574066353822"><ele>338.0</ele><time>2026-04-19T08:57:18Z</time></trkpt><trkpt lat="43.06249832206877" lon="11.587359018954935"><ele>334.33333333333337</ele><time>2026-04-19T08:57:19Z</time></trkpt><trkpt lat="43.062593024821375" lon="11.587142412889508"><ele>330.6666666666667</ele><time>2026-04-19T08:57:20Z</time></trkpt><trkpt lat="43.06269260089671" lon="11.586927834725675"><ele>327.0</ele><time>2026-04-19T08:57:21Z</time></trkpt><trkpt lat="43.062797607846996" lon="11.586728753441049"><ele>327.0</ele><time>2026-04-19T08:57:22Z</time></trkpt><trkpt lat="43.06290997096381" lon="11.586542036837919"><ele>327.0</ele><time>2026-04-19T08:57:23Z</time></trkpt><trkpt lat="43.06303438542993" lon="11.586353963409762"><ele>327.0</ele><time>2026-04-19T08:57:24Z</time></trkpt><trkpt lat="43.06316409232545" lon="11.58617098465546"><ele>324.6666666666667</ele><time>2026-04-19T08:57:25Z</time></trkpt><trkpt lat="43.06329850745157" lon="11.58599325124601"><ele>322.33333333333337</ele><time>2026-04-19T08:57:26Z</time></trkpt><trkpt lat="43.06343495926096" lon="11.585825498775828"><ele>320.0</ele><time>2026-04-19T08:57:27Z</time></trkpt><trkpt lat="43.0635758185656" lon="11.585665629004646"><ele>320.0</ele><time>2026-04-19T08:57:28Z</time></trkpt><trkpt lat="43.0637210217747" lon="11.58552376922773"><ele>320.0</ele><time>2026-04-19T08:57:29Z</time></trkpt><trkpt lat="43.063873474709126" lon="11.585391125422612"><ele>320.0</ele><time>2026-04-19T08:57:30Z</time></trkpt><trkpt lat="43.06403899031598" lon="11.585254631801028"><ele>320.0</ele><time>2026-04-19T08:57:31Z</time></trkpt><trkpt lat="43.06420821149504" lon="11.585123060507152"><ele>320.0</ele><time>2026-04-19T08:57:32Z</time></trkpt><trkpt lat="43.06437987028019" lon="11.585002796356227"><ele>320.0</ele><time>2026-04-19T08:57:33Z</time></trkpt><trkpt lat="43.064552859714404" lon="11.584892356636189"><ele>320.0</ele><time>2026-04-19T08:57:34Z</time></trkpt><trkpt lat="43.06472343952623" lon="11.584796253979427"><ele>320.0</ele><time>2026-04-19T08:57:35Z</time></trkpt><trkpt lat="43.064889491529875" lon="11.584701336397117"><ele>320.0</ele><time>2026-04-19T08:57:36Z</time></trkpt><trkpt lat="43.065058089435134" lon="11.584606464849537"><ele>318.6666666666667</ele><time>2026-04-19T08:57:37Z</time></trkpt><trkpt lat="43.065231481168574" lon="11.584508710430063"><ele>317.3333333333333</ele><time>2026-04-19T08:57:38Z</time></trkpt><trkpt lat="43.065408012245165" lon="11.584404522904592"><ele>316.0</ele><time>2026-04-19T08:57:39Z</time></trkpt><trkpt lat="43.06558831869855" lon="11.58430326830261"><ele>316.0</ele><time>2026-04-19T08:57:40Z</time></trkpt><trkpt lat="43.06577128889512" lon="11.584202050337305"><ele>316.0</ele><time>2026-04-19T08:57:41Z</time></trkpt><trkpt lat="43.06595736831392" lon="11.584094563539974"><ele>316.0</ele><time>2026-04-19T08:57:42Z</time></trkpt><trkpt lat="43.06614192202516" lon="11.583985976498864"><ele>313.66666666666663</ele><time>2026-04-19T08:57:43Z</time></trkpt><trkpt lat="43.06631731577484" lon="11.583883774383763"><ele>311.3333333333333</ele><time>2026-04-19T08:57:44Z</time></trkpt><trkpt lat="43.06649041280371" lon="11.58377807839393"><ele>309.0</ele><time>2026-04-19T08:57:45Z</time></trkpt><trkpt lat="43.06665486857033" lon="11.583673020348245"><ele>309.0</ele><time>2026-04-19T08:57:46Z</time></trkpt><trkpt lat="43.0668222376682" lon="11.583565749376222"><ele>309.0</ele><time>2026-04-19T08:57:47Z</time></trkpt><trkpt lat="43.06698881025467" lon="11.583456491408752"><ele>309.0</ele><time>2026-04-19T08:57:48Z</time></trkpt><trkpt lat="43.067167830904346" lon="11.583340681457882"><ele>309.0</ele><time>2026-04-19T08:57:49Z</time></trkpt><trkpt lat="43.0673372004071" lon="11.583223548582156"><ele>309.0</ele><time>2026-04-19T08:57:50Z</time></trkpt><trkpt lat="43.067509696510754" lon="11.583087462114694"><ele>309.0</ele><time>2026-04-19T08:57:51Z</time></trkpt><trkpt lat="43.06767690774531" lon="11.58295171581392"><ele>308.0</ele><time>2026-04-19T08:57:52Z</time></trkpt><trkpt lat="43.067849066802026" lon="11.58280698900371"><ele>307.0</ele><time>2026-04-19T08:57:53Z</time></trkpt><trkpt lat="43.06800882486971" lon="11.582658967781958"><ele>306.0</ele><time>2026-04-19T08:57:54Z</time></trkpt><trkpt lat="43.068163819123924" lon="11.582505345331915"><ele>301.0</ele><time>2026-04-19T08:57:55Z</time></trkpt><trkpt lat="43.06831301547992" lon="11.58235795731504"><ele>296.0</ele><time>2026-04-19T08:57:56Z</time></trkpt><trkpt lat="43.06845606798354" lon="11.58220605982398"><ele>291.0</ele><time>2026-04-19T08:57:57Z</time></trkpt><trkpt lat="43.0685925539988" lon="11.582046257935998"><ele>293.3333333333333</ele><time>2026-04-19T08:57:58Z</time></trkpt><trkpt lat="43.06872748755453" lon="11.581885605937018"><ele>295.66666666666663</ele><time>2026-04-19T08:57:59Z</time></trkpt><trkpt lat="43.06885783319781" lon="11.581724745553949"><ele>298.0</ele><time>2026-04-19T08:58:00Z</time></trkpt><trkpt lat="43.068975992767285" lon="11.581559638336865"><ele>298.0</ele><time>2026-04-19T08:58:01Z</time></trkpt><trkpt lat="43.069092727465254" lon="11.581384198437478"><ele>298.0</ele><time>2026-04-19T08:58:02Z</time></trkpt><trkpt lat="43.069210273542154" lon="11.581195134094797"><ele>298.0</ele><time>2026-04-19T08:58:03Z</time></trkpt><trkpt lat="43.06932569626805" lon="11.580995291320056"><ele>294.66666666666663</ele><time>2026-04-19T08:58:04Z</time></trkpt><trkpt lat="43.06943549309527" lon="11.58078822716373"><ele>291.3333333333333</ele><time>2026-04-19T08:58:05Z</time></trkpt><trkpt lat="43.06953743346383" lon="11.580569905670384"><ele>288.0</ele><time>2026-04-19T08:58:06Z</time></trkpt><trkpt lat="43.0696325582071" lon="11.580348518248421"><ele>287.0</ele><time>2026-04-19T08:58:07Z</time></trkpt><trkpt lat="43.06972075283709" lon="11.580124062236091"><ele>286.0</ele><time>2026-04-19T08:58:08Z</time></trkpt><trkpt lat="43.06980375944765" lon="11.579892912791586"><ele>285.0</ele><time>2026-04-19T08:58:09Z</time></trkpt><trkpt lat="43.06988189908409" lon="11.579653238239905"><ele>281.3333333333333</ele><time>2026-04-19T08:58:10Z</time></trkpt><trkpt lat="43.06995589900245" lon="11.579408185681254"><ele>277.66666666666663</ele><time>2026-04-19T08:58:11Z</time></trkpt><trkpt lat="43.07002129261302" lon="11.579168383724827"><ele>274.0</ele><time>2026-04-19T08:58:12Z</time></trkpt><trkpt lat="43.07007607666703" lon="11.578926920713847"><ele>274.0</ele><time>2026-04-19T08:58:13Z</time></trkpt><trkpt lat="43.070121263974805" lon="11.578688807588206"><ele>274.0</ele><time>2026-04-19T08:58:14Z</time></trkpt><trkpt lat="43.070162652855075" lon="11.578453138037725"><ele>274.0</ele><time>2026-04-19T08:58:15Z</time></trkpt><trkpt lat="43.07019473154077" lon="11.578220173087288"><ele>271.0</ele><time>2026-04-19T08:58:16Z</time></trkpt><trkpt lat="43.07021752852614" lon="11.577986783966812"><ele>268.0</ele><time>2026-04-19T08:58:17Z</time></trkpt><trkpt lat="43.070234471891204" lon="11.57775195345416"><ele>265.0</ele><time>2026-04-19T08:58:18Z</time></trkpt><trkpt lat="43.07024561058312" lon="11.577500799034132"><ele>262.3333333333333</ele><time>2026-04-19T08:58:19Z</time></trkpt><trkpt lat="43.070250538046785" lon="11.577240411898604"><ele>259.6666666666667</ele><time>2026-04-19T08:58:20Z</time></trkpt><trkpt lat="43.07024658450816" lon="11.576981441239699"><ele>257.0</ele><time>2026-04-19T08:58:21Z</time></trkpt><trkpt lat="43.070233858455204" lon="11.576721708606685"><ele>254.66666666666669</ele><time>2026-04-19T08:58:22Z</time></trkpt><trkpt lat="43.07021128515575" lon="11.576467695671981"><ele>252.33333333333331</ele><time>2026-04-19T08:58:23Z</time></trkpt><trkpt lat="43.0701839906062" lon="11.576220442634767"><ele>250.0</ele><time>2026-04-19T08:58:24Z</time></trkpt><trkpt lat="43.07015152984495" lon="11.575981416208483"><ele>249.33333333333331</ele><time>2026-04-19T08:58:25Z</time></trkpt><trkpt lat="43.07011283446336" lon="11.575744866380031"><ele>248.66666666666669</ele><time>2026-04-19T08:58:26Z</time></trkpt><trkpt lat="43.0700641014448" lon="11.575514474483432"><ele>248.0</ele><time>2026-04-19T08:58:27Z</time></trkpt><trkpt lat="43.07000630052391" lon="11.575276114133082"><ele>247.0</ele><time>2026-04-19T08:58:28Z</time></trkpt><trkpt lat="43.06994357589347" lon="11.575038021636242"><ele>246.0</ele><time>2026-04-19T08:58:29Z</time></trkpt><trkpt lat="43.06987136265731" lon="11.574802524756906"><ele>245.0</ele><time>2026-04-19T08:58:30Z</time></trkpt><trkpt lat="43.06979487158301" lon="11.57457114097399"><ele>244.66666666666669</ele><time>2026-04-19T08:58:31Z</time></trkpt><trkpt lat="43.06971306813706" lon="11.574336429451415"><ele>244.33333333333331</ele><time>2026-04-19T08:58:32Z</time></trkpt><trkpt lat="43.06961793797084" lon="11.574086949824952"><ele>244.0</ele><time>2026-04-19T08:58:33Z</time></trkpt><trkpt lat="43.06951162211816" lon="11.573840129894357"><ele>244.66666666666666</ele><time>2026-04-19T08:58:34Z</time></trkpt><trkpt lat="43.069397732269024" lon="11.573597865401899"><ele>245.33333333333331</ele><time>2026-04-19T08:58:35Z</time></trkpt><trkpt lat="43.06928455675713" lon="11.573360141589108"><ele>246.0</ele><time>2026-04-19T08:58:36Z</time></trkpt><trkpt lat="43.06916558236795" lon="11.573125538451528"><ele>245.66666666666669</ele><time>2026-04-19T08:58:37Z</time></trkpt><trkpt lat="43.0690393175108" lon="11.572898234630127"><ele>245.33333333333334</ele><time>2026-04-19T08:58:38Z</time></trkpt><trkpt lat="43.06890886584645" lon="11.572675655212931"><ele>245.0</ele><time>2026-04-19T08:58:39Z</time></trkpt><trkpt lat="43.06877637515809" lon="11.572453069303101"><ele>245.0</ele><time>2026-04-19T08:58:40Z</time></trkpt><trkpt lat="43.06864690473156" lon="11.572233678042869"><ele>245.0</ele><time>2026-04-19T08:58:41Z</time></trkpt><trkpt lat="43.068512800294805" lon="11.572015904481185"><ele>245.0</ele><time>2026-04-19T08:58:42Z</time></trkpt><trkpt lat="43.068371639565406" lon="11.57180662191752"><ele>244.33333333333334</ele><time>2026-04-19T08:58:43Z</time></trkpt><trkpt lat="43.06822709217641" lon="11.571593625504745"><ele>243.66666666666669</ele><time>2026-04-19T08:58:44Z</time></trkpt><trkpt lat="43.0680717847331" lon="11.571368457643752"><ele>243.0</ele><time>2026-04-19T08:58:45Z</time></trkpt><trkpt lat="43.06790083868354" lon="11.57112208395327"><ele>246.0</ele><time>2026-04-19T08:58:46Z</time></trkpt><trkpt lat="43.06772294375258" lon="11.570869526478509"><ele>249.0</ele><time>2026-04-19T08:58:47Z</time></trkpt><trkpt lat="43.06754869912396" lon="11.570596113817185"><ele>248.5</ele><time>2026-04-19T08:58:48Z</time></trkpt><trkpt lat="43.06736100828408" lon="11.570327169113115"><ele>248.0</ele><time>2026-04-19T08:58:49Z</time></trkpt><trkpt lat="43.06718182530612" lon="11.570070457272484"><ele>248.0</ele><time>2026-04-19T08:58:50Z</time></trkpt><trkpt lat="43.06701036923565" lon="11.569825857235017"><ele>248.0</ele><time>2026-04-19T08:58:51Z</time></trkpt><trkpt lat="43.06684211691692" lon="11.569586066831853"><ele>249.0</ele><time>2026-04-19T08:58:52Z</time></trkpt><trkpt lat="43.066680657278035" lon="11.569379126683996"><ele>250.0</ele><time>2026-04-19T08:58:53Z</time></trkpt><trkpt lat="43.0665363700154" lon="11.569166984661749"><ele>251.0</ele><time>2026-04-19T08:58:54Z</time></trkpt><trkpt lat="43.066397447167574" lon="11.568966752629143"><ele>248.66666666666669</ele><time>2026-04-19T08:58:55Z</time></trkpt><trkpt lat="43.066262585697096" lon="11.568772865794754"><ele>246.33333333333331</ele><time>2026-04-19T08:58:56Z</time></trkpt><trkpt lat="43.0661366332053" lon="11.568587677633408"><ele>244.0</ele><time>2026-04-19T08:58:57Z</time></trkpt><trkpt lat="43.06601334812907" lon="11.568413839102076"><ele>244.0</ele><time>2026-04-19T08:58:58Z</time></trkpt><trkpt lat="43.06589569267184" lon="11.56824747699273"><ele>244.0</ele><time>2026-04-19T08:58:59Z</time></trkpt><trkpt lat="43.06577293844826" lon="11.56807384034037"><ele>244.0</ele><time>2026-04-19T08:59:00Z</time></trkpt><trkpt lat="43.06563869069256" lon="11.567886238182721"><ele>244.33333333333331</ele><time>2026-04-19T08:59:01Z</time></trkpt><trkpt lat="43.06550506117692" lon="11.567695993488142"><ele>244.66666666666669</ele><time>2026-04-19T08:59:02Z</time></trkpt><trkpt lat="43.06537247541474" lon="11.567506406273289"><ele>245.0</ele><time>2026-04-19T08:59:03Z</time></trkpt><trkpt lat="43.06523886424613" lon="11.567306033811665"><ele>245.0</ele><time>2026-04-19T08:59:04Z</time></trkpt><trkpt lat="43.06510806123711" lon="11.567104697822053"><ele>245.0</ele><time>2026-04-19T08:59:05Z</time></trkpt><trkpt lat="43.06497959976305" lon="11.56690285666236"><ele>245.0</ele><time>2026-04-19T08:59:06Z</time></trkpt><trkpt lat="43.06486137688977" lon="11.566707615402798"><ele>245.66666666666669</ele><time>2026-04-19T08:59:07Z</time></trkpt><trkpt lat="43.06475238063048" lon="11.566520178503607"><ele>246.33333333333331</ele><time>2026-04-19T08:59:08Z</time></trkpt><trkpt lat="43.06464652628086" lon="11.566326881539482"><ele>247.0</ele><time>2026-04-19T08:59:09Z</time></trkpt><trkpt lat="43.06454622055235" lon="11.566124258934222"><ele>248.33333333333331</ele><time>2026-04-19T08:59:10Z</time></trkpt><trkpt lat="43.06444817845887" lon="11.565924399441911"><ele>249.66666666666669</ele><time>2026-04-19T08:59:11Z</time></trkpt><trkpt lat="43.06435450059351" lon="11.565717015626804"><ele>251.0</ele><time>2026-04-19T08:59:12Z</time></trkpt><trkpt lat="43.06426730991288" lon="11.565502179607844"><ele>251.66666666666669</ele><time>2026-04-19T08:59:13Z</time></trkpt><trkpt lat="43.06419556505731" lon="11.565301925885226"><ele>252.33333333333331</ele><time>2026-04-19T08:59:14Z</time></trkpt><trkpt lat="43.0641293007894" lon="11.565102028185988"><ele>253.0</ele><time>2026-04-19T08:59:15Z</time></trkpt><trkpt lat="43.064085791491124" lon="11.564888085987517"><ele>250.33333333333331</ele><time>2026-04-19T08:59:16Z</time></trkpt><trkpt lat="43.064021680018456" lon="11.564678772666193"><ele>247.66666666666669</ele><time>2026-04-19T08:59:17Z</time></trkpt><trkpt lat="43.06397348153745" lon="11.56445834462821"><ele>245.0</ele><time>2026-04-19T08:59:18Z</time></trkpt><trkpt lat="43.06392693426041" lon="11.564227527949942"><ele>244.66666666666669</ele><time>2026-04-19T08:59:19Z</time></trkpt><trkpt lat="43.06388196026015" lon="11.563986985227293"><ele>244.33333333333331</ele><time>2026-04-19T08:59:20Z</time></trkpt><trkpt lat="43.06385144894884" lon="11.563766384446842"><ele>244.0</ele><time>2026-04-19T08:59:21Z</time></trkpt><trkpt lat="43.06382603739817" lon="11.563548942436107"><ele>243.66666666666666</ele><time>2026-04-19T08:59:22Z</time></trkpt><trkpt lat="43.063808633460475" lon="11.563326229441362"><ele>243.33333333333331</ele><time>2026-04-19T08:59:23Z</time></trkpt><trkpt lat="43.0637977069108" lon="11.563100664159423"><ele>243.0</ele><time>2026-04-19T08:59:24Z</time></trkpt><trkpt lat="43.06379265475685" lon="11.562885437025832"><ele>244.0</ele><time>2026-04-19T08:59:25Z</time></trkpt><trkpt lat="43.063790174267716" lon="11.562666885031721"><ele>245.0</ele><time>2026-04-19T08:59:26Z</time></trkpt><trkpt lat="43.06379316489323" lon="11.562448148207531"><ele>246.0</ele><time>2026-04-19T08:59:27Z</time></trkpt><trkpt lat="43.063797539622385" lon="11.562223742195131"><ele>248.33333333333331</ele><time>2026-04-19T08:59:28Z</time></trkpt><trkpt lat="43.06380171237614" lon="11.561991638321723"><ele>250.66666666666666</ele><time>2026-04-19T08:59:29Z</time></trkpt><trkpt lat="43.06380963938626" lon="11.56175316258507"><ele>253.0</ele><time>2026-04-19T08:59:30Z</time></trkpt><trkpt lat="43.06382440758482" lon="11.561510327349104"><ele>253.0</ele><time>2026-04-19T08:59:31Z</time></trkpt><trkpt lat="43.06383617318502" lon="11.561269917335478"><ele>253.0</ele><time>2026-04-19T08:59:32Z</time></trkpt><trkpt lat="43.06385537507511" lon="11.561027474043282"><ele>253.0</ele><time>2026-04-19T08:59:33Z</time></trkpt><trkpt lat="43.06387377392798" lon="11.560793899852884"><ele>255.0</ele><time>2026-04-19T08:59:34Z</time></trkpt><trkpt lat="43.06389247125542" lon="11.560560302270448"><ele>257.0</ele><time>2026-04-19T08:59:35Z</time></trkpt><trkpt lat="43.063907968955746" lon="11.560328599681872"><ele>259.0</ele><time>2026-04-19T08:59:36Z</time></trkpt><trkpt lat="43.063924531374575" lon="11.560103158879631"><ele>259.0</ele><time>2026-04-19T08:59:37Z</time></trkpt><trkpt lat="43.06393739821356" lon="11.559876808112689"><ele>259.0</ele><time>2026-04-19T08:59:38Z</time></trkpt><trkpt lat="43.06395049432212" lon="11.559665166524095"><ele>259.0</ele><time>2026-04-19T08:59:39Z</time></trkpt><trkpt lat="43.06396696685157" lon="11.559453881018745"><ele>256.66666666666663</ele><time>2026-04-19T08:59:40Z</time></trkpt><trkpt lat="43.06397968611747" lon="11.559229638813923"><ele>254.33333333333331</ele><time>2026-04-19T08:59:41Z</time></trkpt><trkpt lat="43.06399729747979" lon="11.559006601298789"><ele>252.0</ele><time>2026-04-19T08:59:42Z</time></trkpt><trkpt lat="43.06401334475687" lon="11.558781481161306"><ele>250.66666666666669</ele><time>2026-04-19T08:59:43Z</time></trkpt><trkpt lat="43.064027366832285" lon="11.558545351013205"><ele>249.33333333333334</ele><time>2026-04-19T08:59:44Z</time></trkpt><trkpt lat="43.0640454365826" lon="11.558309058338297"><ele>248.0</ele><time>2026-04-19T08:59:45Z</time></trkpt><trkpt lat="43.06406112482551" lon="11.558077300327936"><ele>246.0</ele><time>2026-04-19T08:59:46Z</time></trkpt><trkpt lat="43.06407825604945" lon="11.557839916558345"><ele>244.0</ele><time>2026-04-19T08:59:47Z</time></trkpt><trkpt lat="43.064089577472664" lon="11.557606043326668"><ele>242.0</ele><time>2026-04-19T08:59:48Z</time></trkpt><trkpt lat="43.06410646604007" lon="11.55737413110774"><ele>242.0</ele><time>2026-04-19T08:59:49Z</time></trkpt><trkpt lat="43.06412595064826" lon="11.557138831581957"><ele>242.0</ele><time>2026-04-19T08:59:50Z</time></trkpt><trkpt lat="43.06414421208603" lon="11.556904317940974"><ele>242.0</ele><time>2026-04-19T08:59:51Z</time></trkpt><trkpt lat="43.06416143097036" lon="11.556665105351852"><ele>243.66666666666669</ele><time>2026-04-19T08:59:52Z</time></trkpt><trkpt lat="43.06418199541793" lon="11.556425611246855"><ele>245.33333333333331</ele><time>2026-04-19T08:59:53Z</time></trkpt><trkpt lat="43.06420282390211" lon="11.55618192302157"><ele>247.0</ele><time>2026-04-19T08:59:54Z</time></trkpt><trkpt lat="43.06423053633094" lon="11.555939855103063"><ele>248.0</ele><time>2026-04-19T08:59:55Z</time></trkpt><trkpt lat="43.064263357688965" lon="11.555699952205083"><ele>249.0</ele><time>2026-04-19T08:59:56Z</time></trkpt><trkpt lat="43.06430526909138" lon="11.555467491312127"><ele>250.0</ele><time>2026-04-19T08:59:57Z</time></trkpt><trkpt lat="43.064353206320895" lon="11.555241341338379"><ele>250.0</ele><time>2026-04-19T08:59:58Z</time></trkpt><trkpt lat="43.06440670362529" lon="11.555018251863787"><ele>250.0</ele><time>2026-04-19T08:59:59Z</time></trkpt><trkpt lat="43.06446375020848" lon="11.55479565089089"><ele>250.0</ele><time>2026-04-19T09:00:00Z</time></trkpt><trkpt lat="43.0645236625379" lon="11.554581474661756"><ele>247.0</ele><time>2026-04-19T09:00:01Z</time></trkpt><trkpt lat="43.06458623264895" lon="11.554368786479767"><ele>244.0</ele><time>2026-04-19T09:00:02Z</time></trkpt><trkpt lat="43.06465001688988" lon="11.554157667196755"><ele>241.0</ele><time>2026-04-19T09:00:03Z</time></trkpt><trkpt lat="43.06471397926416" lon="11.553949410406945"><ele>241.0</ele><time>2026-04-19T09:00:04Z</time></trkpt><trkpt lat="43.06477973220352" lon="11.553742129964949"><ele>241.0</ele><time>2026-04-19T09:00:05Z</time></trkpt><trkpt lat="43.0648439053985" lon="11.55353550883721"><ele>241.0</ele><time>2026-04-19T09:00:06Z</time></trkpt><trkpt lat="43.0649070276923" lon="11.553333134509854"><ele>240.66666666666666</ele><time>2026-04-19T09:00:07Z</time></trkpt><trkpt lat="43.06497071421132" lon="11.553122527464748"><ele>240.33333333333331</ele><time>2026-04-19T09:00:08Z</time></trkpt><trkpt lat="43.06503765729406" lon="11.552912977407328"><ele>240.0</ele><time>2026-04-19T09:00:09Z</time></trkpt><trkpt lat="43.06510918036883" lon="11.552695705715683"><ele>238.33333333333331</ele><time>2026-04-19T09:00:10Z</time></trkpt><trkpt lat="43.06518026051575" lon="11.55247023069424"><ele>236.66666666666666</ele><time>2026-04-19T09:00:11Z</time></trkpt><trkpt lat="43.065252208634064" lon="11.552239261838753"><ele>235.0</ele><time>2026-04-19T09:00:12Z</time></trkpt><trkpt lat="43.06532513718778" lon="11.552005440853785"><ele>234.33333333333331</ele><time>2026-04-19T09:00:13Z</time></trkpt><trkpt lat="43.06539763204263" lon="11.55177221338353"><ele>233.66666666666669</ele><time>2026-04-19T09:00:14Z</time></trkpt><trkpt lat="43.06547096871173" lon="11.551541252891822"><ele>233.0</ele><time>2026-04-19T09:00:15Z</time></trkpt><trkpt lat="43.06554361085687" lon="11.55130877460861"><ele>232.66666666666669</ele><time>2026-04-19T09:00:16Z</time></trkpt><trkpt lat="43.06561794502558" lon="11.551081740063832"><ele>232.33333333333331</ele><time>2026-04-19T09:00:17Z</time></trkpt><trkpt lat="43.06569278836331" lon="11.550865628255576"><ele>232.0</ele><time>2026-04-19T09:00:18Z</time></trkpt><trkpt lat="43.06576521185458" lon="11.55065406635375"><ele>232.66666666666666</ele><time>2026-04-19T09:00:19Z</time></trkpt><trkpt lat="43.06584200154537" lon="11.55043663023586"><ele>233.33333333333331</ele><time>2026-04-19T09:00:20Z</time></trkpt><trkpt lat="43.06592001006562" lon="11.550217627908737"><ele>234.0</ele><time>2026-04-19T09:00:21Z</time></trkpt><trkpt lat="43.06600463597853" lon="11.549999775486365"><ele>235.0</ele><time>2026-04-19T09:00:22Z</time></trkpt><trkpt lat="43.066094322997344" lon="11.549783323523911"><ele>236.0</ele><time>2026-04-19T09:00:23Z</time></trkpt><trkpt lat="43.066187098464994" lon="11.549566245193974"><ele>237.0</ele><time>2026-04-19T09:00:24Z</time></trkpt><trkpt lat="43.066288146937836" lon="11.549358199787658"><ele>237.33333333333331</ele><time>2026-04-19T09:00:25Z</time></trkpt><trkpt lat="43.066395413084805" lon="11.54915810469971"><ele>237.66666666666666</ele><time>2026-04-19T09:00:26Z</time></trkpt><trkpt lat="43.066505976430044" lon="11.548965994726142"><ele>238.0</ele><time>2026-04-19T09:00:27Z</time></trkpt><trkpt lat="43.06662114618803" lon="11.548788537996817"><ele>239.0</ele><time>2026-04-19T09:00:28Z</time></trkpt><trkpt lat="43.066742276326885" lon="11.548615983299785"><ele>240.0</ele><time>2026-04-19T09:00:29Z</time></trkpt><trkpt lat="43.06686674348071" lon="11.548444281095787"><ele>241.0</ele><time>2026-04-19T09:00:30Z</time></trkpt><trkpt lat="43.06699803737439" lon="11.54828152710367"><ele>241.0</ele><time>2026-04-19T09:00:31Z</time></trkpt><trkpt lat="43.06713638229491" lon="11.548125437067755"><ele>241.0</ele><time>2026-04-19T09:00:32Z</time></trkpt><trkpt lat="43.06727891877954" lon="11.547981841245985"><ele>241.0</ele><time>2026-04-19T09:00:33Z</time></trkpt><trkpt lat="43.06742149875243" lon="11.547842107661822"><ele>240.33333333333331</ele><time>2026-04-19T09:00:34Z</time></trkpt><trkpt lat="43.06755538349134" lon="11.547719968755896"><ele>239.66666666666669</ele><time>2026-04-19T09:00:35Z</time></trkpt><trkpt lat="43.06768707066601" lon="11.54761111471764"><ele>239.0</ele><time>2026-04-19T09:00:36Z</time></trkpt><trkpt lat="43.06781740845941" lon="11.547523594944618"><ele>239.0</ele><time>2026-04-19T09:00:37Z</time></trkpt><trkpt lat="43.06795071844766" lon="11.547458586408426"><ele>239.0</ele><time>2026-04-19T09:00:38Z</time></trkpt><trkpt lat="43.068086501987516" lon="11.54739393660092"><ele>239.0</ele><time>2026-04-19T09:00:39Z</time></trkpt><trkpt lat="43.068213309507875" lon="11.547326574048993"><ele>239.0</ele><time>2026-04-19T09:00:40Z</time></trkpt><trkpt lat="43.06833492404373" lon="11.547268298358285"><ele>239.6</ele><time>2026-04-19T09:00:41Z</time></trkpt><trkpt lat="43.06845028963442" lon="11.547228507828404"><ele>240.2</ele><time>2026-04-19T09:00:42Z</time></trkpt><trkpt lat="43.068562137328584" lon="11.547210182170398"><ele>240.79999999999998</ele><time>2026-04-19T09:00:43Z</time></trkpt><trkpt lat="43.06866583943889" lon="11.547224024467264"><ele>241.39999999999998</ele><time>2026-04-19T09:00:44Z</time></trkpt><trkpt lat="43.068754846969924" lon="11.54728374705739"><ele>242.0</ele><time>2026-04-19T09:00:45Z</time></trkpt><trkpt lat="43.06881241421518" lon="11.547382878499846"><ele>242.0</ele><time>2026-04-19T09:00:46Z</time></trkpt><trkpt lat="43.06883778036622" lon="11.54750462922662"><ele>242.0</ele><time>2026-04-19T09:00:47Z</time></trkpt><trkpt lat="43.06883329528829" lon="11.547639605875593"><ele>242.0</ele><time>2026-04-19T09:00:48Z</time></trkpt><trkpt lat="43.06879198662716" lon="11.547765260770797"><ele>242.0</ele><time>2026-04-19T09:00:49Z</time></trkpt><trkpt lat="43.06871367532996" lon="11.54786445235524"><ele>242.0</ele><time>2026-04-19T09:00:50Z</time></trkpt><trkpt lat="43.06859932791319" lon="11.54789928515465"><ele>241.0</ele><time>2026-04-19T09:00:51Z</time></trkpt><trkpt lat="43.06847075275298" lon="11.547945014327611"><ele>240.0</ele><time>2026-04-19T09:00:52Z</time></trkpt><trkpt lat="43.06831535091785" lon="11.547947830481297"><ele>239.0</ele><time>2026-04-19T09:00:53Z</time></trkpt><trkpt lat="43.06814714556771" lon="11.54797330145342"><ele>238.66666666666669</ele><time>2026-04-19T09:00:54Z</time></trkpt><trkpt lat="43.06796320745416" lon="11.548014216165"><ele>238.33333333333331</ele><time>2026-04-19T09:00:55Z</time></trkpt><trkpt lat="43.06777621275019" lon="11.548055961024543"><ele>238.0</ele><time>2026-04-19T09:00:56Z</time></trkpt><trkpt lat="43.0675902993884" lon="11.548096401425"><ele>239.0</ele><time>2026-04-19T09:00:57Z</time></trkpt><trkpt lat="43.06741425366725" lon="11.54813693419259"><ele>240.0</ele><time>2026-04-19T09:00:58Z</time></trkpt><trkpt lat="43.0672444846575" lon="11.548177298404292"><ele>241.0</ele><time>2026-04-19T09:00:59Z</time></trkpt><trkpt lat="43.067088292997425" lon="11.548209453535712"><ele>241.0</ele><time>2026-04-19T09:01:00Z</time></trkpt><trkpt lat="43.066939136253055" lon="11.548216630539422"><ele>241.0</ele><time>2026-04-19T09:01:01Z</time></trkpt><trkpt lat="43.066795060009014" lon="11.548187422561192"><ele>241.0</ele><time>2026-04-19T09:01:02Z</time></trkpt><trkpt lat="43.066670846375054" lon="11.548125637961258"><ele>241.0</ele><time>2026-04-19T09:01:03Z</time></trkpt><trkpt lat="43.066565374838504" lon="11.548041077718674"><ele>240.5</ele><time>2026-04-19T09:01:04Z</time></trkpt><trkpt lat="43.06647912855252" lon="11.547938577330742"><ele>240.0</ele><time>2026-04-19T09:01:05Z</time></trkpt><trkpt lat="43.066398682933546" lon="11.547811166054538"><ele>239.5</ele><time>2026-04-19T09:01:06Z</time></trkpt><trkpt lat="43.0663236241238" lon="11.547652102033114"><ele>239.0</ele><time>2026-04-19T09:01:07Z</time></trkpt><trkpt lat="43.066268037090325" lon="11.547476631231627"><ele>239.0</ele><time>2026-04-19T09:01:08Z</time></trkpt><trkpt lat="43.06623076648526" lon="11.547294797437258"><ele>239.0</ele><time>2026-04-19T09:01:09Z</time></trkpt><trkpt lat="43.066195975658005" lon="11.547088817802598"><ele>239.0</ele><time>2026-04-19T09:01:10Z</time></trkpt><trkpt lat="43.066165398030876" lon="11.546849759625992"><ele>239.33333333333334</ele><time>2026-04-19T09:01:11Z</time></trkpt><trkpt lat="43.066139005546894" lon="11.546584478813674"><ele>239.66666666666669</ele><time>2026-04-19T09:01:12Z</time></trkpt><trkpt lat="43.06611251218336" lon="11.546305058911146"><ele>240.0</ele><time>2026-04-19T09:01:13.001Z</time></trkpt><trkpt lat="43.066081349453064" lon="11.546022524256182"><ele>240.33333333333331</ele><time>2026-04-19T09:01:14.001Z</time></trkpt><trkpt lat="43.066048433626584" lon="11.545732333773664"><ele>240.66666666666666</ele><time>2026-04-19T09:01:15Z</time></trkpt><trkpt lat="43.06601699601988" lon="11.545435595201377"><ele>241.0</ele><time>2026-04-19T09:01:16Z</time></trkpt><trkpt lat="43.06598390065321" lon="11.545141153752422"><ele>241.0</ele><time>2026-04-19T09:01:17Z</time></trkpt><trkpt lat="43.065951829936104" lon="11.544862777325106"><ele>241.0</ele><time>2026-04-19T09:01:18Z</time></trkpt><trkpt lat="43.06592237860057" lon="11.54460331657623"><ele>241.0</ele><time>2026-04-19T09:01:19Z</time></trkpt><trkpt lat="43.065897831189986" lon="11.544357468587785"><ele>240.66666666666666</ele><time>2026-04-19T09:01:20Z</time></trkpt><trkpt lat="43.0658824125531" lon="11.544118893511005"><ele>240.33333333333331</ele><time>2026-04-19T09:01:21Z</time></trkpt><trkpt lat="43.0658860553778" lon="11.543880059715214"><ele>240.0</ele><time>2026-04-19T09:01:22Z</time></trkpt><trkpt lat="43.065921805488294" lon="11.543622195830167"><ele>239.66666666666669</ele><time>2026-04-19T09:01:23Z</time></trkpt><trkpt lat="43.06600049517218" lon="11.543361888535365"><ele>239.33333333333334</ele><time>2026-04-19T09:01:24Z</time></trkpt><trkpt lat="43.066075040543446" lon="11.543085890464495"><ele>239.0</ele><time>2026-04-19T09:01:25Z</time></trkpt><trkpt lat="43.066138879746035" lon="11.542809550932182"><ele>239.0</ele><time>2026-04-19T09:01:26Z</time></trkpt><trkpt lat="43.06621043185615" lon="11.54256180676824"><ele>239.0</ele><time>2026-04-19T09:01:27Z</time></trkpt><trkpt lat="43.06627432516644" lon="11.542329442633493"><ele>239.0</ele><time>2026-04-19T09:01:28Z</time></trkpt><trkpt lat="43.06633462414738" lon="11.542106745254403"><ele>239.0</ele><time>2026-04-19T09:01:29Z</time></trkpt><trkpt lat="43.06639804032812" lon="11.541879126907988"><ele>239.0</ele><time>2026-04-19T09:01:30Z</time></trkpt><trkpt lat="43.066460086000056" lon="11.541643207660949"><ele>239.0</ele><time>2026-04-19T09:01:31Z</time></trkpt><trkpt lat="43.0665244284837" lon="11.541406831271614"><ele>239.33333333333334</ele><time>2026-04-19T09:01:32Z</time></trkpt><trkpt lat="43.06658786685313" lon="11.541173356927873"><ele>239.66666666666669</ele><time>2026-04-19T09:01:33Z</time></trkpt><trkpt lat="43.06665173752981" lon="11.540936023593726"><ele>240.0</ele><time>2026-04-19T09:01:34Z</time></trkpt><trkpt lat="43.06671384369851" lon="11.54070946294167"><ele>240.66666666666669</ele><time>2026-04-19T09:01:35Z</time></trkpt><trkpt lat="43.06677300563013" lon="11.54047803525405"><ele>241.33333333333334</ele><time>2026-04-19T09:01:36Z</time></trkpt><trkpt lat="43.0668281742402" lon="11.540248696806325"><ele>242.0</ele><time>2026-04-19T09:01:37Z</time></trkpt><trkpt lat="43.066869062014135" lon="11.54001812910458"><ele>242.0</ele><time>2026-04-19T09:01:38Z</time></trkpt><trkpt lat="43.066882287577855" lon="11.53978332029311"><ele>242.0</ele><time>2026-04-19T09:01:39Z</time></trkpt><trkpt lat="43.066875600272986" lon="11.5395374465469"><ele>242.0</ele><time>2026-04-19T09:01:40Z</time></trkpt><trkpt lat="43.06683623775735" lon="11.539290994476955"><ele>241.66666666666669</ele><time>2026-04-19T09:01:41Z</time></trkpt><trkpt lat="43.066789201621596" lon="11.539053478833909"><ele>241.33333333333331</ele><time>2026-04-19T09:01:42Z</time></trkpt><trkpt lat="43.066731098144295" lon="11.538825055254947"><ele>241.0</ele><time>2026-04-19T09:01:43Z</time></trkpt><trkpt lat="43.06666070882207" lon="11.538602472487796"><ele>241.66666666666666</ele><time>2026-04-19T09:01:44Z</time></trkpt><trkpt lat="43.06658845597805" lon="11.538380655831867"><ele>242.33333333333331</ele><time>2026-04-19T09:01:45Z</time></trkpt><trkpt lat="43.06652049444851" lon="11.538147037588377"><ele>243.0</ele><time>2026-04-19T09:01:46Z</time></trkpt><trkpt lat="43.066452363326384" lon="11.537908276402854"><ele>243.0</ele><time>2026-04-19T09:01:47Z</time></trkpt><trkpt lat="43.0663845818094" lon="11.537665842284202"><ele>243.0</ele><time>2026-04-19T09:01:48Z</time></trkpt><trkpt lat="43.0663201489996" lon="11.537425328262534"><ele>243.0</ele><time>2026-04-19T09:01:49Z</time></trkpt><trkpt lat="43.06625884180809" lon="11.537205070921548"><ele>243.25</ele><time>2026-04-19T09:01:50Z</time></trkpt><trkpt lat="43.066201090172996" lon="11.537008035064757"><ele>243.5</ele><time>2026-04-19T09:01:51Z</time></trkpt><trkpt lat="43.06614786632496" lon="11.53681776400589"><ele>243.75</ele><time>2026-04-19T09:01:52Z</time></trkpt><trkpt lat="43.06609847975053" lon="11.536636518001506"><ele>244.0</ele><time>2026-04-19T09:01:53Z</time></trkpt><trkpt lat="43.06604991188212" lon="11.53645046606148"><ele>244.0</ele><time>2026-04-19T09:01:54Z</time></trkpt><trkpt lat="43.06599562198918" lon="11.536259080103282"><ele>244.0</ele><time>2026-04-19T09:01:55Z</time></trkpt><trkpt lat="43.06594061154788" lon="11.536071753218962"><ele>244.0</ele><time>2026-04-19T09:01:56Z</time></trkpt><trkpt lat="43.06588784222444" lon="11.535881358251087"><ele>244.0</ele><time>2026-04-19T09:01:57Z</time></trkpt><trkpt lat="43.06583180915676" lon="11.535690684643487"><ele>244.0</ele><time>2026-04-19T09:01:58Z</time></trkpt><trkpt lat="43.06577637674469" lon="11.535503027244204"><ele>244.0</ele><time>2026-04-19T09:01:59Z</time></trkpt><trkpt lat="43.065719886105654" lon="11.535311602416192"><ele>244.0</ele><time>2026-04-19T09:02:00Z</time></trkpt><trkpt lat="43.06566133325081" lon="11.535108086858294"><ele>244.66666666666666</ele><time>2026-04-19T09:02:01Z</time></trkpt><trkpt lat="43.06560607444576" lon="11.534895713032364"><ele>245.33333333333331</ele><time>2026-04-19T09:02:02Z</time></trkpt><trkpt lat="43.06554702035691" lon="11.534687240098044"><ele>246.0</ele><time>2026-04-19T09:02:03Z</time></trkpt><trkpt lat="43.06549768908243" lon="11.534485334777521"><ele>247.33333333333331</ele><time>2026-04-19T09:02:04Z</time></trkpt><trkpt lat="43.06543474358161" lon="11.534282009948672"><ele>248.66666666666666</ele><time>2026-04-19T09:02:05Z</time></trkpt><trkpt lat="43.06537751195662" lon="11.534077448306041"><ele>250.0</ele><time>2026-04-19T09:02:06Z</time></trkpt><trkpt lat="43.06531707231928" lon="11.533870464151411"><ele>251.33333333333331</ele><time>2026-04-19T09:02:07Z</time></trkpt><trkpt lat="43.065255216846744" lon="11.53366066375217"><ele>252.66666666666669</ele><time>2026-04-19T09:02:08Z</time></trkpt><trkpt lat="43.065194057885094" lon="11.53345302908049"><ele>254.0</ele><time>2026-04-19T09:02:09Z</time></trkpt><trkpt lat="43.065136153886066" lon="11.533249721320962"><ele>254.0</ele><time>2026-04-19T09:02:10Z</time></trkpt><trkpt lat="43.065090525271806" lon="11.533044333861907"><ele>254.0</ele><time>2026-04-19T09:02:11Z</time></trkpt><trkpt lat="43.06507544956747" lon="11.532837468606166"><ele>254.0</ele><time>2026-04-19T09:02:12Z</time></trkpt><trkpt lat="43.06510889057618" lon="11.532633354901263"><ele>254.5</ele><time>2026-04-19T09:02:13Z</time></trkpt><trkpt lat="43.06512616017163" lon="11.532428252573364"><ele>255.0</ele><time>2026-04-19T09:02:14Z</time></trkpt><trkpt lat="43.065169831544324" lon="11.5322367388186"><ele>255.5</ele><time>2026-04-19T09:02:15Z</time></trkpt><trkpt lat="43.065201395472606" lon="11.532054707340997"><ele>256.0</ele><time>2026-04-19T09:02:16Z</time></trkpt><trkpt lat="43.065204380976084" lon="11.53186701396813"><ele>257.0</ele><time>2026-04-19T09:02:17Z</time></trkpt><trkpt lat="43.06518055718913" lon="11.53167155301272"><ele>258.0</ele><time>2026-04-19T09:02:18Z</time></trkpt><trkpt lat="43.06512188939026" lon="11.531489690063344"><ele>259.0</ele><time>2026-04-19T09:02:19Z</time></trkpt><trkpt lat="43.065032033097374" lon="11.531326730071585"><ele>260.0</ele><time>2026-04-19T09:02:20Z</time></trkpt><trkpt lat="43.06492072657177" lon="11.531193134346964"><ele>261.0</ele><time>2026-04-19T09:02:21Z</time></trkpt><trkpt lat="43.06479693547202" lon="11.53109375966234"><ele>262.0</ele><time>2026-04-19T09:02:22Z</time></trkpt><trkpt lat="43.06466939447869" lon="11.531015383525455"><ele>263.0</ele><time>2026-04-19T09:02:23Z</time></trkpt><trkpt lat="43.06454982214546" lon="11.530939358052251"><ele>264.0</ele><time>2026-04-19T09:02:24Z</time></trkpt><trkpt lat="43.06443216777104" lon="11.53086009081458"><ele>264.0</ele><time>2026-04-19T09:02:25Z</time></trkpt><trkpt lat="43.06431307436973" lon="11.530765642854478"><ele>264.0</ele><time>2026-04-19T09:02:26Z</time></trkpt><trkpt lat="43.06420722889299" lon="11.53061843181901"><ele>264.0</ele><time>2026-04-19T09:02:27Z</time></trkpt><trkpt lat="43.064110278135466" lon="11.53044223646776"><ele>263.6666666666667</ele><time>2026-04-19T09:02:28Z</time></trkpt><trkpt lat="43.06400345697136" lon="11.530263002559087"><ele>263.33333333333337</ele><time>2026-04-19T09:02:29Z</time></trkpt><trkpt lat="43.06392931809173" lon="11.53007728084732"><ele>263.0</ele><time>2026-04-19T09:02:30Z</time></trkpt><trkpt lat="43.06385768382103" lon="11.529906629822005"><ele>263.0</ele><time>2026-04-19T09:02:31Z</time></trkpt><trkpt lat="43.06377993356672" lon="11.529727868980938"><ele>263.0</ele><time>2026-04-19T09:02:32Z</time></trkpt><trkpt lat="43.06370238703904" lon="11.529532923934456"><ele>263.0</ele><time>2026-04-19T09:02:33Z</time></trkpt><trkpt lat="43.06364236049713" lon="11.529311489753908"><ele>264.6666666666667</ele><time>2026-04-19T09:02:34Z</time></trkpt><trkpt lat="43.06361709598237" lon="11.52907339581063"><ele>266.3333333333333</ele><time>2026-04-19T09:02:35Z</time></trkpt><trkpt lat="43.06360788668163" lon="11.528837933897266"><ele>268.0</ele><time>2026-04-19T09:02:36Z</time></trkpt><trkpt lat="43.0635939102235" lon="11.528615791409592"><ele>269.0</ele><time>2026-04-19T09:02:37Z</time></trkpt><trkpt lat="43.06357084271103" lon="11.52840896787273"><ele>270.0</ele><time>2026-04-19T09:02:38Z</time></trkpt><trkpt lat="43.063535881174026" lon="11.528217459670703"><ele>271.0</ele><time>2026-04-19T09:02:39Z</time></trkpt><trkpt lat="43.06347099689561" lon="11.52802529829962"><ele>271.0</ele><time>2026-04-19T09:02:40Z</time></trkpt><trkpt lat="43.06337728955487" lon="11.527844069065615"><ele>271.0</ele><time>2026-04-19T09:02:41Z</time></trkpt><trkpt lat="43.06327509158108" lon="11.527695877191745"><ele>271.0</ele><time>2026-04-19T09:02:42Z</time></trkpt><trkpt lat="43.06317624753602" lon="11.527551828955387"><ele>271.0</ele><time>2026-04-19T09:02:43Z</time></trkpt><trkpt lat="43.06308217068173" lon="11.527397489101679"><ele>271.0</ele><time>2026-04-19T09:02:44Z</time></trkpt><trkpt lat="43.06299394836213" lon="11.5272499849622"><ele>271.0</ele><time>2026-04-19T09:02:45Z</time></trkpt><trkpt lat="43.06291072966753" lon="11.52711554042538"><ele>271.0</ele><time>2026-04-19T09:02:46Z</time></trkpt><trkpt lat="43.06283226607445" lon="11.526983070578082"><ele>272.75</ele><time>2026-04-19T09:02:47Z</time></trkpt><trkpt lat="43.06275171374362" lon="11.526839006010627"><ele>274.5</ele><time>2026-04-19T09:02:48Z</time></trkpt><trkpt lat="43.06267018896409" lon="11.526690764322172"><ele>276.25</ele><time>2026-04-19T09:02:49Z</time></trkpt><trkpt lat="43.062589753248524" lon="11.526552261027373"><ele>278.0</ele><time>2026-04-19T09:02:50Z</time></trkpt><trkpt lat="43.062513086171045" lon="11.526417496444447"><ele>276.25</ele><time>2026-04-19T09:02:51Z</time></trkpt><trkpt lat="43.06244144604107" lon="11.526273672288381"><ele>274.5</ele><time>2026-04-19T09:02:52Z</time></trkpt><trkpt lat="43.06238188706206" lon="11.52611278769727"><ele>272.75</ele><time>2026-04-19T09:02:53Z</time></trkpt><trkpt lat="43.062346766127405" lon="11.525940638608413"><ele>271.0</ele><time>2026-04-19T09:02:54Z</time></trkpt><trkpt lat="43.062324727973525" lon="11.5257697833518"><ele>271.0</ele><time>2026-04-19T09:02:55Z</time></trkpt><trkpt lat="43.062298223278766" lon="11.525591999758266"><ele>271.0</ele><time>2026-04-19T09:02:56Z</time></trkpt><trkpt lat="43.06226322700064" lon="11.525406630474494"><ele>271.0</ele><time>2026-04-19T09:02:57Z</time></trkpt><trkpt lat="43.06222382047401" lon="11.5252179879648"><ele>271.0</ele><time>2026-04-19T09:02:58Z</time></trkpt><trkpt lat="43.06218827883498" lon="11.525047610594545"><ele>272.0</ele><time>2026-04-19T09:02:59Z</time></trkpt><trkpt lat="43.06215154387679" lon="11.524886630127384"><ele>273.0</ele><time>2026-04-19T09:03:00Z</time></trkpt><trkpt lat="43.06210631208186" lon="11.524715157344497"><ele>274.0</ele><time>2026-04-19T09:03:01Z</time></trkpt><trkpt lat="43.06203951329109" lon="11.524536684255036"><ele>275.0</ele><time>2026-04-19T09:03:02Z</time></trkpt><trkpt lat="43.061945058229725" lon="11.524375265509311"><ele>274.75</ele><time>2026-04-19T09:03:03Z</time></trkpt><trkpt lat="43.06183661342889" lon="11.52422880212493"><ele>274.5</ele><time>2026-04-19T09:03:04Z</time></trkpt><trkpt lat="43.06173829610947" lon="11.524079283439493"><ele>274.25</ele><time>2026-04-19T09:03:05Z</time></trkpt><trkpt lat="43.06165219607503" lon="11.523927333896333"><ele>274.0</ele><time>2026-04-19T09:03:06Z</time></trkpt><trkpt lat="43.061573152212084" lon="11.523773200469087"><ele>276.0</ele><time>2026-04-19T09:03:07Z</time></trkpt><trkpt lat="43.06149546283287" lon="11.523613734425386"><ele>278.0</ele><time>2026-04-19T09:03:08Z</time></trkpt><trkpt lat="43.061414157637834" lon="11.523450484839602"><ele>280.0</ele><time>2026-04-19T09:03:09Z</time></trkpt><trkpt lat="43.06132887510598" lon="11.523284359832369"><ele>282.0</ele><time>2026-04-19T09:03:10Z</time></trkpt><trkpt lat="43.061242539171765" lon="11.523118377058577"><ele>282.0</ele><time>2026-04-19T09:03:11Z</time></trkpt><trkpt lat="43.06115536729022" lon="11.52295249113264"><ele>282.0</ele><time>2026-04-19T09:03:12Z</time></trkpt><trkpt lat="43.06106457070868" lon="11.522792236871794"><ele>282.0</ele><time>2026-04-19T09:03:13Z</time></trkpt><trkpt lat="43.060958299612665" lon="11.52264091811211"><ele>283.6666666666667</ele><time>2026-04-19T09:03:14Z</time></trkpt><trkpt lat="43.06082920234505" lon="11.522512538310124"><ele>285.33333333333337</ele><time>2026-04-19T09:03:15Z</time></trkpt><trkpt lat="43.06069562237066" lon="11.522401365030708"><ele>287.0</ele><time>2026-04-19T09:03:16Z</time></trkpt><trkpt lat="43.06057441516131" lon="11.522301519915892"><ele>287.0</ele><time>2026-04-19T09:03:17Z</time></trkpt><trkpt lat="43.06045312966364" lon="11.522192790956916"><ele>287.0</ele><time>2026-04-19T09:03:18Z</time></trkpt><trkpt lat="43.06033377685371" lon="11.522080415216086"><ele>287.0</ele><time>2026-04-19T09:03:19.001Z</time></trkpt><trkpt lat="43.060206303134166" lon="11.521960131025075"><ele>287.0</ele><time>2026-04-19T09:03:20.001Z</time></trkpt><trkpt lat="43.060076341775996" lon="11.521839661174216"><ele>288.25</ele><time>2026-04-19T09:03:21Z</time></trkpt><trkpt lat="43.05995014925633" lon="11.52172448090626"><ele>289.5</ele><time>2026-04-19T09:03:22Z</time></trkpt><trkpt lat="43.05983438749436" lon="11.521620784300083"><ele>290.75</ele><time>2026-04-19T09:03:23Z</time></trkpt><trkpt lat="43.059728475348386" lon="11.521525524194182"><ele>292.0</ele><time>2026-04-19T09:03:24Z</time></trkpt><trkpt lat="43.05963597608001" lon="11.521441153678248"><ele>293.2</ele><time>2026-04-19T09:03:25Z</time></trkpt><trkpt lat="43.05955004526473" lon="11.52136543912394"><ele>294.4</ele><time>2026-04-19T09:03:26Z</time></trkpt><trkpt lat="43.05946198556009" lon="11.521297823940783"><ele>295.6</ele><time>2026-04-19T09:03:27Z</time></trkpt><trkpt lat="43.059360583034675" lon="11.521251337603626"><ele>296.8</ele><time>2026-04-19T09:03:28Z</time></trkpt><trkpt lat="43.05924697652631" lon="11.521235545622877"><ele>298.0</ele><time>2026-04-19T09:03:29Z</time></trkpt><trkpt lat="43.05913389108562" lon="11.521258530307662"><ele>301.25</ele><time>2026-04-19T09:03:30Z</time></trkpt><trkpt lat="43.05902644220685" lon="11.521321296770292"><ele>304.5</ele><time>2026-04-19T09:03:31Z</time></trkpt><trkpt lat="43.05893839095403" lon="11.521411595289758"><ele>307.75</ele><time>2026-04-19T09:03:32Z</time></trkpt><trkpt lat="43.05885841230011" lon="11.521522737133319"><ele>311.0</ele><time>2026-04-19T09:03:33Z</time></trkpt><trkpt lat="43.058780358878714" lon="11.521662189347376"><ele>311.0</ele><time>2026-04-19T09:03:34Z</time></trkpt><trkpt lat="43.05870373293804" lon="11.521814375217941"><ele>311.0</ele><time>2026-04-19T09:03:35Z</time></trkpt><trkpt lat="43.05862391340893" lon="11.521960481498397"><ele>311.0</ele><time>2026-04-19T09:03:36Z</time></trkpt><trkpt lat="43.058538734517" lon="11.522108115803944"><ele>311.0</ele><time>2026-04-19T09:03:37Z</time></trkpt><trkpt lat="43.05845881622807" lon="11.522254323677787"><ele>311.75</ele><time>2026-04-19T09:03:38Z</time></trkpt><trkpt lat="43.05837883173735" lon="11.522400927851049"><ele>312.5</ele><time>2026-04-19T09:03:39Z</time></trkpt><trkpt lat="43.05830151143361" lon="11.522544162431558"><ele>313.25</ele><time>2026-04-19T09:03:40Z</time></trkpt><trkpt lat="43.05822553679202" lon="11.522682800676915"><ele>314.0</ele><time>2026-04-19T09:03:41Z</time></trkpt><trkpt lat="43.05815063174043" lon="11.522818909421925"><ele>313.59999999999997</ele><time>2026-04-19T09:03:42Z</time></trkpt><trkpt lat="43.05808178802404" lon="11.522944522174193"><ele>313.2</ele><time>2026-04-19T09:03:43Z</time></trkpt><trkpt lat="43.05801924075786" lon="11.523052028512543"><ele>312.79999999999995</ele><time>2026-04-19T09:03:44Z</time></trkpt><trkpt lat="43.05794504264575" lon="11.523146646411535"><ele>312.4</ele><time>2026-04-19T09:03:45Z</time></trkpt><trkpt lat="43.05784525140563" lon="11.523227588795887"><ele>312.0</ele><time>2026-04-19T09:03:46Z</time></trkpt><trkpt lat="43.05773598197353" lon="11.523268952873478"><ele>312.0</ele><time>2026-04-19T09:03:47Z</time></trkpt><trkpt lat="43.05763095259431" lon="11.523266452750994"><ele>312.0</ele><time>2026-04-19T09:03:48Z</time></trkpt><trkpt lat="43.05753190882811" lon="11.52322921887008"><ele>312.0</ele><time>2026-04-19T09:03:49Z</time></trkpt><trkpt lat="43.05744317443594" lon="11.523161995674165"><ele>312.0</ele><time>2026-04-19T09:03:50Z</time></trkpt><trkpt lat="43.057364193848315" lon="11.523071276268405"><ele>312.0</ele><time>2026-04-19T09:03:51Z</time></trkpt><trkpt lat="43.057297635574066" lon="11.52296027563381"><ele>312.2</ele><time>2026-04-19T09:03:52Z</time></trkpt><trkpt lat="43.05727115878917" lon="11.52281006362316"><ele>312.4</ele><time>2026-04-19T09:03:53Z</time></trkpt><trkpt lat="43.05722874501266" lon="11.522670475921837"><ele>312.6</ele><time>2026-04-19T09:03:54Z</time></trkpt><trkpt lat="43.05720604526508" lon="11.522527574848016"><ele>312.8</ele><time>2026-04-19T09:03:55Z</time></trkpt><trkpt lat="43.057175564472686" lon="11.522391884205733"><ele>313.0</ele><time>2026-04-19T09:03:56Z</time></trkpt><trkpt lat="43.05714404950471" lon="11.522251237493807"><ele>313.0</ele><time>2026-04-19T09:03:57Z</time></trkpt><trkpt lat="43.057113869384715" lon="11.522113546771108"><ele>313.0</ele><time>2026-04-19T09:03:58Z</time></trkpt><trkpt lat="43.05708038823063" lon="11.521964874656305"><ele>313.0</ele><time>2026-04-19T09:03:59Z</time></trkpt><trkpt lat="43.057049810019656" lon="11.521809930829878"><ele>313.0</ele><time>2026-04-19T09:04:00Z</time></trkpt><trkpt lat="43.05701611692747" lon="11.521660171454615"><ele>313.75</ele><time>2026-04-19T09:04:01Z</time></trkpt><trkpt lat="43.0569876954674" lon="11.521510351864512"><ele>314.5</ele><time>2026-04-19T09:04:02Z</time></trkpt><trkpt lat="43.05696053754888" lon="11.521365922924609"><ele>315.25</ele><time>2026-04-19T09:04:03Z</time></trkpt><trkpt lat="43.05692818896904" lon="11.52121691680294"><ele>316.0</ele><time>2026-04-19T09:04:04Z</time></trkpt><trkpt lat="43.05688895572925" lon="11.521065597075864"><ele>317.0</ele><time>2026-04-19T09:04:05Z</time></trkpt><trkpt lat="43.05683568110359" lon="11.52091876233872"><ele>318.0</ele><time>2026-04-19T09:04:06Z</time></trkpt><trkpt lat="43.056764084463936" lon="11.520783426275969"><ele>319.0</ele><time>2026-04-19T09:04:07Z</time></trkpt><trkpt lat="43.05667990870875" lon="11.520672077939784"><ele>320.0</ele><time>2026-04-19T09:04:08Z</time></trkpt><trkpt lat="43.05659100908559" lon="11.520579601309896"><ele>320.5</ele><time>2026-04-19T09:04:09Z</time></trkpt><trkpt lat="43.05649339404159" lon="11.520503481675153"><ele>321.0</ele><time>2026-04-19T09:04:10Z</time></trkpt><trkpt lat="43.056390484420625" lon="11.52045080624504"><ele>321.5</ele><time>2026-04-19T09:04:11Z</time></trkpt><trkpt lat="43.056281535282004" lon="11.520418399501004"><ele>322.0</ele><time>2026-04-19T09:04:12Z</time></trkpt><trkpt lat="43.056165577546686" lon="11.520402098533124"><ele>322.0</ele><time>2026-04-19T09:04:13Z</time></trkpt><trkpt lat="43.05604853159602" lon="11.520394276424593"><ele>322.0</ele><time>2026-04-19T09:04:14Z</time></trkpt><trkpt lat="43.05592304839311" lon="11.520402449905578"><ele>322.0</ele><time>2026-04-19T09:04:15Z</time></trkpt><trkpt lat="43.055795346691696" lon="11.520399640109417"><ele>322.0</ele><time>2026-04-19T09:04:16Z</time></trkpt><trkpt lat="43.05566705627303" lon="11.520379152545214"><ele>325.0</ele><time>2026-04-19T09:04:17Z</time></trkpt><trkpt lat="43.05554226717823" lon="11.520360751170582"><ele>328.0</ele><time>2026-04-19T09:04:18Z</time></trkpt><trkpt lat="43.05540572263952" lon="11.520373202519353"><ele>331.0</ele><time>2026-04-19T09:04:19Z</time></trkpt><trkpt lat="43.05526919259041" lon="11.520372269642559"><ele>334.0</ele><time>2026-04-19T09:04:20Z</time></trkpt><trkpt lat="43.05513670316736" lon="11.520374116861683"><ele>334.0</ele><time>2026-04-19T09:04:21Z</time></trkpt><trkpt lat="43.05500790724789" lon="11.52037836916843"><ele>334.0</ele><time>2026-04-19T09:04:22Z</time></trkpt><trkpt lat="43.0548754556355" lon="11.520419680478692"><ele>334.0</ele><time>2026-04-19T09:04:23Z</time></trkpt><trkpt lat="43.054744124602394" lon="11.520488924430348"><ele>334.0</ele><time>2026-04-19T09:04:24Z</time></trkpt><trkpt lat="43.054616014346934" lon="11.520565807860491"><ele>334.0</ele><time>2026-04-19T09:04:25Z</time></trkpt><trkpt lat="43.05449971065436" lon="11.520638629708534"><ele>334.0</ele><time>2026-04-19T09:04:26Z</time></trkpt><trkpt lat="43.054395507885836" lon="11.520688818958513"><ele>334.0</ele><time>2026-04-19T09:04:27Z</time></trkpt><trkpt lat="43.05428570601892" lon="11.52073253174813"><ele>334.0</ele><time>2026-04-19T09:04:28Z</time></trkpt><trkpt lat="43.054159568736985" lon="11.520756965756435"><ele>335.0</ele><time>2026-04-19T09:04:29Z</time></trkpt><trkpt lat="43.054024935953564" lon="11.520705678296455"><ele>336.0</ele><time>2026-04-19T09:04:30Z</time></trkpt><trkpt lat="43.053884502682436" lon="11.520678589494764"><ele>337.0</ele><time>2026-04-19T09:04:31Z</time></trkpt><trkpt lat="43.053753844401335" lon="11.520615535103314"><ele>338.0</ele><time>2026-04-19T09:04:32Z</time></trkpt><trkpt lat="43.05362774227094" lon="11.520575004858507"><ele>338.0</ele><time>2026-04-19T09:04:33Z</time></trkpt><trkpt lat="43.05350479579611" lon="11.520534691916444"><ele>338.0</ele><time>2026-04-19T09:04:34Z</time></trkpt><trkpt lat="43.053380159347014" lon="11.520495088736789"><ele>338.0</ele><time>2026-04-19T09:04:35Z</time></trkpt><trkpt lat="43.05325128210084" lon="11.520454963156602"><ele>338.0</ele><time>2026-04-19T09:04:36Z</time></trkpt><trkpt lat="43.053124709528944" lon="11.520409129655208"><ele>341.5</ele><time>2026-04-19T09:04:37Z</time></trkpt><trkpt lat="43.053005487160235" lon="11.520367302543038"><ele>345.0</ele><time>2026-04-19T09:04:38Z</time></trkpt><trkpt lat="43.05287838057425" lon="11.52032719616563"><ele>348.5</ele><time>2026-04-19T09:04:39Z</time></trkpt><trkpt lat="43.05275754442465" lon="11.520292046726098"><ele>352.0</ele><time>2026-04-19T09:04:40Z</time></trkpt><trkpt lat="43.0526414162338" lon="11.520258213873747"><ele>352.0</ele><time>2026-04-19T09:04:41Z</time></trkpt><trkpt lat="43.05252204951478" lon="11.520220674761058"><ele>352.0</ele><time>2026-04-19T09:04:42Z</time></trkpt><trkpt lat="43.052396620711946" lon="11.520175166038575"><ele>352.0</ele><time>2026-04-19T09:04:43Z</time></trkpt><trkpt lat="43.05226908564596" lon="11.520129589171654"><ele>352.0</ele><time>2026-04-19T09:04:44Z</time></trkpt><trkpt lat="43.052146649797955" lon="11.520086494158207"><ele>352.5</ele><time>2026-04-19T09:04:45Z</time></trkpt><trkpt lat="43.05203549401665" lon="11.520045406027327"><ele>353.0</ele><time>2026-04-19T09:04:46Z</time></trkpt><trkpt lat="43.05191542477635" lon="11.520007944262606"><ele>353.5</ele><time>2026-04-19T09:04:47Z</time></trkpt><trkpt lat="43.051789284360865" lon="11.519970825562766"><ele>354.0</ele><time>2026-04-19T09:04:48Z</time></trkpt><trkpt lat="43.05166272023352" lon="11.519928408019254"><ele>355.5</ele><time>2026-04-19T09:04:49Z</time></trkpt><trkpt lat="43.05153411415564" lon="11.519888475677304"><ele>357.0</ele><time>2026-04-19T09:04:50Z</time></trkpt><trkpt lat="43.051401937327206" lon="11.519845119371892"><ele>358.5</ele><time>2026-04-19T09:04:51Z</time></trkpt><trkpt lat="43.05126898421446" lon="11.519787082008989"><ele>360.0</ele><time>2026-04-19T09:04:52Z</time></trkpt><trkpt lat="43.05113584434876" lon="11.519705952955652"><ele>360.0</ele><time>2026-04-19T09:04:53Z</time></trkpt><trkpt lat="43.05100899798865" lon="11.519600945239047"><ele>360.0</ele><time>2026-04-19T09:04:54Z</time></trkpt><trkpt lat="43.050876925736844" lon="11.51950694114504"><ele>360.0</ele><time>2026-04-19T09:04:55Z</time></trkpt><trkpt lat="43.05074567714027" lon="11.519415958559952"><ele>360.0</ele><time>2026-04-19T09:04:56Z</time></trkpt><trkpt lat="43.050612172675" lon="11.519326568236599"><ele>361.5</ele><time>2026-04-19T09:04:57Z</time></trkpt><trkpt lat="43.050497924813385" lon="11.51925218574926"><ele>363.0</ele><time>2026-04-19T09:04:58Z</time></trkpt><trkpt lat="43.0503896381655" lon="11.519185235347793"><ele>364.5</ele><time>2026-04-19T09:04:59Z</time></trkpt><trkpt lat="43.0502849297804" lon="11.51911098862038"><ele>366.0</ele><time>2026-04-19T09:05:00Z</time></trkpt><trkpt lat="43.05018874855704" lon="11.519015475516733"><ele>366.0</ele><time>2026-04-19T09:05:01Z</time></trkpt><trkpt lat="43.05011261677145" lon="11.518885861443444"><ele>366.0</ele><time>2026-04-19T09:05:02Z</time></trkpt><trkpt lat="43.05005007347614" lon="11.518718969524654"><ele>366.0</ele><time>2026-04-19T09:05:03Z</time></trkpt><trkpt lat="43.04999710791832" lon="11.51853697869169"><ele>366.0</ele><time>2026-04-19T09:05:04Z</time></trkpt><trkpt lat="43.049955039518075" lon="11.518359190017634"><ele>368.0</ele><time>2026-04-19T09:05:05Z</time></trkpt><trkpt lat="43.04992247756809" lon="11.518179138683946"><ele>370.0</ele><time>2026-04-19T09:05:06Z</time></trkpt><trkpt lat="43.04989650205627" lon="11.518001335643842"><ele>372.0</ele><time>2026-04-19T09:05:07Z</time></trkpt><trkpt lat="43.04986651599342" lon="11.517827952651293"><ele>374.0</ele><time>2026-04-19T09:05:08Z</time></trkpt><trkpt lat="43.04982972790274" lon="11.5176567472686"><ele>375.0</ele><time>2026-04-19T09:05:09Z</time></trkpt><trkpt lat="43.04980174055424" lon="11.517500574792017"><ele>376.0</ele><time>2026-04-19T09:05:10Z</time></trkpt><trkpt lat="43.04978734817229" lon="11.517353927320825"><ele>377.0</ele><time>2026-04-19T09:05:11Z</time></trkpt><trkpt lat="43.04978660390386" lon="11.517200165243265"><ele>378.0</ele><time>2026-04-19T09:05:12Z</time></trkpt><trkpt lat="43.049795114342515" lon="11.517038783105633"><ele>379.5</ele><time>2026-04-19T09:05:13Z</time></trkpt><trkpt lat="43.04981146917429" lon="11.51686932736013"><ele>381.0</ele><time>2026-04-19T09:05:14Z</time></trkpt><trkpt lat="43.04982614025943" lon="11.51669826932546"><ele>382.5</ele><time>2026-04-19T09:05:15Z</time></trkpt><trkpt lat="43.04983550616477" lon="11.516525144988279"><ele>384.0</ele><time>2026-04-19T09:05:16Z</time></trkpt><trkpt lat="43.04984593631566" lon="11.516353415869654"><ele>386.0</ele><time>2026-04-19T09:05:17Z</time></trkpt><trkpt lat="43.0498563138497" lon="11.516183067607109"><ele>388.0</ele><time>2026-04-19T09:05:18Z</time></trkpt><trkpt lat="43.04986315882327" lon="11.516018150622838"><ele>390.0</ele><time>2026-04-19T09:05:19Z</time></trkpt><trkpt lat="43.04985597662676" lon="11.515861190154293"><ele>392.0</ele><time>2026-04-19T09:05:20Z</time></trkpt><trkpt lat="43.049820075023554" lon="11.515715360812449"><ele>392.0</ele><time>2026-04-19T09:05:21Z</time></trkpt><trkpt lat="43.049763299440755" lon="11.515576241725405"><ele>392.0</ele><time>2026-04-19T09:05:22Z</time></trkpt><trkpt lat="43.04968282094096" lon="11.515452725722973"><ele>392.0</ele><time>2026-04-19T09:05:23Z</time></trkpt><trkpt lat="43.049578809258676" lon="11.515360084702081"><ele>392.0</ele><time>2026-04-19T09:05:24Z</time></trkpt><trkpt lat="43.04945622499296" lon="11.51530443793437"><ele>393.75</ele><time>2026-04-19T09:05:25.001Z</time></trkpt><trkpt lat="43.049323086612404" lon="11.515275323460827"><ele>395.5</ele><time>2026-04-19T09:05:26.001Z</time></trkpt><trkpt lat="43.04918734210209" lon="11.515251362535773"><ele>397.25</ele><time>2026-04-19T09:05:27Z</time></trkpt><trkpt lat="43.04905192231863" lon="11.515215108278094"><ele>399.0</ele><time>2026-04-19T09:05:28Z</time></trkpt><trkpt lat="43.048933619659245" lon="11.515161988663754"><ele>399.0</ele><time>2026-04-19T09:05:29Z</time></trkpt><trkpt lat="43.04884284161725" lon="11.51508412203558"><ele>399.0</ele><time>2026-04-19T09:05:30Z</time></trkpt><trkpt lat="43.04878028810652" lon="11.514980113414795"><ele>399.0</ele><time>2026-04-19T09:05:31Z</time></trkpt><trkpt lat="43.04875181370491" lon="11.514846922510738"><ele>399.0</ele><time>2026-04-19T09:05:32Z</time></trkpt><trkpt lat="43.04875608738594" lon="11.514699783741577"><ele>399.0</ele><time>2026-04-19T09:05:33Z</time></trkpt><trkpt lat="43.048797971138775" lon="11.514570742498815"><ele>400.0</ele><time>2026-04-19T09:05:34Z</time></trkpt><trkpt lat="43.04881284523499" lon="11.514438640508393"><ele>401.0</ele><time>2026-04-19T09:05:35Z</time></trkpt><trkpt lat="43.0488434527901" lon="11.514308870238741"><ele>402.0</ele><time>2026-04-19T09:05:36Z</time></trkpt><trkpt lat="43.04887082537468" lon="11.514179721395879"><ele>403.0</ele><time>2026-04-19T09:05:37Z</time></trkpt><trkpt lat="43.04889393949401" lon="11.514049609549344"><ele>404.0</ele><time>2026-04-19T09:05:38Z</time></trkpt><trkpt lat="43.04891651974747" lon="11.513922544430564"><ele>404.0</ele><time>2026-04-19T09:05:39Z</time></trkpt><trkpt lat="43.04892864154264" lon="11.513806943658624"><ele>404.0</ele><time>2026-04-19T09:05:40Z</time></trkpt><trkpt lat="43.04892970809131" lon="11.513689012543905"><ele>404.0</ele><time>2026-04-19T09:05:41Z</time></trkpt><trkpt lat="43.04891374288402" lon="11.513571984485727"><ele>404.0</ele><time>2026-04-19T09:05:42Z</time></trkpt><trkpt lat="43.04887583254093" lon="11.513452892712248"><ele>404.0</ele><time>2026-04-19T09:05:43Z</time></trkpt><trkpt lat="43.048826490362345" lon="11.513318951058247"><ele>404.6</ele><time>2026-04-19T09:05:44Z</time></trkpt><trkpt lat="43.04877738423274" lon="11.513174864611123"><ele>405.2</ele><time>2026-04-19T09:05:45Z</time></trkpt><trkpt lat="43.04874140409553" lon="11.513043084587277"><ele>405.8</ele><time>2026-04-19T09:05:46Z</time></trkpt><trkpt lat="43.048729787444" lon="11.512932652825237"><ele>406.40000000000003</ele><time>2026-04-19T09:05:47Z</time></trkpt><trkpt lat="43.048748746000456" lon="11.512825195449613"><ele>407.0</ele><time>2026-04-19T09:05:48Z</time></trkpt><trkpt lat="43.048791229254135" lon="11.5127124184326"><ele>407.0</ele><time>2026-04-19T09:05:49Z</time></trkpt><trkpt lat="43.04884609935747" lon="11.512594261379295"><ele>407.0</ele><time>2026-04-19T09:05:50Z</time></trkpt><trkpt lat="43.04889976785892" lon="11.512472475998562"><ele>407.0</ele><time>2026-04-19T09:05:51Z</time></trkpt><trkpt lat="43.048947795025" lon="11.512343125140143"><ele>407.0</ele><time>2026-04-19T09:05:52Z</time></trkpt><trkpt lat="43.04899314772511" lon="11.51221120166409"><ele>407.0</ele><time>2026-04-19T09:05:53Z</time></trkpt><trkpt lat="43.04904052254738" lon="11.512074063690637"><ele>406.6</ele><time>2026-04-19T09:05:54Z</time></trkpt><trkpt lat="43.04908180084667" lon="11.511933796795738"><ele>406.20000000000005</ele><time>2026-04-19T09:05:55Z</time></trkpt><trkpt lat="43.04911321389108" lon="11.511817000664132"><ele>405.8</ele><time>2026-04-19T09:05:56Z</time></trkpt><trkpt lat="43.04913676473587" lon="11.511734437985824"><ele>405.4</ele><time>2026-04-19T09:05:57Z</time></trkpt><trkpt lat="43.04918370691154" lon="11.511578160444351"><ele>405.0</ele><time>2026-04-19T09:05:59Z</time></trkpt><trkpt lat="43.04921653437336" lon="11.511452194749655"><ele>407.0</ele><time>2026-04-19T09:06:00Z</time></trkpt><trkpt lat="43.04925903237993" lon="11.511309374514488"><ele>409.0</ele><time>2026-04-19T09:06:01Z</time></trkpt><trkpt lat="43.049315859660375" lon="11.511164731934043"><ele>411.0</ele><time>2026-04-19T09:06:02Z</time></trkpt><trkpt lat="43.04939411024946" lon="11.51104442612957"><ele>413.0</ele><time>2026-04-19T09:06:03Z</time></trkpt><trkpt lat="43.0494852059668" lon="11.510899478316356"><ele>413.75</ele><time>2026-04-19T09:06:04Z</time></trkpt><trkpt lat="43.04956910515602" lon="11.510766462084804"><ele>414.5</ele><time>2026-04-19T09:06:05Z</time></trkpt><trkpt lat="43.04964381450642" lon="11.510640442770136"><ele>415.25</ele><time>2026-04-19T09:06:06Z</time></trkpt><trkpt lat="43.04971561344221" lon="11.5105246525255"><ele>416.0</ele><time>2026-04-19T09:06:07Z</time></trkpt><trkpt lat="43.049798473037455" lon="11.51042385514712"><ele>416.5</ele><time>2026-04-19T09:06:08Z</time></trkpt><trkpt lat="43.04989532800482" lon="11.510336781986073"><ele>417.0</ele><time>2026-04-19T09:06:09Z</time></trkpt><trkpt lat="43.049995744925546" lon="11.510257503340169"><ele>417.5</ele><time>2026-04-19T09:06:10Z</time></trkpt><trkpt lat="43.05008607643492" lon="11.510166546850504"><ele>418.0</ele><time>2026-04-19T09:06:11Z</time></trkpt><trkpt lat="43.050176479526634" lon="11.510069066963835"><ele>421.0</ele><time>2026-04-19T09:06:12Z</time></trkpt><trkpt lat="43.050271047323626" lon="11.509964943633458"><ele>424.0</ele><time>2026-04-19T09:06:13Z</time></trkpt><trkpt lat="43.05036891575662" lon="11.509858851404793"><ele>427.0</ele><time>2026-04-19T09:06:14Z</time></trkpt><trkpt lat="43.050470520233674" lon="11.509752814244624"><ele>430.0</ele><time>2026-04-19T09:06:15Z</time></trkpt><trkpt lat="43.050569523274525" lon="11.509642667459401"><ele>432.25</ele><time>2026-04-19T09:06:16Z</time></trkpt><trkpt lat="43.05067376798973" lon="11.509539624092648"><ele>434.5</ele><time>2026-04-19T09:06:17Z</time></trkpt><trkpt lat="43.050778821990825" lon="11.509432510487624"><ele>436.75</ele><time>2026-04-19T09:06:18Z</time></trkpt><trkpt lat="43.0508899076089" lon="11.50931304872059"><ele>439.0</ele><time>2026-04-19T09:06:19Z</time></trkpt><trkpt lat="43.05100212331814" lon="11.509190472718872"><ele>439.0</ele><time>2026-04-19T09:06:20Z</time></trkpt><trkpt lat="43.05111224288985" lon="11.509065287495389"><ele>439.0</ele><time>2026-04-19T09:06:21Z</time></trkpt><trkpt lat="43.05122287811467" lon="11.508928107099498"><ele>439.0</ele><time>2026-04-19T09:06:22Z</time></trkpt><trkpt lat="43.05133867650359" lon="11.508776463932582"><ele>441.33333333333337</ele><time>2026-04-19T09:06:23Z</time></trkpt><trkpt lat="43.051456334053604" lon="11.508611917446148"><ele>443.66666666666663</ele><time>2026-04-19T09:06:24Z</time></trkpt><trkpt lat="43.051562526600236" lon="11.508451888165753"><ele>446.0</ele><time>2026-04-19T09:06:25Z</time></trkpt><trkpt lat="43.05165406431597" lon="11.508305195394366"><ele>446.0</ele><time>2026-04-19T09:06:26Z</time></trkpt><trkpt lat="43.051737399385495" lon="11.50816418237337"><ele>446.0</ele><time>2026-04-19T09:06:27Z</time></trkpt><trkpt lat="43.05180850750677" lon="11.5080078818064"><ele>446.0</ele><time>2026-04-19T09:06:28Z</time></trkpt><trkpt lat="43.05185831282119" lon="11.507831790308753"><ele>446.0</ele><time>2026-04-19T09:06:29Z</time></trkpt><trkpt lat="43.05187967486776" lon="11.507641608725704"><ele>447.75</ele><time>2026-04-19T09:06:30Z</time></trkpt><trkpt lat="43.05187229988264" lon="11.507448634632384"><ele>449.5</ele><time>2026-04-19T09:06:31Z</time></trkpt><trkpt lat="43.05185783437094" lon="11.50725831406079"><ele>451.25</ele><time>2026-04-19T09:06:32Z</time></trkpt><trkpt lat="43.051842803309704" lon="11.507074816031347"><ele>453.0</ele><time>2026-04-19T09:06:33Z</time></trkpt><trkpt lat="43.05183309670818" lon="11.506902463523371"><ele>453.0</ele><time>2026-04-19T09:06:34Z</time></trkpt><trkpt lat="43.05183086857686" lon="11.506735203849935"><ele>453.0</ele><time>2026-04-19T09:06:35Z</time></trkpt><trkpt lat="43.05184275552195" lon="11.506578861154571"><ele>453.0</ele><time>2026-04-19T09:06:36Z</time></trkpt><trkpt lat="43.05186987695199" lon="11.506407983515402"><ele>453.0</ele><time>2026-04-19T09:06:37Z</time></trkpt><trkpt lat="43.05190352856661" lon="11.506267355716922"><ele>452.0</ele><time>2026-04-19T09:06:38Z</time></trkpt><trkpt lat="43.05194483614126" lon="11.506123336392676"><ele>450.99999999999994</ele><time>2026-04-19T09:06:39Z</time></trkpt><trkpt lat="43.0519908973671" lon="11.505987270479277"><ele>449.99999999999994</ele><time>2026-04-19T09:06:40Z</time></trkpt><trkpt lat="43.05203637515278" lon="11.505850357993664"><ele>449.0</ele><time>2026-04-19T09:06:41Z</time></trkpt><trkpt lat="43.05208430131834" lon="11.505712100542592"><ele>448.0</ele><time>2026-04-19T09:06:42Z</time></trkpt><trkpt lat="43.052129451019155" lon="11.505573349755375"><ele>448.00000000000006</ele><time>2026-04-19T09:06:43Z</time></trkpt><trkpt lat="43.0521696349227" lon="11.505450641355083"><ele>448.0</ele><time>2026-04-19T09:06:44Z</time></trkpt><trkpt lat="43.05220449076418" lon="11.505350687685173"><ele>448.0</ele><time>2026-04-19T09:06:45Z</time></trkpt><trkpt lat="43.05223544473515" lon="11.505268144727067"><ele>448.0</ele><time>2026-04-19T09:06:46Z</time></trkpt><trkpt lat="43.05231162755825" lon="11.505136727466036"><ele>448.00000000000006</ele><time>2026-04-19T09:06:48Z</time></trkpt><trkpt lat="43.05237164566769" lon="11.505076785960364"><ele>448.0</ele><time>2026-04-19T09:06:49Z</time></trkpt><trkpt lat="43.052447155576345" lon="11.505030658165762"><ele>450.0</ele><time>2026-04-19T09:06:50Z</time></trkpt><trkpt lat="43.05252668199738" lon="11.505006833512148"><ele>451.99999999999994</ele><time>2026-04-19T09:06:51Z</time></trkpt><trkpt lat="43.05262710175009" lon="11.505008153554042"><ele>453.99999999999994</ele><time>2026-04-19T09:06:52Z</time></trkpt><trkpt lat="43.05273875911161" lon="11.505048930280802"><ele>456.0</ele><time>2026-04-19T09:06:53Z</time></trkpt><trkpt lat="43.05285522846194" lon="11.505114897782676"><ele>458.0</ele><time>2026-04-19T09:06:54Z</time></trkpt><trkpt lat="43.0529658389822" lon="11.50519711792727"><ele>458.0</ele><time>2026-04-19T09:06:55Z</time></trkpt><trkpt lat="43.05306400326311" lon="11.505285380889031"><ele>458.0</ele><time>2026-04-19T09:06:56Z</time></trkpt><trkpt lat="43.05314576346317" lon="11.505391220915188"><ele>458.0</ele><time>2026-04-19T09:06:57Z</time></trkpt><trkpt lat="43.053210820803315" lon="11.505523785114939"><ele>458.0</ele><time>2026-04-19T09:06:58Z</time></trkpt><trkpt lat="43.0532479971786" lon="11.50569259957027"><ele>457.3333333333333</ele><time>2026-04-19T09:06:59Z</time></trkpt><trkpt lat="43.0532650523303" lon="11.505878606604135"><ele>456.66666666666663</ele><time>2026-04-19T09:07:00Z</time></trkpt><trkpt lat="43.05325055698192" lon="11.506091814320056"><ele>456.0</ele><time>2026-04-19T09:07:01Z</time></trkpt><trkpt lat="43.05321738560533" lon="11.506315907906439"><ele>455.0</ele><time>2026-04-19T09:07:02Z</time></trkpt><trkpt lat="43.053184918001236" lon="11.506546052813405"><ele>454.0</ele><time>2026-04-19T09:07:03Z</time></trkpt><trkpt lat="43.05315721029077" lon="11.506782167424639"><ele>453.0</ele><time>2026-04-19T09:07:04Z</time></trkpt><trkpt lat="43.05312645119506" lon="11.507016317016499"><ele>450.33333333333337</ele><time>2026-04-19T09:07:05Z</time></trkpt><trkpt lat="43.05310126490587" lon="11.507256358419214"><ele>447.6666666666667</ele><time>2026-04-19T09:07:06Z</time></trkpt><trkpt lat="43.053072610564016" lon="11.50749186159998"><ele>445.0</ele><time>2026-04-19T09:07:07Z</time></trkpt><trkpt lat="43.05304611854485" lon="11.507731925118971"><ele>442.0</ele><time>2026-04-19T09:07:08Z</time></trkpt><trkpt lat="43.05301877284025" lon="11.507945782905953"><ele>439.0</ele><time>2026-04-19T09:07:09Z</time></trkpt><trkpt lat="43.05299438143614" lon="11.50815906902218"><ele>436.0</ele><time>2026-04-19T09:07:10Z</time></trkpt><trkpt lat="43.05297580187125" lon="11.508370459275937"><ele>436.0</ele><time>2026-04-19T09:07:11Z</time></trkpt><trkpt lat="43.052972555654215" lon="11.50858435537419"><ele>436.0</ele><time>2026-04-19T09:07:12Z</time></trkpt><trkpt lat="43.05298658547331" lon="11.508819305037502"><ele>436.0</ele><time>2026-04-19T09:07:13Z</time></trkpt><trkpt lat="43.05302259836857" lon="11.509057015102327"><ele>433.33333333333337</ele><time>2026-04-19T09:07:14Z</time></trkpt><trkpt lat="43.05307126803371" lon="11.509290056448819"><ele>430.66666666666663</ele><time>2026-04-19T09:07:15Z</time></trkpt><trkpt lat="43.05312089262783" lon="11.50951613947869"><ele>428.0</ele><time>2026-04-19T09:07:16Z</time></trkpt><trkpt lat="43.05317268294967" lon="11.509730987263278"><ele>427.0</ele><time>2026-04-19T09:07:17Z</time></trkpt><trkpt lat="43.05322954757475" lon="11.509938451937456"><ele>426.0</ele><time>2026-04-19T09:07:18Z</time></trkpt><trkpt lat="43.05330625746432" lon="11.510119490425408"><ele>425.0</ele><time>2026-04-19T09:07:19Z</time></trkpt><trkpt lat="43.05341224594944" lon="11.510269387763369"><ele>425.0</ele><time>2026-04-19T09:07:20Z</time></trkpt><trkpt lat="43.05354798537867" lon="11.510402138442734"><ele>425.0</ele><time>2026-04-19T09:07:21Z</time></trkpt><trkpt lat="43.05368803278179" lon="11.510512610132725"><ele>425.0</ele><time>2026-04-19T09:07:22Z</time></trkpt><trkpt lat="43.05382588820617" lon="11.51060519758514"><ele>423.25</ele><time>2026-04-19T09:07:23Z</time></trkpt><trkpt lat="43.05397230788659" lon="11.510664370389769"><ele>421.5</ele><time>2026-04-19T09:07:24Z</time></trkpt><trkpt lat="43.054121834087056" lon="11.510685110613538"><ele>419.75</ele><time>2026-04-19T09:07:25Z</time></trkpt><trkpt lat="43.05426742303731" lon="11.510662966872632"><ele>418.0</ele><time>2026-04-19T09:07:26Z</time></trkpt><trkpt lat="43.0544101195112" lon="11.510600972601678"><ele>417.33333333333337</ele><time>2026-04-19T09:07:27Z</time></trkpt><trkpt lat="43.054551378607044" lon="11.51050270813314"><ele>416.66666666666663</ele><time>2026-04-19T09:07:28Z</time></trkpt><trkpt lat="43.054682488099104" lon="11.510378201709646"><ele>416.0</ele><time>2026-04-19T09:07:29Z</time></trkpt><trkpt lat="43.05479999951859" lon="11.510230844514105"><ele>415.5</ele><time>2026-04-19T09:07:30Z</time></trkpt><trkpt lat="43.05490259869708" lon="11.510078832270722"><ele>415.0</ele><time>2026-04-19T09:07:31Z</time></trkpt><trkpt lat="43.054989453903126" lon="11.509914614592022"><ele>414.5</ele><time>2026-04-19T09:07:32Z</time></trkpt><trkpt lat="43.05505558136722" lon="11.509731499789218"><ele>414.0</ele><time>2026-04-19T09:07:33Z</time></trkpt><trkpt lat="43.05511950313091" lon="11.509533233798678"><ele>414.0</ele><time>2026-04-19T09:07:34Z</time></trkpt><trkpt lat="43.05518395095578" lon="11.509330577312515"><ele>414.0</ele><time>2026-04-19T09:07:35Z</time></trkpt><trkpt lat="43.05525640326697" lon="11.509132293701589"><ele>414.0</ele><time>2026-04-19T09:07:36Z</time></trkpt><trkpt lat="43.05535349909275" lon="11.508970778087125"><ele>414.0</ele><time>2026-04-19T09:07:37Z</time></trkpt><trkpt lat="43.055465482937734" lon="11.508814577382362"><ele>414.0</ele><time>2026-04-19T09:07:38Z</time></trkpt><trkpt lat="43.05557796018596" lon="11.50867804456482"><ele>414.0</ele><time>2026-04-19T09:07:39Z</time></trkpt><trkpt lat="43.05568367852685" lon="11.508525340084864"><ele>414.25</ele><time>2026-04-19T09:07:40Z</time></trkpt><trkpt lat="43.05578009958612" lon="11.508418541874597"><ele>414.5</ele><time>2026-04-19T09:07:41Z</time></trkpt><trkpt lat="43.05586453002351" lon="11.50829278689563"><ele>414.75</ele><time>2026-04-19T09:07:42Z</time></trkpt><trkpt lat="43.055923000418986" lon="11.50815786176243"><ele>415.0</ele><time>2026-04-19T09:07:43Z</time></trkpt><trkpt lat="43.05595683209467" lon="11.507964719890252"><ele>410.25</ele><time>2026-04-19T09:07:44Z</time></trkpt><trkpt lat="43.05596370999257" lon="11.507761547419328"><ele>405.5</ele><time>2026-04-19T09:07:45Z</time></trkpt><trkpt lat="43.055960339978085" lon="11.507565972798078"><ele>400.75</ele><time>2026-04-19T09:07:46Z</time></trkpt><trkpt lat="43.0559502679867" lon="11.50738973753342"><ele>396.0</ele><time>2026-04-19T09:07:47Z</time></trkpt><trkpt lat="43.055925826681666" lon="11.507223527818986"><ele>394.5</ele><time>2026-04-19T09:07:48Z</time></trkpt><trkpt lat="43.05587275862068" lon="11.507050874027314"><ele>393.0</ele><time>2026-04-19T09:07:49Z</time></trkpt><trkpt lat="43.055786922325225" lon="11.50688282969844"><ele>391.5</ele><time>2026-04-19T09:07:50Z</time></trkpt><trkpt lat="43.05568374590451" lon="11.506732778624713"><ele>390.0</ele><time>2026-04-19T09:07:51Z</time></trkpt><trkpt lat="43.05560162424912" lon="11.50657924173088"><ele>393.0</ele><time>2026-04-19T09:07:52Z</time></trkpt><trkpt lat="43.05553705433711" lon="11.506423820565642"><ele>396.0</ele><time>2026-04-19T09:07:53Z</time></trkpt><trkpt lat="43.05548229844756" lon="11.506264219012301"><ele>399.0</ele><time>2026-04-19T09:07:54Z</time></trkpt><trkpt lat="43.0554736665863" lon="11.506071883877814"><ele>402.0</ele><time>2026-04-19T09:07:55Z</time></trkpt><trkpt lat="43.0555047770259" lon="11.505872347999292"><ele>402.0</ele><time>2026-04-19T09:07:56Z</time></trkpt><trkpt lat="43.05555863286424" lon="11.505669688467114"><ele>402.0</ele><time>2026-04-19T09:07:57Z</time></trkpt><trkpt lat="43.05562553101249" lon="11.505471701370864"><ele>402.0</ele><time>2026-04-19T09:07:58Z</time></trkpt><trkpt lat="43.05569399890156" lon="11.505273851711193"><ele>402.0</ele><time>2026-04-19T09:07:59Z</time></trkpt><trkpt lat="43.05575615691703" lon="11.505085730439308"><ele>402.0</ele><time>2026-04-19T09:08:00Z</time></trkpt><trkpt lat="43.055839881565554" lon="11.504928402672359"><ele>402.0</ele><time>2026-04-19T09:08:01Z</time></trkpt><trkpt lat="43.05590724070949" lon="11.504752705114177"><ele>402.0</ele><time>2026-04-19T09:08:02Z</time></trkpt><trkpt lat="43.055989021614096" lon="11.504597673268933"><ele>399.0</ele><time>2026-04-19T09:08:03Z</time></trkpt><trkpt lat="43.05606634045431" lon="11.504450368863168"><ele>396.0</ele><time>2026-04-19T09:08:04Z</time></trkpt><trkpt lat="43.05614003047279" lon="11.504310389391005"><ele>393.0</ele><time>2026-04-19T09:08:05Z</time></trkpt><trkpt lat="43.056221368817454" lon="11.504173355449824"><ele>390.0</ele><time>2026-04-19T09:08:06Z</time></trkpt><trkpt lat="43.05633201937245" lon="11.504040431802586"><ele>390.0</ele><time>2026-04-19T09:08:07Z</time></trkpt><trkpt lat="43.05647354969826" lon="11.503934210101354"><ele>390.0</ele><time>2026-04-19T09:08:08Z</time></trkpt><trkpt lat="43.05661992218928" lon="11.503840779246906"><ele>390.0</ele><time>2026-04-19T09:08:09Z</time></trkpt><trkpt lat="43.0567593381143" lon="11.503756600480664"><ele>388.5</ele><time>2026-04-19T09:08:10Z</time></trkpt><trkpt lat="43.05689373316493" lon="11.503676678655356"><ele>387.0</ele><time>2026-04-19T09:08:11Z</time></trkpt><trkpt lat="43.057022804727886" lon="11.5035980421257"><ele>385.5</ele><time>2026-04-19T09:08:12Z</time></trkpt><trkpt lat="43.05715872589685" lon="11.50353261690362"><ele>384.0</ele><time>2026-04-19T09:08:13Z</time></trkpt><trkpt lat="43.05729722259719" lon="11.503483660817215"><ele>384.0</ele><time>2026-04-19T09:08:14Z</time></trkpt><trkpt lat="43.05742099769557" lon="11.503448046664994"><ele>384.0</ele><time>2026-04-19T09:08:15Z</time></trkpt><trkpt lat="43.05753049790475" lon="11.503408366710087"><ele>384.0</ele><time>2026-04-19T09:08:16Z</time></trkpt><trkpt lat="43.057626957518366" lon="11.503343419028797"><ele>384.0</ele><time>2026-04-19T09:08:17Z</time></trkpt><trkpt lat="43.05770586610449" lon="11.503243278955527"><ele>382.2</ele><time>2026-04-19T09:08:18Z</time></trkpt><trkpt lat="43.05776224628702" lon="11.503120230128683"><ele>380.4</ele><time>2026-04-19T09:08:19Z</time></trkpt><trkpt lat="43.05779026229226" lon="11.502984570252053"><ele>378.6</ele><time>2026-04-19T09:08:20Z</time></trkpt><trkpt lat="43.05779343074305" lon="11.502842873674513"><ele>376.8</ele><time>2026-04-19T09:08:21Z</time></trkpt><trkpt lat="43.05778406286089" lon="11.502693643274009"><ele>375.0</ele><time>2026-04-19T09:08:22Z</time></trkpt><trkpt lat="43.05777349247334" lon="11.502555884983833"><ele>375.0</ele><time>2026-04-19T09:08:23Z</time></trkpt><trkpt lat="43.05780475383658" lon="11.502431897513192"><ele>375.0</ele><time>2026-04-19T09:08:24Z</time></trkpt><trkpt lat="43.057837966870636" lon="11.502316714798258"><ele>375.0</ele><time>2026-04-19T09:08:25Z</time></trkpt><trkpt lat="43.05789104233686" lon="11.502221966167708"><ele>375.0</ele><time>2026-04-19T09:08:26Z</time></trkpt><trkpt lat="43.05795400262349" lon="11.50215382867955"><ele>375.0</ele><time>2026-04-19T09:08:27Z</time></trkpt><trkpt lat="43.05801118030176" lon="11.502088428852012"><ele>375.0</ele><time>2026-04-19T09:08:28Z</time></trkpt><trkpt lat="43.05808842961459" lon="11.502054910745603"><ele>374.6666666666667</ele><time>2026-04-19T09:08:29Z</time></trkpt><trkpt lat="43.05816757256856" lon="11.50203651823408"><ele>374.3333333333333</ele><time>2026-04-19T09:08:30Z</time></trkpt><trkpt lat="43.058237495461825" lon="11.502027268204712"><ele>374.0</ele><time>2026-04-19T09:08:31Z</time></trkpt><trkpt lat="43.05831497545758" lon="11.502012813706015"><ele>373.66666666666663</ele><time>2026-04-19T09:08:32Z</time></trkpt><trkpt lat="43.05840499926029" lon="11.50202361961189"><ele>373.3333333333333</ele><time>2026-04-19T09:08:33Z</time></trkpt><trkpt lat="43.05849518252663" lon="11.502073437671065"><ele>373.0</ele><time>2026-04-19T09:08:34Z</time></trkpt><trkpt lat="43.05858381976877" lon="11.502159615928424"><ele>370.0</ele><time>2026-04-19T09:08:35Z</time></trkpt><trkpt lat="43.05866989184054" lon="11.50227187209803"><ele>367.0</ele><time>2026-04-19T09:08:36Z</time></trkpt><trkpt lat="43.05875323970102" lon="11.502376337726163"><ele>364.0</ele><time>2026-04-19T09:08:37Z</time></trkpt><trkpt lat="43.05884131360001" lon="11.502479066526142"><ele>361.0</ele><time>2026-04-19T09:08:38Z</time></trkpt><trkpt lat="43.0589254391361" lon="11.502578008854062"><ele>361.0</ele><time>2026-04-19T09:08:39Z</time></trkpt><trkpt lat="43.05900824395646" lon="11.502677851303622"><ele>361.0</ele><time>2026-04-19T09:08:40Z</time></trkpt><trkpt lat="43.05908887130057" lon="11.502766683830355"><ele>361.0</ele><time>2026-04-19T09:08:41Z</time></trkpt><trkpt lat="43.05916727885374" lon="11.502853295278333"><ele>361.0</ele><time>2026-04-19T09:08:42Z</time></trkpt><trkpt lat="43.05925719704119" lon="11.502922150800247"><ele>361.0</ele><time>2026-04-19T09:08:43Z</time></trkpt><trkpt lat="43.05936820274724" lon="11.502977634562082"><ele>356.25</ele><time>2026-04-19T09:08:44Z</time></trkpt><trkpt lat="43.05949307133677" lon="11.503014467251834"><ele>351.5</ele><time>2026-04-19T09:08:45Z</time></trkpt><trkpt lat="43.05961128294256" lon="11.503037743818606"><ele>346.75</ele><time>2026-04-19T09:08:46Z</time></trkpt><trkpt lat="43.05972113526051" lon="11.503054948214025"><ele>342.0</ele><time>2026-04-19T09:08:47Z</time></trkpt><trkpt lat="43.05982494185737" lon="11.503067880764984"><ele>342.0</ele><time>2026-04-19T09:08:48Z</time></trkpt><trkpt lat="43.059940291275424" lon="11.503073851677938"><ele>342.0</ele><time>2026-04-19T09:08:49Z</time></trkpt><trkpt lat="43.06004158921399" lon="11.503065040360447"><ele>342.0</ele><time>2026-04-19T09:08:50Z</time></trkpt><trkpt lat="43.06015864324222" lon="11.503041495391235"><ele>342.0</ele><time>2026-04-19T09:08:51Z</time></trkpt><trkpt lat="43.060270208421535" lon="11.502990949286389"><ele>341.0</ele><time>2026-04-19T09:08:52Z</time></trkpt><trkpt lat="43.0603740176831" lon="11.502916383148667"><ele>340.0</ele><time>2026-04-19T09:08:53Z</time></trkpt><trkpt lat="43.060467968979665" lon="11.502815055304708"><ele>339.0</ele><time>2026-04-19T09:08:54Z</time></trkpt><trkpt lat="43.06055607167576" lon="11.50269190327538"><ele>338.0</ele><time>2026-04-19T09:08:55Z</time></trkpt><trkpt lat="43.060634546656686" lon="11.502551248424883"><ele>339.0</ele><time>2026-04-19T09:08:56Z</time></trkpt><trkpt lat="43.06070626195807" lon="11.502415963546877"><ele>340.0</ele><time>2026-04-19T09:08:57Z</time></trkpt><trkpt lat="43.060780228527754" lon="11.50229629798324"><ele>341.0</ele><time>2026-04-19T09:08:58Z</time></trkpt><trkpt lat="43.06086574509167" lon="11.502200070315084"><ele>342.0</ele><time>2026-04-19T09:08:59Z</time></trkpt><trkpt lat="43.06097455856138" lon="11.502149056864138"><ele>342.0</ele><time>2026-04-19T09:09:00Z</time></trkpt><trkpt lat="43.061086572136766" lon="11.502086484646904"><ele>342.0</ele><time>2026-04-19T09:09:01Z</time></trkpt><trkpt lat="43.061214035872105" lon="11.502074300170895"><ele>342.0</ele><time>2026-04-19T09:09:02Z</time></trkpt><trkpt lat="43.061330319647695" lon="11.502070770870098"><ele>342.0</ele><time>2026-04-19T09:09:03Z</time></trkpt><trkpt lat="43.06143770747113" lon="11.50204509827849"><ele>342.0</ele><time>2026-04-19T09:09:04Z</time></trkpt><trkpt lat="43.061516035540265" lon="11.501998920828678"><ele>342.0</ele><time>2026-04-19T09:09:05Z</time></trkpt><trkpt lat="43.06163640360141" lon="11.501939400731484"><ele>342.0</ele><time>2026-04-19T09:09:06Z</time></trkpt><trkpt lat="43.061750075197175" lon="11.501856704635111"><ele>342.0</ele><time>2026-04-19T09:09:07Z</time></trkpt><trkpt lat="43.06186693716625" lon="11.50175468767097"><ele>342.0</ele><time>2026-04-19T09:09:08Z</time></trkpt><trkpt lat="43.061982634158646" lon="11.50164514946304"><ele>342.0</ele><time>2026-04-19T09:09:09Z</time></trkpt><trkpt lat="43.06209532592411" lon="11.501535177815352"><ele>342.0</ele><time>2026-04-19T09:09:10Z</time></trkpt><trkpt lat="43.06220250246696" lon="11.501432931405764"><ele>342.0</ele><time>2026-04-19T09:09:11Z</time></trkpt><trkpt lat="43.06230472960469" lon="11.501337315734036"><ele>340.75</ele><time>2026-04-19T09:09:12Z</time></trkpt><trkpt lat="43.062401613090685" lon="11.501247472211027"><ele>339.5</ele><time>2026-04-19T09:09:13Z</time></trkpt><trkpt lat="43.06250229962412" lon="11.501157699113522"><ele>338.25</ele><time>2026-04-19T09:09:14Z</time></trkpt><trkpt lat="43.06261459388767" lon="11.501074683932597"><ele>337.0</ele><time>2026-04-19T09:09:15Z</time></trkpt><trkpt lat="43.06273258255479" lon="11.501010279124598"><ele>337.0</ele><time>2026-04-19T09:09:16Z</time></trkpt><trkpt lat="43.0628610582887" lon="11.500984575351747"><ele>337.0</ele><time>2026-04-19T09:09:17Z</time></trkpt><trkpt lat="43.06297872770492" lon="11.500978580915572"><ele>337.0</ele><time>2026-04-19T09:09:18Z</time></trkpt><trkpt lat="43.063100338339524" lon="11.501015496588643"><ele>337.0</ele><time>2026-04-19T09:09:19Z</time></trkpt><trkpt lat="43.063227215469006" lon="11.501077735358283"><ele>335.5</ele><time>2026-04-19T09:09:20Z</time></trkpt><trkpt lat="43.06335251927127" lon="11.50114815311503"><ele>334.0</ele><time>2026-04-19T09:09:21Z</time></trkpt><trkpt lat="43.06348125704145" lon="11.501216809169124"><ele>332.5</ele><time>2026-04-19T09:09:22Z</time></trkpt><trkpt lat="43.06361197003519" lon="11.501282225680708"><ele>331.0</ele><time>2026-04-19T09:09:23Z</time></trkpt><trkpt lat="43.06373595787733" lon="11.501347126527879"><ele>329.0</ele><time>2026-04-19T09:09:24Z</time></trkpt><trkpt lat="43.063851509762735" lon="11.501403393937492"><ele>327.0</ele><time>2026-04-19T09:09:25Z</time></trkpt><trkpt lat="43.063962249433104" lon="11.501458332217414"><ele>325.0</ele><time>2026-04-19T09:09:26Z</time></trkpt><trkpt lat="43.06406627137571" lon="11.501514590332903"><ele>323.0</ele><time>2026-04-19T09:09:27Z</time></trkpt><trkpt lat="43.064165629293456" lon="11.501567222350754"><ele>322.79999999999995</ele><time>2026-04-19T09:09:28Z</time></trkpt><trkpt lat="43.06426093005477" lon="11.5016157425544"><ele>322.6</ele><time>2026-04-19T09:09:29Z</time></trkpt><trkpt lat="43.0643535982182" lon="11.501663011875504"><ele>322.4</ele><time>2026-04-19T09:09:30Z</time></trkpt><trkpt lat="43.06445103560414" lon="11.501707952194506"><ele>322.20000000000005</ele><time>2026-04-19T09:09:31Z</time></trkpt><trkpt lat="43.06455780186624" lon="11.501745721426495"><ele>322.0</ele><time>2026-04-19T09:09:32Z</time></trkpt><trkpt lat="43.06467485272697" lon="11.501759571007737"><ele>322.0</ele><time>2026-04-19T09:09:33Z</time></trkpt><trkpt lat="43.06480123219597" lon="11.50174644357187"><ele>322.0</ele><time>2026-04-19T09:09:34Z</time></trkpt><trkpt lat="43.06492855715844" lon="11.501706833439973"><ele>322.0</ele><time>2026-04-19T09:09:35Z</time></trkpt><trkpt lat="43.06504460722426" lon="11.501633951605973"><ele>322.0</ele><time>2026-04-19T09:09:36Z</time></trkpt><trkpt lat="43.06514566357439" lon="11.501554557611453"><ele>321.75</ele><time>2026-04-19T09:09:37Z</time></trkpt><trkpt lat="43.06523483626729" lon="11.50145949617007"><ele>321.5</ele><time>2026-04-19T09:09:38Z</time></trkpt><trkpt lat="43.065316306910695" lon="11.501335944725005"><ele>321.25</ele><time>2026-04-19T09:09:39Z</time></trkpt><trkpt lat="43.065385953376904" lon="11.501196789349391"><ele>321.0</ele><time>2026-04-19T09:09:40Z</time></trkpt><trkpt lat="43.065450265494384" lon="11.50104712702568"><ele>321.0</ele><time>2026-04-19T09:09:41Z</time></trkpt><trkpt lat="43.06551040993812" lon="11.50091235458493"><ele>321.0</ele><time>2026-04-19T09:09:42Z</time></trkpt><trkpt lat="43.065565539980405" lon="11.500800585872279"><ele>321.0</ele><time>2026-04-19T09:09:43Z</time></trkpt><trkpt lat="43.06561151167296" lon="11.500711215981465"><ele>321.0</ele><time>2026-04-19T09:09:44Z</time></trkpt><trkpt lat="43.06565529792236" lon="11.50062428308307"><ele>321.0</ele><time>2026-04-19T09:09:45Z</time></trkpt><trkpt lat="43.06569926762704" lon="11.500540953322195"><ele>321.0</ele><time>2026-04-19T09:09:46Z</time></trkpt><trkpt lat="43.06574413903747" lon="11.500460149293488"><ele>319.6</ele><time>2026-04-19T09:09:47Z</time></trkpt><trkpt lat="43.06580830797332" lon="11.500367094096632"><ele>318.20000000000005</ele><time>2026-04-19T09:09:48Z</time></trkpt><trkpt lat="43.065890387800216" lon="11.500278757695485"><ele>316.79999999999995</ele><time>2026-04-19T09:09:49Z</time></trkpt><trkpt lat="43.06598415949838" lon="11.500210272153913"><ele>315.4</ele><time>2026-04-19T09:09:50Z</time></trkpt><trkpt lat="43.06610598663703" lon="11.500161180037404"><ele>314.0</ele><time>2026-04-19T09:09:51Z</time></trkpt><trkpt lat="43.06622049174717" lon="11.50013830531101"><ele>314.0</ele><time>2026-04-19T09:09:52Z</time></trkpt><trkpt lat="43.06631247772575" lon="11.500081626311204"><ele>314.0</ele><time>2026-04-19T09:09:53Z</time></trkpt><trkpt lat="43.066411275076085" lon="11.50004616080444"><ele>314.0</ele><time>2026-04-19T09:09:54Z</time></trkpt><trkpt lat="43.066517072492466" lon="11.500009755899608"><ele>314.0</ele><time>2026-04-19T09:09:55Z</time></trkpt><trkpt lat="43.06661441578748" lon="11.499973700759586"><ele>314.0</ele><time>2026-04-19T09:09:56Z</time></trkpt><trkpt lat="43.0667180499198" lon="11.49993419275724"><ele>312.0</ele><time>2026-04-19T09:09:57Z</time></trkpt><trkpt lat="43.06682706614327" lon="11.499878904859488"><ele>310.0</ele><time>2026-04-19T09:09:58Z</time></trkpt><trkpt lat="43.06693693291683" lon="11.4998099050881"><ele>308.0</ele><time>2026-04-19T09:09:59Z</time></trkpt><trkpt lat="43.06704682732222" lon="11.499728868059725"><ele>306.0</ele><time>2026-04-19T09:10:00Z</time></trkpt><trkpt lat="43.06715497527201" lon="11.499644433099096"><ele>305.5</ele><time>2026-04-19T09:10:01Z</time></trkpt><trkpt lat="43.06726756383156" lon="11.499569219278932"><ele>305.0</ele><time>2026-04-19T09:10:02Z</time></trkpt><trkpt lat="43.067377408809676" lon="11.499496567340326"><ele>304.5</ele><time>2026-04-19T09:10:03Z</time></trkpt><trkpt lat="43.067486907662975" lon="11.499427114875603"><ele>304.0</ele><time>2026-04-19T09:10:04Z</time></trkpt><trkpt lat="43.06759169827043" lon="11.499358978759716"><ele>304.0</ele><time>2026-04-19T09:10:05Z</time></trkpt><trkpt lat="43.06769903694577" lon="11.499294266964371"><ele>304.0</ele><time>2026-04-19T09:10:06Z</time></trkpt><trkpt lat="43.06781462427666" lon="11.499239434056692"><ele>304.0</ele><time>2026-04-19T09:10:07Z</time></trkpt><trkpt lat="43.06793732960595" lon="11.499211878891098"><ele>304.0</ele><time>2026-04-19T09:10:08Z</time></trkpt><trkpt lat="43.06804726966108" lon="11.49915585305476"><ele>304.0</ele><time>2026-04-19T09:10:09Z</time></trkpt><trkpt lat="43.06816809636989" lon="11.499133372065673"><ele>304.0</ele><time>2026-04-19T09:10:10Z</time></trkpt><trkpt lat="43.06828599459313" lon="11.499102712464703"><ele>304.0</ele><time>2026-04-19T09:10:11Z</time></trkpt><trkpt lat="43.06840348737925" lon="11.49907017713018"><ele>304.0</ele><time>2026-04-19T09:10:12Z</time></trkpt><trkpt lat="43.068528310629596" lon="11.499030622271352"><ele>301.5</ele><time>2026-04-19T09:10:13Z</time></trkpt><trkpt lat="43.06865498154176" lon="11.498994011648422"><ele>299.0</ele><time>2026-04-19T09:10:14Z</time></trkpt><trkpt lat="43.06878097060985" lon="11.498954002573747"><ele>296.5</ele><time>2026-04-19T09:10:15Z</time></trkpt><trkpt lat="43.06890541303408" lon="11.498913156307271"><ele>294.0</ele><time>2026-04-19T09:10:16Z</time></trkpt><trkpt lat="43.0690338583495" lon="11.498868108821538"><ele>292.75</ele><time>2026-04-19T09:10:17Z</time></trkpt><trkpt lat="43.06916963412271" lon="11.498823119834837"><ele>291.5</ele><time>2026-04-19T09:10:18Z</time></trkpt><trkpt lat="43.06931444281859" lon="11.498785202674316"><ele>290.25</ele><time>2026-04-19T09:10:19Z</time></trkpt><trkpt lat="43.06945310407112" lon="11.498741750394462"><ele>289.0</ele><time>2026-04-19T09:10:20Z</time></trkpt><trkpt lat="43.069594169230484" lon="11.498700818687976"><ele>289.0</ele><time>2026-04-19T09:10:21Z</time></trkpt><trkpt lat="43.069732219893154" lon="11.498662527829442"><ele>289.0</ele><time>2026-04-19T09:10:22Z</time></trkpt><trkpt lat="43.069857174661735" lon="11.49862639982883"><ele>289.0</ele><time>2026-04-19T09:10:23Z</time></trkpt><trkpt lat="43.06997414905149" lon="11.498593074196126"><ele>289.0</ele><time>2026-04-19T09:10:24Z</time></trkpt><trkpt lat="43.07008397469955" lon="11.49854222684828"><ele>288.0</ele><time>2026-04-19T09:10:25Z</time></trkpt><trkpt lat="43.07019160297623" lon="11.498473982474637"><ele>287.0</ele><time>2026-04-19T09:10:26Z</time></trkpt><trkpt lat="43.07031296193042" lon="11.498400000055012"><ele>286.0</ele><time>2026-04-19T09:10:27Z</time></trkpt><trkpt lat="43.07044099116184" lon="11.498314928102413"><ele>285.0</ele><time>2026-04-19T09:10:28Z</time></trkpt><trkpt lat="43.07056126343662" lon="11.498216915845475"><ele>285.0</ele><time>2026-04-19T09:10:29Z</time></trkpt><trkpt lat="43.070686864350726" lon="11.498126953435133"><ele>285.0</ele><time>2026-04-19T09:10:30Z</time></trkpt><trkpt lat="43.07080256177056" lon="11.498026836395425"><ele>285.0</ele><time>2026-04-19T09:10:31Z</time></trkpt><trkpt lat="43.0709183918897" lon="11.497937449218353"><ele>285.0</ele><time>2026-04-19T09:10:32Z</time></trkpt><trkpt lat="43.07103384474804" lon="11.49784882232461"><ele>283.0</ele><time>2026-04-19T09:10:33Z</time></trkpt><trkpt lat="43.071147080703135" lon="11.497763218738967"><ele>281.0</ele><time>2026-04-19T09:10:34Z</time></trkpt><trkpt lat="43.07125921531093" lon="11.497677424558168"><ele>279.0</ele><time>2026-04-19T09:10:35Z</time></trkpt><trkpt lat="43.071366030391225" lon="11.49759592814133"><ele>277.0</ele><time>2026-04-19T09:10:36Z</time></trkpt><trkpt lat="43.071480343371285" lon="11.49751100040633"><ele>277.0</ele><time>2026-04-19T09:10:37Z</time></trkpt><trkpt lat="43.071595564053936" lon="11.497423443474089"><ele>277.0</ele><time>2026-04-19T09:10:38Z</time></trkpt><trkpt lat="43.07170955150033" lon="11.497337462505772"><ele>277.0</ele><time>2026-04-19T09:10:39Z</time></trkpt><trkpt lat="43.07182425932734" lon="11.497246768813223"><ele>277.0</ele><time>2026-04-19T09:10:40Z</time></trkpt><trkpt lat="43.07193965470876" lon="11.497155253241448"><ele>276.0</ele><time>2026-04-19T09:10:41Z</time></trkpt><trkpt lat="43.07205870323958" lon="11.497063344176013"><ele>275.0</ele><time>2026-04-19T09:10:42Z</time></trkpt><trkpt lat="43.072176520357175" lon="11.496973379563954"><ele>274.0</ele><time>2026-04-19T09:10:43Z</time></trkpt><trkpt lat="43.07229832534717" lon="11.496880445160194"><ele>273.0</ele><time>2026-04-19T09:10:44Z</time></trkpt><trkpt lat="43.072424845223416" lon="11.496789609078835"><ele>273.75</ele><time>2026-04-19T09:10:45Z</time></trkpt><trkpt lat="43.072552605765765" lon="11.496701110124143"><ele>274.5</ele><time>2026-04-19T09:10:46Z</time></trkpt><trkpt lat="43.07268742450396" lon="11.496614648134662"><ele>275.25</ele><time>2026-04-19T09:10:47Z</time></trkpt><trkpt lat="43.072824891685265" lon="11.496538996892443"><ele>276.0</ele><time>2026-04-19T09:10:48Z</time></trkpt><trkpt lat="43.072960961750425" lon="11.49647394504073"><ele>276.0</ele><time>2026-04-19T09:10:49Z</time></trkpt><trkpt lat="43.073097389368534" lon="11.496408460362323"><ele>276.0</ele><time>2026-04-19T09:10:50Z</time></trkpt><trkpt lat="43.073233640047825" lon="11.496349818839292"><ele>276.0</ele><time>2026-04-19T09:10:51Z</time></trkpt><trkpt lat="43.0733692109792" lon="11.496296448060455"><ele>276.0</ele><time>2026-04-19T09:10:52Z</time></trkpt><trkpt lat="43.07350467405983" lon="11.496241084332537"><ele>273.25</ele><time>2026-04-19T09:10:53Z</time></trkpt><trkpt lat="43.073633070006906" lon="11.496178390566316"><ele>270.5</ele><time>2026-04-19T09:10:54Z</time></trkpt><trkpt lat="43.07375872111158" lon="11.496109115508004"><ele>267.75</ele><time>2026-04-19T09:10:55Z</time></trkpt><trkpt lat="43.07388268870703" lon="11.496029615311429"><ele>265.0</ele><time>2026-04-19T09:10:56Z</time></trkpt><trkpt lat="43.074005766981315" lon="11.49594225749768"><ele>264.75</ele><time>2026-04-19T09:10:57Z</time></trkpt><trkpt lat="43.07412924637142" lon="11.495841951742136"><ele>264.5</ele><time>2026-04-19T09:10:58Z</time></trkpt><trkpt lat="43.07425159588604" lon="11.495743460694973"><ele>264.25</ele><time>2026-04-19T09:10:59Z</time></trkpt><trkpt lat="43.07437695007089" lon="11.495642060834818"><ele>264.0</ele><time>2026-04-19T09:11:00Z</time></trkpt><trkpt lat="43.07450068119225" lon="11.495538710448182"><ele>264.0</ele><time>2026-04-19T09:11:01Z</time></trkpt><trkpt lat="43.07462928885297" lon="11.495426410152522"><ele>264.0</ele><time>2026-04-19T09:11:02Z</time></trkpt><trkpt lat="43.07474969418431" lon="11.495324370500644"><ele>264.0</ele><time>2026-04-19T09:11:03Z</time></trkpt><trkpt lat="43.074867220217676" lon="11.495228143803137"><ele>264.0</ele><time>2026-04-19T09:11:04Z</time></trkpt><trkpt lat="43.07497845371403" lon="11.495131119501218"><ele>262.5</ele><time>2026-04-19T09:11:05Z</time></trkpt><trkpt lat="43.07508448167759" lon="11.495039533777422"><ele>261.0</ele><time>2026-04-19T09:11:06Z</time></trkpt><trkpt lat="43.07519241771491" lon="11.49494865670549"><ele>259.5</ele><time>2026-04-19T09:11:07Z</time></trkpt><trkpt lat="43.075300705898435" lon="11.49485662348324"><ele>258.0</ele><time>2026-04-19T09:11:08Z</time></trkpt><trkpt lat="43.075412392963386" lon="11.494762472933083"><ele>258.0</ele><time>2026-04-19T09:11:09Z</time></trkpt><trkpt lat="43.07552301446082" lon="11.49466567164009"><ele>258.0</ele><time>2026-04-19T09:11:10Z</time></trkpt><trkpt lat="43.075637095749514" lon="11.494561622248307"><ele>258.0</ele><time>2026-04-19T09:11:11Z</time></trkpt><trkpt lat="43.075752735068946" lon="11.494455988914405"><ele>258.0</ele><time>2026-04-19T09:11:12Z</time></trkpt><trkpt lat="43.07586489948471" lon="11.494338488711215"><ele>256.75</ele><time>2026-04-19T09:11:13Z</time></trkpt><trkpt lat="43.0759778200484" lon="11.49422292456994"><ele>255.5</ele><time>2026-04-19T09:11:14Z</time></trkpt><trkpt lat="43.076091699049186" lon="11.494104275789061"><ele>254.25</ele><time>2026-04-19T09:11:15Z</time></trkpt><trkpt lat="43.076205788563946" lon="11.493990730772756"><ele>253.0</ele><time>2026-04-19T09:11:16Z</time></trkpt><trkpt lat="43.07631779552742" lon="11.493872928897902"><ele>253.0</ele><time>2026-04-19T09:11:17Z</time></trkpt><trkpt lat="43.076421771616424" lon="11.493762960198573"><ele>253.0</ele><time>2026-04-19T09:11:18Z</time></trkpt><trkpt lat="43.07652147485943" lon="11.493658265752437"><ele>253.0</ele><time>2026-04-19T09:11:19Z</time></trkpt><trkpt lat="43.076614848918716" lon="11.493560251225254"><ele>253.0</ele><time>2026-04-19T09:11:20Z</time></trkpt><trkpt lat="43.07671000254499" lon="11.493458778558802"><ele>252.5</ele><time>2026-04-19T09:11:21Z</time></trkpt><trkpt lat="43.076810695157086" lon="11.493357787572773"><ele>252.0</ele><time>2026-04-19T09:11:22Z</time></trkpt><trkpt lat="43.07691697390935" lon="11.493267822396707"><ele>251.5</ele><time>2026-04-19T09:11:23Z</time></trkpt><trkpt lat="43.07702807318567" lon="11.4931746914365"><ele>251.0</ele><time>2026-04-19T09:11:24Z</time></trkpt><trkpt lat="43.07714353565494" lon="11.493097432641594"><ele>251.0</ele><time>2026-04-19T09:11:25Z</time></trkpt><trkpt lat="43.07724412234878" lon="11.493042113218637"><ele>251.00000000000003</ele><time>2026-04-19T09:11:26Z</time></trkpt><trkpt lat="43.077319568213575" lon="11.492998921435392"><ele>251.00000000000003</ele><time>2026-04-19T09:11:27Z</time></trkpt><trkpt lat="43.077384081003714" lon="11.492961702538032"><ele>251.0</ele><time>2026-04-19T09:11:28Z</time></trkpt><trkpt lat="43.077446147804864" lon="11.4929235209233"><ele>251.0</ele><time>2026-04-19T09:11:29Z</time></trkpt><trkpt lat="43.07757508378755" lon="11.492843956893017"><ele>250.8</ele><time>2026-04-19T09:11:31Z</time></trkpt><trkpt lat="43.07766672905132" lon="11.49278194807888"><ele>250.60000000000002</ele><time>2026-04-19T09:11:32Z</time></trkpt><trkpt lat="43.077761516703376" lon="11.492718363462439"><ele>250.4</ele><time>2026-04-19T09:11:33Z</time></trkpt><trkpt lat="43.077851269076234" lon="11.492648485139213"><ele>250.2</ele><time>2026-04-19T09:11:34Z</time></trkpt><trkpt lat="43.077931317706366" lon="11.492556077162718"><ele>250.0</ele><time>2026-04-19T09:11:35Z</time></trkpt><trkpt lat="43.07799356172424" lon="11.492441432071864"><ele>250.0</ele><time>2026-04-19T09:11:36Z</time></trkpt><trkpt lat="43.07805475221347" lon="11.492297038161137"><ele>250.0</ele><time>2026-04-19T09:11:37Z</time></trkpt><trkpt lat="43.07810242116639" lon="11.492121945169524"><ele>250.0</ele><time>2026-04-19T09:11:38Z</time></trkpt><trkpt lat="43.07812868517786" lon="11.491949415882367"><ele>250.0</ele><time>2026-04-19T09:11:39Z</time></trkpt><trkpt lat="43.0781432955217" lon="11.491775123449472"><ele>249.75</ele><time>2026-04-19T09:11:40Z</time></trkpt><trkpt lat="43.07816225774819" lon="11.491594607820666"><ele>249.5</ele><time>2026-04-19T09:11:41Z</time></trkpt><trkpt lat="43.07818458154215" lon="11.491425320932942"><ele>249.25</ele><time>2026-04-19T09:11:42Z</time></trkpt><trkpt lat="43.07820338996462" lon="11.49126935936787"><ele>249.0</ele><time>2026-04-19T09:11:43Z</time></trkpt><trkpt lat="43.07822414425663" lon="11.491118696672823"><ele>248.5</ele><time>2026-04-19T09:11:44Z</time></trkpt><trkpt lat="43.07825667896296" lon="11.49097112499557"><ele>248.0</ele><time>2026-04-19T09:11:45Z</time></trkpt><trkpt lat="43.07830134852867" lon="11.490811270349534"><ele>247.5</ele><time>2026-04-19T09:11:46Z</time></trkpt><trkpt lat="43.07836271301628" lon="11.490658213662046"><ele>247.0</ele><time>2026-04-19T09:11:47Z</time></trkpt><trkpt lat="43.07842600415014" lon="11.490519807781407"><ele>245.6</ele><time>2026-04-19T09:11:48Z</time></trkpt><trkpt lat="43.07847549648869" lon="11.490384856772879"><ele>244.2</ele><time>2026-04-19T09:11:49Z</time></trkpt><trkpt lat="43.07851156768907" lon="11.490251731930222"><ele>242.8</ele><time>2026-04-19T09:11:50Z</time></trkpt><trkpt lat="43.078533477106674" lon="11.490119732222928"><ele>241.4</ele><time>2026-04-19T09:11:51Z</time></trkpt><trkpt lat="43.07853834250308" lon="11.489978825553269"><ele>240.0</ele><time>2026-04-19T09:11:52Z</time></trkpt><trkpt lat="43.07852416503846" lon="11.489808816117469"><ele>240.0</ele><time>2026-04-19T09:11:53Z</time></trkpt><trkpt lat="43.078490138276514" lon="11.489636650442653"><ele>240.0</ele><time>2026-04-19T09:11:54Z</time></trkpt><trkpt lat="43.078438796243816" lon="11.489480377357067"><ele>240.0</ele><time>2026-04-19T09:11:55Z</time></trkpt><trkpt lat="43.07839043591469" lon="11.489325633000085"><ele>240.0</ele><time>2026-04-19T09:11:56Z</time></trkpt><trkpt lat="43.07835959962772" lon="11.489172677039395"><ele>239.6</ele><time>2026-04-19T09:11:57Z</time></trkpt><trkpt lat="43.078353399553805" lon="11.489020424820634"><ele>239.2</ele><time>2026-04-19T09:11:58Z</time></trkpt><trkpt lat="43.07837546278093" lon="11.488879832347218"><ele>238.8</ele><time>2026-04-19T09:11:59Z</time></trkpt><trkpt lat="43.07841714975217" lon="11.48875274045551"><ele>238.4</ele><time>2026-04-19T09:12:00Z</time></trkpt><trkpt lat="43.07847495397076" lon="11.488633162674923"><ele>238.0</ele><time>2026-04-19T09:12:01Z</time></trkpt><trkpt lat="43.07855941157949" lon="11.488526208593516"><ele>238.0</ele><time>2026-04-19T09:12:02Z</time></trkpt><trkpt lat="43.07868230660909" lon="11.488466557000933"><ele>238.0</ele><time>2026-04-19T09:12:03Z</time></trkpt><trkpt lat="43.07881084068985" lon="11.488377672315453"><ele>238.0</ele><time>2026-04-19T09:12:04Z</time></trkpt><trkpt lat="43.07894533985947" lon="11.48829938598575"><ele>238.0</ele><time>2026-04-19T09:12:05Z</time></trkpt><trkpt lat="43.07907623378038" lon="11.48820855466107"><ele>238.0</ele><time>2026-04-19T09:12:06Z</time></trkpt><trkpt lat="43.07920017219154" lon="11.488122537392824"><ele>238.0</ele><time>2026-04-19T09:12:07Z</time></trkpt><trkpt lat="43.07932108859403" lon="11.488045447345435"><ele>238.0</ele><time>2026-04-19T09:12:08Z</time></trkpt><trkpt lat="43.07943153403572" lon="11.487952851921623"><ele>238.0</ele><time>2026-04-19T09:12:09Z</time></trkpt><trkpt lat="43.07953770012872" lon="11.487865906834127"><ele>238.0</ele><time>2026-04-19T09:12:10Z</time></trkpt><trkpt lat="43.07963912324013" lon="11.487777010659423"><ele>238.0</ele><time>2026-04-19T09:12:11Z</time></trkpt><trkpt lat="43.079735344219195" lon="11.487686390947989"><ele>238.0</ele><time>2026-04-19T09:12:12Z</time></trkpt><trkpt lat="43.07982956131022" lon="11.487585175759735"><ele>238.0</ele><time>2026-04-19T09:12:13Z</time></trkpt><trkpt lat="43.079912708442535" lon="11.487466671945885"><ele>236.0</ele><time>2026-04-19T09:12:14Z</time></trkpt><trkpt lat="43.07998033967389" lon="11.487335387366054"><ele>234.0</ele><time>2026-04-19T09:12:15Z</time></trkpt><trkpt lat="43.080041105796774" lon="11.487195880579657"><ele>232.0</ele><time>2026-04-19T09:12:16Z</time></trkpt><trkpt lat="43.08009961106874" lon="11.48705209388038"><ele>230.0</ele><time>2026-04-19T09:12:17Z</time></trkpt><trkpt lat="43.08015816477051" lon="11.486901555665455"><ele>230.0</ele><time>2026-04-19T09:12:18Z</time></trkpt><trkpt lat="43.08022472613826" lon="11.486749173065366"><ele>230.0</ele><time>2026-04-19T09:12:19Z</time></trkpt><trkpt lat="43.080303734347716" lon="11.486603651630558"><ele>230.0</ele><time>2026-04-19T09:12:20Z</time></trkpt><trkpt lat="43.08039674269308" lon="11.486466193913836"><ele>230.0</ele><time>2026-04-19T09:12:21Z</time></trkpt><trkpt lat="43.080501159612446" lon="11.486333879412832"><ele>231.25</ele><time>2026-04-19T09:12:22Z</time></trkpt><trkpt lat="43.080611171673795" lon="11.486208526414288"><ele>232.5</ele><time>2026-04-19T09:12:23Z</time></trkpt><trkpt lat="43.0807195160233" lon="11.486083020488755"><ele>233.75</ele><time>2026-04-19T09:12:24Z</time></trkpt><trkpt lat="43.08081698535347" lon="11.48594860179126"><ele>235.0</ele><time>2026-04-19T09:12:25Z</time></trkpt><trkpt lat="43.0809015591826" lon="11.48580632580748"><ele>230.5</ele><time>2026-04-19T09:12:26Z</time></trkpt><trkpt lat="43.080966729784805" lon="11.48565537659359"><ele>226.0</ele><time>2026-04-19T09:12:27Z</time></trkpt><trkpt lat="43.08101398217452" lon="11.485498279408136"><ele>221.5</ele><time>2026-04-19T09:12:28Z</time></trkpt><trkpt lat="43.08104320233701" lon="11.485324014036692"><ele>217.0</ele><time>2026-04-19T09:12:29Z</time></trkpt><trkpt lat="43.08106595220999" lon="11.485139134967353"><ele>217.0</ele><time>2026-04-19T09:12:30Z</time></trkpt><trkpt lat="43.08108624236987" lon="11.484950710150194"><ele>217.0</ele><time>2026-04-19T09:12:31Z</time></trkpt><trkpt lat="43.08110353067243" lon="11.484772364295171"><ele>217.0</ele><time>2026-04-19T09:12:32Z</time></trkpt><trkpt lat="43.08113296345032" lon="11.484611063151366"><ele>217.0</ele><time>2026-04-19T09:12:33Z</time></trkpt><trkpt lat="43.081184690410765" lon="11.484478157399739"><ele>217.25</ele><time>2026-04-19T09:12:34Z</time></trkpt><trkpt lat="43.081258481070385" lon="11.484371053351868"><ele>217.5</ele><time>2026-04-19T09:12:35Z</time></trkpt><trkpt lat="43.081355892410194" lon="11.484297563848928"><ele>217.75</ele><time>2026-04-19T09:12:36Z</time></trkpt><trkpt lat="43.081474687892026" lon="11.484257785908188"><ele>218.0</ele><time>2026-04-19T09:12:37Z</time></trkpt><trkpt lat="43.08160307686466" lon="11.484265794375855"><ele>216.25</ele><time>2026-04-19T09:12:38Z</time></trkpt><trkpt lat="43.08172886656658" lon="11.484334446043857"><ele>214.5</ele><time>2026-04-19T09:12:39Z</time></trkpt><trkpt lat="43.08185965889744" lon="11.484390884553173"><ele>212.75</ele><time>2026-04-19T09:12:40Z</time></trkpt><trkpt lat="43.08200111301433" lon="11.484459465371456"><ele>211.0</ele><time>2026-04-19T09:12:41Z</time></trkpt><trkpt lat="43.08212753854784" lon="11.484520195860556"><ele>211.0</ele><time>2026-04-19T09:12:42Z</time></trkpt><trkpt lat="43.08224871193809" lon="11.484576451226825"><ele>211.0</ele><time>2026-04-19T09:12:43Z</time></trkpt><trkpt lat="43.08236739535013" lon="11.484620842308042"><ele>211.0</ele><time>2026-04-19T09:12:44Z</time></trkpt><trkpt lat="43.08248567849188" lon="11.484665851912062"><ele>211.0</ele><time>2026-04-19T09:12:45Z</time></trkpt><trkpt lat="43.08262299911519" lon="11.484653580250566"><ele>209.5</ele><time>2026-04-19T09:12:46Z</time></trkpt><trkpt lat="43.08275989509087" lon="11.48462865107333"><ele>208.0</ele><time>2026-04-19T09:12:47Z</time></trkpt><trkpt lat="43.08290346205635" lon="11.48458058266813"><ele>206.5</ele><time>2026-04-19T09:12:48Z</time></trkpt><trkpt lat="43.0830426219701" lon="11.484509016427765"><ele>205.0</ele><time>2026-04-19T09:12:49Z</time></trkpt><trkpt lat="43.08318838784485" lon="11.484422437586268"><ele>201.33333333333331</ele><time>2026-04-19T09:12:50Z</time></trkpt><trkpt lat="43.08333120275239" lon="11.484338931205066"><ele>197.66666666666669</ele><time>2026-04-19T09:12:51Z</time></trkpt><trkpt lat="43.08347744123339" lon="11.484275472986686"><ele>194.0</ele><time>2026-04-19T09:12:52Z</time></trkpt><trkpt lat="43.083619394340815" lon="11.48421355313975"><ele>194.0</ele><time>2026-04-19T09:12:53Z</time></trkpt><trkpt lat="43.08377090966639" lon="11.484152165078878"><ele>194.0</ele><time>2026-04-19T09:12:54Z</time></trkpt><trkpt lat="43.083938240569026" lon="11.484143480559595"><ele>194.0</ele><time>2026-04-19T09:12:55Z</time></trkpt><trkpt lat="43.08410955347108" lon="11.484128988515828"><ele>191.33333333333334</ele><time>2026-04-19T09:12:56Z</time></trkpt><trkpt lat="43.084280285809825" lon="11.484100336059933"><ele>188.66666666666669</ele><time>2026-04-19T09:12:57Z</time></trkpt><trkpt lat="43.084444739639956" lon="11.484096410576726"><ele>186.0</ele><time>2026-04-19T09:12:58Z</time></trkpt><trkpt lat="43.08460293558183" lon="11.484085828810558"><ele>186.0</ele><time>2026-04-19T09:12:59Z</time></trkpt><trkpt lat="43.084759204715546" lon="11.484066873812772"><ele>186.0</ele><time>2026-04-19T09:13:00Z</time></trkpt><trkpt lat="43.084911343187265" lon="11.484050136165973"><ele>186.0</ele><time>2026-04-19T09:13:01Z</time></trkpt><trkpt lat="43.08507396340288" lon="11.484036313667344"><ele>183.33333333333334</ele><time>2026-04-19T09:13:02Z</time></trkpt><trkpt lat="43.085242015242706" lon="11.484019908943035"><ele>180.66666666666669</ele><time>2026-04-19T09:13:03Z</time></trkpt><trkpt lat="43.08541254062235" lon="11.484002904077137"><ele>178.0</ele><time>2026-04-19T09:13:04Z</time></trkpt><trkpt lat="43.08558465708531" lon="11.483986782629668"><ele>178.0</ele><time>2026-04-19T09:13:05Z</time></trkpt><trkpt lat="43.08575255112279" lon="11.483977067252086"><ele>178.0</ele><time>2026-04-19T09:13:06Z</time></trkpt><trkpt lat="43.085918145758136" lon="11.48395856483408"><ele>178.0</ele><time>2026-04-19T09:13:07Z</time></trkpt><trkpt lat="43.08607974928089" lon="11.483943020743212"><ele>175.0</ele><time>2026-04-19T09:13:08Z</time></trkpt><trkpt lat="43.086235877772076" lon="11.483928740969114"><ele>172.0</ele><time>2026-04-19T09:13:09Z</time></trkpt><trkpt lat="43.08638381875077" lon="11.483927703119155"><ele>169.0</ele><time>2026-04-19T09:13:10Z</time></trkpt><trkpt lat="43.08652597864315" lon="11.483968991526035"><ele>168.0</ele><time>2026-04-19T09:13:11Z</time></trkpt><trkpt lat="43.08666695497671" lon="11.484017530386016"><ele>167.0</ele><time>2026-04-19T09:13:12Z</time></trkpt><trkpt lat="43.08680118600552" lon="11.484095162020251"><ele>166.0</ele><time>2026-04-19T09:13:13Z</time></trkpt><trkpt lat="43.0869381651115" lon="11.484184092187986"><ele>165.0</ele><time>2026-04-19T09:13:14Z</time></trkpt><trkpt lat="43.087053409744414" lon="11.484336458122973"><ele>165.0</ele><time>2026-04-19T09:13:15Z</time></trkpt><trkpt lat="43.087164538779696" lon="11.484505446669294"><ele>165.0</ele><time>2026-04-19T09:13:16Z</time></trkpt><trkpt lat="43.08727359953726" lon="11.484684548335832"><ele>165.0</ele><time>2026-04-19T09:13:17Z</time></trkpt><trkpt lat="43.08739150890089" lon="11.484857393874133"><ele>164.33333333333334</ele><time>2026-04-19T09:13:18Z</time></trkpt><trkpt lat="43.087492816197226" lon="11.48502993143756"><ele>163.66666666666669</ele><time>2026-04-19T09:13:19Z</time></trkpt><trkpt lat="43.08758723348125" lon="11.485196155286676"><ele>163.0</ele><time>2026-04-19T09:13:20Z</time></trkpt><trkpt lat="43.08767601905191" lon="11.485354436968299"><ele>161.75</ele><time>2026-04-19T09:13:21Z</time></trkpt><trkpt lat="43.087759888426156" lon="11.485494241248473"><ele>160.5</ele><time>2026-04-19T09:13:22Z</time></trkpt><trkpt lat="43.087841252091124" lon="11.485630166944325"><ele>159.25</ele><time>2026-04-19T09:13:23Z</time></trkpt><trkpt lat="43.087927534338185" lon="11.48577037054768"><ele>158.0</ele><time>2026-04-19T09:13:24Z</time></trkpt><trkpt lat="43.08802431792491" lon="11.485932900119353"><ele>158.0</ele><time>2026-04-19T09:13:25Z</time></trkpt><trkpt lat="43.08812878463916" lon="11.486110829129451"><ele>158.0</ele><time>2026-04-19T09:13:26Z</time></trkpt><trkpt lat="43.088238153531066" lon="11.4862835348224"><ele>158.0</ele><time>2026-04-19T09:13:27Z</time></trkpt><trkpt lat="43.08835156077098" lon="11.486441400136064"><ele>158.0</ele><time>2026-04-19T09:13:28Z</time></trkpt><trkpt lat="43.08847431213552" lon="11.486576091727734"><ele>158.0</ele><time>2026-04-19T09:13:29Z</time></trkpt><trkpt lat="43.088615010548615" lon="11.48669032345579"><ele>158.0</ele><time>2026-04-19T09:13:30Z</time></trkpt><trkpt lat="43.088764714418204" lon="11.486763544126244"><ele>158.0</ele><time>2026-04-19T09:13:31Z</time></trkpt><trkpt lat="43.088913610877945" lon="11.486801360315168"><ele>158.0</ele><time>2026-04-19T09:13:32Z</time></trkpt><trkpt lat="43.08907069551313" lon="11.486810741001019"><ele>158.0</ele><time>2026-04-19T09:13:33Z</time></trkpt><trkpt lat="43.089246298976875" lon="11.486786474891181"><ele>158.0</ele><time>2026-04-19T09:13:34Z</time></trkpt><trkpt lat="43.08943627441724" lon="11.486744967354714"><ele>158.0</ele><time>2026-04-19T09:13:35Z</time></trkpt><trkpt lat="43.08963273517759" lon="11.48671035242712"><ele>158.0</ele><time>2026-04-19T09:13:36Z</time></trkpt><trkpt lat="43.08983105944397" lon="11.486679535647928"><ele>158.0</ele><time>2026-04-19T09:13:37Z</time></trkpt><trkpt lat="43.09001900963883" lon="11.486649330901045"><ele>158.0</ele><time>2026-04-19T09:13:38Z</time></trkpt><trkpt lat="43.09019864263444" lon="11.486621511657498"><ele>158.0</ele><time>2026-04-19T09:13:39Z</time></trkpt><trkpt lat="43.09037567955079" lon="11.486594545094212"><ele>158.0</ele><time>2026-04-19T09:13:40Z</time></trkpt><trkpt lat="43.09055437009192" lon="11.486569843981059"><ele>158.0</ele><time>2026-04-19T09:13:41Z</time></trkpt><trkpt lat="43.09072810986252" lon="11.486543614164313"><ele>158.0</ele><time>2026-04-19T09:13:42Z</time></trkpt><trkpt lat="43.09090665346058" lon="11.486515940009914"><ele>157.66666666666666</ele><time>2026-04-19T09:13:43Z</time></trkpt><trkpt lat="43.091089780594224" lon="11.486490912515443"><ele>157.33333333333334</ele><time>2026-04-19T09:13:44Z</time></trkpt><trkpt lat="43.09126761667119" lon="11.486468598032259"><ele>157.0</ele><time>2026-04-19T09:13:45Z</time></trkpt><trkpt lat="43.09144469644548" lon="11.486443931008967"><ele>156.0</ele><time>2026-04-19T09:13:46Z</time></trkpt><trkpt lat="43.09161865767576" lon="11.486418296387543"><ele>155.0</ele><time>2026-04-19T09:13:47Z</time></trkpt><trkpt lat="43.0917831030154" lon="11.486391665571501"><ele>154.0</ele><time>2026-04-19T09:13:48Z</time></trkpt><trkpt lat="43.09194080229854" lon="11.486368343727122"><ele>154.0</ele><time>2026-04-19T09:13:49Z</time></trkpt><trkpt lat="43.092089706386396" lon="11.486349399524645"><ele>154.0</ele><time>2026-04-19T09:13:50.001Z</time></trkpt><trkpt lat="43.092237141908264" lon="11.48633048756727"><ele>154.0</ele><time>2026-04-19T09:13:51Z</time></trkpt><trkpt lat="43.09239090799133" lon="11.486309153851176"><ele>154.33333333333334</ele><time>2026-04-19T09:13:52Z</time></trkpt><trkpt lat="43.09255282855686" lon="11.486285355620295"><ele>154.66666666666666</ele><time>2026-04-19T09:13:53Z</time></trkpt><trkpt lat="43.092719040397085" lon="11.486261891497199"><ele>155.0</ele><time>2026-04-19T09:13:54Z</time></trkpt><trkpt lat="43.09289554637024" lon="11.486237129354627"><ele>155.0</ele><time>2026-04-19T09:13:55Z</time></trkpt><trkpt lat="43.09307527934387" lon="11.48621220841785"><ele>155.0</ele><time>2026-04-19T09:13:56Z</time></trkpt><trkpt lat="43.09325869314629" lon="11.48618563950583"><ele>155.0</ele><time>2026-04-19T09:13:57Z</time></trkpt><trkpt lat="43.093444663494516" lon="11.486158751163186"><ele>155.66666666666666</ele><time>2026-04-19T09:13:58Z</time></trkpt><trkpt lat="43.093623714701906" lon="11.486134929522938"><ele>156.33333333333334</ele><time>2026-04-19T09:13:59Z</time></trkpt><trkpt lat="43.09379187628453" lon="11.486112932251627"><ele>157.0</ele><time>2026-04-19T09:14:00Z</time></trkpt><trkpt lat="43.093965034862755" lon="11.486088115055342"><ele>156.66666666666669</ele><time>2026-04-19T09:14:01Z</time></trkpt><trkpt lat="43.094139144232145" lon="11.486057029401435"><ele>156.33333333333334</ele><time>2026-04-19T09:14:02Z</time></trkpt><trkpt lat="43.09431330661974" lon="11.486015336061707"><ele>156.0</ele><time>2026-04-19T09:14:03Z</time></trkpt><trkpt lat="43.09448239507034" lon="11.485952510690076"><ele>156.0</ele><time>2026-04-19T09:14:04Z</time></trkpt><trkpt lat="43.09464786608058" lon="11.485870070127795"><ele>156.0</ele><time>2026-04-19T09:14:05Z</time></trkpt><trkpt lat="43.09481402530747" lon="11.485790220958263"><ele>156.0</ele><time>2026-04-19T09:14:06Z</time></trkpt><trkpt lat="43.09497363854444" lon="11.485719927345151"><ele>154.33333333333334</ele><time>2026-04-19T09:14:07Z</time></trkpt><trkpt lat="43.095130726039635" lon="11.485653005504142"><ele>152.66666666666669</ele><time>2026-04-19T09:14:08Z</time></trkpt><trkpt lat="43.095288197791895" lon="11.485591167087822"><ele>151.0</ele><time>2026-04-19T09:14:09Z</time></trkpt><trkpt lat="43.09544529612383" lon="11.485533763952203"><ele>151.0</ele><time>2026-04-19T09:14:10Z</time></trkpt><trkpt lat="43.095602974151376" lon="11.48547878886714"><ele>151.0</ele><time>2026-04-19T09:14:11Z</time></trkpt><trkpt lat="43.095757577048964" lon="11.48542485275426"><ele>151.0</ele><time>2026-04-19T09:14:12Z</time></trkpt><trkpt lat="43.095911569896266" lon="11.485362105532571"><ele>151.66666666666669</ele><time>2026-04-19T09:14:13Z</time></trkpt><trkpt lat="43.096062519915044" lon="11.485285843959765"><ele>152.33333333333334</ele><time>2026-04-19T09:14:14Z</time></trkpt><trkpt lat="43.09621360708974" lon="11.485181992372762"><ele>153.0</ele><time>2026-04-19T09:14:15Z</time></trkpt><trkpt lat="43.09636410209383" lon="11.485057442118594"><ele>153.0</ele><time>2026-04-19T09:14:16Z</time></trkpt><trkpt lat="43.09651165479185" lon="11.484920674913171"><ele>153.0</ele><time>2026-04-19T09:14:17Z</time></trkpt><trkpt lat="43.09665649094761" lon="11.484787555642718"><ele>153.0</ele><time>2026-04-19T09:14:18Z</time></trkpt><trkpt lat="43.096803408148524" lon="11.484657569027949"><ele>151.66666666666666</ele><time>2026-04-19T09:14:19Z</time></trkpt><trkpt lat="43.09695659543709" lon="11.484526754477782"><ele>150.33333333333331</ele><time>2026-04-19T09:14:20Z</time></trkpt><trkpt lat="43.097112248167925" lon="11.484391019082148"><ele>149.0</ele><time>2026-04-19T09:14:21Z</time></trkpt><trkpt lat="43.09726616513806" lon="11.484260512790698"><ele>149.66666666666666</ele><time>2026-04-19T09:14:22Z</time></trkpt><trkpt lat="43.09741980599354" lon="11.484133066112747"><ele>150.33333333333334</ele><time>2026-04-19T09:14:23Z</time></trkpt><trkpt lat="43.09757245811694" lon="11.484012440624028"><ele>151.0</ele><time>2026-04-19T09:14:24Z</time></trkpt><trkpt lat="43.09773025730711" lon="11.48389691950252"><ele>151.0</ele><time>2026-04-19T09:14:25Z</time></trkpt><trkpt lat="43.09789184108866" lon="11.483801982586414"><ele>151.0</ele><time>2026-04-19T09:14:26Z</time></trkpt><trkpt lat="43.09806212800151" lon="11.483721919177713"><ele>151.0</ele><time>2026-04-19T09:14:27Z</time></trkpt><trkpt lat="43.09823483646662" lon="11.483643259434816"><ele>150.0</ele><time>2026-04-19T09:14:28Z</time></trkpt><trkpt lat="43.09840659722297" lon="11.483562403875064"><ele>149.0</ele><time>2026-04-19T09:14:29Z</time></trkpt><trkpt lat="43.09857500907042" lon="11.48348491871188"><ele>148.0</ele><time>2026-04-19T09:14:30Z</time></trkpt><trkpt lat="43.09874187368601" lon="11.483418111395453"><ele>148.0</ele><time>2026-04-19T09:14:31Z</time></trkpt><trkpt lat="43.098910978407915" lon="11.483373918547823"><ele>148.0</ele><time>2026-04-19T09:14:32Z</time></trkpt><trkpt lat="43.09908177733459" lon="11.483352329880818"><ele>148.0</ele><time>2026-04-19T09:14:33Z</time></trkpt><trkpt lat="43.099251058372836" lon="11.483346256340417"><ele>147.5</ele><time>2026-04-19T09:14:34Z</time></trkpt><trkpt lat="43.099412872725594" lon="11.483345445874447"><ele>147.0</ele><time>2026-04-19T09:14:35Z</time></trkpt><trkpt lat="43.0995594104851" lon="11.483342702273122"><ele>146.5</ele><time>2026-04-19T09:14:36Z</time></trkpt><trkpt lat="43.099696361591654" lon="11.483326010034403"><ele>146.0</ele><time>2026-04-19T09:14:37Z</time></trkpt><trkpt lat="43.09982455293753" lon="11.483293672584573"><ele>145.75</ele><time>2026-04-19T09:14:38Z</time></trkpt><trkpt lat="43.09994816578686" lon="11.483232000539884"><ele>145.5</ele><time>2026-04-19T09:14:39Z</time></trkpt><trkpt lat="43.10006606198731" lon="11.48312313729916"><ele>145.25</ele><time>2026-04-19T09:14:40Z</time></trkpt><trkpt lat="43.10017817700899" lon="11.4829754026996"><ele>145.0</ele><time>2026-04-19T09:14:41Z</time></trkpt><trkpt lat="43.10029507614346" lon="11.48281448920712"><ele>145.0</ele><time>2026-04-19T09:14:42Z</time></trkpt><trkpt lat="43.100418342816255" lon="11.482649859070149"><ele>145.0</ele><time>2026-04-19T09:14:43Z</time></trkpt><trkpt lat="43.10053650013845" lon="11.482489598088685"><ele>145.0</ele><time>2026-04-19T09:14:44Z</time></trkpt><trkpt lat="43.10064993544501" lon="11.482344226468612"><ele>144.33333333333334</ele><time>2026-04-19T09:14:45Z</time></trkpt><trkpt lat="43.10076230937033" lon="11.482202439912795"><ele>143.66666666666666</ele><time>2026-04-19T09:14:46Z</time></trkpt><trkpt lat="43.10087841753817" lon="11.48205279386648"><ele>143.0</ele><time>2026-04-19T09:14:47Z</time></trkpt><trkpt lat="43.10099627765661" lon="11.48189802614586"><ele>143.0</ele><time>2026-04-19T09:14:48Z</time></trkpt><trkpt lat="43.101119693361255" lon="11.481737971802442"><ele>143.0</ele><time>2026-04-19T09:14:49Z</time></trkpt><trkpt lat="43.101246628478556" lon="11.48157552883874"><ele>143.0</ele><time>2026-04-19T09:14:50Z</time></trkpt><trkpt lat="43.101370574008065" lon="11.481414338743413"><ele>143.0</ele><time>2026-04-19T09:14:51Z</time></trkpt><trkpt lat="43.10148396620169" lon="11.481264706341578"><ele>143.0</ele><time>2026-04-19T09:14:52Z</time></trkpt><trkpt lat="43.10159756334985" lon="11.481116420710066"><ele>143.0</ele><time>2026-04-19T09:14:53Z</time></trkpt><trkpt lat="43.101714802630255" lon="11.480968935416533"><ele>143.33333333333331</ele><time>2026-04-19T09:14:54Z</time></trkpt><trkpt lat="43.101835891496314" lon="11.480823485032893"><ele>143.66666666666666</ele><time>2026-04-19T09:14:55Z</time></trkpt><trkpt lat="43.10196259299477" lon="11.480686453712076"><ele>144.0</ele><time>2026-04-19T09:14:56Z</time></trkpt><trkpt lat="43.10208559992025" lon="11.480572694897235"><ele>144.0</ele><time>2026-04-19T09:14:57Z</time></trkpt><trkpt lat="43.10221538814388" lon="11.480466123541367"><ele>144.0</ele><time>2026-04-19T09:14:58Z</time></trkpt><trkpt lat="43.10235566480279" lon="11.480352974310788"><ele>144.0</ele><time>2026-04-19T09:14:59Z</time></trkpt><trkpt lat="43.1025007732908" lon="11.480240496761136"><ele>144.33333333333334</ele><time>2026-04-19T09:15:00Z</time></trkpt><trkpt lat="43.102645802705794" lon="11.480128710195071"><ele>144.66666666666669</ele><time>2026-04-19T09:15:01Z</time></trkpt><trkpt lat="43.102785524735964" lon="11.480019099118515"><ele>145.0</ele><time>2026-04-19T09:15:02Z</time></trkpt><trkpt lat="43.102921936926755" lon="11.479909384399784"><ele>145.0</ele><time>2026-04-19T09:15:03Z</time></trkpt><trkpt lat="43.10304967175994" lon="11.479803551964956"><ele>145.0</ele><time>2026-04-19T09:15:04Z</time></trkpt><trkpt lat="43.10317919379572" lon="11.479697308557071"><ele>145.0</ele><time>2026-04-19T09:15:05Z</time></trkpt><trkpt lat="43.10331471440844" lon="11.47959652558085"><ele>147.66666666666669</ele><time>2026-04-19T09:15:06Z</time></trkpt><trkpt lat="43.10346205053924" lon="11.479513611320984"><ele>150.33333333333334</ele><time>2026-04-19T09:15:07Z</time></trkpt><trkpt lat="43.10361692279022" lon="11.479455812341753"><ele>153.0</ele><time>2026-04-19T09:15:08Z</time></trkpt><trkpt lat="43.10377987691641" lon="11.479421295048548"><ele>153.0</ele><time>2026-04-19T09:15:09Z</time></trkpt><trkpt lat="43.103946265997116" lon="11.479405375292473"><ele>153.0</ele><time>2026-04-19T09:15:10Z</time></trkpt><trkpt lat="43.1041087601472" lon="11.479400594946869"><ele>153.0</ele><time>2026-04-19T09:15:11Z</time></trkpt><trkpt lat="43.10426548698395" lon="11.479398958861347"><ele>153.0</ele><time>2026-04-19T09:15:12Z</time></trkpt><trkpt lat="43.10443063644444" lon="11.47939402849829"><ele>153.0</ele><time>2026-04-19T09:15:13Z</time></trkpt><trkpt lat="43.10459981438571" lon="11.479384420630879"><ele>153.0</ele><time>2026-04-19T09:15:14Z</time></trkpt><trkpt lat="43.10477076537333" lon="11.479377394331944"><ele>151.0</ele><time>2026-04-19T09:15:15Z</time></trkpt><trkpt lat="43.104949225419524" lon="11.479366876757355"><ele>149.0</ele><time>2026-04-19T09:15:16Z</time></trkpt><trkpt lat="43.10513293737587" lon="11.479358415827084"><ele>147.0</ele><time>2026-04-19T09:15:17Z</time></trkpt><trkpt lat="43.10532103932457" lon="11.47935168569467"><ele>147.0</ele><time>2026-04-19T09:15:18Z</time></trkpt><trkpt lat="43.10551302620849" lon="11.479343037885776"><ele>147.0</ele><time>2026-04-19T09:15:19Z</time></trkpt><trkpt lat="43.10571102055867" lon="11.479338947661363"><ele>147.0</ele><time>2026-04-19T09:15:20Z</time></trkpt><trkpt lat="43.1059051809336" lon="11.479331785029082"><ele>145.0</ele><time>2026-04-19T09:15:21Z</time></trkpt><trkpt lat="43.10608926117644" lon="11.479323426419786"><ele>143.0</ele><time>2026-04-19T09:15:22Z</time></trkpt><trkpt lat="43.106262915706914" lon="11.479316614858377"><ele>141.0</ele><time>2026-04-19T09:15:23Z</time></trkpt><trkpt lat="43.10643998973317" lon="11.479308894431032"><ele>139.66666666666666</ele><time>2026-04-19T09:15:24Z</time></trkpt><trkpt lat="43.10661645038258" lon="11.4793000387462"><ele>138.33333333333331</ele><time>2026-04-19T09:15:25Z</time></trkpt><trkpt lat="43.106804125259316" lon="11.479291866485665"><ele>137.0</ele><time>2026-04-19T09:15:26Z</time></trkpt><trkpt lat="43.10699275059964" lon="11.47928710412612"><ele>137.0</ele><time>2026-04-19T09:15:27Z</time></trkpt><trkpt lat="43.10718540279925" lon="11.479282760240991"><ele>137.0</ele><time>2026-04-19T09:15:28Z</time></trkpt><trkpt lat="43.10737471358427" lon="11.479274494283663"><ele>137.0</ele><time>2026-04-19T09:15:29Z</time></trkpt><trkpt lat="43.10756457060495" lon="11.479262431748866"><ele>137.33333333333331</ele><time>2026-04-19T09:15:30Z</time></trkpt><trkpt lat="43.107753243507155" lon="11.47925364850047"><ele>137.66666666666666</ele><time>2026-04-19T09:15:31Z</time></trkpt><trkpt lat="43.10794330706807" lon="11.479251099439953"><ele>138.0</ele><time>2026-04-19T09:15:32Z</time></trkpt><trkpt lat="43.10813272060812" lon="11.47925292224026"><ele>139.0</ele><time>2026-04-19T09:15:33Z</time></trkpt><trkpt lat="43.108319068279805" lon="11.479254486601898"><ele>140.0</ele><time>2026-04-19T09:15:34Z</time></trkpt><trkpt lat="43.10850127888232" lon="11.47926183574425"><ele>141.0</ele><time>2026-04-19T09:15:35Z</time></trkpt><trkpt lat="43.10868005337214" lon="11.479272442674233"><ele>141.0</ele><time>2026-04-19T09:15:36Z</time></trkpt><trkpt lat="43.10885340003085" lon="11.479288518625225"><ele>141.0</ele><time>2026-04-19T09:15:37Z</time></trkpt><trkpt lat="43.10902998186083" lon="11.479300911283245"><ele>141.0</ele><time>2026-04-19T09:15:38Z</time></trkpt><trkpt lat="43.109206332191285" lon="11.479313247717075"><ele>142.66666666666666</ele><time>2026-04-19T09:15:39Z</time></trkpt><trkpt lat="43.109381785382155" lon="11.479329672948666"><ele>144.33333333333331</ele><time>2026-04-19T09:15:40Z</time></trkpt><trkpt lat="43.10956014235406" lon="11.479343974388724"><ele>146.0</ele><time>2026-04-19T09:15:41Z</time></trkpt><trkpt lat="43.109735223976045" lon="11.479360402298054"><ele>147.0</ele><time>2026-04-19T09:15:42Z</time></trkpt><trkpt lat="43.109912904816866" lon="11.479374618005256"><ele>148.0</ele><time>2026-04-19T09:15:43Z</time></trkpt><trkpt lat="43.11009418183595" lon="11.479381338912683"><ele>149.0</ele><time>2026-04-19T09:15:44Z</time></trkpt><trkpt lat="43.11027284933157" lon="11.479396712044771"><ele>149.0</ele><time>2026-04-19T09:15:45Z</time></trkpt><trkpt lat="43.11045418148469" lon="11.479411780917198"><ele>149.0</ele><time>2026-04-19T09:15:46Z</time></trkpt><trkpt lat="43.110645777075945" lon="11.479427234149776"><ele>149.0</ele><time>2026-04-19T09:15:47Z</time></trkpt><trkpt lat="43.11083693508115" lon="11.479437877706388"><ele>150.0</ele><time>2026-04-19T09:15:48Z</time></trkpt><trkpt lat="43.11102648801638" lon="11.47945059552188"><ele>151.0</ele><time>2026-04-19T09:15:49Z</time></trkpt><trkpt lat="43.11120266830441" lon="11.479473465969292"><ele>152.0</ele><time>2026-04-19T09:15:50Z</time></trkpt><trkpt lat="43.1113806386332" lon="11.479508148948195"><ele>152.0</ele><time>2026-04-19T09:15:51Z</time></trkpt><trkpt lat="43.11155886934914" lon="11.479555880112486"><ele>152.0</ele><time>2026-04-19T09:15:52Z</time></trkpt><trkpt lat="43.111742462781336" lon="11.479635851165849"><ele>152.0</ele><time>2026-04-19T09:15:53Z</time></trkpt><trkpt lat="43.111930732375335" lon="11.479712097495819"><ele>152.66666666666666</ele><time>2026-04-19T09:15:54Z</time></trkpt><trkpt lat="43.11211119598042" lon="11.479778210625486"><ele>153.33333333333334</ele><time>2026-04-19T09:15:55Z</time></trkpt><trkpt lat="43.11228593498923" lon="11.479843767925594"><ele>154.0</ele><time>2026-04-19T09:15:56Z</time></trkpt><trkpt lat="43.1124464951169" lon="11.47991022501733"><ele>154.33333333333334</ele><time>2026-04-19T09:15:57Z</time></trkpt><trkpt lat="43.112598508104824" lon="11.479964908352446"><ele>154.66666666666666</ele><time>2026-04-19T09:15:58Z</time></trkpt><trkpt lat="43.11273935436822" lon="11.480016636830838"><ele>155.0</ele><time>2026-04-19T09:15:59Z</time></trkpt><trkpt lat="43.112886042575965" lon="11.480074584965562"><ele>155.0</ele><time>2026-04-19T09:16:00Z</time></trkpt><trkpt lat="43.11303976658066" lon="11.480121112233492"><ele>155.0</ele><time>2026-04-19T09:16:01Z</time></trkpt><trkpt lat="43.113204627776454" lon="11.480165169251014"><ele>155.0</ele><time>2026-04-19T09:16:02Z</time></trkpt><trkpt lat="43.113370909176865" lon="11.48020558972844"><ele>156.66666666666666</ele><time>2026-04-19T09:16:03Z</time></trkpt><trkpt lat="43.113545197289746" lon="11.480237195187168"><ele>158.33333333333334</ele><time>2026-04-19T09:16:04Z</time></trkpt><trkpt lat="43.113721803836285" lon="11.480259556547642"><ele>160.0</ele><time>2026-04-19T09:16:05Z</time></trkpt><trkpt lat="43.113899917723074" lon="11.480289189667072"><ele>161.66666666666669</ele><time>2026-04-19T09:16:06Z</time></trkpt><trkpt lat="43.11408273117018" lon="11.480317130653576"><ele>163.33333333333334</ele><time>2026-04-19T09:16:07Z</time></trkpt><trkpt lat="43.11425736652018" lon="11.480343034145141"><ele>165.0</ele><time>2026-04-19T09:16:08Z</time></trkpt><trkpt lat="43.11441647139332" lon="11.48036693298248"><ele>165.0</ele><time>2026-04-19T09:16:09Z</time></trkpt><trkpt lat="43.114579637944736" lon="11.480391440114396"><ele>165.0</ele><time>2026-04-19T09:16:10Z</time></trkpt><trkpt lat="43.11474869539012" lon="11.480420681783519"><ele>165.0</ele><time>2026-04-19T09:16:11Z</time></trkpt><trkpt lat="43.11491069580269" lon="11.48045479033486"><ele>165.0</ele><time>2026-04-19T09:16:12Z</time></trkpt><trkpt lat="43.11506807138622" lon="11.480489596555104"><ele>165.0</ele><time>2026-04-19T09:16:13Z</time></trkpt><trkpt lat="43.115226452673014" lon="11.480524434376235"><ele>165.0</ele><time>2026-04-19T09:16:14Z</time></trkpt><trkpt lat="43.11538029460315" lon="11.480568837769209"><ele>165.0</ele><time>2026-04-19T09:16:15Z</time></trkpt><trkpt lat="43.1155351906798" lon="11.480649590402885"><ele>165.0</ele><time>2026-04-19T09:16:16Z</time></trkpt><trkpt lat="43.115692215625664" lon="11.480696190277486"><ele>165.0</ele><time>2026-04-19T09:16:17Z</time></trkpt><trkpt lat="43.115841572191975" lon="11.48076586052277"><ele>164.25</ele><time>2026-04-19T09:16:18Z</time></trkpt><trkpt lat="43.11597883114428" lon="11.480831122254369"><ele>163.5</ele><time>2026-04-19T09:16:19Z</time></trkpt><trkpt lat="43.11611910692928" lon="11.48089479885801"><ele>162.75</ele><time>2026-04-19T09:16:20Z</time></trkpt><trkpt lat="43.11625827052521" lon="11.480960130664286"><ele>162.0</ele><time>2026-04-19T09:16:21Z</time></trkpt><trkpt lat="43.11639108897539" lon="11.481019218213126"><ele>162.0</ele><time>2026-04-19T09:16:22Z</time></trkpt><trkpt lat="43.11652685492408" lon="11.481080559016801"><ele>162.0</ele><time>2026-04-19T09:16:23Z</time></trkpt><trkpt lat="43.116674315124044" lon="11.481144175160178"><ele>162.0</ele><time>2026-04-19T09:16:24Z</time></trkpt><trkpt lat="43.116823256905874" lon="11.481208970583397"><ele>160.33333333333334</ele><time>2026-04-19T09:16:25Z</time></trkpt><trkpt lat="43.11697359921808" lon="11.481271450190627"><ele>158.66666666666669</ele><time>2026-04-19T09:16:26Z</time></trkpt><trkpt lat="43.117118391286716" lon="11.481336016844871"><ele>157.0</ele><time>2026-04-19T09:16:27Z</time></trkpt><trkpt lat="43.117260370880466" lon="11.481402421986962"><ele>157.0</ele><time>2026-04-19T09:16:28Z</time></trkpt><trkpt lat="43.11739885287437" lon="11.481465132569104"><ele>157.0</ele><time>2026-04-19T09:16:29Z</time></trkpt><trkpt lat="43.11753748159903" lon="11.481528697163483"><ele>157.0</ele><time>2026-04-19T09:16:30Z</time></trkpt><trkpt lat="43.11767568020652" lon="11.48158810471986"><ele>157.0</ele><time>2026-04-19T09:16:31Z</time></trkpt><trkpt lat="43.117823044968894" lon="11.48164899142756"><ele>154.25</ele><time>2026-04-19T09:16:32Z</time></trkpt><trkpt lat="43.11796501378557" lon="11.481712068551866"><ele>151.5</ele><time>2026-04-19T09:16:33Z</time></trkpt><trkpt lat="43.118105221657906" lon="11.48177206311775"><ele>148.75</ele><time>2026-04-19T09:16:34Z</time></trkpt><trkpt lat="43.1182458553661" lon="11.481835134412016"><ele>146.0</ele><time>2026-04-19T09:16:35Z</time></trkpt><trkpt lat="43.11838034979969" lon="11.481901112432523"><ele>145.0</ele><time>2026-04-19T09:16:36Z</time></trkpt><trkpt lat="43.118511436262054" lon="11.481978036980003"><ele>144.0</ele><time>2026-04-19T09:16:37Z</time></trkpt><trkpt lat="43.118630157650244" lon="11.482081980864042"><ele>143.0</ele><time>2026-04-19T09:16:38Z</time></trkpt><trkpt lat="43.118728535030264" lon="11.482216546855367"><ele>142.0</ele><time>2026-04-19T09:16:39Z</time></trkpt><trkpt lat="43.11880314736437" lon="11.482375624555887"><ele>141.79999999999998</ele><time>2026-04-19T09:16:40Z</time></trkpt><trkpt lat="43.11885266152963" lon="11.482545710998776"><ele>141.6</ele><time>2026-04-19T09:16:41Z</time></trkpt><trkpt lat="43.11888072740475" lon="11.482700674124812"><ele>141.39999999999998</ele><time>2026-04-19T09:16:42Z</time></trkpt><trkpt lat="43.11889091134786" lon="11.482835040407014"><ele>141.2</ele><time>2026-04-19T09:16:43Z</time></trkpt><trkpt lat="43.1188901207651" lon="11.482948666723225"><ele>141.0</ele><time>2026-04-19T09:16:44Z</time></trkpt><trkpt lat="43.118877931840956" lon="11.483050774769216"><ele>141.33333333333334</ele><time>2026-04-19T09:16:45Z</time></trkpt><trkpt lat="43.11885646530835" lon="11.48314547488318"><ele>141.66666666666666</ele><time>2026-04-19T09:16:46Z</time></trkpt><trkpt lat="43.11883694476127" lon="11.483271891646671"><ele>142.0</ele><time>2026-04-19T09:16:48Z</time></trkpt><trkpt lat="43.118847352536065" lon="11.483374404076379"><ele>142.33333333333331</ele><time>2026-04-19T09:16:51Z</time></trkpt><trkpt lat="43.11887112259806" lon="11.483471810282257"><ele>142.66666666666666</ele><time>2026-04-19T09:16:54Z</time></trkpt><trkpt lat="43.118921182441184" lon="11.483565829517643"><ele>143.0</ele><time>2026-04-19T09:17:00Z</time></trkpt><trkpt lat="43.1190613439441" lon="11.483602750438594"><ele>142.75</ele><time>2026-04-19T09:17:02Z</time></trkpt><trkpt lat="43.1191699795283" lon="11.483571610371134"><ele>142.5</ele><time>2026-04-19T09:17:03Z</time></trkpt><trkpt lat="43.11930736815406" lon="11.483541524535138"><ele>142.25</ele><time>2026-04-19T09:17:04Z</time></trkpt><trkpt lat="43.11944769350302" lon="11.48351296124183"><ele>142.0</ele><time>2026-04-19T09:17:05Z</time></trkpt><trkpt lat="43.11958544836197" lon="11.483483691553115"><ele>142.0</ele><time>2026-04-19T09:17:06Z</time></trkpt><trkpt lat="43.119718386348396" lon="11.483456081706327"><ele>142.0</ele><time>2026-04-19T09:17:07Z</time></trkpt><trkpt lat="43.11984369195717" lon="11.483433730786777"><ele>142.0</ele><time>2026-04-19T09:17:08Z</time></trkpt><trkpt lat="43.11995690087986" lon="11.48341617520756"><ele>142.0</ele><time>2026-04-19T09:17:09Z</time></trkpt><trkpt lat="43.12005937328913" lon="11.48340215372981"><ele>142.0</ele><time>2026-04-19T09:17:10Z</time></trkpt><trkpt lat="43.12015503476644" lon="11.48339016696758"><ele>142.0</ele><time>2026-04-19T09:17:11Z</time></trkpt><trkpt lat="43.120247978953216" lon="11.483378957375628"><ele>142.0</ele><time>2026-04-19T09:17:12Z</time></trkpt><trkpt lat="43.12035192018258" lon="11.483368397590263"><ele>142.0</ele><time>2026-04-19T09:17:13Z</time></trkpt><trkpt lat="43.12046766908777" lon="11.483356785772813"><ele>142.0</ele><time>2026-04-19T09:17:14Z</time></trkpt><trkpt lat="43.120592202954604" lon="11.483344833326052"><ele>142.0</ele><time>2026-04-19T09:17:15Z</time></trkpt><trkpt lat="43.12072051262961" lon="11.483336403348233"><ele>142.0</ele><time>2026-04-19T09:17:16Z</time></trkpt><trkpt lat="43.12085385224798" lon="11.483329445333373"><ele>142.0</ele><time>2026-04-19T09:17:17Z</time></trkpt><trkpt lat="43.120980768254306" lon="11.483319035075139"><ele>142.0</ele><time>2026-04-19T09:17:18Z</time></trkpt><trkpt lat="43.121093155408836" lon="11.483309939237852"><ele>142.2</ele><time>2026-04-19T09:17:19Z</time></trkpt><trkpt lat="43.121194609763386" lon="11.483300227187463"><ele>142.39999999999998</ele><time>2026-04-19T09:17:20Z</time></trkpt><trkpt lat="43.12129412870609" lon="11.483290451670808"><ele>142.60000000000002</ele><time>2026-04-19T09:17:21Z</time></trkpt><trkpt lat="43.12139989232832" lon="11.483283014746418"><ele>142.8</ele><time>2026-04-19T09:17:22Z</time></trkpt><trkpt lat="43.121513023774725" lon="11.483273177135928"><ele>143.0</ele><time>2026-04-19T09:17:23Z</time></trkpt><trkpt lat="43.12162812846464" lon="11.483262406153093"><ele>143.25</ele><time>2026-04-19T09:17:24Z</time></trkpt><trkpt lat="43.12174729859734" lon="11.483250144323579"><ele>143.5</ele><time>2026-04-19T09:17:25Z</time></trkpt><trkpt lat="43.121864647744026" lon="11.48323942287606"><ele>143.75</ele><time>2026-04-19T09:17:26Z</time></trkpt><trkpt lat="43.121977070918604" lon="11.483230895177885"><ele>144.0</ele><time>2026-04-19T09:17:27Z</time></trkpt><trkpt lat="43.12208959485493" lon="11.48322338070555"><ele>144.0</ele><time>2026-04-19T09:17:28Z</time></trkpt><trkpt lat="43.12220287961995" lon="11.483212646947683"><ele>144.0</ele><time>2026-04-19T09:17:29Z</time></trkpt><trkpt lat="43.12231282328168" lon="11.483202758446426"><ele>144.0</ele><time>2026-04-19T09:17:30Z</time></trkpt><trkpt lat="43.12242033801029" lon="11.48319316793826"><ele>144.0</ele><time>2026-04-19T09:17:31Z</time></trkpt><trkpt lat="43.12252520423543" lon="11.483185260586389"><ele>144.0</ele><time>2026-04-19T09:17:32Z</time></trkpt><trkpt lat="43.122632939134874" lon="11.48317508471121"><ele>144.6</ele><time>2026-04-19T09:17:33Z</time></trkpt><trkpt lat="43.12274266408111" lon="11.483164406925711"><ele>145.2</ele><time>2026-04-19T09:17:34Z</time></trkpt><trkpt lat="43.12285445664387" lon="11.483155923497701"><ele>145.79999999999998</ele><time>2026-04-19T09:17:35Z</time></trkpt><trkpt lat="43.122966986463894" lon="11.48314559018443"><ele>146.4</ele><time>2026-04-19T09:17:36Z</time></trkpt><trkpt lat="43.12307989650243" lon="11.483136850333697"><ele>147.0</ele><time>2026-04-19T09:17:37Z</time></trkpt><trkpt lat="43.123194794665395" lon="11.483126146145048"><ele>146.6</ele><time>2026-04-19T09:17:38Z</time></trkpt><trkpt lat="43.12330749196066" lon="11.483116491021233"><ele>146.2</ele><time>2026-04-19T09:17:39Z</time></trkpt><trkpt lat="43.123419238043894" lon="11.483106329296815"><ele>145.8</ele><time>2026-04-19T09:17:40Z</time></trkpt><trkpt lat="43.12352956986952" lon="11.483097527092262"><ele>145.4</ele><time>2026-04-19T09:17:41Z</time></trkpt><trkpt lat="43.12364168388356" lon="11.483087885005876"><ele>145.0</ele><time>2026-04-19T09:17:42Z</time></trkpt><trkpt lat="43.12375267003852" lon="11.483075544525821"><ele>145.0</ele><time>2026-04-19T09:17:43Z</time></trkpt><trkpt lat="43.12386563992316" lon="11.483065946449306"><ele>145.0</ele><time>2026-04-19T09:17:44Z</time></trkpt><trkpt lat="43.12397747259083" lon="11.483056508620368"><ele>145.0</ele><time>2026-04-19T09:17:45Z</time></trkpt><trkpt lat="43.12407034958035" lon="11.483046673543479"><ele>145.0</ele><time>2026-04-19T09:17:46Z</time></trkpt><trkpt lat="43.12414184801054" lon="11.48304458096228"><ele>145.0</ele><time>2026-04-19T09:17:47Z</time></trkpt><trkpt lat="43.124241350403985" lon="11.483047385280955"><ele>144.66666666666669</ele><time>2026-04-19T09:17:49Z</time></trkpt><trkpt lat="43.124312918047146" lon="11.483066382573229"><ele>144.33333333333334</ele><time>2026-04-19T09:17:51Z</time></trkpt><trkpt lat="43.12439350583973" lon="11.483057981748006"><ele>144.0</ele><time>2026-04-19T09:19:28Z</time></trkpt><trkpt lat="43.124470692635384" lon="11.483011227058673"><ele>143.66666666666666</ele><time>2026-04-19T09:19:30Z</time></trkpt><trkpt lat="43.124539841612155" lon="11.483002942588834"><ele>143.33333333333331</ele><time>2026-04-19T09:19:31Z</time></trkpt><trkpt lat="43.12462575337332" lon="11.482997312042462"><ele>143.0</ele><time>2026-04-19T09:19:32Z</time></trkpt><trkpt lat="43.1247324432312" lon="11.482987614388545"><ele>143.0</ele><time>2026-04-19T09:19:33Z</time></trkpt><trkpt lat="43.12485335162337" lon="11.48297820869123"><ele>143.0</ele><time>2026-04-19T09:19:34Z</time></trkpt><trkpt lat="43.12498117716346" lon="11.482963991766965"><ele>143.0</ele><time>2026-04-19T09:19:35Z</time></trkpt><trkpt lat="43.12511634444527" lon="11.482947219907812"><ele>143.0</ele><time>2026-04-19T09:19:36Z</time></trkpt><trkpt lat="43.125257960167325" lon="11.482934974298338"><ele>142.66666666666666</ele><time>2026-04-19T09:19:37Z</time></trkpt><trkpt lat="43.125411621098955" lon="11.482922084392689"><ele>142.33333333333334</ele><time>2026-04-19T09:19:38Z</time></trkpt><trkpt lat="43.12556628249231" lon="11.482917207811912"><ele>142.0</ele><time>2026-04-19T09:19:39Z</time></trkpt><trkpt lat="43.12572967662176" lon="11.482897889292804"><ele>142.0</ele><time>2026-04-19T09:19:40Z</time></trkpt><trkpt lat="43.12589118569418" lon="11.482881556377192"><ele>142.0</ele><time>2026-04-19T09:19:41Z</time></trkpt><trkpt lat="43.12605583952894" lon="11.482866954132914"><ele>142.0</ele><time>2026-04-19T09:19:42Z</time></trkpt><trkpt lat="43.12622282392771" lon="11.482850653093829"><ele>142.0</ele><time>2026-04-19T09:19:43Z</time></trkpt><trkpt lat="43.12639305903237" lon="11.482836405046122"><ele>142.0</ele><time>2026-04-19T09:19:44Z</time></trkpt><trkpt lat="43.12655985561691" lon="11.482822368479988"><ele>142.0</ele><time>2026-04-19T09:19:45Z</time></trkpt><trkpt lat="43.12672592531198" lon="11.482805566343849"><ele>142.66666666666669</ele><time>2026-04-19T09:19:46Z</time></trkpt><trkpt lat="43.12688744121545" lon="11.482791744498254"><ele>143.33333333333334</ele><time>2026-04-19T09:19:47Z</time></trkpt><trkpt lat="43.127041322406725" lon="11.482778737957144"><ele>144.0</ele><time>2026-04-19T09:19:48Z</time></trkpt><trkpt lat="43.127196071253636" lon="11.482764403174686"><ele>144.0</ele><time>2026-04-19T09:19:49Z</time></trkpt><trkpt lat="43.12735639226616" lon="11.482750923007954"><ele>144.0</ele><time>2026-04-19T09:19:50Z</time></trkpt><trkpt lat="43.12751662876819" lon="11.482738789121614"><ele>144.0</ele><time>2026-04-19T09:19:51Z</time></trkpt><trkpt lat="43.127676936828436" lon="11.482723896146803"><ele>144.33333333333334</ele><time>2026-04-19T09:19:52Z</time></trkpt><trkpt lat="43.12783644055423" lon="11.482708319003505"><ele>144.66666666666669</ele><time>2026-04-19T09:19:53Z</time></trkpt><trkpt lat="43.12799528249208" lon="11.482694767012084"><ele>145.0</ele><time>2026-04-19T09:19:54Z</time></trkpt><trkpt lat="43.128154524740324" lon="11.482678767460555"><ele>145.0</ele><time>2026-04-19T09:19:55Z</time></trkpt><trkpt lat="43.128313719377196" lon="11.482663620654046"><ele>145.0</ele><time>2026-04-19T09:19:56Z</time></trkpt><trkpt lat="43.12847342847849" lon="11.482650902622028"><ele>145.0</ele><time>2026-04-19T09:19:57Z</time></trkpt><trkpt lat="43.12863157268259" lon="11.482637014520064"><ele>145.0</ele><time>2026-04-19T09:19:58Z</time></trkpt><trkpt lat="43.12878641035283" lon="11.482622302499074"><ele>145.0</ele><time>2026-04-19T09:19:59.001Z</time></trkpt><trkpt lat="43.128934237658086" lon="11.482610914156496"><ele>145.0</ele><time>2026-04-19T09:20:00.001Z</time></trkpt><trkpt lat="43.12907640126967" lon="11.482598288412383"><ele>145.0</ele><time>2026-04-19T09:20:01.001Z</time></trkpt><trkpt lat="43.1292162016806" lon="11.482584292965393"><ele>144.75</ele><time>2026-04-19T09:20:02.001Z</time></trkpt><trkpt lat="43.12935570661487" lon="11.482572822290571"><ele>144.5</ele><time>2026-04-19T09:20:03.001Z</time></trkpt><trkpt lat="43.12949625776528" lon="11.482563560256295"><ele>144.25</ele><time>2026-04-19T09:20:04.001Z</time></trkpt><trkpt lat="43.12964399057598" lon="11.482548962054382"><ele>144.0</ele><time>2026-04-19T09:20:05.001Z</time></trkpt><trkpt lat="43.12979760954524" lon="11.482534692742634"><ele>143.33333333333334</ele><time>2026-04-19T09:20:06.001Z</time></trkpt><trkpt lat="43.12993732378691" lon="11.48252999985244"><ele>142.66666666666669</ele><time>2026-04-19T09:20:07.001Z</time></trkpt><trkpt lat="43.13008701143108" lon="11.482519930419693"><ele>142.0</ele><time>2026-04-19T09:20:08.001Z</time></trkpt><trkpt lat="43.130254257993826" lon="11.482502858804338"><ele>142.0</ele><time>2026-04-19T09:20:09Z</time></trkpt><trkpt lat="43.130423104328095" lon="11.482489876026163"><ele>142.0</ele><time>2026-04-19T09:20:10Z</time></trkpt><trkpt lat="43.130596513421565" lon="11.482474799076252"><ele>142.0</ele><time>2026-04-19T09:20:11Z</time></trkpt><trkpt lat="43.1307662235719" lon="11.48246117685815"><ele>141.75</ele><time>2026-04-19T09:20:12Z</time></trkpt><trkpt lat="43.13092158126224" lon="11.482450796301332"><ele>141.5</ele><time>2026-04-19T09:20:13Z</time></trkpt><trkpt lat="43.131067340872" lon="11.482441054672949"><ele>141.25</ele><time>2026-04-19T09:20:14Z</time></trkpt><trkpt lat="43.13120379780903" lon="11.482428516802646"><ele>141.0</ele><time>2026-04-19T09:20:15Z</time></trkpt><trkpt lat="43.13133105849921" lon="11.482414525241483"><ele>141.0</ele><time>2026-04-19T09:20:16Z</time></trkpt><trkpt lat="43.13145313897828" lon="11.48240382377858"><ele>141.0</ele><time>2026-04-19T09:20:17Z</time></trkpt><trkpt lat="43.13158308877483" lon="11.482389293504838"><ele>141.0</ele><time>2026-04-19T09:20:18Z</time></trkpt><trkpt lat="43.13171655508155" lon="11.482387885935427"><ele>141.0</ele><time>2026-04-19T09:20:19Z</time></trkpt><trkpt lat="43.13185222371396" lon="11.482392906365522"><ele>141.5</ele><time>2026-04-19T09:20:20Z</time></trkpt><trkpt lat="43.131994118925626" lon="11.482419746998621"><ele>142.0</ele><time>2026-04-19T09:20:21Z</time></trkpt><trkpt lat="43.13213633127971" lon="11.48246622736071"><ele>142.5</ele><time>2026-04-19T09:20:22Z</time></trkpt><trkpt lat="43.13228489370038" lon="11.48251954673026"><ele>143.0</ele><time>2026-04-19T09:20:23Z</time></trkpt><trkpt lat="43.13243620463973" lon="11.48257393163606"><ele>143.0</ele><time>2026-04-19T09:20:24Z</time></trkpt><trkpt lat="43.132585417750505" lon="11.482631228986062"><ele>143.0</ele><time>2026-04-19T09:20:25Z</time></trkpt><trkpt lat="43.13272752355907" lon="11.482683371671019"><ele>143.0</ele><time>2026-04-19T09:20:26Z</time></trkpt><trkpt lat="43.13286891822566" lon="11.482737836509889"><ele>143.0</ele><time>2026-04-19T09:20:27Z</time></trkpt><trkpt lat="43.133017220275356" lon="11.482795013666266"><ele>143.0</ele><time>2026-04-19T09:20:28Z</time></trkpt><trkpt lat="43.13315468304185" lon="11.482850749079242"><ele>143.0</ele><time>2026-04-19T09:20:29Z</time></trkpt><trkpt lat="43.13328452705123" lon="11.482901906516041"><ele>143.0</ele><time>2026-04-19T09:20:30Z</time></trkpt><trkpt lat="43.13340696829741" lon="11.482948020326758"><ele>143.0</ele><time>2026-04-19T09:20:31Z</time></trkpt><trkpt lat="43.13352344393603" lon="11.482988004281696"><ele>143.4</ele><time>2026-04-19T09:20:32Z</time></trkpt><trkpt lat="43.133631955009385" lon="11.483021518660035"><ele>143.8</ele><time>2026-04-19T09:20:33Z</time></trkpt><trkpt lat="43.13374109554337" lon="11.483052582139734"><ele>144.2</ele><time>2026-04-19T09:20:34Z</time></trkpt><trkpt lat="43.13384536132961" lon="11.483074531410278"><ele>144.6</ele><time>2026-04-19T09:20:35Z</time></trkpt><trkpt lat="43.13395007028004" lon="11.483093132779361"><ele>145.0</ele><time>2026-04-19T09:20:36Z</time></trkpt><trkpt lat="43.134066576411136" lon="11.483113317244731"><ele>145.0</ele><time>2026-04-19T09:20:37Z</time></trkpt><trkpt lat="43.134190772087564" lon="11.48313695176441"><ele>145.0</ele><time>2026-04-19T09:20:38Z</time></trkpt><trkpt lat="43.134314899041605" lon="11.483161598383221"><ele>145.0</ele><time>2026-04-19T09:20:39Z</time></trkpt><trkpt lat="43.13443578074255" lon="11.483184495342291"><ele>145.0</ele><time>2026-04-19T09:20:40Z</time></trkpt><trkpt lat="43.134553704283505" lon="11.483205200158762"><ele>145.0</ele><time>2026-04-19T09:20:41Z</time></trkpt><trkpt lat="43.13466270138733" lon="11.483225258361525"><ele>145.0</ele><time>2026-04-19T09:20:42Z</time></trkpt><trkpt lat="43.1347623305093" lon="11.483242219997441"><ele>145.0</ele><time>2026-04-19T09:20:43Z</time></trkpt><trkpt lat="43.1348521011647" lon="11.48325868149879"><ele>145.0</ele><time>2026-04-19T09:20:44Z</time></trkpt><trkpt lat="43.134942239881745" lon="11.4832761320703"><ele>145.0</ele><time>2026-04-19T09:20:45Z</time></trkpt><trkpt lat="43.13504052009361" lon="11.483295709746407"><ele>145.2</ele><time>2026-04-19T09:20:46Z</time></trkpt><trkpt lat="43.135142371360764" lon="11.483316245078406"><ele>145.4</ele><time>2026-04-19T09:20:47Z</time></trkpt><trkpt lat="43.13524040622516" lon="11.483331647528537"><ele>145.6</ele><time>2026-04-19T09:20:48Z</time></trkpt><trkpt lat="43.13534351182044" lon="11.483348507492277"><ele>145.8</ele><time>2026-04-19T09:20:49Z</time></trkpt><trkpt lat="43.13545150747161" lon="11.48336971203048"><ele>146.0</ele><time>2026-04-19T09:20:50Z</time></trkpt><trkpt lat="43.135567154595385" lon="11.483388323133124"><ele>146.0</ele><time>2026-04-19T09:20:51Z</time></trkpt><trkpt lat="43.13568113120542" lon="11.483402098486161"><ele>146.0</ele><time>2026-04-19T09:20:52Z</time></trkpt><trkpt lat="43.13578696573742" lon="11.48341377586005"><ele>146.0</ele><time>2026-04-19T09:20:53Z</time></trkpt><trkpt lat="43.13588621331048" lon="11.483418573131349"><ele>146.0</ele><time>2026-04-19T09:20:54Z</time></trkpt><trkpt lat="43.13597990646896" lon="11.483420328570396"><ele>146.0</ele><time>2026-04-19T09:20:55Z</time></trkpt><trkpt lat="43.13607154561532" lon="11.483421422535521"><ele>146.0</ele><time>2026-04-19T09:20:56Z</time></trkpt><trkpt lat="43.13615324378426" lon="11.483423105526692"><ele>146.0</ele><time>2026-04-19T09:20:57Z</time></trkpt><trkpt lat="43.136231336046826" lon="11.483424172001106"><ele>146.0</ele><time>2026-04-19T09:20:58Z</time></trkpt><trkpt lat="43.13631941951408" lon="11.483424844833344"><ele>146.0</ele><time>2026-04-19T09:20:59Z</time></trkpt><trkpt lat="43.136417294359966" lon="11.48342307085426"><ele>146.0</ele><time>2026-04-19T09:21:00Z</time></trkpt><trkpt lat="43.136517718051095" lon="11.483420137072926"><ele>146.0</ele><time>2026-04-19T09:21:01Z</time></trkpt><trkpt lat="43.13661368907897" lon="11.483419817497088"><ele>146.0</ele><time>2026-04-19T09:21:02Z</time></trkpt><trkpt lat="43.13671622541554" lon="11.48341636774124"><ele>146.0</ele><time>2026-04-19T09:21:03Z</time></trkpt><trkpt lat="43.13682173227519" lon="11.48341055568563"><ele>146.0</ele><time>2026-04-19T09:21:04Z</time></trkpt><trkpt lat="43.136931432225545" lon="11.483405116499384"><ele>146.0</ele><time>2026-04-19T09:21:05Z</time></trkpt><trkpt lat="43.13704004910131" lon="11.483399500090234"><ele>146.0</ele><time>2026-04-19T09:21:06Z</time></trkpt><trkpt lat="43.13714057738539" lon="11.48339602833319"><ele>146.0</ele><time>2026-04-19T09:21:07Z</time></trkpt><trkpt lat="43.13723176761933" lon="11.483393855924897"><ele>146.0</ele><time>2026-04-19T09:21:08Z</time></trkpt><trkpt lat="43.13732240584082" lon="11.483391762047981"><ele>146.0</ele><time>2026-04-19T09:21:09Z</time></trkpt><trkpt lat="43.137426426825265" lon="11.483389531048577"><ele>146.0</ele><time>2026-04-19T09:21:10Z</time></trkpt><trkpt lat="43.13754663426468" lon="11.483385309866634"><ele>146.0</ele><time>2026-04-19T09:21:11Z</time></trkpt><trkpt lat="43.13766565248799" lon="11.483382798808627"><ele>146.25</ele><time>2026-04-19T09:21:12Z</time></trkpt><trkpt lat="43.137784926704036" lon="11.483380619749601"><ele>146.5</ele><time>2026-04-19T09:21:13Z</time></trkpt><trkpt lat="43.13790600523146" lon="11.483376253824815"><ele>146.75</ele><time>2026-04-19T09:21:14Z</time></trkpt><trkpt lat="43.13802554767103" lon="11.483372578722744"><ele>147.0</ele><time>2026-04-19T09:21:15Z</time></trkpt><trkpt lat="43.13813904354397" lon="11.483369500263588"><ele>146.75</ele><time>2026-04-19T09:21:16Z</time></trkpt><trkpt lat="43.138254661662714" lon="11.483359009320285"><ele>146.5</ele><time>2026-04-19T09:21:17Z</time></trkpt><trkpt lat="43.13837018106052" lon="11.483340265984804"><ele>146.25</ele><time>2026-04-19T09:21:18Z</time></trkpt><trkpt lat="43.138489028910264" lon="11.483315190351682"><ele>146.0</ele><time>2026-04-19T09:21:19Z</time></trkpt><trkpt lat="43.13860843901488" lon="11.483282107524193"><ele>146.0</ele><time>2026-04-19T09:21:20Z</time></trkpt><trkpt lat="43.138725197649606" lon="11.48323903819172"><ele>146.0</ele><time>2026-04-19T09:21:21Z</time></trkpt><trkpt lat="43.13884206155134" lon="11.483192997132557"><ele>146.0</ele><time>2026-04-19T09:21:22Z</time></trkpt><trkpt lat="43.13896578779445" lon="11.483140093402136"><ele>146.0</ele><time>2026-04-19T09:21:23Z</time></trkpt><trkpt lat="43.13908286153964" lon="11.483075460526178"><ele>145.75</ele><time>2026-04-19T09:21:24Z</time></trkpt><trkpt lat="43.13919913335886" lon="11.483002545031578"><ele>145.5</ele><time>2026-04-19T09:21:25Z</time></trkpt><trkpt lat="43.139313878038" lon="11.482925731377707"><ele>145.25</ele><time>2026-04-19T09:21:26Z</time></trkpt><trkpt lat="43.13942482121279" lon="11.482845540051091"><ele>145.0</ele><time>2026-04-19T09:21:27Z</time></trkpt><trkpt lat="43.13953717607453" lon="11.482766943543977"><ele>145.5</ele><time>2026-04-19T09:21:28Z</time></trkpt><trkpt lat="43.13965170928577" lon="11.482689238950798"><ele>146.0</ele><time>2026-04-19T09:21:29Z</time></trkpt><trkpt lat="43.13976191588712" lon="11.482609296824576"><ele>146.5</ele><time>2026-04-19T09:21:30Z</time></trkpt><trkpt lat="43.13987752057036" lon="11.482526703572304"><ele>147.0</ele><time>2026-04-19T09:21:31Z</time></trkpt><trkpt lat="43.13999645364181" lon="11.4824403043879"><ele>146.0</ele><time>2026-04-19T09:21:32Z</time></trkpt><trkpt lat="43.14011748921341" lon="11.482353262224292"><ele>145.0</ele><time>2026-04-19T09:21:33Z</time></trkpt><trkpt lat="43.140244299199075" lon="11.482265916208227"><ele>144.0</ele><time>2026-04-19T09:21:34Z</time></trkpt><trkpt lat="43.140372691188226" lon="11.482178085658033"><ele>143.0</ele><time>2026-04-19T09:21:35Z</time></trkpt><trkpt lat="43.14050075957332" lon="11.482089451502386"><ele>142.75</ele><time>2026-04-19T09:21:36Z</time></trkpt><trkpt lat="43.1406289851278" lon="11.481998737342868"><ele>142.5</ele><time>2026-04-19T09:21:37Z</time></trkpt><trkpt lat="43.140759441352074" lon="11.481906984946757"><ele>142.25</ele><time>2026-04-19T09:21:38Z</time></trkpt><trkpt lat="43.14089373324302" lon="11.481810875885051"><ele>142.0</ele><time>2026-04-19T09:21:39Z</time></trkpt><trkpt lat="43.14103074979703" lon="11.481714785126227"><ele>141.66666666666669</ele><time>2026-04-19T09:21:40Z</time></trkpt><trkpt lat="43.14116958274552" lon="11.481615727549382"><ele>141.33333333333334</ele><time>2026-04-19T09:21:41Z</time></trkpt><trkpt lat="43.14130564156965" lon="11.481515356137846"><ele>141.0</ele><time>2026-04-19T09:21:42Z</time></trkpt><trkpt lat="43.14143786973602" lon="11.481403758853181"><ele>141.0</ele><time>2026-04-19T09:21:43Z</time></trkpt><trkpt lat="43.14157170009522" lon="11.481296241137771"><ele>141.0</ele><time>2026-04-19T09:21:44Z</time></trkpt><trkpt lat="43.14169296045137" lon="11.481159433502347"><ele>141.0</ele><time>2026-04-19T09:21:45Z</time></trkpt><trkpt lat="43.14180157395044" lon="11.480996204419995"><ele>141.33333333333334</ele><time>2026-04-19T09:21:46Z</time></trkpt><trkpt lat="43.141923398305224" lon="11.480848836929168"><ele>141.66666666666669</ele><time>2026-04-19T09:21:47Z</time></trkpt><trkpt lat="43.14204332994885" lon="11.480703381200716"><ele>142.0</ele><time>2026-04-19T09:21:48Z</time></trkpt><trkpt lat="43.14216190063075" lon="11.480555755065316"><ele>141.66666666666669</ele><time>2026-04-19T09:21:49Z</time></trkpt><trkpt lat="43.142279517831355" lon="11.480407857142003"><ele>141.33333333333334</ele><time>2026-04-19T09:21:50Z</time></trkpt><trkpt lat="43.14239195353155" lon="11.480263028257559"><ele>141.0</ele><time>2026-04-19T09:21:51Z</time></trkpt><trkpt lat="43.142500169011406" lon="11.48010957587157"><ele>141.66666666666666</ele><time>2026-04-19T09:21:52Z</time></trkpt><trkpt lat="43.142596888428514" lon="11.479943873486743"><ele>142.33333333333331</ele><time>2026-04-19T09:21:53Z</time></trkpt><trkpt lat="43.142681510088075" lon="11.479765783175091"><ele>143.0</ele><time>2026-04-19T09:21:54Z</time></trkpt><trkpt lat="43.14274292709284" lon="11.479574113508914"><ele>143.0</ele><time>2026-04-19T09:21:55Z</time></trkpt><trkpt lat="43.14279037168972" lon="11.479372238392711"><ele>143.0</ele><time>2026-04-19T09:21:56Z</time></trkpt><trkpt lat="43.142829041556425" lon="11.479157472875766"><ele>143.0</ele><time>2026-04-19T09:21:57Z</time></trkpt><trkpt lat="43.142865841688426" lon="11.478937015652232"><ele>143.0</ele><time>2026-04-19T09:21:58Z</time></trkpt><trkpt lat="43.142902290099975" lon="11.478717497071784"><ele>143.0</ele><time>2026-04-19T09:21:59Z</time></trkpt><trkpt lat="43.142939610741685" lon="11.478504174657056"><ele>143.0</ele><time>2026-04-19T09:22:00Z</time></trkpt><trkpt lat="43.14297208297531" lon="11.478304989807874"><ele>143.0</ele><time>2026-04-19T09:22:01Z</time></trkpt><trkpt lat="43.14300521446647" lon="11.478116876373994"><ele>143.0</ele><time>2026-04-19T09:22:02Z</time></trkpt><trkpt lat="43.14304376652575" lon="11.477935486744974"><ele>143.0</ele><time>2026-04-19T09:22:03Z</time></trkpt><trkpt lat="43.14309218655745" lon="11.477763573585596"><ele>143.0</ele><time>2026-04-19T09:22:04Z</time></trkpt><trkpt lat="43.14314910247668" lon="11.477612783404593"><ele>143.0</ele><time>2026-04-19T09:22:05Z</time></trkpt><trkpt lat="43.14321020774203" lon="11.477474436805485"><ele>143.0</ele><time>2026-04-19T09:22:06Z</time></trkpt><trkpt lat="43.14328004920494" lon="11.477333877650345"><ele>143.0</ele><time>2026-04-19T09:22:07Z</time></trkpt><trkpt lat="43.14335492369044" lon="11.477207582133726"><ele>143.0</ele><time>2026-04-19T09:22:08Z</time></trkpt><trkpt lat="43.1434408033922" lon="11.477088581006308"><ele>143.0</ele><time>2026-04-19T09:22:09Z</time></trkpt><trkpt lat="43.14354100653317" lon="11.476967888398814"><ele>143.0</ele><time>2026-04-19T09:22:10.001Z</time></trkpt><trkpt lat="43.143654415755066" lon="11.476849092658341"><ele>143.0</ele><time>2026-04-19T09:22:11.001Z</time></trkpt><trkpt lat="43.1437740773349" lon="11.476721986866973"><ele>143.0</ele><time>2026-04-19T09:22:12.001Z</time></trkpt><trkpt lat="43.14389572017557" lon="11.476588485589762"><ele>143.0</ele><time>2026-04-19T09:22:13.001Z</time></trkpt><trkpt lat="43.14400804000155" lon="11.476465296050506"><ele>143.0</ele><time>2026-04-19T09:22:14.001Z</time></trkpt><trkpt lat="43.144119127384904" lon="11.476356056884265"><ele>143.0</ele><time>2026-04-19T09:22:15Z</time></trkpt><trkpt lat="43.14423672413844" lon="11.47626051549176"><ele>143.0</ele><time>2026-04-19T09:22:16Z</time></trkpt><trkpt lat="43.14437189583064" lon="11.476206096112193"><ele>142.66666666666666</ele><time>2026-04-19T09:22:17Z</time></trkpt><trkpt lat="43.1445162621931" lon="11.476198202261548"><ele>142.33333333333334</ele><time>2026-04-19T09:22:18Z</time></trkpt><trkpt lat="43.14466655237593" lon="11.476225242949697"><ele>142.0</ele><time>2026-04-19T09:22:19Z</time></trkpt><trkpt lat="43.1448207239729" lon="11.47625775193928"><ele>142.0</ele><time>2026-04-19T09:22:20Z</time></trkpt><trkpt lat="43.14497701353923" lon="11.476282700702995"><ele>142.0</ele><time>2026-04-19T09:22:21Z</time></trkpt><trkpt lat="43.145140528616395" lon="11.47627846955841"><ele>142.0</ele><time>2026-04-19T09:22:22Z</time></trkpt><trkpt lat="43.14530955977755" lon="11.476250959592393"><ele>142.0</ele><time>2026-04-19T09:22:23Z</time></trkpt><trkpt lat="43.14547993376639" lon="11.47621353082712"><ele>142.0</ele><time>2026-04-19T09:22:24Z</time></trkpt><trkpt lat="43.145652786366355" lon="11.47616375882858"><ele>142.0</ele><time>2026-04-19T09:22:25Z</time></trkpt><trkpt lat="43.145823982445414" lon="11.476101867806394"><ele>143.0</ele><time>2026-04-19T09:22:26Z</time></trkpt><trkpt lat="43.14599689718973" lon="11.476042263780709"><ele>144.0</ele><time>2026-04-19T09:22:27Z</time></trkpt><trkpt lat="43.14616946874989" lon="11.475982923604"><ele>145.0</ele><time>2026-04-19T09:22:28Z</time></trkpt><trkpt lat="43.146336563802954" lon="11.475933924434784"><ele>145.0</ele><time>2026-04-19T09:22:29Z</time></trkpt><trkpt lat="43.14651652903607" lon="11.475849210573848"><ele>145.0</ele><time>2026-04-19T09:22:30Z</time></trkpt><trkpt lat="43.146689498585616" lon="11.47578910311044"><ele>145.0</ele><time>2026-04-19T09:22:31Z</time></trkpt><trkpt lat="43.14686211502851" lon="11.475723505130071"><ele>146.0</ele><time>2026-04-19T09:22:32Z</time></trkpt><trkpt lat="43.1470380918398" lon="11.475655404600841"><ele>147.0</ele><time>2026-04-19T09:22:33Z</time></trkpt><trkpt lat="43.14721824240996" lon="11.475590192451925"><ele>148.0</ele><time>2026-04-19T09:22:34Z</time></trkpt><trkpt lat="43.14739767164506" lon="11.4755257838204"><ele>148.66666666666669</ele><time>2026-04-19T09:22:35Z</time></trkpt><trkpt lat="43.14757893421258" lon="11.475455754286877"><ele>149.33333333333334</ele><time>2026-04-19T09:22:36Z</time></trkpt><trkpt lat="43.147761721409964" lon="11.47538651376979"><ele>150.0</ele><time>2026-04-19T09:22:37Z</time></trkpt><trkpt lat="43.147944846568514" lon="11.475317683655188"><ele>148.66666666666666</ele><time>2026-04-19T09:22:38Z</time></trkpt><trkpt lat="43.14813221032019" lon="11.475251063749006"><ele>147.33333333333331</ele><time>2026-04-19T09:22:39Z</time></trkpt><trkpt lat="43.148324027046655" lon="11.475184630290931"><ele>146.0</ele><time>2026-04-19T09:22:40Z</time></trkpt><trkpt lat="43.14851486470703" lon="11.475115040216332"><ele>146.0</ele><time>2026-04-19T09:22:41Z</time></trkpt><trkpt lat="43.148707907428445" lon="11.475037287289712"><ele>146.0</ele><time>2026-04-19T09:22:42Z</time></trkpt><trkpt lat="43.148899907656684" lon="11.474957208177079"><ele>146.0</ele><time>2026-04-19T09:22:43Z</time></trkpt><trkpt lat="43.14909157337285" lon="11.474877171151256"><ele>145.66666666666666</ele><time>2026-04-19T09:22:44Z</time></trkpt><trkpt lat="43.1492816694213" lon="11.474787269042054"><ele>145.33333333333334</ele><time>2026-04-19T09:22:45Z</time></trkpt><trkpt lat="43.14947143764074" lon="11.474699993942428"><ele>145.0</ele><time>2026-04-19T09:22:46Z</time></trkpt><trkpt lat="43.149653898564914" lon="11.47458374585537"><ele>145.0</ele><time>2026-04-19T09:22:47Z</time></trkpt><trkpt lat="43.14982992188503" lon="11.474464854813732"><ele>145.0</ele><time>2026-04-19T09:22:48Z</time></trkpt><trkpt lat="43.15000222697591" lon="11.474353931518543"><ele>145.0</ele><time>2026-04-19T09:22:49Z</time></trkpt><trkpt lat="43.15017299356401" lon="11.474246105851412"><ele>145.66666666666669</ele><time>2026-04-19T09:22:50Z</time></trkpt><trkpt lat="43.150337199469014" lon="11.474131953685179"><ele>146.33333333333334</ele><time>2026-04-19T09:22:51Z</time></trkpt><trkpt lat="43.15049841634586" lon="11.4740105335641"><ele>147.0</ele><time>2026-04-19T09:22:52Z</time></trkpt><trkpt lat="43.15065882517514" lon="11.473870038380955"><ele>147.33333333333334</ele><time>2026-04-19T09:22:53Z</time></trkpt><trkpt lat="43.15081707076436" lon="11.47370875772887"><ele>147.66666666666669</ele><time>2026-04-19T09:22:54Z</time></trkpt><trkpt lat="43.150972352923006" lon="11.473538457942304"><ele>148.0</ele><time>2026-04-19T09:22:55Z</time></trkpt><trkpt lat="43.151131237311745" lon="11.473373587016592"><ele>148.0</ele><time>2026-04-19T09:22:56Z</time></trkpt><trkpt lat="43.15129100299135" lon="11.473209484385688"><ele>148.0</ele><time>2026-04-19T09:22:57Z</time></trkpt><trkpt lat="43.15145623423888" lon="11.473052243389622"><ele>148.0</ele><time>2026-04-19T09:22:58Z</time></trkpt><trkpt lat="43.15162838348007" lon="11.47291396162452"><ele>146.33333333333334</ele><time>2026-04-19T09:22:59Z</time></trkpt><trkpt lat="43.151820024349455" lon="11.472811631807634"><ele>144.66666666666666</ele><time>2026-04-19T09:23:00Z</time></trkpt><trkpt lat="43.15201275351434" lon="11.472704422322558"><ele>143.0</ele><time>2026-04-19T09:23:01Z</time></trkpt><trkpt lat="43.15220594512912" lon="11.472613140817579"><ele>143.0</ele><time>2026-04-19T09:23:02Z</time></trkpt><trkpt lat="43.15239318487792" lon="11.472545299450072"><ele>143.0</ele><time>2026-04-19T09:23:03Z</time></trkpt><trkpt lat="43.15258537408791" lon="11.472493013987016"><ele>143.0</ele><time>2026-04-19T09:23:04Z</time></trkpt><trkpt lat="43.15276975796155" lon="11.472429179751645"><ele>143.0</ele><time>2026-04-19T09:23:05Z</time></trkpt><trkpt lat="43.15295102058275" lon="11.472391767133454"><ele>143.0</ele><time>2026-04-19T09:23:06Z</time></trkpt><trkpt lat="43.15313273604848" lon="11.472353334913528"><ele>143.0</ele><time>2026-04-19T09:23:07Z</time></trkpt><trkpt lat="43.153311866326646" lon="11.472318694350372"><ele>143.0</ele><time>2026-04-19T09:23:08Z</time></trkpt><trkpt lat="43.153496033832035" lon="11.472276592547242"><ele>143.0</ele><time>2026-04-19T09:23:09Z</time></trkpt><trkpt lat="43.15368144730183" lon="11.472234567332041"><ele>143.0</ele><time>2026-04-19T09:23:10Z</time></trkpt><trkpt lat="43.153873931362526" lon="11.47219232920593"><ele>143.33333333333331</ele><time>2026-04-19T09:23:11Z</time></trkpt><trkpt lat="43.15406670116058" lon="11.472151151028429"><ele>143.66666666666666</ele><time>2026-04-19T09:23:12Z</time></trkpt><trkpt lat="43.15426335919042" lon="11.47210309031694"><ele>144.0</ele><time>2026-04-19T09:23:13Z</time></trkpt><trkpt lat="43.15446280299012" lon="11.47205516626527"><ele>144.0</ele><time>2026-04-19T09:23:14Z</time></trkpt><trkpt lat="43.15466340351548" lon="11.472006943269326"><ele>144.0</ele><time>2026-04-19T09:23:15Z</time></trkpt><trkpt lat="43.15486289664571" lon="11.471959177039436"><ele>144.0</ele><time>2026-04-19T09:23:16Z</time></trkpt><trkpt lat="43.15506464040017" lon="11.471912884905038"><ele>144.33333333333334</ele><time>2026-04-19T09:23:17Z</time></trkpt><trkpt lat="43.15526687417951" lon="11.471868326660388"><ele>144.66666666666669</ele><time>2026-04-19T09:23:18Z</time></trkpt><trkpt lat="43.15547553749092" lon="11.471823630238617"><ele>145.0</ele><time>2026-04-19T09:23:19Z</time></trkpt><trkpt lat="43.155685822276254" lon="11.471771954226709"><ele>146.0</ele><time>2026-04-19T09:23:20Z</time></trkpt><trkpt lat="43.15589844810816" lon="11.471720159074703"><ele>147.0</ele><time>2026-04-19T09:23:21Z</time></trkpt><trkpt lat="43.15611446896991" lon="11.47167279161375"><ele>148.0</ele><time>2026-04-19T09:23:22Z</time></trkpt><trkpt lat="43.15633295394638" lon="11.471625946466357"><ele>148.33333333333334</ele><time>2026-04-19T09:23:23Z</time></trkpt><trkpt lat="43.15655176410355" lon="11.471573582347343"><ele>148.66666666666666</ele><time>2026-04-19T09:23:24Z</time></trkpt><trkpt lat="43.156769036229115" lon="11.471527548172988"><ele>149.0</ele><time>2026-04-19T09:23:25Z</time></trkpt><trkpt lat="43.15698466035807" lon="11.471479413776695"><ele>149.0</ele><time>2026-04-19T09:23:26Z</time></trkpt><trkpt lat="43.1572015036446" lon="11.471430611013414"><ele>149.0</ele><time>2026-04-19T09:23:27Z</time></trkpt><trkpt lat="43.15741743739472" lon="11.471379504997401"><ele>149.0</ele><time>2026-04-19T09:23:28Z</time></trkpt><trkpt lat="43.15762962573564" lon="11.471323634362065"><ele>148.33333333333331</ele><time>2026-04-19T09:23:29Z</time></trkpt><trkpt lat="43.157829410141176" lon="11.47125458563345"><ele>147.66666666666666</ele><time>2026-04-19T09:23:30Z</time></trkpt><trkpt lat="43.1580212280666" lon="11.471149552555383"><ele>147.0</ele><time>2026-04-19T09:23:31Z</time></trkpt><trkpt lat="43.158209158618575" lon="11.47101134818826"><ele>147.0</ele><time>2026-04-19T09:23:32Z</time></trkpt><trkpt lat="43.15839232251245" lon="11.470868871418483"><ele>147.0</ele><time>2026-04-19T09:23:33Z</time></trkpt><trkpt lat="43.158578735327595" lon="11.47072608738506"><ele>147.0</ele><time>2026-04-19T09:23:34Z</time></trkpt><trkpt lat="43.15876213001413" lon="11.470582472109726"><ele>147.0</ele><time>2026-04-19T09:23:35Z</time></trkpt><trkpt lat="43.15894827273781" lon="11.470428129658217"><ele>147.0</ele><time>2026-04-19T09:23:36Z</time></trkpt><trkpt lat="43.15913562212635" lon="11.47026631805231"><ele>147.0</ele><time>2026-04-19T09:23:37Z</time></trkpt><trkpt lat="43.159324643636786" lon="11.470101404485334"><ele>147.0</ele><time>2026-04-19T09:23:38Z</time></trkpt><trkpt lat="43.15950516032267" lon="11.469929199941275"><ele>147.0</ele><time>2026-04-19T09:23:39Z</time></trkpt><trkpt lat="43.15968432272097" lon="11.469737025540887"><ele>147.0</ele><time>2026-04-19T09:23:40Z</time></trkpt><trkpt lat="43.15989715916459" lon="11.469559565367325"><ele>146.66666666666666</ele><time>2026-04-19T09:23:41Z</time></trkpt><trkpt lat="43.160084144615126" lon="11.469382263974824"><ele>146.33333333333331</ele><time>2026-04-19T09:23:42Z</time></trkpt><trkpt lat="43.16019946756757" lon="11.469246293080797"><ele>146.0</ele><time>2026-04-19T09:23:43Z</time></trkpt><trkpt lat="43.16037370570537" lon="11.46914353923902"><ele>146.0</ele><time>2026-04-19T09:23:44Z</time></trkpt><trkpt lat="43.16050470278406" lon="11.46898126985252"><ele>146.0</ele><time>2026-04-19T09:23:45Z</time></trkpt><trkpt lat="43.160646241168536" lon="11.46885162630274"><ele>146.0</ele><time>2026-04-19T09:23:46Z</time></trkpt><trkpt lat="43.160807482621465" lon="11.468792514953225"><ele>147.0</ele><time>2026-04-19T09:23:47Z</time></trkpt><trkpt lat="43.1609607383896" lon="11.468735015003553"><ele>148.0</ele><time>2026-04-19T09:23:48Z</time></trkpt><trkpt lat="43.16112520975364" lon="11.468695323754769"><ele>149.0</ele><time>2026-04-19T09:23:49Z</time></trkpt><trkpt lat="43.16129609352442" lon="11.468643277524142"><ele>149.0</ele><time>2026-04-19T09:23:50Z</time></trkpt><trkpt lat="43.16147538118765" lon="11.468608890120432"><ele>149.0</ele><time>2026-04-19T09:23:51Z</time></trkpt><trkpt lat="43.16165343853183" lon="11.468573949929032"><ele>149.0</ele><time>2026-04-19T09:23:52Z</time></trkpt><trkpt lat="43.16183530781189" lon="11.468534708817751"><ele>148.66666666666666</ele><time>2026-04-19T09:23:53Z</time></trkpt><trkpt lat="43.16202029517943" lon="11.468499198903595"><ele>148.33333333333334</ele><time>2026-04-19T09:23:54Z</time></trkpt><trkpt lat="43.16219697463021" lon="11.468468968390864"><ele>148.0</ele><time>2026-04-19T09:23:55Z</time></trkpt><trkpt lat="43.16237232324296" lon="11.468435744658867"><ele>148.0</ele><time>2026-04-19T09:23:56Z</time></trkpt><trkpt lat="43.1625510473763" lon="11.468402645202891"><ele>148.0</ele><time>2026-04-19T09:23:57Z</time></trkpt><trkpt lat="43.1627322407975" lon="11.468360472634425"><ele>148.0</ele><time>2026-04-19T09:23:58Z</time></trkpt><trkpt lat="43.16290825349498" lon="11.46830139045262"><ele>148.0</ele><time>2026-04-19T09:23:59Z</time></trkpt><trkpt lat="43.16308082964491" lon="11.468209560862755"><ele>148.0</ele><time>2026-04-19T09:24:00Z</time></trkpt><trkpt lat="43.1632453538899" lon="11.468093348636176"><ele>148.0</ele><time>2026-04-19T09:24:01Z</time></trkpt><trkpt lat="43.16340850084887" lon="11.467967698411218"><ele>146.66666666666669</ele><time>2026-04-19T09:24:02Z</time></trkpt><trkpt lat="43.163569953675584" lon="11.467854565373418"><ele>145.33333333333334</ele><time>2026-04-19T09:24:03Z</time></trkpt><trkpt lat="43.16372791532944" lon="11.467749315861509"><ele>144.0</ele><time>2026-04-19T09:24:04Z</time></trkpt><trkpt lat="43.16387665749261" lon="11.467645354672628"><ele>144.0</ele><time>2026-04-19T09:24:05Z</time></trkpt><trkpt lat="43.1640251238069" lon="11.46753718333584"><ele>144.0</ele><time>2026-04-19T09:24:06Z</time></trkpt><trkpt lat="43.164170254915405" lon="11.46743249744616"><ele>144.0</ele><time>2026-04-19T09:24:07Z</time></trkpt><trkpt lat="43.16430601351742" lon="11.467337412382856"><ele>144.25</ele><time>2026-04-19T09:24:08Z</time></trkpt><trkpt lat="43.16443001586571" lon="11.467252120641456"><ele>144.5</ele><time>2026-04-19T09:24:09Z</time></trkpt><trkpt lat="43.16454962656771" lon="11.467168880019296"><ele>144.75</ele><time>2026-04-19T09:24:10Z</time></trkpt><trkpt lat="43.16466377655051" lon="11.467087217868757"><ele>145.0</ele><time>2026-04-19T09:24:11Z</time></trkpt><trkpt lat="43.16478329252555" lon="11.466996647458863"><ele>145.75</ele><time>2026-04-19T09:24:12Z</time></trkpt><trkpt lat="43.16490238964409" lon="11.466908758840821"><ele>146.5</ele><time>2026-04-19T09:24:13Z</time></trkpt><trkpt lat="43.165013006807605" lon="11.466830315347243"><ele>147.25</ele><time>2026-04-19T09:24:14Z</time></trkpt><trkpt lat="43.16511494136741" lon="11.46676108350666"><ele>148.0</ele><time>2026-04-19T09:24:15Z</time></trkpt><trkpt lat="43.16521232625029" lon="11.466700541377904"><ele>148.0</ele><time>2026-04-19T09:24:16Z</time></trkpt><trkpt lat="43.165312243768085" lon="11.466640603292287"><ele>148.0</ele><time>2026-04-19T09:24:17Z</time></trkpt><trkpt lat="43.165422146056414" lon="11.466573594707636"><ele>148.0</ele><time>2026-04-19T09:24:18Z</time></trkpt><trkpt lat="43.16553155883768" lon="11.466522779299574"><ele>148.0</ele><time>2026-04-19T09:24:19Z</time></trkpt><trkpt lat="43.165625692938555" lon="11.466480998119293"><ele>148.0</ele><time>2026-04-19T09:24:20Z</time></trkpt><trkpt lat="43.16570909272019" lon="11.466437724802768"><ele>147.6</ele><time>2026-04-19T09:24:21Z</time></trkpt><trkpt lat="43.165793714347274" lon="11.466372493282845"><ele>147.20000000000002</ele><time>2026-04-19T09:24:22Z</time></trkpt><trkpt lat="43.1658737722752" lon="11.46627819495319"><ele>146.8</ele><time>2026-04-19T09:24:23Z</time></trkpt><trkpt lat="43.16594168723027" lon="11.466178044004865"><ele>146.4</ele><time>2026-04-19T09:24:24Z</time></trkpt><trkpt lat="43.16600649080225" lon="11.466085411051282"><ele>146.0</ele><time>2026-04-19T09:24:25Z</time></trkpt><trkpt lat="43.16607213498412" lon="11.465990901368254"><ele>145.6</ele><time>2026-04-19T09:24:26Z</time></trkpt><trkpt lat="43.166139757176104" lon="11.46589656160705"><ele>145.2</ele><time>2026-04-19T09:24:27Z</time></trkpt><trkpt lat="43.166211392540475" lon="11.465799356811514"><ele>144.8</ele><time>2026-04-19T09:24:28Z</time></trkpt><trkpt lat="43.16628294187958" lon="11.465702112665907"><ele>144.4</ele><time>2026-04-19T09:24:29Z</time></trkpt><trkpt lat="43.16635722082899" lon="11.4656013942086"><ele>144.0</ele><time>2026-04-19T09:24:30Z</time></trkpt><trkpt lat="43.166442674241814" lon="11.46549476933212"><ele>144.8</ele><time>2026-04-19T09:24:31Z</time></trkpt><trkpt lat="43.166540959275224" lon="11.465400189632847"><ele>145.60000000000002</ele><time>2026-04-19T09:24:32Z</time></trkpt><trkpt lat="43.16663606284644" lon="11.465319448731018"><ele>146.4</ele><time>2026-04-19T09:24:33Z</time></trkpt><trkpt lat="43.16672510946236" lon="11.465259917617443"><ele>147.20000000000002</ele><time>2026-04-19T09:24:33.999Z</time></trkpt><trkpt lat="43.16681498182078" lon="11.465199669736112"><ele>148.0</ele><time>2026-04-19T09:24:35Z</time></trkpt><trkpt lat="43.16691788438941" lon="11.46514863501969"><ele>148.0</ele><time>2026-04-19T09:24:36Z</time></trkpt><trkpt lat="43.16702133236058" lon="11.465105701640528"><ele>148.0</ele><time>2026-04-19T09:24:37Z</time></trkpt><trkpt lat="43.16712879271822" lon="11.465082450931098"><ele>148.0</ele><time>2026-04-19T09:24:38Z</time></trkpt><trkpt lat="43.1672450372616" lon="11.46507186808258"><ele>148.0</ele><time>2026-04-19T09:24:39Z</time></trkpt><trkpt lat="43.16736713078499" lon="11.465073566831029"><ele>148.25</ele><time>2026-04-19T09:24:40Z</time></trkpt><trkpt lat="43.16749645694291" lon="11.465084897558153"><ele>148.5</ele><time>2026-04-19T09:24:41Z</time></trkpt><trkpt lat="43.16762724621153" lon="11.46511670361847"><ele>148.75</ele><time>2026-04-19T09:24:42Z</time></trkpt><trkpt lat="43.16775259784315" lon="11.465166861808145"><ele>149.0</ele><time>2026-04-19T09:24:43Z</time></trkpt><trkpt lat="43.16787809712208" lon="11.465235648321265"><ele>149.0</ele><time>2026-04-19T09:24:44Z</time></trkpt><trkpt lat="43.168003750017576" lon="11.465312902314455"><ele>149.0</ele><time>2026-04-19T09:24:45Z</time></trkpt><trkpt lat="43.168128342067654" lon="11.465385640488767"><ele>149.0</ele><time>2026-04-19T09:24:46Z</time></trkpt><trkpt lat="43.168239455882876" lon="11.465451023298773"><ele>149.0</ele><time>2026-04-19T09:24:47Z</time></trkpt><trkpt lat="43.16835095044207" lon="11.465519021943555"><ele>149.0</ele><time>2026-04-19T09:24:48Z</time></trkpt><trkpt lat="43.16846466741711" lon="11.465575669877998"><ele>149.0</ele><time>2026-04-19T09:24:49Z</time></trkpt><trkpt lat="43.16857903771473" lon="11.465624732910827"><ele>149.0</ele><time>2026-04-19T09:24:50Z</time></trkpt><trkpt lat="43.168685017153855" lon="11.465665651973174"><ele>149.0</ele><time>2026-04-19T09:24:51Z</time></trkpt><trkpt lat="43.16879524389057" lon="11.465693903630441"><ele>149.0</ele><time>2026-04-19T09:24:52Z</time></trkpt><trkpt lat="43.168910453407385" lon="11.465719498194577"><ele>149.0</ele><time>2026-04-19T09:24:53Z</time></trkpt><trkpt lat="43.169020939209936" lon="11.465741053825724"><ele>149.0</ele><time>2026-04-19T09:24:54Z</time></trkpt><trkpt lat="43.16912650446381" lon="11.465755975169138"><ele>149.0</ele><time>2026-04-19T09:24:55Z</time></trkpt><trkpt lat="43.1692367336447" lon="11.465764316357733"><ele>149.0</ele><time>2026-04-19T09:24:56Z</time></trkpt><trkpt lat="43.16934833229428" lon="11.465765823937865"><ele>149.0</ele><time>2026-04-19T09:24:57Z</time></trkpt><trkpt lat="43.169456909818855" lon="11.465761443714"><ele>149.0</ele><time>2026-04-19T09:24:58Z</time></trkpt><trkpt lat="43.16956696840296" lon="11.465748685273471"><ele>149.0</ele><time>2026-04-19T09:24:59Z</time></trkpt><trkpt lat="43.16968076492888" lon="11.46572993909923"><ele>149.0</ele><time>2026-04-19T09:25:00Z</time></trkpt><trkpt lat="43.16979438935188" lon="11.465701913756153"><ele>149.0</ele><time>2026-04-19T09:25:01Z</time></trkpt><trkpt lat="43.169906521942046" lon="11.465669743546053"><ele>149.0</ele><time>2026-04-19T09:25:02Z</time></trkpt><trkpt lat="43.17001872908925" lon="11.46562945886602"><ele>149.0</ele><time>2026-04-19T09:25:03Z</time></trkpt><trkpt lat="43.17012743482689" lon="11.465587977392362"><ele>149.0</ele><time>2026-04-19T09:25:04Z</time></trkpt><trkpt lat="43.17022880333845" lon="11.465547088620367"><ele>149.0</ele><time>2026-04-19T09:25:05Z</time></trkpt><trkpt lat="43.17032606761607" lon="11.465505484372278"><ele>149.0</ele><time>2026-04-19T09:25:06Z</time></trkpt><trkpt lat="43.17042511787919" lon="11.465465688508065"><ele>149.0</ele><time>2026-04-19T09:25:07Z</time></trkpt><trkpt lat="43.17052428301896" lon="11.465423782533811"><ele>149.0</ele><time>2026-04-19T09:25:08Z</time></trkpt><trkpt lat="43.170623529826656" lon="11.465382479563328"><ele>149.0</ele><time>2026-04-19T09:25:09Z</time></trkpt><trkpt lat="43.17072855856413" lon="11.465344754417536"><ele>149.0</ele><time>2026-04-19T09:25:10Z</time></trkpt><trkpt lat="43.17083643380074" lon="11.465303412829481"><ele>149.0</ele><time>2026-04-19T09:25:11Z</time></trkpt><trkpt lat="43.170948600493524" lon="11.46526138320856"><ele>149.0</ele><time>2026-04-19T09:25:12Z</time></trkpt><trkpt lat="43.17107069523136" lon="11.465214062637822"><ele>149.0</ele><time>2026-04-19T09:25:13Z</time></trkpt><trkpt lat="43.171205747018355" lon="11.465162790309204"><ele>149.0</ele><time>2026-04-19T09:25:14Z</time></trkpt><trkpt lat="43.17134642339554" lon="11.465099598421729"><ele>149.0</ele><time>2026-04-19T09:25:15Z</time></trkpt><trkpt lat="43.17147903289551" lon="11.465054208107942"><ele>148.75</ele><time>2026-04-19T09:25:16Z</time></trkpt><trkpt lat="43.17161438774152" lon="11.464998857400044"><ele>148.5</ele><time>2026-04-19T09:25:17Z</time></trkpt><trkpt lat="43.17175766496908" lon="11.46494193673736"><ele>148.25</ele><time>2026-04-19T09:25:18Z</time></trkpt><trkpt lat="43.17190726480408" lon="11.464880685238903"><ele>148.0</ele><time>2026-04-19T09:25:19Z</time></trkpt><trkpt lat="43.17204644154342" lon="11.464831821134204"><ele>148.0</ele><time>2026-04-19T09:25:20Z</time></trkpt><trkpt lat="43.17218185455281" lon="11.464774657992653"><ele>148.0</ele><time>2026-04-19T09:25:21Z</time></trkpt><trkpt lat="43.17231881366348" lon="11.46472045630966"><ele>148.0</ele><time>2026-04-19T09:25:22Z</time></trkpt><trkpt lat="43.17245223814679" lon="11.464666816051798"><ele>148.0</ele><time>2026-04-19T09:25:23Z</time></trkpt><trkpt lat="43.172589747743984" lon="11.464613385286752"><ele>148.5</ele><time>2026-04-19T09:25:24Z</time></trkpt><trkpt lat="43.172726148369776" lon="11.464557301303659"><ele>149.0</ele><time>2026-04-19T09:25:25Z</time></trkpt><trkpt lat="43.172866462114634" lon="11.464500990387325"><ele>149.5</ele><time>2026-04-19T09:25:26Z</time></trkpt><trkpt lat="43.173008785021395" lon="11.464444048272666"><ele>150.0</ele><time>2026-04-19T09:25:27Z</time></trkpt><trkpt lat="43.17315905183883" lon="11.464385842268499"><ele>150.0</ele><time>2026-04-19T09:25:28Z</time></trkpt><trkpt lat="43.173317745904576" lon="11.46432505097644"><ele>150.0</ele><time>2026-04-19T09:25:29Z</time></trkpt><trkpt lat="43.17347685800206" lon="11.464257389412134"><ele>150.0</ele><time>2026-04-19T09:25:30Z</time></trkpt><trkpt lat="43.17362738354307" lon="11.464191194204908"><ele>150.0</ele><time>2026-04-19T09:25:31Z</time></trkpt><trkpt lat="43.17378432197182" lon="11.464133761637214"><ele>150.0</ele><time>2026-04-19T09:25:32Z</time></trkpt><trkpt lat="43.173949150564354" lon="11.464070233379335"><ele>150.0</ele><time>2026-04-19T09:25:33Z</time></trkpt><trkpt lat="43.17411918663885" lon="11.464000970722989"><ele>149.33333333333334</ele><time>2026-04-19T09:25:34Z</time></trkpt><trkpt lat="43.174293462973885" lon="11.463933252393913"><ele>148.66666666666669</ele><time>2026-04-19T09:25:35Z</time></trkpt><trkpt lat="43.174471334693344" lon="11.463864024136226"><ele>148.0</ele><time>2026-04-19T09:25:36Z</time></trkpt><trkpt lat="43.17465394343315" lon="11.463789436494311"><ele>148.33333333333334</ele><time>2026-04-19T09:25:37Z</time></trkpt><trkpt lat="43.174838634398256" lon="11.463717565299683"><ele>148.66666666666666</ele><time>2026-04-19T09:25:38Z</time></trkpt><trkpt lat="43.17502328467905" lon="11.463645797110058"><ele>149.0</ele><time>2026-04-19T09:25:39Z</time></trkpt><trkpt lat="43.175211035943214" lon="11.463573084157249"><ele>149.33333333333331</ele><time>2026-04-19T09:25:40Z</time></trkpt><trkpt lat="43.175400029031444" lon="11.463496613480316"><ele>149.66666666666666</ele><time>2026-04-19T09:25:41Z</time></trkpt><trkpt lat="43.17558544814074" lon="11.46341963447759"><ele>150.0</ele><time>2026-04-19T09:25:42Z</time></trkpt><trkpt lat="43.17577078839295" lon="11.463345950267007"><ele>150.66666666666666</ele><time>2026-04-19T09:25:43Z</time></trkpt><trkpt lat="43.17595765759795" lon="11.46327050108475"><ele>151.33333333333331</ele><time>2026-04-19T09:25:44Z</time></trkpt><trkpt lat="43.176142508447754" lon="11.46319528080071"><ele>152.0</ele><time>2026-04-19T09:25:45Z</time></trkpt><trkpt lat="43.17632436739582" lon="11.463124725383652"><ele>152.0</ele><time>2026-04-19T09:25:46Z</time></trkpt><trkpt lat="43.17650409999705" lon="11.463054396964306"><ele>152.0</ele><time>2026-04-19T09:25:47Z</time></trkpt><trkpt lat="43.176684020091166" lon="11.462983187049106"><ele>152.0</ele><time>2026-04-19T09:25:48Z</time></trkpt><trkpt lat="43.17686184216818" lon="11.46291031141079"><ele>152.33333333333331</ele><time>2026-04-19T09:25:49Z</time></trkpt><trkpt lat="43.17703804668252" lon="11.462838191240003"><ele>152.66666666666666</ele><time>2026-04-19T09:25:50Z</time></trkpt><trkpt lat="43.17721455295142" lon="11.462768216054327"><ele>153.0</ele><time>2026-04-19T09:25:51Z</time></trkpt><trkpt lat="43.17738858872191" lon="11.462700264687612"><ele>153.33333333333334</ele><time>2026-04-19T09:25:52Z</time></trkpt><trkpt lat="43.177563120071184" lon="11.462628981835964"><ele>153.66666666666669</ele><time>2026-04-19T09:25:53Z</time></trkpt><trkpt lat="43.17773177933975" lon="11.462562257436543"><ele>154.0</ele><time>2026-04-19T09:25:54Z</time></trkpt><trkpt lat="43.17789512198669" lon="11.462501886711484"><ele>154.0</ele><time>2026-04-19T09:25:55Z</time></trkpt><trkpt lat="43.178058862481265" lon="11.462455238613755"><ele>154.0</ele><time>2026-04-19T09:25:56Z</time></trkpt><trkpt lat="43.17822373973009" lon="11.462449272283033"><ele>154.0</ele><time>2026-04-19T09:25:57Z</time></trkpt><trkpt lat="43.178401007439874" lon="11.462496976428405"><ele>153.66666666666669</ele><time>2026-04-19T09:25:58Z</time></trkpt><trkpt lat="43.17857865903565" lon="11.462573698746574"><ele>153.33333333333334</ele><time>2026-04-19T09:25:59Z</time></trkpt><trkpt lat="43.17874985727388" lon="11.462631876876"><ele>153.0</ele><time>2026-04-19T09:26:00Z</time></trkpt><trkpt lat="43.178914509430584" lon="11.462705710820142"><ele>154.33333333333334</ele><time>2026-04-19T09:26:01Z</time></trkpt><trkpt lat="43.17908027751262" lon="11.462721444001073"><ele>155.66666666666669</ele><time>2026-04-19T09:26:02Z</time></trkpt><trkpt lat="43.179233014188966" lon="11.462773076651303"><ele>157.0</ele><time>2026-04-19T09:26:03Z</time></trkpt><trkpt lat="43.1793795495594" lon="11.462810423031463"><ele>157.0</ele><time>2026-04-19T09:26:04Z</time></trkpt><trkpt lat="43.179521815689554" lon="11.462823286793183"><ele>157.0</ele><time>2026-04-19T09:26:05Z</time></trkpt><trkpt lat="43.17966634755501" lon="11.462802711361958"><ele>157.0</ele><time>2026-04-19T09:26:06Z</time></trkpt><trkpt lat="43.179812488388436" lon="11.462741775748647"><ele>157.0</ele><time>2026-04-19T09:26:07Z</time></trkpt><trkpt lat="43.179949634333646" lon="11.462639522694436"><ele>157.33333333333334</ele><time>2026-04-19T09:26:08Z</time></trkpt><trkpt lat="43.18007507943243" lon="11.462501325572214"><ele>157.66666666666666</ele><time>2026-04-19T09:26:09Z</time></trkpt><trkpt lat="43.18018387003837" lon="11.462324467169438"><ele>158.0</ele><time>2026-04-19T09:26:10Z</time></trkpt><trkpt lat="43.18027912291402" lon="11.462111353263511"><ele>161.0</ele><time>2026-04-19T09:26:11Z</time></trkpt><trkpt lat="43.180358487158564" lon="11.461878328912155"><ele>164.0</ele><time>2026-04-19T09:26:12Z</time></trkpt><trkpt lat="43.180430242805556" lon="11.461656827170808"><ele>167.0</ele><time>2026-04-19T09:26:13Z</time></trkpt><trkpt lat="43.18051400000111" lon="11.461441961590046"><ele>165.33333333333331</ele><time>2026-04-19T09:26:14Z</time></trkpt><trkpt lat="43.18063234596373" lon="11.461267561548993"><ele>163.66666666666666</ele><time>2026-04-19T09:26:15Z</time></trkpt><trkpt lat="43.18076270282783" lon="11.461100708268386"><ele>162.0</ele><time>2026-04-19T09:26:16Z</time></trkpt><trkpt lat="43.18088771689434" lon="11.460924838393078"><ele>162.0</ele><time>2026-04-19T09:26:17Z</time></trkpt><trkpt lat="43.18103455439166" lon="11.460778244975343"><ele>162.0</ele><time>2026-04-19T09:26:18Z</time></trkpt><trkpt lat="43.18118484441496" lon="11.460624446802878"><ele>162.0</ele><time>2026-04-19T09:26:19Z</time></trkpt><trkpt lat="43.181337962395084" lon="11.46047087169491"><ele>161.33333333333334</ele><time>2026-04-19T09:26:20Z</time></trkpt><trkpt lat="43.18149384852995" lon="11.460310579053557"><ele>160.66666666666669</ele><time>2026-04-19T09:26:21Z</time></trkpt><trkpt lat="43.18166501165166" lon="11.460163586529504"><ele>160.0</ele><time>2026-04-19T09:26:22Z</time></trkpt><trkpt lat="43.181827674263346" lon="11.459999912875245"><ele>160.0</ele><time>2026-04-19T09:26:23Z</time></trkpt><trkpt lat="43.1819948524552" lon="11.459831695583494"><ele>160.0</ele><time>2026-04-19T09:26:24Z</time></trkpt><trkpt lat="43.18215249745155" lon="11.459654394917518"><ele>160.0</ele><time>2026-04-19T09:26:25Z</time></trkpt><trkpt lat="43.18231683191931" lon="11.459489000390152"><ele>160.0</ele><time>2026-04-19T09:26:26Z</time></trkpt><trkpt lat="43.18247865166162" lon="11.45932914706147"><ele>160.0</ele><time>2026-04-19T09:26:27Z</time></trkpt><trkpt lat="43.18263695299549" lon="11.459172353125355"><ele>160.0</ele><time>2026-04-19T09:26:28Z</time></trkpt><trkpt lat="43.18279542419928" lon="11.45901860721219"><ele>160.0</ele><time>2026-04-19T09:26:29Z</time></trkpt><trkpt lat="43.18294514595332" lon="11.458869590448687"><ele>160.0</ele><time>2026-04-19T09:26:30Z</time></trkpt><trkpt lat="43.18308608356596" lon="11.458728252696988"><ele>160.0</ele><time>2026-04-19T09:26:31Z</time></trkpt><trkpt lat="43.183217134906506" lon="11.45859476502732"><ele>160.5</ele><time>2026-04-19T09:26:32Z</time></trkpt><trkpt lat="43.18334013287763" lon="11.458468413090705"><ele>161.0</ele><time>2026-04-19T09:26:33Z</time></trkpt><trkpt lat="43.18345330000468" lon="11.458351057975312"><ele>161.5</ele><time>2026-04-19T09:26:34Z</time></trkpt><trkpt lat="43.18355963869541" lon="11.458242972962848"><ele>162.0</ele><time>2026-04-19T09:26:35Z</time></trkpt><trkpt lat="43.183661933220854" lon="11.458150934841443"><ele>162.0</ele><time>2026-04-19T09:26:36Z</time></trkpt><trkpt lat="43.183744859939424" lon="11.458041280501554"><ele>162.0</ele><time>2026-04-19T09:26:37Z</time></trkpt><trkpt lat="43.183835860856775" lon="11.457940659287479"><ele>162.0</ele><time>2026-04-19T09:26:38Z</time></trkpt><trkpt lat="43.18393140766451" lon="11.457832896828258"><ele>162.0</ele><time>2026-04-19T09:26:39Z</time></trkpt><trkpt lat="43.18403733662627" lon="11.457713873787272"><ele>162.25</ele><time>2026-04-19T09:26:40Z</time></trkpt><trkpt lat="43.18414927336102" lon="11.457586166236723"><ele>162.5</ele><time>2026-04-19T09:26:41Z</time></trkpt><trkpt lat="43.18426359616889" lon="11.4574531351772"><ele>162.75</ele><time>2026-04-19T09:26:42Z</time></trkpt><trkpt lat="43.18437524408406" lon="11.457317295171064"><ele>163.0</ele><time>2026-04-19T09:26:43Z</time></trkpt><trkpt lat="43.18448648875648" lon="11.45717940864309"><ele>163.0</ele><time>2026-04-19T09:26:44Z</time></trkpt><trkpt lat="43.18460233526838" lon="11.457038432155745"><ele>163.0</ele><time>2026-04-19T09:26:45Z</time></trkpt><trkpt lat="43.18472777215288" lon="11.456885523367069"><ele>163.0</ele><time>2026-04-19T09:26:46Z</time></trkpt><trkpt lat="43.18486505873806" lon="11.456716806448572"><ele>163.0</ele><time>2026-04-19T09:26:47Z</time></trkpt><trkpt lat="43.184999671599016" lon="11.456546537784302"><ele>163.0</ele><time>2026-04-19T09:26:48Z</time></trkpt><trkpt lat="43.185140099571896" lon="11.45637052489834"><ele>163.0</ele><time>2026-04-19T09:26:49Z</time></trkpt><trkpt lat="43.18527064752498" lon="11.456206290910451"><ele>163.66666666666669</ele><time>2026-04-19T09:26:50Z</time></trkpt><trkpt lat="43.185423598318096" lon="11.456016309978668"><ele>164.33333333333334</ele><time>2026-04-19T09:26:51Z</time></trkpt><trkpt lat="43.18556754419655" lon="11.455840262643486"><ele>165.0</ele><time>2026-04-19T09:26:52Z</time></trkpt><trkpt lat="43.185707443400716" lon="11.455673711169247"><ele>165.0</ele><time>2026-04-19T09:26:53Z</time></trkpt><trkpt lat="43.18585031512003" lon="11.45550413945888"><ele>165.0</ele><time>2026-04-19T09:26:54Z</time></trkpt><trkpt lat="43.186010932417325" lon="11.455353852071987"><ele>165.0</ele><time>2026-04-19T09:26:55Z</time></trkpt><trkpt lat="43.186177615235" lon="11.45520942959055"><ele>166.33333333333334</ele><time>2026-04-19T09:26:56Z</time></trkpt><trkpt lat="43.18635151162248" lon="11.455078773812355"><ele>167.66666666666669</ele><time>2026-04-19T09:26:57Z</time></trkpt><trkpt lat="43.186534341182124" lon="11.454966402483985"><ele>169.0</ele><time>2026-04-19T09:26:58Z</time></trkpt><trkpt lat="43.18671849334855" lon="11.454864773246419"><ele>169.33333333333334</ele><time>2026-04-19T09:26:59Z</time></trkpt><trkpt lat="43.186898752228515" lon="11.45476553788129"><ele>169.66666666666666</ele><time>2026-04-19T09:27:00Z</time></trkpt><trkpt lat="43.187075446657175" lon="11.454665793157924"><ele>170.0</ele><time>2026-04-19T09:27:01Z</time></trkpt><trkpt lat="43.18725070879024" lon="11.454564015301223"><ele>173.0</ele><time>2026-04-19T09:27:02Z</time></trkpt><trkpt lat="43.18742139381131" lon="11.454465224730736"><ele>176.0</ele><time>2026-04-19T09:27:03Z</time></trkpt><trkpt lat="43.18758533360352" lon="11.454369558818835"><ele>179.0</ele><time>2026-04-19T09:27:04Z</time></trkpt><trkpt lat="43.18774068792609" lon="11.454278389045033"><ele>179.0</ele><time>2026-04-19T09:27:05Z</time></trkpt><trkpt lat="43.18788879783688" lon="11.454196433542442"><ele>179.0</ele><time>2026-04-19T09:27:06Z</time></trkpt><trkpt lat="43.18803729952694" lon="11.45411826842227"><ele>179.0</ele><time>2026-04-19T09:27:07Z</time></trkpt><trkpt lat="43.18818893536117" lon="11.454058920860387"><ele>179.66666666666666</ele><time>2026-04-19T09:27:08Z</time></trkpt><trkpt lat="43.18835329629353" lon="11.454035504222022"><ele>180.33333333333334</ele><time>2026-04-19T09:27:09Z</time></trkpt><trkpt lat="43.1885289779106" lon="11.454033302081143"><ele>181.0</ele><time>2026-04-19T09:27:10Z</time></trkpt><trkpt lat="43.18870910911355" lon="11.454039010532838"><ele>181.0</ele><time>2026-04-19T09:27:11Z</time></trkpt><trkpt lat="43.188880798789235" lon="11.454046959068497"><ele>181.0</ele><time>2026-04-19T09:27:12Z</time></trkpt><trkpt lat="43.189042668927186" lon="11.454049657754323"><ele>181.0</ele><time>2026-04-19T09:27:13Z</time></trkpt><trkpt lat="43.18919836751327" lon="11.454050769700538"><ele>180.0</ele><time>2026-04-19T09:27:14Z</time></trkpt><trkpt lat="43.18934813048944" lon="11.454055080366278"><ele>179.0</ele><time>2026-04-19T09:27:15Z</time></trkpt><trkpt lat="43.189483729539944" lon="11.454057594178131"><ele>178.0</ele><time>2026-04-19T09:27:16Z</time></trkpt><trkpt lat="43.1896164197167" lon="11.454051161668845"><ele>177.0</ele><time>2026-04-19T09:27:17Z</time></trkpt><trkpt lat="43.18973910908879" lon="11.45402267594345"><ele>177.0</ele><time>2026-04-19T09:27:18Z</time></trkpt><trkpt lat="43.18984691853408" lon="11.453974873644357"><ele>177.0</ele><time>2026-04-19T09:27:19Z</time></trkpt><trkpt lat="43.18994897919999" lon="11.453905038207099"><ele>177.0</ele><time>2026-04-19T09:27:20Z</time></trkpt><trkpt lat="43.19005952905108" lon="11.45382466967075"><ele>177.0</ele><time>2026-04-19T09:27:21Z</time></trkpt><trkpt lat="43.19017725828359" lon="11.453741237198823"><ele>177.0</ele><time>2026-04-19T09:27:22Z</time></trkpt><trkpt lat="43.19030020932786" lon="11.453662905748189"><ele>177.0</ele><time>2026-04-19T09:27:23Z</time></trkpt><trkpt lat="43.190421688755826" lon="11.453597688486678"><ele>177.0</ele><time>2026-04-19T09:27:24Z</time></trkpt><trkpt lat="43.19054398818569" lon="11.45352001158386"><ele>177.0</ele><time>2026-04-19T09:27:25Z</time></trkpt><trkpt lat="43.19068175231529" lon="11.453453108422654"><ele>175.5</ele><time>2026-04-19T09:27:26Z</time></trkpt><trkpt lat="43.19083608154113" lon="11.453400862367394"><ele>174.0</ele><time>2026-04-19T09:27:27Z</time></trkpt><trkpt lat="43.19097921416042" lon="11.453373533570637"><ele>172.5</ele><time>2026-04-19T09:27:28Z</time></trkpt><trkpt lat="43.19111161673847" lon="11.453361465881823"><ele>171.0</ele><time>2026-04-19T09:27:29Z</time></trkpt><trkpt lat="43.19123369516636" lon="11.45336161036878"><ele>171.0</ele><time>2026-04-19T09:27:30Z</time></trkpt><trkpt lat="43.19134544339451" lon="11.45337596884397"><ele>171.0</ele><time>2026-04-19T09:27:31Z</time></trkpt><trkpt lat="43.19144595858051" lon="11.453423132495795"><ele>171.0</ele><time>2026-04-19T09:27:32Z</time></trkpt><trkpt lat="43.19153214969322" lon="11.453518360550168"><ele>171.0</ele><time>2026-04-19T09:27:33Z</time></trkpt><trkpt lat="43.19160962739505" lon="11.45366021945865"><ele>169.33333333333334</ele><time>2026-04-19T09:27:34Z</time></trkpt><trkpt lat="43.19167584521759" lon="11.453846235912625"><ele>167.66666666666669</ele><time>2026-04-19T09:27:35Z</time></trkpt><trkpt lat="43.19174092577084" lon="11.454052819258076"><ele>166.0</ele><time>2026-04-19T09:27:36Z</time></trkpt><trkpt lat="43.19181618708783" lon="11.454245407802032"><ele>166.0</ele><time>2026-04-19T09:27:37Z</time></trkpt><trkpt lat="43.19188482545194" lon="11.45441587698224"><ele>166.0</ele><time>2026-04-19T09:27:38Z</time></trkpt><trkpt lat="43.19195039478639" lon="11.454576082674196"><ele>166.0</ele><time>2026-04-19T09:27:39Z</time></trkpt><trkpt lat="43.19201645883131" lon="11.454721491252654"><ele>166.0</ele><time>2026-04-19T09:27:40Z</time></trkpt><trkpt lat="43.19209562311157" lon="11.45483997047111"><ele>166.0</ele><time>2026-04-19T09:27:41Z</time></trkpt><trkpt lat="43.19219462488043" lon="11.454928081329944"><ele>166.0</ele><time>2026-04-19T09:27:42Z</time></trkpt><trkpt lat="43.19231439538671" lon="11.454978174075757"><ele>166.0</ele><time>2026-04-19T09:27:43Z</time></trkpt><trkpt lat="43.192443294872476" lon="11.455010087259568"><ele>166.0</ele><time>2026-04-19T09:27:44Z</time></trkpt><trkpt lat="43.19256712038921" lon="11.455044254052657"><ele>166.0</ele><time>2026-04-19T09:27:45Z</time></trkpt><trkpt lat="43.192685218095406" lon="11.4550559044371"><ele>166.0</ele><time>2026-04-19T09:27:46Z</time></trkpt><trkpt lat="43.192809794300324" lon="11.455020585542396"><ele>166.0</ele><time>2026-04-19T09:27:47Z</time></trkpt><trkpt lat="43.192927437636484" lon="11.454941970239183"><ele>166.0</ele><time>2026-04-19T09:27:48Z</time></trkpt><trkpt lat="43.19301985539111" lon="11.454845391461816"><ele>166.0</ele><time>2026-04-19T09:27:49Z</time></trkpt><trkpt lat="43.19309653219115" lon="11.454741689362903"><ele>166.0</ele><time>2026-04-19T09:27:50Z</time></trkpt><trkpt lat="43.193150985517356" lon="11.454621750398069"><ele>166.0</ele><time>2026-04-19T09:27:51Z</time></trkpt><trkpt lat="43.19316419342361" lon="11.454484179416115"><ele>166.0</ele><time>2026-04-19T09:27:52Z</time></trkpt><trkpt lat="43.193144389082306" lon="11.454336031149536"><ele>166.0</ele><time>2026-04-19T09:27:53Z</time></trkpt><trkpt lat="43.19311088969264" lon="11.454170029461483"><ele>166.25</ele><time>2026-04-19T09:27:54Z</time></trkpt><trkpt lat="43.193076412822705" lon="11.453988738438298"><ele>166.5</ele><time>2026-04-19T09:27:55Z</time></trkpt><trkpt lat="43.193037879090866" lon="11.45381571371759"><ele>166.75</ele><time>2026-04-19T09:27:56Z</time></trkpt><trkpt lat="43.19299370261468" lon="11.453660109286481"><ele>167.0</ele><time>2026-04-19T09:27:57Z</time></trkpt><trkpt lat="43.19293492451659" lon="11.453525914639087"><ele>167.0</ele><time>2026-04-19T09:27:58Z</time></trkpt><trkpt lat="43.192868866924044" lon="11.453405792920464"><ele>167.0</ele><time>2026-04-19T09:27:59Z</time></trkpt><trkpt lat="43.192804400540226" lon="11.453292715718717"><ele>167.0</ele><time>2026-04-19T09:28:00Z</time></trkpt><trkpt lat="43.19274567810184" lon="11.453178387105991"><ele>167.0</ele><time>2026-04-19T09:28:01Z</time></trkpt><trkpt lat="43.19270316757127" lon="11.453059031432527"><ele>167.0</ele><time>2026-04-19T09:28:02Z</time></trkpt><trkpt lat="43.19268397680193" lon="11.452922535413993"><ele>166.5</ele><time>2026-04-19T09:28:03Z</time></trkpt><trkpt lat="43.192707877411046" lon="11.452769704919625"><ele>166.0</ele><time>2026-04-19T09:28:04Z</time></trkpt><trkpt lat="43.192783455067676" lon="11.452625694098398"><ele>165.5</ele><time>2026-04-19T09:28:05Z</time></trkpt><trkpt lat="43.19287200422787" lon="11.45247203448867"><ele>165.0</ele><time>2026-04-19T09:28:06Z</time></trkpt><trkpt lat="43.192961433102155" lon="11.452300097049614"><ele>165.0</ele><time>2026-04-19T09:28:07Z</time></trkpt><trkpt lat="43.193061494508115" lon="11.452133085372497"><ele>165.0</ele><time>2026-04-19T09:28:08Z</time></trkpt><trkpt lat="43.193156506186874" lon="11.45196649531313"><ele>165.0</ele><time>2026-04-19T09:28:09Z</time></trkpt><trkpt lat="43.193254353750085" lon="11.45180402797857"><ele>162.66666666666666</ele><time>2026-04-19T09:28:10Z</time></trkpt><trkpt lat="43.19335530207784" lon="11.451635594693224"><ele>160.33333333333331</ele><time>2026-04-19T09:28:11Z</time></trkpt><trkpt lat="43.1934592304127" lon="11.451460446603935"><ele>158.0</ele><time>2026-04-19T09:28:12Z</time></trkpt><trkpt lat="43.19356066383576" lon="11.451285563661077"><ele>158.0</ele><time>2026-04-19T09:28:13Z</time></trkpt><trkpt lat="43.19366118970336" lon="11.45111146027341"><ele>158.0</ele><time>2026-04-19T09:28:14Z</time></trkpt><trkpt lat="43.193760742310126" lon="11.450938505709987"><ele>158.0</ele><time>2026-04-19T09:28:15Z</time></trkpt><trkpt lat="43.193859057128606" lon="11.450767195274702"><ele>158.0</ele><time>2026-04-19T09:28:16Z</time></trkpt><trkpt lat="43.193959824382326" lon="11.450594478881357"><ele>158.0</ele><time>2026-04-19T09:28:17Z</time></trkpt><trkpt lat="43.194059991158696" lon="11.450419326663614"><ele>158.0</ele><time>2026-04-19T09:28:18Z</time></trkpt><trkpt lat="43.19416194145387" lon="11.450246503132112"><ele>158.66666666666666</ele><time>2026-04-19T09:28:19Z</time></trkpt><trkpt lat="43.19426169016068" lon="11.450075349952579"><ele>159.33333333333334</ele><time>2026-04-19T09:28:20Z</time></trkpt><trkpt lat="43.19436215335883" lon="11.449902418859281"><ele>160.0</ele><time>2026-04-19T09:28:21Z</time></trkpt><trkpt lat="43.19446062835574" lon="11.449734715770894"><ele>162.0</ele><time>2026-04-19T09:28:22Z</time></trkpt><trkpt lat="43.19455107091033" lon="11.449576417193498"><ele>164.0</ele><time>2026-04-19T09:28:23Z</time></trkpt><trkpt lat="43.19464224043668" lon="11.449418745412787"><ele>166.0</ele><time>2026-04-19T09:28:24Z</time></trkpt><trkpt lat="43.194735420491575" lon="11.449259542948589"><ele>168.0</ele><time>2026-04-19T09:28:25Z</time></trkpt><trkpt lat="43.19482683939044" lon="11.44909978952061"><ele>166.25</ele><time>2026-04-19T09:28:26Z</time></trkpt><trkpt lat="43.19491568375084" lon="11.448940695497255"><ele>164.5</ele><time>2026-04-19T09:28:27Z</time></trkpt><trkpt lat="43.195003566736844" lon="11.44877463856153"><ele>162.75</ele><time>2026-04-19T09:28:28Z</time></trkpt><trkpt lat="43.19508500743737" lon="11.448595951091024"><ele>161.0</ele><time>2026-04-19T09:28:29Z</time></trkpt><trkpt lat="43.19516230174363" lon="11.44839371629935"><ele>161.0</ele><time>2026-04-19T09:28:30Z</time></trkpt><trkpt lat="43.195235961063" lon="11.44817313438132"><ele>161.0</ele><time>2026-04-19T09:28:31.001Z</time></trkpt><trkpt lat="43.19529877533596" lon="11.44794625041237"><ele>161.0</ele><time>2026-04-19T09:28:32.001Z</time></trkpt><trkpt lat="43.195349502265195" lon="11.447716345881398"><ele>162.66666666666666</ele><time>2026-04-19T09:28:33Z</time></trkpt><trkpt lat="43.19539680310224" lon="11.447489172017224"><ele>164.33333333333334</ele><time>2026-04-19T09:28:34Z</time></trkpt><trkpt lat="43.19544291549155" lon="11.447263568397553"><ele>166.0</ele><time>2026-04-19T09:28:35Z</time></trkpt><trkpt lat="43.19549088395071" lon="11.447042714147228"><ele>167.0</ele><time>2026-04-19T09:28:36Z</time></trkpt><trkpt lat="43.19554104447034" lon="11.446822320480416"><ele>168.0</ele><time>2026-04-19T09:28:37Z</time></trkpt><trkpt lat="43.19558840074396" lon="11.446601928607755"><ele>169.0</ele><time>2026-04-19T09:28:38Z</time></trkpt><trkpt lat="43.195633474277024" lon="11.446380714321363"><ele>165.66666666666669</ele><time>2026-04-19T09:28:39Z</time></trkpt><trkpt lat="43.19568222022651" lon="11.446151030444454"><ele>162.33333333333334</ele><time>2026-04-19T09:28:40Z</time></trkpt><trkpt lat="43.19573134370687" lon="11.445925358543404"><ele>159.0</ele><time>2026-04-19T09:28:41Z</time></trkpt><trkpt lat="43.19578545659493" lon="11.445695378953632"><ele>159.0</ele><time>2026-04-19T09:28:42Z</time></trkpt><trkpt lat="43.19584373677093" lon="11.445477064544738"><ele>159.0</ele><time>2026-04-19T09:28:43Z</time></trkpt><trkpt lat="43.195910389656746" lon="11.445276417497388"><ele>159.0</ele><time>2026-04-19T09:28:44Z</time></trkpt><trkpt lat="43.19599005565671" lon="11.445092894192673"><ele>159.66666666666666</ele><time>2026-04-19T09:28:45Z</time></trkpt><trkpt lat="43.196085086589754" lon="11.444913748946055"><ele>160.33333333333331</ele><time>2026-04-19T09:28:46Z</time></trkpt><trkpt lat="43.19618680755902" lon="11.44474010550603"><ele>161.0</ele><time>2026-04-19T09:28:47Z</time></trkpt><trkpt lat="43.19630220807803" lon="11.444583315744774"><ele>160.0</ele><time>2026-04-19T09:28:48Z</time></trkpt><trkpt lat="43.19643617377723" lon="11.444449063559581"><ele>159.0</ele><time>2026-04-19T09:28:49Z</time></trkpt><trkpt lat="43.19658794268004" lon="11.44433184926165"><ele>158.0</ele><time>2026-04-19T09:28:50Z</time></trkpt><trkpt lat="43.196750811207615" lon="11.44422821614323"><ele>158.0</ele><time>2026-04-19T09:28:51Z</time></trkpt><trkpt lat="43.19691706827654" lon="11.444140226502437"><ele>158.0</ele><time>2026-04-19T09:28:52Z</time></trkpt><trkpt lat="43.197082507199084" lon="11.444055704815362"><ele>158.0</ele><time>2026-04-19T09:28:53Z</time></trkpt><trkpt lat="43.19725105390527" lon="11.443968572510661"><ele>158.0</ele><time>2026-04-19T09:28:54Z</time></trkpt><trkpt lat="43.197429001854225" lon="11.443881396895742"><ele>158.0</ele><time>2026-04-19T09:28:55Z</time></trkpt><trkpt lat="43.19760873301302" lon="11.44378997161489"><ele>158.0</ele><time>2026-04-19T09:28:56Z</time></trkpt><trkpt lat="43.19778468779893" lon="11.443699449125674"><ele>158.0</ele><time>2026-04-19T09:28:57Z</time></trkpt><trkpt lat="43.19795914496578" lon="11.443609672890622"><ele>158.0</ele><time>2026-04-19T09:28:58Z</time></trkpt><trkpt lat="43.198132090155354" lon="11.443523974148432"><ele>158.0</ele><time>2026-04-19T09:28:59Z</time></trkpt><trkpt lat="43.198299441261476" lon="11.443444402759935"><ele>158.0</ele><time>2026-04-19T09:29:00Z</time></trkpt><trkpt lat="43.198468899534475" lon="11.44336879094571"><ele>158.0</ele><time>2026-04-19T09:29:01Z</time></trkpt><trkpt lat="43.19865285519902" lon="11.443292550848666"><ele>158.0</ele><time>2026-04-19T09:29:02Z</time></trkpt><trkpt lat="43.19883386438859" lon="11.443239970713684"><ele>157.66666666666666</ele><time>2026-04-19T09:29:03Z</time></trkpt><trkpt lat="43.19902791521446" lon="11.443220365285985"><ele>157.33333333333334</ele><time>2026-04-19T09:29:04Z</time></trkpt><trkpt lat="43.199222549869475" lon="11.44317136932421"><ele>157.0</ele><time>2026-04-19T09:29:05Z</time></trkpt><trkpt lat="43.199416533509556" lon="11.44315960473556"><ele>157.0</ele><time>2026-04-19T09:29:06Z</time></trkpt><trkpt lat="43.1996097511155" lon="11.443148463882647"><ele>157.0</ele><time>2026-04-19T09:29:07Z</time></trkpt><trkpt lat="43.19981395579632" lon="11.443134604886811"><ele>157.0</ele><time>2026-04-19T09:29:08Z</time></trkpt><trkpt lat="43.200018036586734" lon="11.443120219996787"><ele>157.33333333333334</ele><time>2026-04-19T09:29:09Z</time></trkpt><trkpt lat="43.20022003811636" lon="11.443094628125774"><ele>157.66666666666666</ele><time>2026-04-19T09:29:10Z</time></trkpt><trkpt lat="43.20042371030769" lon="11.443077019934895"><ele>158.0</ele><time>2026-04-19T09:29:11Z</time></trkpt><trkpt lat="43.20062420304395" lon="11.443061331870828"><ele>157.33333333333331</ele><time>2026-04-19T09:29:12Z</time></trkpt><trkpt lat="43.20082092312864" lon="11.443043878142506"><ele>156.66666666666666</ele><time>2026-04-19T09:29:13Z</time></trkpt><trkpt lat="43.20101491175575" lon="11.443023126724135"><ele>156.0</ele><time>2026-04-19T09:29:14Z</time></trkpt><trkpt lat="43.201217662457275" lon="11.443003683854208"><ele>156.0</ele><time>2026-04-19T09:29:15Z</time></trkpt><trkpt lat="43.201419488719154" lon="11.442984247752168"><ele>156.0</ele><time>2026-04-19T09:29:16Z</time></trkpt><trkpt lat="43.20162009286243" lon="11.442958370196983"><ele>156.0</ele><time>2026-04-19T09:29:17Z</time></trkpt><trkpt lat="43.20181654303765" lon="11.442938676062631"><ele>157.0</ele><time>2026-04-19T09:29:18Z</time></trkpt><trkpt lat="43.202016607552174" lon="11.442921816351426"><ele>158.0</ele><time>2026-04-19T09:29:19Z</time></trkpt><trkpt lat="43.20220708859322" lon="11.44290237783163"><ele>159.0</ele><time>2026-04-19T09:29:20Z</time></trkpt><trkpt lat="43.20238174167539" lon="11.442888316210245"><ele>159.33333333333334</ele><time>2026-04-19T09:29:21Z</time></trkpt><trkpt lat="43.20254816681953" lon="11.442872391380549"><ele>159.66666666666669</ele><time>2026-04-19T09:29:22Z</time></trkpt><trkpt lat="43.20269982792619" lon="11.442847920026187"><ele>160.0</ele><time>2026-04-19T09:29:23Z</time></trkpt><trkpt lat="43.20283411155222" lon="11.442774265858422"><ele>160.0</ele><time>2026-04-19T09:29:24Z</time></trkpt><trkpt lat="43.20297694079489" lon="11.442670300585078"><ele>160.0</ele><time>2026-04-19T09:29:25Z</time></trkpt><trkpt lat="43.203113230409066" lon="11.442522171804463"><ele>160.0</ele><time>2026-04-19T09:29:26Z</time></trkpt><trkpt lat="43.203245098965525" lon="11.442342106232301"><ele>160.33333333333334</ele><time>2026-04-19T09:29:27Z</time></trkpt><trkpt lat="43.20337517731903" lon="11.442160815853036"><ele>160.66666666666666</ele><time>2026-04-19T09:29:28Z</time></trkpt><trkpt lat="43.20350841700347" lon="11.441986687660195"><ele>161.0</ele><time>2026-04-19T09:29:29Z</time></trkpt><trkpt lat="43.203646535091806" lon="11.441815371461766"><ele>161.0</ele><time>2026-04-19T09:29:30Z</time></trkpt><trkpt lat="43.2037926097475" lon="11.441645935905964"><ele>161.0</ele><time>2026-04-19T09:29:31Z</time></trkpt><trkpt lat="43.203943809690955" lon="11.441488082792686"><ele>161.0</ele><time>2026-04-19T09:29:32Z</time></trkpt><trkpt lat="43.20410029561954" lon="11.441346908624299"><ele>160.33333333333331</ele><time>2026-04-19T09:29:33Z</time></trkpt><trkpt lat="43.20426425853322" lon="11.4412183102097"><ele>159.66666666666666</ele><time>2026-04-19T09:29:34Z</time></trkpt><trkpt lat="43.20443783143362" lon="11.441098037329283"><ele>159.0</ele><time>2026-04-19T09:29:35Z</time></trkpt><trkpt lat="43.2046138709223" lon="11.440983324860968"><ele>159.0</ele><time>2026-04-19T09:29:36Z</time></trkpt><trkpt lat="43.20478936385057" lon="11.440871544194167"><ele>159.0</ele><time>2026-04-19T09:29:37Z</time></trkpt><trkpt lat="43.204953105829794" lon="11.44076972195287"><ele>159.0</ele><time>2026-04-19T09:29:38Z</time></trkpt><trkpt lat="43.205103971969294" lon="11.440679328218804"><ele>158.66666666666666</ele><time>2026-04-19T09:29:39Z</time></trkpt><trkpt lat="43.20525106872835" lon="11.44059281617758"><ele>158.33333333333331</ele><time>2026-04-19T09:29:40Z</time></trkpt><trkpt lat="43.20540693828452" lon="11.440501923185856"><ele>158.0</ele><time>2026-04-19T09:29:41Z</time></trkpt><trkpt lat="43.20555652409703" lon="11.440411797953148"><ele>157.75</ele><time>2026-04-19T09:29:42Z</time></trkpt><trkpt lat="43.20569149230106" lon="11.44032553994508"><ele>157.5</ele><time>2026-04-19T09:29:43Z</time></trkpt><trkpt lat="43.20581731252273" lon="11.440246006777217"><ele>157.25</ele><time>2026-04-19T09:29:44Z</time></trkpt><trkpt lat="43.205935086449955" lon="11.440175020509534"><ele>157.0</ele><time>2026-04-19T09:29:45Z</time></trkpt><trkpt lat="43.206049237035494" lon="11.440109246566623"><ele>157.0</ele><time>2026-04-19T09:29:46Z</time></trkpt><trkpt lat="43.206157328765606" lon="11.440046314836838"><ele>157.0</ele><time>2026-04-19T09:29:47Z</time></trkpt><trkpt lat="43.206259593291335" lon="11.439985848458232"><ele>157.0</ele><time>2026-04-19T09:29:48Z</time></trkpt><trkpt lat="43.206369488711374" lon="11.43992088807596"><ele>157.0</ele><time>2026-04-19T09:29:49Z</time></trkpt><trkpt lat="43.20648080210947" lon="11.439850872870402"><ele>157.0</ele><time>2026-04-19T09:29:50Z</time></trkpt><trkpt lat="43.20659222196673" lon="11.439780020774592"><ele>157.0</ele><time>2026-04-19T09:29:51Z</time></trkpt><trkpt lat="43.20669949040245" lon="11.439710010493664"><ele>157.0</ele><time>2026-04-19T09:29:52Z</time></trkpt><trkpt lat="43.20681914367159" lon="11.439636080277426"><ele>157.0</ele><time>2026-04-19T09:29:53Z</time></trkpt><trkpt lat="43.206942403755484" lon="11.439556527535101"><ele>157.0</ele><time>2026-04-19T09:29:54Z</time></trkpt><trkpt lat="43.207072735035965" lon="11.439472886843667"><ele>157.0</ele><time>2026-04-19T09:29:55Z</time></trkpt><trkpt lat="43.20720406901941" lon="11.439392321531432"><ele>157.0</ele><time>2026-04-19T09:29:56Z</time></trkpt><trkpt lat="43.20732697907114" lon="11.439312969964812"><ele>157.0</ele><time>2026-04-19T09:29:57Z</time></trkpt><trkpt lat="43.20744041288722" lon="11.43922720652128"><ele>157.0</ele><time>2026-04-19T09:29:58Z</time></trkpt><trkpt lat="43.207540346134635" lon="11.439109662111887"><ele>157.0</ele><time>2026-04-19T09:29:59Z</time></trkpt><trkpt lat="43.207625691769756" lon="11.438952260649868"><ele>157.0</ele><time>2026-04-19T09:30:00Z</time></trkpt><trkpt lat="43.207696896874594" lon="11.438754507045566"><ele>157.0</ele><time>2026-04-19T09:30:01Z</time></trkpt><trkpt lat="43.20776820139666" lon="11.438539368303932"><ele>157.0</ele><time>2026-04-19T09:30:02Z</time></trkpt><trkpt lat="43.20784087576904" lon="11.438324045195674"><ele>157.0</ele><time>2026-04-19T09:30:03Z</time></trkpt><trkpt lat="43.207911678343784" lon="11.438115965916069"><ele>157.0</ele><time>2026-04-19T09:30:04Z</time></trkpt><trkpt lat="43.20798583498455" lon="11.437897323651612"><ele>157.0</ele><time>2026-04-19T09:30:05Z</time></trkpt><trkpt lat="43.2080626594698" lon="11.437671785181365"><ele>157.0</ele><time>2026-04-19T09:30:06Z</time></trkpt><trkpt lat="43.20814104801883" lon="11.437448294142841"><ele>157.0</ele><time>2026-04-19T09:30:07Z</time></trkpt><trkpt lat="43.20821836217334" lon="11.437219314068907"><ele>157.66666666666669</ele><time>2026-04-19T09:30:08Z</time></trkpt><trkpt lat="43.208294127839466" lon="11.436983293057972"><ele>158.33333333333334</ele><time>2026-04-19T09:30:09Z</time></trkpt><trkpt lat="43.208363551351916" lon="11.436748892373712"><ele>159.0</ele><time>2026-04-19T09:30:10Z</time></trkpt><trkpt lat="43.208420985388706" lon="11.43651472895311"><ele>159.0</ele><time>2026-04-19T09:30:11Z</time></trkpt><trkpt lat="43.20847654586383" lon="11.436284753991261"><ele>159.0</ele><time>2026-04-19T09:30:12Z</time></trkpt><trkpt lat="43.20853010092121" lon="11.436057615094787"><ele>159.0</ele><time>2026-04-19T09:30:13Z</time></trkpt><trkpt lat="43.20857843623856" lon="11.43583934404212"><ele>159.0</ele><time>2026-04-19T09:30:14Z</time></trkpt><trkpt lat="43.20862828869614" lon="11.435626284289766"><ele>159.0</ele><time>2026-04-19T09:30:15Z</time></trkpt><trkpt lat="43.20866865264692" lon="11.435425849486474"><ele>159.0</ele><time>2026-04-19T09:30:16Z</time></trkpt><trkpt lat="43.20869027978565" lon="11.435223267776838"><ele>159.33333333333334</ele><time>2026-04-19T09:30:17Z</time></trkpt><trkpt lat="43.20868458481874" lon="11.434994894019416"><ele>159.66666666666669</ele><time>2026-04-19T09:30:18Z</time></trkpt><trkpt lat="43.208655711297425" lon="11.43476433712933"><ele>160.0</ele><time>2026-04-19T09:30:19Z</time></trkpt><trkpt lat="43.20862360813452" lon="11.43455009067086"><ele>160.75</ele><time>2026-04-19T09:30:20Z</time></trkpt><trkpt lat="43.20859941919469" lon="11.434351058778"><ele>161.5</ele><time>2026-04-19T09:30:21Z</time></trkpt><trkpt lat="43.20858214049002" lon="11.434168424363156"><ele>162.25</ele><time>2026-04-19T09:30:22Z</time></trkpt><trkpt lat="43.20858106461281" lon="11.434005024246632"><ele>163.0</ele><time>2026-04-19T09:30:23Z</time></trkpt><trkpt lat="43.20860631560613" lon="11.433835748237973"><ele>163.0</ele><time>2026-04-19T09:30:24Z</time></trkpt><trkpt lat="43.20865745122849" lon="11.433665120267943"><ele>163.0</ele><time>2026-04-19T09:30:25Z</time></trkpt><trkpt lat="43.2087285965435" lon="11.433485056594586"><ele>163.0</ele><time>2026-04-19T09:30:26Z</time></trkpt><trkpt lat="43.20880380679311" lon="11.433300114859863"><ele>163.0</ele><time>2026-04-19T09:30:27Z</time></trkpt><trkpt lat="43.2088693641928" lon="11.433106727966958"><ele>163.0</ele><time>2026-04-19T09:30:28Z</time></trkpt><trkpt lat="43.20892611130262" lon="11.432918039770996"><ele>163.0</ele><time>2026-04-19T09:30:29.001Z</time></trkpt><trkpt lat="43.20898607097596" lon="11.4327430365228"><ele>163.0</ele><time>2026-04-19T09:30:30.001Z</time></trkpt><trkpt lat="43.20904864043312" lon="11.432575678463076"><ele>163.0</ele><time>2026-04-19T09:30:31.001Z</time></trkpt><trkpt lat="43.20910679651402" lon="11.432418431004423"><ele>163.5</ele><time>2026-04-19T09:30:32.001Z</time></trkpt><trkpt lat="43.209174661076545" lon="11.432278185883575"><ele>164.0</ele><time>2026-04-19T09:30:33.001Z</time></trkpt><trkpt lat="43.209265923966676" lon="11.432158029235426"><ele>164.5</ele><time>2026-04-19T09:30:34.001Z</time></trkpt><trkpt lat="43.20939479898991" lon="11.432061697798263"><ele>165.0</ele><time>2026-04-19T09:30:35.001Z</time></trkpt><trkpt lat="43.20954550653405" lon="11.432038570140136"><ele>165.0</ele><time>2026-04-19T09:30:36.001Z</time></trkpt><trkpt lat="43.20969704744637" lon="11.432025448640834"><ele>165.0</ele><time>2026-04-19T09:30:37.001Z</time></trkpt><trkpt lat="43.209859796867015" lon="11.432009844836434"><ele>165.0</ele><time>2026-04-19T09:30:38.001Z</time></trkpt><trkpt lat="43.21002574413255" lon="11.432008948988443"><ele>165.33333333333334</ele><time>2026-04-19T09:30:39Z</time></trkpt><trkpt lat="43.21019154906637" lon="11.431994750100582"><ele>165.66666666666669</ele><time>2026-04-19T09:30:40Z</time></trkpt><trkpt lat="43.210354474808874" lon="11.431986106595131"><ele>166.0</ele><time>2026-04-19T09:30:41Z</time></trkpt><trkpt lat="43.210520769025784" lon="11.431978550538748"><ele>165.66666666666669</ele><time>2026-04-19T09:30:42Z</time></trkpt><trkpt lat="43.21068832634574" lon="11.431970934986797"><ele>165.33333333333334</ele><time>2026-04-19T09:30:43Z</time></trkpt><trkpt lat="43.21086141206899" lon="11.431959133911226"><ele>165.0</ele><time>2026-04-19T09:30:44Z</time></trkpt><trkpt lat="43.21104455006335" lon="11.431949302330072"><ele>165.0</ele><time>2026-04-19T09:30:45Z</time></trkpt><trkpt lat="43.21123294837061" lon="11.431937633442978"><ele>165.0</ele><time>2026-04-19T09:30:46Z</time></trkpt><trkpt lat="43.21143020480729" lon="11.431927599176774"><ele>165.0</ele><time>2026-04-19T09:30:47Z</time></trkpt><trkpt lat="43.211636317364935" lon="11.431915466689118"><ele>165.33333333333334</ele><time>2026-04-19T09:30:48Z</time></trkpt><trkpt lat="43.211835094199806" lon="11.431903041582272"><ele>165.66666666666669</ele><time>2026-04-19T09:30:49Z</time></trkpt><trkpt lat="43.21202019149564" lon="11.431888095711287"><ele>166.0</ele><time>2026-04-19T09:30:50Z</time></trkpt><trkpt lat="43.212194429307516" lon="11.431876478739676"><ele>165.66666666666669</ele><time>2026-04-19T09:30:51Z</time></trkpt><trkpt lat="43.21236168511317" lon="11.431869126754876"><ele>165.33333333333334</ele><time>2026-04-19T09:30:52Z</time></trkpt><trkpt lat="43.212523582862644" lon="11.431861135198792"><ele>165.0</ele><time>2026-04-19T09:30:53Z</time></trkpt><trkpt lat="43.21268405394767" lon="11.43186144039625"><ele>165.0</ele><time>2026-04-19T09:30:54Z</time></trkpt><trkpt lat="43.21285195354177" lon="11.431875372103544"><ele>165.0</ele><time>2026-04-19T09:30:55Z</time></trkpt><trkpt lat="43.213030916944135" lon="11.431904963559543"><ele>165.0</ele><time>2026-04-19T09:30:56Z</time></trkpt><trkpt lat="43.213215885862304" lon="11.431951038642849"><ele>164.33333333333334</ele><time>2026-04-19T09:30:57Z</time></trkpt><trkpt lat="43.21340669672056" lon="11.432005460665565"><ele>163.66666666666669</ele><time>2026-04-19T09:30:58Z</time></trkpt><trkpt lat="43.21360024959608" lon="11.432056262620268"><ele>163.0</ele><time>2026-04-19T09:30:59Z</time></trkpt><trkpt lat="43.21378121002816" lon="11.432093253197035"><ele>163.0</ele><time>2026-04-19T09:31:00Z</time></trkpt><trkpt lat="43.213948616231484" lon="11.432133456608721"><ele>163.0</ele><time>2026-04-19T09:31:01Z</time></trkpt><trkpt lat="43.214110857829915" lon="11.4321781252909"><ele>163.0</ele><time>2026-04-19T09:31:02Z</time></trkpt><trkpt lat="43.21427163245419" lon="11.43223472020895"><ele>163.33333333333334</ele><time>2026-04-19T09:31:03Z</time></trkpt><trkpt lat="43.21443363782977" lon="11.432308614455915"><ele>163.66666666666666</ele><time>2026-04-19T09:31:04Z</time></trkpt><trkpt lat="43.21458274099733" lon="11.432388799355333"><ele>164.0</ele><time>2026-04-19T09:31:05Z</time></trkpt><trkpt lat="43.214720730367446" lon="11.432464784835746"><ele>163.25</ele><time>2026-04-19T09:31:06Z</time></trkpt><trkpt lat="43.214848134366655" lon="11.43253450261925"><ele>162.5</ele><time>2026-04-19T09:31:07Z</time></trkpt><trkpt lat="43.21496435991422" lon="11.432595127471247"><ele>161.75</ele><time>2026-04-19T09:31:08Z</time></trkpt><trkpt lat="43.215074938904" lon="11.432649406624734"><ele>161.0</ele><time>2026-04-19T09:31:09Z</time></trkpt><trkpt lat="43.215174400347536" lon="11.432700180685902"><ele>161.0</ele><time>2026-04-19T09:31:10Z</time></trkpt><trkpt lat="43.21526453876962" lon="11.432748135263374"><ele>161.0</ele><time>2026-04-19T09:31:11Z</time></trkpt><trkpt lat="43.21532963635819" lon="11.432811021491398"><ele>161.0</ele><time>2026-04-19T09:31:12Z</time></trkpt><trkpt lat="43.21536947625908" lon="11.432898664417102"><ele>161.0</ele><time>2026-04-19T09:31:13Z</time></trkpt><trkpt lat="43.21539611450626" lon="11.433016989795803"><ele>161.0</ele><time>2026-04-19T09:31:14Z</time></trkpt><trkpt lat="43.21543165785073" lon="11.433165888545398"><ele>160.8</ele><time>2026-04-19T09:31:15Z</time></trkpt><trkpt lat="43.215483346885364" lon="11.433290989468091"><ele>160.60000000000002</ele><time>2026-04-19T09:31:16Z</time></trkpt><trkpt lat="43.2155571469057" lon="11.433381817333096"><ele>160.4</ele><time>2026-04-19T09:31:17Z</time></trkpt><trkpt lat="43.21564770540027" lon="11.433435425869044"><ele>160.2</ele><time>2026-04-19T09:31:18Z</time></trkpt><trkpt lat="43.21574693756164" lon="11.43345220800147"><ele>160.0</ele><time>2026-04-19T09:31:19Z</time></trkpt><trkpt lat="43.215844996635425" lon="11.433428123439677"><ele>160.0</ele><time>2026-04-19T09:31:20Z</time></trkpt><trkpt lat="43.21594510448504" lon="11.433371173086176"><ele>160.0</ele><time>2026-04-19T09:31:21Z</time></trkpt><trkpt lat="43.216052495736655" lon="11.43331717223699"><ele>160.0</ele><time>2026-04-19T09:31:22Z</time></trkpt><trkpt lat="43.216120124567176" lon="11.433226484295242"><ele>160.0</ele><time>2026-04-19T09:31:23Z</time></trkpt><trkpt lat="43.21629557893811" lon="11.433412140280078"><ele>160.0</ele><time>2026-04-19T09:31:24Z</time></trkpt><trkpt lat="43.2164401497268" lon="11.43347323113994"><ele>160.0</ele><time>2026-04-19T09:31:25Z</time></trkpt><trkpt lat="43.216585741978626" lon="11.433537032679718"><ele>160.0</ele><time>2026-04-19T09:31:26Z</time></trkpt><trkpt lat="43.21673471972492" lon="11.433583250067452"><ele>159.66666666666669</ele><time>2026-04-19T09:31:27Z</time></trkpt><trkpt lat="43.21688521545963" lon="11.433614823252507"><ele>159.33333333333334</ele><time>2026-04-19T09:31:28Z</time></trkpt><trkpt lat="43.21705440768042" lon="11.433610660372628"><ele>159.0</ele><time>2026-04-19T09:31:29Z</time></trkpt><trkpt lat="43.217233610940866" lon="11.43355562611951"><ele>158.66666666666666</ele><time>2026-04-19T09:31:30Z</time></trkpt><trkpt lat="43.217417094199845" lon="11.433458725121573"><ele>158.33333333333331</ele><time>2026-04-19T09:31:31Z</time></trkpt><trkpt lat="43.21759626008035" lon="11.433342964387167"><ele>158.0</ele><time>2026-04-19T09:31:32Z</time></trkpt><trkpt lat="43.21777429564573" lon="11.433221656357246"><ele>158.0</ele><time>2026-04-19T09:31:33Z</time></trkpt><trkpt lat="43.21795304199679" lon="11.43309334967342"><ele>158.0</ele><time>2026-04-19T09:31:34Z</time></trkpt><trkpt lat="43.218129309012824" lon="11.432958218500442"><ele>158.0</ele><time>2026-04-19T09:31:35Z</time></trkpt><trkpt lat="43.218312102328575" lon="11.432827722008206"><ele>158.33333333333331</ele><time>2026-04-19T09:31:36Z</time></trkpt><trkpt lat="43.21849740874329" lon="11.432693246695129"><ele>158.66666666666666</ele><time>2026-04-19T09:31:37Z</time></trkpt><trkpt lat="43.21868620929357" lon="11.432553905898525"><ele>159.0</ele><time>2026-04-19T09:31:38Z</time></trkpt><trkpt lat="43.218876618759886" lon="11.43241279222053"><ele>159.0</ele><time>2026-04-19T09:31:39Z</time></trkpt><trkpt lat="43.219068066286134" lon="11.432273735131975"><ele>159.0</ele><time>2026-04-19T09:31:40Z</time></trkpt><trkpt lat="43.21926293531161" lon="11.432130188551826"><ele>159.0</ele><time>2026-04-19T09:31:41Z</time></trkpt><trkpt lat="43.21945981824267" lon="11.431980807230149"><ele>159.33333333333334</ele><time>2026-04-19T09:31:42Z</time></trkpt><trkpt lat="43.21964198938223" lon="11.431804248811677"><ele>159.66666666666669</ele><time>2026-04-19T09:31:43Z</time></trkpt><trkpt lat="43.21983476288628" lon="11.431662992080211"><ele>160.0</ele><time>2026-04-19T09:31:44Z</time></trkpt><trkpt lat="43.22003291506855" lon="11.431516224449824"><ele>158.5</ele><time>2026-04-19T09:31:45Z</time></trkpt><trkpt lat="43.220177749792654" lon="11.431241550599406"><ele>157.0</ele><time>2026-04-19T09:31:46Z</time></trkpt><trkpt lat="43.2204681142865" lon="11.431240367881703"><ele>157.5</ele><time>2026-04-19T09:31:47Z</time></trkpt><trkpt lat="43.220678275161646" lon="11.43108565909605"><ele>158.0</ele><time>2026-04-19T09:31:48Z</time></trkpt><trkpt lat="43.220889928517344" lon="11.430936323121985"><ele>158.0</ele><time>2026-04-19T09:31:49Z</time></trkpt><trkpt lat="43.22110664896731" lon="11.430788959547263"><ele>158.0</ele><time>2026-04-19T09:31:50Z</time></trkpt><trkpt lat="43.22132760449602" lon="11.430630612826354"><ele>158.5</ele><time>2026-04-19T09:31:51Z</time></trkpt><trkpt lat="43.221554936752305" lon="11.430463095248314"><ele>159.0</ele><time>2026-04-19T09:31:52Z</time></trkpt><trkpt lat="43.22178249295017" lon="11.430293741471393"><ele>159.0</ele><time>2026-04-19T09:31:53Z</time></trkpt><trkpt lat="43.22200968145065" lon="11.430117923287439"><ele>159.0</ele><time>2026-04-19T09:31:54Z</time></trkpt><trkpt lat="43.2222365639223" lon="11.4299393692517"><ele>160.0</ele><time>2026-04-19T09:31:55Z</time></trkpt><trkpt lat="43.222458712999114" lon="11.429748335855258"><ele>161.0</ele><time>2026-04-19T09:31:56Z</time></trkpt><trkpt lat="43.222674102976235" lon="11.429560091001074"><ele>161.0</ele><time>2026-04-19T09:31:57Z</time></trkpt><trkpt lat="43.222875708877794" lon="11.429371986483172"><ele>161.0</ele><time>2026-04-19T09:31:58Z</time></trkpt><trkpt lat="43.22307514075018" lon="11.429187264649787"><ele>160.33333333333331</ele><time>2026-04-19T09:31:59Z</time></trkpt><trkpt lat="43.22325903723846" lon="11.429002366988795"><ele>159.66666666666666</ele><time>2026-04-19T09:32:00Z</time></trkpt><trkpt lat="43.22343102706421" lon="11.428824223255718"><ele>159.0</ele><time>2026-04-19T09:32:01Z</time></trkpt><trkpt lat="43.22360181816109" lon="11.428654944835642"><ele>159.0</ele><time>2026-04-19T09:32:02Z</time></trkpt><trkpt lat="43.22377549212541" lon="11.428474697019398"><ele>159.0</ele><time>2026-04-19T09:32:03Z</time></trkpt><trkpt lat="43.223948288051304" lon="11.428292832442159"><ele>159.0</ele><time>2026-04-19T09:32:04Z</time></trkpt><trkpt lat="43.22411726976249" lon="11.428108553633722"><ele>158.66666666666666</ele><time>2026-04-19T09:32:05Z</time></trkpt><trkpt lat="43.22428530222895" lon="11.42792927089194"><ele>158.33333333333331</ele><time>2026-04-19T09:32:06Z</time></trkpt><trkpt lat="43.22445252465288" lon="11.42774947987918"><ele>158.0</ele><time>2026-04-19T09:32:07Z</time></trkpt><trkpt lat="43.22462736497851" lon="11.427573310990338"><ele>158.5</ele><time>2026-04-19T09:32:08Z</time></trkpt><trkpt lat="43.22481709841171" lon="11.427411621909672"><ele>159.0</ele><time>2026-04-19T09:32:09Z</time></trkpt><trkpt lat="43.225014324842604" lon="11.42725488951089"><ele>159.5</ele><time>2026-04-19T09:32:10Z</time></trkpt><trkpt lat="43.22521738360879" lon="11.427116943803059"><ele>160.0</ele><time>2026-04-19T09:32:11Z</time></trkpt><trkpt lat="43.22542637301185" lon="11.426994385100222"><ele>160.0</ele><time>2026-04-19T09:32:12Z</time></trkpt><trkpt lat="43.22563673775726" lon="11.426885823635553"><ele>160.0</ele><time>2026-04-19T09:32:13Z</time></trkpt><trkpt lat="43.22584917546503" lon="11.426791329710602"><ele>160.0</ele><time>2026-04-19T09:32:14Z</time></trkpt><trkpt lat="43.226061025760224" lon="11.426711645777672"><ele>159.33333333333334</ele><time>2026-04-19T09:32:15Z</time></trkpt><trkpt lat="43.22627141167917" lon="11.426651111102741"><ele>158.66666666666666</ele><time>2026-04-19T09:32:16Z</time></trkpt><trkpt lat="43.2264773019041" lon="11.426591637262602"><ele>158.0</ele><time>2026-04-19T09:32:17Z</time></trkpt><trkpt lat="43.22668827326003" lon="11.42653380064818"><ele>158.0</ele><time>2026-04-19T09:32:18Z</time></trkpt><trkpt lat="43.22690566918109" lon="11.426472627203955"><ele>158.0</ele><time>2026-04-19T09:32:19Z</time></trkpt><trkpt lat="43.227120758449665" lon="11.426411254445217"><ele>158.0</ele><time>2026-04-19T09:32:20Z</time></trkpt><trkpt lat="43.22733756633318" lon="11.426345284675994"><ele>159.0</ele><time>2026-04-19T09:32:21Z</time></trkpt><trkpt lat="43.227556698211025" lon="11.42628749563816"><ele>160.0</ele><time>2026-04-19T09:32:22Z</time></trkpt><trkpt lat="43.227782533158035" lon="11.426243837694837"><ele>160.0</ele><time>2026-04-19T09:32:23Z</time></trkpt><trkpt lat="43.22799344424023" lon="11.426162788577356"><ele>160.0</ele><time>2026-04-19T09:32:24Z</time></trkpt><trkpt lat="43.22821633972899" lon="11.426090059873829"><ele>160.0</ele><time>2026-04-19T09:32:25Z</time></trkpt><trkpt lat="43.22844279554587" lon="11.426010380794196"><ele>161.0</ele><time>2026-04-19T09:32:26Z</time></trkpt><trkpt lat="43.228663507579796" lon="11.425915860839075"><ele>162.0</ele><time>2026-04-19T09:32:27Z</time></trkpt><trkpt lat="43.228885602028726" lon="11.425806539272843"><ele>161.5</ele><time>2026-04-19T09:32:28Z</time></trkpt><trkpt lat="43.22910445203486" lon="11.425683222538044"><ele>161.0</ele><time>2026-04-19T09:32:29Z</time></trkpt><trkpt lat="43.22932171997511" lon="11.425554901665832"><ele>161.5</ele><time>2026-04-19T09:32:30Z</time></trkpt><trkpt lat="43.22954038458136" lon="11.425409472763162"><ele>162.0</ele><time>2026-04-19T09:32:31Z</time></trkpt><trkpt lat="43.229754122998536" lon="11.425265198773976"><ele>162.0</ele><time>2026-04-19T09:32:32Z</time></trkpt><trkpt lat="43.22996740261985" lon="11.425113658923879"><ele>162.0</ele><time>2026-04-19T09:32:33.001Z</time></trkpt><trkpt lat="43.2301826750146" lon="11.424963379626615"><ele>162.0</ele><time>2026-04-19T09:32:34.001Z</time></trkpt><trkpt lat="43.23039671081818" lon="11.424814113749822"><ele>162.0</ele><time>2026-04-19T09:32:35.001Z</time></trkpt><trkpt lat="43.23061176817915" lon="11.424666497259937"><ele>162.0</ele><time>2026-04-19T09:32:36.001Z</time></trkpt><trkpt lat="43.23082787509891" lon="11.424515727304549"><ele>162.0</ele><time>2026-04-19T09:32:37.001Z</time></trkpt><trkpt lat="43.2310437592338" lon="11.424365630619171"><ele>162.0</ele><time>2026-04-19T09:32:38.001Z</time></trkpt><trkpt lat="43.23126025748936" lon="11.424213900301174"><ele>162.0</ele><time>2026-04-19T09:32:39.001Z</time></trkpt><trkpt lat="43.23147712321632" lon="11.424062281368775"><ele>162.0</ele><time>2026-04-19T09:32:40.001Z</time></trkpt><trkpt lat="43.231690904418926" lon="11.423912789147854"><ele>162.0</ele><time>2026-04-19T09:32:41.001Z</time></trkpt><trkpt lat="43.23190682892827" lon="11.423755662589684"><ele>162.0</ele><time>2026-04-19T09:32:42.001Z</time></trkpt><trkpt lat="43.232118659445185" lon="11.423598885343031"><ele>162.0</ele><time>2026-04-19T09:32:43.001Z</time></trkpt><trkpt lat="43.23233087847586" lon="11.423427462485968"><ele>162.0</ele><time>2026-04-19T09:32:44Z</time></trkpt><trkpt lat="43.23253368754883" lon="11.423246597404809"><ele>162.0</ele><time>2026-04-19T09:32:45Z</time></trkpt><trkpt lat="43.232730710507944" lon="11.423044738741718"><ele>163.5</ele><time>2026-04-19T09:32:46Z</time></trkpt><trkpt lat="43.23291519420541" lon="11.422835434776426"><ele>165.0</ele><time>2026-04-19T09:32:47Z</time></trkpt><trkpt lat="43.233096995284534" lon="11.422618333806263"><ele>164.5</ele><time>2026-04-19T09:32:48Z</time></trkpt><trkpt lat="43.233268801043984" lon="11.422379955648328"><ele>164.0</ele><time>2026-04-19T09:32:49Z</time></trkpt><trkpt lat="43.233427859071554" lon="11.422137294564939"><ele>163.5</ele><time>2026-04-19T09:32:50Z</time></trkpt><trkpt lat="43.23358859056282" lon="11.421883439151667"><ele>163.0</ele><time>2026-04-19T09:32:51Z</time></trkpt><trkpt lat="43.233746381779305" lon="11.421638688771703"><ele>163.0</ele><time>2026-04-19T09:32:52Z</time></trkpt><trkpt lat="43.233903328389054" lon="11.42138653442032"><ele>163.0</ele><time>2026-04-19T09:32:53Z</time></trkpt><trkpt lat="43.23406106635841" lon="11.421138592076012"><ele>163.0</ele><time>2026-04-19T09:32:54Z</time></trkpt><trkpt lat="43.234219607068695" lon="11.420895661620015"><ele>163.0</ele><time>2026-04-19T09:32:55Z</time></trkpt><trkpt lat="43.23438013238354" lon="11.420663623027819"><ele>163.5</ele><time>2026-04-19T09:32:56Z</time></trkpt><trkpt lat="43.23454861686572" lon="11.42043475859162"><ele>164.0</ele><time>2026-04-19T09:32:57Z</time></trkpt><trkpt lat="43.23472542449787" lon="11.420214275443238"><ele>163.0</ele><time>2026-04-19T09:32:58Z</time></trkpt><trkpt lat="43.234909276347615" lon="11.42000620235368"><ele>162.0</ele><time>2026-04-19T09:32:59Z</time></trkpt><trkpt lat="43.23510152632468" lon="11.41981276657887"><ele>163.0</ele><time>2026-04-19T09:33:00Z</time></trkpt><trkpt lat="43.23529993854407" lon="11.419627055790855"><ele>164.0</ele><time>2026-04-19T09:33:01Z</time></trkpt><trkpt lat="43.235499984338844" lon="11.419454489158555"><ele>163.5</ele><time>2026-04-19T09:33:02Z</time></trkpt><trkpt lat="43.23570122781387" lon="11.41928819105194"><ele>163.0</ele><time>2026-04-19T09:33:03Z</time></trkpt><trkpt lat="43.23589952846495" lon="11.419131620471488"><ele>163.0</ele><time>2026-04-19T09:33:04Z</time></trkpt><trkpt lat="43.23608982577563" lon="11.41897951145825"><ele>163.0</ele><time>2026-04-19T09:33:05Z</time></trkpt><trkpt lat="43.236285338852134" lon="11.418824573607054"><ele>163.0</ele><time>2026-04-19T09:33:06Z</time></trkpt><trkpt lat="43.23648357206528" lon="11.418667366611595"><ele>161.5</ele><time>2026-04-19T09:33:07Z</time></trkpt><trkpt lat="43.23668230677519" lon="11.418496380189087"><ele>160.0</ele><time>2026-04-19T09:33:08Z</time></trkpt><trkpt lat="43.23687793395231" lon="11.418314534517338"><ele>160.0</ele><time>2026-04-19T09:33:09Z</time></trkpt><trkpt lat="43.23706632152543" lon="11.418123034442052"><ele>160.0</ele><time>2026-04-19T09:33:10Z</time></trkpt><trkpt lat="43.2372530362919" lon="11.41791749290943"><ele>161.5</ele><time>2026-04-19T09:33:11Z</time></trkpt><trkpt lat="43.23743100365572" lon="11.41769483955002"><ele>163.0</ele><time>2026-04-19T09:33:12Z</time></trkpt><trkpt lat="43.23760145846106" lon="11.417471759091494"><ele>163.0</ele><time>2026-04-19T09:33:13Z</time></trkpt><trkpt lat="43.237769832712075" lon="11.417238592763287"><ele>163.0</ele><time>2026-04-19T09:33:14Z</time></trkpt><trkpt lat="43.23793424224148" lon="11.416997436151437"><ele>162.5</ele><time>2026-04-19T09:33:15Z</time></trkpt><trkpt lat="43.23809826160078" lon="11.416751386851825"><ele>162.0</ele><time>2026-04-19T09:33:16Z</time></trkpt><trkpt lat="43.23826397824851" lon="11.416501419326291"><ele>163.0</ele><time>2026-04-19T09:33:17Z</time></trkpt><trkpt lat="43.238434601868434" lon="11.416249967569232"><ele>164.0</ele><time>2026-04-19T09:33:18Z</time></trkpt><trkpt lat="43.23860823074543" lon="11.416002192464724"><ele>164.0</ele><time>2026-04-19T09:33:19Z</time></trkpt><trkpt lat="43.23878244152048" lon="11.415753379159332"><ele>164.0</ele><time>2026-04-19T09:33:20Z</time></trkpt><trkpt lat="43.23895047037961" lon="11.415500835657138"><ele>163.5</ele><time>2026-04-19T09:33:21Z</time></trkpt><trkpt lat="43.23911776735915" lon="11.415247823081232"><ele>163.0</ele><time>2026-04-19T09:33:22Z</time></trkpt><trkpt lat="43.2392872224791" lon="11.414996920676035"><ele>163.0</ele><time>2026-04-19T09:33:23Z</time></trkpt><trkpt lat="43.239453323054846" lon="11.414750342918316"><ele>163.0</ele><time>2026-04-19T09:33:24Z</time></trkpt><trkpt lat="43.23961835704004" lon="11.414504925621587"><ele>163.5</ele><time>2026-04-19T09:33:25Z</time></trkpt><trkpt lat="43.23978114307724" lon="11.41426154953944"><ele>164.0</ele><time>2026-04-19T09:33:26Z</time></trkpt><trkpt lat="43.23994599299849" lon="11.414018929737397"><ele>163.0</ele><time>2026-04-19T09:33:27Z</time></trkpt><trkpt lat="43.240106926194905" lon="11.413781758379294"><ele>162.0</ele><time>2026-04-19T09:33:28Z</time></trkpt><trkpt lat="43.240268832837664" lon="11.41354463534507"><ele>162.0</ele><time>2026-04-19T09:33:29Z</time></trkpt><trkpt lat="43.24042835068314" lon="11.413310329099096"><ele>162.0</ele><time>2026-04-19T09:33:30Z</time></trkpt><trkpt lat="43.240585994064354" lon="11.413075818123346"><ele>161.5</ele><time>2026-04-19T09:33:31Z</time></trkpt><trkpt lat="43.24074658940853" lon="11.4128370569398"><ele>161.0</ele><time>2026-04-19T09:33:32Z</time></trkpt><trkpt lat="43.24090815291984" lon="11.4125981384032"><ele>161.0</ele><time>2026-04-19T09:33:33Z</time></trkpt><trkpt lat="43.241068905270545" lon="11.412358668877665"><ele>161.0</ele><time>2026-04-19T09:33:34Z</time></trkpt><trkpt lat="43.24122821480624" lon="11.412125201269378"><ele>161.0</ele><time>2026-04-19T09:33:35Z</time></trkpt><trkpt lat="43.241385115816534" lon="11.411896728534284"><ele>161.0</ele><time>2026-04-19T09:33:36Z</time></trkpt><trkpt lat="43.241532155844595" lon="11.411683088089095"><ele>161.0</ele><time>2026-04-19T09:33:37Z</time></trkpt><trkpt lat="43.241668981089845" lon="11.411483700431317"><ele>162.0</ele><time>2026-04-19T09:33:38Z</time></trkpt><trkpt lat="43.241808720965395" lon="11.411286512357558"><ele>163.0</ele><time>2026-04-19T09:33:39Z</time></trkpt><trkpt lat="43.241955148832744" lon="11.411093149824383"><ele>164.0</ele><time>2026-04-19T09:33:40Z</time></trkpt><trkpt lat="43.24211399723566" lon="11.410904964052584"><ele>164.0</ele><time>2026-04-19T09:33:41Z</time></trkpt><trkpt lat="43.24228134192691" lon="11.41072477155508"><ele>164.0</ele><time>2026-04-19T09:33:42Z</time></trkpt><trkpt lat="43.24245448219483" lon="11.410548121907226"><ele>164.0</ele><time>2026-04-19T09:33:43Z</time></trkpt><trkpt lat="43.24262993049762" lon="11.410385717124626"><ele>164.0</ele><time>2026-04-19T09:33:44Z</time></trkpt><trkpt lat="43.24281541501177" lon="11.410243937518702"><ele>164.0</ele><time>2026-04-19T09:33:45Z</time></trkpt><trkpt lat="43.24300385061188" lon="11.410114315063609"><ele>164.0</ele><time>2026-04-19T09:33:46Z</time></trkpt><trkpt lat="43.24318492991016" lon="11.409985096518119"><ele>164.0</ele><time>2026-04-19T09:33:47Z</time></trkpt><trkpt lat="43.24336276467175" lon="11.409857920351598"><ele>164.0</ele><time>2026-04-19T09:33:48Z</time></trkpt><trkpt lat="43.2435408710787" lon="11.40973405797302"><ele>164.0</ele><time>2026-04-19T09:33:49Z</time></trkpt><trkpt lat="43.24372383952165" lon="11.409612210126749"><ele>164.0</ele><time>2026-04-19T09:33:50Z</time></trkpt><trkpt lat="43.243906561691965" lon="11.40950458440407"><ele>164.0</ele><time>2026-04-19T09:33:51Z</time></trkpt><trkpt lat="43.24408300805954" lon="11.409408006285924"><ele>164.0</ele><time>2026-04-19T09:33:52Z</time></trkpt><trkpt lat="43.24424783026264" lon="11.409319206617083"><ele>163.33333333333331</ele><time>2026-04-19T09:33:53Z</time></trkpt><trkpt lat="43.24440830389972" lon="11.409234327249683"><ele>162.66666666666666</ele><time>2026-04-19T09:33:54Z</time></trkpt><trkpt lat="43.24457334901395" lon="11.409147673368375"><ele>162.0</ele><time>2026-04-19T09:33:55Z</time></trkpt><trkpt lat="43.244741056407996" lon="11.409066192928982"><ele>162.0</ele><time>2026-04-19T09:33:56Z</time></trkpt><trkpt lat="43.244893597674114" lon="11.409021973168937"><ele>162.0</ele><time>2026-04-19T09:33:57Z</time></trkpt><trkpt lat="43.24503658034328" lon="11.40899080312943"><ele>162.0</ele><time>2026-04-19T09:33:58Z</time></trkpt><trkpt lat="43.24517908292338" lon="11.408981655289884"><ele>162.0</ele><time>2026-04-19T09:33:59Z</time></trkpt><trkpt lat="43.24533444714301" lon="11.408992433946942"><ele>162.0</ele><time>2026-04-19T09:34:00Z</time></trkpt><trkpt lat="43.24549860245127" lon="11.409021407535048"><ele>162.0</ele><time>2026-04-19T09:34:01Z</time></trkpt><trkpt lat="43.24566177695021" lon="11.409075355243486"><ele>162.0</ele><time>2026-04-19T09:34:02Z</time></trkpt><trkpt lat="43.2458175113984" lon="11.40913476911139"><ele>162.25</ele><time>2026-04-19T09:34:03Z</time></trkpt><trkpt lat="43.245959811561406" lon="11.40920704989646"><ele>162.5</ele><time>2026-04-19T09:34:04Z</time></trkpt><trkpt lat="43.24609439723654" lon="11.409266691011547"><ele>162.75</ele><time>2026-04-19T09:34:05Z</time></trkpt><trkpt lat="43.24622382738782" lon="11.409303432484986"><ele>163.0</ele><time>2026-04-19T09:34:06Z</time></trkpt><trkpt lat="43.24635360592016" lon="11.409297423554664"><ele>162.5</ele><time>2026-04-19T09:34:07Z</time></trkpt><trkpt lat="43.24647424967364" lon="11.409242481604627"><ele>162.0</ele><time>2026-04-19T09:34:08Z</time></trkpt><trkpt lat="43.24658050409667" lon="11.40914452952145"><ele>161.5</ele><time>2026-04-19T09:34:09Z</time></trkpt><trkpt lat="43.24666692431059" lon="11.409013724584215"><ele>161.0</ele><time>2026-04-19T09:34:10Z</time></trkpt><trkpt lat="43.24672971776703" lon="11.40884893338658"><ele>161.5</ele><time>2026-04-19T09:34:11Z</time></trkpt><trkpt lat="43.24676309804161" lon="11.408662100299033"><ele>162.0</ele><time>2026-04-19T09:34:12Z</time></trkpt><trkpt lat="43.24675919935669" lon="11.40847395404577"><ele>162.5</ele><time>2026-04-19T09:34:13Z</time></trkpt><trkpt lat="43.24672420807395" lon="11.40828219070212"><ele>163.0</ele><time>2026-04-19T09:34:14Z</time></trkpt><trkpt lat="43.24665196382261" lon="11.408093834581416"><ele>163.0</ele><time>2026-04-19T09:34:15Z</time></trkpt><trkpt lat="43.24657092111968" lon="11.40790959646794"><ele>163.0</ele><time>2026-04-19T09:34:16Z</time></trkpt><trkpt lat="43.24649076990984" lon="11.407710848611806"><ele>163.0</ele><time>2026-04-19T09:34:17Z</time></trkpt><trkpt lat="43.24641868230052" lon="11.407519047927126"><ele>163.25</ele><time>2026-04-19T09:34:18Z</time></trkpt><trkpt lat="43.246354414916674" lon="11.407347270553423"><ele>163.5</ele><time>2026-04-19T09:34:19Z</time></trkpt><trkpt lat="43.24629267316358" lon="11.40719092898941"><ele>163.75</ele><time>2026-04-19T09:34:20Z</time></trkpt><trkpt lat="43.24623827858753" lon="11.407041172676337"><ele>164.0</ele><time>2026-04-19T09:34:21Z</time></trkpt><trkpt lat="43.24619628189929" lon="11.406909915452548"><ele>164.16666666666666</ele><time>2026-04-19T09:34:22Z</time></trkpt><trkpt lat="43.246162743054164" lon="11.406788693462982"><ele>164.33333333333331</ele><time>2026-04-19T09:34:23Z</time></trkpt><trkpt lat="43.24614383172195" lon="11.406682904460308"><ele>164.5</ele><time>2026-04-19T09:34:24Z</time></trkpt><trkpt lat="43.246142685747884" lon="11.406580069954448"><ele>164.66666666666666</ele><time>2026-04-19T09:34:25Z</time></trkpt><trkpt lat="43.24616243892555" lon="11.406487986554474"><ele>164.83333333333334</ele><time>2026-04-19T09:34:26Z</time></trkpt><trkpt lat="43.24620279796155" lon="11.40639412215115"><ele>165.0</ele><time>2026-04-19T09:34:27Z</time></trkpt><trkpt lat="43.24626781512412" lon="11.406315520680966"><ele>165.5</ele><time>2026-04-19T09:34:28Z</time></trkpt><trkpt lat="43.246329119123885" lon="11.406191094419347"><ele>166.0</ele><time>2026-04-19T09:34:29Z</time></trkpt><trkpt lat="43.24646871951365" lon="11.406110994440718"><ele>166.5</ele><time>2026-04-19T09:34:30Z</time></trkpt><trkpt lat="43.246585897205996" lon="11.40600492722909"><ele>167.0</ele><time>2026-04-19T09:34:31Z</time></trkpt><trkpt lat="43.24669954685958" lon="11.405895851903608"><ele>167.0</ele><time>2026-04-19T09:34:32Z</time></trkpt><trkpt lat="43.2468085695068" lon="11.405799566878823"><ele>167.0</ele><time>2026-04-19T09:34:33Z</time></trkpt><trkpt lat="43.246906734852644" lon="11.405705522966842"><ele>167.0</ele><time>2026-04-19T09:34:34Z</time></trkpt><trkpt lat="43.247006886545385" lon="11.405603751703135"><ele>167.0</ele><time>2026-04-19T09:34:35Z</time></trkpt><trkpt lat="43.24711452814541" lon="11.405497424672442"><ele>167.25</ele><time>2026-04-19T09:34:36Z</time></trkpt><trkpt lat="43.24723350452984" lon="11.405385650598188"><ele>167.5</ele><time>2026-04-19T09:34:37Z</time></trkpt><trkpt lat="43.247348369403916" lon="11.40527314285467"><ele>167.75</ele><time>2026-04-19T09:34:38Z</time></trkpt><trkpt lat="43.24745440104333" lon="11.40517201620821"><ele>168.0</ele><time>2026-04-19T09:34:39Z</time></trkpt><trkpt lat="43.24755337226754" lon="11.405075145316658"><ele>168.0</ele><time>2026-04-19T09:34:40Z</time></trkpt><trkpt lat="43.24765206005516" lon="11.40496558406847"><ele>168.0</ele><time>2026-04-19T09:34:41Z</time></trkpt><trkpt lat="43.24774374622315" lon="11.404847343622823"><ele>168.0</ele><time>2026-04-19T09:34:42Z</time></trkpt><trkpt lat="43.247821264094185" lon="11.404732227410063"><ele>168.0</ele><time>2026-04-19T09:34:43.001Z</time></trkpt><trkpt lat="43.24789635262559" lon="11.404616140890552"><ele>168.0</ele><time>2026-04-19T09:34:44.001Z</time></trkpt><trkpt lat="43.24796109990528" lon="11.404498155256796"><ele>168.0</ele><time>2026-04-19T09:34:45.001Z</time></trkpt><trkpt lat="43.24802389555834" lon="11.404363129496353"><ele>168.0</ele><time>2026-04-19T09:34:46.001Z</time></trkpt><trkpt lat="43.24808442930351" lon="11.404215595991"><ele>168.0</ele><time>2026-04-19T09:34:47.001Z</time></trkpt><trkpt lat="43.24813492918193" lon="11.404065478635804"><ele>168.0</ele><time>2026-04-19T09:34:48.001Z</time></trkpt><trkpt lat="43.24819033922624" lon="11.403916244792892"><ele>168.0</ele><time>2026-04-19T09:34:49.001Z</time></trkpt><trkpt lat="43.24824480047372" lon="11.403763385936522"><ele>168.0</ele><time>2026-04-19T09:34:50Z</time></trkpt><trkpt lat="43.24830367141471" lon="11.403614505824377"><ele>168.0</ele><time>2026-04-19T09:34:51Z</time></trkpt><trkpt lat="43.248361762768724" lon="11.40345547861284"><ele>168.25</ele><time>2026-04-19T09:34:52Z</time></trkpt><trkpt lat="43.24842406218476" lon="11.403291230514856"><ele>168.5</ele><time>2026-04-19T09:34:53Z</time></trkpt><trkpt lat="43.24848817399844" lon="11.40311403847127"><ele>168.75</ele><time>2026-04-19T09:34:54Z</time></trkpt><trkpt lat="43.24855628514321" lon="11.40293725837237"><ele>169.0</ele><time>2026-04-19T09:34:55Z</time></trkpt><trkpt lat="43.24862446831459" lon="11.402767218066776"><ele>169.25</ele><time>2026-04-19T09:34:56Z</time></trkpt><trkpt lat="43.24869649465902" lon="11.402603368540316"><ele>169.5</ele><time>2026-04-19T09:34:57Z</time></trkpt><trkpt lat="43.24877007785422" lon="11.402441970194962"><ele>169.75</ele><time>2026-04-19T09:34:58Z</time></trkpt><trkpt lat="43.24884666783534" lon="11.402285844151697"><ele>170.0</ele><time>2026-04-19T09:34:59Z</time></trkpt><trkpt lat="43.24891852845622" lon="11.402144377952542"><ele>169.25</ele><time>2026-04-19T09:35:00Z</time></trkpt><trkpt lat="43.24898998416939" lon="11.40201120611127"><ele>168.5</ele><time>2026-04-19T09:35:01Z</time></trkpt><trkpt lat="43.249062167648525" lon="11.40188217370969"><ele>167.75</ele><time>2026-04-19T09:35:02Z</time></trkpt><trkpt lat="43.24913791006728" lon="11.40175446885579"><ele>167.0</ele><time>2026-04-19T09:35:03Z</time></trkpt><trkpt lat="43.24921305454821" lon="11.401619820922464"><ele>167.0</ele><time>2026-04-19T09:35:04Z</time></trkpt><trkpt lat="43.24928957976812" lon="11.401479217938412"><ele>167.0</ele><time>2026-04-19T09:35:05Z</time></trkpt><trkpt lat="43.24936240583409" lon="11.401345479396957"><ele>167.0</ele><time>2026-04-19T09:35:06Z</time></trkpt><trkpt lat="43.24942931557818" lon="11.401222634435769"><ele>167.0</ele><time>2026-04-19T09:35:07Z</time></trkpt><trkpt lat="43.249494740805105" lon="11.401108204243132"><ele>167.16666666666666</ele><time>2026-04-19T09:35:08Z</time></trkpt><trkpt lat="43.24956569353806" lon="11.400987648977251"><ele>167.33333333333331</ele><time>2026-04-19T09:35:09Z</time></trkpt><trkpt lat="43.249625301690166" lon="11.400885934592754"><ele>167.5</ele><time>2026-04-19T09:35:10Z</time></trkpt><trkpt lat="43.249668875636246" lon="11.400809452988348"><ele>167.66666666666666</ele><time>2026-04-19T09:35:11Z</time></trkpt><trkpt lat="43.24971312530179" lon="11.400733943800324"><ele>167.83333333333334</ele><time>2026-04-19T09:35:12Z</time></trkpt><trkpt lat="43.24976179555226" lon="11.400655491900775"><ele>168.0</ele><time>2026-04-19T09:35:13Z</time></trkpt><trkpt lat="43.24980782165203" lon="11.400583324512995"><ele>168.0</ele><time>2026-04-19T09:35:14Z</time></trkpt><trkpt lat="43.249858981586286" lon="11.400499866663628"><ele>168.0</ele><time>2026-04-19T09:35:15Z</time></trkpt><trkpt lat="43.249912593853985" lon="11.400413000768246"><ele>168.0</ele><time>2026-04-19T09:35:16Z</time></trkpt><trkpt lat="43.24996701256157" lon="11.400324144933384"><ele>168.0</ele><time>2026-04-19T09:35:17Z</time></trkpt><trkpt lat="43.2500157768219" lon="11.400235938766144"><ele>168.0</ele><time>2026-04-19T09:35:18Z</time></trkpt><trkpt lat="43.25006272596906" lon="11.400143664165823"><ele>168.0</ele><time>2026-04-19T09:35:19Z</time></trkpt><trkpt lat="43.250113983296586" lon="11.400044446079711"><ele>168.0</ele><time>2026-04-19T09:35:20Z</time></trkpt><trkpt lat="43.25016027077392" lon="11.3999451300175"><ele>168.0</ele><time>2026-04-19T09:35:21Z</time></trkpt><trkpt lat="43.25021048496783" lon="11.399835041299061"><ele>168.0</ele><time>2026-04-19T09:35:22Z</time></trkpt><trkpt lat="43.2502589623984" lon="11.399723362806068"><ele>168.0</ele><time>2026-04-19T09:35:23Z</time></trkpt><trkpt lat="43.25030302830188" lon="11.39962725399571"><ele>168.0</ele><time>2026-04-19T09:35:24Z</time></trkpt><trkpt lat="43.25034901107076" lon="11.399524060653238"><ele>168.0</ele><time>2026-04-19T09:35:25Z</time></trkpt><trkpt lat="43.25039594616106" lon="11.399412995644832"><ele>168.4</ele><time>2026-04-19T09:35:26Z</time></trkpt><trkpt lat="43.250443814460645" lon="11.399296287728081"><ele>168.8</ele><time>2026-04-19T09:35:27Z</time></trkpt><trkpt lat="43.25049645705088" lon="11.399172208744911"><ele>169.2</ele><time>2026-04-19T09:35:28Z</time></trkpt><trkpt lat="43.250550535677746" lon="11.39903886956921"><ele>169.6</ele><time>2026-04-19T09:35:29Z</time></trkpt><trkpt lat="43.25059606966611" lon="11.398908001636077"><ele>170.0</ele><time>2026-04-19T09:35:30Z</time></trkpt><trkpt lat="43.25063960146164" lon="11.398784052268061"><ele>170.0</ele><time>2026-04-19T09:35:31Z</time></trkpt><trkpt lat="43.25068448789563" lon="11.398659946079622"><ele>170.0</ele><time>2026-04-19T09:35:32Z</time></trkpt><trkpt lat="43.25072974709916" lon="11.398544757727153"><ele>170.0</ele><time>2026-04-19T09:35:33Z</time></trkpt><trkpt lat="43.25077595932482" lon="11.398415920606459"><ele>170.0</ele><time>2026-04-19T09:35:34Z</time></trkpt><trkpt lat="43.2508248632343" lon="11.398290097774195"><ele>170.0</ele><time>2026-04-19T09:35:35Z</time></trkpt><trkpt lat="43.250874323360016" lon="11.398159707835305"><ele>170.0</ele><time>2026-04-19T09:35:36Z</time></trkpt><trkpt lat="43.250920066385206" lon="11.398027389786328"><ele>170.0</ele><time>2026-04-19T09:35:37Z</time></trkpt><trkpt lat="43.25096424249744" lon="11.397899073929295"><ele>170.0</ele><time>2026-04-19T09:35:38Z</time></trkpt><trkpt lat="43.251009447348494" lon="11.39777161656247"><ele>170.0</ele><time>2026-04-19T09:35:39Z</time></trkpt><trkpt lat="43.25105475175878" lon="11.397647560929752"><ele>170.0</ele><time>2026-04-19T09:35:40Z</time></trkpt><trkpt lat="43.25109927985854" lon="11.397525952670257"><ele>170.2</ele><time>2026-04-19T09:35:41Z</time></trkpt><trkpt lat="43.25113931248991" lon="11.39740895438391"><ele>170.4</ele><time>2026-04-19T09:35:42Z</time></trkpt><trkpt lat="43.25117939005871" lon="11.397293674545345"><ele>170.60000000000002</ele><time>2026-04-19T09:35:43Z</time></trkpt><trkpt lat="43.25122178630155" lon="11.397179253655493"><ele>170.8</ele><time>2026-04-19T09:35:44Z</time></trkpt><trkpt lat="43.25126194490334" lon="11.397063119738588"><ele>171.0</ele><time>2026-04-19T09:35:45Z</time></trkpt><trkpt lat="43.2513018386084" lon="11.396946277500888"><ele>171.0</ele><time>2026-04-19T09:35:46Z</time></trkpt><trkpt lat="43.25134044932979" lon="11.396834684903341"><ele>171.0</ele><time>2026-04-19T09:35:47Z</time></trkpt><trkpt lat="43.25137948496297" lon="11.396722231979174"><ele>171.0</ele><time>2026-04-19T09:35:48Z</time></trkpt><trkpt lat="43.25142026745748" lon="11.396608823422806"><ele>171.0</ele><time>2026-04-19T09:35:49Z</time></trkpt><trkpt lat="43.251466002310735" lon="11.396494917974684"><ele>171.0</ele><time>2026-04-19T09:35:50Z</time></trkpt><trkpt lat="43.251517242696636" lon="11.396369736090742"><ele>170.75</ele><time>2026-04-19T09:35:51Z</time></trkpt><trkpt lat="43.25157374212605" lon="11.3962233225822"><ele>170.5</ele><time>2026-04-19T09:35:52Z</time></trkpt><trkpt lat="43.251633750084295" lon="11.396074057725471"><ele>170.25</ele><time>2026-04-19T09:35:53Z</time></trkpt><trkpt lat="43.25169253852286" lon="11.395940054812883"><ele>170.0</ele><time>2026-04-19T09:35:54Z</time></trkpt><trkpt lat="43.251756131382464" lon="11.395805954588274"><ele>170.0</ele><time>2026-04-19T09:35:55Z</time></trkpt><trkpt lat="43.251825925664875" lon="11.395669995387504"><ele>170.0</ele><time>2026-04-19T09:35:56Z</time></trkpt><trkpt lat="43.25189661376047" lon="11.395527320337289"><ele>170.0</ele><time>2026-04-19T09:35:57Z</time></trkpt><trkpt lat="43.25196850387749" lon="11.39539525647996"><ele>170.0</ele><time>2026-04-19T09:35:58Z</time></trkpt><trkpt lat="43.252043961224466" lon="11.395275233479314"><ele>170.25</ele><time>2026-04-19T09:35:59Z</time></trkpt><trkpt lat="43.25212374676561" lon="11.395153899603097"><ele>170.5</ele><time>2026-04-19T09:36:00Z</time></trkpt><trkpt lat="43.2521965861906" lon="11.39504454328411"><ele>170.75</ele><time>2026-04-19T09:36:01Z</time></trkpt><trkpt lat="43.25227695912719" lon="11.394922728169085"><ele>171.0</ele><time>2026-04-19T09:36:02Z</time></trkpt><trkpt lat="43.25234913626068" lon="11.394813332068026"><ele>171.0</ele><time>2026-04-19T09:36:03Z</time></trkpt><trkpt lat="43.252421917151494" lon="11.394700716769393"><ele>171.0</ele><time>2026-04-19T09:36:04Z</time></trkpt><trkpt lat="43.25249482793001" lon="11.394586716376642"><ele>171.0</ele><time>2026-04-19T09:36:05Z</time></trkpt><trkpt lat="43.25255763424707" lon="11.39446339448386"><ele>171.0</ele><time>2026-04-19T09:36:06Z</time></trkpt><trkpt lat="43.25262101290376" lon="11.394337500886019"><ele>171.0</ele><time>2026-04-19T09:36:07Z</time></trkpt><trkpt lat="43.25268448618457" lon="11.394206628056958"><ele>171.0</ele><time>2026-04-19T09:36:08Z</time></trkpt><trkpt lat="43.25275328646007" lon="11.394073452806865"><ele>171.0</ele><time>2026-04-19T09:36:09Z</time></trkpt><trkpt lat="43.25282495212542" lon="11.393939910538155"><ele>171.0</ele><time>2026-04-19T09:36:10Z</time></trkpt><trkpt lat="43.25289042985938" lon="11.393807598783427"><ele>171.0</ele><time>2026-04-19T09:36:11Z</time></trkpt><trkpt lat="43.252949541687144" lon="11.393657634204791"><ele>171.0</ele><time>2026-04-19T09:36:12Z</time></trkpt><trkpt lat="43.25300383103677" lon="11.393489149207756"><ele>171.0</ele><time>2026-04-19T09:36:13Z</time></trkpt><trkpt lat="43.253053463508344" lon="11.393314342830577"><ele>171.0</ele><time>2026-04-19T09:36:14Z</time></trkpt><trkpt lat="43.25310466522506" lon="11.393146749207855"><ele>171.0</ele><time>2026-04-19T09:36:15Z</time></trkpt><trkpt lat="43.253161236372016" lon="11.392982418419555"><ele>170.75</ele><time>2026-04-19T09:36:16Z</time></trkpt><trkpt lat="43.25322359497216" lon="11.392819996951285"><ele>170.5</ele><time>2026-04-19T09:36:17Z</time></trkpt><trkpt lat="43.25329446846407" lon="11.392663208911701"><ele>170.25</ele><time>2026-04-19T09:36:18Z</time></trkpt><trkpt lat="43.25336925176442" lon="11.392500222073886"><ele>170.0</ele><time>2026-04-19T09:36:19Z</time></trkpt><trkpt lat="43.25343776706461" lon="11.39232755248921"><ele>169.75</ele><time>2026-04-19T09:36:20Z</time></trkpt><trkpt lat="43.253508355471254" lon="11.392144519857485"><ele>169.5</ele><time>2026-04-19T09:36:21Z</time></trkpt><trkpt lat="43.25357905997511" lon="11.39196307282718"><ele>169.25</ele><time>2026-04-19T09:36:22Z</time></trkpt><trkpt lat="43.25364608091131" lon="11.391795700101717"><ele>169.0</ele><time>2026-04-19T09:36:23Z</time></trkpt><trkpt lat="43.253709404321626" lon="11.391632346402936"><ele>169.0</ele><time>2026-04-19T09:36:24Z</time></trkpt><trkpt lat="43.25377536970147" lon="11.391465095708027"><ele>169.0</ele><time>2026-04-19T09:36:25Z</time></trkpt><trkpt lat="43.2538386427932" lon="11.391291504362071"><ele>169.0</ele><time>2026-04-19T09:36:26Z</time></trkpt><trkpt lat="43.25391044868081" lon="11.391110848335723"><ele>169.0</ele><time>2026-04-19T09:36:27Z</time></trkpt><trkpt lat="43.25398535277738" lon="11.39091507267633"><ele>169.33333333333334</ele><time>2026-04-19T09:36:28Z</time></trkpt><trkpt lat="43.25406951714917" lon="11.390702298276505"><ele>169.66666666666666</ele><time>2026-04-19T09:36:29Z</time></trkpt><trkpt lat="43.254153562797754" lon="11.390479329051798"><ele>170.0</ele><time>2026-04-19T09:36:30Z</time></trkpt><trkpt lat="43.254238113755754" lon="11.390254881975242"><ele>170.0</ele><time>2026-04-19T09:36:31Z</time></trkpt><trkpt lat="43.25431769979854" lon="11.390040144792879"><ele>170.0</ele><time>2026-04-19T09:36:32Z</time></trkpt><trkpt lat="43.25439616029054" lon="11.389843410534143"><ele>170.0</ele><time>2026-04-19T09:36:33Z</time></trkpt><trkpt lat="43.25447322263227" lon="11.389650550819539"><ele>169.66666666666666</ele><time>2026-04-19T09:36:34Z</time></trkpt><trkpt lat="43.254546210015285" lon="11.38945985659794"><ele>169.33333333333334</ele><time>2026-04-19T09:36:35Z</time></trkpt><trkpt lat="43.25461764243688" lon="11.38926802312163"><ele>169.0</ele><time>2026-04-19T09:36:36Z</time></trkpt><trkpt lat="43.254687122766406" lon="11.389074223649029"><ele>169.0</ele><time>2026-04-19T09:36:37Z</time></trkpt><trkpt lat="43.25477028894809" lon="11.38887833223968"><ele>169.0</ele><time>2026-04-19T09:36:38Z</time></trkpt><trkpt lat="43.25481262659805" lon="11.388649172267614"><ele>169.0</ele><time>2026-04-19T09:36:39Z</time></trkpt><trkpt lat="43.25486117465056" lon="11.388429231457527"><ele>168.66666666666669</ele><time>2026-04-19T09:36:40Z</time></trkpt><trkpt lat="43.254908197166976" lon="11.388202523277565"><ele>168.33333333333334</ele><time>2026-04-19T09:36:41Z</time></trkpt><trkpt lat="43.25495329617516" lon="11.3879702700033"><ele>168.0</ele><time>2026-04-19T09:36:42Z</time></trkpt><trkpt lat="43.25499756515949" lon="11.3877420304418"><ele>168.0</ele><time>2026-04-19T09:36:43Z</time></trkpt><trkpt lat="43.2550451012163" lon="11.387509482022447"><ele>168.0</ele><time>2026-04-19T09:36:44Z</time></trkpt><trkpt lat="43.255090383292334" lon="11.387281532785074"><ele>168.0</ele><time>2026-04-19T09:36:45.001Z</time></trkpt><trkpt lat="43.25513347463106" lon="11.387052937492383"><ele>168.66666666666666</ele><time>2026-04-19T09:36:46.001Z</time></trkpt><trkpt lat="43.255178186998684" lon="11.386833722393813"><ele>169.33333333333331</ele><time>2026-04-19T09:36:47.001Z</time></trkpt><trkpt lat="43.25522040792134" lon="11.386620166010838"><ele>170.0</ele><time>2026-04-19T09:36:48.001Z</time></trkpt><trkpt lat="43.25526201162488" lon="11.386412439982976"><ele>171.0</ele><time>2026-04-19T09:36:49.001Z</time></trkpt><trkpt lat="43.25530376798988" lon="11.38620933377893"><ele>172.0</ele><time>2026-04-19T09:36:50.001Z</time></trkpt><trkpt lat="43.25534526435435" lon="11.386009730580849"><ele>173.0</ele><time>2026-04-19T09:36:51.001Z</time></trkpt><trkpt lat="43.255387606053596" lon="11.385807385734257"><ele>173.0</ele><time>2026-04-19T09:36:52.001Z</time></trkpt><trkpt lat="43.25543137582891" lon="11.385599290464517"><ele>173.0</ele><time>2026-04-19T09:36:53.001Z</time></trkpt><trkpt lat="43.25547830440353" lon="11.385395337555638"><ele>173.0</ele><time>2026-04-19T09:36:54.001Z</time></trkpt><trkpt lat="43.255525258987625" lon="11.385186124238746"><ele>172.66666666666666</ele><time>2026-04-19T09:36:55.001Z</time></trkpt><trkpt lat="43.255572203082416" lon="11.384984701809874"><ele>172.33333333333334</ele><time>2026-04-19T09:36:56Z</time></trkpt><trkpt lat="43.25562042434733" lon="11.384780053562451"><ele>172.0</ele><time>2026-04-19T09:36:57Z</time></trkpt><trkpt lat="43.255669515338376" lon="11.384574254121452"><ele>171.33333333333334</ele><time>2026-04-19T09:36:58Z</time></trkpt><trkpt lat="43.2557162258627" lon="11.384371823348596"><ele>170.66666666666666</ele><time>2026-04-19T09:36:59Z</time></trkpt><trkpt lat="43.255760603870485" lon="11.384169835359168"><ele>170.0</ele><time>2026-04-19T09:37:00Z</time></trkpt><trkpt lat="43.25580621476622" lon="11.383982363963037"><ele>170.0</ele><time>2026-04-19T09:37:01Z</time></trkpt><trkpt lat="43.25584852300151" lon="11.38379028369428"><ele>170.0</ele><time>2026-04-19T09:37:02Z</time></trkpt><trkpt lat="43.25589089428336" lon="11.3835925148721"><ele>170.0</ele><time>2026-04-19T09:37:03Z</time></trkpt><trkpt lat="43.255940710188554" lon="11.383394995124295"><ele>170.0</ele><time>2026-04-19T09:37:04Z</time></trkpt><trkpt lat="43.25599558871363" lon="11.383200957322352"><ele>170.0</ele><time>2026-04-19T09:37:05Z</time></trkpt><trkpt lat="43.25604336155678" lon="11.383019179237376"><ele>170.0</ele><time>2026-04-19T09:37:06Z</time></trkpt><trkpt lat="43.25608686687375" lon="11.382845891443463"><ele>170.0</ele><time>2026-04-19T09:37:07Z</time></trkpt><trkpt lat="43.25613002557442" lon="11.382670812842818"><ele>170.0</ele><time>2026-04-19T09:37:08Z</time></trkpt><trkpt lat="43.25616998402444" lon="11.382500354757836"><ele>170.5</ele><time>2026-04-19T09:37:09Z</time></trkpt><trkpt lat="43.256208501091415" lon="11.382332428547471"><ele>171.0</ele><time>2026-04-19T09:37:10Z</time></trkpt><trkpt lat="43.25625178413498" lon="11.382169885675925"><ele>171.5</ele><time>2026-04-19T09:37:11Z</time></trkpt><trkpt lat="43.25629633824042" lon="11.381989212336626"><ele>172.0</ele><time>2026-04-19T09:37:12Z</time></trkpt><trkpt lat="43.25635148092011" lon="11.381821151039551"><ele>172.25</ele><time>2026-04-19T09:37:13Z</time></trkpt><trkpt lat="43.25642586496213" lon="11.381657399308075"><ele>172.5</ele><time>2026-04-19T09:37:14Z</time></trkpt><trkpt lat="43.25651543643809" lon="11.38150885660728"><ele>172.75</ele><time>2026-04-19T09:37:15Z</time></trkpt><trkpt lat="43.25661997906942" lon="11.381380425963885"><ele>173.0</ele><time>2026-04-19T09:37:16Z</time></trkpt><trkpt lat="43.256736329857766" lon="11.381270212637084"><ele>173.25</ele><time>2026-04-19T09:37:17Z</time></trkpt><trkpt lat="43.25685741018833" lon="11.381182793316409"><ele>173.5</ele><time>2026-04-19T09:37:18Z</time></trkpt><trkpt lat="43.25698548531614" lon="11.38110667439268"><ele>173.75</ele><time>2026-04-19T09:37:19Z</time></trkpt><trkpt lat="43.25712165044212" lon="11.381061121530916"><ele>174.0</ele><time>2026-04-19T09:37:20Z</time></trkpt><trkpt lat="43.25725983628876" lon="11.381035243217724"><ele>173.75</ele><time>2026-04-19T09:37:21Z</time></trkpt><trkpt lat="43.25739169557219" lon="11.381021650600943"><ele>173.5</ele><time>2026-04-19T09:37:22Z</time></trkpt><trkpt lat="43.25752269915421" lon="11.381014085474915"><ele>173.25</ele><time>2026-04-19T09:37:23Z</time></trkpt><trkpt lat="43.25764421943509" lon="11.381007775643267"><ele>173.0</ele><time>2026-04-19T09:37:24Z</time></trkpt><trkpt lat="43.25776215269236" lon="11.380996730655115"><ele>173.0</ele><time>2026-04-19T09:37:25Z</time></trkpt><trkpt lat="43.257879091732484" lon="11.380975733450265"><ele>173.0</ele><time>2026-04-19T09:37:26Z</time></trkpt><trkpt lat="43.2579969701598" lon="11.380935982525974"><ele>173.0</ele><time>2026-04-19T09:37:27Z</time></trkpt><trkpt lat="43.25811253300731" lon="11.380870745764339"><ele>173.0</ele><time>2026-04-19T09:37:28Z</time></trkpt><trkpt lat="43.258226024636485" lon="11.380796837176097"><ele>172.75</ele><time>2026-04-19T09:37:29Z</time></trkpt><trkpt lat="43.258332549976636" lon="11.380707577666561"><ele>172.5</ele><time>2026-04-19T09:37:30Z</time></trkpt><trkpt lat="43.25841699332374" lon="11.380602430371017"><ele>172.25</ele><time>2026-04-19T09:37:31Z</time></trkpt><trkpt lat="43.258494896793756" lon="11.38048920275244"><ele>172.0</ele><time>2026-04-19T09:37:32Z</time></trkpt><trkpt lat="43.258560568378115" lon="11.38036616917501"><ele>172.5</ele><time>2026-04-19T09:37:33Z</time></trkpt><trkpt lat="43.25862329526103" lon="11.380234067156813"><ele>173.0</ele><time>2026-04-19T09:37:34Z</time></trkpt><trkpt lat="43.25868968645385" lon="11.380100988884717"><ele>173.5</ele><time>2026-04-19T09:37:35Z</time></trkpt><trkpt lat="43.25875978806511" lon="11.379969242255326"><ele>174.0</ele><time>2026-04-19T09:37:36Z</time></trkpt><trkpt lat="43.258832431156904" lon="11.37983731917458"><ele>174.0</ele><time>2026-04-19T09:37:37Z</time></trkpt><trkpt lat="43.258921654380465" lon="11.379698563722839"><ele>174.0</ele><time>2026-04-19T09:37:38Z</time></trkpt><trkpt lat="43.25900157118992" lon="11.37956081178394"><ele>174.0</ele><time>2026-04-19T09:37:39Z</time></trkpt><trkpt lat="43.259081409609514" lon="11.379421814178583"><ele>174.0</ele><time>2026-04-19T09:37:40Z</time></trkpt><trkpt lat="43.25917595110103" lon="11.3792873755334"><ele>174.0</ele><time>2026-04-19T09:37:41Z</time></trkpt><trkpt lat="43.25926938911188" lon="11.379150594790252"><ele>174.0</ele><time>2026-04-19T09:37:42Z</time></trkpt><trkpt lat="43.25935942976899" lon="11.379013359501455"><ele>174.0</ele><time>2026-04-19T09:37:43Z</time></trkpt><trkpt lat="43.25944771731636" lon="11.378873921563901"><ele>174.0</ele><time>2026-04-19T09:37:44Z</time></trkpt><trkpt lat="43.259541814295915" lon="11.378725636947388"><ele>174.0</ele><time>2026-04-19T09:37:45Z</time></trkpt><trkpt lat="43.25963122543242" lon="11.37856932176178"><ele>174.0</ele><time>2026-04-19T09:37:46Z</time></trkpt><trkpt lat="43.25972014685354" lon="11.378415751817945"><ele>174.0</ele><time>2026-04-19T09:37:47Z</time></trkpt><trkpt lat="43.25980383674752" lon="11.378268397388847"><ele>174.0</ele><time>2026-04-19T09:37:48Z</time></trkpt><trkpt lat="43.259873580601344" lon="11.378106590206901"><ele>173.75</ele><time>2026-04-19T09:37:49Z</time></trkpt><trkpt lat="43.25992092382452" lon="11.377935842169546"><ele>173.5</ele><time>2026-04-19T09:37:50Z</time></trkpt><trkpt lat="43.25995026831064" lon="11.37775079583155"><ele>173.25</ele><time>2026-04-19T09:37:51Z</time></trkpt><trkpt lat="43.25995895773407" lon="11.377566168542929"><ele>173.0</ele><time>2026-04-19T09:37:52Z</time></trkpt><trkpt lat="43.25996147652089" lon="11.377384870172484"><ele>173.0</ele><time>2026-04-19T09:37:53Z</time></trkpt><trkpt lat="43.25997689779451" lon="11.377211462179883"><ele>173.0</ele><time>2026-04-19T09:37:54Z</time></trkpt><trkpt lat="43.25998994199166" lon="11.377052813544424"><ele>173.0</ele><time>2026-04-19T09:37:55Z</time></trkpt><trkpt lat="43.26000354336073" lon="11.376914872836645"><ele>173.0</ele><time>2026-04-19T09:37:56Z</time></trkpt><trkpt lat="43.260018225909114" lon="11.376793085069155"><ele>173.0</ele><time>2026-04-19T09:37:57Z</time></trkpt><trkpt lat="43.260027052072076" lon="11.376684832567053"><ele>173.0</ele><time>2026-04-19T09:37:58Z</time></trkpt><trkpt lat="43.2600388749498" lon="11.376571014620422"><ele>173.0</ele><time>2026-04-19T09:37:59Z</time></trkpt><trkpt lat="43.26005395463359" lon="11.376438251279543"><ele>173.0</ele><time>2026-04-19T09:38:00Z</time></trkpt><trkpt lat="43.26006970732359" lon="11.376302764195156"><ele>173.0</ele><time>2026-04-19T09:38:01Z</time></trkpt><trkpt lat="43.2600849424521" lon="11.376164935362919"><ele>173.0</ele><time>2026-04-19T09:38:02Z</time></trkpt><trkpt lat="43.26011099656627" lon="11.376018827942135"><ele>173.5</ele><time>2026-04-19T09:38:03Z</time></trkpt><trkpt lat="43.2601710642715" lon="11.375881316129604"><ele>174.0</ele><time>2026-04-19T09:38:04Z</time></trkpt><trkpt lat="43.26024697825859" lon="11.37575592893819"><ele>174.5</ele><time>2026-04-19T09:38:05Z</time></trkpt><trkpt lat="43.26033797248375" lon="11.375613393356401"><ele>175.0</ele><time>2026-04-19T09:38:06Z</time></trkpt><trkpt lat="43.26045346653735" lon="11.375494687997463"><ele>175.0</ele><time>2026-04-19T09:38:07Z</time></trkpt><trkpt lat="43.26056133261513" lon="11.375373843753389"><ele>175.0</ele><time>2026-04-19T09:38:08Z</time></trkpt><trkpt lat="43.26065891419928" lon="11.375252009232723"><ele>175.0</ele><time>2026-04-19T09:38:09Z</time></trkpt><trkpt lat="43.260748980852284" lon="11.375141175208153"><ele>175.0</ele><time>2026-04-19T09:38:10Z</time></trkpt><trkpt lat="43.260836452951615" lon="11.375040444317136"><ele>175.0</ele><time>2026-04-19T09:38:11Z</time></trkpt><trkpt lat="43.26092146143284" lon="11.374936472401396"><ele>175.0</ele><time>2026-04-19T09:38:12Z</time></trkpt><trkpt lat="43.261006602093474" lon="11.374829799724575"><ele>175.0</ele><time>2026-04-19T09:38:13Z</time></trkpt><trkpt lat="43.261092000959515" lon="11.374727166411926"><ele>175.0</ele><time>2026-04-19T09:38:14Z</time></trkpt><trkpt lat="43.26117396681816" lon="11.374631044488677"><ele>175.2</ele><time>2026-04-19T09:38:15Z</time></trkpt><trkpt lat="43.261251445899795" lon="11.374539668253615"><ele>175.4</ele><time>2026-04-19T09:38:16Z</time></trkpt><trkpt lat="43.261326544951444" lon="11.374456488731953"><ele>175.60000000000002</ele><time>2026-04-19T09:38:17Z</time></trkpt><trkpt lat="43.26139826735235" lon="11.374376181366298"><ele>175.8</ele><time>2026-04-19T09:38:18Z</time></trkpt><trkpt lat="43.26147491280587" lon="11.374316580421553"><ele>176.0</ele><time>2026-04-19T09:38:19Z</time></trkpt><trkpt lat="43.261533905289134" lon="11.37424720728157"><ele>176.16666666666666</ele><time>2026-04-19T09:38:20Z</time></trkpt><trkpt lat="43.2615911203363" lon="11.374179936240722"><ele>176.33333333333331</ele><time>2026-04-19T09:38:21Z</time></trkpt><trkpt lat="43.26164797488147" lon="11.374113697470673"><ele>176.5</ele><time>2026-04-19T09:38:22Z</time></trkpt><trkpt lat="43.261705378352936" lon="11.374045277780814"><ele>176.66666666666666</ele><time>2026-04-19T09:38:23Z</time></trkpt><trkpt lat="43.261747838681224" lon="11.373968795357237"><ele>176.83333333333334</ele><time>2026-04-19T09:38:24Z</time></trkpt><trkpt lat="43.26183936295977" lon="11.373862949508256"><ele>177.0</ele><time>2026-04-19T09:38:26Z</time></trkpt><trkpt lat="43.26189896703062" lon="11.373806583570937"><ele>177.0</ele><time>2026-04-19T09:38:27Z</time></trkpt><trkpt lat="43.261964917216964" lon="11.373761372005228"><ele>177.0</ele><time>2026-04-19T09:38:28Z</time></trkpt><trkpt lat="43.26204385844921" lon="11.373754001584421"><ele>177.0</ele><time>2026-04-19T09:38:29Z</time></trkpt><trkpt lat="43.262129378382454" lon="11.373775153769083"><ele>177.0</ele><time>2026-04-19T09:38:30Z</time></trkpt><trkpt lat="43.26222398861002" lon="11.373801515667168"><ele>177.0</ele><time>2026-04-19T09:38:31Z</time></trkpt><trkpt lat="43.2623209309316" lon="11.373851055273297"><ele>177.0</ele><time>2026-04-19T09:38:32Z</time></trkpt><trkpt lat="43.26242028557948" lon="11.373916569381603"><ele>177.0</ele><time>2026-04-19T09:38:33Z</time></trkpt><trkpt lat="43.262523681015104" lon="11.373984570335853"><ele>177.0</ele><time>2026-04-19T09:38:34Z</time></trkpt><trkpt lat="43.26263637956448" lon="11.374051466740271"><ele>177.0</ele><time>2026-04-19T09:38:35Z</time></trkpt><trkpt lat="43.26275947391168" lon="11.374122165168313"><ele>177.0</ele><time>2026-04-19T09:38:36Z</time></trkpt><trkpt lat="43.26289242825536" lon="11.374192933180575"><ele>177.0</ele><time>2026-04-19T09:38:37Z</time></trkpt><trkpt lat="43.26301894756035" lon="11.374257729570662"><ele>177.0</ele><time>2026-04-19T09:38:38Z</time></trkpt><trkpt lat="43.263139835981654" lon="11.374316174846186"><ele>177.0</ele><time>2026-04-19T09:38:39Z</time></trkpt><trkpt lat="43.26325650474203" lon="11.37437667426644"><ele>177.0</ele><time>2026-04-19T09:38:40Z</time></trkpt><trkpt lat="43.263369996952555" lon="11.37443457829306"><ele>176.75</ele><time>2026-04-19T09:38:41Z</time></trkpt><trkpt lat="43.26348717358701" lon="11.374495031258544"><ele>176.5</ele><time>2026-04-19T09:38:42Z</time></trkpt><trkpt lat="43.263613895848025" lon="11.37455459306601"><ele>176.25</ele><time>2026-04-19T09:38:43Z</time></trkpt><trkpt lat="43.263745272968194" lon="11.37461639682209"><ele>176.0</ele><time>2026-04-19T09:38:44Z</time></trkpt><trkpt lat="43.26388048351223" lon="11.374682408121346"><ele>176.0</ele><time>2026-04-19T09:38:45Z</time></trkpt><trkpt lat="43.264018380295994" lon="11.374752281774583"><ele>176.0</ele><time>2026-04-19T09:38:46Z</time></trkpt><trkpt lat="43.26415287322957" lon="11.374824355270134"><ele>176.0</ele><time>2026-04-19T09:38:47Z</time></trkpt><trkpt lat="43.264293073207234" lon="11.37490248295795"><ele>176.0</ele><time>2026-04-19T09:38:48Z</time></trkpt><trkpt lat="43.26441292364441" lon="11.374961243242264"><ele>176.0</ele><time>2026-04-19T09:38:49Z</time></trkpt><trkpt lat="43.26453792074278" lon="11.375029745926422"><ele>176.0</ele><time>2026-04-19T09:38:50Z</time></trkpt><trkpt lat="43.26466137867592" lon="11.375094341987445"><ele>176.0</ele><time>2026-04-19T09:38:51Z</time></trkpt><trkpt lat="43.26478557311176" lon="11.375161805728586"><ele>176.0</ele><time>2026-04-19T09:38:52Z</time></trkpt><trkpt lat="43.264901269136296" lon="11.375222344434754"><ele>176.0</ele><time>2026-04-19T09:38:53Z</time></trkpt><trkpt lat="43.265008437986175" lon="11.375278690526464"><ele>176.0</ele><time>2026-04-19T09:38:54Z</time></trkpt><trkpt lat="43.26510817953453" lon="11.375331127645422"><ele>176.0</ele><time>2026-04-19T09:38:55Z</time></trkpt><trkpt lat="43.265216083309504" lon="11.37539166190737"><ele>176.0</ele><time>2026-04-19T09:38:56Z</time></trkpt><trkpt lat="43.265329783039356" lon="11.375451190324691"><ele>176.0</ele><time>2026-04-19T09:38:57Z</time></trkpt><trkpt lat="43.265444972367064" lon="11.375509594428529"><ele>176.0</ele><time>2026-04-19T09:38:58Z</time></trkpt><trkpt lat="43.26556317122723" lon="11.37556873788962"><ele>176.0</ele><time>2026-04-19T09:38:59.001Z</time></trkpt><trkpt lat="43.26567994807516" lon="11.375631215014618"><ele>176.0</ele><time>2026-04-19T09:39:00.001Z</time></trkpt><trkpt lat="43.26579263989577" lon="11.375690409407511"><ele>176.0</ele><time>2026-04-19T09:39:01.001Z</time></trkpt><trkpt lat="43.26590639757959" lon="11.375750321337271"><ele>176.0</ele><time>2026-04-19T09:39:02Z</time></trkpt><trkpt lat="43.26601998536818" lon="11.375808599208758"><ele>176.0</ele><time>2026-04-19T09:39:03Z</time></trkpt><trkpt lat="43.26613241318321" lon="11.375869929448452"><ele>176.0</ele><time>2026-04-19T09:39:04Z</time></trkpt><trkpt lat="43.26624870273279" lon="11.375935537429964"><ele>176.0</ele><time>2026-04-19T09:39:05Z</time></trkpt><trkpt lat="43.26637417859188" lon="11.376005898754123"><ele>176.0</ele><time>2026-04-19T09:39:06Z</time></trkpt><trkpt lat="43.26650351188953" lon="11.37607449715015"><ele>176.0</ele><time>2026-04-19T09:39:07Z</time></trkpt><trkpt lat="43.26663330071077" lon="11.376137345230541"><ele>176.0</ele><time>2026-04-19T09:39:08Z</time></trkpt><trkpt lat="43.26676771296749" lon="11.376204502862798"><ele>176.0</ele><time>2026-04-19T09:39:09Z</time></trkpt><trkpt lat="43.26690650725363" lon="11.376278737435657"><ele>176.0</ele><time>2026-04-19T09:39:10Z</time></trkpt><trkpt lat="43.267045664462515" lon="11.376348039435625"><ele>176.0</ele><time>2026-04-19T09:39:11Z</time></trkpt><trkpt lat="43.2671784732631" lon="11.376402609667947"><ele>176.0</ele><time>2026-04-19T09:39:12Z</time></trkpt><trkpt lat="43.26731298358802" lon="11.376443699588277"><ele>176.33333333333331</ele><time>2026-04-19T09:39:13Z</time></trkpt><trkpt lat="43.26745553198445" lon="11.376484711861035"><ele>176.66666666666666</ele><time>2026-04-19T09:39:14Z</time></trkpt><trkpt lat="43.267605030463" lon="11.37652971921756"><ele>177.0</ele><time>2026-04-19T09:39:15Z</time></trkpt><trkpt lat="43.2677656221373" lon="11.376588217932285"><ele>177.0</ele><time>2026-04-19T09:39:16Z</time></trkpt><trkpt lat="43.26792426339986" lon="11.376664746189427"><ele>177.0</ele><time>2026-04-19T09:39:17Z</time></trkpt><trkpt lat="43.2680826311055" lon="11.376751817544271"><ele>177.0</ele><time>2026-04-19T09:39:18Z</time></trkpt><trkpt lat="43.26822816373767" lon="11.376830485304955"><ele>177.5</ele><time>2026-04-19T09:39:19Z</time></trkpt><trkpt lat="43.26835407377473" lon="11.376899624653653"><ele>178.0</ele><time>2026-04-19T09:39:20Z</time></trkpt><trkpt lat="43.268481934875936" lon="11.376968151317973"><ele>178.5</ele><time>2026-04-19T09:39:21Z</time></trkpt><trkpt lat="43.268613145703526" lon="11.377045990842864"><ele>179.0</ele><time>2026-04-19T09:39:22Z</time></trkpt><trkpt lat="43.26874264474074" lon="11.3771494494368"><ele>179.33333333333331</ele><time>2026-04-19T09:39:23Z</time></trkpt><trkpt lat="43.26887245542792" lon="11.377283248528947"><ele>179.66666666666666</ele><time>2026-04-19T09:39:24Z</time></trkpt><trkpt lat="43.269002781910714" lon="11.377440599561014"><ele>180.0</ele><time>2026-04-19T09:39:25Z</time></trkpt><trkpt lat="43.26912729414611" lon="11.377608212477181"><ele>179.0</ele><time>2026-04-19T09:39:26Z</time></trkpt><trkpt lat="43.269251945932716" lon="11.377764978528502"><ele>178.0</ele><time>2026-04-19T09:39:27Z</time></trkpt><trkpt lat="43.26939484813843" lon="11.377911148424845"><ele>177.0</ele><time>2026-04-19T09:39:28Z</time></trkpt><trkpt lat="43.26956462692315" lon="11.378052595017069"><ele>177.0</ele><time>2026-04-19T09:39:29Z</time></trkpt><trkpt lat="43.269755204585714" lon="11.3781953683612"><ele>177.0</ele><time>2026-04-19T09:39:30Z</time></trkpt><trkpt lat="43.26996755203693" lon="11.3783254069767"><ele>177.0</ele><time>2026-04-19T09:39:31Z</time></trkpt><trkpt lat="43.27019584319977" lon="11.37844186607889"><ele>177.0</ele><time>2026-04-19T09:39:32Z</time></trkpt><trkpt lat="43.27042649313902" lon="11.37853339028039"><ele>176.5</ele><time>2026-04-19T09:39:33Z</time></trkpt><trkpt lat="43.270656199105964" lon="11.37860718515826"><ele>176.0</ele><time>2026-04-19T09:39:34Z</time></trkpt><trkpt lat="43.270880842090875" lon="11.378657051496802"><ele>176.0</ele><time>2026-04-19T09:39:35Z</time></trkpt><trkpt lat="43.27110908428986" lon="11.37868737456416"><ele>176.0</ele><time>2026-04-19T09:39:36Z</time></trkpt><trkpt lat="43.27133955197668" lon="11.37869840776119"><ele>176.5</ele><time>2026-04-19T09:39:37Z</time></trkpt><trkpt lat="43.271573519719176" lon="11.37869383671663"><ele>177.0</ele><time>2026-04-19T09:39:38Z</time></trkpt><trkpt lat="43.271810678971484" lon="11.378667229084277"><ele>177.0</ele><time>2026-04-19T09:39:39Z</time></trkpt><trkpt lat="43.27204974496381" lon="11.378620703838648"><ele>177.0</ele><time>2026-04-19T09:39:40Z</time></trkpt><trkpt lat="43.27228630003005" lon="11.378544638301065"><ele>177.0</ele><time>2026-04-19T09:39:41Z</time></trkpt><trkpt lat="43.272514422112245" lon="11.378447240265722"><ele>177.0</ele><time>2026-04-19T09:39:42Z</time></trkpt><trkpt lat="43.272722922306905" lon="11.378338036758677"><ele>177.0</ele><time>2026-04-19T09:39:43Z</time></trkpt><trkpt lat="43.27294939058378" lon="11.3782482723526"><ele>177.0</ele><time>2026-04-19T09:39:44Z</time></trkpt><trkpt lat="43.27315638541303" lon="11.378164252560612"><ele>177.0</ele><time>2026-04-19T09:39:45Z</time></trkpt><trkpt lat="43.273358757554085" lon="11.378081954112305"><ele>177.0</ele><time>2026-04-19T09:39:46Z</time></trkpt><trkpt lat="43.27356445901203" lon="11.378000283474064"><ele>177.0</ele><time>2026-04-19T09:39:47Z</time></trkpt><trkpt lat="43.27377243972878" lon="11.377916575886342"><ele>178.33333333333334</ele><time>2026-04-19T09:39:48Z</time></trkpt><trkpt lat="43.27397916637932" lon="11.377829166372662"><ele>179.66666666666669</ele><time>2026-04-19T09:39:49Z</time></trkpt><trkpt lat="43.27418942420206" lon="11.377742844959315"><ele>181.0</ele><time>2026-04-19T09:39:50Z</time></trkpt><trkpt lat="43.27440645753814" lon="11.377651604808834"><ele>181.0</ele><time>2026-04-19T09:39:51Z</time></trkpt><trkpt lat="43.274622703983646" lon="11.377560182741902"><ele>181.0</ele><time>2026-04-19T09:39:52Z</time></trkpt><trkpt lat="43.27484269106398" lon="11.377465445671376"><ele>180.0</ele><time>2026-04-19T09:39:53Z</time></trkpt><trkpt lat="43.275066351871594" lon="11.377375736594901"><ele>179.0</ele><time>2026-04-19T09:39:54Z</time></trkpt><trkpt lat="43.27529375384793" lon="11.377286368753392"><ele>179.0</ele><time>2026-04-19T09:39:55Z</time></trkpt><trkpt lat="43.27552653660252" lon="11.377188164725693"><ele>179.0</ele><time>2026-04-19T09:39:56Z</time></trkpt><trkpt lat="43.275756195491475" lon="11.37708894694814"><ele>179.5</ele><time>2026-04-19T09:39:57Z</time></trkpt><trkpt lat="43.27598820590071" lon="11.376989189913415"><ele>180.0</ele><time>2026-04-19T09:39:58Z</time></trkpt><trkpt lat="43.27622598336616" lon="11.376893731690155"><ele>179.5</ele><time>2026-04-19T09:39:59Z</time></trkpt><trkpt lat="43.27646228404493" lon="11.376810253976542"><ele>179.0</ele><time>2026-04-19T09:40:00Z</time></trkpt><trkpt lat="43.276699852501956" lon="11.376741333744665"><ele>179.0</ele><time>2026-04-19T09:40:01Z</time></trkpt><trkpt lat="43.27693634918936" lon="11.376693395630365"><ele>179.0</ele><time>2026-04-19T09:40:02Z</time></trkpt><trkpt lat="43.27717042666808" lon="11.37666851936324"><ele>177.5</ele><time>2026-04-19T09:40:03Z</time></trkpt><trkpt lat="43.27740018218815" lon="11.376671899809264"><ele>176.0</ele><time>2026-04-19T09:40:04Z</time></trkpt><trkpt lat="43.277630273797946" lon="11.37669413677806"><ele>176.0</ele><time>2026-04-19T09:40:05Z</time></trkpt><trkpt lat="43.277860028734" lon="11.376731952782364"><ele>176.0</ele><time>2026-04-19T09:40:06Z</time></trkpt><trkpt lat="43.27808843311478" lon="11.376782070032608"><ele>176.5</ele><time>2026-04-19T09:40:07Z</time></trkpt><trkpt lat="43.27831582925246" lon="11.376833255053086"><ele>177.0</ele><time>2026-04-19T09:40:08Z</time></trkpt><trkpt lat="43.2785448819292" lon="11.376884856081263"><ele>177.0</ele><time>2026-04-19T09:40:09Z</time></trkpt><trkpt lat="43.27877283656533" lon="11.376931610373195"><ele>177.0</ele><time>2026-04-19T09:40:10Z</time></trkpt><trkpt lat="43.27900330223033" lon="11.376968975246873"><ele>178.5</ele><time>2026-04-19T09:40:11Z</time></trkpt><trkpt lat="43.27923648215731" lon="11.376984489788681"><ele>180.0</ele><time>2026-04-19T09:40:12Z</time></trkpt><trkpt lat="43.27947147047001" lon="11.376985765676558"><ele>180.0</ele><time>2026-04-19T09:40:13Z</time></trkpt><trkpt lat="43.27970365685613" lon="11.376971248528616"><ele>180.0</ele><time>2026-04-19T09:40:14Z</time></trkpt><trkpt lat="43.27992367744942" lon="11.376941499943774"><ele>179.66666666666666</ele><time>2026-04-19T09:40:15Z</time></trkpt><trkpt lat="43.280135852770684" lon="11.37689717018033"><ele>179.33333333333331</ele><time>2026-04-19T09:40:16Z</time></trkpt><trkpt lat="43.28033955900616" lon="11.376853250071347"><ele>179.0</ele><time>2026-04-19T09:40:17Z</time></trkpt><trkpt lat="43.280528613684524" lon="11.376808904427747"><ele>178.0</ele><time>2026-04-19T09:40:18Z</time></trkpt><trkpt lat="43.28071176350599" lon="11.376767189810824"><ele>177.0</ele><time>2026-04-19T09:40:19Z</time></trkpt><trkpt lat="43.28083995351878" lon="11.376653562655704"><ele>176.0</ele><time>2026-04-19T09:40:20Z</time></trkpt><trkpt lat="43.28098126441488" lon="11.376607903963937"><ele>176.0</ele><time>2026-04-19T09:40:21Z</time></trkpt><trkpt lat="43.281118342331794" lon="11.376561264694814"><ele>176.0</ele><time>2026-04-19T09:40:22Z</time></trkpt><trkpt lat="43.28124641096857" lon="11.376508789480587"><ele>176.0</ele><time>2026-04-19T09:40:23Z</time></trkpt><trkpt lat="43.281357441491274" lon="11.376461977271347"><ele>176.0</ele><time>2026-04-19T09:40:24Z</time></trkpt><trkpt lat="43.281445982170695" lon="11.37644777629512"><ele>175.8</ele><time>2026-04-19T09:40:25Z</time></trkpt><trkpt lat="43.281528299032864" lon="11.376471262419017"><ele>175.60000000000002</ele><time>2026-04-19T09:40:26Z</time></trkpt><trkpt lat="43.28160379357183" lon="11.376534946114342"><ele>175.4</ele><time>2026-04-19T09:40:27Z</time></trkpt><trkpt lat="43.28168473949494" lon="11.376618100883455"><ele>175.2</ele><time>2026-04-19T09:40:28Z</time></trkpt><trkpt lat="43.28176710848869" lon="11.376717539040046"><ele>175.0</ele><time>2026-04-19T09:40:29Z</time></trkpt><trkpt lat="43.28183444993612" lon="11.376818436899427"><ele>175.0</ele><time>2026-04-19T09:40:30Z</time></trkpt><trkpt lat="43.281878031566656" lon="11.376959966459896"><ele>175.0</ele><time>2026-04-19T09:40:31Z</time></trkpt><trkpt lat="43.28190405617439" lon="11.377118729257969"><ele>175.0</ele><time>2026-04-19T09:40:32Z</time></trkpt><trkpt lat="43.28193716607796" lon="11.37729073227004"><ele>175.0</ele><time>2026-04-19T09:40:33Z</time></trkpt><trkpt lat="43.28197444370169" lon="11.377459100796102"><ele>175.5</ele><time>2026-04-19T09:40:34Z</time></trkpt><trkpt lat="43.28202457907629" lon="11.377624819194136"><ele>176.0</ele><time>2026-04-19T09:40:35Z</time></trkpt><trkpt lat="43.28210335219619" lon="11.377781197232414"><ele>176.5</ele><time>2026-04-19T09:40:36Z</time></trkpt><trkpt lat="43.28220912331205" lon="11.377908182396727"><ele>177.0</ele><time>2026-04-19T09:40:37Z</time></trkpt><trkpt lat="43.282323598090414" lon="11.377988521761397"><ele>177.25</ele><time>2026-04-19T09:40:38Z</time></trkpt><trkpt lat="43.2824501888084" lon="11.378026153920112"><ele>177.5</ele><time>2026-04-19T09:40:39Z</time></trkpt><trkpt lat="43.28257197195969" lon="11.378014949751847"><ele>177.75</ele><time>2026-04-19T09:40:40Z</time></trkpt><trkpt lat="43.28269895356767" lon="11.377967923850404"><ele>178.0</ele><time>2026-04-19T09:40:41Z</time></trkpt><trkpt lat="43.28282829263211" lon="11.377901107425377"><ele>178.0</ele><time>2026-04-19T09:40:42Z</time></trkpt><trkpt lat="43.28294218558138" lon="11.377850855655703"><ele>178.0</ele><time>2026-04-19T09:40:43Z</time></trkpt><trkpt lat="43.28305056464111" lon="11.377805368310039"><ele>178.0</ele><time>2026-04-19T09:40:44Z</time></trkpt><trkpt lat="43.28316099919705" lon="11.377784393347914"><ele>178.0</ele><time>2026-04-19T09:40:45Z</time></trkpt><trkpt lat="43.28328453119575" lon="11.377792432492711"><ele>178.25</ele><time>2026-04-19T09:40:46Z</time></trkpt><trkpt lat="43.28341617371157" lon="11.377828770290531"><ele>178.5</ele><time>2026-04-19T09:40:47Z</time></trkpt><trkpt lat="43.28353592037161" lon="11.377891562494261"><ele>178.75</ele><time>2026-04-19T09:40:48Z</time></trkpt><trkpt lat="43.28364944363908" lon="11.377971460236484"><ele>179.0</ele><time>2026-04-19T09:40:49Z</time></trkpt><trkpt lat="43.283737000413375" lon="11.378074304324988"><ele>179.5</ele><time>2026-04-19T09:40:50Z</time></trkpt><trkpt lat="43.2838049251518" lon="11.378200937777436"><ele>180.0</ele><time>2026-04-19T09:40:51Z</time></trkpt><trkpt lat="43.2838658314337" lon="11.378343701305576"><ele>180.5</ele><time>2026-04-19T09:40:52Z</time></trkpt><trkpt lat="43.283918136664276" lon="11.37848713412777"><ele>181.0</ele><time>2026-04-19T09:40:53Z</time></trkpt><trkpt lat="43.28397073133863" lon="11.378623270829356"><ele>182.20000000000002</ele><time>2026-04-19T09:40:54Z</time></trkpt><trkpt lat="43.284037431276715" lon="11.378743230492828"><ele>183.4</ele><time>2026-04-19T09:40:55Z</time></trkpt><trkpt lat="43.284122396466486" lon="11.378834313831948"><ele>184.6</ele><time>2026-04-19T09:40:56Z</time></trkpt><trkpt lat="43.28421423788834" lon="11.37889802126173"><ele>185.8</ele><time>2026-04-19T09:40:57Z</time></trkpt><trkpt lat="43.284307578861096" lon="11.378942849104265"><ele>187.0</ele><time>2026-04-19T09:40:58Z</time></trkpt><trkpt lat="43.284410332733295" lon="11.378967600567211"><ele>188.2</ele><time>2026-04-19T09:40:59Z</time></trkpt><trkpt lat="43.28451540277918" lon="11.378976227245571"><ele>189.39999999999998</ele><time>2026-04-19T09:41:00Z</time></trkpt><trkpt lat="43.284601907742456" lon="11.378982192232764"><ele>190.60000000000002</ele><time>2026-04-19T09:41:01Z</time></trkpt><trkpt lat="43.284697282200426" lon="11.37898863790134"><ele>191.8</ele><time>2026-04-19T09:41:02Z</time></trkpt><trkpt lat="43.284796064290724" lon="11.378993584893314"><ele>193.0</ele><time>2026-04-19T09:41:03Z</time></trkpt><trkpt lat="43.284893345341075" lon="11.37900512966505"><ele>193.25</ele><time>2026-04-19T09:41:04Z</time></trkpt><trkpt lat="43.284993350293206" lon="11.379016000843325"><ele>193.5</ele><time>2026-04-19T09:41:05Z</time></trkpt><trkpt lat="43.285098715328296" lon="11.379026628696968"><ele>193.75</ele><time>2026-04-19T09:41:06Z</time></trkpt><trkpt lat="43.28521408954021" lon="11.379044949133881"><ele>194.0</ele><time>2026-04-19T09:41:07Z</time></trkpt><trkpt lat="43.2853421021245" lon="11.379078248633904"><ele>194.0</ele><time>2026-04-19T09:41:08Z</time></trkpt><trkpt lat="43.28547664189199" lon="11.379126980737809"><ele>194.0</ele><time>2026-04-19T09:41:09Z</time></trkpt><trkpt lat="43.285613168680385" lon="11.379202337465651"><ele>194.0</ele><time>2026-04-19T09:41:10Z</time></trkpt><trkpt lat="43.28574296070025" lon="11.3793004562564"><ele>194.0</ele><time>2026-04-19T09:41:11Z</time></trkpt><trkpt lat="43.285870125686664" lon="11.379404531813982"><ele>193.75</ele><time>2026-04-19T09:41:12Z</time></trkpt><trkpt lat="43.285989747969836" lon="11.37949492399183"><ele>193.5</ele><time>2026-04-19T09:41:13Z</time></trkpt><trkpt lat="43.2861103604699" lon="11.379578807031447"><ele>193.25</ele><time>2026-04-19T09:41:14Z</time></trkpt><trkpt lat="43.28623772972295" lon="11.379663804276225"><ele>193.0</ele><time>2026-04-19T09:41:15Z</time></trkpt><trkpt lat="43.286368577207995" lon="11.379733172539977"><ele>193.5</ele><time>2026-04-19T09:41:16Z</time></trkpt><trkpt lat="43.286503762365875" lon="11.379790801663784"><ele>194.0</ele><time>2026-04-19T09:41:17Z</time></trkpt><trkpt lat="43.28663432541281" lon="11.379835414336819"><ele>194.5</ele><time>2026-04-19T09:41:18Z</time></trkpt><trkpt lat="43.28676189360683" lon="11.379866522777581"><ele>195.0</ele><time>2026-04-19T09:41:19Z</time></trkpt><trkpt lat="43.2868868660276" lon="11.379893401144288"><ele>195.0</ele><time>2026-04-19T09:41:20Z</time></trkpt><trkpt lat="43.28701300980632" lon="11.379912847935934"><ele>195.0</ele><time>2026-04-19T09:41:21Z</time></trkpt><trkpt lat="43.28713593205108" lon="11.379921291348996"><ele>195.0</ele><time>2026-04-19T09:41:22Z</time></trkpt><trkpt lat="43.28724912502964" lon="11.379914947621522"><ele>195.0</ele><time>2026-04-19T09:41:23Z</time></trkpt><trkpt lat="43.28735792126383" lon="11.379888189159132"><ele>195.75</ele><time>2026-04-19T09:41:24Z</time></trkpt><trkpt lat="43.287470221761346" lon="11.37983529035764"><ele>196.5</ele><time>2026-04-19T09:41:25Z</time></trkpt><trkpt lat="43.287596567122534" lon="11.379760056754598"><ele>197.25</ele><time>2026-04-19T09:41:26Z</time></trkpt><trkpt lat="43.28773225242112" lon="11.37971028192518"><ele>198.0</ele><time>2026-04-19T09:41:27Z</time></trkpt><trkpt lat="43.28785939864531" lon="11.379644646326987"><ele>198.5</ele><time>2026-04-19T09:41:28Z</time></trkpt><trkpt lat="43.28798040167863" lon="11.379560152593474"><ele>199.0</ele><time>2026-04-19T09:41:29Z</time></trkpt><trkpt lat="43.28810927811302" lon="11.37949875572355"><ele>199.5</ele><time>2026-04-19T09:41:30Z</time></trkpt><trkpt lat="43.288246245288136" lon="11.379443958461527"><ele>200.0</ele><time>2026-04-19T09:41:31Z</time></trkpt><trkpt lat="43.28839367003854" lon="11.379398475437782"><ele>200.33333333333334</ele><time>2026-04-19T09:41:32Z</time></trkpt><trkpt lat="43.288547612891364" lon="11.379372728680101"><ele>200.66666666666669</ele><time>2026-04-19T09:41:33Z</time></trkpt><trkpt lat="43.28870559007176" lon="11.379350888333626"><ele>201.0</ele><time>2026-04-19T09:41:34Z</time></trkpt><trkpt lat="43.288859095523605" lon="11.379332580519527"><ele>200.75</ele><time>2026-04-19T09:41:35Z</time></trkpt><trkpt lat="43.28899471023395" lon="11.379317723081867"><ele>200.5</ele><time>2026-04-19T09:41:36Z</time></trkpt><trkpt lat="43.289121191860126" lon="11.379308699727632"><ele>200.25</ele><time>2026-04-19T09:41:37Z</time></trkpt><trkpt lat="43.28924803385314" lon="11.3793014938214"><ele>200.0</ele><time>2026-04-19T09:41:38Z</time></trkpt><trkpt lat="43.28937998666632" lon="11.37930176093189"><ele>200.0</ele><time>2026-04-19T09:41:39Z</time></trkpt><trkpt lat="43.289499802771815" lon="11.379303953931458"><ele>200.0</ele><time>2026-04-19T09:41:40Z</time></trkpt><trkpt lat="43.28960867833272" lon="11.379309260785273"><ele>200.0</ele><time>2026-04-19T09:41:41Z</time></trkpt><trkpt lat="43.2897138838096" lon="11.379322828450782"><ele>200.0</ele><time>2026-04-19T09:41:42Z</time></trkpt><trkpt lat="43.289809743130135" lon="11.379334526768245"><ele>200.0</ele><time>2026-04-19T09:41:43Z</time></trkpt><trkpt lat="43.289911743754544" lon="11.379350111309664"><ele>200.33333333333334</ele><time>2026-04-19T09:41:44Z</time></trkpt><trkpt lat="43.28999818594209" lon="11.37936916760403"><ele>200.66666666666669</ele><time>2026-04-19T09:41:45Z</time></trkpt><trkpt lat="43.290072856656174" lon="11.37939210756951"><ele>201.0</ele><time>2026-04-19T09:41:46Z</time></trkpt><trkpt lat="43.29013929942562" lon="11.379417315667657"><ele>201.33333333333331</ele><time>2026-04-19T09:41:47Z</time></trkpt><trkpt lat="43.29022695756858" lon="11.379514344175826"><ele>201.66666666666666</ele><time>2026-04-19T09:41:49Z</time></trkpt><trkpt lat="43.290254145177705" lon="11.379599335466034"><ele>202.0</ele><time>2026-04-19T09:41:50Z</time></trkpt><trkpt lat="43.29027344479665" lon="11.379703968890725"><ele>202.33333333333331</ele><time>2026-04-19T09:41:51Z</time></trkpt><trkpt lat="43.29029933996702" lon="11.379810046530647"><ele>202.66666666666666</ele><time>2026-04-19T09:41:52Z</time></trkpt><trkpt lat="43.29035123796885" lon="11.379899636861522"><ele>203.0</ele><time>2026-04-19T09:41:53Z</time></trkpt><trkpt lat="43.290424650511355" lon="11.379970223754313"><ele>203.33333333333331</ele><time>2026-04-19T09:41:54Z</time></trkpt><trkpt lat="43.29050639329545" lon="11.380008942974431"><ele>203.66666666666666</ele><time>2026-04-19T09:41:55Z</time></trkpt><trkpt lat="43.290586421131714" lon="11.380013525953393"><ele>204.0</ele><time>2026-04-19T09:41:56Z</time></trkpt><trkpt lat="43.290654116032876" lon="11.379982464032524"><ele>204.0</ele><time>2026-04-19T09:41:57Z</time></trkpt><trkpt lat="43.290708561627966" lon="11.379921096663223"><ele>204.0</ele><time>2026-04-19T09:41:58Z</time></trkpt><trkpt lat="43.29074856820971" lon="11.379842499064093"><ele>204.0</ele><time>2026-04-19T09:41:59Z</time></trkpt><trkpt lat="43.29079431067389" lon="11.379761813440421"><ele>204.0</ele><time>2026-04-19T09:42:00Z</time></trkpt><trkpt lat="43.290778646570175" lon="11.379631188761987"><ele>204.0</ele><time>2026-04-19T09:42:01Z</time></trkpt><trkpt lat="43.29077582769908" lon="11.379514472330431"><ele>204.0</ele><time>2026-04-19T09:42:02Z</time></trkpt><trkpt lat="43.29076700913404" lon="11.379401930640304"><ele>202.79999999999998</ele><time>2026-04-19T09:42:03Z</time></trkpt><trkpt lat="43.29076557633593" lon="11.379292885881798"><ele>201.6</ele><time>2026-04-19T09:42:04Z</time></trkpt><trkpt lat="43.290778049016176" lon="11.379171178972436"><ele>200.4</ele><time>2026-04-19T09:42:05Z</time></trkpt><trkpt lat="43.29079500510886" lon="11.37904573671624"><ele>199.2</ele><time>2026-04-19T09:42:06Z</time></trkpt><trkpt lat="43.29080569767239" lon="11.378922393097373"><ele>198.0</ele><time>2026-04-19T09:42:07Z</time></trkpt><trkpt lat="43.29080640640019" lon="11.378779356016922"><ele>196.75</ele><time>2026-04-19T09:42:08Z</time></trkpt><trkpt lat="43.29079365040149" lon="11.378618784917007"><ele>195.5</ele><time>2026-04-19T09:42:09Z</time></trkpt><trkpt lat="43.2907743488849" lon="11.378444509961271"><ele>194.25</ele><time>2026-04-19T09:42:10Z</time></trkpt><trkpt lat="43.29075000636058" lon="11.378261950955144"><ele>193.0</ele><time>2026-04-19T09:42:11Z</time></trkpt><trkpt lat="43.29072006128308" lon="11.37807344417526"><ele>191.5</ele><time>2026-04-19T09:42:12Z</time></trkpt><trkpt lat="43.29069080183216" lon="11.377887016621276"><ele>190.0</ele><time>2026-04-19T09:42:13Z</time></trkpt><trkpt lat="43.290662516212585" lon="11.377709180299577"><ele>188.5</ele><time>2026-04-19T09:42:14Z</time></trkpt><trkpt lat="43.2906342156123" lon="11.37753414938772"><ele>187.0</ele><time>2026-04-19T09:42:15Z</time></trkpt><trkpt lat="43.29060800388074" lon="11.377364869056462"><ele>187.0</ele><time>2026-04-19T09:42:16Z</time></trkpt><trkpt lat="43.290584707145086" lon="11.37720045557539"><ele>187.0</ele><time>2026-04-19T09:42:17Z</time></trkpt><trkpt lat="43.29056174880618" lon="11.377033445424047"><ele>187.0</ele><time>2026-04-19T09:42:18Z</time></trkpt><trkpt lat="43.290543080207414" lon="11.37687005142874"><ele>187.0</ele><time>2026-04-19T09:42:19Z</time></trkpt><trkpt lat="43.290526390608775" lon="11.376709955503621"><ele>187.0</ele><time>2026-04-19T09:42:20Z</time></trkpt><trkpt lat="43.290518941190136" lon="11.376547927692233"><ele>187.0</ele><time>2026-04-19T09:42:21Z</time></trkpt><trkpt lat="43.290519751825116" lon="11.376374202911617"><ele>187.0</ele><time>2026-04-19T09:42:22Z</time></trkpt><trkpt lat="43.29054181774492" lon="11.37619432063529"><ele>187.0</ele><time>2026-04-19T09:42:23Z</time></trkpt><trkpt lat="43.29058873791451" lon="11.37601696753324"><ele>186.75</ele><time>2026-04-19T09:42:24Z</time></trkpt><trkpt lat="43.29065427566765" lon="11.375844925339338"><ele>186.5</ele><time>2026-04-19T09:42:25Z</time></trkpt><trkpt lat="43.290741258942774" lon="11.375696368147313"><ele>186.25</ele><time>2026-04-19T09:42:26Z</time></trkpt><trkpt lat="43.29083454733212" lon="11.375556725778097"><ele>186.0</ele><time>2026-04-19T09:42:27Z</time></trkpt><trkpt lat="43.29093972699287" lon="11.375425300269198"><ele>186.0</ele><time>2026-04-19T09:42:28Z</time></trkpt><trkpt lat="43.29105645102055" lon="11.375316780674396"><ele>186.0</ele><time>2026-04-19T09:42:29Z</time></trkpt><trkpt lat="43.291180288118554" lon="11.375208866101309"><ele>186.0</ele><time>2026-04-19T09:42:30Z</time></trkpt><trkpt lat="43.291308553579135" lon="11.375103020587687"><ele>186.0</ele><time>2026-04-19T09:42:31Z</time></trkpt><trkpt lat="43.291433601849775" lon="11.374991287495554"><ele>186.0</ele><time>2026-04-19T09:42:32Z</time></trkpt><trkpt lat="43.29154904415897" lon="11.374891538332088"><ele>186.0</ele><time>2026-04-19T09:42:33Z</time></trkpt><trkpt lat="43.291655821152446" lon="11.374800558584568"><ele>186.0</ele><time>2026-04-19T09:42:34Z</time></trkpt><trkpt lat="43.29175755157365" lon="11.374722678627066"><ele>186.0</ele><time>2026-04-19T09:42:35Z</time></trkpt><trkpt lat="43.2918666305519" lon="11.374641201167963"><ele>187.0</ele><time>2026-04-19T09:42:36Z</time></trkpt><trkpt lat="43.2919881674788" lon="11.37455596052125"><ele>188.0</ele><time>2026-04-19T09:42:37Z</time></trkpt><trkpt lat="43.29211949770556" lon="11.374478849586128"><ele>189.0</ele><time>2026-04-19T09:42:38Z</time></trkpt><trkpt lat="43.29226128020708" lon="11.374413615101163"><ele>190.0</ele><time>2026-04-19T09:42:39Z</time></trkpt><trkpt lat="43.292410836126564" lon="11.374365893175186"><ele>190.0</ele><time>2026-04-19T09:42:40Z</time></trkpt><trkpt lat="43.292571982076154" lon="11.37432911964846"><ele>190.0</ele><time>2026-04-19T09:42:41Z</time></trkpt><trkpt lat="43.292739362464395" lon="11.374311264031006"><ele>190.0</ele><time>2026-04-19T09:42:42Z</time></trkpt><trkpt lat="43.29291298318079" lon="11.37430462757772"><ele>190.0</ele><time>2026-04-19T09:42:43Z</time></trkpt><trkpt lat="43.293077450554335" lon="11.374306187273396"><ele>190.0</ele><time>2026-04-19T09:42:44Z</time></trkpt><trkpt lat="43.293226475492986" lon="11.374308722453272"><ele>190.0</ele><time>2026-04-19T09:42:45Z</time></trkpt><trkpt lat="43.2933665414382" lon="11.37430849443519"><ele>190.5</ele><time>2026-04-19T09:42:46Z</time></trkpt><trkpt lat="43.29351122209417" lon="11.374306287497047"><ele>191.0</ele><time>2026-04-19T09:42:47Z</time></trkpt><trkpt lat="43.293658377393974" lon="11.374303267699839"><ele>191.5</ele><time>2026-04-19T09:42:48Z</time></trkpt><trkpt lat="43.293809597436606" lon="11.374294935001135"><ele>192.0</ele><time>2026-04-19T09:42:49Z</time></trkpt><trkpt lat="43.29396701250626" lon="11.374263942757887"><ele>192.0</ele><time>2026-04-19T09:42:50Z</time></trkpt><trkpt lat="43.29412881494617" lon="11.374206032029344"><ele>192.0</ele><time>2026-04-19T09:42:51Z</time></trkpt><trkpt lat="43.29428969132991" lon="11.374133307919202"><ele>192.0</ele><time>2026-04-19T09:42:52Z</time></trkpt><trkpt lat="43.294437189101316" lon="11.374071781623128"><ele>192.0</ele><time>2026-04-19T09:42:53Z</time></trkpt><trkpt lat="43.29457672668529" lon="11.37401570854938"><ele>192.0</ele><time>2026-04-19T09:42:54Z</time></trkpt><trkpt lat="43.294719087310504" lon="11.373964529962183"><ele>192.0</ele><time>2026-04-19T09:42:55Z</time></trkpt><trkpt lat="43.294867805270556" lon="11.373916457142698"><ele>192.0</ele><time>2026-04-19T09:42:56Z</time></trkpt><trkpt lat="43.295019850922266" lon="11.373868876281046"><ele>194.0</ele><time>2026-04-19T09:42:57Z</time></trkpt><trkpt lat="43.29516815773422" lon="11.373825680340891"><ele>196.0</ele><time>2026-04-19T09:42:58Z</time></trkpt><trkpt lat="43.29532088623675" lon="11.37379447368371"><ele>198.0</ele><time>2026-04-19T09:42:59Z</time></trkpt><trkpt lat="43.29547436920632" lon="11.373771798181695"><ele>197.75</ele><time>2026-04-19T09:43:00Z</time></trkpt><trkpt lat="43.29562521987604" lon="11.373760023439566"><ele>197.5</ele><time>2026-04-19T09:43:01Z</time></trkpt><trkpt lat="43.295773530005015" lon="11.373766847290486"><ele>197.25</ele><time>2026-04-19T09:43:02Z</time></trkpt><trkpt lat="43.29592131823731" lon="11.373767957349516"><ele>197.0</ele><time>2026-04-19T09:43:03Z</time></trkpt><trkpt lat="43.296068656055475" lon="11.373809669262751"><ele>197.0</ele><time>2026-04-19T09:43:04Z</time></trkpt><trkpt lat="43.29621543000108" lon="11.37384447855895"><ele>197.0</ele><time>2026-04-19T09:43:05Z</time></trkpt><trkpt lat="43.29635812572167" lon="11.373882325219451"><ele>197.0</ele><time>2026-04-19T09:43:06Z</time></trkpt><trkpt lat="43.29650601007027" lon="11.373939049995343"><ele>197.0</ele><time>2026-04-19T09:43:07Z</time></trkpt><trkpt lat="43.296655759538524" lon="11.374013340122051"><ele>195.33333333333334</ele><time>2026-04-19T09:43:08Z</time></trkpt><trkpt lat="43.29680801285223" lon="11.37407853965498"><ele>193.66666666666669</ele><time>2026-04-19T09:43:09Z</time></trkpt><trkpt lat="43.29696201290932" lon="11.374148698620036"><ele>192.0</ele><time>2026-04-19T09:43:10Z</time></trkpt><trkpt lat="43.2971194713362" lon="11.374218984133288"><ele>193.33333333333331</ele><time>2026-04-19T09:43:11Z</time></trkpt><trkpt lat="43.29728034672339" lon="11.374283738591137"><ele>194.66666666666666</ele><time>2026-04-19T09:43:12Z</time></trkpt><trkpt lat="43.29744191874406" lon="11.374351515745396"><ele>196.0</ele><time>2026-04-19T09:43:12.999Z</time></trkpt><trkpt lat="43.29760118358154" lon="11.374425378440392"><ele>196.0</ele><time>2026-04-19T09:43:13.999Z</time></trkpt><trkpt lat="43.297756366119756" lon="11.374486571065844"><ele>196.0</ele><time>2026-04-19T09:43:14.999Z</time></trkpt><trkpt lat="43.2979017283204" lon="11.374548960960526"><ele>196.0</ele><time>2026-04-19T09:43:15.999Z</time></trkpt><trkpt lat="43.29803793193358" lon="11.374612959864368"><ele>196.25</ele><time>2026-04-19T09:43:16.999Z</time></trkpt><trkpt lat="43.29817516488921" lon="11.374678169674699"><ele>196.5</ele><time>2026-04-19T09:43:17.999Z</time></trkpt><trkpt lat="43.29831959412466" lon="11.374733504083459"><ele>196.75</ele><time>2026-04-19T09:43:18.999Z</time></trkpt><trkpt lat="43.29846562841886" lon="11.374775654091236"><ele>197.0</ele><time>2026-04-19T09:43:19.999Z</time></trkpt><trkpt lat="43.29860720063772" lon="11.374799715790953"><ele>196.25</ele><time>2026-04-19T09:43:20.999Z</time></trkpt><trkpt lat="43.29875314184703" lon="11.374808771928013"><ele>195.5</ele><time>2026-04-19T09:43:21.999Z</time></trkpt><trkpt lat="43.298896499130166" lon="11.37479477427928"><ele>194.75</ele><time>2026-04-19T09:43:22.999Z</time></trkpt><trkpt lat="43.29903739713003" lon="11.374755193562459"><ele>194.0</ele><time>2026-04-19T09:43:23.999Z</time></trkpt><trkpt lat="43.29917209211053" lon="11.37469737481282"><ele>195.0</ele><time>2026-04-19T09:43:24.999Z</time></trkpt><trkpt lat="43.299300613395026" lon="11.374621634876277"><ele>196.0</ele><time>2026-04-19T09:43:25.999Z</time></trkpt><trkpt lat="43.29942143595365" lon="11.37452918914201"><ele>197.0</ele><time>2026-04-19T09:43:26.999Z</time></trkpt><trkpt lat="43.29952215572172" lon="11.374421559737268"><ele>198.0</ele><time>2026-04-19T09:43:27.999Z</time></trkpt><trkpt lat="43.29961598228244" lon="11.374312376974618"><ele>198.0</ele><time>2026-04-19T09:43:28.999Z</time></trkpt><trkpt lat="43.29970996453842" lon="11.374187183429983"><ele>198.0</ele><time>2026-04-19T09:43:29.999Z</time></trkpt><trkpt lat="43.29979543759159" lon="11.37404604518438"><ele>198.0</ele><time>2026-04-19T09:43:30.999Z</time></trkpt><trkpt lat="43.29986911500576" lon="11.373889237952522"><ele>198.0</ele><time>2026-04-19T09:43:32Z</time></trkpt><trkpt lat="43.29993321512709" lon="11.373726388078936"><ele>198.0</ele><time>2026-04-19T09:43:33Z</time></trkpt><trkpt lat="43.30000203791273" lon="11.373561589841554"><ele>198.0</ele><time>2026-04-19T09:43:34Z</time></trkpt><trkpt lat="43.300068755389766" lon="11.373397687574577"><ele>198.0</ele><time>2026-04-19T09:43:35Z</time></trkpt><trkpt lat="43.30013571039639" lon="11.373223204878814"><ele>198.0</ele><time>2026-04-19T09:43:36Z</time></trkpt><trkpt lat="43.300199431917235" lon="11.373053808906972"><ele>199.5</ele><time>2026-04-19T09:43:37Z</time></trkpt><trkpt lat="43.300263969658154" lon="11.372889093055367"><ele>201.0</ele><time>2026-04-19T09:43:38Z</time></trkpt><trkpt lat="43.300338686905086" lon="11.372734784194392"><ele>202.5</ele><time>2026-04-19T09:43:39Z</time></trkpt><trkpt lat="43.3003975947416" lon="11.372581234372326"><ele>204.0</ele><time>2026-04-19T09:43:40Z</time></trkpt><trkpt lat="43.3004432573022" lon="11.372413577223096"><ele>204.0</ele><time>2026-04-19T09:43:41Z</time></trkpt><trkpt lat="43.300511288417546" lon="11.372255029484442"><ele>204.0</ele><time>2026-04-19T09:43:42Z</time></trkpt><trkpt lat="43.300574506919524" lon="11.37210501758113"><ele>204.0</ele><time>2026-04-19T09:43:43Z</time></trkpt><trkpt lat="43.30065971061796" lon="11.371970568207702"><ele>204.0</ele><time>2026-04-19T09:43:44Z</time></trkpt><trkpt lat="43.30073898806999" lon="11.371836413264534"><ele>203.39999999999998</ele><time>2026-04-19T09:43:45Z</time></trkpt><trkpt lat="43.300810676030714" lon="11.371702300357894"><ele>202.8</ele><time>2026-04-19T09:43:46Z</time></trkpt><trkpt lat="43.30089040775202" lon="11.371598690180432"><ele>202.2</ele><time>2026-04-19T09:43:47Z</time></trkpt><trkpt lat="43.30095845188051" lon="11.371520938992283"><ele>201.60000000000002</ele><time>2026-04-19T09:43:48Z</time></trkpt><trkpt lat="43.30101746486764" lon="11.371456563711304"><ele>201.0</ele><time>2026-04-19T09:43:49Z</time></trkpt><trkpt lat="43.301108479446576" lon="11.371374118150655"><ele>200.33333333333334</ele><time>2026-04-19T09:43:51Z</time></trkpt><trkpt lat="43.30119466417555" lon="11.371320147085397"><ele>199.66666666666669</ele><time>2026-04-19T09:43:53Z</time></trkpt><trkpt lat="43.30126854896297" lon="11.371301208748623"><ele>199.0</ele><time>2026-04-19T09:43:55Z</time></trkpt><trkpt lat="43.301347178723276" lon="11.371308131795615"><ele>198.33333333333334</ele><time>2026-04-19T09:43:58Z</time></trkpt><trkpt lat="43.30142763000872" lon="11.37137437060513"><ele>197.66666666666669</ele><time>2026-04-19T09:44:00Z</time></trkpt><trkpt lat="43.301468233935466" lon="11.371441849772147"><ele>197.0</ele><time>2026-04-19T09:44:01Z</time></trkpt><trkpt lat="43.30149731029333" lon="11.371529167180135"><ele>197.0</ele><time>2026-04-19T09:44:02Z</time></trkpt><trkpt lat="43.301498549228896" lon="11.371642865131722"><ele>197.0</ele><time>2026-04-19T09:44:03Z</time></trkpt><trkpt lat="43.30148442767256" lon="11.3717765799001"><ele>197.0</ele><time>2026-04-19T09:44:04Z</time></trkpt><trkpt lat="43.301462152949966" lon="11.371929834449967"><ele>197.0</ele><time>2026-04-19T09:44:05Z</time></trkpt><trkpt lat="43.30144051024476" lon="11.37208874855425"><ele>197.0</ele><time>2026-04-19T09:44:06Z</time></trkpt><trkpt lat="43.30141916396146" lon="11.372255815282667"><ele>196.75</ele><time>2026-04-19T09:44:07Z</time></trkpt><trkpt lat="43.301393153828876" lon="11.372423803222574"><ele>196.5</ele><time>2026-04-19T09:44:08Z</time></trkpt><trkpt lat="43.30137891183373" lon="11.372613440088362"><ele>196.25</ele><time>2026-04-19T09:44:09Z</time></trkpt><trkpt lat="43.30136195575931" lon="11.37281689359749"><ele>196.0</ele><time>2026-04-19T09:44:10Z</time></trkpt><trkpt lat="43.30134551231683" lon="11.373048819729412"><ele>196.0</ele><time>2026-04-19T09:44:11Z</time></trkpt><trkpt lat="43.30134587484192" lon="11.373292911503425"><ele>196.0</ele><time>2026-04-19T09:44:12Z</time></trkpt><trkpt lat="43.301350327430704" lon="11.373541133885176"><ele>196.0</ele><time>2026-04-19T09:44:13Z</time></trkpt><trkpt lat="43.30135290678882" lon="11.373790016204"><ele>195.33333333333331</ele><time>2026-04-19T09:44:14Z</time></trkpt><trkpt lat="43.301356276998554" lon="11.374037880394676"><ele>194.66666666666669</ele><time>2026-04-19T09:44:15Z</time></trkpt><trkpt lat="43.30136154636335" lon="11.374287926067582"><ele>194.0</ele><time>2026-04-19T09:44:16Z</time></trkpt><trkpt lat="43.30136559537342" lon="11.374523049377432"><ele>194.0</ele><time>2026-04-19T09:44:17Z</time></trkpt><trkpt lat="43.3013685613172" lon="11.374746400159767"><ele>194.0</ele><time>2026-04-19T09:44:18Z</time></trkpt><trkpt lat="43.301370037253534" lon="11.374972774298254"><ele>194.0</ele><time>2026-04-19T09:44:19Z</time></trkpt><trkpt lat="43.30137343560959" lon="11.375218310285609"><ele>194.0</ele><time>2026-04-19T09:44:20Z</time></trkpt><trkpt lat="43.30137733832908" lon="11.375471588454225"><ele>194.0</ele><time>2026-04-19T09:44:21Z</time></trkpt><trkpt lat="43.30138295003737" lon="11.37572649354671"><ele>194.0</ele><time>2026-04-19T09:44:22Z</time></trkpt><trkpt lat="43.301387730065855" lon="11.375974698636458"><ele>194.66666666666669</ele><time>2026-04-19T09:44:23Z</time></trkpt><trkpt lat="43.30139011995536" lon="11.376207612080949"><ele>195.33333333333331</ele><time>2026-04-19T09:44:24Z</time></trkpt><trkpt lat="43.30139262699512" lon="11.37643705171133"><ele>196.0</ele><time>2026-04-19T09:44:25Z</time></trkpt><trkpt lat="43.30139681097355" lon="11.376668112285465"><ele>195.66666666666666</ele><time>2026-04-19T09:44:26Z</time></trkpt><trkpt lat="43.30140062961374" lon="11.376898423062435"><ele>195.33333333333331</ele><time>2026-04-19T09:44:27Z</time></trkpt><trkpt lat="43.301405054254765" lon="11.377143526119461"><ele>195.0</ele><time>2026-04-19T09:44:28Z</time></trkpt><trkpt lat="43.3014084667176" lon="11.37737807395557"><ele>195.0</ele><time>2026-04-19T09:44:29Z</time></trkpt><trkpt lat="43.30140981372527" lon="11.377602626737946"><ele>195.0</ele><time>2026-04-19T09:44:30Z</time></trkpt><trkpt lat="43.30141254501733" lon="11.377820599555182"><ele>195.0</ele><time>2026-04-19T09:44:31Z</time></trkpt><trkpt lat="43.30141489089987" lon="11.378043783721083"><ele>195.25</ele><time>2026-04-19T09:44:32Z</time></trkpt><trkpt lat="43.301419728132515" lon="11.378248064340443"><ele>195.5</ele><time>2026-04-19T09:44:33Z</time></trkpt><trkpt lat="43.30142321271175" lon="11.378440608978325"><ele>195.75</ele><time>2026-04-19T09:44:34Z</time></trkpt><trkpt lat="43.30142271942989" lon="11.378627877548386"><ele>196.0</ele><time>2026-04-19T09:44:35Z</time></trkpt><trkpt lat="43.301421879263614" lon="11.378830310338216"><ele>195.66666666666666</ele><time>2026-04-19T09:44:36Z</time></trkpt><trkpt lat="43.30142564616911" lon="11.379028501384191"><ele>195.33333333333331</ele><time>2026-04-19T09:44:37Z</time></trkpt><trkpt lat="43.301430348074256" lon="11.379235291269104"><ele>195.0</ele><time>2026-04-19T09:44:38Z</time></trkpt><trkpt lat="43.301439045176394" lon="11.37948094503678"><ele>196.0</ele><time>2026-04-19T09:44:39Z</time></trkpt><trkpt lat="43.30144749272554" lon="11.37975908476086"><ele>197.0</ele><time>2026-04-19T09:44:40Z</time></trkpt><trkpt lat="43.3014556479561" lon="11.38001188786146"><ele>198.0</ele><time>2026-04-19T09:44:41Z</time></trkpt><trkpt lat="43.30146198657535" lon="11.380250288402259"><ele>198.0</ele><time>2026-04-19T09:44:42Z</time></trkpt><trkpt lat="43.30146803903495" lon="11.380474236270054"><ele>198.0</ele><time>2026-04-19T09:44:43Z</time></trkpt><trkpt lat="43.30147318729269" lon="11.380717169220407"><ele>198.0</ele><time>2026-04-19T09:44:44Z</time></trkpt><trkpt lat="43.30147661794677" lon="11.380963375354272"><ele>198.33333333333331</ele><time>2026-04-19T09:44:45Z</time></trkpt><trkpt lat="43.30147905002371" lon="11.381214782668629"><ele>198.66666666666666</ele><time>2026-04-19T09:44:46Z</time></trkpt><trkpt lat="43.30148137243691" lon="11.381455487281343"><ele>199.0</ele><time>2026-04-19T09:44:47Z</time></trkpt><trkpt lat="43.30147912889244" lon="11.381684820250939"><ele>199.0</ele><time>2026-04-19T09:44:48Z</time></trkpt><trkpt lat="43.3014679063891" lon="11.381920394905594"><ele>199.0</ele><time>2026-04-19T09:44:49Z</time></trkpt><trkpt lat="43.301446541408076" lon="11.382165136194946"><ele>199.0</ele><time>2026-04-19T09:44:50Z</time></trkpt><trkpt lat="43.30141536390016" lon="11.382394507880152"><ele>197.33333333333331</ele><time>2026-04-19T09:44:51Z</time></trkpt><trkpt lat="43.30136838750826" lon="11.382618240750245"><ele>195.66666666666669</ele><time>2026-04-19T09:44:52Z</time></trkpt><trkpt lat="43.30130830490869" lon="11.382848397812134"><ele>194.0</ele><time>2026-04-19T09:44:53Z</time></trkpt><trkpt lat="43.30123618172991" lon="11.383072408953572"><ele>192.66666666666669</ele><time>2026-04-19T09:44:54Z</time></trkpt><trkpt lat="43.30115397742112" lon="11.383294049882258"><ele>191.33333333333334</ele><time>2026-04-19T09:44:55Z</time></trkpt><trkpt lat="43.3010400788833" lon="11.383526661117592"><ele>190.0</ele><time>2026-04-19T09:44:56Z</time></trkpt><trkpt lat="43.300925565012356" lon="11.383755161271656"><ele>189.33333333333334</ele><time>2026-04-19T09:44:57Z</time></trkpt><trkpt lat="43.30079647744746" lon="11.383967889303404"><ele>188.66666666666666</ele><time>2026-04-19T09:44:58Z</time></trkpt><trkpt lat="43.30065990306116" lon="11.384174673582736"><ele>188.0</ele><time>2026-04-19T09:44:59Z</time></trkpt><trkpt lat="43.300524103588245" lon="11.38437753690813"><ele>188.0</ele><time>2026-04-19T09:45:00Z</time></trkpt><trkpt lat="43.30038325311158" lon="11.384583960236156"><ele>188.0</ele><time>2026-04-19T09:45:01Z</time></trkpt><trkpt lat="43.30024302040091" lon="11.384792591699252"><ele>188.0</ele><time>2026-04-19T09:45:02Z</time></trkpt><trkpt lat="43.300103940067764" lon="11.385002625971412"><ele>187.66666666666666</ele><time>2026-04-19T09:45:03Z</time></trkpt><trkpt lat="43.29996409891255" lon="11.385213816801992"><ele>187.33333333333334</ele><time>2026-04-19T09:45:04Z</time></trkpt><trkpt lat="43.29982443565324" lon="11.38542193629301"><ele>187.0</ele><time>2026-04-19T09:45:05Z</time></trkpt><trkpt lat="43.299683936014844" lon="11.385628638368733"><ele>185.66666666666669</ele><time>2026-04-19T09:45:06Z</time></trkpt><trkpt lat="43.29954324359441" lon="11.385837095890198"><ele>184.33333333333334</ele><time>2026-04-19T09:45:07Z</time></trkpt><trkpt lat="43.299405279312516" lon="11.386043427256748"><ele>183.0</ele><time>2026-04-19T09:45:08Z</time></trkpt><trkpt lat="43.29927004519326" lon="11.386250313837744"><ele>183.33333333333334</ele><time>2026-04-19T09:45:09Z</time></trkpt><trkpt lat="43.29913989250087" lon="11.386452661782606"><ele>183.66666666666669</ele><time>2026-04-19T09:45:10Z</time></trkpt><trkpt lat="43.29900115167497" lon="11.386661190964691"><ele>184.0</ele><time>2026-04-19T09:45:11Z</time></trkpt><trkpt lat="43.29885328023447" lon="11.386885542952566"><ele>184.0</ele><time>2026-04-19T09:45:12Z</time></trkpt><trkpt lat="43.298705071448445" lon="11.387111477320174"><ele>184.0</ele><time>2026-04-19T09:45:13Z</time></trkpt><trkpt lat="43.298546694813915" lon="11.38734705408497"><ele>186.0</ele><time>2026-04-19T09:45:14Z</time></trkpt><trkpt lat="43.29838832366481" lon="11.387589989753584"><ele>188.0</ele><time>2026-04-19T09:45:15Z</time></trkpt><trkpt lat="43.29822957750374" lon="11.387832689648562"><ele>192.0</ele><time>2026-04-19T09:45:16Z</time></trkpt><trkpt lat="43.29806972441057" lon="11.388066382966636"><ele>196.0</ele><time>2026-04-19T09:45:17Z</time></trkpt><trkpt lat="43.297914323119194" lon="11.388297758189744"><ele>196.0</ele><time>2026-04-19T09:45:18Z</time></trkpt><trkpt lat="43.29776180480812" lon="11.38852767631235"><ele>196.0</ele><time>2026-04-19T09:45:18.999Z</time></trkpt><trkpt lat="43.297606938743364" lon="11.388762318058804"><ele>198.5</ele><time>2026-04-19T09:45:19.999Z</time></trkpt><trkpt lat="43.2974510780215" lon="11.388992433000698"><ele>201.0</ele><time>2026-04-19T09:45:20.999Z</time></trkpt><trkpt lat="43.29729995565973" lon="11.389220605100812"><ele>202.0</ele><time>2026-04-19T09:45:21.999Z</time></trkpt><trkpt lat="43.29715215981204" lon="11.389444089877662"><ele>203.0</ele><time>2026-04-19T09:45:22.999Z</time></trkpt><trkpt lat="43.29700456562035" lon="11.389663836367824"><ele>204.0</ele><time>2026-04-19T09:45:23.999Z</time></trkpt><trkpt lat="43.296865164495365" lon="11.389889780342655"><ele>204.5</ele><time>2026-04-19T09:45:24.999Z</time></trkpt><trkpt lat="43.2967198708433" lon="11.390122701356683"><ele>205.0</ele><time>2026-04-19T09:45:25.999Z</time></trkpt><trkpt lat="43.296566779167165" lon="11.390370075921716"><ele>202.5</ele><time>2026-04-19T09:45:26.999Z</time></trkpt><trkpt lat="43.29641431994264" lon="11.39062370557416"><ele>200.0</ele><time>2026-04-19T09:45:27.999Z</time></trkpt><trkpt lat="43.29626871526417" lon="11.390886248523644"><ele>200.0</ele><time>2026-04-19T09:45:28.999Z</time></trkpt><trkpt lat="43.296139121963925" lon="11.391152560912197"><ele>200.0</ele><time>2026-04-19T09:45:30Z</time></trkpt><trkpt lat="43.29603136306483" lon="11.391429676112814"><ele>197.5</ele><time>2026-04-19T09:45:30.999Z</time></trkpt><trkpt lat="43.295937131508495" lon="11.39171759338831"><ele>195.0</ele><time>2026-04-19T09:45:31.999Z</time></trkpt><trkpt lat="43.29585664871642" lon="11.392017615108637"><ele>195.0</ele><time>2026-04-19T09:45:33Z</time></trkpt><trkpt lat="43.29579024181888" lon="11.392327142487714"><ele>195.0</ele><time>2026-04-19T09:45:34Z</time></trkpt><trkpt lat="43.29574178634661" lon="11.392639975889544"><ele>195.0</ele><time>2026-04-19T09:45:35Z</time></trkpt><trkpt lat="43.29570930868399" lon="11.392957868766198"><ele>195.0</ele><time>2026-04-19T09:45:36Z</time></trkpt><trkpt lat="43.29569033228771" lon="11.393282024068927"><ele>195.0</ele><time>2026-04-19T09:45:37Z</time></trkpt><trkpt lat="43.29568138740467" lon="11.393624281858283"><ele>195.0</ele><time>2026-04-19T09:45:38Z</time></trkpt><trkpt lat="43.29566928669528" lon="11.3939677305784"><ele>195.0</ele><time>2026-04-19T09:45:39Z</time></trkpt><trkpt lat="43.29565787463781" lon="11.394321857930912"><ele>195.0</ele><time>2026-04-19T09:45:40Z</time></trkpt><trkpt lat="43.2956453246868" lon="11.39467663026599"><ele>195.0</ele><time>2026-04-19T09:45:41Z</time></trkpt><trkpt lat="43.295634742148245" lon="11.395034524697252"><ele>195.0</ele><time>2026-04-19T09:45:42Z</time></trkpt><trkpt lat="43.29563021206787" lon="11.395381812618067"><ele>196.5</ele><time>2026-04-19T09:45:43Z</time></trkpt><trkpt lat="43.29563027954844" lon="11.395722284939598"><ele>198.0</ele><time>2026-04-19T09:45:44Z</time></trkpt><trkpt lat="43.29563844860299" lon="11.396062352283762"><ele>199.5</ele><time>2026-04-19T09:45:45Z</time></trkpt><trkpt lat="43.29565760020483" lon="11.39640920144688"><ele>201.0</ele><time>2026-04-19T09:45:46Z</time></trkpt><trkpt lat="43.29569168574221" lon="11.396750224830306"><ele>201.0</ele><time>2026-04-19T09:45:47Z</time></trkpt><trkpt lat="43.29574586076913" lon="11.397080996102101"><ele>201.0</ele><time>2026-04-19T09:45:48Z</time></trkpt><trkpt lat="43.295816436754635" lon="11.39739853727919"><ele>199.0</ele><time>2026-04-19T09:45:49Z</time></trkpt><trkpt lat="43.29590237497775" lon="11.39770624031899"><ele>197.0</ele><time>2026-04-19T09:45:50Z</time></trkpt><trkpt lat="43.29599836108634" lon="11.398014737111126"><ele>195.0</ele><time>2026-04-19T09:45:51Z</time></trkpt><trkpt lat="43.29608728906027" lon="11.3982987187074"><ele>193.0</ele><time>2026-04-19T09:45:52Z</time></trkpt><trkpt lat="43.29620969683485" lon="11.39857971357497"><ele>192.5</ele><time>2026-04-19T09:45:53Z</time></trkpt><trkpt lat="43.29635359427235" lon="11.398860786395739"><ele>192.0</ele><time>2026-04-19T09:45:54Z</time></trkpt><trkpt lat="43.29650585126583" lon="11.399130285829255"><ele>195.0</ele><time>2026-04-19T09:45:55Z</time></trkpt><trkpt lat="43.29666475091815" lon="11.399389195344718"><ele>198.0</ele><time>2026-04-19T09:45:56Z</time></trkpt><trkpt lat="43.29683033784293" lon="11.399637806584469"><ele>197.5</ele><time>2026-04-19T09:45:57Z</time></trkpt><trkpt lat="43.296994368210584" lon="11.399892157933133"><ele>197.0</ele><time>2026-04-19T09:45:58Z</time></trkpt><trkpt lat="43.297177557286496" lon="11.40009804116935"><ele>196.0</ele><time>2026-04-19T09:45:59Z</time></trkpt><trkpt lat="43.29732441103104" lon="11.400371646697298"><ele>195.0</ele><time>2026-04-19T09:46:00Z</time></trkpt><trkpt lat="43.29748414794419" lon="11.400631557023901"><ele>192.5</ele><time>2026-04-19T09:46:01Z</time></trkpt><trkpt lat="43.297650941693874" lon="11.400898761554794"><ele>190.0</ele><time>2026-04-19T09:46:02Z</time></trkpt><trkpt lat="43.29781344400105" lon="11.401151758968952"><ele>190.5</ele><time>2026-04-19T09:46:03Z</time></trkpt><trkpt lat="43.2979640316877" lon="11.401395467115877"><ele>191.0</ele><time>2026-04-19T09:46:04Z</time></trkpt><trkpt lat="43.298109653390085" lon="11.401628738658088"><ele>191.0</ele><time>2026-04-19T09:46:05Z</time></trkpt><trkpt lat="43.298257912119034" lon="11.40186517235836"><ele>191.0</ele><time>2026-04-19T09:46:06Z</time></trkpt><trkpt lat="43.29840773235957" lon="11.402101234606677"><ele>187.5</ele><time>2026-04-19T09:46:07Z</time></trkpt><trkpt lat="43.29856395603949" lon="11.402344847590948"><ele>184.0</ele><time>2026-04-19T09:46:08Z</time></trkpt><trkpt lat="43.29871742400561" lon="11.402592771134566"><ele>184.0</ele><time>2026-04-19T09:46:09Z</time></trkpt><trkpt lat="43.298874920174406" lon="11.402837408094742"><ele>184.0</ele><time>2026-04-19T09:46:10Z</time></trkpt><trkpt lat="43.2990313087177" lon="11.403081960316955"><ele>183.5</ele><time>2026-04-19T09:46:11Z</time></trkpt><trkpt lat="43.29918612965613" lon="11.40333002506446"><ele>183.0</ele><time>2026-04-19T09:46:12Z</time></trkpt><trkpt lat="43.299343418310634" lon="11.40356959751473"><ele>183.0</ele><time>2026-04-19T09:46:13Z</time></trkpt><trkpt lat="43.29950201264398" lon="11.403810218761892"><ele>183.0</ele><time>2026-04-19T09:46:14Z</time></trkpt><trkpt lat="43.29966095256835" lon="11.404058179385334"><ele>183.5</ele><time>2026-04-19T09:46:15Z</time></trkpt><trkpt lat="43.29982226857558" lon="11.40431594430103"><ele>184.0</ele><time>2026-04-19T09:46:16Z</time></trkpt><trkpt lat="43.29998167780526" lon="11.404565047596137"><ele>182.5</ele><time>2026-04-19T09:46:17Z</time></trkpt><trkpt lat="43.30013879921254" lon="11.404812251245861"><ele>181.0</ele><time>2026-04-19T09:46:18Z</time></trkpt><trkpt lat="43.30029993905301" lon="11.405065165983558"><ele>181.0</ele><time>2026-04-19T09:46:19Z</time></trkpt><trkpt lat="43.300453808417004" lon="11.405303832120174"><ele>181.0</ele><time>2026-04-19T09:46:20Z</time></trkpt><trkpt lat="43.30060650084171" lon="11.405543064756658"><ele>183.0</ele><time>2026-04-19T09:46:21Z</time></trkpt><trkpt lat="43.3007593919168" lon="11.40578736810385"><ele>185.0</ele><time>2026-04-19T09:46:22Z</time></trkpt><trkpt lat="43.300907493190635" lon="11.40604270405488"><ele>185.0</ele><time>2026-04-19T09:46:23Z</time></trkpt><trkpt lat="43.30105063075753" lon="11.406296042842333"><ele>185.0</ele><time>2026-04-19T09:46:24Z</time></trkpt><trkpt lat="43.30118632594917" lon="11.406560082840835"><ele>184.5</ele><time>2026-04-19T09:46:25Z</time></trkpt><trkpt lat="43.30131775608803" lon="11.406830224397654"><ele>184.0</ele><time>2026-04-19T09:46:26Z</time></trkpt><trkpt lat="43.3014434340571" lon="11.407107898433658"><ele>183.5</ele><time>2026-04-19T09:46:27Z</time></trkpt><trkpt lat="43.30156263721633" lon="11.407396966236904"><ele>183.0</ele><time>2026-04-19T09:46:28Z</time></trkpt><trkpt lat="43.30167919924075" lon="11.407695242371986"><ele>182.5</ele><time>2026-04-19T09:46:29Z</time></trkpt><trkpt lat="43.30178682808211" lon="11.407997616678792"><ele>182.0</ele><time>2026-04-19T09:46:30Z</time></trkpt><trkpt lat="43.30188416387389" lon="11.408297310798687"><ele>182.0</ele><time>2026-04-19T09:46:31Z</time></trkpt><trkpt lat="43.3019749544504" lon="11.408604542096526"><ele>182.0</ele><time>2026-04-19T09:46:32Z</time></trkpt><trkpt lat="43.302063353306" lon="11.40891202739486"><ele>182.0</ele><time>2026-04-19T09:46:33Z</time></trkpt><trkpt lat="43.30214989224018" lon="11.409216293818632"><ele>182.0</ele><time>2026-04-19T09:46:34Z</time></trkpt><trkpt lat="43.30223376113201" lon="11.40952789551768"><ele>182.5</ele><time>2026-04-19T09:46:35Z</time></trkpt><trkpt lat="43.302320530516766" lon="11.409831130651595"><ele>183.0</ele><time>2026-04-19T09:46:36Z</time></trkpt><trkpt lat="43.30240770612021" lon="11.410137456749293"><ele>183.0</ele><time>2026-04-19T09:46:37Z</time></trkpt><trkpt lat="43.30249088805261" lon="11.410440773956172"><ele>183.0</ele><time>2026-04-19T09:46:38Z</time></trkpt><trkpt lat="43.30257701653045" lon="11.410746461346367"><ele>183.0</ele><time>2026-04-19T09:46:39Z</time></trkpt><trkpt lat="43.30266497908442" lon="11.411051199559193"><ele>183.0</ele><time>2026-04-19T09:46:40Z</time></trkpt><trkpt lat="43.30274264375504" lon="11.411353452513755"><ele>182.5</ele><time>2026-04-19T09:46:41Z</time></trkpt><trkpt lat="43.302827574525246" lon="11.41165854083323"><ele>182.0</ele><time>2026-04-19T09:46:42Z</time></trkpt><trkpt lat="43.302914231728195" lon="11.411966944422778"><ele>181.5</ele><time>2026-04-19T09:46:43Z</time></trkpt><trkpt lat="43.30299632092731" lon="11.412270427760678"><ele>181.0</ele><time>2026-04-19T09:46:44Z</time></trkpt><trkpt lat="43.303083645822376" lon="11.41257351034037"><ele>182.5</ele><time>2026-04-19T09:46:45Z</time></trkpt><trkpt lat="43.30316723926363" lon="11.412875426403486"><ele>184.0</ele><time>2026-04-19T09:46:46Z</time></trkpt><trkpt lat="43.303252414938" lon="11.41317813649118"><ele>185.0</ele><time>2026-04-19T09:46:47Z</time></trkpt><trkpt lat="43.303336287212495" lon="11.413474554766658"><ele>186.0</ele><time>2026-04-19T09:46:48Z</time></trkpt><trkpt lat="43.3034152076405" lon="11.413767278096737"><ele>185.5</ele><time>2026-04-19T09:46:49Z</time></trkpt><trkpt lat="43.30349649048506" lon="11.414062443274917"><ele>185.0</ele><time>2026-04-19T09:46:50Z</time></trkpt><trkpt lat="43.30357714093619" lon="11.414353145560483"><ele>185.0</ele><time>2026-04-19T09:46:51Z</time></trkpt><trkpt lat="43.303663122381394" lon="11.414652204185094"><ele>185.0</ele><time>2026-04-19T09:46:52Z</time></trkpt><trkpt lat="43.30374028844971" lon="11.41494787001753"><ele>185.0</ele><time>2026-04-19T09:46:53Z</time></trkpt><trkpt lat="43.30382513838904" lon="11.415245287657097"><ele>185.0</ele><time>2026-04-19T09:46:54Z</time></trkpt><trkpt lat="43.30390690365253" lon="11.415540917771741"><ele>185.0</ele><time>2026-04-19T09:46:55Z</time></trkpt><trkpt lat="43.30399385604455" lon="11.415841534007457"><ele>185.0</ele><time>2026-04-19T09:46:56Z</time></trkpt><trkpt lat="43.30407623722311" lon="11.416147424688466"><ele>185.0</ele><time>2026-04-19T09:46:57Z</time></trkpt><trkpt lat="43.304162780417144" lon="11.416454309830096"><ele>185.0</ele><time>2026-04-19T09:46:58Z</time></trkpt><trkpt lat="43.30424410319782" lon="11.416750214326049"><ele>185.0</ele><time>2026-04-19T09:46:59Z</time></trkpt><trkpt lat="43.304317390981176" lon="11.417039512485022"><ele>185.0</ele><time>2026-04-19T09:47:00Z</time></trkpt><trkpt lat="43.30439025871371" lon="11.41730326569501"><ele>185.0</ele><time>2026-04-19T09:47:01Z</time></trkpt><trkpt lat="43.304456382920094" lon="11.417555035037616"><ele>185.0</ele><time>2026-04-19T09:47:02Z</time></trkpt><trkpt lat="43.30451773608423" lon="11.417801845531537"><ele>185.0</ele><time>2026-04-19T09:47:03Z</time></trkpt><trkpt lat="43.304577563163726" lon="11.418067146569728"><ele>185.0</ele><time>2026-04-19T09:47:04Z</time></trkpt><trkpt lat="43.30463726579298" lon="11.418354403498054"><ele>185.5</ele><time>2026-04-19T09:47:05Z</time></trkpt><trkpt lat="43.30469744702344" lon="11.418662732378575"><ele>186.0</ele><time>2026-04-19T09:47:06Z</time></trkpt><trkpt lat="43.3047640547957" lon="11.418977544571122"><ele>186.0</ele><time>2026-04-19T09:47:07Z</time></trkpt><trkpt lat="43.30481955417569" lon="11.419308857416118"><ele>186.0</ele><time>2026-04-19T09:47:08Z</time></trkpt><trkpt lat="43.3048584318312" lon="11.419654991200096"><ele>187.0</ele><time>2026-04-19T09:47:09Z</time></trkpt><trkpt lat="43.30488077715998" lon="11.420013159720462"><ele>188.0</ele><time>2026-04-19T09:47:10Z</time></trkpt><trkpt lat="43.304896265818144" lon="11.42037543405681"><ele>187.5</ele><time>2026-04-19T09:47:11Z</time></trkpt><trkpt lat="43.30491362401233" lon="11.420731121200921"><ele>187.0</ele><time>2026-04-19T09:47:12Z</time></trkpt><trkpt lat="43.304936448812526" lon="11.421069132888507"><ele>187.0</ele><time>2026-04-19T09:47:13Z</time></trkpt><trkpt lat="43.30496073468816" lon="11.421392533861985"><ele>187.0</ele><time>2026-04-19T09:47:14Z</time></trkpt><trkpt lat="43.30498535676263" lon="11.421721696050584"><ele>187.0</ele><time>2026-04-19T09:47:15Z</time></trkpt><trkpt lat="43.3050115472315" lon="11.422052388801658"><ele>187.0</ele><time>2026-04-19T09:47:16Z</time></trkpt><trkpt lat="43.30503824041369" lon="11.42237850137022"><ele>188.0</ele><time>2026-04-19T09:47:17Z</time></trkpt><trkpt lat="43.30506365182084" lon="11.42270123672683"><ele>189.0</ele><time>2026-04-19T09:47:18.001Z</time></trkpt><trkpt lat="43.30508800924757" lon="11.423027580992816"><ele>189.5</ele><time>2026-04-19T09:47:19.001Z</time></trkpt><trkpt lat="43.30511304651637" lon="11.423353773246607"><ele>190.0</ele><time>2026-04-19T09:47:20.001Z</time></trkpt><trkpt lat="43.305139431133284" lon="11.423678862018614"><ele>190.5</ele><time>2026-04-19T09:47:21.001Z</time></trkpt><trkpt lat="43.305162006016936" lon="11.424004131516153"><ele>191.0</ele><time>2026-04-19T09:47:22.001Z</time></trkpt><trkpt lat="43.30518453778758" lon="11.42432757345318"><ele>191.0</ele><time>2026-04-19T09:47:23.001Z</time></trkpt><trkpt lat="43.305208416879594" lon="11.424654966890865"><ele>191.0</ele><time>2026-04-19T09:47:24.001Z</time></trkpt><trkpt lat="43.30523182316867" lon="11.424980944187746"><ele>191.0</ele><time>2026-04-19T09:47:25Z</time></trkpt><trkpt lat="43.3052587930349" lon="11.425311352830139"><ele>191.0</ele><time>2026-04-19T09:47:26Z</time></trkpt><trkpt lat="43.30528560214535" lon="11.425635287564385"><ele>193.0</ele><time>2026-04-19T09:47:27Z</time></trkpt><trkpt lat="43.30531246702965" lon="11.425964048834501"><ele>195.0</ele><time>2026-04-19T09:47:28Z</time></trkpt><trkpt lat="43.30533837069018" lon="11.426296561949028"><ele>197.5</ele><time>2026-04-19T09:47:29Z</time></trkpt><trkpt lat="43.30536617046935" lon="11.426624418947025"><ele>200.0</ele><time>2026-04-19T09:47:30Z</time></trkpt><trkpt lat="43.3053906410933" lon="11.426957939213871"><ele>200.5</ele><time>2026-04-19T09:47:31Z</time></trkpt><trkpt lat="43.3054155493764" lon="11.427292109934553"><ele>201.0</ele><time>2026-04-19T09:47:32Z</time></trkpt><trkpt lat="43.305443982951736" lon="11.427631417111874"><ele>201.0</ele><time>2026-04-19T09:47:33Z</time></trkpt><trkpt lat="43.30547049147218" lon="11.42796950292325"><ele>201.0</ele><time>2026-04-19T09:47:34Z</time></trkpt><trkpt lat="43.3054937136859" lon="11.428306935121046"><ele>200.0</ele><time>2026-04-19T09:47:35Z</time></trkpt><trkpt lat="43.30551588924165" lon="11.428654406747633"><ele>199.0</ele><time>2026-04-19T09:47:36Z</time></trkpt><trkpt lat="43.30554482635976" lon="11.428998224433618"><ele>198.0</ele><time>2026-04-19T09:47:37Z</time></trkpt><trkpt lat="43.305568349171196" lon="11.429341030569859"><ele>197.0</ele><time>2026-04-19T09:47:38Z</time></trkpt><trkpt lat="43.3055930384629" lon="11.429674685077206"><ele>200.0</ele><time>2026-04-19T09:47:39Z</time></trkpt><trkpt lat="43.30561643089558" lon="11.430010510846111"><ele>203.0</ele><time>2026-04-19T09:47:40Z</time></trkpt><trkpt lat="43.30564047105642" lon="11.430347905192216"><ele>204.0</ele><time>2026-04-19T09:47:41Z</time></trkpt><trkpt lat="43.30566391823069" lon="11.43068775597605"><ele>205.0</ele><time>2026-04-19T09:47:42Z</time></trkpt><trkpt lat="43.305690591837894" lon="11.431032282864836"><ele>205.5</ele><time>2026-04-19T09:47:43Z</time></trkpt><trkpt lat="43.305717827202734" lon="11.431375549776508"><ele>206.0</ele><time>2026-04-19T09:47:44Z</time></trkpt><trkpt lat="43.30574843863838" lon="11.431718166932189"><ele>206.0</ele><time>2026-04-19T09:47:45Z</time></trkpt><trkpt lat="43.30577544017567" lon="11.432068807276783"><ele>206.0</ele><time>2026-04-19T09:47:46Z</time></trkpt><trkpt lat="43.305800111604185" lon="11.432409915569474"><ele>203.5</ele><time>2026-04-19T09:47:47Z</time></trkpt><trkpt lat="43.305828204146074" lon="11.432748131611085"><ele>201.0</ele><time>2026-04-19T09:47:48Z</time></trkpt><trkpt lat="43.30585431391181" lon="11.4330894218375"><ele>199.5</ele><time>2026-04-19T09:47:49Z</time></trkpt><trkpt lat="43.305875530621705" lon="11.433433616017952"><ele>198.0</ele><time>2026-04-19T09:47:50Z</time></trkpt><trkpt lat="43.305900686442385" lon="11.433773233374044"><ele>197.0</ele><time>2026-04-19T09:47:51Z</time></trkpt><trkpt lat="43.30592865658146" lon="11.434114513569023"><ele>196.0</ele><time>2026-04-19T09:47:52Z</time></trkpt><trkpt lat="43.305957361256084" lon="11.434452194694842"><ele>195.0</ele><time>2026-04-19T09:47:53Z</time></trkpt><trkpt lat="43.305983694662714" lon="11.434787712314298"><ele>194.0</ele><time>2026-04-19T09:47:54Z</time></trkpt><trkpt lat="43.30601096997561" lon="11.435129103028345"><ele>194.0</ele><time>2026-04-19T09:47:55Z</time></trkpt><trkpt lat="43.30603734562724" lon="11.435463772268937"><ele>194.0</ele><time>2026-04-19T09:47:56Z</time></trkpt><trkpt lat="43.30606517979153" lon="11.435798694001857"><ele>193.0</ele><time>2026-04-19T09:47:57Z</time></trkpt><trkpt lat="43.30609492130771" lon="11.436142899415765"><ele>192.0</ele><time>2026-04-19T09:47:58Z</time></trkpt><trkpt lat="43.30612798962784" lon="11.436495702324814"><ele>192.0</ele><time>2026-04-19T09:47:59Z</time></trkpt><trkpt lat="43.30616625675993" lon="11.43684662237408"><ele>192.0</ele><time>2026-04-19T09:48:00Z</time></trkpt><trkpt lat="43.306195899445086" lon="11.437196091363464"><ele>191.5</ele><time>2026-04-19T09:48:01Z</time></trkpt><trkpt lat="43.30622283257452" lon="11.437538724580548"><ele>191.0</ele><time>2026-04-19T09:48:02Z</time></trkpt><trkpt lat="43.306251142476306" lon="11.437874731742816"><ele>190.5</ele><time>2026-04-19T09:48:03Z</time></trkpt><trkpt lat="43.30628005539824" lon="11.438215767883456"><ele>190.0</ele><time>2026-04-19T09:48:04Z</time></trkpt><trkpt lat="43.30630718666087" lon="11.438557545352317"><ele>189.5</ele><time>2026-04-19T09:48:05Z</time></trkpt><trkpt lat="43.30633388063613" lon="11.438896310372256"><ele>189.0</ele><time>2026-04-19T09:48:06Z</time></trkpt><trkpt lat="43.30635614437082" lon="11.439232596602624"><ele>189.0</ele><time>2026-04-19T09:48:07Z</time></trkpt><trkpt lat="43.306379545451705" lon="11.439572603817917"><ele>189.0</ele><time>2026-04-19T09:48:08Z</time></trkpt><trkpt lat="43.30639654633724" lon="11.43991256518053"><ele>190.5</ele><time>2026-04-19T09:48:09Z</time></trkpt><trkpt lat="43.306413105025314" lon="11.440246875595538"><ele>192.0</ele><time>2026-04-19T09:48:10Z</time></trkpt><trkpt lat="43.30643162209333" lon="11.440575084399212"><ele>192.5</ele><time>2026-04-19T09:48:11Z</time></trkpt><trkpt lat="43.30645264332235" lon="11.440902729875404"><ele>193.0</ele><time>2026-04-19T09:48:12Z</time></trkpt><trkpt lat="43.30647662565308" lon="11.4412265175904"><ele>195.0</ele><time>2026-04-19T09:48:13Z</time></trkpt><trkpt lat="43.30650340009123" lon="11.441545467070991"><ele>197.0</ele><time>2026-04-19T09:48:14Z</time></trkpt><trkpt lat="43.30652770402552" lon="11.441862998275337"><ele>197.5</ele><time>2026-04-19T09:48:15Z</time></trkpt><trkpt lat="43.30655161693247" lon="11.442182347184405"><ele>198.0</ele><time>2026-04-19T09:48:16Z</time></trkpt><trkpt lat="43.306575113516324" lon="11.442506676932824"><ele>198.0</ele><time>2026-04-19T09:48:17Z</time></trkpt><trkpt lat="43.30659857299362" lon="11.442836291684856"><ele>198.0</ele><time>2026-04-19T09:48:18Z</time></trkpt><trkpt lat="43.3066211893948" lon="11.443171165858804"><ele>197.0</ele><time>2026-04-19T09:48:19Z</time></trkpt><trkpt lat="43.30664613324347" lon="11.44350453981925"><ele>196.0</ele><time>2026-04-19T09:48:20Z</time></trkpt><trkpt lat="43.30667451162742" lon="11.443836934159348"><ele>196.0</ele><time>2026-04-19T09:48:21Z</time></trkpt><trkpt lat="43.30670269566161" lon="11.444169312313631"><ele>196.0</ele><time>2026-04-19T09:48:22Z</time></trkpt><trkpt lat="43.30673097090954" lon="11.444499196426706"><ele>195.5</ele><time>2026-04-19T09:48:23Z</time></trkpt><trkpt lat="43.30675819471588" lon="11.444824663267607"><ele>195.0</ele><time>2026-04-19T09:48:24Z</time></trkpt><trkpt lat="43.30678405248579" lon="11.4451456760241"><ele>195.0</ele><time>2026-04-19T09:48:25Z</time></trkpt><trkpt lat="43.30680930088826" lon="11.445467670380241"><ele>195.0</ele><time>2026-04-19T09:48:26Z</time></trkpt><trkpt lat="43.306832028927076" lon="11.44578708962386"><ele>195.0</ele><time>2026-04-19T09:48:27Z</time></trkpt><trkpt lat="43.30685657395388" lon="11.446111740588682"><ele>195.0</ele><time>2026-04-19T09:48:28Z</time></trkpt><trkpt lat="43.30688062308307" lon="11.446441638562488"><ele>195.0</ele><time>2026-04-19T09:48:29Z</time></trkpt><trkpt lat="43.30690522749256" lon="11.446774017598651"><ele>195.0</ele><time>2026-04-19T09:48:30Z</time></trkpt><trkpt lat="43.30693305718724" lon="11.447105993118631"><ele>194.5</ele><time>2026-04-19T09:48:31Z</time></trkpt><trkpt lat="43.306963270048804" lon="11.447440714552474"><ele>194.0</ele><time>2026-04-19T09:48:32Z</time></trkpt><trkpt lat="43.306988986221235" lon="11.447772328935082"><ele>194.0</ele><time>2026-04-19T09:48:33Z</time></trkpt><trkpt lat="43.30701007985556" lon="11.448103377987955"><ele>194.0</ele><time>2026-04-19T09:48:34Z</time></trkpt><trkpt lat="43.30703273499064" lon="11.448428106829162"><ele>194.0</ele><time>2026-04-19T09:48:35Z</time></trkpt><trkpt lat="43.307058298123614" lon="11.448749186092176"><ele>194.0</ele><time>2026-04-19T09:48:36Z</time></trkpt><trkpt lat="43.307087916205596" lon="11.44907647761094"><ele>194.0</ele><time>2026-04-19T09:48:37Z</time></trkpt><trkpt lat="43.307120166662706" lon="11.449417882485887"><ele>194.0</ele><time>2026-04-19T09:48:38Z</time></trkpt><trkpt lat="43.307149697078366" lon="11.449772132295923"><ele>194.0</ele><time>2026-04-19T09:48:39Z</time></trkpt><trkpt lat="43.307181253176516" lon="11.450137254153166"><ele>194.0</ele><time>2026-04-19T09:48:40Z</time></trkpt><trkpt lat="43.30721433455548" lon="11.450509240455522"><ele>193.5</ele><time>2026-04-19T09:48:41Z</time></trkpt><trkpt lat="43.30723937654433" lon="11.45085022498614"><ele>193.0</ele><time>2026-04-19T09:48:42Z</time></trkpt><trkpt lat="43.30726618203143" lon="11.451184769698202"><ele>195.5</ele><time>2026-04-19T09:48:43Z</time></trkpt><trkpt lat="43.307295264497775" lon="11.451533130866391"><ele>198.0</ele><time>2026-04-19T09:48:44Z</time></trkpt><trkpt lat="43.30732480992336" lon="11.45187605777561"><ele>197.5</ele><time>2026-04-19T09:48:45Z</time></trkpt><trkpt lat="43.30735329100477" lon="11.45223308330129"><ele>197.0</ele><time>2026-04-19T09:48:46Z</time></trkpt><trkpt lat="43.307380281775025" lon="11.45258375406198"><ele>197.0</ele><time>2026-04-19T09:48:47Z</time></trkpt><trkpt lat="43.307407303256724" lon="11.452935982104181"><ele>197.0</ele><time>2026-04-19T09:48:48Z</time></trkpt><trkpt lat="43.307434784507514" lon="11.453281762527126"><ele>197.0</ele><time>2026-04-19T09:48:49Z</time></trkpt><trkpt lat="43.30745636944709" lon="11.453624276717955"><ele>197.0</ele><time>2026-04-19T09:48:50Z</time></trkpt><trkpt lat="43.30748286691443" lon="11.453973218908972"><ele>196.5</ele><time>2026-04-19T09:48:51Z</time></trkpt><trkpt lat="43.307506385777195" lon="11.454319584460004"><ele>196.0</ele><time>2026-04-19T09:48:52Z</time></trkpt><trkpt lat="43.30752932745749" lon="11.454665112337912"><ele>196.0</ele><time>2026-04-19T09:48:53Z</time></trkpt><trkpt lat="43.30755261595449" lon="11.455004495215734"><ele>196.0</ele><time>2026-04-19T09:48:54Z</time></trkpt><trkpt lat="43.30758068171122" lon="11.455337668034316"><ele>195.5</ele><time>2026-04-19T09:48:55Z</time></trkpt><trkpt lat="43.30761039025133" lon="11.455671233991088"><ele>195.0</ele><time>2026-04-19T09:48:56Z</time></trkpt><trkpt lat="43.30764372921051" lon="11.456004571913539"><ele>195.0</ele><time>2026-04-19T09:48:57Z</time></trkpt><trkpt lat="43.30768415419158" lon="11.456343172119114"><ele>195.0</ele><time>2026-04-19T09:48:58Z</time></trkpt><trkpt lat="43.3077326253461" lon="11.456670870317758"><ele>195.0</ele><time>2026-04-19T09:48:59Z</time></trkpt><trkpt lat="43.30778038812299" lon="11.456996497471495"><ele>195.0</ele><time>2026-04-19T09:49:00Z</time></trkpt><trkpt lat="43.30782779756037" lon="11.45733052381884"><ele>195.0</ele><time>2026-04-19T09:49:01Z</time></trkpt><trkpt lat="43.307878684897275" lon="11.457655275299672"><ele>195.0</ele><time>2026-04-19T09:49:02Z</time></trkpt><trkpt lat="43.30792848241124" lon="11.45797487019181"><ele>195.0</ele><time>2026-04-19T09:49:03Z</time></trkpt><trkpt lat="43.307978496008246" lon="11.458300088559277"><ele>195.0</ele><time>2026-04-19T09:49:04Z</time></trkpt><trkpt lat="43.30802757215621" lon="11.458625995314494"><ele>195.0</ele><time>2026-04-19T09:49:05Z</time></trkpt><trkpt lat="43.308075783438106" lon="11.4589505443769"><ele>195.0</ele><time>2026-04-19T09:49:06Z</time></trkpt><trkpt lat="43.308128011018994" lon="11.459282795622203"><ele>195.0</ele><time>2026-04-19T09:49:07Z</time></trkpt><trkpt lat="43.30817858772207" lon="11.459616241018868"><ele>195.0</ele><time>2026-04-19T09:49:08Z</time></trkpt><trkpt lat="43.308229410967186" lon="11.45994538337119"><ele>195.0</ele><time>2026-04-19T09:49:09Z</time></trkpt><trkpt lat="43.30827969034047" lon="11.460270805670206"><ele>195.0</ele><time>2026-04-19T09:49:10Z</time></trkpt><trkpt lat="43.3083320920974" lon="11.46059629719542"><ele>195.5</ele><time>2026-04-19T09:49:11Z</time></trkpt><trkpt lat="43.30838136898457" lon="11.460924354220456"><ele>196.0</ele><time>2026-04-19T09:49:12Z</time></trkpt><trkpt lat="43.308429654699836" lon="11.461243397540198"><ele>196.0</ele><time>2026-04-19T09:49:13Z</time></trkpt><trkpt lat="43.308477570289654" lon="11.461563305435979"><ele>196.0</ele><time>2026-04-19T09:49:14.001Z</time></trkpt><trkpt lat="43.30852675595698" lon="11.461880524159838"><ele>196.5</ele><time>2026-04-19T09:49:15.001Z</time></trkpt><trkpt lat="43.30857866517771" lon="11.462202349713644"><ele>197.0</ele><time>2026-04-19T09:49:16.001Z</time></trkpt><trkpt lat="43.30862968914974" lon="11.462522158268067"><ele>197.0</ele><time>2026-04-19T09:49:17.001Z</time></trkpt><trkpt lat="43.30867715078456" lon="11.462842994188398"><ele>197.0</ele><time>2026-04-19T09:49:18.001Z</time></trkpt><trkpt lat="43.308725723591856" lon="11.463168281751871"><ele>197.0</ele><time>2026-04-19T09:49:19.001Z</time></trkpt><trkpt lat="43.308774381590304" lon="11.463489386830497"><ele>197.0</ele><time>2026-04-19T09:49:20.001Z</time></trkpt><trkpt lat="43.30882566145577" lon="11.463817569645226"><ele>197.0</ele><time>2026-04-19T09:49:21.001Z</time></trkpt><trkpt lat="43.30887574493533" lon="11.46414257220712"><ele>197.0</ele><time>2026-04-19T09:49:22.001Z</time></trkpt><trkpt lat="43.3089239339329" lon="11.464470971597153"><ele>198.0</ele><time>2026-04-19T09:49:23.001Z</time></trkpt><trkpt lat="43.30897536226625" lon="11.464801265259794"><ele>199.0</ele><time>2026-04-19T09:49:24.001Z</time></trkpt><trkpt lat="43.309025725302945" lon="11.46512913848544"><ele>199.0</ele><time>2026-04-19T09:49:25.001Z</time></trkpt><trkpt lat="43.30907697788323" lon="11.46546270203069"><ele>199.0</ele><time>2026-04-19T09:49:26.001Z</time></trkpt><trkpt lat="43.30912746902341" lon="11.465791442428618"><ele>199.0</ele><time>2026-04-19T09:49:27.001Z</time></trkpt><trkpt lat="43.309179534689626" lon="11.466116427852574"><ele>199.0</ele><time>2026-04-19T09:49:28.001Z</time></trkpt><trkpt lat="43.3092305396953" lon="11.466445662825139"><ele>199.0</ele><time>2026-04-19T09:49:29.001Z</time></trkpt><trkpt lat="43.309280578430425" lon="11.46677186983991"><ele>199.0</ele><time>2026-04-19T09:49:30.001Z</time></trkpt><trkpt lat="43.30933177655831" lon="11.467094777806187"><ele>199.0</ele><time>2026-04-19T09:49:31Z</time></trkpt><trkpt lat="43.30938461748758" lon="11.467418841873425"><ele>199.0</ele><time>2026-04-19T09:49:32Z</time></trkpt><trkpt lat="43.309438708068" lon="11.46774999989484"><ele>199.0</ele><time>2026-04-19T09:49:33Z</time></trkpt><trkpt lat="43.309504649126666" lon="11.468084708560008"><ele>199.0</ele><time>2026-04-19T09:49:34Z</time></trkpt><trkpt lat="43.309586668927075" lon="11.468427259852023"><ele>199.0</ele><time>2026-04-19T09:49:35Z</time></trkpt><trkpt lat="43.30968191910429" lon="11.46877175425348"><ele>199.0</ele><time>2026-04-19T09:49:36Z</time></trkpt><trkpt lat="43.30978986453258" lon="11.46911111481939"><ele>200.5</ele><time>2026-04-19T09:49:37Z</time></trkpt><trkpt lat="43.30990376825576" lon="11.469451952178092"><ele>202.0</ele><time>2026-04-19T09:49:38Z</time></trkpt><trkpt lat="43.310024282973835" lon="11.469807535769798"><ele>202.0</ele><time>2026-04-19T09:49:39Z</time></trkpt><trkpt lat="43.31014876967363" lon="11.470046367218265"><ele>202.0</ele><time>2026-04-19T09:49:40Z</time></trkpt><trkpt lat="43.31027420797905" lon="11.470319521728914"><ele>202.0</ele><time>2026-04-19T09:49:41Z</time></trkpt><trkpt lat="43.31040589721257" lon="11.470582820370689"><ele>202.0</ele><time>2026-04-19T09:49:42Z</time></trkpt><trkpt lat="43.31054303327533" lon="11.470843211534325"><ele>202.0</ele><time>2026-04-19T09:49:43Z</time></trkpt><trkpt lat="43.31068727123188" lon="11.471109435570908"><ele>202.5</ele><time>2026-04-19T09:49:44Z</time></trkpt><trkpt lat="43.3108376336192" lon="11.471379894890742"><ele>203.0</ele><time>2026-04-19T09:49:45Z</time></trkpt><trkpt lat="43.31098733619329" lon="11.471654295991879"><ele>203.0</ele><time>2026-04-19T09:49:46Z</time></trkpt><trkpt lat="43.31113311803566" lon="11.471921929785253"><ele>203.0</ele><time>2026-04-19T09:49:47Z</time></trkpt><trkpt lat="43.3112758376984" lon="11.47218644896787"><ele>204.0</ele><time>2026-04-19T09:49:48Z</time></trkpt><trkpt lat="43.311419810920235" lon="11.472448993309545"><ele>205.0</ele><time>2026-04-19T09:49:49Z</time></trkpt><trkpt lat="43.31156286428268" lon="11.472703625352814"><ele>208.5</ele><time>2026-04-19T09:49:50Z</time></trkpt><trkpt lat="43.311707473809754" lon="11.472952879030066"><ele>212.0</ele><time>2026-04-19T09:49:51Z</time></trkpt><trkpt lat="43.311857813449876" lon="11.473198174480112"><ele>212.0</ele><time>2026-04-19T09:49:52Z</time></trkpt><trkpt lat="43.31201316693269" lon="11.473440472408145"><ele>212.0</ele><time>2026-04-19T09:49:53Z</time></trkpt><trkpt lat="43.312181332940234" lon="11.473686477841742"><ele>212.0</ele><time>2026-04-19T09:49:54Z</time></trkpt><trkpt lat="43.31235703513616" lon="11.47392599071668"><ele>212.0</ele><time>2026-04-19T09:49:55Z</time></trkpt><trkpt lat="43.312538827456514" lon="11.474162020790532"><ele>212.0</ele><time>2026-04-19T09:49:56Z</time></trkpt><trkpt lat="43.312731406317425" lon="11.47438670709063"><ele>212.0</ele><time>2026-04-19T09:49:57Z</time></trkpt><trkpt lat="43.312928249429035" lon="11.474600818935421"><ele>212.5</ele><time>2026-04-19T09:49:58Z</time></trkpt><trkpt lat="43.31312699784431" lon="11.474803991469502"><ele>213.0</ele><time>2026-04-19T09:49:59Z</time></trkpt><trkpt lat="43.31332299441677" lon="11.474996754440998"><ele>213.0</ele><time>2026-04-19T09:50:00Z</time></trkpt><trkpt lat="43.31352158735782" lon="11.47517921280711"><ele>213.0</ele><time>2026-04-19T09:50:01Z</time></trkpt><trkpt lat="43.313728042996026" lon="11.475350535371236"><ele>218.0</ele><time>2026-04-19T09:50:02Z</time></trkpt><trkpt lat="43.31393098995348" lon="11.475504133741222"><ele>223.0</ele><time>2026-04-19T09:50:03Z</time></trkpt><trkpt lat="43.31413504397245" lon="11.475647211643532"><ele>223.0</ele><time>2026-04-19T09:50:04Z</time></trkpt><trkpt lat="43.31434480954124" lon="11.475782394525087"><ele>223.0</ele><time>2026-04-19T09:50:05Z</time></trkpt><trkpt lat="43.31456401038204" lon="11.475916799809736"><ele>225.5</ele><time>2026-04-19T09:50:06Z</time></trkpt><trkpt lat="43.31478831549671" lon="11.476046205914116"><ele>228.0</ele><time>2026-04-19T09:50:07Z</time></trkpt><trkpt lat="43.31502301944706" lon="11.476167191373465"><ele>227.0</ele><time>2026-04-19T09:50:08Z</time></trkpt><trkpt lat="43.31525734506479" lon="11.476278896481514"><ele>226.0</ele><time>2026-04-19T09:50:09Z</time></trkpt><trkpt lat="43.31549780850908" lon="11.476393035236248"><ele>225.0</ele><time>2026-04-19T09:50:10Z</time></trkpt><trkpt lat="43.31573793549494" lon="11.476505631795257"><ele>224.0</ele><time>2026-04-19T09:50:11Z</time></trkpt><trkpt lat="43.31597926291763" lon="11.476617868081512"><ele>224.0</ele><time>2026-04-19T09:50:12Z</time></trkpt><trkpt lat="43.31620597303664" lon="11.476726553509243"><ele>224.0</ele><time>2026-04-19T09:50:13Z</time></trkpt><trkpt lat="43.31641720345405" lon="11.47683079536506"><ele>223.33333333333334</ele><time>2026-04-19T09:50:14Z</time></trkpt><trkpt lat="43.316615391988975" lon="11.476935084299933"><ele>222.66666666666669</ele><time>2026-04-19T09:50:15Z</time></trkpt><trkpt lat="43.316797714209486" lon="11.477040152884056"><ele>222.0</ele><time>2026-04-19T09:50:16Z</time></trkpt><trkpt lat="43.31698248621124" lon="11.477149100330264"><ele>222.0</ele><time>2026-04-19T09:50:17Z</time></trkpt><trkpt lat="43.31717585732058" lon="11.477263471402177"><ele>222.0</ele><time>2026-04-19T09:50:18Z</time></trkpt><trkpt lat="43.317362607279286" lon="11.477388046631448"><ele>222.0</ele><time>2026-04-19T09:50:19Z</time></trkpt><trkpt lat="43.317544497289454" lon="11.477529589950882"><ele>222.33333333333331</ele><time>2026-04-19T09:50:20Z</time></trkpt><trkpt lat="43.31772125971708" lon="11.477680246970943"><ele>222.66666666666666</ele><time>2026-04-19T09:50:21Z</time></trkpt><trkpt lat="43.3178948803274" lon="11.477839996656138"><ele>223.0</ele><time>2026-04-19T09:50:22Z</time></trkpt><trkpt lat="43.31806678832785" lon="11.478010614690977"><ele>223.33333333333331</ele><time>2026-04-19T09:50:23Z</time></trkpt><trkpt lat="43.31823215964138" lon="11.478192073494288"><ele>223.66666666666669</ele><time>2026-04-19T09:50:24Z</time></trkpt><trkpt lat="43.31840502408306" lon="11.478397909153108"><ele>224.0</ele><time>2026-04-19T09:50:25Z</time></trkpt><trkpt lat="43.31857370777438" lon="11.478626503044831"><ele>228.0</ele><time>2026-04-19T09:50:26Z</time></trkpt><trkpt lat="43.31873513802009" lon="11.478873537624766"><ele>232.0</ele><time>2026-04-19T09:50:27Z</time></trkpt><trkpt lat="43.318888692895364" lon="11.479134722867983"><ele>232.5</ele><time>2026-04-19T09:50:28Z</time></trkpt><trkpt lat="43.319028249033686" lon="11.479401867688395"><ele>233.0</ele><time>2026-04-19T09:50:29Z</time></trkpt><trkpt lat="43.31915265649059" lon="11.47966524937337"><ele>233.0</ele><time>2026-04-19T09:50:30Z</time></trkpt><trkpt lat="43.31926563436805" lon="11.479939800642038"><ele>233.0</ele><time>2026-04-19T09:50:31Z</time></trkpt><trkpt lat="43.31937690083337" lon="11.480240207596283"><ele>235.5</ele><time>2026-04-19T09:50:32Z</time></trkpt><trkpt lat="43.319474772340016" lon="11.480542181370822"><ele>238.0</ele><time>2026-04-19T09:50:33Z</time></trkpt><trkpt lat="43.31955716824372" lon="11.480843720025295"><ele>238.0</ele><time>2026-04-19T09:50:34Z</time></trkpt><trkpt lat="43.31963260059161" lon="11.481154678284897"><ele>238.0</ele><time>2026-04-19T09:50:35Z</time></trkpt><trkpt lat="43.319699682399786" lon="11.481474016441842"><ele>231.5</ele><time>2026-04-19T09:50:36Z</time></trkpt><trkpt lat="43.31975897441637" lon="11.481802211301542"><ele>225.0</ele><time>2026-04-19T09:50:37Z</time></trkpt><trkpt lat="43.31980644830324" lon="11.482138043470796"><ele>225.0</ele><time>2026-04-19T09:50:38Z</time></trkpt><trkpt lat="43.319838692371235" lon="11.482488359731493"><ele>225.0</ele><time>2026-04-19T09:50:39Z</time></trkpt><trkpt lat="43.319855379916916" lon="11.482835696882702"><ele>226.0</ele><time>2026-04-19T09:50:40Z</time></trkpt><trkpt lat="43.31986563547256" lon="11.483186651979691"><ele>227.0</ele><time>2026-04-19T09:50:41Z</time></trkpt><trkpt lat="43.319868815530896" lon="11.48353515954489"><ele>228.0</ele><time>2026-04-19T09:50:42Z</time></trkpt><trkpt lat="43.31987013347125" lon="11.483886349310279"><ele>229.0</ele><time>2026-04-19T09:50:43Z</time></trkpt><trkpt lat="43.31986821229505" lon="11.484238887684459"><ele>229.0</ele><time>2026-04-19T09:50:44Z</time></trkpt><trkpt lat="43.31986515107669" lon="11.4845983180539"><ele>229.0</ele><time>2026-04-19T09:50:45Z</time></trkpt><trkpt lat="43.31985812354789" lon="11.484965486461528"><ele>229.0</ele><time>2026-04-19T09:50:46Z</time></trkpt><trkpt lat="43.319849235249585" lon="11.485338791559537"><ele>229.0</ele><time>2026-04-19T09:50:47Z</time></trkpt><trkpt lat="43.319837389959474" lon="11.485714131939"><ele>229.5</ele><time>2026-04-19T09:50:48Z</time></trkpt><trkpt lat="43.31982615440681" lon="11.486093841690163"><ele>230.0</ele><time>2026-04-19T09:50:49Z</time></trkpt><trkpt lat="43.319818456198334" lon="11.486472997607624"><ele>230.0</ele><time>2026-04-19T09:50:50Z</time></trkpt><trkpt lat="43.31981427539948" lon="11.486830116144004"><ele>230.0</ele><time>2026-04-19T09:50:51Z</time></trkpt><trkpt lat="43.31981243465666" lon="11.48716441349173"><ele>230.5</ele><time>2026-04-19T09:50:52Z</time></trkpt><trkpt lat="43.31981037614702" lon="11.487486934847077"><ele>231.0</ele><time>2026-04-19T09:50:53Z</time></trkpt><trkpt lat="43.31980711750243" lon="11.487806342037228"><ele>231.0</ele><time>2026-04-19T09:50:54Z</time></trkpt><trkpt lat="43.319804010714364" lon="11.488129760381968"><ele>231.0</ele><time>2026-04-19T09:50:55Z</time></trkpt><trkpt lat="43.31979968323229" lon="11.488460186791958"><ele>232.0</ele><time>2026-04-19T09:50:56Z</time></trkpt><trkpt lat="43.31979761478602" lon="11.488794893449452"><ele>233.0</ele><time>2026-04-19T09:50:57Z</time></trkpt><trkpt lat="43.31979324529785" lon="11.489128300782399"><ele>233.0</ele><time>2026-04-19T09:50:58Z</time></trkpt><trkpt lat="43.319789258123045" lon="11.489461918157504"><ele>233.0</ele><time>2026-04-19T09:50:59Z</time></trkpt><trkpt lat="43.31978373364912" lon="11.489794331745616"><ele>233.5</ele><time>2026-04-19T09:51:00Z</time></trkpt><trkpt lat="43.31977755694184" lon="11.490128446997458"><ele>234.0</ele><time>2026-04-19T09:51:01Z</time></trkpt><trkpt lat="43.319771018508604" lon="11.49046627683322"><ele>233.0</ele><time>2026-04-19T09:51:02Z</time></trkpt><trkpt lat="43.31976550137866" lon="11.490798122825614"><ele>232.0</ele><time>2026-04-19T09:51:03Z</time></trkpt><trkpt lat="43.31975603717116" lon="11.49113006945767"><ele>232.5</ele><time>2026-04-19T09:51:04Z</time></trkpt><trkpt lat="43.31973544534895" lon="11.491466185695987"><ele>233.0</ele><time>2026-04-19T09:51:05Z</time></trkpt><trkpt lat="43.31970096178864" lon="11.49180532629613"><ele>237.0</ele><time>2026-04-19T09:51:06Z</time></trkpt><trkpt lat="43.31965500050678" lon="11.492144982827057"><ele>241.0</ele><time>2026-04-19T09:51:07Z</time></trkpt><trkpt lat="43.31960225830306" lon="11.492479596464678"><ele>241.0</ele><time>2026-04-19T09:51:08Z</time></trkpt><trkpt lat="43.31954087357858" lon="11.492818152429221"><ele>241.0</ele><time>2026-04-19T09:51:09Z</time></trkpt><trkpt lat="43.31947079964965" lon="11.493154067541436"><ele>238.5</ele><time>2026-04-19T09:51:10Z</time></trkpt><trkpt lat="43.31938672245908" lon="11.493488239202286"><ele>236.0</ele><time>2026-04-19T09:51:11Z</time></trkpt><trkpt lat="43.31929301325546" lon="11.493819949963582"><ele>235.5</ele><time>2026-04-19T09:51:12Z</time></trkpt><trkpt lat="43.3191989581207" lon="11.494147504060148"><ele>235.0</ele><time>2026-04-19T09:51:13Z</time></trkpt><trkpt lat="43.31910805577254" lon="11.494473981640995"><ele>237.5</ele><time>2026-04-19T09:51:14.001Z</time></trkpt><trkpt lat="43.31901842648118" lon="11.49479718654652"><ele>240.0</ele><time>2026-04-19T09:51:15.001Z</time></trkpt><trkpt lat="43.318929078045386" lon="11.495113540534664"><ele>239.0</ele><time>2026-04-19T09:51:16.001Z</time></trkpt><trkpt lat="43.3188399803772" lon="11.495427450206776"><ele>238.0</ele><time>2026-04-19T09:51:17.001Z</time></trkpt><trkpt lat="43.31875900458733" lon="11.495745646730592"><ele>238.0</ele><time>2026-04-19T09:51:18.001Z</time></trkpt><trkpt lat="43.318683308628835" lon="11.496069897913724"><ele>238.0</ele><time>2026-04-19T09:51:19.001Z</time></trkpt><trkpt lat="43.318613121886614" lon="11.496397293741587"><ele>238.0</ele><time>2026-04-19T09:51:20.001Z</time></trkpt><trkpt lat="43.31855236591265" lon="11.496730624026359"><ele>238.0</ele><time>2026-04-19T09:51:21.001Z</time></trkpt><trkpt lat="43.3185058767795" lon="11.49706652027619"><ele>238.5</ele><time>2026-04-19T09:51:22.001Z</time></trkpt><trkpt lat="43.31846020593318" lon="11.497408422237118"><ele>239.0</ele><time>2026-04-19T09:51:23.001Z</time></trkpt><trkpt lat="43.318436213977314" lon="11.497754778499834"><ele>240.0</ele><time>2026-04-19T09:51:24.001Z</time></trkpt><trkpt lat="43.31842558844619" lon="11.498105976440238"><ele>241.0</ele><time>2026-04-19T09:51:25.001Z</time></trkpt><trkpt lat="43.31842843243914" lon="11.49846133771813"><ele>240.0</ele><time>2026-04-19T09:51:26.001Z</time></trkpt><trkpt lat="43.31844113306705" lon="11.498813750234282"><ele>239.0</ele><time>2026-04-19T09:51:27.001Z</time></trkpt><trkpt lat="43.31846718770709" lon="11.499165331050987"><ele>239.0</ele><time>2026-04-19T09:51:28.001Z</time></trkpt><trkpt lat="43.31850826854199" lon="11.499518851947201"><ele>239.0</ele><time>2026-04-19T09:51:29.001Z</time></trkpt><trkpt lat="43.318558490243824" lon="11.499869244565947"><ele>239.0</ele><time>2026-04-19T09:51:30.001Z</time></trkpt><trkpt lat="43.31862031295475" lon="11.500216267034375"><ele>239.0</ele><time>2026-04-19T09:51:31.001Z</time></trkpt><trkpt lat="43.31869507777209" lon="11.50055706029251"><ele>239.0</ele><time>2026-04-19T09:51:32.001Z</time></trkpt><trkpt lat="43.318782375107475" lon="11.500886375390746"><ele>239.0</ele><time>2026-04-19T09:51:33.001Z</time></trkpt><trkpt lat="43.31887270329169" lon="11.501205821329295"><ele>240.0</ele><time>2026-04-19T09:51:34.001Z</time></trkpt><trkpt lat="43.31896887507506" lon="11.501521910664538"><ele>241.0</ele><time>2026-04-19T09:51:35.001Z</time></trkpt><trkpt lat="43.319066547664825" lon="11.50183592320493"><ele>240.5</ele><time>2026-04-19T09:51:36.001Z</time></trkpt><trkpt lat="43.31916605115375" lon="11.502144901762037"><ele>240.0</ele><time>2026-04-19T09:51:37Z</time></trkpt><trkpt lat="43.31926797868208" lon="11.502457586401682"><ele>240.0</ele><time>2026-04-19T09:51:38Z</time></trkpt><trkpt lat="43.319369453713385" lon="11.502768272152647"><ele>240.0</ele><time>2026-04-19T09:51:39Z</time></trkpt><trkpt lat="43.319463115353166" lon="11.503079154733733"><ele>241.5</ele><time>2026-04-19T09:51:40Z</time></trkpt><trkpt lat="43.31955872483375" lon="11.503389261217357"><ele>243.0</ele><time>2026-04-19T09:51:41Z</time></trkpt><trkpt lat="43.319653867319865" lon="11.50369831980106"><ele>242.0</ele><time>2026-04-19T09:51:42Z</time></trkpt><trkpt lat="43.319749745356184" lon="11.504008941358185"><ele>241.0</ele><time>2026-04-19T09:51:43Z</time></trkpt><trkpt lat="43.31984411549849" lon="11.504322026447456"><ele>241.5</ele><time>2026-04-19T09:51:44Z</time></trkpt><trkpt lat="43.319930900187465" lon="11.504628872494855"><ele>242.0</ele><time>2026-04-19T09:51:45Z</time></trkpt><trkpt lat="43.3200114871648" lon="11.504949828411112"><ele>242.0</ele><time>2026-04-19T09:51:46Z</time></trkpt><trkpt lat="43.320080143971914" lon="11.505268946077456"><ele>242.0</ele><time>2026-04-19T09:51:47Z</time></trkpt><trkpt lat="43.32014482576917" lon="11.505595577372894"><ele>243.0</ele><time>2026-04-19T09:51:48Z</time></trkpt><trkpt lat="43.320196451962715" lon="11.50592506386451"><ele>244.0</ele><time>2026-04-19T09:51:49Z</time></trkpt><trkpt lat="43.32024398097822" lon="11.506256125362555"><ele>245.0</ele><time>2026-04-19T09:51:50Z</time></trkpt><trkpt lat="43.3202901225477" lon="11.506594328187393"><ele>246.0</ele><time>2026-04-19T09:51:51Z</time></trkpt><trkpt lat="43.320327324527405" lon="11.50693051615975"><ele>245.5</ele><time>2026-04-19T09:51:52Z</time></trkpt><trkpt lat="43.32036225988771" lon="11.507271175686089"><ele>245.0</ele><time>2026-04-19T09:51:53Z</time></trkpt><trkpt lat="43.32039448264547" lon="11.507615284632719"><ele>246.0</ele><time>2026-04-19T09:51:54Z</time></trkpt><trkpt lat="43.32042878223338" lon="11.507958574808129"><ele>247.0</ele><time>2026-04-19T09:51:55Z</time></trkpt><trkpt lat="43.320463892746524" lon="11.508303289692213"><ele>247.0</ele><time>2026-04-19T09:51:56Z</time></trkpt><trkpt lat="43.32049605707245" lon="11.50864414590672"><ele>247.0</ele><time>2026-04-19T09:51:57Z</time></trkpt><trkpt lat="43.32052741566575" lon="11.508979187920964"><ele>247.0</ele><time>2026-04-19T09:51:58Z</time></trkpt><trkpt lat="43.320561895928996" lon="11.50931383461436"><ele>247.0</ele><time>2026-04-19T09:51:59Z</time></trkpt><trkpt lat="43.32059257700098" lon="11.509649009466566"><ele>250.5</ele><time>2026-04-19T09:52:00Z</time></trkpt><trkpt lat="43.32062054634146" lon="11.509987699378442"><ele>254.0</ele><time>2026-04-19T09:52:01Z</time></trkpt><trkpt lat="43.32065067968218" lon="11.510329788854825"><ele>253.0</ele><time>2026-04-19T09:52:02Z</time></trkpt><trkpt lat="43.32068084504153" lon="11.51067312499281"><ele>252.0</ele><time>2026-04-19T09:52:03Z</time></trkpt><trkpt lat="43.320710595074594" lon="11.511018099892375"><ele>252.0</ele><time>2026-04-19T09:52:04Z</time></trkpt><trkpt lat="43.320741019129095" lon="11.511358773495836"><ele>252.0</ele><time>2026-04-19T09:52:05Z</time></trkpt><trkpt lat="43.3207718364466" lon="11.51170042971524"><ele>252.0</ele><time>2026-04-19T09:52:06Z</time></trkpt><trkpt lat="43.32080523362559" lon="11.512041723366695"><ele>252.0</ele><time>2026-04-19T09:52:07Z</time></trkpt><trkpt lat="43.320837114103995" lon="11.512382549886635"><ele>254.0</ele><time>2026-04-19T09:52:08Z</time></trkpt><trkpt lat="43.32086705680274" lon="11.512722630230368"><ele>256.0</ele><time>2026-04-19T09:52:09Z</time></trkpt><trkpt lat="43.32089775554971" lon="11.513062155809175"><ele>258.5</ele><time>2026-04-19T09:52:10Z</time></trkpt><trkpt lat="43.32093117895537" lon="11.513398435472114"><ele>261.0</ele><time>2026-04-19T09:52:11Z</time></trkpt><trkpt lat="43.32096341075702" lon="11.513735303183324"><ele>262.0</ele><time>2026-04-19T09:52:12Z</time></trkpt><trkpt lat="43.32099375319058" lon="11.514074862884328"><ele>263.0</ele><time>2026-04-19T09:52:13Z</time></trkpt><trkpt lat="43.32102595555247" lon="11.514415782941668"><ele>265.5</ele><time>2026-04-19T09:52:14Z</time></trkpt><trkpt lat="43.3210557568096" lon="11.514758406500631"><ele>268.0</ele><time>2026-04-19T09:52:15Z</time></trkpt><trkpt lat="43.32108600007354" lon="11.515101488825877"><ele>272.0</ele><time>2026-04-19T09:52:16Z</time></trkpt><trkpt lat="43.32111865392184" lon="11.515444116474574"><ele>276.0</ele><time>2026-04-19T09:52:17Z</time></trkpt><trkpt lat="43.32115227648736" lon="11.515784667696058"><ele>276.0</ele><time>2026-04-19T09:52:18Z</time></trkpt><trkpt lat="43.32118229207189" lon="11.516131082674669"><ele>276.0</ele><time>2026-04-19T09:52:19Z</time></trkpt><trkpt lat="43.32121352262078" lon="11.516478672536188"><ele>278.0</ele><time>2026-04-19T09:52:20Z</time></trkpt><trkpt lat="43.32124830635607" lon="11.516822442625694"><ele>280.0</ele><time>2026-04-19T09:52:21Z</time></trkpt><trkpt lat="43.32128085865583" lon="11.517171083720081"><ele>280.0</ele><time>2026-04-19T09:52:22Z</time></trkpt><trkpt lat="43.32131355280404" lon="11.517522060465451"><ele>280.0</ele><time>2026-04-19T09:52:23Z</time></trkpt><trkpt lat="43.32134696253479" lon="11.517874351178305"><ele>279.5</ele><time>2026-04-19T09:52:24Z</time></trkpt><trkpt lat="43.321382181147555" lon="11.51822868288099"><ele>279.0</ele><time>2026-04-19T09:52:25Z</time></trkpt><trkpt lat="43.32141513322869" lon="11.518586331052548"><ele>276.0</ele><time>2026-04-19T09:52:26Z</time></trkpt><trkpt lat="43.32144861957261" lon="11.518945483600161"><ele>273.0</ele><time>2026-04-19T09:52:27Z</time></trkpt><trkpt lat="43.321477448604185" lon="11.519305564212049"><ele>272.0</ele><time>2026-04-19T09:52:28Z</time></trkpt><trkpt lat="43.32150415491828" lon="11.51966160506636"><ele>271.0</ele><time>2026-04-19T09:52:29Z</time></trkpt><trkpt lat="43.32152157225477" lon="11.520020428827637"><ele>271.0</ele><time>2026-04-19T09:52:30Z</time></trkpt><trkpt lat="43.32153217961578" lon="11.520374860316858"><ele>271.0</ele><time>2026-04-19T09:52:31Z</time></trkpt><trkpt lat="43.32153276359323" lon="11.520708023375152"><ele>269.5</ele><time>2026-04-19T09:52:32Z</time></trkpt><trkpt lat="43.32152541956325" lon="11.521031695874093"><ele>268.0</ele><time>2026-04-19T09:52:33Z</time></trkpt><trkpt lat="43.32151272247821" lon="11.521352845295429"><ele>266.5</ele><time>2026-04-19T09:52:34Z</time></trkpt><trkpt lat="43.321495781295624" lon="11.521681784929346"><ele>265.0</ele><time>2026-04-19T09:52:35Z</time></trkpt><trkpt lat="43.32147160515555" lon="11.522017281469124"><ele>264.0</ele><time>2026-04-19T09:52:36Z</time></trkpt><trkpt lat="43.32143678633621" lon="11.522352831814837"><ele>263.0</ele><time>2026-04-19T09:52:37Z</time></trkpt><trkpt lat="43.32139616472761" lon="11.522693240184616"><ele>263.5</ele><time>2026-04-19T09:52:38Z</time></trkpt><trkpt lat="43.321347294391366" lon="11.52303746849141"><ele>264.0</ele><time>2026-04-19T09:52:39Z</time></trkpt><trkpt lat="43.321288725227355" lon="11.523391225107089"><ele>263.0</ele><time>2026-04-19T09:52:40Z</time></trkpt><trkpt lat="43.321226773711366" lon="11.523744646669222"><ele>262.0</ele><time>2026-04-19T09:52:41Z</time></trkpt><trkpt lat="43.321167160360325" lon="11.524079208229262"><ele>262.0</ele><time>2026-04-19T09:52:42Z</time></trkpt><trkpt lat="43.32111130114828" lon="11.524403973267791"><ele>262.0</ele><time>2026-04-19T09:52:43Z</time></trkpt><trkpt lat="43.32105834619321" lon="11.52471950764202"><ele>259.0</ele><time>2026-04-19T09:52:44Z</time></trkpt><trkpt lat="43.32100546184367" lon="11.525035859703344"><ele>256.0</ele><time>2026-04-19T09:52:45Z</time></trkpt><trkpt lat="43.32095085883703" lon="11.525354127068471"><ele>255.0</ele><time>2026-04-19T09:52:46Z</time></trkpt><trkpt lat="43.320896779581936" lon="11.525674777300846"><ele>254.0</ele><time>2026-04-19T09:52:47Z</time></trkpt><trkpt lat="43.32084142476382" lon="11.526005683252617"><ele>254.0</ele><time>2026-04-19T09:52:48Z</time></trkpt><trkpt lat="43.32078728483693" lon="11.526336935154049"><ele>254.0</ele><time>2026-04-19T09:52:49Z</time></trkpt><trkpt lat="43.320731827978875" lon="11.526666159732223"><ele>254.0</ele><time>2026-04-19T09:52:50Z</time></trkpt><trkpt lat="43.320674921247694" lon="11.526999256163563"><ele>254.0</ele><time>2026-04-19T09:52:51Z</time></trkpt><trkpt lat="43.32061586100354" lon="11.527336246831421"><ele>253.0</ele><time>2026-04-19T09:52:52Z</time></trkpt><trkpt lat="43.320561109869686" lon="11.527672366163916"><ele>252.0</ele><time>2026-04-19T09:52:53Z</time></trkpt><trkpt lat="43.32050736105146" lon="11.528003595346211"><ele>251.0</ele><time>2026-04-19T09:52:54Z</time></trkpt><trkpt lat="43.320456216290694" lon="11.528335452767553"><ele>250.0</ele><time>2026-04-19T09:52:55Z</time></trkpt><trkpt lat="43.32041467368754" lon="11.528663360047338"><ele>249.5</ele><time>2026-04-19T09:52:56Z</time></trkpt><trkpt lat="43.32038535795678" lon="11.52899341225844"><ele>249.0</ele><time>2026-04-19T09:52:57Z</time></trkpt><trkpt lat="43.32036699098979" lon="11.529332894780357"><ele>249.0</ele><time>2026-04-19T09:52:58Z</time></trkpt><trkpt lat="43.32036090547001" lon="11.529673946723783"><ele>249.0</ele><time>2026-04-19T09:52:59Z</time></trkpt><trkpt lat="43.32037036792399" lon="11.530018978660634"><ele>249.0</ele><time>2026-04-19T09:53:00Z</time></trkpt><trkpt lat="43.32039309894748" lon="11.530370468450405"><ele>249.0</ele><time>2026-04-19T09:53:01Z</time></trkpt><trkpt lat="43.32042957829205" lon="11.530726721774446"><ele>247.5</ele><time>2026-04-19T09:53:02Z</time></trkpt><trkpt lat="43.32048231187954" lon="11.531073547873529"><ele>246.0</ele><time>2026-04-19T09:53:03Z</time></trkpt><trkpt lat="43.320552869993584" lon="11.531413981058492"><ele>245.5</ele><time>2026-04-19T09:53:04Z</time></trkpt><trkpt lat="43.320634189533806" lon="11.531752284111095"><ele>245.0</ele><time>2026-04-19T09:53:05Z</time></trkpt><trkpt lat="43.320729136380315" lon="11.532078081730363"><ele>245.0</ele><time>2026-04-19T09:53:06Z</time></trkpt><trkpt lat="43.3208403571562" lon="11.532393045636107"><ele>245.0</ele><time>2026-04-19T09:53:07Z</time></trkpt><trkpt lat="43.32096358840509" lon="11.532693869733926"><ele>243.0</ele><time>2026-04-19T09:53:08Z</time></trkpt><trkpt lat="43.32109856785975" lon="11.532983895913935"><ele>241.0</ele><time>2026-04-19T09:53:09Z</time></trkpt><trkpt lat="43.32124109563839" lon="11.533272899355559"><ele>241.0</ele><time>2026-04-19T09:53:10Z</time></trkpt><trkpt lat="43.3213852573325" lon="11.533562801265665"><ele>241.0</ele><time>2026-04-19T09:53:11Z</time></trkpt><trkpt lat="43.32153215216125" lon="11.53385056104691"><ele>239.5</ele><time>2026-04-19T09:53:12Z</time></trkpt><trkpt lat="43.32167694017885" lon="11.534127935929341"><ele>238.0</ele><time>2026-04-19T09:53:13Z</time></trkpt><trkpt lat="43.32181951637796" lon="11.534400799466393"><ele>238.0</ele><time>2026-04-19T09:53:14Z</time></trkpt><trkpt lat="43.32196082514871" lon="11.534680666259458"><ele>238.0</ele><time>2026-04-19T09:53:15Z</time></trkpt><trkpt lat="43.32210524927312" lon="11.534963904785048"><ele>238.5</ele><time>2026-04-19T09:53:16Z</time></trkpt><trkpt lat="43.32225317164149" lon="11.535244177536697"><ele>239.0</ele><time>2026-04-19T09:53:17Z</time></trkpt><trkpt lat="43.322399380910404" lon="11.535527029553593"><ele>237.5</ele><time>2026-04-19T09:53:18Z</time></trkpt><trkpt lat="43.3225445473799" lon="11.535809627281848"><ele>236.0</ele><time>2026-04-19T09:53:19Z</time></trkpt><trkpt lat="43.32268776022163" lon="11.536093855730243"><ele>234.5</ele><time>2026-04-19T09:53:20.001Z</time></trkpt><trkpt lat="43.322824159419724" lon="11.536374855480975"><ele>233.0</ele><time>2026-04-19T09:53:21.001Z</time></trkpt><trkpt lat="43.32295753898217" lon="11.53666162557024"><ele>233.0</ele><time>2026-04-19T09:53:22.001Z</time></trkpt><trkpt lat="43.32308372370026" lon="11.536948449462807"><ele>233.0</ele><time>2026-04-19T09:53:23.001Z</time></trkpt><trkpt lat="43.323199984346644" lon="11.537246739368406"><ele>232.5</ele><time>2026-04-19T09:53:24.001Z</time></trkpt><trkpt lat="43.32331148055604" lon="11.537548158409729"><ele>232.0</ele><time>2026-04-19T09:53:25.001Z</time></trkpt><trkpt lat="43.32341925255327" lon="11.537846890017608"><ele>232.0</ele><time>2026-04-19T09:53:26.001Z</time></trkpt><trkpt lat="43.32352154004954" lon="11.538152017101519"><ele>232.0</ele><time>2026-04-19T09:53:27.001Z</time></trkpt><trkpt lat="43.323617151978596" lon="11.538461640045703"><ele>232.0</ele><time>2026-04-19T09:53:28.001Z</time></trkpt><trkpt lat="43.32370357447451" lon="11.538773960914313"><ele>232.0</ele><time>2026-04-19T09:53:29.001Z</time></trkpt><trkpt lat="43.323787780257" lon="11.53909474986054"><ele>232.0</ele><time>2026-04-19T09:53:30.001Z</time></trkpt><trkpt lat="43.323871075079865" lon="11.539415226882898"><ele>232.0</ele><time>2026-04-19T09:53:31.001Z</time></trkpt><trkpt lat="43.323954281026694" lon="11.539736031388225"><ele>232.5</ele><time>2026-04-19T09:53:32.001Z</time></trkpt><trkpt lat="43.32403921275894" lon="11.540056725321293"><ele>233.0</ele><time>2026-04-19T09:53:33.001Z</time></trkpt><trkpt lat="43.32412201821708" lon="11.540375272328642"><ele>232.5</ele><time>2026-04-19T09:53:34.001Z</time></trkpt><trkpt lat="43.32420657030371" lon="11.540692607325926"><ele>232.0</ele><time>2026-04-19T09:53:35.001Z</time></trkpt><trkpt lat="43.32428920554487" lon="11.541008829914412"><ele>231.5</ele><time>2026-04-19T09:53:36.001Z</time></trkpt><trkpt lat="43.324371916121926" lon="11.541320531787605"><ele>231.0</ele><time>2026-04-19T09:53:37.001Z</time></trkpt><trkpt lat="43.324453720715915" lon="11.541628517186433"><ele>231.0</ele><time>2026-04-19T09:53:38.001Z</time></trkpt><trkpt lat="43.32452885206797" lon="11.54192860408005"><ele>231.0</ele><time>2026-04-19T09:53:39.001Z</time></trkpt><trkpt lat="43.32460175676057" lon="11.542210250686828"><ele>231.0</ele><time>2026-04-19T09:53:40.001Z</time></trkpt><trkpt lat="43.32467215986806" lon="11.542475485717597"><ele>232.33333333333331</ele><time>2026-04-19T09:53:41.001Z</time></trkpt><trkpt lat="43.32473690356776" lon="11.542737057562146"><ele>233.66666666666666</ele><time>2026-04-19T09:53:42.001Z</time></trkpt><trkpt lat="43.324801526609896" lon="11.542985849408778"><ele>235.0</ele><time>2026-04-19T09:53:43Z</time></trkpt><trkpt lat="43.324863042401226" lon="11.543220847972547"><ele>235.0</ele><time>2026-04-19T09:53:44Z</time></trkpt><trkpt lat="43.32492206873076" lon="11.543452222465048"><ele>235.0</ele><time>2026-04-19T09:53:45Z</time></trkpt><trkpt lat="43.3249824678251" lon="11.5436678176967"><ele>235.0</ele><time>2026-04-19T09:53:46Z</time></trkpt><trkpt lat="43.325037666769916" lon="11.543875761859605"><ele>235.0</ele><time>2026-04-19T09:53:47Z</time></trkpt><trkpt lat="43.32508709707353" lon="11.5440783475899"><ele>235.0</ele><time>2026-04-19T09:53:48Z</time></trkpt><trkpt lat="43.3251328224299" lon="11.54427020843216"><ele>235.0</ele><time>2026-04-19T09:53:49Z</time></trkpt><trkpt lat="43.325178633554465" lon="11.544449434768367"><ele>235.0</ele><time>2026-04-19T09:53:50Z</time></trkpt><trkpt lat="43.32522224004339" lon="11.5446218226253"><ele>234.5</ele><time>2026-04-19T09:53:51Z</time></trkpt><trkpt lat="43.3252627455276" lon="11.544788589441383"><ele>234.0</ele><time>2026-04-19T09:53:52Z</time></trkpt><trkpt lat="43.32530385708864" lon="11.544960374643386"><ele>233.5</ele><time>2026-04-19T09:53:53Z</time></trkpt><trkpt lat="43.32534918597419" lon="11.545136193814267"><ele>233.0</ele><time>2026-04-19T09:53:54Z</time></trkpt><trkpt lat="43.32539539492545" lon="11.54531058859359"><ele>232.25</ele><time>2026-04-19T09:53:55Z</time></trkpt><trkpt lat="43.325440648842076" lon="11.545487556475498"><ele>231.5</ele><time>2026-04-19T09:53:56Z</time></trkpt><trkpt lat="43.325485420510994" lon="11.54566992266771"><ele>230.75</ele><time>2026-04-19T09:53:57Z</time></trkpt><trkpt lat="43.32552417647677" lon="11.545853882121996"><ele>230.0</ele><time>2026-04-19T09:53:58Z</time></trkpt><trkpt lat="43.32555982585039" lon="11.546031175389247"><ele>230.25</ele><time>2026-04-19T09:53:59Z</time></trkpt><trkpt lat="43.32559776838704" lon="11.546194512936328"><ele>230.5</ele><time>2026-04-19T09:54:00Z</time></trkpt><trkpt lat="43.3256354000104" lon="11.546346129764224"><ele>230.75</ele><time>2026-04-19T09:54:01Z</time></trkpt><trkpt lat="43.325673495762835" lon="11.54649925675119"><ele>231.0</ele><time>2026-04-19T09:54:01.999Z</time></trkpt><trkpt lat="43.325711009175635" lon="11.546659676259477"><ele>231.0</ele><time>2026-04-19T09:54:02.999Z</time></trkpt><trkpt lat="43.32574947208238" lon="11.5468086150829"><ele>231.0</ele><time>2026-04-19T09:54:03.999Z</time></trkpt><trkpt lat="43.32578029785527" lon="11.546955284525112"><ele>231.0</ele><time>2026-04-19T09:54:04.999Z</time></trkpt><trkpt lat="43.32578998415175" lon="11.547118877473803"><ele>231.0</ele><time>2026-04-19T09:54:05.999Z</time></trkpt><trkpt lat="43.32576974368783" lon="11.547277016585616"><ele>230.8</ele><time>2026-04-19T09:54:06.999Z</time></trkpt><trkpt lat="43.32572080995535" lon="11.547407149045178"><ele>230.60000000000002</ele><time>2026-04-19T09:54:07.999Z</time></trkpt><trkpt lat="43.32564714833564" lon="11.547518163306131"><ele>230.4</ele><time>2026-04-19T09:54:08.999Z</time></trkpt><trkpt lat="43.32556559297172" lon="11.54761390865087"><ele>230.2</ele><time>2026-04-19T09:54:09.999Z</time></trkpt><trkpt lat="43.32549662592759" lon="11.547713526759049"><ele>230.0</ele><time>2026-04-19T09:54:10.999Z</time></trkpt><trkpt lat="43.32544521856626" lon="11.54782129904559"><ele>230.75</ele><time>2026-04-19T09:54:11.999Z</time></trkpt><trkpt lat="43.3254231618579" lon="11.547960465460509"><ele>231.5</ele><time>2026-04-19T09:54:12.999Z</time></trkpt><trkpt lat="43.32543452638143" lon="11.548121443606016"><ele>232.25</ele><time>2026-04-19T09:54:13.999Z</time></trkpt><trkpt lat="43.32547793468276" lon="11.548294365242842"><ele>233.0</ele><time>2026-04-19T09:54:14.999Z</time></trkpt><trkpt lat="43.32554555861546" lon="11.548457576764056"><ele>230.66666666666669</ele><time>2026-04-19T09:54:15.999Z</time></trkpt><trkpt lat="43.32564871762306" lon="11.548610793969468"><ele>228.33333333333331</ele><time>2026-04-19T09:54:16.999Z</time></trkpt><trkpt lat="43.325766224127406" lon="11.548730322427115"><ele>226.0</ele><time>2026-04-19T09:54:17.999Z</time></trkpt><trkpt lat="43.32591613803935" lon="11.548847709571973"><ele>226.0</ele><time>2026-04-19T09:54:18.999Z</time></trkpt><trkpt lat="43.32585573031024" lon="11.548997612085595"><ele>226.0</ele><time>2026-04-19T09:54:19.999Z</time></trkpt><trkpt lat="43.32598419021221" lon="11.549060478006664"><ele>226.0</ele><time>2026-04-19T09:54:20.999Z</time></trkpt><trkpt lat="43.32611770420604" lon="11.549088784426548"><ele>226.0</ele><time>2026-04-19T09:54:21.999Z</time></trkpt><trkpt lat="43.326262475545136" lon="11.549103668141422"><ele>226.0</ele><time>2026-04-19T09:54:22.999Z</time></trkpt><trkpt lat="43.326414067164315" lon="11.54911584582145"><ele>226.0</ele><time>2026-04-19T09:54:23.999Z</time></trkpt><trkpt lat="43.32656781941713" lon="11.549119600603355"><ele>226.0</ele><time>2026-04-19T09:54:24.999Z</time></trkpt><trkpt lat="43.32671214835984" lon="11.549120134757743"><ele>226.0</ele><time>2026-04-19T09:54:25.999Z</time></trkpt><trkpt lat="43.32683669122278" lon="11.549123363879186"><ele>226.00000000000003</ele><time>2026-04-19T09:54:26.999Z</time></trkpt><trkpt lat="43.32695388785288" lon="11.549141233117323"><ele>226.00000000000003</ele><time>2026-04-19T09:54:27.999Z</time></trkpt><trkpt lat="43.327060416138764" lon="11.549144675227264"><ele>226.0</ele><time>2026-04-19T09:54:28.999Z</time></trkpt><trkpt lat="43.32714864187294" lon="11.549137787555523"><ele>226.0</ele><time>2026-04-19T09:54:29.999Z</time></trkpt><trkpt lat="43.32722664736797" lon="11.549121910910223"><ele>226.0</ele><time>2026-04-19T09:54:30.999Z</time></trkpt><trkpt lat="43.32729323477913" lon="11.54911241223861"><ele>226.00000000000003</ele><time>2026-04-19T09:54:31.999Z</time></trkpt><trkpt lat="43.32737568244133" lon="11.54908928032875"><ele>226.00000000000003</ele><time>2026-04-19T09:54:32.999Z</time></trkpt><trkpt lat="43.327482816274475" lon="11.54906934695631"><ele>226.0</ele><time>2026-04-19T09:54:33.999Z</time></trkpt><trkpt lat="43.32759978593442" lon="11.549049521873922"><ele>226.0</ele><time>2026-04-19T09:54:34.999Z</time></trkpt><trkpt lat="43.32772293948947" lon="11.549021212050523"><ele>226.0</ele><time>2026-04-19T09:54:35.999Z</time></trkpt><trkpt lat="43.327835303093984" lon="11.54901388254266"><ele>226.0</ele><time>2026-04-19T09:54:36.999Z</time></trkpt><trkpt lat="43.327938780407734" lon="11.549040250736134"><ele>226.0</ele><time>2026-04-19T09:54:37.999Z</time></trkpt><trkpt lat="43.328037796544365" lon="11.549098372186297"><ele>226.0</ele><time>2026-04-19T09:54:38.999Z</time></trkpt><trkpt lat="43.328130930276835" lon="11.54921535734334"><ele>225.75</ele><time>2026-04-19T09:54:39.999Z</time></trkpt><trkpt lat="43.32820945051788" lon="11.549352437252308"><ele>225.5</ele><time>2026-04-19T09:54:40.999Z</time></trkpt><trkpt lat="43.32827956518688" lon="11.549468335917595"><ele>225.25</ele><time>2026-04-19T09:54:41.999Z</time></trkpt><trkpt lat="43.328345416200605" lon="11.549601102501434"><ele>225.0</ele><time>2026-04-19T09:54:42.999Z</time></trkpt><trkpt lat="43.32840680871766" lon="11.549745971602057"><ele>225.0</ele><time>2026-04-19T09:54:43.999Z</time></trkpt><trkpt lat="43.32846813174873" lon="11.54988743400768"><ele>225.0</ele><time>2026-04-19T09:54:44.999Z</time></trkpt><trkpt lat="43.32852844947582" lon="11.550033789017084"><ele>225.0</ele><time>2026-04-19T09:54:45.999Z</time></trkpt><trkpt lat="43.32859981383077" lon="11.550171736833944"><ele>225.0</ele><time>2026-04-19T09:54:46.999Z</time></trkpt><trkpt lat="43.32868066387213" lon="11.550291961977763"><ele>225.0</ele><time>2026-04-19T09:54:47.999Z</time></trkpt><trkpt lat="43.32877616979767" lon="11.550412658640072"><ele>225.0</ele><time>2026-04-19T09:54:48.999Z</time></trkpt><trkpt lat="43.32887637557804" lon="11.550532657280653"><ele>225.0</ele><time>2026-04-19T09:54:49.999Z</time></trkpt><trkpt lat="43.32898641689962" lon="11.550637852804034"><ele>225.0</ele><time>2026-04-19T09:54:50.999Z</time></trkpt><trkpt lat="43.32909982647946" lon="11.550743824201996"><ele>225.0</ele><time>2026-04-19T09:54:51.999Z</time></trkpt><trkpt lat="43.32920391824477" lon="11.55083974262162"><ele>225.0</ele><time>2026-04-19T09:54:52.999Z</time></trkpt><trkpt lat="43.32930615798086" lon="11.550932253994953"><ele>225.0</ele><time>2026-04-19T09:54:53.999Z</time></trkpt><trkpt lat="43.32940400240983" lon="11.551017714489955"><ele>225.0</ele><time>2026-04-19T09:54:54.999Z</time></trkpt><trkpt lat="43.32950459539744" lon="11.551111208080039"><ele>225.5</ele><time>2026-04-19T09:54:55.999Z</time></trkpt><trkpt lat="43.32961392249274" lon="11.551224688617944"><ele>226.0</ele><time>2026-04-19T09:54:56.999Z</time></trkpt><trkpt lat="43.32971725440591" lon="11.551354068669822"><ele>226.5</ele><time>2026-04-19T09:54:57.999Z</time></trkpt><trkpt lat="43.32981492078668" lon="11.551496115132974"><ele>227.0</ele><time>2026-04-19T09:54:58.999Z</time></trkpt><trkpt lat="43.32990256300169" lon="11.55162624131905"><ele>227.0</ele><time>2026-04-19T09:54:59.999Z</time></trkpt><trkpt lat="43.32999101922596" lon="11.551743134360796"><ele>227.0</ele><time>2026-04-19T09:55:00.999Z</time></trkpt><trkpt lat="43.33007075242339" lon="11.551872094221403"><ele>227.0</ele><time>2026-04-19T09:55:01.999Z</time></trkpt><trkpt lat="43.330140112013524" lon="11.552006299945532"><ele>227.0</ele><time>2026-04-19T09:55:02.999Z</time></trkpt><trkpt lat="43.33019138691796" lon="11.552144556542283"><ele>226.6</ele><time>2026-04-19T09:55:03.999Z</time></trkpt><trkpt lat="43.330243839863236" lon="11.552283059658619"><ele>226.2</ele><time>2026-04-19T09:55:04.999Z</time></trkpt><trkpt lat="43.33030153431135" lon="11.552410131031882"><ele>225.8</ele><time>2026-04-19T09:55:05.999Z</time></trkpt><trkpt lat="43.33034308008649" lon="11.55253133333373"><ele>225.4</ele><time>2026-04-19T09:55:06.999Z</time></trkpt><trkpt lat="43.33036980997571" lon="11.552641959660733"><ele>225.0</ele><time>2026-04-19T09:55:07.999Z</time></trkpt><trkpt lat="43.33035304754103" lon="11.552759735159329"><ele>225.0</ele><time>2026-04-19T09:55:08.999Z</time></trkpt><trkpt lat="43.330486473497835" lon="11.552831060152654"><ele>225.0</ele><time>2026-04-19T09:55:09.999Z</time></trkpt><trkpt lat="43.33057973706843" lon="11.552887935351603"><ele>225.0</ele><time>2026-04-19T09:55:10.999Z</time></trkpt><trkpt lat="43.33067747975235" lon="11.552949316902371"><ele>225.0</ele><time>2026-04-19T09:55:11.999Z</time></trkpt><trkpt lat="43.330797841069575" lon="11.553019947045119"><ele>225.33333333333331</ele><time>2026-04-19T09:55:12.999Z</time></trkpt><trkpt lat="43.33092656491045" lon="11.553107475544472"><ele>225.66666666666666</ele><time>2026-04-19T09:55:13.999Z</time></trkpt><trkpt lat="43.33106920470235" lon="11.553211118281288"><ele>226.0</ele><time>2026-04-19T09:55:14.999Z</time></trkpt><trkpt lat="43.33122465600854" lon="11.553340426775922"><ele>225.66666666666666</ele><time>2026-04-19T09:55:15.999Z</time></trkpt><trkpt lat="43.33140002997088" lon="11.553467275480292"><ele>225.33333333333331</ele><time>2026-04-19T09:55:16.999Z</time></trkpt><trkpt lat="43.33158697009868" lon="11.553602490040962"><ele>225.0</ele><time>2026-04-19T09:55:17.999Z</time></trkpt><trkpt lat="43.331782850108254" lon="11.553744223619804"><ele>225.0</ele><time>2026-04-19T09:55:18.999Z</time></trkpt><trkpt lat="43.33197323420394" lon="11.553882038971912"><ele>225.0</ele><time>2026-04-19T09:55:19.999Z</time></trkpt><trkpt lat="43.33216115258799" lon="11.554001986746187"><ele>225.0</ele><time>2026-04-19T09:55:20.999Z</time></trkpt><trkpt lat="43.332345812761076" lon="11.554144434719356"><ele>225.0</ele><time>2026-04-19T09:55:21.999Z</time></trkpt><trkpt lat="43.33253704716076" lon="11.554279421805669"><ele>225.0</ele><time>2026-04-19T09:55:22.999Z</time></trkpt><trkpt lat="43.332722503594916" lon="11.55441238976931"><ele>225.0</ele><time>2026-04-19T09:55:23.999Z</time></trkpt><trkpt lat="43.3329017417312" lon="11.554543170498274"><ele>226.66666666666669</ele><time>2026-04-19T09:55:24.999Z</time></trkpt><trkpt lat="43.33307966707961" lon="11.554671169298842"><ele>228.33333333333334</ele><time>2026-04-19T09:55:25.999Z</time></trkpt><trkpt lat="43.33325501600253" lon="11.554795166286862"><ele>230.0</ele><time>2026-04-19T09:55:26.999Z</time></trkpt><trkpt lat="43.33343087263742" lon="11.554909936390201"><ele>230.0</ele><time>2026-04-19T09:55:27.999Z</time></trkpt><trkpt lat="43.33361587107593" lon="11.55501682054186"><ele>230.0</ele><time>2026-04-19T09:55:28.999Z</time></trkpt><trkpt lat="43.333810503226154" lon="11.55511560972481"><ele>230.0</ele><time>2026-04-19T09:55:29.999Z</time></trkpt><trkpt lat="43.33401537041047" lon="11.555218582471113"><ele>231.0</ele><time>2026-04-19T09:55:30.999Z</time></trkpt><trkpt lat="43.334225050594" lon="11.555324726845145"><ele>232.0</ele><time>2026-04-19T09:55:31.999Z</time></trkpt><trkpt lat="43.33443530958631" lon="11.555431720689539"><ele>233.0</ele><time>2026-04-19T09:55:32.999Z</time></trkpt><trkpt lat="43.33465392620776" lon="11.555545511137964"><ele>229.5</ele><time>2026-04-19T09:55:33.999Z</time></trkpt><trkpt lat="43.334876932838185" lon="11.555665478904986"><ele>226.0</ele><time>2026-04-19T09:55:34.999Z</time></trkpt><trkpt lat="43.335105768935456" lon="11.555785343110339"><ele>226.0</ele><time>2026-04-19T09:55:35.999Z</time></trkpt><trkpt lat="43.33533587329301" lon="11.555904541234858"><ele>226.0</ele><time>2026-04-19T09:55:36.999Z</time></trkpt><trkpt lat="43.335563718719946" lon="11.556023274175033"><ele>225.0</ele><time>2026-04-19T09:55:37.999Z</time></trkpt><trkpt lat="43.335782963648995" lon="11.556140747680988"><ele>224.0</ele><time>2026-04-19T09:55:38.999Z</time></trkpt><trkpt lat="43.33599163938815" lon="11.556244892028595"><ele>224.0</ele><time>2026-04-19T09:55:39.999Z</time></trkpt><trkpt lat="43.33619327638547" lon="11.556355178895672"><ele>224.0</ele><time>2026-04-19T09:55:40.999Z</time></trkpt><trkpt lat="43.336381160610046" lon="11.556458808920016"><ele>224.0</ele><time>2026-04-19T09:55:41.999Z</time></trkpt><trkpt lat="43.336574287125906" lon="11.556562778308148"><ele>224.66666666666669</ele><time>2026-04-19T09:55:42.999Z</time></trkpt><trkpt lat="43.336769039844974" lon="11.556663864540097"><ele>225.33333333333331</ele><time>2026-04-19T09:55:43.999Z</time></trkpt><trkpt lat="43.33696667455286" lon="11.556765331842133"><ele>226.0</ele><time>2026-04-19T09:55:44.999Z</time></trkpt><trkpt lat="43.33716627275337" lon="11.556862549397398"><ele>226.0</ele><time>2026-04-19T09:55:45.999Z</time></trkpt><trkpt lat="43.337369276549126" lon="11.556957484473388"><ele>226.0</ele><time>2026-04-19T09:55:46.999Z</time></trkpt><trkpt lat="43.33758309495285" lon="11.557040287230299"><ele>226.0</ele><time>2026-04-19T09:55:47.999Z</time></trkpt><trkpt lat="43.33780786141346" lon="11.557121902396217"><ele>226.0</ele><time>2026-04-19T09:55:48.998Z</time></trkpt><trkpt lat="43.338035294605014" lon="11.557198803673765"><ele>226.0</ele><time>2026-04-19T09:55:49.998Z</time></trkpt><trkpt lat="43.338265192999636" lon="11.557279761948081"><ele>226.5</ele><time>2026-04-19T09:55:50.998Z</time></trkpt><trkpt lat="43.33849699106976" lon="11.55736018325457"><ele>227.0</ele><time>2026-04-19T09:55:51.998Z</time></trkpt><trkpt lat="43.33872801902074" lon="11.557442761485763"><ele>228.0</ele><time>2026-04-19T09:55:52.999Z</time></trkpt><trkpt lat="43.33895399818163" lon="11.557527394766433"><ele>229.0</ele><time>2026-04-19T09:55:53.999Z</time></trkpt><trkpt lat="43.33918573204771" lon="11.557611288200164"><ele>229.0</ele><time>2026-04-19T09:55:54.999Z</time></trkpt><trkpt lat="43.33941250767327" lon="11.557695803968567"><ele>229.0</ele><time>2026-04-19T09:55:55.999Z</time></trkpt><trkpt lat="43.33964023554565" lon="11.557778606514946"><ele>229.33333333333331</ele><time>2026-04-19T09:55:56.999Z</time></trkpt><trkpt lat="43.339861801321284" lon="11.557856747299361"><ele>229.66666666666669</ele><time>2026-04-19T09:55:57.999Z</time></trkpt><trkpt lat="43.34007329194689" lon="11.557927199072621"><ele>230.0</ele><time>2026-04-19T09:55:58.999Z</time></trkpt><trkpt lat="43.340287294974374" lon="11.55800919970027"><ele>230.0</ele><time>2026-04-19T09:55:59.999Z</time></trkpt><trkpt lat="43.34050003536464" lon="11.558078223864454"><ele>230.0</ele><time>2026-04-19T09:56:00.999Z</time></trkpt><trkpt lat="43.340697066145" lon="11.558157984251222"><ele>230.0</ele><time>2026-04-19T09:56:01.999Z</time></trkpt><trkpt lat="43.34090683774114" lon="11.558259228284353"><ele>230.0</ele><time>2026-04-19T09:56:02.999Z</time></trkpt><trkpt lat="43.34113660620303" lon="11.558398813464763"><ele>230.0</ele><time>2026-04-19T09:56:03.999Z</time></trkpt><trkpt lat="43.34132385618316" lon="11.558525618293626"><ele>230.0</ele><time>2026-04-19T09:56:04.999Z</time></trkpt><trkpt lat="43.34152497760057" lon="11.5586802253774"><ele>230.0</ele><time>2026-04-19T09:56:05.999Z</time></trkpt><trkpt lat="43.34174121637543" lon="11.558830794982969"><ele>230.0</ele><time>2026-04-19T09:56:06.999Z</time></trkpt><trkpt lat="43.341956440290105" lon="11.55897746870857"><ele>230.0</ele><time>2026-04-19T09:56:07.999Z</time></trkpt><trkpt lat="43.34216762728272" lon="11.559125132866573"><ele>235.5</ele><time>2026-04-19T09:56:08.999Z</time></trkpt><trkpt lat="43.342374249779795" lon="11.559278448432208"><ele>241.0</ele><time>2026-04-19T09:56:09.999Z</time></trkpt><trkpt lat="43.34258343720899" lon="11.559435373943721"><ele>237.0</ele><time>2026-04-19T09:56:10.999Z</time></trkpt><trkpt lat="43.34280228222647" lon="11.559583113615925"><ele>233.0</ele><time>2026-04-19T09:56:12Z</time></trkpt><trkpt lat="43.343025906601056" lon="11.559717158048123"><ele>235.0</ele><time>2026-04-19T09:56:13Z</time></trkpt><trkpt lat="43.343247577595925" lon="11.559849704883977"><ele>237.0</ele><time>2026-04-19T09:56:14Z</time></trkpt><trkpt lat="43.343463690245606" lon="11.559985707803856"><ele>237.0</ele><time>2026-04-19T09:56:15Z</time></trkpt><trkpt lat="43.3436754499339" lon="11.56012110198928"><ele>237.0</ele><time>2026-04-19T09:56:16Z</time></trkpt><trkpt lat="43.343870763732774" lon="11.560248072918817"><ele>236.33333333333331</ele><time>2026-04-19T09:56:17Z</time></trkpt><trkpt lat="43.344052631585264" lon="11.560373642883407"><ele>235.66666666666666</ele><time>2026-04-19T09:56:18Z</time></trkpt><trkpt lat="43.344228887682625" lon="11.560491770134824"><ele>235.0</ele><time>2026-04-19T09:56:19Z</time></trkpt><trkpt lat="43.344406197226164" lon="11.560613169936884"><ele>235.0</ele><time>2026-04-19T09:56:20Z</time></trkpt><trkpt lat="43.34458791581657" lon="11.560741706366233"><ele>235.0</ele><time>2026-04-19T09:56:21Z</time></trkpt><trkpt lat="43.344777746778725" lon="11.560873343832439"><ele>235.0</ele><time>2026-04-19T09:56:22Z</time></trkpt><trkpt lat="43.344973411262906" lon="11.56100609566615"><ele>235.5</ele><time>2026-04-19T09:56:23Z</time></trkpt><trkpt lat="43.34517613966714" lon="11.561140950408657"><ele>236.0</ele><time>2026-04-19T09:56:24Z</time></trkpt><trkpt lat="43.345382263627855" lon="11.561273050099857"><ele>237.5</ele><time>2026-04-19T09:56:25Z</time></trkpt><trkpt lat="43.34558503771852" lon="11.561411378863193"><ele>239.0</ele><time>2026-04-19T09:56:26Z</time></trkpt><trkpt lat="43.345785947406085" lon="11.561549284264283"><ele>239.0</ele><time>2026-04-19T09:56:27Z</time></trkpt><trkpt lat="43.34597380554423" lon="11.561674386158476"><ele>239.0</ele><time>2026-04-19T09:56:28Z</time></trkpt><trkpt lat="43.346159583676894" lon="11.561797074065435"><ele>239.0</ele><time>2026-04-19T09:56:29Z</time></trkpt><trkpt lat="43.34634731326378" lon="11.561919325979849"><ele>239.33333333333334</ele><time>2026-04-19T09:56:30Z</time></trkpt><trkpt lat="43.34653472258672" lon="11.562043307472022"><ele>239.66666666666669</ele><time>2026-04-19T09:56:31Z</time></trkpt><trkpt lat="43.3467199982065" lon="11.5621658907627"><ele>240.0</ele><time>2026-04-19T09:56:32Z</time></trkpt><trkpt lat="43.34690726177088" lon="11.562289271744595"><ele>240.0</ele><time>2026-04-19T09:56:33Z</time></trkpt><trkpt lat="43.34709586924247" lon="11.562412896593987"><ele>240.0</ele><time>2026-04-19T09:56:34Z</time></trkpt><trkpt lat="43.34728307526026" lon="11.562540219164012"><ele>240.0</ele><time>2026-04-19T09:56:35Z</time></trkpt><trkpt lat="43.347469651915446" lon="11.562667686294837"><ele>241.0</ele><time>2026-04-19T09:56:36Z</time></trkpt><trkpt lat="43.34764780580676" lon="11.562789534023437"><ele>242.0</ele><time>2026-04-19T09:56:37Z</time></trkpt><trkpt lat="43.34782256482658" lon="11.562902493798182"><ele>243.0</ele><time>2026-04-19T09:56:38Z</time></trkpt><trkpt lat="43.34799288227311" lon="11.563013806041281"><ele>245.0</ele><time>2026-04-19T09:56:39Z</time></trkpt><trkpt lat="43.34816355131563" lon="11.56312472147739"><ele>247.0</ele><time>2026-04-19T09:56:40Z</time></trkpt><trkpt lat="43.348325049650064" lon="11.563234339610698"><ele>249.0</ele><time>2026-04-19T09:56:41Z</time></trkpt><trkpt lat="43.34847472662003" lon="11.563333994203402"><ele>249.0</ele><time>2026-04-19T09:56:42Z</time></trkpt><trkpt lat="43.34860887785235" lon="11.56343476835909"><ele>249.0</ele><time>2026-04-19T09:56:43Z</time></trkpt><trkpt lat="43.348741707231774" lon="11.5635583369772"><ele>249.0</ele><time>2026-04-19T09:56:44Z</time></trkpt><trkpt lat="43.34886948476046" lon="11.5637201802891"><ele>251.0</ele><time>2026-04-19T09:56:45Z</time></trkpt><trkpt lat="43.34898453205198" lon="11.563920115255902"><ele>253.0</ele><time>2026-04-19T09:56:46Z</time></trkpt><trkpt lat="43.34909055204199" lon="11.564110552749977"><ele>255.0</ele><time>2026-04-19T09:56:47Z</time></trkpt><trkpt lat="43.34919680202583" lon="11.564278722288316"><ele>255.0</ele><time>2026-04-19T09:56:48Z</time></trkpt><trkpt lat="43.349306909392624" lon="11.564431084872382"><ele>255.0</ele><time>2026-04-19T09:56:49Z</time></trkpt><trkpt lat="43.34943475145637" lon="11.564558171075207"><ele>255.0</ele><time>2026-04-19T09:56:50Z</time></trkpt><trkpt lat="43.34958936976193" lon="11.564646162275187"><ele>257.0</ele><time>2026-04-19T09:56:51Z</time></trkpt><trkpt lat="43.34976685200783" lon="11.564697317066088"><ele>259.0</ele><time>2026-04-19T09:56:52Z</time></trkpt><trkpt lat="43.34994723367112" lon="11.564739893961217"><ele>261.0</ele><time>2026-04-19T09:56:53Z</time></trkpt><trkpt lat="43.350121377751826" lon="11.564792557237539"><ele>261.0</ele><time>2026-04-19T09:56:54Z</time></trkpt><trkpt lat="43.35029591530516" lon="11.564838574729059"><ele>261.0</ele><time>2026-04-19T09:56:55Z</time></trkpt><trkpt lat="43.35046698364364" lon="11.564868240668247"><ele>261.0</ele><time>2026-04-19T09:56:56Z</time></trkpt><trkpt lat="43.35064768181127" lon="11.564881665958788"><ele>261.3333333333333</ele><time>2026-04-19T09:56:57Z</time></trkpt><trkpt lat="43.35082239151042" lon="11.564882707315636"><ele>261.66666666666663</ele><time>2026-04-19T09:56:58Z</time></trkpt><trkpt lat="43.35100103194144" lon="11.564874625225467"><ele>262.0</ele><time>2026-04-19T09:56:59Z</time></trkpt><trkpt lat="43.35117081635999" lon="11.564864687599782"><ele>262.0</ele><time>2026-04-19T09:57:00Z</time></trkpt><trkpt lat="43.35132747907232" lon="11.564853381714824"><ele>262.0</ele><time>2026-04-19T09:57:01Z</time></trkpt><trkpt lat="43.35148028811485" lon="11.564851909506729"><ele>262.0</ele><time>2026-04-19T09:57:02Z</time></trkpt><trkpt lat="43.35163072979495" lon="11.56486589860118"><ele>262.3333333333333</ele><time>2026-04-19T09:57:03Z</time></trkpt><trkpt lat="43.351781396447954" lon="11.564909536729534"><ele>262.6666666666667</ele><time>2026-04-19T09:57:04Z</time></trkpt><trkpt lat="43.351923332618966" lon="11.564988983309348"><ele>263.0</ele><time>2026-04-19T09:57:05Z</time></trkpt><trkpt lat="43.35206094100217" lon="11.565093950422746"><ele>263.0</ele><time>2026-04-19T09:57:06Z</time></trkpt><trkpt lat="43.352194970347384" lon="11.565218193565542"><ele>263.0</ele><time>2026-04-19T09:57:07Z</time></trkpt><trkpt lat="43.3523242718332" lon="11.565361999874689"><ele>263.0</ele><time>2026-04-19T09:57:08Z</time></trkpt><trkpt lat="43.35244244592083" lon="11.56553341435548"><ele>263.33333333333337</ele><time>2026-04-19T09:57:09Z</time></trkpt><trkpt lat="43.35255731199079" lon="11.565728886076908"><ele>263.6666666666667</ele><time>2026-04-19T09:57:10Z</time></trkpt><trkpt lat="43.35267504643253" lon="11.565932606885431"><ele>264.0</ele><time>2026-04-19T09:57:11Z</time></trkpt><trkpt lat="43.35279874662285" lon="11.566127162327522"><ele>264.0</ele><time>2026-04-19T09:57:12Z</time></trkpt><trkpt lat="43.35292594371324" lon="11.566316379064913"><ele>264.0</ele><time>2026-04-19T09:57:13Z</time></trkpt><trkpt lat="43.35304938483323" lon="11.566505135189816"><ele>264.0</ele><time>2026-04-19T09:57:14Z</time></trkpt><trkpt lat="43.35316903658445" lon="11.566700818864474"><ele>264.6666666666667</ele><time>2026-04-19T09:57:15Z</time></trkpt><trkpt lat="43.353292220472284" lon="11.566888517834608"><ele>265.33333333333337</ele><time>2026-04-19T09:57:16Z</time></trkpt><trkpt lat="43.353415069050605" lon="11.567077194399541"><ele>266.0</ele><time>2026-04-19T09:57:17Z</time></trkpt><trkpt lat="43.353535832723104" lon="11.567265938623514"><ele>266.0</ele><time>2026-04-19T09:57:18Z</time></trkpt><trkpt lat="43.35364931928675" lon="11.567446411205657"><ele>266.0</ele><time>2026-04-19T09:57:19Z</time></trkpt><trkpt lat="43.35375819388347" lon="11.567604929507409"><ele>266.0</ele><time>2026-04-19T09:57:20Z</time></trkpt><trkpt lat="43.35388202855899" lon="11.567752657562233"><ele>265.6666666666667</ele><time>2026-04-19T09:57:21Z</time></trkpt><trkpt lat="43.35402353473207" lon="11.567870721741334"><ele>265.3333333333333</ele><time>2026-04-19T09:57:22Z</time></trkpt><trkpt lat="43.35418593138952" lon="11.567956235258109"><ele>265.0</ele><time>2026-04-19T09:57:23Z</time></trkpt><trkpt lat="43.35436104757362" lon="11.568011880375225"><ele>265.0</ele><time>2026-04-19T09:57:24Z</time></trkpt><trkpt lat="43.354542516922855" lon="11.56806302367625"><ele>265.0</ele><time>2026-04-19T09:57:25Z</time></trkpt><trkpt lat="43.35472744780476" lon="11.568124417016255"><ele>265.0</ele><time>2026-04-19T09:57:26Z</time></trkpt><trkpt lat="43.354910229283554" lon="11.568198885585764"><ele>266.3333333333333</ele><time>2026-04-19T09:57:27Z</time></trkpt><trkpt lat="43.35508141874665" lon="11.568275707650756"><ele>267.6666666666667</ele><time>2026-04-19T09:57:28Z</time></trkpt><trkpt lat="43.355248751889455" lon="11.56834942046985"><ele>269.0</ele><time>2026-04-19T09:57:29Z</time></trkpt><trkpt lat="43.35540628254127" lon="11.568415163804188"><ele>269.6666666666667</ele><time>2026-04-19T09:57:30Z</time></trkpt><trkpt lat="43.35556774661058" lon="11.568470183062521"><ele>270.3333333333333</ele><time>2026-04-19T09:57:31Z</time></trkpt><trkpt lat="43.35573710861571" lon="11.568490906587447"><ele>271.0</ele><time>2026-04-19T09:57:32Z</time></trkpt><trkpt lat="43.355921424605334" lon="11.568474641707894"><ele>271.0</ele><time>2026-04-19T09:57:33Z</time></trkpt><trkpt lat="43.35611293701678" lon="11.568436678511597"><ele>271.0</ele><time>2026-04-19T09:57:34Z</time></trkpt><trkpt lat="43.35630127614374" lon="11.56841763342308"><ele>271.0</ele><time>2026-04-19T09:57:35Z</time></trkpt><trkpt lat="43.35649098912167" lon="11.568375221218265"><ele>271.3333333333333</ele><time>2026-04-19T09:57:36Z</time></trkpt><trkpt lat="43.35668488853373" lon="11.568320275619628"><ele>271.6666666666667</ele><time>2026-04-19T09:57:37Z</time></trkpt><trkpt lat="43.356879273224344" lon="11.568235779063057"><ele>272.0</ele><time>2026-04-19T09:57:38Z</time></trkpt><trkpt lat="43.35707149558227" lon="11.568113732496053"><ele>272.33333333333337</ele><time>2026-04-19T09:57:39Z</time></trkpt><trkpt lat="43.357257614243686" lon="11.567987114255601"><ele>272.6666666666667</ele><time>2026-04-19T09:57:40.001Z</time></trkpt><trkpt lat="43.35745597007123" lon="11.567868771832897"><ele>273.0</ele><time>2026-04-19T09:57:41.001Z</time></trkpt><trkpt lat="43.35765724533921" lon="11.567754396785928"><ele>275.0</ele><time>2026-04-19T09:57:42.001Z</time></trkpt><trkpt lat="43.35785455724884" lon="11.567641741471979"><ele>277.0</ele><time>2026-04-19T09:57:43.001Z</time></trkpt><trkpt lat="43.35805105790854" lon="11.56752533540019"><ele>279.0</ele><time>2026-04-19T09:57:44.001Z</time></trkpt><trkpt lat="43.35825053597393" lon="11.567410415176612"><ele>279.0</ele><time>2026-04-19T09:57:45.001Z</time></trkpt><trkpt lat="43.35845030489693" lon="11.56730784252304"><ele>279.0</ele><time>2026-04-19T09:57:46.001Z</time></trkpt><trkpt lat="43.358651755620755" lon="11.56722112795869"><ele>279.0</ele><time>2026-04-19T09:57:47.001Z</time></trkpt><trkpt lat="43.358864559718704" lon="11.567146298416393"><ele>278.0</ele><time>2026-04-19T09:57:48.001Z</time></trkpt><trkpt lat="43.359090330499974" lon="11.567075056426901"><ele>277.0</ele><time>2026-04-19T09:57:49.001Z</time></trkpt><trkpt lat="43.35931932263195" lon="11.567003988690214"><ele>278.0</ele><time>2026-04-19T09:57:50.001Z</time></trkpt><trkpt lat="43.359552860298294" lon="11.56693097012841"><ele>279.0</ele><time>2026-04-19T09:57:51.001Z</time></trkpt><trkpt lat="43.35978348307318" lon="11.566855104664697"><ele>279.0</ele><time>2026-04-19T09:57:52.001Z</time></trkpt><trkpt lat="43.36001528222931" lon="11.566780016321312"><ele>279.0</ele><time>2026-04-19T09:57:53.001Z</time></trkpt><trkpt lat="43.360245039234904" lon="11.566704067627814"><ele>279.0</ele><time>2026-04-19T09:57:54Z</time></trkpt><trkpt lat="43.36046818442631" lon="11.56663172576775"><ele>279.0</ele><time>2026-04-19T09:57:55Z</time></trkpt><trkpt lat="43.3606745586278" lon="11.56656642770804"><ele>279.0</ele><time>2026-04-19T09:57:56Z</time></trkpt><trkpt lat="43.36087195686123" lon="11.566497836127885"><ele>278.6666666666667</ele><time>2026-04-19T09:57:57Z</time></trkpt><trkpt lat="43.36107718341107" lon="11.566427763740249"><ele>278.33333333333337</ele><time>2026-04-19T09:57:58Z</time></trkpt><trkpt lat="43.36128968644765" lon="11.566361651838111"><ele>278.0</ele><time>2026-04-19T09:57:59Z</time></trkpt><trkpt lat="43.361506588288826" lon="11.566287807648774"><ele>278.0</ele><time>2026-04-19T09:58:00Z</time></trkpt><trkpt lat="43.36171176134185" lon="11.566214516216103"><ele>278.0</ele><time>2026-04-19T09:58:01Z</time></trkpt><trkpt lat="43.36190730870214" lon="11.566147249157723"><ele>278.0</ele><time>2026-04-19T09:58:02Z</time></trkpt><trkpt lat="43.362093009600756" lon="11.566087221500268"><ele>281.6666666666667</ele><time>2026-04-19T09:58:03Z</time></trkpt><trkpt lat="43.36226958208294" lon="11.566026495908249"><ele>285.3333333333333</ele><time>2026-04-19T09:58:04Z</time></trkpt><trkpt lat="43.36245191013126" lon="11.56600817674661"><ele>289.0</ele><time>2026-04-19T09:58:05Z</time></trkpt><trkpt lat="43.36264156018696" lon="11.566011874316862"><ele>289.0</ele><time>2026-04-19T09:58:06Z</time></trkpt><trkpt lat="43.36283185426267" lon="11.56603270592999"><ele>289.0</ele><time>2026-04-19T09:58:07Z</time></trkpt><trkpt lat="43.36302310272506" lon="11.566074989414545"><ele>289.0</ele><time>2026-04-19T09:58:08Z</time></trkpt><trkpt lat="43.3632163345342" lon="11.566110657121943"><ele>289.3333333333333</ele><time>2026-04-19T09:58:09Z</time></trkpt><trkpt lat="43.36341182505062" lon="11.56613913770902"><ele>289.6666666666667</ele><time>2026-04-19T09:58:10Z</time></trkpt><trkpt lat="43.36360040668779" lon="11.56616292749727"><ele>290.0</ele><time>2026-04-19T09:58:11Z</time></trkpt><trkpt lat="43.36378180320893" lon="11.56618562868481"><ele>290.0</ele><time>2026-04-19T09:58:12Z</time></trkpt><trkpt lat="43.363966095548484" lon="11.566204310135635"><ele>290.0</ele><time>2026-04-19T09:58:13Z</time></trkpt><trkpt lat="43.364156054225994" lon="11.566202252755678"><ele>290.0</ele><time>2026-04-19T09:58:14Z</time></trkpt><trkpt lat="43.36434591884943" lon="11.566173271335511"><ele>290.0</ele><time>2026-04-19T09:58:15Z</time></trkpt><trkpt lat="43.36453582572486" lon="11.566128806758021"><ele>290.0</ele><time>2026-04-19T09:58:16Z</time></trkpt><trkpt lat="43.36472981597947" lon="11.566089128206789"><ele>290.0</ele><time>2026-04-19T09:58:17Z</time></trkpt><trkpt lat="43.36492239438584" lon="11.566061672513957"><ele>290.0</ele><time>2026-04-19T09:58:18Z</time></trkpt><trkpt lat="43.36512241146742" lon="11.566037943648297"><ele>290.0</ele><time>2026-04-19T09:58:19Z</time></trkpt><trkpt lat="43.36532581955875" lon="11.566008823163898"><ele>290.0</ele><time>2026-04-19T09:58:20Z</time></trkpt><trkpt lat="43.365534964419695" lon="11.565976268185478"><ele>290.0</ele><time>2026-04-19T09:58:21Z</time></trkpt><trkpt lat="43.365748958000296" lon="11.565946044800217"><ele>290.0</ele><time>2026-04-19T09:58:22Z</time></trkpt><trkpt lat="43.365962920844275" lon="11.565912851555304"><ele>290.0</ele><time>2026-04-19T09:58:23Z</time></trkpt><trkpt lat="43.36617995014047" lon="11.565882118065614"><ele>289.33333333333337</ele><time>2026-04-19T09:58:24Z</time></trkpt><trkpt lat="43.366401620612294" lon="11.565852173051839"><ele>288.6666666666667</ele><time>2026-04-19T09:58:25Z</time></trkpt><trkpt lat="43.36661483360229" lon="11.56582456084681"><ele>288.0</ele><time>2026-04-19T09:58:26Z</time></trkpt><trkpt lat="43.36682168623888" lon="11.565793014557633"><ele>288.0</ele><time>2026-04-19T09:58:27Z</time></trkpt><trkpt lat="43.36703409021285" lon="11.565759443535933"><ele>288.0</ele><time>2026-04-19T09:58:28Z</time></trkpt><trkpt lat="43.36725004133639" lon="11.565724428700689"><ele>288.0</ele><time>2026-04-19T09:58:29Z</time></trkpt><trkpt lat="43.367463271423155" lon="11.565690930413382"><ele>287.3333333333333</ele><time>2026-04-19T09:58:30Z</time></trkpt><trkpt lat="43.36767383884522" lon="11.565662123446405"><ele>286.66666666666663</ele><time>2026-04-19T09:58:31Z</time></trkpt><trkpt lat="43.36788769193838" lon="11.565631821972051"><ele>286.0</ele><time>2026-04-19T09:58:32Z</time></trkpt><trkpt lat="43.36810756220462" lon="11.565598983931046"><ele>285.3333333333333</ele><time>2026-04-19T09:58:33Z</time></trkpt><trkpt lat="43.36832547374402" lon="11.565565915795084"><ele>284.6666666666667</ele><time>2026-04-19T09:58:34Z</time></trkpt><trkpt lat="43.36853945843554" lon="11.565533725808328"><ele>284.0</ele><time>2026-04-19T09:58:35Z</time></trkpt><trkpt lat="43.368751874868046" lon="11.56550041522127"><ele>284.6666666666667</ele><time>2026-04-19T09:58:36Z</time></trkpt><trkpt lat="43.368960668247674" lon="11.565468712628274"><ele>285.3333333333333</ele><time>2026-04-19T09:58:37Z</time></trkpt><trkpt lat="43.369167499737465" lon="11.565435307259618"><ele>286.0</ele><time>2026-04-19T09:58:38Z</time></trkpt><trkpt lat="43.36936304829417" lon="11.565407825367155"><ele>286.0</ele><time>2026-04-19T09:58:39Z</time></trkpt><trkpt lat="43.369548570043044" lon="11.565383039205182"><ele>286.0</ele><time>2026-04-19T09:58:40Z</time></trkpt><trkpt lat="43.369732984239285" lon="11.565357751297503"><ele>286.0</ele><time>2026-04-19T09:58:41Z</time></trkpt><trkpt lat="43.369922125270286" lon="11.565328892273799"><ele>287.0</ele><time>2026-04-19T09:58:42Z</time></trkpt><trkpt lat="43.37011247049056" lon="11.565299026187626"><ele>288.0</ele><time>2026-04-19T09:58:43Z</time></trkpt><trkpt lat="43.370310971637274" lon="11.565269183411916"><ele>289.0</ele><time>2026-04-19T09:58:44Z</time></trkpt><trkpt lat="43.37051566606294" lon="11.565238288734394"><ele>288.3333333333333</ele><time>2026-04-19T09:58:45Z</time></trkpt><trkpt lat="43.370728342394386" lon="11.565210352229307"><ele>287.6666666666667</ele><time>2026-04-19T09:58:46Z</time></trkpt><trkpt lat="43.370940586082234" lon="11.56517999994552"><ele>287.0</ele><time>2026-04-19T09:58:47Z</time></trkpt><trkpt lat="43.37114516361659" lon="11.565147957867755"><ele>287.0</ele><time>2026-04-19T09:58:48Z</time></trkpt><trkpt lat="43.37134421508956" lon="11.565113887463413"><ele>287.0</ele><time>2026-04-19T09:58:49Z</time></trkpt><trkpt lat="43.37154591676429" lon="11.565082154106522"><ele>287.0</ele><time>2026-04-19T09:58:50Z</time></trkpt><trkpt lat="43.371743639204155" lon="11.565052328275476"><ele>285.33333333333337</ele><time>2026-04-19T09:58:51Z</time></trkpt><trkpt lat="43.37192694740852" lon="11.565024417676971"><ele>283.6666666666667</ele><time>2026-04-19T09:58:52Z</time></trkpt><trkpt lat="43.372090494929985" lon="11.56499626008316"><ele>282.0</ele><time>2026-04-19T09:58:53Z</time></trkpt><trkpt lat="43.37224010251919" lon="11.56497099899191"><ele>281.5</ele><time>2026-04-19T09:58:54Z</time></trkpt><trkpt lat="43.37237238928266" lon="11.564953504496845"><ele>281.0</ele><time>2026-04-19T09:58:55Z</time></trkpt><trkpt lat="43.372508938175606" lon="11.564938947443466"><ele>280.5</ele><time>2026-04-19T09:58:56Z</time></trkpt><trkpt lat="43.37263189366196" lon="11.564922623283296"><ele>280.0</ele><time>2026-04-19T09:58:57Z</time></trkpt><trkpt lat="43.37274137920922" lon="11.564906897634684"><ele>280.0</ele><time>2026-04-19T09:58:58Z</time></trkpt><trkpt lat="43.37284015429731" lon="11.564894785001679"><ele>280.0</ele><time>2026-04-19T09:58:59Z</time></trkpt><trkpt lat="43.372928086676616" lon="11.56488132545171"><ele>280.0</ele><time>2026-04-19T09:59:00Z</time></trkpt><trkpt lat="43.37301355430502" lon="11.564871499205319"><ele>280.0</ele><time>2026-04-19T09:59:01Z</time></trkpt><trkpt lat="43.373100050227166" lon="11.564860041412556"><ele>280.0</ele><time>2026-04-19T09:59:02Z</time></trkpt><trkpt lat="43.37318640351969" lon="11.564848600816433"><ele>280.0</ele><time>2026-04-19T09:59:03Z</time></trkpt><trkpt lat="43.37328750846464" lon="11.56483411188107"><ele>280.0</ele><time>2026-04-19T09:59:04Z</time></trkpt><trkpt lat="43.37339472863968" lon="11.564818422413913"><ele>280.0</ele><time>2026-04-19T09:59:05Z</time></trkpt><trkpt lat="43.37350135003797" lon="11.56480489624627"><ele>280.0</ele><time>2026-04-19T09:59:06Z</time></trkpt><trkpt lat="43.37361321880661" lon="11.56478652794875"><ele>280.0</ele><time>2026-04-19T09:59:07Z</time></trkpt><trkpt lat="43.37370974263905" lon="11.564772693676643"><ele>280.0</ele><time>2026-04-19T09:59:08Z</time></trkpt><trkpt lat="43.37378353937791" lon="11.56476303976575"><ele>280.0</ele><time>2026-04-19T09:59:09Z</time></trkpt><trkpt lat="43.373853361387766" lon="11.564754543159108"><ele>280.0</ele><time>2026-04-19T09:59:10Z</time></trkpt><trkpt lat="43.37391674401745" lon="11.564743073638429"><ele>280.0</ele><time>2026-04-19T09:59:11Z</time></trkpt><trkpt lat="43.37404089028166" lon="11.564721786436886"><ele>280.0</ele><time>2026-04-19T09:59:13Z</time></trkpt><trkpt lat="43.37410544858725" lon="11.56471469001199"><ele>280.0</ele><time>2026-04-19T09:59:14Z</time></trkpt><trkpt lat="43.37423291903813" lon="11.564696773933575"><ele>279.16666666666663</ele><time>2026-04-19T09:59:16Z</time></trkpt><trkpt lat="43.37430764569504" lon="11.564687175192262"><ele>278.3333333333333</ele><time>2026-04-19T09:59:17Z</time></trkpt><trkpt lat="43.37438248323058" lon="11.564675487124132"><ele>277.5</ele><time>2026-04-19T09:59:18Z</time></trkpt><trkpt lat="43.37446180965713" lon="11.56466410531085"><ele>276.6666666666667</ele><time>2026-04-19T09:59:19Z</time></trkpt><trkpt lat="43.37454426102627" lon="11.564655428686406"><ele>275.83333333333337</ele><time>2026-04-19T09:59:20Z</time></trkpt><trkpt lat="43.374633461243484" lon="11.564645646806254"><ele>275.0</ele><time>2026-04-19T09:59:21Z</time></trkpt><trkpt lat="43.37472642144712" lon="11.564638788888734"><ele>273.8</ele><time>2026-04-19T09:59:22Z</time></trkpt><trkpt lat="43.37482320699216" lon="11.564641679801602"><ele>272.6</ele><time>2026-04-19T09:59:23Z</time></trkpt><trkpt lat="43.374909891780405" lon="11.564653464508133"><ele>271.4</ele><time>2026-04-19T09:59:24Z</time></trkpt><trkpt lat="43.37499935465902" lon="11.564675267963015"><ele>270.2</ele><time>2026-04-19T09:59:25Z</time></trkpt><trkpt lat="43.375097299463086" lon="11.564714235247171"><ele>269.0</ele><time>2026-04-19T09:59:26Z</time></trkpt><trkpt lat="43.37519181203153" lon="11.56475960143658"><ele>269.0</ele><time>2026-04-19T09:59:27Z</time></trkpt><trkpt lat="43.37527317165888" lon="11.564806631051948"><ele>269.0</ele><time>2026-04-19T09:59:28Z</time></trkpt><trkpt lat="43.375354696787035" lon="11.564859026979706"><ele>269.0</ele><time>2026-04-19T09:59:29Z</time></trkpt><trkpt lat="43.37544050138378" lon="11.56492087265197"><ele>269.0</ele><time>2026-04-19T09:59:30Z</time></trkpt><trkpt lat="43.37553961061392" lon="11.56499807456128"><ele>269.0</ele><time>2026-04-19T09:59:31Z</time></trkpt><trkpt lat="43.37564940527669" lon="11.565086045506064"><ele>269.75</ele><time>2026-04-19T09:59:32Z</time></trkpt><trkpt lat="43.375762723175285" lon="11.565178648960154"><ele>270.5</ele><time>2026-04-19T09:59:33Z</time></trkpt><trkpt lat="43.37588769182033" lon="11.565272176255805"><ele>271.25</ele><time>2026-04-19T09:59:34Z</time></trkpt><trkpt lat="43.37601224830246" lon="11.565369805732285"><ele>272.0</ele><time>2026-04-19T09:59:35Z</time></trkpt><trkpt lat="43.37613119459855" lon="11.565472871547643"><ele>272.0</ele><time>2026-04-19T09:59:36Z</time></trkpt><trkpt lat="43.3762549832315" lon="11.565571498294762"><ele>272.0</ele><time>2026-04-19T09:59:37Z</time></trkpt><trkpt lat="43.3763809370768" lon="11.56567132190953"><ele>272.0</ele><time>2026-04-19T09:59:38Z</time></trkpt><trkpt lat="43.37651711469456" lon="11.56577391183553"><ele>272.0</ele><time>2026-04-19T09:59:39Z</time></trkpt><trkpt lat="43.37665872747224" lon="11.565878945266165"><ele>272.6666666666667</ele><time>2026-04-19T09:59:40Z</time></trkpt><trkpt lat="43.3767954737196" lon="11.565972779908213"><ele>273.3333333333333</ele><time>2026-04-19T09:59:41Z</time></trkpt><trkpt lat="43.376938921860535" lon="11.566048172787413"><ele>274.0</ele><time>2026-04-19T09:59:42Z</time></trkpt><trkpt lat="43.37709366592281" lon="11.566102241694665"><ele>273.0</ele><time>2026-04-19T09:59:43Z</time></trkpt><trkpt lat="43.377259326405614" lon="11.566134959249522"><ele>272.0</ele><time>2026-04-19T09:59:44Z</time></trkpt><trkpt lat="43.377432582451235" lon="11.56613652832001"><ele>271.0</ele><time>2026-04-19T09:59:45Z</time></trkpt><trkpt lat="43.37760902722959" lon="11.566109490545614"><ele>271.0</ele><time>2026-04-19T09:59:46Z</time></trkpt><trkpt lat="43.37778771307939" lon="11.566069537534998"><ele>271.0</ele><time>2026-04-19T09:59:47Z</time></trkpt><trkpt lat="43.377958611061466" lon="11.566012166590774"><ele>271.0</ele><time>2026-04-19T09:59:48Z</time></trkpt><trkpt lat="43.37813060197076" lon="11.565948930263163"><ele>271.0</ele><time>2026-04-19T09:59:49Z</time></trkpt><trkpt lat="43.37830567897122" lon="11.56588910631391"><ele>271.0</ele><time>2026-04-19T09:59:50Z</time></trkpt><trkpt lat="43.3784796033992" lon="11.565829988102585"><ele>271.0</ele><time>2026-04-19T09:59:51Z</time></trkpt><trkpt lat="43.37865435825699" lon="11.565773403848635"><ele>271.0</ele><time>2026-04-19T09:59:52Z</time></trkpt><trkpt lat="43.378824268143134" lon="11.565716836679869"><ele>271.0</ele><time>2026-04-19T09:59:53Z</time></trkpt><trkpt lat="43.378998805879505" lon="11.56567103694408"><ele>271.0</ele><time>2026-04-19T09:59:54Z</time></trkpt><trkpt lat="43.37916337537695" lon="11.565604089415455"><ele>270.0</ele><time>2026-04-19T09:59:55Z</time></trkpt><trkpt lat="43.37932788256577" lon="11.565551044186966"><ele>269.0</ele><time>2026-04-19T09:59:56Z</time></trkpt><trkpt lat="43.379493873462955" lon="11.565494231209962"><ele>268.0</ele><time>2026-04-19T09:59:57Z</time></trkpt><trkpt lat="43.37965881588284" lon="11.565438921300212"><ele>268.0</ele><time>2026-04-19T09:59:58Z</time></trkpt><trkpt lat="43.37981777242068" lon="11.565385734994381"><ele>268.0</ele><time>2026-04-19T09:59:59Z</time></trkpt><trkpt lat="43.379977615571825" lon="11.565331330516742"><ele>268.0</ele><time>2026-04-19T10:00:00Z</time></trkpt><trkpt lat="43.380148398877594" lon="11.565271842439627"><ele>268.0</ele><time>2026-04-19T10:00:01Z</time></trkpt><trkpt lat="43.380322546022796" lon="11.565215979050423"><ele>268.0</ele><time>2026-04-19T10:00:02Z</time></trkpt><trkpt lat="43.38049794998746" lon="11.565160942708923"><ele>268.0</ele><time>2026-04-19T10:00:03Z</time></trkpt><trkpt lat="43.380672556012996" lon="11.565104200140787"><ele>267.3333333333333</ele><time>2026-04-19T10:00:04Z</time></trkpt><trkpt lat="43.38084999254068" lon="11.565045861889143"><ele>266.6666666666667</ele><time>2026-04-19T10:00:05Z</time></trkpt><trkpt lat="43.38102046312016" lon="11.564988827529787"><ele>266.0</ele><time>2026-04-19T10:00:06Z</time></trkpt><trkpt lat="43.38118241155462" lon="11.564931612125585"><ele>266.0</ele><time>2026-04-19T10:00:07Z</time></trkpt><trkpt lat="43.38133490697955" lon="11.564877761354659"><ele>266.0</ele><time>2026-04-19T10:00:08Z</time></trkpt><trkpt lat="43.38148230362617" lon="11.56483137933037"><ele>266.0</ele><time>2026-04-19T10:00:09Z</time></trkpt><trkpt lat="43.38162262157773" lon="11.564800194094719"><ele>265.6666666666667</ele><time>2026-04-19T10:00:10Z</time></trkpt><trkpt lat="43.381773633091434" lon="11.564787850723224"><ele>265.3333333333333</ele><time>2026-04-19T10:00:11Z</time></trkpt><trkpt lat="43.3819340605713" lon="11.56481131670039"><ele>265.0</ele><time>2026-04-19T10:00:12Z</time></trkpt><trkpt lat="43.38209816524794" lon="11.564881256518754"><ele>265.0</ele><time>2026-04-19T10:00:13Z</time></trkpt><trkpt lat="43.382256970003866" lon="11.564992040585112"><ele>265.0</ele><time>2026-04-19T10:00:14Z</time></trkpt><trkpt lat="43.38241008091649" lon="11.565137714395654"><ele>265.0</ele><time>2026-04-19T10:00:15Z</time></trkpt><trkpt lat="43.38255399883134" lon="11.565315375159146"><ele>264.3333333333333</ele><time>2026-04-19T10:00:16Z</time></trkpt><trkpt lat="43.38269211756305" lon="11.565503726258203"><ele>263.6666666666667</ele><time>2026-04-19T10:00:17Z</time></trkpt><trkpt lat="43.382828094651494" lon="11.5657000492738"><ele>263.0</ele><time>2026-04-19T10:00:18Z</time></trkpt><trkpt lat="43.38296712218984" lon="11.565888838571901"><ele>263.33333333333337</ele><time>2026-04-19T10:00:19Z</time></trkpt><trkpt lat="43.383103094806486" lon="11.566070920691232"><ele>263.6666666666667</ele><time>2026-04-19T10:00:20Z</time></trkpt><trkpt lat="43.38323960798942" lon="11.566254222894917"><ele>264.0</ele><time>2026-04-19T10:00:21Z</time></trkpt><trkpt lat="43.383377387519474" lon="11.566438994901512"><ele>264.0</ele><time>2026-04-19T10:00:22Z</time></trkpt><trkpt lat="43.38351387306454" lon="11.566630563072493"><ele>264.0</ele><time>2026-04-19T10:00:23Z</time></trkpt><trkpt lat="43.383654427205464" lon="11.56682621001339"><ele>264.0</ele><time>2026-04-19T10:00:24Z</time></trkpt><trkpt lat="43.383799447474495" lon="11.5670232259535"><ele>264.3333333333333</ele><time>2026-04-19T10:00:25Z</time></trkpt><trkpt lat="43.38394630752616" lon="11.567223407082174"><ele>264.66666666666663</ele><time>2026-04-19T10:00:26Z</time></trkpt><trkpt lat="43.38409194000935" lon="11.567422927462006"><ele>265.0</ele><time>2026-04-19T10:00:27Z</time></trkpt><trkpt lat="43.38423589808033" lon="11.567618714075357"><ele>265.0</ele><time>2026-04-19T10:00:28Z</time></trkpt><trkpt lat="43.384377571926784" lon="11.567811724075792"><ele>265.0</ele><time>2026-04-19T10:00:29Z</time></trkpt><trkpt lat="43.384519635779505" lon="11.568009955679123"><ele>265.0</ele><time>2026-04-19T10:00:30Z</time></trkpt><trkpt lat="43.38465477969901" lon="11.568190698081109"><ele>266.3333333333333</ele><time>2026-04-19T10:00:31Z</time></trkpt><trkpt lat="43.384784919542696" lon="11.568368703418773"><ele>267.6666666666667</ele><time>2026-04-19T10:00:32Z</time></trkpt><trkpt lat="43.384911227131276" lon="11.568537917038059"><ele>269.0</ele><time>2026-04-19T10:00:33Z</time></trkpt><trkpt lat="43.38503200114483" lon="11.568701248162759"><ele>269.0</ele><time>2026-04-19T10:00:34Z</time></trkpt><trkpt lat="43.38514936328381" lon="11.568865124622704"><ele>269.0</ele><time>2026-04-19T10:00:35Z</time></trkpt><trkpt lat="43.385270058886334" lon="11.56902632180866"><ele>269.0</ele><time>2026-04-19T10:00:36Z</time></trkpt><trkpt lat="43.38539478611402" lon="11.569194773692058"><ele>269.33333333333337</ele><time>2026-04-19T10:00:37Z</time></trkpt><trkpt lat="43.38552606189244" lon="11.569370155954832"><ele>269.6666666666667</ele><time>2026-04-19T10:00:38Z</time></trkpt><trkpt lat="43.385660340800115" lon="11.569553138440282"><ele>270.0</ele><time>2026-04-19T10:00:39Z</time></trkpt><trkpt lat="43.385790235673404" lon="11.569733468072675"><ele>268.6666666666667</ele><time>2026-04-19T10:00:40Z</time></trkpt><trkpt lat="43.385921667203974" lon="11.569915355889902"><ele>267.33333333333337</ele><time>2026-04-19T10:00:41Z</time></trkpt><trkpt lat="43.38605656446916" lon="11.570097075388151"><ele>266.0</ele><time>2026-04-19T10:00:42Z</time></trkpt><trkpt lat="43.386194960699164" lon="11.570279200392626"><ele>265.33333333333337</ele><time>2026-04-19T10:00:43Z</time></trkpt><trkpt lat="43.38633023350111" lon="11.570462336089639"><ele>264.6666666666667</ele><time>2026-04-19T10:00:44Z</time></trkpt><trkpt lat="43.386467392525454" lon="11.570647687418846"><ele>264.0</ele><time>2026-04-19T10:00:45Z</time></trkpt><trkpt lat="43.386606518390366" lon="11.570840814514574"><ele>263.3333333333333</ele><time>2026-04-19T10:00:46Z</time></trkpt><trkpt lat="43.38675051634935" lon="11.571038766817278"><ele>262.66666666666663</ele><time>2026-04-19T10:00:47Z</time></trkpt><trkpt lat="43.38689159799029" lon="11.5712245824899"><ele>262.0</ele><time>2026-04-19T10:00:48Z</time></trkpt><trkpt lat="43.387034541993344" lon="11.57141531940726"><ele>261.3333333333333</ele><time>2026-04-19T10:00:49Z</time></trkpt><trkpt lat="43.38717948568343" lon="11.571612011058713"><ele>260.6666666666667</ele><time>2026-04-19T10:00:50Z</time></trkpt><trkpt lat="43.387319383947215" lon="11.571812465114464"><ele>260.0</ele><time>2026-04-19T10:00:51Z</time></trkpt><trkpt lat="43.387457827801406" lon="11.572004020857866"><ele>260.33333333333337</ele><time>2026-04-19T10:00:52Z</time></trkpt><trkpt lat="43.38759765514964" lon="11.57218618174241"><ele>260.6666666666667</ele><time>2026-04-19T10:00:53Z</time></trkpt><trkpt lat="43.38772906184384" lon="11.572362399114681"><ele>261.0</ele><time>2026-04-19T10:00:54Z</time></trkpt><trkpt lat="43.38785001307812" lon="11.572527033225047"><ele>261.0</ele><time>2026-04-19T10:00:55Z</time></trkpt><trkpt lat="43.387965843136655" lon="11.572684755419338"><ele>261.0</ele><time>2026-04-19T10:00:56Z</time></trkpt><trkpt lat="43.38807931060546" lon="11.572836873388997"><ele>261.0</ele><time>2026-04-19T10:00:57Z</time></trkpt><trkpt lat="43.38819505005842" lon="11.572994332137732"><ele>260.3333333333333</ele><time>2026-04-19T10:00:58Z</time></trkpt><trkpt lat="43.38831071032371" lon="11.573154527341769"><ele>259.66666666666663</ele><time>2026-04-19T10:00:59Z</time></trkpt><trkpt lat="43.38842819730557" lon="11.573319018635456"><ele>259.0</ele><time>2026-04-19T10:01:00Z</time></trkpt><trkpt lat="43.38854652853296" lon="11.57348319399153"><ele>259.0</ele><time>2026-04-19T10:01:01Z</time></trkpt><trkpt lat="43.3886684302528" lon="11.573646929801107"><ele>259.0</ele><time>2026-04-19T10:01:02Z</time></trkpt><trkpt lat="43.388790595209635" lon="11.573810498958446"><ele>259.0</ele><time>2026-04-19T10:01:03Z</time></trkpt><trkpt lat="43.388914386261845" lon="11.573979884614035"><ele>259.0</ele><time>2026-04-19T10:01:04Z</time></trkpt><trkpt lat="43.38904199714585" lon="11.574151009831095"><ele>259.0</ele><time>2026-04-19T10:01:05Z</time></trkpt><trkpt lat="43.38916907730132" lon="11.574324680940384"><ele>259.0</ele><time>2026-04-19T10:01:06Z</time></trkpt><trkpt lat="43.38929803521168" lon="11.574500279961521"><ele>259.3333333333333</ele><time>2026-04-19T10:01:07Z</time></trkpt><trkpt lat="43.389427726059964" lon="11.574679029032374"><ele>259.6666666666667</ele><time>2026-04-19T10:01:08Z</time></trkpt><trkpt lat="43.38955824788187" lon="11.574855729625453"><ele>260.0</ele><time>2026-04-19T10:01:09Z</time></trkpt><trkpt lat="43.38969106375116" lon="11.575033657669687"><ele>260.0</ele><time>2026-04-19T10:01:10Z</time></trkpt><trkpt lat="43.3898242422067" lon="11.57521287745895"><ele>260.0</ele><time>2026-04-19T10:01:11Z</time></trkpt><trkpt lat="43.38995615138114" lon="11.575392092420197"><ele>260.0</ele><time>2026-04-19T10:01:12Z</time></trkpt><trkpt lat="43.390087678566466" lon="11.5755768824963"><ele>260.33333333333337</ele><time>2026-04-19T10:01:13Z</time></trkpt><trkpt lat="43.39021563199082" lon="11.57576213658663"><ele>260.6666666666667</ele><time>2026-04-19T10:01:14Z</time></trkpt><trkpt lat="43.39033090093953" lon="11.575938100481068"><ele>261.0</ele><time>2026-04-19T10:01:15Z</time></trkpt><trkpt lat="43.39042925412354" lon="11.576117940665167"><ele>260.6666666666667</ele><time>2026-04-19T10:01:16Z</time></trkpt><trkpt lat="43.39050738094805" lon="11.576300847917881"><ele>260.33333333333337</ele><time>2026-04-19T10:01:17Z</time></trkpt><trkpt lat="43.390572376418504" lon="11.57648994534274"><ele>260.0</ele><time>2026-04-19T10:01:18Z</time></trkpt><trkpt lat="43.39064232702747" lon="11.576695857518304"><ele>260.0</ele><time>2026-04-19T10:01:19Z</time></trkpt><trkpt lat="43.390726243495756" lon="11.576905106027072"><ele>260.0</ele><time>2026-04-19T10:01:20Z</time></trkpt><trkpt lat="43.39081406002372" lon="11.577122793293132"><ele>260.0</ele><time>2026-04-19T10:01:21Z</time></trkpt><trkpt lat="43.39089595708311" lon="11.577335788199447"><ele>260.33333333333337</ele><time>2026-04-19T10:01:22Z</time></trkpt><trkpt lat="43.39097386026168" lon="11.577548536479103"><ele>260.6666666666667</ele><time>2026-04-19T10:01:23Z</time></trkpt><trkpt lat="43.39105365143262" lon="11.57775978369308"><ele>261.0</ele><time>2026-04-19T10:01:24Z</time></trkpt><trkpt lat="43.391130564073954" lon="11.577961784835473"><ele>260.3333333333333</ele><time>2026-04-19T10:01:25Z</time></trkpt><trkpt lat="43.39120572135397" lon="11.578154464274265"><ele>259.66666666666663</ele><time>2026-04-19T10:01:26Z</time></trkpt><trkpt lat="43.391277758172706" lon="11.578338904019535"><ele>259.0</ele><time>2026-04-19T10:01:27Z</time></trkpt><trkpt lat="43.391347308687756" lon="11.57851805376925"><ele>259.75</ele><time>2026-04-19T10:01:28Z</time></trkpt><trkpt lat="43.3914115252241" lon="11.578684593080764"><ele>260.5</ele><time>2026-04-19T10:01:29Z</time></trkpt><trkpt lat="43.39147455121061" lon="11.578855730415814"><ele>261.25</ele><time>2026-04-19T10:01:30Z</time></trkpt><trkpt lat="43.39154183316349" lon="11.579046133410166"><ele>262.0</ele><time>2026-04-19T10:01:31Z</time></trkpt><trkpt lat="43.39160516935173" lon="11.579251553934833"><ele>262.0</ele><time>2026-04-19T10:01:32Z</time></trkpt><trkpt lat="43.391663239920945" lon="11.579470118500089"><ele>262.0</ele><time>2026-04-19T10:01:33Z</time></trkpt><trkpt lat="43.391717097950064" lon="11.579689206713105"><ele>262.0</ele><time>2026-04-19T10:01:34Z</time></trkpt><trkpt lat="43.39176634993516" lon="11.579898580587589"><ele>261.0</ele><time>2026-04-19T10:01:35Z</time></trkpt><trkpt lat="43.39181307955171" lon="11.580089191209295"><ele>260.0</ele><time>2026-04-19T10:01:36Z</time></trkpt><trkpt lat="43.391862374081306" lon="11.58027376507056"><ele>259.0</ele><time>2026-04-19T10:01:37Z</time></trkpt><trkpt lat="43.391914660138156" lon="11.580455502490791"><ele>258.0</ele><time>2026-04-19T10:01:38Z</time></trkpt><trkpt lat="43.39197034632814" lon="11.580635568995502"><ele>258.0</ele><time>2026-04-19T10:01:39Z</time></trkpt><trkpt lat="43.39201798682466" lon="11.580809727925423"><ele>258.0</ele><time>2026-04-19T10:01:40Z</time></trkpt><trkpt lat="43.3920614043306" lon="11.580970910701598"><ele>258.0</ele><time>2026-04-19T10:01:41Z</time></trkpt><trkpt lat="43.392101385360455" lon="11.581120610544433"><ele>258.0</ele><time>2026-04-19T10:01:42Z</time></trkpt><trkpt lat="43.39214108807286" lon="11.581266134038904"><ele>259.0</ele><time>2026-04-19T10:01:43Z</time></trkpt><trkpt lat="43.39218219986731" lon="11.581414828685743"><ele>260.0</ele><time>2026-04-19T10:01:44Z</time></trkpt><trkpt lat="43.392225928296675" lon="11.58156725834692"><ele>261.0</ele><time>2026-04-19T10:01:45Z</time></trkpt><trkpt lat="43.39227019372505" lon="11.581724672243666"><ele>262.0</ele><time>2026-04-19T10:01:46Z</time></trkpt><trkpt lat="43.39231468540023" lon="11.581887685435303"><ele>262.0</ele><time>2026-04-19T10:01:47Z</time></trkpt><trkpt lat="43.392361553521134" lon="11.582058134474465"><ele>262.0</ele><time>2026-04-19T10:01:48Z</time></trkpt><trkpt lat="43.39241159962253" lon="11.582240973931684"><ele>262.0</ele><time>2026-04-19T10:01:49Z</time></trkpt><trkpt lat="43.39246235083784" lon="11.582431360108552"><ele>262.0</ele><time>2026-04-19T10:01:50Z</time></trkpt><trkpt lat="43.392513586083346" lon="11.582620026029302"><ele>262.0</ele><time>2026-04-19T10:01:51Z</time></trkpt><trkpt lat="43.39256633047962" lon="11.582808876636769"><ele>262.0</ele><time>2026-04-19T10:01:52Z</time></trkpt><trkpt lat="43.39261282976899" lon="11.583002126614659"><ele>262.0</ele><time>2026-04-19T10:01:53Z</time></trkpt><trkpt lat="43.392640124653575" lon="11.583197940806956"><ele>262.0</ele><time>2026-04-19T10:01:54Z</time></trkpt><trkpt lat="43.39264889299775" lon="11.583400637329037"><ele>262.66666666666663</ele><time>2026-04-19T10:01:55Z</time></trkpt><trkpt lat="43.392624056064946" lon="11.583605213832367"><ele>263.3333333333333</ele><time>2026-04-19T10:01:56Z</time></trkpt><trkpt lat="43.39257160493112" lon="11.583809404101448"><ele>264.0</ele><time>2026-04-19T10:01:57Z</time></trkpt><trkpt lat="43.39250245969846" lon="11.58401477807897"><ele>264.3333333333333</ele><time>2026-04-19T10:01:58Z</time></trkpt><trkpt lat="43.392434752415056" lon="11.584216028334835"><ele>264.66666666666663</ele><time>2026-04-19T10:01:59Z</time></trkpt><trkpt lat="43.3923802624328" lon="11.584415889049259"><ele>265.0</ele><time>2026-04-19T10:02:00Z</time></trkpt><trkpt lat="43.3923409558867" lon="11.584616829974598"><ele>264.5</ele><time>2026-04-19T10:02:01Z</time></trkpt><trkpt lat="43.39231693051913" lon="11.584817119486127"><ele>264.0</ele><time>2026-04-19T10:02:02Z</time></trkpt><trkpt lat="43.39230433631198" lon="11.585017314024718"><ele>263.5</ele><time>2026-04-19T10:02:03Z</time></trkpt><trkpt lat="43.39230909302627" lon="11.585216364862148"><ele>263.0</ele><time>2026-04-19T10:02:04Z</time></trkpt><trkpt lat="43.392335880830494" lon="11.58540588077265"><ele>263.0</ele><time>2026-04-19T10:02:05.001Z</time></trkpt><trkpt lat="43.39238249015981" lon="11.585593905555534"><ele>263.0</ele><time>2026-04-19T10:02:06Z</time></trkpt><trkpt lat="43.39244656419857" lon="11.585783944620237"><ele>263.0</ele><time>2026-04-19T10:02:07Z</time></trkpt><trkpt lat="43.39252623167212" lon="11.585974492268969"><ele>263.0</ele><time>2026-04-19T10:02:08Z</time></trkpt><trkpt lat="43.39262391938544" lon="11.586159485353727"><ele>263.0</ele><time>2026-04-19T10:02:09Z</time></trkpt><trkpt lat="43.39274425356564" lon="11.586342476631197"><ele>263.0</ele><time>2026-04-19T10:02:10Z</time></trkpt><trkpt lat="43.39288386213695" lon="11.586512500648581"><ele>264.0</ele><time>2026-04-19T10:02:11Z</time></trkpt><trkpt lat="43.393036214868935" lon="11.58667269750189"><ele>265.0</ele><time>2026-04-19T10:02:12Z</time></trkpt><trkpt lat="43.39319086189656" lon="11.586840581662434"><ele>266.0</ele><time>2026-04-19T10:02:13Z</time></trkpt><trkpt lat="43.3933517235367" lon="11.587018877153241"><ele>264.0</ele><time>2026-04-19T10:02:14Z</time></trkpt><trkpt lat="43.393513565898864" lon="11.587194165255431"><ele>262.0</ele><time>2026-04-19T10:02:15Z</time></trkpt><trkpt lat="43.39367000756094" lon="11.587370536452704"><ele>260.0</ele><time>2026-04-19T10:02:16Z</time></trkpt><trkpt lat="43.39382283499507" lon="11.587539055154075"><ele>260.33333333333337</ele><time>2026-04-19T10:02:17Z</time></trkpt><trkpt lat="43.39396567674291" lon="11.587698463384173"><ele>260.6666666666667</ele><time>2026-04-19T10:02:18Z</time></trkpt><trkpt lat="43.3941079936384" lon="11.587851047671593"><ele>261.0</ele><time>2026-04-19T10:02:19Z</time></trkpt><trkpt lat="43.394237566510405" lon="11.588004463697178"><ele>260.0</ele><time>2026-04-19T10:02:20Z</time></trkpt><trkpt lat="43.39435176000836" lon="11.588182854665199"><ele>259.0</ele><time>2026-04-19T10:02:21Z</time></trkpt><trkpt lat="43.39445197660871" lon="11.588398332185744"><ele>258.0</ele><time>2026-04-19T10:02:22Z</time></trkpt><trkpt lat="43.394536354279644" lon="11.588639770424074"><ele>257.3333333333333</ele><time>2026-04-19T10:02:23Z</time></trkpt><trkpt lat="43.39462055321002" lon="11.588887732216183"><ele>256.66666666666663</ele><time>2026-04-19T10:02:24Z</time></trkpt><trkpt lat="43.394707776897015" lon="11.589129952700802"><ele>256.0</ele><time>2026-04-19T10:02:25Z</time></trkpt><trkpt lat="43.39479789760608" lon="11.589371046166269"><ele>255.66666666666666</ele><time>2026-04-19T10:02:26Z</time></trkpt><trkpt lat="43.39488523651273" lon="11.589606962001069"><ele>255.33333333333331</ele><time>2026-04-19T10:02:27Z</time></trkpt><trkpt lat="43.39497356385089" lon="11.589839188808112"><ele>255.0</ele><time>2026-04-19T10:02:28Z</time></trkpt><trkpt lat="43.39505711223789" lon="11.590064594030329"><ele>255.0</ele><time>2026-04-19T10:02:29Z</time></trkpt><trkpt lat="43.39514163103325" lon="11.590285792708514"><ele>255.0</ele><time>2026-04-19T10:02:30Z</time></trkpt><trkpt lat="43.39522576057589" lon="11.590501838905569"><ele>255.0</ele><time>2026-04-19T10:02:31Z</time></trkpt><trkpt lat="43.395310166523" lon="11.590702357543215"><ele>255.66666666666669</ele><time>2026-04-19T10:02:32Z</time></trkpt><trkpt lat="43.39540171009584" lon="11.590880338048612"><ele>256.33333333333337</ele><time>2026-04-19T10:02:33Z</time></trkpt><trkpt lat="43.39550943102097" lon="11.591046867060935"><ele>257.0</ele><time>2026-04-19T10:02:34Z</time></trkpt><trkpt lat="43.39563543160883" lon="11.591201552693365"><ele>257.33333333333337</ele><time>2026-04-19T10:02:35Z</time></trkpt><trkpt lat="43.395771858094484" lon="11.591330693495921"><ele>257.6666666666667</ele><time>2026-04-19T10:02:36Z</time></trkpt><trkpt lat="43.39591967686571" lon="11.591439114362014"><ele>258.0</ele><time>2026-04-19T10:02:37Z</time></trkpt><trkpt lat="43.396080701848376" lon="11.591533040410773"><ele>258.0</ele><time>2026-04-19T10:02:38Z</time></trkpt><trkpt lat="43.3962509506148" lon="11.591614642563314"><ele>258.0</ele><time>2026-04-19T10:02:39Z</time></trkpt><trkpt lat="43.39643366657886" lon="11.591672741555216"><ele>258.0</ele><time>2026-04-19T10:02:40Z</time></trkpt><trkpt lat="43.39661466625227" lon="11.591728051774242"><ele>259.3333333333333</ele><time>2026-04-19T10:02:41Z</time></trkpt><trkpt lat="43.39678510981543" lon="11.591786210042368"><ele>260.66666666666663</ele><time>2026-04-19T10:02:42Z</time></trkpt><trkpt lat="43.39693916563726" lon="11.591836177929526"><ele>262.0</ele><time>2026-04-19T10:02:43Z</time></trkpt><trkpt lat="43.397085289928526" lon="11.591881697699414"><ele>262.5</ele><time>2026-04-19T10:02:44Z</time></trkpt><trkpt lat="43.39722527872557" lon="11.59192411159042"><ele>263.0</ele><time>2026-04-19T10:02:45Z</time></trkpt><trkpt lat="43.39737008278399" lon="11.591968263649186"><ele>263.5</ele><time>2026-04-19T10:02:46Z</time></trkpt><trkpt lat="43.397517610718" lon="11.592016577138319"><ele>264.0</ele><time>2026-04-19T10:02:47Z</time></trkpt><trkpt lat="43.397660557354214" lon="11.592065151917069"><ele>263.0</ele><time>2026-04-19T10:02:48Z</time></trkpt><trkpt lat="43.39780249698523" lon="11.592114863665746"><ele>262.0</ele><time>2026-04-19T10:02:49Z</time></trkpt><trkpt lat="43.39794637268996" lon="11.592167781779654"><ele>261.0</ele><time>2026-04-19T10:02:50Z</time></trkpt><trkpt lat="43.39809333138707" lon="11.592221220694046"><ele>260.0</ele><time>2026-04-19T10:02:51Z</time></trkpt><trkpt lat="43.398249274465215" lon="11.592276406166755"><ele>259.6666666666667</ele><time>2026-04-19T10:02:52Z</time></trkpt><trkpt lat="43.398400584934066" lon="11.592330206302545"><ele>259.3333333333333</ele><time>2026-04-19T10:02:53Z</time></trkpt><trkpt lat="43.39855754340544" lon="11.59238481631865"><ele>259.0</ele><time>2026-04-19T10:02:54Z</time></trkpt><trkpt lat="43.39871800743045" lon="11.59243844272335"><ele>258.0</ele><time>2026-04-19T10:02:55Z</time></trkpt><trkpt lat="43.398879765565795" lon="11.592489413980013"><ele>257.0</ele><time>2026-04-19T10:02:56Z</time></trkpt><trkpt lat="43.39905033821712" lon="11.592543407659925"><ele>256.0</ele><time>2026-04-19T10:02:57Z</time></trkpt><trkpt lat="43.39922244346307" lon="11.592606260473751"><ele>256.0</ele><time>2026-04-19T10:02:58Z</time></trkpt><trkpt lat="43.39939097319699" lon="11.59267166635222"><ele>256.0</ele><time>2026-04-19T10:02:59Z</time></trkpt><trkpt lat="43.39956073620757" lon="11.592737768525849"><ele>256.0</ele><time>2026-04-19T10:03:00Z</time></trkpt><trkpt lat="43.399728136398764" lon="11.592799102361315"><ele>255.33333333333331</ele><time>2026-04-19T10:03:01Z</time></trkpt><trkpt lat="43.39989106563955" lon="11.592857045187388"><ele>254.66666666666669</ele><time>2026-04-19T10:03:02Z</time></trkpt><trkpt lat="43.40004545639519" lon="11.592912510997756"><ele>254.0</ele><time>2026-04-19T10:03:03Z</time></trkpt><trkpt lat="43.400196210835084" lon="11.592964689780866"><ele>254.0</ele><time>2026-04-19T10:03:04Z</time></trkpt><trkpt lat="43.40034441353501" lon="11.593012639043526"><ele>254.0</ele><time>2026-04-19T10:03:05Z</time></trkpt><trkpt lat="43.40048179796956" lon="11.593058948223078"><ele>254.0</ele><time>2026-04-19T10:03:06Z</time></trkpt><trkpt lat="43.40060749963844" lon="11.593105731423849"><ele>254.0</ele><time>2026-04-19T10:03:07Z</time></trkpt><trkpt lat="43.40071810407766" lon="11.593160014623532"><ele>254.0</ele><time>2026-04-19T10:03:08Z</time></trkpt><trkpt lat="43.40081544622089" lon="11.593227119951074"><ele>253.99999999999997</ele><time>2026-04-19T10:03:09Z</time></trkpt><trkpt lat="43.40090621339487" lon="11.593290285490868"><ele>253.99999999999997</ele><time>2026-04-19T10:03:10Z</time></trkpt><trkpt lat="43.400993040206096" lon="11.593316610889667"><ele>254.0</ele><time>2026-04-19T10:03:11Z</time></trkpt><trkpt lat="43.401095174398684" lon="11.593322128996705"><ele>254.0</ele><time>2026-04-19T10:03:12Z</time></trkpt><trkpt lat="43.40121211603998" lon="11.593329071109093"><ele>254.66666666666669</ele><time>2026-04-19T10:03:13Z</time></trkpt><trkpt lat="43.401350849569205" lon="11.593353829264037"><ele>255.33333333333331</ele><time>2026-04-19T10:03:14Z</time></trkpt><trkpt lat="43.401496174683004" lon="11.593405079682094"><ele>256.0</ele><time>2026-04-19T10:03:15Z</time></trkpt><trkpt lat="43.401656933162265" lon="11.593458899706006"><ele>256.0</ele><time>2026-04-19T10:03:16Z</time></trkpt><trkpt lat="43.401826275220465" lon="11.593515581378085"><ele>256.0</ele><time>2026-04-19T10:03:17Z</time></trkpt><trkpt lat="43.40201061181857" lon="11.593583528457915"><ele>256.0</ele><time>2026-04-19T10:03:18Z</time></trkpt><trkpt lat="43.402197564957014" lon="11.593652852386555"><ele>254.0</ele><time>2026-04-19T10:03:19Z</time></trkpt><trkpt lat="43.40239505787302" lon="11.593714468548152"><ele>252.0</ele><time>2026-04-19T10:03:20Z</time></trkpt><trkpt lat="43.4026098711085" lon="11.593789348197365"><ele>250.0</ele><time>2026-04-19T10:03:21Z</time></trkpt><trkpt lat="43.40283893963108" lon="11.593864442711816"><ele>249.5</ele><time>2026-04-19T10:03:22Z</time></trkpt><trkpt lat="43.403081678874095" lon="11.593948544941036"><ele>249.0</ele><time>2026-04-19T10:03:23Z</time></trkpt><trkpt lat="43.40332801682187" lon="11.594036989014112"><ele>249.0</ele><time>2026-04-19T10:03:24Z</time></trkpt><trkpt lat="43.40358128132551" lon="11.594127528418834"><ele>249.0</ele><time>2026-04-19T10:03:25Z</time></trkpt><trkpt lat="43.4038397330858" lon="11.594211802059643"><ele>249.0</ele><time>2026-04-19T10:03:26Z</time></trkpt><trkpt lat="43.40410480596315" lon="11.594321741705787"><ele>249.0</ele><time>2026-04-19T10:03:27Z</time></trkpt><trkpt lat="43.40438344592357" lon="11.594418319269094"><ele>248.5</ele><time>2026-04-19T10:03:28Z</time></trkpt><trkpt lat="43.40467686354882" lon="11.5945184288201"><ele>248.0</ele><time>2026-04-19T10:03:29Z</time></trkpt><trkpt lat="43.404971388099284" lon="11.594621990942551"><ele>248.0</ele><time>2026-04-19T10:03:30Z</time></trkpt><trkpt lat="43.40527345562125" lon="11.594713954100927"><ele>248.0</ele><time>2026-04-19T10:03:31Z</time></trkpt><trkpt lat="43.40556538893283" lon="11.594823469139781"><ele>249.5</ele><time>2026-04-19T10:03:32Z</time></trkpt><trkpt lat="43.405835288319906" lon="11.59491304356837"><ele>251.0</ele><time>2026-04-19T10:03:33Z</time></trkpt><trkpt lat="43.40608710995877" lon="11.594997727564921"><ele>251.0</ele><time>2026-04-19T10:03:34Z</time></trkpt><trkpt lat="43.406316843000816" lon="11.595078563377202"><ele>251.0</ele><time>2026-04-19T10:03:35Z</time></trkpt><trkpt lat="43.406536802959856" lon="11.595152588297964"><ele>251.33333333333334</ele><time>2026-04-19T10:03:36Z</time></trkpt><trkpt lat="43.40674205998343" lon="11.595222784453808"><ele>251.66666666666669</ele><time>2026-04-19T10:03:37Z</time></trkpt><trkpt lat="43.40693811974727" lon="11.595296484622164"><ele>252.0</ele><time>2026-04-19T10:03:38Z</time></trkpt><trkpt lat="43.40712815812765" lon="11.595369161975276"><ele>252.0</ele><time>2026-04-19T10:03:39Z</time></trkpt><trkpt lat="43.407303346206476" lon="11.595444023427309"><ele>252.0</ele><time>2026-04-19T10:03:40Z</time></trkpt><trkpt lat="43.407467151068126" lon="11.595538435506198"><ele>252.0</ele><time>2026-04-19T10:03:41Z</time></trkpt><trkpt lat="43.40761545439584" lon="11.595651580871923"><ele>252.0</ele><time>2026-04-19T10:03:42Z</time></trkpt><trkpt lat="43.407745284851664" lon="11.595785573506436"><ele>252.0</ele><time>2026-04-19T10:03:43Z</time></trkpt><trkpt lat="43.40787920975632" lon="11.595946700650668"><ele>252.0</ele><time>2026-04-19T10:03:44Z</time></trkpt><trkpt lat="43.40802041052943" lon="11.596118884939033"><ele>252.0</ele><time>2026-04-19T10:03:45Z</time></trkpt><trkpt lat="43.40816048587716" lon="11.59631888913543"><ele>252.0</ele><time>2026-04-19T10:03:46Z</time></trkpt><trkpt lat="43.40830341489064" lon="11.596515313160795"><ele>252.0</ele><time>2026-04-19T10:03:47Z</time></trkpt><trkpt lat="43.408452397700295" lon="11.596727018441046"><ele>252.0</ele><time>2026-04-19T10:03:48Z</time></trkpt><trkpt lat="43.40858733931835" lon="11.596921829927085"><ele>252.0</ele><time>2026-04-19T10:03:49Z</time></trkpt><trkpt lat="43.40871868838181" lon="11.597107128820964"><ele>252.0</ele><time>2026-04-19T10:03:50Z</time></trkpt><trkpt lat="43.40885055398066" lon="11.597293861404708"><ele>251.66666666666669</ele><time>2026-04-19T10:03:51Z</time></trkpt><trkpt lat="43.40899153709557" lon="11.59747706920048"><ele>251.33333333333334</ele><time>2026-04-19T10:03:52Z</time></trkpt><trkpt lat="43.40914897877914" lon="11.597650183669137"><ele>251.0</ele><time>2026-04-19T10:03:53Z</time></trkpt><trkpt lat="43.40932300639012" lon="11.597811810766682"><ele>250.66666666666669</ele><time>2026-04-19T10:03:54Z</time></trkpt><trkpt lat="43.40949916095402" lon="11.597965294673038"><ele>250.33333333333331</ele><time>2026-04-19T10:03:55Z</time></trkpt><trkpt lat="43.409669441519256" lon="11.598117613924412"><ele>250.0</ele><time>2026-04-19T10:03:56Z</time></trkpt><trkpt lat="43.409832143728075" lon="11.59825878817428"><ele>249.66666666666666</ele><time>2026-04-19T10:03:57Z</time></trkpt><trkpt lat="43.409988615384144" lon="11.598392052954427"><ele>249.33333333333331</ele><time>2026-04-19T10:03:58Z</time></trkpt><trkpt lat="43.4101340628912" lon="11.598511741987695"><ele>249.0</ele><time>2026-04-19T10:03:59Z</time></trkpt><trkpt lat="43.41027317750499" lon="11.598626379800722"><ele>249.25</ele><time>2026-04-19T10:04:00Z</time></trkpt><trkpt lat="43.410402126910775" lon="11.598734768047478"><ele>249.5</ele><time>2026-04-19T10:04:01Z</time></trkpt><trkpt lat="43.41052001685891" lon="11.598838958828603"><ele>249.75</ele><time>2026-04-19T10:04:02Z</time></trkpt><trkpt lat="43.410632213955395" lon="11.598938684227564"><ele>250.0</ele><time>2026-04-19T10:04:03Z</time></trkpt><trkpt lat="43.410739728075875" lon="11.599030631131379"><ele>250.0</ele><time>2026-04-19T10:04:04Z</time></trkpt><trkpt lat="43.41084138524594" lon="11.599119259793705"><ele>250.0</ele><time>2026-04-19T10:04:05Z</time></trkpt><trkpt lat="43.41094553232237" lon="11.59921239253901"><ele>250.0</ele><time>2026-04-19T10:04:06Z</time></trkpt><trkpt lat="43.41104996289283" lon="11.599306121109702"><ele>250.0</ele><time>2026-04-19T10:04:07Z</time></trkpt><trkpt lat="43.41114354864315" lon="11.599385243509138"><ele>250.0</ele><time>2026-04-19T10:04:08Z</time></trkpt><trkpt lat="43.41125124071612" lon="11.59946755832038"><ele>250.0</ele><time>2026-04-19T10:04:09Z</time></trkpt><trkpt lat="43.41137990715308" lon="11.599568986918214"><ele>250.0</ele><time>2026-04-19T10:04:10Z</time></trkpt><trkpt lat="43.41151107974536" lon="11.599685965007916"><ele>250.0</ele><time>2026-04-19T10:04:11Z</time></trkpt><trkpt lat="43.41163480567125" lon="11.59981177000769"><ele>249.25</ele><time>2026-04-19T10:04:12Z</time></trkpt><trkpt lat="43.41175257280637" lon="11.59992307084858"><ele>248.5</ele><time>2026-04-19T10:04:13Z</time></trkpt><trkpt lat="43.411871707682565" lon="11.600026588608964"><ele>247.75</ele><time>2026-04-19T10:04:14Z</time></trkpt><trkpt lat="43.411990273458294" lon="11.600131088660211"><ele>247.0</ele><time>2026-04-19T10:04:15Z</time></trkpt><trkpt lat="43.412109010670335" lon="11.600238087432981"><ele>247.0</ele><time>2026-04-19T10:04:16Z</time></trkpt><trkpt lat="43.41223566597707" lon="11.600344136220404"><ele>247.0</ele><time>2026-04-19T10:04:17Z</time></trkpt><trkpt lat="43.41236530806012" lon="11.600458903803204"><ele>247.0</ele><time>2026-04-19T10:04:18Z</time></trkpt><trkpt lat="43.41249770444705" lon="11.600570157954515"><ele>247.0</ele><time>2026-04-19T10:04:19Z</time></trkpt><trkpt lat="43.4126318259479" lon="11.60068574336676"><ele>247.0</ele><time>2026-04-19T10:04:20Z</time></trkpt><trkpt lat="43.41276482068113" lon="11.600804611310696"><ele>247.0</ele><time>2026-04-19T10:04:21Z</time></trkpt><trkpt lat="43.41290103751602" lon="11.600922467267129"><ele>247.66666666666666</ele><time>2026-04-19T10:04:22Z</time></trkpt><trkpt lat="43.4130366824099" lon="11.601040748154578"><ele>248.33333333333331</ele><time>2026-04-19T10:04:23Z</time></trkpt><trkpt lat="43.413170908427716" lon="11.601155990343008"><ele>249.0</ele><time>2026-04-19T10:04:24Z</time></trkpt><trkpt lat="43.41330454728551" lon="11.60127267244534"><ele>249.0</ele><time>2026-04-19T10:04:25Z</time></trkpt><trkpt lat="43.41343459136533" lon="11.601387363778624"><ele>249.0</ele><time>2026-04-19T10:04:26Z</time></trkpt><trkpt lat="43.41356451529389" lon="11.601496546212461"><ele>249.0</ele><time>2026-04-19T10:04:27Z</time></trkpt><trkpt lat="43.41368258144139" lon="11.601599430972232"><ele>249.0</ele><time>2026-04-19T10:04:28Z</time></trkpt><trkpt lat="43.41379199447951" lon="11.601696357406137"><ele>249.0</ele><time>2026-04-19T10:04:29Z</time></trkpt><trkpt lat="43.413897533923425" lon="11.601790313162178"><ele>249.0</ele><time>2026-04-19T10:04:30Z</time></trkpt><trkpt lat="43.41401223869034" lon="11.601896908526461"><ele>249.0</ele><time>2026-04-19T10:04:31Z</time></trkpt><trkpt lat="43.41413313939609" lon="11.602007459771189"><ele>249.0</ele><time>2026-04-19T10:04:32Z</time></trkpt><trkpt lat="43.41424517416231" lon="11.602125551233941"><ele>249.0</ele><time>2026-04-19T10:04:33Z</time></trkpt><trkpt lat="43.41434738668874" lon="11.602248526928328"><ele>249.0</ele><time>2026-04-19T10:04:34Z</time></trkpt><trkpt lat="43.41443649465777" lon="11.602364977072087"><ele>249.0</ele><time>2026-04-19T10:04:35Z</time></trkpt><trkpt lat="43.41452231290121" lon="11.60247362505453"><ele>249.0</ele><time>2026-04-19T10:04:36Z</time></trkpt><trkpt lat="43.41460184976688" lon="11.602576957251495"><ele>249.33333333333334</ele><time>2026-04-19T10:04:37Z</time></trkpt><trkpt lat="43.41467510773364" lon="11.602674725862023"><ele>249.66666666666669</ele><time>2026-04-19T10:04:38Z</time></trkpt><trkpt lat="43.41473484085573" lon="11.602763874531234"><ele>250.0</ele><time>2026-04-19T10:04:39Z</time></trkpt><trkpt lat="43.41478783770755" lon="11.602842596369943"><ele>250.33333333333334</ele><time>2026-04-19T10:04:40Z</time></trkpt><trkpt lat="43.41483356355543" lon="11.602924137659144"><ele>250.66666666666669</ele><time>2026-04-19T10:04:41Z</time></trkpt><trkpt lat="43.41487818902914" lon="11.603020933910718"><ele>251.0</ele><time>2026-04-19T10:04:42Z</time></trkpt><trkpt lat="43.414913324330485" lon="11.603154421435946"><ele>251.0</ele><time>2026-04-19T10:04:43Z</time></trkpt><trkpt lat="43.41495031299455" lon="11.603301546680894"><ele>251.0</ele><time>2026-04-19T10:04:44Z</time></trkpt><trkpt lat="43.414982239224855" lon="11.603473093650042"><ele>251.0</ele><time>2026-04-19T10:04:45Z</time></trkpt><trkpt lat="43.415011102349524" lon="11.60365743550833"><ele>251.0</ele><time>2026-04-19T10:04:46Z</time></trkpt><trkpt lat="43.41503186598053" lon="11.6038558941932"><ele>249.75</ele><time>2026-04-19T10:04:47Z</time></trkpt><trkpt lat="43.41504438425593" lon="11.604048379020284"><ele>248.5</ele><time>2026-04-19T10:04:48Z</time></trkpt><trkpt lat="43.415060891017546" lon="11.604247693917042"><ele>247.25</ele><time>2026-04-19T10:04:49Z</time></trkpt><trkpt lat="43.41507044289852" lon="11.6044465339597"><ele>246.0</ele><time>2026-04-19T10:04:50Z</time></trkpt><trkpt lat="43.41508145626643" lon="11.60464986106886"><ele>245.33333333333331</ele><time>2026-04-19T10:04:51Z</time></trkpt><trkpt lat="43.415087547663596" lon="11.604855198661188"><ele>244.66666666666666</ele><time>2026-04-19T10:04:52Z</time></trkpt><trkpt lat="43.41509952843916" lon="11.605063885728358"><ele>244.0</ele><time>2026-04-19T10:04:53Z</time></trkpt><trkpt lat="43.41511037184106" lon="11.6052717169073"><ele>243.66666666666666</ele><time>2026-04-19T10:04:54Z</time></trkpt><trkpt lat="43.41513130253613" lon="11.605474788605909"><ele>243.33333333333331</ele><time>2026-04-19T10:04:55Z</time></trkpt><trkpt lat="43.415172774110765" lon="11.605673131760511"><ele>243.0</ele><time>2026-04-19T10:04:56Z</time></trkpt><trkpt lat="43.41525139601902" lon="11.605863396285537"><ele>243.0</ele><time>2026-04-19T10:04:57Z</time></trkpt><trkpt lat="43.415357834706185" lon="11.60603835466735"><ele>243.0</ele><time>2026-04-19T10:04:58Z</time></trkpt><trkpt lat="43.41548499345597" lon="11.606188799988773"><ele>243.0</ele><time>2026-04-19T10:04:59Z</time></trkpt><trkpt lat="43.41562178508942" lon="11.606338821018793"><ele>243.66666666666669</ele><time>2026-04-19T10:05:00Z</time></trkpt><trkpt lat="43.41575538866894" lon="11.606494456617737"><ele>244.33333333333334</ele><time>2026-04-19T10:05:01Z</time></trkpt><trkpt lat="43.415883249916064" lon="11.606653760587038"><ele>245.0</ele><time>2026-04-19T10:05:02Z</time></trkpt><trkpt lat="43.41601159612336" lon="11.60681205421738"><ele>245.0</ele><time>2026-04-19T10:05:03Z</time></trkpt><trkpt lat="43.41613920106255" lon="11.606972708239494"><ele>245.0</ele><time>2026-04-19T10:05:04Z</time></trkpt><trkpt lat="43.416266979781966" lon="11.607136636609004"><ele>245.0</ele><time>2026-04-19T10:05:05Z</time></trkpt><trkpt lat="43.41639690132226" lon="11.607301386189071"><ele>245.0</ele><time>2026-04-19T10:05:06Z</time></trkpt><trkpt lat="43.41652820757267" lon="11.607470407910954"><ele>245.0</ele><time>2026-04-19T10:05:07Z</time></trkpt><trkpt lat="43.41666047858019" lon="11.607639271550157"><ele>245.0</ele><time>2026-04-19T10:05:08Z</time></trkpt><trkpt lat="43.4167925759126" lon="11.607804521232111"><ele>246.0</ele><time>2026-04-19T10:05:09Z</time></trkpt><trkpt lat="43.4169222424522" lon="11.607965599392331"><ele>247.0</ele><time>2026-04-19T10:05:10Z</time></trkpt><trkpt lat="43.417049283973675" lon="11.608119663197911"><ele>248.0</ele><time>2026-04-19T10:05:11Z</time></trkpt><trkpt lat="43.41718971863048" lon="11.608248174797584"><ele>248.0</ele><time>2026-04-19T10:05:12Z</time></trkpt><trkpt lat="43.41733777246472" lon="11.60834765963127"><ele>248.0</ele><time>2026-04-19T10:05:13Z</time></trkpt><trkpt lat="43.417489686032496" lon="11.608426246492618"><ele>248.0</ele><time>2026-04-19T10:05:14Z</time></trkpt><trkpt lat="43.41764106504176" lon="11.60850779812665"><ele>248.0</ele><time>2026-04-19T10:05:15Z</time></trkpt><trkpt lat="43.41779357126195" lon="11.60859253522431"><ele>248.0</ele><time>2026-04-19T10:05:16Z</time></trkpt><trkpt lat="43.41794327096056" lon="11.608680234442526"><ele>248.0</ele><time>2026-04-19T10:05:17Z</time></trkpt><trkpt lat="43.41808673054971" lon="11.608766093889637"><ele>249.0</ele><time>2026-04-19T10:05:18Z</time></trkpt><trkpt lat="43.41823712348498" lon="11.608867189303618"><ele>250.0</ele><time>2026-04-19T10:05:19Z</time></trkpt><trkpt lat="43.418388148483515" lon="11.608987174206177"><ele>251.0</ele><time>2026-04-19T10:05:20Z</time></trkpt><trkpt lat="43.41852936532781" lon="11.609131879277516"><ele>251.0</ele><time>2026-04-19T10:05:21Z</time></trkpt><trkpt lat="43.41866004666728" lon="11.609277690015553"><ele>251.0</ele><time>2026-04-19T10:05:22Z</time></trkpt><trkpt lat="43.41879327260044" lon="11.609421337630316"><ele>251.0</ele><time>2026-04-19T10:05:23Z</time></trkpt><trkpt lat="43.41893423376028" lon="11.609566213879251"><ele>250.0</ele><time>2026-04-19T10:05:24Z</time></trkpt><trkpt lat="43.41907953579037" lon="11.609714536746186"><ele>249.0</ele><time>2026-04-19T10:05:25Z</time></trkpt><trkpt lat="43.41922783418126" lon="11.609865822723368"><ele>248.0</ele><time>2026-04-19T10:05:26Z</time></trkpt><trkpt lat="43.419375429214966" lon="11.610022206563235"><ele>248.0</ele><time>2026-04-19T10:05:27Z</time></trkpt><trkpt lat="43.41952317888431" lon="11.610175598058882"><ele>248.0</ele><time>2026-04-19T10:05:28Z</time></trkpt><trkpt lat="43.41967452335062" lon="11.610328600723797"><ele>248.0</ele><time>2026-04-19T10:05:29Z</time></trkpt><trkpt lat="43.41982903522164" lon="11.61048930770147"><ele>247.0</ele><time>2026-04-19T10:05:30Z</time></trkpt><trkpt lat="43.41998911463762" lon="11.610655552872222"><ele>246.0</ele><time>2026-04-19T10:05:31Z</time></trkpt><trkpt lat="43.420155264519366" lon="11.610827307034098"><ele>245.0</ele><time>2026-04-19T10:05:32Z</time></trkpt><trkpt lat="43.42032363039752" lon="11.610999877941008"><ele>244.66666666666669</ele><time>2026-04-19T10:05:33Z</time></trkpt><trkpt lat="43.42049353067647" lon="11.611175562150681"><ele>244.33333333333331</ele><time>2026-04-19T10:05:34Z</time></trkpt><trkpt lat="43.420662415548186" lon="11.611349118869445"><ele>244.0</ele><time>2026-04-19T10:05:35Z</time></trkpt><trkpt lat="43.42083023063513" lon="11.611524134345304"><ele>244.0</ele><time>2026-04-19T10:05:36Z</time></trkpt><trkpt lat="43.42099424260895" lon="11.611697604409988"><ele>244.0</ele><time>2026-04-19T10:05:37Z</time></trkpt><trkpt lat="43.42115632717427" lon="11.611865133477172"><ele>244.0</ele><time>2026-04-19T10:05:38Z</time></trkpt><trkpt lat="43.42131151531509" lon="11.612025047753358"><ele>243.33333333333331</ele><time>2026-04-19T10:05:39Z</time></trkpt><trkpt lat="43.42146150867211" lon="11.61218228705926"><ele>242.66666666666669</ele><time>2026-04-19T10:05:40Z</time></trkpt><trkpt lat="43.421608762653165" lon="11.612335812428896"><ele>242.0</ele><time>2026-04-19T10:05:41Z</time></trkpt><trkpt lat="43.42175371586337" lon="11.612487830929036"><ele>242.0</ele><time>2026-04-19T10:05:42Z</time></trkpt><trkpt lat="43.42190188792585" lon="11.612640130379239"><ele>242.0</ele><time>2026-04-19T10:05:43Z</time></trkpt><trkpt lat="43.42204843882628" lon="11.612793061811875"><ele>242.0</ele><time>2026-04-19T10:05:44Z</time></trkpt><trkpt lat="43.42219697975557" lon="11.612949913864613"><ele>242.33333333333334</ele><time>2026-04-19T10:05:45Z</time></trkpt><trkpt lat="43.42234769900004" lon="11.613105857278677"><ele>242.66666666666669</ele><time>2026-04-19T10:05:46Z</time></trkpt><trkpt lat="43.42249857371522" lon="11.613259011810747"><ele>243.0</ele><time>2026-04-19T10:05:47Z</time></trkpt><trkpt lat="43.42264833042144" lon="11.613411420715194"><ele>243.0</ele><time>2026-04-19T10:05:48Z</time></trkpt><trkpt lat="43.42279211917159" lon="11.613560955800297"><ele>243.0</ele><time>2026-04-19T10:05:49Z</time></trkpt><trkpt lat="43.42293336295535" lon="11.613709845986364"><ele>243.0</ele><time>2026-04-19T10:05:50Z</time></trkpt><trkpt lat="43.42307254155233" lon="11.613850752870379"><ele>243.66666666666669</ele><time>2026-04-19T10:05:51Z</time></trkpt><trkpt lat="43.42320312701074" lon="11.613986973070457"><ele>244.33333333333334</ele><time>2026-04-19T10:05:52Z</time></trkpt><trkpt lat="43.42332615482078" lon="11.614114360423425"><ele>245.0</ele><time>2026-04-19T10:05:53Z</time></trkpt><trkpt lat="43.42344813732052" lon="11.614230020256814"><ele>245.0</ele><time>2026-04-19T10:05:54Z</time></trkpt><trkpt lat="43.42357094254352" lon="11.614320636294613"><ele>245.0</ele><time>2026-04-19T10:05:55Z</time></trkpt><trkpt lat="43.42369131806447" lon="11.614376086132637"><ele>245.0</ele><time>2026-04-19T10:05:56Z</time></trkpt><trkpt lat="43.423805405225764" lon="11.614386553876573"><ele>245.0</ele><time>2026-04-19T10:05:57Z</time></trkpt><trkpt lat="43.423927411374876" lon="11.614355439514263"><ele>244.25</ele><time>2026-04-19T10:05:58Z</time></trkpt><trkpt lat="43.42404743596445" lon="11.61428515076583"><ele>243.5</ele><time>2026-04-19T10:05:59Z</time></trkpt><trkpt lat="43.424177383266716" lon="11.614192967149473"><ele>242.75</ele><time>2026-04-19T10:06:00Z</time></trkpt><trkpt lat="43.424314364944316" lon="11.614102531571104"><ele>242.0</ele><time>2026-04-19T10:06:01Z</time></trkpt><trkpt lat="43.424450819169635" lon="11.614007586885698"><ele>242.0</ele><time>2026-04-19T10:06:02Z</time></trkpt><trkpt lat="43.42459358252109" lon="11.613914609922867"><ele>242.0</ele><time>2026-04-19T10:06:03Z</time></trkpt><trkpt lat="43.42474049539943" lon="11.613819668778202"><ele>242.0</ele><time>2026-04-19T10:06:04Z</time></trkpt><trkpt lat="43.424890712385825" lon="11.61371569533815"><ele>241.66666666666669</ele><time>2026-04-19T10:06:05Z</time></trkpt><trkpt lat="43.425044350549925" lon="11.613607654356844"><ele>241.33333333333331</ele><time>2026-04-19T10:06:06Z</time></trkpt><trkpt lat="43.42519829652286" lon="11.61349437281242"><ele>241.0</ele><time>2026-04-19T10:06:07Z</time></trkpt><trkpt lat="43.42535247354792" lon="11.613373937086726"><ele>242.33333333333331</ele><time>2026-04-19T10:06:08Z</time></trkpt><trkpt lat="43.42550657328133" lon="11.613243426150893"><ele>243.66666666666669</ele><time>2026-04-19T10:06:09Z</time></trkpt><trkpt lat="43.425658774910076" lon="11.613105597542681"><ele>245.0</ele><time>2026-04-19T10:06:10Z</time></trkpt><trkpt lat="43.425809669198905" lon="11.612958988563207"><ele>244.66666666666669</ele><time>2026-04-19T10:06:11Z</time></trkpt><trkpt lat="43.425955682460746" lon="11.61280819981564"><ele>244.33333333333331</ele><time>2026-04-19T10:06:12Z</time></trkpt><trkpt lat="43.42609663164284" lon="11.612665299735154"><ele>244.0</ele><time>2026-04-19T10:06:13Z</time></trkpt><trkpt lat="43.42623454913361" lon="11.61252610777129"><ele>245.33333333333331</ele><time>2026-04-19T10:06:14Z</time></trkpt><trkpt lat="43.426376155322984" lon="11.612391119946567"><ele>246.66666666666669</ele><time>2026-04-19T10:06:15Z</time></trkpt><trkpt lat="43.42652308879611" lon="11.612271467515827"><ele>248.0</ele><time>2026-04-19T10:06:16Z</time></trkpt><trkpt lat="43.426668481797094" lon="11.612184591845901"><ele>248.0</ele><time>2026-04-19T10:06:17Z</time></trkpt><trkpt lat="43.42682479175155" lon="11.612114385501823"><ele>248.0</ele><time>2026-04-19T10:06:17.999Z</time></trkpt><trkpt lat="43.426986632635334" lon="11.61205756330815"><ele>248.0</ele><time>2026-04-19T10:06:18.999Z</time></trkpt><trkpt lat="43.42715050222679" lon="11.61200103361949"><ele>247.0</ele><time>2026-04-19T10:06:19.999Z</time></trkpt><trkpt lat="43.427302581280294" lon="11.611952528012552"><ele>246.0</ele><time>2026-04-19T10:06:20.999Z</time></trkpt><trkpt lat="43.42746154959155" lon="11.611932832746135"><ele>245.0</ele><time>2026-04-19T10:06:21.999Z</time></trkpt><trkpt lat="43.427625641941354" lon="11.611962182074809"><ele>244.33333333333334</ele><time>2026-04-19T10:06:22.999Z</time></trkpt><trkpt lat="43.427794538875624" lon="11.6120306384374"><ele>243.66666666666669</ele><time>2026-04-19T10:06:23.999Z</time></trkpt><trkpt lat="43.427965153349696" lon="11.612101912732056"><ele>243.0</ele><time>2026-04-19T10:06:24.999Z</time></trkpt><trkpt lat="43.42813298696788" lon="11.612171286887653"><ele>243.0</ele><time>2026-04-19T10:06:25.999Z</time></trkpt><trkpt lat="43.42830011162235" lon="11.61224332028022"><ele>243.0</ele><time>2026-04-19T10:06:26.999Z</time></trkpt><trkpt lat="43.42847873998606" lon="11.612318182870087"><ele>243.0</ele><time>2026-04-19T10:06:27.999Z</time></trkpt><trkpt lat="43.428661545893135" lon="11.612386926529643"><ele>242.0</ele><time>2026-04-19T10:06:28.999Z</time></trkpt><trkpt lat="43.42883548613538" lon="11.61245648651665"><ele>241.0</ele><time>2026-04-19T10:06:29.999Z</time></trkpt><trkpt lat="43.42900906126536" lon="11.6125271078363"><ele>240.0</ele><time>2026-04-19T10:06:30.999Z</time></trkpt><trkpt lat="43.42918217420013" lon="11.612593885681724"><ele>240.0</ele><time>2026-04-19T10:06:31.999Z</time></trkpt><trkpt lat="43.42934490567015" lon="11.612660593158127"><ele>240.0</ele><time>2026-04-19T10:06:32.999Z</time></trkpt><trkpt lat="43.429497131145716" lon="11.612744351679792"><ele>240.0</ele><time>2026-04-19T10:06:33.999Z</time></trkpt><trkpt lat="43.42963281079147" lon="11.612851117932372"><ele>238.66666666666669</ele><time>2026-04-19T10:06:35Z</time></trkpt><trkpt lat="43.429755072048295" lon="11.612990181882429"><ele>237.33333333333334</ele><time>2026-04-19T10:06:36Z</time></trkpt><trkpt lat="43.429883433520736" lon="11.613125282640604"><ele>236.0</ele><time>2026-04-19T10:06:37Z</time></trkpt><trkpt lat="43.43000590504475" lon="11.613293907552489"><ele>236.0</ele><time>2026-04-19T10:06:38Z</time></trkpt><trkpt lat="43.43013052225847" lon="11.61345711542952"><ele>236.0</ele><time>2026-04-19T10:06:39Z</time></trkpt><trkpt lat="43.430257984098844" lon="11.613625922963713"><ele>236.0</ele><time>2026-04-19T10:06:40Z</time></trkpt><trkpt lat="43.43038723775124" lon="11.61379995196326"><ele>234.66666666666669</ele><time>2026-04-19T10:06:41Z</time></trkpt><trkpt lat="43.43051658052114" lon="11.613971800003508"><ele>233.33333333333331</ele><time>2026-04-19T10:06:42Z</time></trkpt><trkpt lat="43.430646597003964" lon="11.614135362442466"><ele>232.0</ele><time>2026-04-19T10:06:43Z</time></trkpt><trkpt lat="43.430781306741046" lon="11.61428885104775"><ele>232.0</ele><time>2026-04-19T10:06:44Z</time></trkpt><trkpt lat="43.43092102127251" lon="11.614446285275985"><ele>232.0</ele><time>2026-04-19T10:06:45Z</time></trkpt><trkpt lat="43.43106801379143" lon="11.614617554635968"><ele>232.0</ele><time>2026-04-19T10:06:46Z</time></trkpt><trkpt lat="43.43122054455787" lon="11.61479059086211"><ele>232.0</ele><time>2026-04-19T10:06:47Z</time></trkpt><trkpt lat="43.431378209672275" lon="11.614978000153931"><ele>232.0</ele><time>2026-04-19T10:06:48Z</time></trkpt><trkpt lat="43.43153836253966" lon="11.615166087721851"><ele>232.0</ele><time>2026-04-19T10:06:49Z</time></trkpt><trkpt lat="43.43170136378389" lon="11.615357054364043"><ele>232.0</ele><time>2026-04-19T10:06:50Z</time></trkpt><trkpt lat="43.43186458929149" lon="11.615534490496062"><ele>232.0</ele><time>2026-04-19T10:06:51Z</time></trkpt><trkpt lat="43.43203950267989" lon="11.615688346310002"><ele>232.0</ele><time>2026-04-19T10:06:52Z</time></trkpt><trkpt lat="43.43221945767027" lon="11.61582895834724"><ele>232.0</ele><time>2026-04-19T10:06:53Z</time></trkpt><trkpt lat="43.432403747445335" lon="11.615946760366327"><ele>232.0</ele><time>2026-04-19T10:06:54Z</time></trkpt><trkpt lat="43.432585600575656" lon="11.616041907601009"><ele>232.0</ele><time>2026-04-19T10:06:55Z</time></trkpt><trkpt lat="43.432760368515645" lon="11.616104636567673"><ele>232.0</ele><time>2026-04-19T10:06:56Z</time></trkpt><trkpt lat="43.43293578413776" lon="11.616127308509805"><ele>232.0</ele><time>2026-04-19T10:06:57Z</time></trkpt><trkpt lat="43.43310188248764" lon="11.616131069149889"><ele>232.0</ele><time>2026-04-19T10:06:58Z</time></trkpt><trkpt lat="43.43326770752687" lon="11.616156998549087"><ele>234.0</ele><time>2026-04-19T10:06:59Z</time></trkpt><trkpt lat="43.43345287224762" lon="11.616268100049162"><ele>236.0</ele><time>2026-04-19T10:07:00Z</time></trkpt><trkpt lat="43.433622982420026" lon="11.616364621489012"><ele>238.0</ele><time>2026-04-19T10:07:01Z</time></trkpt><trkpt lat="43.433752435248145" lon="11.616464180854232"><ele>235.33333333333331</ele><time>2026-04-19T10:07:02Z</time></trkpt><trkpt lat="43.433920813353325" lon="11.616587121521144"><ele>232.66666666666669</ele><time>2026-04-19T10:07:03Z</time></trkpt><trkpt lat="43.43409886032277" lon="11.616706005362339"><ele>230.0</ele><time>2026-04-19T10:07:04Z</time></trkpt><trkpt lat="43.43427974887863" lon="11.616835984859328"><ele>230.0</ele><time>2026-04-19T10:07:05Z</time></trkpt><trkpt lat="43.434472621097896" lon="11.616976909390269"><ele>230.0</ele><time>2026-04-19T10:07:06Z</time></trkpt><trkpt lat="43.43466300583007" lon="11.61710848762018"><ele>230.0</ele><time>2026-04-19T10:07:07Z</time></trkpt><trkpt lat="43.434840940948575" lon="11.617220456234275"><ele>229.66666666666669</ele><time>2026-04-19T10:07:08Z</time></trkpt><trkpt lat="43.43501357220618" lon="11.617337272183942"><ele>229.33333333333331</ele><time>2026-04-19T10:07:09Z</time></trkpt><trkpt lat="43.43519055830763" lon="11.617459525827037"><ele>229.0</ele><time>2026-04-19T10:07:10Z</time></trkpt><trkpt lat="43.43536789327958" lon="11.617581801105718"><ele>228.66666666666666</ele><time>2026-04-19T10:07:11Z</time></trkpt><trkpt lat="43.43553925077058" lon="11.617702278030729"><ele>228.33333333333331</ele><time>2026-04-19T10:07:12Z</time></trkpt><trkpt lat="43.435703881660956" lon="11.617820099964078"><ele>228.0</ele><time>2026-04-19T10:07:13Z</time></trkpt><trkpt lat="43.43586002607937" lon="11.617930487010058"><ele>228.66666666666669</ele><time>2026-04-19T10:07:14Z</time></trkpt><trkpt lat="43.436021879545116" lon="11.618039710139486"><ele>229.33333333333334</ele><time>2026-04-19T10:07:15Z</time></trkpt><trkpt lat="43.43619060803287" lon="11.618160020013915"><ele>230.0</ele><time>2026-04-19T10:07:16Z</time></trkpt><trkpt lat="43.436365512521114" lon="11.618279511378864"><ele>230.0</ele><time>2026-04-19T10:07:17Z</time></trkpt><trkpt lat="43.43654361565394" lon="11.618403602583816"><ele>230.0</ele><time>2026-04-19T10:07:18Z</time></trkpt><trkpt lat="43.43672579258565" lon="11.618528919622621"><ele>230.0</ele><time>2026-04-19T10:07:19Z</time></trkpt><trkpt lat="43.43691727867956" lon="11.618663652356148"><ele>231.33333333333334</ele><time>2026-04-19T10:07:20Z</time></trkpt><trkpt lat="43.43710842762376" lon="11.618806049220922"><ele>232.66666666666669</ele><time>2026-04-19T10:07:21Z</time></trkpt><trkpt lat="43.43729176203348" lon="11.618935266510693"><ele>234.0</ele><time>2026-04-19T10:07:22Z</time></trkpt><trkpt lat="43.43746566212978" lon="11.619051951631908"><ele>234.0</ele><time>2026-04-19T10:07:23Z</time></trkpt><trkpt lat="43.43763629258403" lon="11.619161985483522"><ele>234.0</ele><time>2026-04-19T10:07:24Z</time></trkpt><trkpt lat="43.43780653954466" lon="11.619246045373627"><ele>234.0</ele><time>2026-04-19T10:07:25Z</time></trkpt><trkpt lat="43.437982536072475" lon="11.619303460753086"><ele>234.0</ele><time>2026-04-19T10:07:26Z</time></trkpt><trkpt lat="43.43817052511483" lon="11.619320412251243"><ele>234.0</ele><time>2026-04-19T10:07:27Z</time></trkpt><trkpt lat="43.43836694471325" lon="11.619310171412046"><ele>234.0</ele><time>2026-04-19T10:07:28Z</time></trkpt><trkpt lat="43.438560251138924" lon="11.619283306269356"><ele>234.0</ele><time>2026-04-19T10:07:29Z</time></trkpt><trkpt lat="43.43874636716941" lon="11.619254447325662"><ele>234.0</ele><time>2026-04-19T10:07:30Z</time></trkpt><trkpt lat="43.43892548521154" lon="11.619233559585394"><ele>234.0</ele><time>2026-04-19T10:07:31Z</time></trkpt><trkpt lat="43.439099580025136" lon="11.619211545393163"><ele>235.0</ele><time>2026-04-19T10:07:32Z</time></trkpt><trkpt lat="43.439267532931" lon="11.61918949237897"><ele>236.0</ele><time>2026-04-19T10:07:33Z</time></trkpt><trkpt lat="43.43942474883953" lon="11.619170422918776"><ele>237.0</ele><time>2026-04-19T10:07:34Z</time></trkpt><trkpt lat="43.43957090284724" lon="11.619150707792624"><ele>237.0</ele><time>2026-04-19T10:07:35Z</time></trkpt><trkpt lat="43.43970703826089" lon="11.619135638799143"><ele>237.0</ele><time>2026-04-19T10:07:36Z</time></trkpt><trkpt lat="43.43983514494071" lon="11.61913745484083"><ele>237.0</ele><time>2026-04-19T10:07:37Z</time></trkpt><trkpt lat="43.439955583574694" lon="11.61918264362996"><ele>237.0</ele><time>2026-04-19T10:07:38Z</time></trkpt><trkpt lat="43.44006267379317" lon="11.619281046790823"><ele>237.0</ele><time>2026-04-19T10:07:39Z</time></trkpt><trkpt lat="43.44014829395715" lon="11.619424658720352"><ele>237.0</ele><time>2026-04-19T10:07:40Z</time></trkpt><trkpt lat="43.44021184106868" lon="11.619611479833093"><ele>237.0</ele><time>2026-04-19T10:07:41Z</time></trkpt><trkpt lat="43.44026028406142" lon="11.619834192907879"><ele>237.66666666666669</ele><time>2026-04-19T10:07:42Z</time></trkpt><trkpt lat="43.440318650964755" lon="11.620068516982291"><ele>238.33333333333334</ele><time>2026-04-19T10:07:43Z</time></trkpt><trkpt lat="43.44038937016316" lon="11.620303713831676"><ele>239.0</ele><time>2026-04-19T10:07:44Z</time></trkpt><trkpt lat="43.44046078336536" lon="11.620538171536648"><ele>238.66666666666669</ele><time>2026-04-19T10:07:45Z</time></trkpt><trkpt lat="43.44052919317315" lon="11.620771588330028"><ele>238.33333333333331</ele><time>2026-04-19T10:07:46Z</time></trkpt><trkpt lat="43.44060913360599" lon="11.620993523540184"><ele>238.0</ele><time>2026-04-19T10:07:47Z</time></trkpt><trkpt lat="43.44071447874636" lon="11.621197482655502"><ele>238.0</ele><time>2026-04-19T10:07:48Z</time></trkpt><trkpt lat="43.44084017799018" lon="11.621379404225555"><ele>238.0</ele><time>2026-04-19T10:07:49Z</time></trkpt><trkpt lat="43.44096322308389" lon="11.621550176227135"><ele>238.0</ele><time>2026-04-19T10:07:50Z</time></trkpt><trkpt lat="43.44108387926223" lon="11.62172230549373"><ele>238.0</ele><time>2026-04-19T10:07:51Z</time></trkpt><trkpt lat="43.441179993440414" lon="11.621873053251596"><ele>238.0</ele><time>2026-04-19T10:07:52Z</time></trkpt><trkpt lat="43.44127265429131" lon="11.622007766686059"><ele>238.0</ele><time>2026-04-19T10:07:53Z</time></trkpt><trkpt lat="43.44136475137951" lon="11.622122709526879"><ele>238.0</ele><time>2026-04-19T10:07:54Z</time></trkpt><trkpt lat="43.44147112214131" lon="11.622205255542847"><ele>236.75</ele><time>2026-04-19T10:07:55Z</time></trkpt><trkpt lat="43.44159322351318" lon="11.62225054360969"><ele>235.5</ele><time>2026-04-19T10:07:56Z</time></trkpt><trkpt lat="43.44172696297289" lon="11.62226348452638"><ele>234.25</ele><time>2026-04-19T10:07:57Z</time></trkpt><trkpt lat="43.441866756541096" lon="11.622269202391484"><ele>233.0</ele><time>2026-04-19T10:07:58Z</time></trkpt><trkpt lat="43.44200978710347" lon="11.622282826451181"><ele>232.66666666666669</ele><time>2026-04-19T10:07:59Z</time></trkpt><trkpt lat="43.4421602953561" lon="11.622292636972519"><ele>232.33333333333331</ele><time>2026-04-19T10:08:00Z</time></trkpt><trkpt lat="43.44231252817808" lon="11.622287260707278"><ele>232.0</ele><time>2026-04-19T10:08:01Z</time></trkpt><trkpt lat="43.442475126970265" lon="11.622256957142541"><ele>232.0</ele><time>2026-04-19T10:08:02Z</time></trkpt><trkpt lat="43.442641356242056" lon="11.622221659114533"><ele>232.0</ele><time>2026-04-19T10:08:03Z</time></trkpt><trkpt lat="43.4428092649631" lon="11.622187123818156"><ele>232.0</ele><time>2026-04-19T10:08:04Z</time></trkpt><trkpt lat="43.44296446440593" lon="11.62215709229251"><ele>232.25</ele><time>2026-04-19T10:08:05Z</time></trkpt><trkpt lat="43.44310709939081" lon="11.62212841703739"><ele>232.5</ele><time>2026-04-19T10:08:06Z</time></trkpt><trkpt lat="43.44323959717955" lon="11.622095937694398"><ele>232.75</ele><time>2026-04-19T10:08:07Z</time></trkpt><trkpt lat="43.443363698125005" lon="11.622049868074436"><ele>233.0</ele><time>2026-04-19T10:08:08Z</time></trkpt><trkpt lat="43.443479163895205" lon="11.621971290047773"><ele>233.0</ele><time>2026-04-19T10:08:09Z</time></trkpt><trkpt lat="43.44358963520681" lon="11.621858325317463"><ele>233.0</ele><time>2026-04-19T10:08:10Z</time></trkpt><trkpt lat="43.44369787050228" lon="11.62173177656281"><ele>233.0</ele><time>2026-04-19T10:08:11Z</time></trkpt><trkpt lat="43.44380810570098" lon="11.621612332408203"><ele>233.0</ele><time>2026-04-19T10:08:12Z</time></trkpt><trkpt lat="43.443921336127495" lon="11.621494688622773"><ele>234.66666666666669</ele><time>2026-04-19T10:08:13Z</time></trkpt><trkpt lat="43.444035702923095" lon="11.621373690883063"><ele>236.33333333333331</ele><time>2026-04-19T10:08:14Z</time></trkpt><trkpt lat="43.444158408348095" lon="11.621253222712607"><ele>238.0</ele><time>2026-04-19T10:08:15Z</time></trkpt><trkpt lat="43.44428233065608" lon="11.621120247098006"><ele>238.33333333333331</ele><time>2026-04-19T10:08:16Z</time></trkpt><trkpt lat="43.444414334067744" lon="11.620977913099198"><ele>238.66666666666669</ele><time>2026-04-19T10:08:17Z</time></trkpt><trkpt lat="43.44455475125473" lon="11.620836033998474"><ele>239.0</ele><time>2026-04-19T10:08:18Z</time></trkpt><trkpt lat="43.4446951219042" lon="11.620698493535537"><ele>240.33333333333334</ele><time>2026-04-19T10:08:19Z</time></trkpt><trkpt lat="43.444834219338205" lon="11.620558972907364"><ele>241.66666666666669</ele><time>2026-04-19T10:08:20Z</time></trkpt><trkpt lat="43.44497493805304" lon="11.620416448474186"><ele>243.0</ele><time>2026-04-19T10:08:21Z</time></trkpt><trkpt lat="43.44510528518359" lon="11.62027958387613"><ele>243.0</ele><time>2026-04-19T10:08:22Z</time></trkpt><trkpt lat="43.44523246010294" lon="11.620152802640142"><ele>243.0</ele><time>2026-04-19T10:08:23Z</time></trkpt><trkpt lat="43.4453529712109" lon="11.620032934370181"><ele>243.0</ele><time>2026-04-19T10:08:23.999Z</time></trkpt><trkpt lat="43.44547471421911" lon="11.619921312549014"><ele>244.0</ele><time>2026-04-19T10:08:24.999Z</time></trkpt><trkpt lat="43.44561421580971" lon="11.619780252455465"><ele>245.0</ele><time>2026-04-19T10:08:25.999Z</time></trkpt><trkpt lat="43.44575462040991" lon="11.619635695994875"><ele>246.0</ele><time>2026-04-19T10:08:26.999Z</time></trkpt><trkpt lat="43.445891049752525" lon="11.619498807307538"><ele>244.0</ele><time>2026-04-19T10:08:27.999Z</time></trkpt><trkpt lat="43.446029074211644" lon="11.619361737148122"><ele>242.0</ele><time>2026-04-19T10:08:28.999Z</time></trkpt><trkpt lat="43.44616848912313" lon="11.619226816563627"><ele>240.0</ele><time>2026-04-19T10:08:29.999Z</time></trkpt><trkpt lat="43.446312298808834" lon="11.619081348910651"><ele>240.0</ele><time>2026-04-19T10:08:30.999Z</time></trkpt><trkpt lat="43.446465836764105" lon="11.618931272739534"><ele>240.0</ele><time>2026-04-19T10:08:31.999Z</time></trkpt><trkpt lat="43.4466186561966" lon="11.618770665595184"><ele>240.0</ele><time>2026-04-19T10:08:32.999Z</time></trkpt><trkpt lat="43.44678663619121" lon="11.618613560185993"><ele>239.33333333333331</ele><time>2026-04-19T10:08:33.999Z</time></trkpt><trkpt lat="43.44694389776754" lon="11.61845881613083"><ele>238.66666666666666</ele><time>2026-04-19T10:08:34.999Z</time></trkpt><trkpt lat="43.44709442139665" lon="11.618309304696979"><ele>238.0</ele><time>2026-04-19T10:08:35.999Z</time></trkpt><trkpt lat="43.44724515447183" lon="11.61815500158768"><ele>237.66666666666666</ele><time>2026-04-19T10:08:36.999Z</time></trkpt><trkpt lat="43.44739314569266" lon="11.618008565614584"><ele>237.33333333333331</ele><time>2026-04-19T10:08:37.999Z</time></trkpt><trkpt lat="43.44753833578831" lon="11.617865447378003"><ele>237.0</ele><time>2026-04-19T10:08:39Z</time></trkpt><trkpt lat="43.447680002048806" lon="11.617726581235802"><ele>236.66666666666669</ele><time>2026-04-19T10:08:40Z</time></trkpt><trkpt lat="43.44782438200863" lon="11.617584532529696"><ele>236.33333333333334</ele><time>2026-04-19T10:08:41Z</time></trkpt><trkpt lat="43.44797149660578" lon="11.617438823537734"><ele>236.0</ele><time>2026-04-19T10:08:42Z</time></trkpt><trkpt lat="43.448118505212975" lon="11.617291629325104"><ele>236.0</ele><time>2026-04-19T10:08:43Z</time></trkpt><trkpt lat="43.448264454841556" lon="11.617146297713678"><ele>236.0</ele><time>2026-04-19T10:08:44Z</time></trkpt><trkpt lat="43.44840607247867" lon="11.617006745562898"><ele>236.0</ele><time>2026-04-19T10:08:45Z</time></trkpt><trkpt lat="43.44854631776195" lon="11.616864969314802"><ele>235.66666666666669</ele><time>2026-04-19T10:08:46Z</time></trkpt><trkpt lat="43.44868842519189" lon="11.616725772729792"><ele>235.33333333333331</ele><time>2026-04-19T10:08:47Z</time></trkpt><trkpt lat="43.44883682174153" lon="11.616596032456489"><ele>235.0</ele><time>2026-04-19T10:08:48Z</time></trkpt><trkpt lat="43.4490016102569" lon="11.616476655849755"><ele>235.0</ele><time>2026-04-19T10:08:49Z</time></trkpt><trkpt lat="43.449182714644664" lon="11.616374584327547"><ele>235.0</ele><time>2026-04-19T10:08:50Z</time></trkpt><trkpt lat="43.44936501763899" lon="11.616289504204808"><ele>235.0</ele><time>2026-04-19T10:08:51Z</time></trkpt><trkpt lat="43.4495452618744" lon="11.616205524630779"><ele>234.0</ele><time>2026-04-19T10:08:52Z</time></trkpt><trkpt lat="43.44971998255534" lon="11.616115793914958"><ele>233.0</ele><time>2026-04-19T10:08:53Z</time></trkpt><trkpt lat="43.44988926163559" lon="11.616030017091985"><ele>232.0</ele><time>2026-04-19T10:08:54Z</time></trkpt><trkpt lat="43.45005581266186" lon="11.615948360318319"><ele>232.0</ele><time>2026-04-19T10:08:55Z</time></trkpt><trkpt lat="43.45022034017393" lon="11.615865983855587"><ele>232.0</ele><time>2026-04-19T10:08:56Z</time></trkpt><trkpt lat="43.45038474499105" lon="11.615783226116971"><ele>232.0</ele><time>2026-04-19T10:08:57Z</time></trkpt><trkpt lat="43.450547537029585" lon="11.615698605539833"><ele>233.0</ele><time>2026-04-19T10:08:58Z</time></trkpt><trkpt lat="43.450714086614205" lon="11.615611993175182"><ele>234.0</ele><time>2026-04-19T10:08:59Z</time></trkpt><trkpt lat="43.45088350091519" lon="11.615522893615362"><ele>235.0</ele><time>2026-04-19T10:09:00Z</time></trkpt><trkpt lat="43.45105583430337" lon="11.615432211978602"><ele>235.0</ele><time>2026-04-19T10:09:01Z</time></trkpt><trkpt lat="43.45122821822144" lon="11.615344480113913"><ele>235.0</ele><time>2026-04-19T10:09:02Z</time></trkpt><trkpt lat="43.4513953422697" lon="11.615258579306646"><ele>235.0</ele><time>2026-04-19T10:09:03Z</time></trkpt><trkpt lat="43.451563860005564" lon="11.615167496415209"><ele>233.66666666666666</ele><time>2026-04-19T10:09:04Z</time></trkpt><trkpt lat="43.45173004212574" lon="11.615083799911055"><ele>232.33333333333331</ele><time>2026-04-19T10:09:05Z</time></trkpt><trkpt lat="43.45188736032114" lon="11.615005159536137"><ele>231.0</ele><time>2026-04-19T10:09:06Z</time></trkpt><trkpt lat="43.4520383991827" lon="11.614928356569871"><ele>232.0</ele><time>2026-04-19T10:09:07Z</time></trkpt><trkpt lat="43.45218801272774" lon="11.61485073636219"><ele>233.0</ele><time>2026-04-19T10:09:08Z</time></trkpt><trkpt lat="43.45233667495687" lon="11.614773930053428"><ele>234.0</ele><time>2026-04-19T10:09:09Z</time></trkpt><trkpt lat="43.45248927432715" lon="11.614697072796544"><ele>234.0</ele><time>2026-04-19T10:09:10Z</time></trkpt><trkpt lat="43.45263851549589" lon="11.614619965626174"><ele>234.0</ele><time>2026-04-19T10:09:11Z</time></trkpt><trkpt lat="43.45277739308415" lon="11.614549223223985"><ele>234.0</ele><time>2026-04-19T10:09:12Z</time></trkpt><trkpt lat="43.4529100086036" lon="11.614482912309743"><ele>234.0</ele><time>2026-04-19T10:09:13Z</time></trkpt><trkpt lat="43.45303522510742" lon="11.614419762903335"><ele>233.0</ele><time>2026-04-19T10:09:14Z</time></trkpt><trkpt lat="43.453163280984384" lon="11.614360940378834"><ele>232.0</ele><time>2026-04-19T10:09:15Z</time></trkpt><trkpt lat="43.453307094811834" lon="11.61432452046035"><ele>231.0</ele><time>2026-04-19T10:09:16Z</time></trkpt><trkpt lat="43.45346677888014" lon="11.614335151251282"><ele>230.0</ele><time>2026-04-19T10:09:17Z</time></trkpt><trkpt lat="43.453620863627684" lon="11.614378676793907"><ele>230.0</ele><time>2026-04-19T10:09:18Z</time></trkpt><trkpt lat="43.45376652855542" lon="11.614426120994889"><ele>230.0</ele><time>2026-04-19T10:09:19Z</time></trkpt><trkpt lat="43.453894864202724" lon="11.614482246299335"><ele>230.0</ele><time>2026-04-19T10:09:20Z</time></trkpt><trkpt lat="43.45401670633637" lon="11.61453656889168"><ele>230.0</ele><time>2026-04-19T10:09:21Z</time></trkpt><trkpt lat="43.454128108732164" lon="11.614609197837718"><ele>230.0</ele><time>2026-04-19T10:09:22Z</time></trkpt><trkpt lat="43.454227003209326" lon="11.614716581299815"><ele>230.0</ele><time>2026-04-19T10:09:23Z</time></trkpt><trkpt lat="43.4543096766596" lon="11.614865212022435"><ele>230.0</ele><time>2026-04-19T10:09:24Z</time></trkpt><trkpt lat="43.454380167234476" lon="11.615039586624132"><ele>230.0</ele><time>2026-04-19T10:09:25Z</time></trkpt><trkpt lat="43.454453071597285" lon="11.615207900944032"><ele>230.0</ele><time>2026-04-19T10:09:26Z</time></trkpt><trkpt lat="43.45454195548618" lon="11.61536173972766"><ele>230.0</ele><time>2026-04-19T10:09:27Z</time></trkpt><trkpt lat="43.45463849994741" lon="11.615501016718094"><ele>230.0</ele><time>2026-04-19T10:09:28Z</time></trkpt><trkpt lat="43.45474494149644" lon="11.615609073057712"><ele>230.0</ele><time>2026-04-19T10:09:29Z</time></trkpt><trkpt lat="43.454857678151164" lon="11.615675532004754"><ele>230.0</ele><time>2026-04-19T10:09:30Z</time></trkpt><trkpt lat="43.45496595862965" lon="11.615717319553356"><ele>230.0</ele><time>2026-04-19T10:09:31Z</time></trkpt><trkpt lat="43.45507174081909" lon="11.615739563521199"><ele>230.0</ele><time>2026-04-19T10:09:32Z</time></trkpt><trkpt lat="43.45518325832726" lon="11.615744870851868"><ele>230.0</ele><time>2026-04-19T10:09:33Z</time></trkpt><trkpt lat="43.45529578135973" lon="11.615741715146223"><ele>230.0</ele><time>2026-04-19T10:09:34Z</time></trkpt><trkpt lat="43.45540130264544" lon="11.615715132598682"><ele>230.6</ele><time>2026-04-19T10:09:35Z</time></trkpt><trkpt lat="43.45549734704702" lon="11.615688550005148"><ele>231.2</ele><time>2026-04-19T10:09:36Z</time></trkpt><trkpt lat="43.45559291660426" lon="11.615659751205893"><ele>231.8</ele><time>2026-04-19T10:09:37Z</time></trkpt><trkpt lat="43.45569275590303" lon="11.61562918447916"><ele>232.4</ele><time>2026-04-19T10:09:38Z</time></trkpt><trkpt lat="43.45580062150493" lon="11.615595775695192"><ele>233.0</ele><time>2026-04-19T10:09:39Z</time></trkpt><trkpt lat="43.45591303118954" lon="11.615558252605437"><ele>233.0</ele><time>2026-04-19T10:09:40Z</time></trkpt><trkpt lat="43.45603202406601" lon="11.615513896368226"><ele>233.0</ele><time>2026-04-19T10:09:41Z</time></trkpt><trkpt lat="43.45614978678323" lon="11.615463328829495"><ele>233.0</ele><time>2026-04-19T10:09:42Z</time></trkpt><trkpt lat="43.456270872767476" lon="11.61543057306865"><ele>233.0</ele><time>2026-04-19T10:09:43Z</time></trkpt><trkpt lat="43.456382600691995" lon="11.6153955910686"><ele>232.75</ele><time>2026-04-19T10:09:44Z</time></trkpt><trkpt lat="43.45649263121462" lon="11.615349466618085"><ele>232.5</ele><time>2026-04-19T10:09:45Z</time></trkpt><trkpt lat="43.456599553990316" lon="11.615296847799824"><ele>232.25</ele><time>2026-04-19T10:09:46Z</time></trkpt><trkpt lat="43.45671054580522" lon="11.615219990575223"><ele>232.0</ele><time>2026-04-19T10:09:47Z</time></trkpt><trkpt lat="43.456826719137176" lon="11.615120009825407"><ele>232.0</ele><time>2026-04-19T10:09:48Z</time></trkpt><trkpt lat="43.456940292295776" lon="11.61501572261717"><ele>232.0</ele><time>2026-04-19T10:09:49Z</time></trkpt><trkpt lat="43.45705062334346" lon="11.614892750927783"><ele>232.0</ele><time>2026-04-19T10:09:50Z</time></trkpt><trkpt lat="43.457149457734225" lon="11.614761045276136"><ele>232.0</ele><time>2026-04-19T10:09:51Z</time></trkpt><trkpt lat="43.457253265012795" lon="11.614612316441088"><ele>231.75</ele><time>2026-04-19T10:09:52Z</time></trkpt><trkpt lat="43.45734693027909" lon="11.614466247123048"><ele>231.5</ele><time>2026-04-19T10:09:53Z</time></trkpt><trkpt lat="43.4574228589081" lon="11.614323607774132"><ele>231.25</ele><time>2026-04-19T10:09:54Z</time></trkpt><trkpt lat="43.457498255035574" lon="11.61417853663135"><ele>231.0</ele><time>2026-04-19T10:09:55Z</time></trkpt><trkpt lat="43.457567300213135" lon="11.614038120818508"><ele>231.0</ele><time>2026-04-19T10:09:56Z</time></trkpt><trkpt lat="43.4576336786145" lon="11.613895227455044"><ele>231.0</ele><time>2026-04-19T10:09:57Z</time></trkpt><trkpt lat="43.45770214557984" lon="11.61375759154252"><ele>231.0</ele><time>2026-04-19T10:09:58Z</time></trkpt><trkpt lat="43.457770844122194" lon="11.613613479765533"><ele>231.0</ele><time>2026-04-19T10:09:59Z</time></trkpt><trkpt lat="43.457863153456145" lon="11.613475729292876"><ele>231.0</ele><time>2026-04-19T10:10:00Z</time></trkpt><trkpt lat="43.45798358347689" lon="11.613352828171703"><ele>231.0</ele><time>2026-04-19T10:10:01Z</time></trkpt><trkpt lat="43.45810511006323" lon="11.61321238819462"><ele>231.0</ele><time>2026-04-19T10:10:02Z</time></trkpt><trkpt lat="43.4582431397157" lon="11.613077865990906"><ele>231.0</ele><time>2026-04-19T10:10:03Z</time></trkpt><trkpt lat="43.458371169387874" lon="11.612974735070688"><ele>231.0</ele><time>2026-04-19T10:10:04Z</time></trkpt><trkpt lat="43.458494030348746" lon="11.61286635908764"><ele>231.0</ele><time>2026-04-19T10:10:05Z</time></trkpt><trkpt lat="43.458620764697436" lon="11.612763772860218"><ele>231.0</ele><time>2026-04-19T10:10:06Z</time></trkpt><trkpt lat="43.458753666227366" lon="11.612659540567137"><ele>230.25</ele><time>2026-04-19T10:10:07Z</time></trkpt><trkpt lat="43.45889767005763" lon="11.61256895457627"><ele>229.5</ele><time>2026-04-19T10:10:08Z</time></trkpt><trkpt lat="43.459038800392875" lon="11.612513292007657"><ele>228.75</ele><time>2026-04-19T10:10:09Z</time></trkpt><trkpt lat="43.45916979734736" lon="11.612468989969305"><ele>228.0</ele><time>2026-04-19T10:10:10Z</time></trkpt><trkpt lat="43.45930354487748" lon="11.612446486565739"><ele>228.0</ele><time>2026-04-19T10:10:11Z</time></trkpt><trkpt lat="43.459432912936244" lon="11.612444609307826"><ele>228.0</ele><time>2026-04-19T10:10:12Z</time></trkpt><trkpt lat="43.45955240149346" lon="11.612469138298763"><ele>228.0</ele><time>2026-04-19T10:10:13Z</time></trkpt><trkpt lat="43.45966553398777" lon="11.612515004004551"><ele>228.0</ele><time>2026-04-19T10:10:14Z</time></trkpt><trkpt lat="43.45976868782619" lon="11.612579485173955"><ele>228.75</ele><time>2026-04-19T10:10:15Z</time></trkpt><trkpt lat="43.45986276634345" lon="11.612666549507935"><ele>229.5</ele><time>2026-04-19T10:10:16Z</time></trkpt><trkpt lat="43.45995235317171" lon="11.61279012342829"><ele>230.25</ele><time>2026-04-19T10:10:17Z</time></trkpt><trkpt lat="43.4600290034349" lon="11.612939802405917"><ele>231.0</ele><time>2026-04-19T10:10:18Z</time></trkpt><trkpt lat="43.46010336477756" lon="11.613098734025646"><ele>231.0</ele><time>2026-04-19T10:10:19Z</time></trkpt><trkpt lat="43.46017523397042" lon="11.613275949147331"><ele>231.0</ele><time>2026-04-19T10:10:20Z</time></trkpt><trkpt lat="43.46026246194325" lon="11.613441041282755"><ele>231.0</ele><time>2026-04-19T10:10:21Z</time></trkpt><trkpt lat="43.460361834102095" lon="11.613580811577568"><ele>231.0</ele><time>2026-04-19T10:10:22Z</time></trkpt><trkpt lat="43.460478144899845" lon="11.613688289211714"><ele>230.75</ele><time>2026-04-19T10:10:23Z</time></trkpt><trkpt lat="43.46061128680022" lon="11.613769567514412"><ele>230.5</ele><time>2026-04-19T10:10:24Z</time></trkpt><trkpt lat="43.460743285878124" lon="11.613849557236767"><ele>230.25</ele><time>2026-04-19T10:10:25.001Z</time></trkpt><trkpt lat="43.460872004397324" lon="11.613939465410773"><ele>230.0</ele><time>2026-04-19T10:10:26.001Z</time></trkpt><trkpt lat="43.46100219847385" lon="11.614018444073665"><ele>230.0</ele><time>2026-04-19T10:10:27.001Z</time></trkpt><trkpt lat="43.46109941126991" lon="11.614099767486893"><ele>230.0</ele><time>2026-04-19T10:10:28.001Z</time></trkpt><trkpt lat="43.46119943408858" lon="11.614168831830437"><ele>230.0</ele><time>2026-04-19T10:10:29.001Z</time></trkpt><trkpt lat="43.461291339297354" lon="11.614225514622698"><ele>230.0</ele><time>2026-04-19T10:10:30Z</time></trkpt><trkpt lat="43.461378074543646" lon="11.614267437599517"><ele>230.0</ele><time>2026-04-19T10:10:31Z</time></trkpt><trkpt lat="43.461467436861085" lon="11.614267828664538"><ele>228.25</ele><time>2026-04-19T10:10:32Z</time></trkpt><trkpt lat="43.461561476153925" lon="11.614225064086513"><ele>226.5</ele><time>2026-04-19T10:10:33Z</time></trkpt><trkpt lat="43.46165574130567" lon="11.614144770257813"><ele>224.75</ele><time>2026-04-19T10:10:34Z</time></trkpt><trkpt lat="43.4617614630482" lon="11.614046981975848"><ele>223.0</ele><time>2026-04-19T10:10:35Z</time></trkpt><trkpt lat="43.46188179197819" lon="11.613945727871393"><ele>223.0</ele><time>2026-04-19T10:10:36Z</time></trkpt><trkpt lat="43.46199909194834" lon="11.613840897117989"><ele>223.0</ele><time>2026-04-19T10:10:37Z</time></trkpt><trkpt lat="43.46211150342316" lon="11.613746857161802"><ele>223.0</ele><time>2026-04-19T10:10:38Z</time></trkpt><trkpt lat="43.46223031369322" lon="11.613653843813058"><ele>223.0</ele><time>2026-04-19T10:10:39Z</time></trkpt><trkpt lat="43.462357630831555" lon="11.613566638556629"><ele>222.33333333333331</ele><time>2026-04-19T10:10:40Z</time></trkpt><trkpt lat="43.46249783531147" lon="11.613503557925828"><ele>221.66666666666669</ele><time>2026-04-19T10:10:41Z</time></trkpt><trkpt lat="43.462649200347975" lon="11.613465211550997"><ele>221.0</ele><time>2026-04-19T10:10:42Z</time></trkpt><trkpt lat="43.46280842162755" lon="11.61343156244565"><ele>222.33333333333334</ele><time>2026-04-19T10:10:43Z</time></trkpt><trkpt lat="43.46296950418066" lon="11.613395145387903"><ele>223.66666666666669</ele><time>2026-04-19T10:10:44Z</time></trkpt><trkpt lat="43.463131489506964" lon="11.613355216194696"><ele>225.0</ele><time>2026-04-19T10:10:45Z</time></trkpt><trkpt lat="43.46329660644474" lon="11.613314090432596"><ele>225.0</ele><time>2026-04-19T10:10:46Z</time></trkpt><trkpt lat="43.463465042249055" lon="11.61327084642502"><ele>225.0</ele><time>2026-04-19T10:10:47Z</time></trkpt><trkpt lat="43.46364155162336" lon="11.61322786404108"><ele>225.0</ele><time>2026-04-19T10:10:48Z</time></trkpt><trkpt lat="43.46382239192473" lon="11.613181483890132"><ele>226.66666666666669</ele><time>2026-04-19T10:10:49Z</time></trkpt><trkpt lat="43.46400374970927" lon="11.613133073629289"><ele>228.33333333333334</ele><time>2026-04-19T10:10:50Z</time></trkpt><trkpt lat="43.46418708321008" lon="11.613090281083622"><ele>230.0</ele><time>2026-04-19T10:10:51Z</time></trkpt><trkpt lat="43.46437210642984" lon="11.613045926746365"><ele>230.0</ele><time>2026-04-19T10:10:52Z</time></trkpt><trkpt lat="43.464560912255685" lon="11.612997176311369"><ele>230.0</ele><time>2026-04-19T10:10:53Z</time></trkpt><trkpt lat="43.46475315278248" lon="11.612944383071905"><ele>230.0</ele><time>2026-04-19T10:10:54Z</time></trkpt><trkpt lat="43.46494778856484" lon="11.612893163317501"><ele>231.66666666666669</ele><time>2026-04-19T10:10:55Z</time></trkpt><trkpt lat="43.46514567794731" lon="11.612843712908349"><ele>233.33333333333331</ele><time>2026-04-19T10:10:56Z</time></trkpt><trkpt lat="43.46534436740992" lon="11.612794268294866"><ele>235.0</ele><time>2026-04-19T10:10:57Z</time></trkpt><trkpt lat="43.46554168637282" lon="11.612743095881207"><ele>235.0</ele><time>2026-04-19T10:10:58Z</time></trkpt><trkpt lat="43.465738761388195" lon="11.612694117340524"><ele>235.0</ele><time>2026-04-19T10:10:59Z</time></trkpt><trkpt lat="43.46593805043394" lon="11.612643554420037"><ele>235.0</ele><time>2026-04-19T10:11:00Z</time></trkpt><trkpt lat="43.466137600609095" lon="11.612592820159177"><ele>234.33333333333331</ele><time>2026-04-19T10:11:01Z</time></trkpt><trkpt lat="43.46633391378989" lon="11.612540392462632"><ele>233.66666666666669</ele><time>2026-04-19T10:11:02Z</time></trkpt><trkpt lat="43.46652431244771" lon="11.612490591176426"><ele>233.0</ele><time>2026-04-19T10:11:03Z</time></trkpt><trkpt lat="43.46671013043536" lon="11.612444915294152"><ele>233.0</ele><time>2026-04-19T10:11:04Z</time></trkpt><trkpt lat="43.46688613988961" lon="11.612416536260865"><ele>233.0</ele><time>2026-04-19T10:11:05Z</time></trkpt><trkpt lat="43.46705547025784" lon="11.6124128219783"><ele>233.0</ele><time>2026-04-19T10:11:06Z</time></trkpt><trkpt lat="43.46722624578494" lon="11.612446436649668"><ele>233.33333333333334</ele><time>2026-04-19T10:11:07Z</time></trkpt><trkpt lat="43.46739815457239" lon="11.612488887962401"><ele>233.66666666666669</ele><time>2026-04-19T10:11:08Z</time></trkpt><trkpt lat="43.46756782450326" lon="11.612553914887236"><ele>234.0</ele><time>2026-04-19T10:11:09Z</time></trkpt><trkpt lat="43.467720293167076" lon="11.612634446114228"><ele>234.0</ele><time>2026-04-19T10:11:10Z</time></trkpt><trkpt lat="43.46785556141252" lon="11.61272703344349"><ele>234.0</ele><time>2026-04-19T10:11:11Z</time></trkpt><trkpt lat="43.46798939015167" lon="11.612836295016493"><ele>234.0</ele><time>2026-04-19T10:11:12Z</time></trkpt><trkpt lat="43.4681204264705" lon="11.61296275650119"><ele>234.0</ele><time>2026-04-19T10:11:13Z</time></trkpt><trkpt lat="43.46824270383493" lon="11.61308528711259"><ele>234.0</ele><time>2026-04-19T10:11:14Z</time></trkpt><trkpt lat="43.46835720708614" lon="11.61320883912686"><ele>234.0</ele><time>2026-04-19T10:11:15Z</time></trkpt><trkpt lat="43.468478021446636" lon="11.613330942096638"><ele>234.0</ele><time>2026-04-19T10:11:16Z</time></trkpt><trkpt lat="43.46858894998166" lon="11.613447840426259"><ele>234.0</ele><time>2026-04-19T10:11:17Z</time></trkpt><trkpt lat="43.46871156337659" lon="11.61357523585768"><ele>234.0</ele><time>2026-04-19T10:11:18Z</time></trkpt><trkpt lat="43.4688435481571" lon="11.61371592262975"><ele>234.0</ele><time>2026-04-19T10:11:19Z</time></trkpt><trkpt lat="43.468986168577544" lon="11.61385719489054"><ele>236.0</ele><time>2026-04-19T10:11:20Z</time></trkpt><trkpt lat="43.46913043843101" lon="11.614004090795252"><ele>238.0</ele><time>2026-04-19T10:11:21Z</time></trkpt><trkpt lat="43.46927597510438" lon="11.614155327846499"><ele>240.0</ele><time>2026-04-19T10:11:22Z</time></trkpt><trkpt lat="43.469424641512816" lon="11.614310988054635"><ele>240.0</ele><time>2026-04-19T10:11:23Z</time></trkpt><trkpt lat="43.46957096880005" lon="11.614467708844856"><ele>240.0</ele><time>2026-04-19T10:11:24Z</time></trkpt><trkpt lat="43.46971939955879" lon="11.614616801548319"><ele>240.0</ele><time>2026-04-19T10:11:25Z</time></trkpt><trkpt lat="43.46987252561828" lon="11.614752496089634"><ele>241.0</ele><time>2026-04-19T10:11:26Z</time></trkpt><trkpt lat="43.47003036977283" lon="11.614864077989454"><ele>242.0</ele><time>2026-04-19T10:11:27Z</time></trkpt><trkpt lat="43.47019672958104" lon="11.614951076838487"><ele>243.0</ele><time>2026-04-19T10:11:28Z</time></trkpt><trkpt lat="43.470361205802064" lon="11.615017971681311"><ele>244.66666666666669</ele><time>2026-04-19T10:11:29Z</time></trkpt><trkpt lat="43.47052002643356" lon="11.615035724150312"><ele>246.33333333333334</ele><time>2026-04-19T10:11:30Z</time></trkpt><trkpt lat="43.47066936371671" lon="11.61502881091677"><ele>248.0</ele><time>2026-04-19T10:11:31Z</time></trkpt><trkpt lat="43.47081192383388" lon="11.615004450254247"><ele>248.0</ele><time>2026-04-19T10:11:32Z</time></trkpt><trkpt lat="43.470950041838734" lon="11.614974807144131"><ele>248.0</ele><time>2026-04-19T10:11:33Z</time></trkpt><trkpt lat="43.47108415449362" lon="11.614955443686497"><ele>248.0</ele><time>2026-04-19T10:11:34Z</time></trkpt><trkpt lat="43.47121664638997" lon="11.61495205839026"><ele>248.0</ele><time>2026-04-19T10:11:35Z</time></trkpt><trkpt lat="43.47135163142643" lon="11.614972052941278"><ele>249.0</ele><time>2026-04-19T10:11:36Z</time></trkpt><trkpt lat="43.47148445902969" lon="11.615010048383548"><ele>250.0</ele><time>2026-04-19T10:11:37Z</time></trkpt><trkpt lat="43.47162457891242" lon="11.615065941837447"><ele>251.0</ele><time>2026-04-19T10:11:38Z</time></trkpt><trkpt lat="43.471767420401875" lon="11.615154777984676"><ele>252.0</ele><time>2026-04-19T10:11:39Z</time></trkpt><trkpt lat="43.47190106372943" lon="11.615276951753248"><ele>252.25</ele><time>2026-04-19T10:11:40Z</time></trkpt><trkpt lat="43.4720216487962" lon="11.615403003157358"><ele>252.5</ele><time>2026-04-19T10:11:41Z</time></trkpt><trkpt lat="43.47213718754332" lon="11.615507091102849"><ele>252.75</ele><time>2026-04-19T10:11:42Z</time></trkpt><trkpt lat="43.472251460561985" lon="11.615596158218855"><ele>253.0</ele><time>2026-04-19T10:11:43Z</time></trkpt><trkpt lat="43.472371167141205" lon="11.615682563407002"><ele>252.5</ele><time>2026-04-19T10:11:44Z</time></trkpt><trkpt lat="43.472496235318275" lon="11.615772730644734"><ele>252.0</ele><time>2026-04-19T10:11:45Z</time></trkpt><trkpt lat="43.47262348569245" lon="11.615853986685064"><ele>251.5</ele><time>2026-04-19T10:11:46Z</time></trkpt><trkpt lat="43.472746248631616" lon="11.615929539106993"><ele>251.0</ele><time>2026-04-19T10:11:47Z</time></trkpt><trkpt lat="43.47286704378444" lon="11.616003375078382"><ele>250.4</ele><time>2026-04-19T10:11:48Z</time></trkpt><trkpt lat="43.47297903553992" lon="11.616074361087454"><ele>249.8</ele><time>2026-04-19T10:11:49Z</time></trkpt><trkpt lat="43.47307663066893" lon="11.61613469086943"><ele>249.20000000000002</ele><time>2026-04-19T10:11:50Z</time></trkpt><trkpt lat="43.473165353178565" lon="11.61618545099073"><ele>248.60000000000002</ele><time>2026-04-19T10:11:51Z</time></trkpt><trkpt lat="43.473249282016525" lon="11.61623354153812"><ele>248.0</ele><time>2026-04-19T10:11:52Z</time></trkpt><trkpt lat="43.473334821806404" lon="11.616283475526503"><ele>248.0</ele><time>2026-04-19T10:11:53Z</time></trkpt><trkpt lat="43.47342778895938" lon="11.616339621131191"><ele>248.0</ele><time>2026-04-19T10:11:54Z</time></trkpt><trkpt lat="43.47352540199723" lon="11.616397123161038"><ele>248.0</ele><time>2026-04-19T10:11:55Z</time></trkpt><trkpt lat="43.47363881930028" lon="11.616466122252898"><ele>248.0</ele><time>2026-04-19T10:11:56Z</time></trkpt><trkpt lat="43.47376695405008" lon="11.616544531340859"><ele>246.33333333333334</ele><time>2026-04-19T10:11:57Z</time></trkpt><trkpt lat="43.47390626751311" lon="11.61662775078257"><ele>244.66666666666669</ele><time>2026-04-19T10:11:58Z</time></trkpt><trkpt lat="43.474055285364734" lon="11.61671740585129"><ele>243.0</ele><time>2026-04-19T10:11:59Z</time></trkpt><trkpt lat="43.474220408216105" lon="11.61681896584883"><ele>243.0</ele><time>2026-04-19T10:12:00Z</time></trkpt><trkpt lat="43.47439614126949" lon="11.616922773082528"><ele>243.0</ele><time>2026-04-19T10:12:01Z</time></trkpt><trkpt lat="43.47457341275848" lon="11.61702619482256"><ele>243.0</ele><time>2026-04-19T10:12:02Z</time></trkpt><trkpt lat="43.47475710248871" lon="11.6171335604383"><ele>241.66666666666669</ele><time>2026-04-19T10:12:03Z</time></trkpt><trkpt lat="43.4749404023873" lon="11.617244961380921"><ele>240.33333333333334</ele><time>2026-04-19T10:12:04Z</time></trkpt><trkpt lat="43.47512277935678" lon="11.617354234620107"><ele>239.0</ele><time>2026-04-19T10:12:05Z</time></trkpt><trkpt lat="43.47530585920508" lon="11.617462887107903"><ele>240.33333333333334</ele><time>2026-04-19T10:12:06Z</time></trkpt><trkpt lat="43.47548786271591" lon="11.617570532886846"><ele>241.66666666666669</ele><time>2026-04-19T10:12:07Z</time></trkpt><trkpt lat="43.47566979681857" lon="11.61768216689247"><ele>243.0</ele><time>2026-04-19T10:12:08Z</time></trkpt><trkpt lat="43.47585092530401" lon="11.617793887701172"><ele>239.33333333333331</ele><time>2026-04-19T10:12:09Z</time></trkpt><trkpt lat="43.476026403648355" lon="11.6179026581464"><ele>235.66666666666666</ele><time>2026-04-19T10:12:10Z</time></trkpt><trkpt lat="43.476196434315725" lon="11.618001684889528"><ele>232.0</ele><time>2026-04-19T10:12:11Z</time></trkpt><trkpt lat="43.47636199164401" lon="11.618098828083971"><ele>231.66666666666666</ele><time>2026-04-19T10:12:12Z</time></trkpt><trkpt lat="43.476523413669874" lon="11.618199649861324"><ele>231.33333333333331</ele><time>2026-04-19T10:12:13Z</time></trkpt><trkpt lat="43.47667726609138" lon="11.61831321181465"><ele>231.0</ele><time>2026-04-19T10:12:14Z</time></trkpt><trkpt lat="43.476811877884046" lon="11.618448267327144"><ele>231.0</ele><time>2026-04-19T10:12:15Z</time></trkpt><trkpt lat="43.476929770476936" lon="11.618611643705616"><ele>231.0</ele><time>2026-04-19T10:12:16Z</time></trkpt><trkpt lat="43.47704075352709" lon="11.618799137863443"><ele>231.0</ele><time>2026-04-19T10:12:17Z</time></trkpt><trkpt lat="43.47713756988367" lon="11.619023322773026"><ele>231.66666666666669</ele><time>2026-04-19T10:12:18Z</time></trkpt><trkpt lat="43.47721792740625" lon="11.619272163910177"><ele>232.33333333333334</ele><time>2026-04-19T10:12:19Z</time></trkpt><trkpt lat="43.477279989704556" lon="11.619518885086775"><ele>233.0</ele><time>2026-04-19T10:12:20Z</time></trkpt><trkpt lat="43.47733703640352" lon="11.619756113052626"><ele>231.0</ele><time>2026-04-19T10:12:21Z</time></trkpt><trkpt lat="43.477397155627344" lon="11.61998050074104"><ele>229.0</ele><time>2026-04-19T10:12:22Z</time></trkpt><trkpt lat="43.477458092886266" lon="11.620194726874875"><ele>227.0</ele><time>2026-04-19T10:12:23Z</time></trkpt><trkpt lat="43.47750915119682" lon="11.620385235996203"><ele>226.0</ele><time>2026-04-19T10:12:24.001Z</time></trkpt><trkpt lat="43.47756168796227" lon="11.620572755180673"><ele>225.0</ele><time>2026-04-19T10:12:25.001Z</time></trkpt><trkpt lat="43.4776068947091" lon="11.620750059155093"><ele>224.0</ele><time>2026-04-19T10:12:26.001Z</time></trkpt><trkpt lat="43.47765171930956" lon="11.620924710778306"><ele>223.0</ele><time>2026-04-19T10:12:27.001Z</time></trkpt><trkpt lat="43.47769884806881" lon="11.621098477021354"><ele>222.25</ele><time>2026-04-19T10:12:28.001Z</time></trkpt><trkpt lat="43.477751989766006" lon="11.621288432295485"><ele>221.5</ele><time>2026-04-19T10:12:29.001Z</time></trkpt><trkpt lat="43.47780476823253" lon="11.621487334399198"><ele>220.75</ele><time>2026-04-19T10:12:30.001Z</time></trkpt><trkpt lat="43.477857941389" lon="11.621674428313492"><ele>220.0</ele><time>2026-04-19T10:12:31.001Z</time></trkpt><trkpt lat="43.47792510247979" lon="11.621847742343007"><ele>216.75</ele><time>2026-04-19T10:12:32.001Z</time></trkpt><trkpt lat="43.478004823526106" lon="11.621994551196199"><ele>213.5</ele><time>2026-04-19T10:12:33.001Z</time></trkpt><trkpt lat="43.47809540731025" lon="11.62212139704397"><ele>210.25</ele><time>2026-04-19T10:12:34.001Z</time></trkpt><trkpt lat="43.478198534901004" lon="11.622225552752873"><ele>207.0</ele><time>2026-04-19T10:12:35.001Z</time></trkpt><trkpt lat="43.47831698203825" lon="11.622289567072535"><ele>207.0</ele><time>2026-04-19T10:12:36Z</time></trkpt><trkpt lat="43.47845657612578" lon="11.622312959910147"><ele>207.0</ele><time>2026-04-19T10:12:37Z</time></trkpt><trkpt lat="43.47861291444002" lon="11.622310081640403"><ele>207.0</ele><time>2026-04-19T10:12:38Z</time></trkpt><trkpt lat="43.47876889801581" lon="11.622298894867507"><ele>204.5</ele><time>2026-04-19T10:12:39Z</time></trkpt><trkpt lat="43.4789157173316" lon="11.622301638817028"><ele>202.0</ele><time>2026-04-19T10:12:40Z</time></trkpt><trkpt lat="43.47906022474349" lon="11.62227552255183"><ele>199.5</ele><time>2026-04-19T10:12:41Z</time></trkpt><trkpt lat="43.47919571060325" lon="11.6222210920605"><ele>197.0</ele><time>2026-04-19T10:12:42Z</time></trkpt><trkpt lat="43.47934653410198" lon="11.622133664956289"><ele>197.0</ele><time>2026-04-19T10:12:43Z</time></trkpt><trkpt lat="43.47950175943425" lon="11.622014730588923"><ele>197.0</ele><time>2026-04-19T10:12:44Z</time></trkpt><trkpt lat="43.479656221187405" lon="11.621883007909158"><ele>197.0</ele><time>2026-04-19T10:12:45Z</time></trkpt><trkpt lat="43.47980834564813" lon="11.621754917458905"><ele>197.66666666666669</ele><time>2026-04-19T10:12:46Z</time></trkpt><trkpt lat="43.4799444293015" lon="11.62163014906321"><ele>198.33333333333331</ele><time>2026-04-19T10:12:47Z</time></trkpt><trkpt lat="43.48007479702512" lon="11.62150750673078"><ele>199.0</ele><time>2026-04-19T10:12:48Z</time></trkpt><trkpt lat="43.48020390995392" lon="11.621384961782692"><ele>199.0</ele><time>2026-04-19T10:12:49Z</time></trkpt><trkpt lat="43.480327471570014" lon="11.621268677019314"><ele>199.0</ele><time>2026-04-19T10:12:50Z</time></trkpt><trkpt lat="43.4804408509189" lon="11.621151300698134"><ele>199.0</ele><time>2026-04-19T10:12:51Z</time></trkpt><trkpt lat="43.48055656521292" lon="11.621034565578382"><ele>199.0</ele><time>2026-04-19T10:12:52Z</time></trkpt><trkpt lat="43.4806734631955" lon="11.620924739041183"><ele>197.25</ele><time>2026-04-19T10:12:53Z</time></trkpt><trkpt lat="43.48079492764991" lon="11.620824749760343"><ele>195.5</ele><time>2026-04-19T10:12:54Z</time></trkpt><trkpt lat="43.48091486395825" lon="11.620730427970793"><ele>193.75</ele><time>2026-04-19T10:12:55Z</time></trkpt><trkpt lat="43.48102897242501" lon="11.620647590378894"><ele>192.0</ele><time>2026-04-19T10:12:56Z</time></trkpt><trkpt lat="43.481136060308074" lon="11.620546660255592"><ele>192.0</ele><time>2026-04-19T10:12:57Z</time></trkpt><trkpt lat="43.48120647100551" lon="11.62041141176933"><ele>192.0</ele><time>2026-04-19T10:12:58Z</time></trkpt><trkpt lat="43.4812659614756" lon="11.620248354530395"><ele>192.0</ele><time>2026-04-19T10:12:59Z</time></trkpt><trkpt lat="43.48131208892834" lon="11.620042706208398"><ele>192.0</ele><time>2026-04-19T10:13:00Z</time></trkpt><trkpt lat="43.48135243640708" lon="11.619836514719823"><ele>190.33333333333334</ele><time>2026-04-19T10:13:01Z</time></trkpt><trkpt lat="43.48140161521823" lon="11.619628123133165"><ele>188.66666666666669</ele><time>2026-04-19T10:13:02Z</time></trkpt><trkpt lat="43.481458266177974" lon="11.6194328285377"><ele>187.0</ele><time>2026-04-19T10:13:03Z</time></trkpt><trkpt lat="43.4815338572567" lon="11.61926564983173"><ele>187.0</ele><time>2026-04-19T10:13:04Z</time></trkpt><trkpt lat="43.4816562663272" lon="11.6191457660556"><ele>187.0</ele><time>2026-04-19T10:13:05Z</time></trkpt><trkpt lat="43.48177687141773" lon="11.619040692685473"><ele>187.0</ele><time>2026-04-19T10:13:06Z</time></trkpt><trkpt lat="43.48190357810209" lon="11.618944242595628"><ele>187.0</ele><time>2026-04-19T10:13:07Z</time></trkpt><trkpt lat="43.482019559019726" lon="11.618838504367409"><ele>186.25</ele><time>2026-04-19T10:13:08Z</time></trkpt><trkpt lat="43.482145605738914" lon="11.618753711706908"><ele>185.5</ele><time>2026-04-19T10:13:09Z</time></trkpt><trkpt lat="43.482270868434505" lon="11.618659284843035"><ele>184.75</ele><time>2026-04-19T10:13:10Z</time></trkpt><trkpt lat="43.48239151838093" lon="11.618576550526612"><ele>184.0</ele><time>2026-04-19T10:13:11Z</time></trkpt><trkpt lat="43.482524009920766" lon="11.618502168209044"><ele>184.0</ele><time>2026-04-19T10:13:12Z</time></trkpt><trkpt lat="43.482658800176836" lon="11.618426326215948"><ele>184.0</ele><time>2026-04-19T10:13:13Z</time></trkpt><trkpt lat="43.48278868515405" lon="11.618373176079997"><ele>184.0</ele><time>2026-04-19T10:13:14Z</time></trkpt><trkpt lat="43.48291888633391" lon="11.618360923132155"><ele>184.0</ele><time>2026-04-19T10:13:15Z</time></trkpt><trkpt lat="43.48306010823719" lon="11.618389627780816"><ele>183.0</ele><time>2026-04-19T10:13:16Z</time></trkpt><trkpt lat="43.48318332955361" lon="11.618457678351037"><ele>182.0</ele><time>2026-04-19T10:13:17Z</time></trkpt><trkpt lat="43.48329237206373" lon="11.618573342833866"><ele>181.0</ele><time>2026-04-19T10:13:18Z</time></trkpt><trkpt lat="43.4834037149295" lon="11.618675824999585"><ele>180.0</ele><time>2026-04-19T10:13:19Z</time></trkpt><trkpt lat="43.4835071186391" lon="11.61881749847115"><ele>177.66666666666666</ele><time>2026-04-19T10:13:20Z</time></trkpt><trkpt lat="43.483618064242464" lon="11.618958111707236"><ele>175.33333333333331</ele><time>2026-04-19T10:13:21Z</time></trkpt><trkpt lat="43.4837257348152" lon="11.619098692274461"><ele>173.0</ele><time>2026-04-19T10:13:22Z</time></trkpt><trkpt lat="43.48384729245609" lon="11.619247297561605"><ele>173.0</ele><time>2026-04-19T10:13:23Z</time></trkpt><trkpt lat="43.48397650464999" lon="11.619409102724376"><ele>173.0</ele><time>2026-04-19T10:13:24Z</time></trkpt><trkpt lat="43.484096591824205" lon="11.619558331417053"><ele>173.0</ele><time>2026-04-19T10:13:25Z</time></trkpt><trkpt lat="43.484210099708925" lon="11.61969666837436"><ele>174.0</ele><time>2026-04-19T10:13:26Z</time></trkpt><trkpt lat="43.484326264963705" lon="11.619836338873993"><ele>175.0</ele><time>2026-04-19T10:13:27Z</time></trkpt><trkpt lat="43.48444796984051" lon="11.619982222795121"><ele>176.0</ele><time>2026-04-19T10:13:28Z</time></trkpt><trkpt lat="43.48456509571789" lon="11.620141526323483"><ele>176.0</ele><time>2026-04-19T10:13:29Z</time></trkpt><trkpt lat="43.48469003153133" lon="11.620300639968573"><ele>176.0</ele><time>2026-04-19T10:13:30Z</time></trkpt><trkpt lat="43.48483182626636" lon="11.62046017698933"><ele>176.0</ele><time>2026-04-19T10:13:31Z</time></trkpt><trkpt lat="43.484949237424566" lon="11.620629715256507"><ele>176.0</ele><time>2026-04-19T10:13:32Z</time></trkpt><trkpt lat="43.485078085895246" lon="11.62079620519088"><ele>176.0</ele><time>2026-04-19T10:13:33Z</time></trkpt><trkpt lat="43.48520391533919" lon="11.620957476828808"><ele>176.0</ele><time>2026-04-19T10:13:34Z</time></trkpt><trkpt lat="43.48532110868458" lon="11.621104240300387"><ele>176.5</ele><time>2026-04-19T10:13:35Z</time></trkpt><trkpt lat="43.48543083913623" lon="11.621241052706594"><ele>177.0</ele><time>2026-04-19T10:13:36Z</time></trkpt><trkpt lat="43.48553291638179" lon="11.621368744193914"><ele>177.5</ele><time>2026-04-19T10:13:37Z</time></trkpt><trkpt lat="43.48563221288029" lon="11.621496448268081"><ele>178.0</ele><time>2026-04-19T10:13:38Z</time></trkpt><trkpt lat="43.48573048950975" lon="11.62162154497239"><ele>178.0</ele><time>2026-04-19T10:13:39Z</time></trkpt><trkpt lat="43.48582937846104" lon="11.621744417065099"><ele>178.0</ele><time>2026-04-19T10:13:40Z</time></trkpt><trkpt lat="43.48593713669" lon="11.621851747884802"><ele>178.0</ele><time>2026-04-19T10:13:41Z</time></trkpt><trkpt lat="43.48606948655615" lon="11.621924673822503"><ele>178.0</ele><time>2026-04-19T10:13:42Z</time></trkpt><trkpt lat="43.48622606599072" lon="11.621974198590882"><ele>181.5</ele><time>2026-04-19T10:13:43Z</time></trkpt><trkpt lat="43.48637728052375" lon="11.622016920920387"><ele>185.0</ele><time>2026-04-19T10:13:44Z</time></trkpt><trkpt lat="43.48651170137512" lon="11.622058922886959"><ele>188.5</ele><time>2026-04-19T10:13:45Z</time></trkpt><trkpt lat="43.48664862969204" lon="11.622109157116597"><ele>192.0</ele><time>2026-04-19T10:13:46Z</time></trkpt><trkpt lat="43.48678558875699" lon="11.622159011532949"><ele>192.0</ele><time>2026-04-19T10:13:47Z</time></trkpt><trkpt lat="43.486923883326256" lon="11.622205940478475"><ele>192.0</ele><time>2026-04-19T10:13:48Z</time></trkpt><trkpt lat="43.487054116903174" lon="11.622251146899456"><ele>192.0</ele><time>2026-04-19T10:13:49Z</time></trkpt><trkpt lat="43.48718264294493" lon="11.622299187923106"><ele>192.0</ele><time>2026-04-19T10:13:50Z</time></trkpt><trkpt lat="43.4873170159356" lon="11.622349015764073"><ele>191.0</ele><time>2026-04-19T10:13:51Z</time></trkpt><trkpt lat="43.48745797846413" lon="11.622385488194782"><ele>190.0</ele><time>2026-04-19T10:13:52Z</time></trkpt><trkpt lat="43.48760370785108" lon="11.622385389278122"><ele>189.0</ele><time>2026-04-19T10:13:53Z</time></trkpt><trkpt lat="43.48774647340135" lon="11.622337211857628"><ele>188.0</ele><time>2026-04-19T10:13:54Z</time></trkpt><trkpt lat="43.487885591142906" lon="11.622253944724061"><ele>190.33333333333331</ele><time>2026-04-19T10:13:55Z</time></trkpt><trkpt lat="43.48802700498003" lon="11.622162168141985"><ele>192.66666666666666</ele><time>2026-04-19T10:13:56Z</time></trkpt><trkpt lat="43.48816571041486" lon="11.622083242002626"><ele>195.0</ele><time>2026-04-19T10:13:57Z</time></trkpt><trkpt lat="43.48830057366749" lon="11.622007841554058"><ele>188.33333333333334</ele><time>2026-04-19T10:13:58Z</time></trkpt><trkpt lat="43.48843986992561" lon="11.621933242498798"><ele>181.66666666666669</ele><time>2026-04-19T10:13:59Z</time></trkpt><trkpt lat="43.488584385254136" lon="11.621855795124915"><ele>175.0</ele><time>2026-04-19T10:14:00Z</time></trkpt><trkpt lat="43.488732183145665" lon="11.621772369784406"><ele>177.75</ele><time>2026-04-19T10:14:01Z</time></trkpt><trkpt lat="43.48886103440917" lon="11.621701434196286"><ele>180.5</ele><time>2026-04-19T10:14:02Z</time></trkpt><trkpt lat="43.488975714517" lon="11.621639898608858"><ele>183.25</ele><time>2026-04-19T10:14:03Z</time></trkpt><trkpt lat="43.48907243774333" lon="11.621572318619735"><ele>186.0</ele><time>2026-04-19T10:14:04Z</time></trkpt><trkpt lat="43.48915428276046" lon="11.621490929441677"><ele>186.0</ele><time>2026-04-19T10:14:05Z</time></trkpt><trkpt lat="43.489237890062604" lon="11.621374505371895"><ele>186.0</ele><time>2026-04-19T10:14:06Z</time></trkpt><trkpt lat="43.48931965539495" lon="11.621237361742962"><ele>186.0</ele><time>2026-04-19T10:14:07Z</time></trkpt><trkpt lat="43.48938187402416" lon="11.621095133978523"><ele>186.0</ele><time>2026-04-19T10:14:08Z</time></trkpt><trkpt lat="43.489420127656096" lon="11.620942133482814"><ele>183.0</ele><time>2026-04-19T10:14:09Z</time></trkpt><trkpt lat="43.48944165956304" lon="11.620779044363841"><ele>180.0</ele><time>2026-04-19T10:14:10Z</time></trkpt><trkpt lat="43.489449020533264" lon="11.620619378977745"><ele>177.0</ele><time>2026-04-19T10:14:11Z</time></trkpt><trkpt lat="43.489446521366524" lon="11.62046273855404"><ele>174.0</ele><time>2026-04-19T10:14:12Z</time></trkpt><trkpt lat="43.489443124431205" lon="11.62031431801997"><ele>173.33333333333334</ele><time>2026-04-19T10:14:13Z</time></trkpt><trkpt lat="43.48944171331915" lon="11.620176927001708"><ele>172.66666666666666</ele><time>2026-04-19T10:14:14Z</time></trkpt><trkpt lat="43.48943872136958" lon="11.620046349847888"><ele>172.0</ele><time>2026-04-19T10:14:15Z</time></trkpt><trkpt lat="43.48943730919444" lon="11.619923043559831"><ele>171.33333333333331</ele><time>2026-04-19T10:14:16Z</time></trkpt><trkpt lat="43.48944764906385" lon="11.619806564686762"><ele>170.66666666666666</ele><time>2026-04-19T10:14:17Z</time></trkpt><trkpt lat="43.48948356207285" lon="11.619708526005837"><ele>170.0</ele><time>2026-04-19T10:14:18Z</time></trkpt><trkpt lat="43.48954190191151" lon="11.619635719404755"><ele>172.0</ele><time>2026-04-19T10:14:19Z</time></trkpt><trkpt lat="43.489605482160826" lon="11.619550386323828"><ele>174.0</ele><time>2026-04-19T10:14:20Z</time></trkpt><trkpt lat="43.48975704584928" lon="11.619553064504508"><ele>176.0</ele><time>2026-04-19T10:14:21Z</time></trkpt><trkpt lat="43.489898618277344" lon="11.61957164537484"><ele>178.0</ele><time>2026-04-19T10:14:22Z</time></trkpt><trkpt lat="43.49003651676628" lon="11.619558406207743"><ele>178.0</ele><time>2026-04-19T10:14:23Z</time></trkpt><trkpt lat="43.49015514916479" lon="11.619590687125214"><ele>178.0</ele><time>2026-04-19T10:14:24Z</time></trkpt><trkpt lat="43.490256703208765" lon="11.619633599596927"><ele>178.0</ele><time>2026-04-19T10:14:25Z</time></trkpt><trkpt lat="43.49035880729197" lon="11.619699136946966"><ele>178.0</ele><time>2026-04-19T10:14:26Z</time></trkpt><trkpt lat="43.49046450746532" lon="11.619802792928253"><ele>178.5</ele><time>2026-04-19T10:14:27Z</time></trkpt><trkpt lat="43.49056659345114" lon="11.619932530711212"><ele>179.0</ele><time>2026-04-19T10:14:28Z</time></trkpt><trkpt lat="43.49065271983149" lon="11.620062903396594"><ele>179.5</ele><time>2026-04-19T10:14:29Z</time></trkpt><trkpt lat="43.49071306070763" lon="11.620206588138293"><ele>180.0</ele><time>2026-04-19T10:14:30Z</time></trkpt><trkpt lat="43.490745588488515" lon="11.620366017866461"><ele>180.75</ele><time>2026-04-19T10:14:31Z</time></trkpt><trkpt lat="43.49077405465583" lon="11.620540737675206"><ele>181.5</ele><time>2026-04-19T10:14:32.001Z</time></trkpt><trkpt lat="43.49081989472258" lon="11.620722753342609"><ele>182.25</ele><time>2026-04-19T10:14:33.001Z</time></trkpt><trkpt lat="43.49091879672671" lon="11.620886867357362"><ele>183.0</ele><time>2026-04-19T10:14:34.001Z</time></trkpt><trkpt lat="43.49097147335783" lon="11.621134340470535"><ele>183.0</ele><time>2026-04-19T10:14:35.001Z</time></trkpt><trkpt lat="43.49105146147029" lon="11.621370215963312"><ele>183.0</ele><time>2026-04-19T10:14:36.001Z</time></trkpt><trkpt lat="43.49111558658108" lon="11.621616488204175"><ele>183.0</ele><time>2026-04-19T10:14:37.001Z</time></trkpt><trkpt lat="43.4911593644384" lon="11.621871493933032"><ele>184.0</ele><time>2026-04-19T10:14:38.001Z</time></trkpt><trkpt lat="43.49118539030544" lon="11.622129157961972"><ele>185.0</ele><time>2026-04-19T10:14:39.001Z</time></trkpt><trkpt lat="43.4911977713722" lon="11.622383587762581"><ele>186.0</ele><time>2026-04-19T10:14:40.001Z</time></trkpt><trkpt lat="43.49119387801215" lon="11.622640806899222"><ele>188.66666666666669</ele><time>2026-04-19T10:14:41.001Z</time></trkpt><trkpt lat="43.49117070500726" lon="11.62289963134834"><ele>191.33333333333334</ele><time>2026-04-19T10:14:42Z</time></trkpt><trkpt lat="43.491132877691626" lon="11.623146785236077"><ele>194.0</ele><time>2026-04-19T10:14:43Z</time></trkpt><trkpt lat="43.49107338279368" lon="11.62338216687122"><ele>194.0</ele><time>2026-04-19T10:14:44Z</time></trkpt><trkpt lat="43.4910033700972" lon="11.623615947549697"><ele>194.0</ele><time>2026-04-19T10:14:45Z</time></trkpt><trkpt lat="43.490924716698466" lon="11.62385145717901"><ele>194.0</ele><time>2026-04-19T10:14:46Z</time></trkpt><trkpt lat="43.490844729635256" lon="11.624089091681581"><ele>197.66666666666669</ele><time>2026-04-19T10:14:47Z</time></trkpt><trkpt lat="43.490765160085445" lon="11.624331096546891"><ele>201.33333333333331</ele><time>2026-04-19T10:14:48Z</time></trkpt><trkpt lat="43.49068290923137" lon="11.624588363410071"><ele>205.0</ele><time>2026-04-19T10:14:49Z</time></trkpt><trkpt lat="43.490601224782786" lon="11.62484681095194"><ele>205.33333333333331</ele><time>2026-04-19T10:14:50Z</time></trkpt><trkpt lat="43.49051404878014" lon="11.62509808951983"><ele>205.66666666666669</ele><time>2026-04-19T10:14:51Z</time></trkpt><trkpt lat="43.49043053605664" lon="11.625341649807421"><ele>206.0</ele><time>2026-04-19T10:14:52Z</time></trkpt><trkpt lat="43.49035964663166" lon="11.625578777820916"><ele>206.0</ele><time>2026-04-19T10:14:53Z</time></trkpt><trkpt lat="43.490306709329836" lon="11.625812648699972"><ele>206.0</ele><time>2026-04-19T10:14:54Z</time></trkpt><trkpt lat="43.49026522667858" lon="11.626048078712016"><ele>206.0</ele><time>2026-04-19T10:14:55Z</time></trkpt><trkpt lat="43.4902491161539" lon="11.626297673505757"><ele>208.0</ele><time>2026-04-19T10:14:56Z</time></trkpt><trkpt lat="43.49025208075286" lon="11.6265546532508"><ele>210.0</ele><time>2026-04-19T10:14:57Z</time></trkpt><trkpt lat="43.490284366145815" lon="11.626806122057234"><ele>212.0</ele><time>2026-04-19T10:14:58Z</time></trkpt><trkpt lat="43.49034455292115" lon="11.627049571231437"><ele>212.66666666666669</ele><time>2026-04-19T10:14:59Z</time></trkpt><trkpt lat="43.490421683435734" lon="11.627278999239243"><ele>213.33333333333331</ele><time>2026-04-19T10:15:00Z</time></trkpt><trkpt lat="43.49051701114988" lon="11.627491000442522"><ele>214.0</ele><time>2026-04-19T10:15:01Z</time></trkpt><trkpt lat="43.49063278412433" lon="11.62768208156704"><ele>218.33333333333331</ele><time>2026-04-19T10:15:02Z</time></trkpt><trkpt lat="43.49074774640431" lon="11.62784379459074"><ele>222.66666666666669</ele><time>2026-04-19T10:15:03Z</time></trkpt><trkpt lat="43.4908601397068" lon="11.627982697624518"><ele>227.0</ele><time>2026-04-19T10:15:04Z</time></trkpt><trkpt lat="43.49097808761084" lon="11.628105468655885"><ele>227.0</ele><time>2026-04-19T10:15:05Z</time></trkpt><trkpt lat="43.491106132376814" lon="11.628213831209688"><ele>227.0</ele><time>2026-04-19T10:15:06Z</time></trkpt><trkpt lat="43.49123321741688" lon="11.62831187552308"><ele>227.0</ele><time>2026-04-19T10:15:07Z</time></trkpt><trkpt lat="43.49135114155859" lon="11.628410194195972"><ele>227.0</ele><time>2026-04-19T10:15:08Z</time></trkpt><trkpt lat="43.491460512489624" lon="11.628519072259008"><ele>229.75</ele><time>2026-04-19T10:15:09Z</time></trkpt><trkpt lat="43.4915647748707" lon="11.628639175279961"><ele>232.5</ele><time>2026-04-19T10:15:10Z</time></trkpt><trkpt lat="43.49166341833095" lon="11.628774496661533"><ele>235.25</ele><time>2026-04-19T10:15:11Z</time></trkpt><trkpt lat="43.49175059194949" lon="11.62891803398962"><ele>238.0</ele><time>2026-04-19T10:15:12Z</time></trkpt><trkpt lat="43.491832406703246" lon="11.629077778566067"><ele>238.0</ele><time>2026-04-19T10:15:13Z</time></trkpt><trkpt lat="43.49191113134572" lon="11.629239745404748"><ele>238.0</ele><time>2026-04-19T10:15:14Z</time></trkpt><trkpt lat="43.4919911205834" lon="11.62940012640591"><ele>238.0</ele><time>2026-04-19T10:15:15Z</time></trkpt><trkpt lat="43.49207174687611" lon="11.629563173272748"><ele>238.0</ele><time>2026-04-19T10:15:16Z</time></trkpt><trkpt lat="43.49215192465748" lon="11.629729133192242"><ele>239.0</ele><time>2026-04-19T10:15:17Z</time></trkpt><trkpt lat="43.49223447385308" lon="11.629899441428014"><ele>240.0</ele><time>2026-04-19T10:15:18Z</time></trkpt><trkpt lat="43.49231916550232" lon="11.630070229014533"><ele>241.0</ele><time>2026-04-19T10:15:19Z</time></trkpt><trkpt lat="43.49240480457289" lon="11.630241113813756"><ele>242.0</ele><time>2026-04-19T10:15:20Z</time></trkpt><trkpt lat="43.4924907694667" lon="11.630415936765683"><ele>242.0</ele><time>2026-04-19T10:15:21Z</time></trkpt><trkpt lat="43.49257615342514" lon="11.630592403998328"><ele>242.0</ele><time>2026-04-19T10:15:22Z</time></trkpt><trkpt lat="43.4926612536931" lon="11.630771692943094"><ele>242.0</ele><time>2026-04-19T10:15:23Z</time></trkpt><trkpt lat="43.492749361273475" lon="11.630951386475404"><ele>242.0</ele><time>2026-04-19T10:15:24Z</time></trkpt><trkpt lat="43.49284043274667" lon="11.631136725353477"><ele>242.0</ele><time>2026-04-19T10:15:25Z</time></trkpt><trkpt lat="43.49293429924234" lon="11.631323959344284"><ele>242.0</ele><time>2026-04-19T10:15:26Z</time></trkpt><trkpt lat="43.493029032317764" lon="11.631512065743125"><ele>239.66666666666669</ele><time>2026-04-19T10:15:27Z</time></trkpt><trkpt lat="43.49312360408048" lon="11.63170250470586"><ele>237.33333333333331</ele><time>2026-04-19T10:15:28Z</time></trkpt><trkpt lat="43.49321824676038" lon="11.631895878242428"><ele>235.0</ele><time>2026-04-19T10:15:29Z</time></trkpt><trkpt lat="43.49331614724079" lon="11.632093138826955"><ele>235.0</ele><time>2026-04-19T10:15:30Z</time></trkpt><trkpt lat="43.49341416143354" lon="11.632288973972896"><ele>235.0</ele><time>2026-04-19T10:15:31Z</time></trkpt><trkpt lat="43.49351219333854" lon="11.632482575375784"><ele>235.0</ele><time>2026-04-19T10:15:32Z</time></trkpt><trkpt lat="43.49360794473814" lon="11.632677403814727"><ele>235.66666666666666</ele><time>2026-04-19T10:15:33Z</time></trkpt><trkpt lat="43.49370645037022" lon="11.6328716703885"><ele>236.33333333333331</ele><time>2026-04-19T10:15:34Z</time></trkpt><trkpt lat="43.49380361966922" lon="11.633073789477036"><ele>237.0</ele><time>2026-04-19T10:15:35Z</time></trkpt><trkpt lat="43.493898049221805" lon="11.633278951072928"><ele>238.33333333333331</ele><time>2026-04-19T10:15:36Z</time></trkpt><trkpt lat="43.49399027470687" lon="11.633485357782376"><ele>239.66666666666666</ele><time>2026-04-19T10:15:37Z</time></trkpt><trkpt lat="43.4940836235186" lon="11.633697769164357"><ele>241.0</ele><time>2026-04-19T10:15:38Z</time></trkpt><trkpt lat="43.49416916884441" lon="11.63390855006427"><ele>241.66666666666666</ele><time>2026-04-19T10:15:39Z</time></trkpt><trkpt lat="43.494253100300675" lon="11.634121716403671"><ele>242.33333333333331</ele><time>2026-04-19T10:15:40Z</time></trkpt><trkpt lat="43.494329928277445" lon="11.63432350403489"><ele>243.0</ele><time>2026-04-19T10:15:41Z</time></trkpt><trkpt lat="43.49440570977354" lon="11.634521436067171"><ele>242.33333333333331</ele><time>2026-04-19T10:15:42Z</time></trkpt><trkpt lat="43.49447378817015" lon="11.634721766935943"><ele>241.66666666666666</ele><time>2026-04-19T10:15:43Z</time></trkpt><trkpt lat="43.49454797407324" lon="11.634917785971282"><ele>241.0</ele><time>2026-04-19T10:15:44Z</time></trkpt><trkpt lat="43.494621451537654" lon="11.635119965605783"><ele>242.66666666666666</ele><time>2026-04-19T10:15:45Z</time></trkpt><trkpt lat="43.49469332408315" lon="11.635326872216671"><ele>244.33333333333331</ele><time>2026-04-19T10:15:46Z</time></trkpt><trkpt lat="43.49477453549093" lon="11.63553518263063"><ele>246.0</ele><time>2026-04-19T10:15:47Z</time></trkpt><trkpt lat="43.494852806089675" lon="11.63574726625973"><ele>246.0</ele><time>2026-04-19T10:15:48Z</time></trkpt><trkpt lat="43.494932332269265" lon="11.635965423892381"><ele>246.0</ele><time>2026-04-19T10:15:49Z</time></trkpt><trkpt lat="43.495009985589334" lon="11.636182292467941"><ele>246.0</ele><time>2026-04-19T10:15:50Z</time></trkpt><trkpt lat="43.49509061719805" lon="11.636400700924941"><ele>247.0</ele><time>2026-04-19T10:15:51Z</time></trkpt><trkpt lat="43.49516215038508" lon="11.636602739800557"><ele>248.0</ele><time>2026-04-19T10:15:52Z</time></trkpt><trkpt lat="43.49522852777714" lon="11.636781384102584"><ele>249.0</ele><time>2026-04-19T10:15:53Z</time></trkpt><trkpt lat="43.495290988268266" lon="11.636954568612543"><ele>250.0</ele><time>2026-04-19T10:15:54Z</time></trkpt><trkpt lat="43.49534869113693" lon="11.63711614695425"><ele>250.0</ele><time>2026-04-19T10:15:55Z</time></trkpt><trkpt lat="43.49540493815484" lon="11.637269526129"><ele>250.0</ele><time>2026-04-19T10:15:56Z</time></trkpt><trkpt lat="43.49545764941226" lon="11.637407418075071"><ele>250.0</ele><time>2026-04-19T10:15:57Z</time></trkpt><trkpt lat="43.495510763010685" lon="11.637547506241702"><ele>250.0</ele><time>2026-04-19T10:15:58Z</time></trkpt><trkpt lat="43.49556569322474" lon="11.637691315448672"><ele>250.0</ele><time>2026-04-19T10:15:59Z</time></trkpt><trkpt lat="43.49561531314167" lon="11.637839387886855"><ele>250.0</ele><time>2026-04-19T10:16:00Z</time></trkpt><trkpt lat="43.49566212474233" lon="11.637991712855069"><ele>250.0</ele><time>2026-04-19T10:16:01Z</time></trkpt><trkpt lat="43.495701094128414" lon="11.638155651249381"><ele>250.0</ele><time>2026-04-19T10:16:02Z</time></trkpt><trkpt lat="43.49573471284396" lon="11.638334449313186"><ele>250.0</ele><time>2026-04-19T10:16:03Z</time></trkpt><trkpt lat="43.49576493339703" lon="11.638519076167507"><ele>250.0</ele><time>2026-04-19T10:16:04Z</time></trkpt><trkpt lat="43.495787693135625" lon="11.63870967860084"><ele>250.0</ele><time>2026-04-19T10:16:05Z</time></trkpt><trkpt lat="43.49580169673511" lon="11.638905844418344"><ele>250.0</ele><time>2026-04-19T10:16:06Z</time></trkpt><trkpt lat="43.495813191525535" lon="11.639099153776455"><ele>250.0</ele><time>2026-04-19T10:16:07Z</time></trkpt><trkpt lat="43.49582789776087" lon="11.639294125796287"><ele>250.0</ele><time>2026-04-19T10:16:08Z</time></trkpt><trkpt lat="43.495840821438144" lon="11.63949690758723"><ele>250.0</ele><time>2026-04-19T10:16:09Z</time></trkpt><trkpt lat="43.49585541621407" lon="11.63971856476138"><ele>250.33333333333331</ele><time>2026-04-19T10:16:10Z</time></trkpt><trkpt lat="43.495878882659326" lon="11.639962712203598"><ele>250.66666666666669</ele><time>2026-04-19T10:16:11Z</time></trkpt><trkpt lat="43.49592306603769" lon="11.640230751811417"><ele>251.0</ele><time>2026-04-19T10:16:12Z</time></trkpt><trkpt lat="43.49597401129401" lon="11.640488977552659"><ele>251.33333333333334</ele><time>2026-04-19T10:16:13Z</time></trkpt><trkpt lat="43.49604267587318" lon="11.64075006169126"><ele>251.66666666666669</ele><time>2026-04-19T10:16:14Z</time></trkpt><trkpt lat="43.49612487722282" lon="11.640982720006019"><ele>252.0</ele><time>2026-04-19T10:16:15Z</time></trkpt><trkpt lat="43.49621642617528" lon="11.641221450287654"><ele>251.66666666666669</ele><time>2026-04-19T10:16:16Z</time></trkpt><trkpt lat="43.496303492928334" lon="11.641441177549053"><ele>251.33333333333334</ele><time>2026-04-19T10:16:17Z</time></trkpt><trkpt lat="43.4963827596288" lon="11.641650614627968"><ele>251.0</ele><time>2026-04-19T10:16:18Z</time></trkpt><trkpt lat="43.49646042479694" lon="11.641849013011768"><ele>251.0</ele><time>2026-04-19T10:16:19Z</time></trkpt><trkpt lat="43.49653757308772" lon="11.642035762842527"><ele>251.0</ele><time>2026-04-19T10:16:20Z</time></trkpt><trkpt lat="43.49661033132113" lon="11.642220860649356"><ele>251.0</ele><time>2026-04-19T10:16:21Z</time></trkpt><trkpt lat="43.496680323448125" lon="11.642394424461258"><ele>251.0</ele><time>2026-04-19T10:16:22Z</time></trkpt><trkpt lat="43.49674385716897" lon="11.642559190271474"><ele>251.0</ele><time>2026-04-19T10:16:23Z</time></trkpt><trkpt lat="43.49681085804777" lon="11.642714516296929"><ele>251.0</ele><time>2026-04-19T10:16:24Z</time></trkpt><trkpt lat="43.49687040805853" lon="11.642863047865456"><ele>251.0</ele><time>2026-04-19T10:16:25Z</time></trkpt><trkpt lat="43.49692292946623" lon="11.643002358606806"><ele>250.5</ele><time>2026-04-19T10:16:26Z</time></trkpt><trkpt lat="43.49696998395046" lon="11.64313873244244"><ele>250.0</ele><time>2026-04-19T10:16:27Z</time></trkpt><trkpt lat="43.497016198981434" lon="11.643285467117547"><ele>249.5</ele><time>2026-04-19T10:16:28Z</time></trkpt><trkpt lat="43.497069674239334" lon="11.643444371417015"><ele>249.0</ele><time>2026-04-19T10:16:29Z</time></trkpt><trkpt lat="43.497128664351024" lon="11.643612824765528"><ele>248.33333333333331</ele><time>2026-04-19T10:16:30Z</time></trkpt><trkpt lat="43.497189997731525" lon="11.643806616800845"><ele>247.66666666666666</ele><time>2026-04-19T10:16:31Z</time></trkpt><trkpt lat="43.497257690378284" lon="11.644005307745466"><ele>247.0</ele><time>2026-04-19T10:16:32Z</time></trkpt><trkpt lat="43.497326543161634" lon="11.644212131794903"><ele>247.0</ele><time>2026-04-19T10:16:33Z</time></trkpt><trkpt lat="43.49739657777665" lon="11.64442442277421"><ele>247.0</ele><time>2026-04-19T10:16:34Z</time></trkpt><trkpt lat="43.497469233452655" lon="11.644644262954666"><ele>247.0</ele><time>2026-04-19T10:16:35Z</time></trkpt><trkpt lat="43.49753548373233" lon="11.644871379547189"><ele>246.0</ele><time>2026-04-19T10:16:36Z</time></trkpt><trkpt lat="43.497605191765864" lon="11.645095166187366"><ele>245.0</ele><time>2026-04-19T10:16:37Z</time></trkpt><trkpt lat="43.49767751698837" lon="11.645321764942514"><ele>244.0</ele><time>2026-04-19T10:16:38Z</time></trkpt><trkpt lat="43.49775173608614" lon="11.645553137350754"><ele>243.33333333333331</ele><time>2026-04-19T10:16:39Z</time></trkpt><trkpt lat="43.49782707437967" lon="11.645784600936432"><ele>242.66666666666669</ele><time>2026-04-19T10:16:40Z</time></trkpt><trkpt lat="43.49790174767692" lon="11.64600307745989"><ele>242.0</ele><time>2026-04-19T10:16:41.001Z</time></trkpt><trkpt lat="43.497974959124086" lon="11.646212625491355"><ele>242.0</ele><time>2026-04-19T10:16:42.001Z</time></trkpt><trkpt lat="43.49804121885091" lon="11.646418648720749"><ele>242.0</ele><time>2026-04-19T10:16:43.001Z</time></trkpt><trkpt lat="43.49811226760737" lon="11.646629264168602"><ele>242.0</ele><time>2026-04-19T10:16:44.001Z</time></trkpt><trkpt lat="43.498175143329796" lon="11.646825690243881"><ele>241.66666666666669</ele><time>2026-04-19T10:16:45.001Z</time></trkpt><trkpt lat="43.4982358576518" lon="11.647020652576991"><ele>241.33333333333331</ele><time>2026-04-19T10:16:46.001Z</time></trkpt><trkpt lat="43.49828756007383" lon="11.647212083415244"><ele>241.0</ele><time>2026-04-19T10:16:47Z</time></trkpt><trkpt lat="43.49832809046781" lon="11.647422924030097"><ele>241.0</ele><time>2026-04-19T10:16:48Z</time></trkpt><trkpt lat="43.49835541508202" lon="11.647645918786099"><ele>241.0</ele><time>2026-04-19T10:16:49Z</time></trkpt><trkpt lat="43.498369413353046" lon="11.647878225874548"><ele>241.0</ele><time>2026-04-19T10:16:50Z</time></trkpt><trkpt lat="43.49837412413548" lon="11.648119703694567"><ele>239.33333333333331</ele><time>2026-04-19T10:16:51Z</time></trkpt><trkpt lat="43.49837673604528" lon="11.648363743393672"><ele>237.66666666666669</ele><time>2026-04-19T10:16:52Z</time></trkpt><trkpt lat="43.49838106301224" lon="11.648602449735755"><ele>236.0</ele><time>2026-04-19T10:16:53Z</time></trkpt><trkpt lat="43.498387352406766" lon="11.648844688247292"><ele>235.66666666666669</ele><time>2026-04-19T10:16:54Z</time></trkpt><trkpt lat="43.49839533760223" lon="11.649071617205077"><ele>235.33333333333331</ele><time>2026-04-19T10:16:55Z</time></trkpt><trkpt lat="43.498401822406706" lon="11.649287940941576"><ele>235.0</ele><time>2026-04-19T10:16:56Z</time></trkpt><trkpt lat="43.498406296709604" lon="11.64949752511622"><ele>235.0</ele><time>2026-04-19T10:16:57Z</time></trkpt><trkpt lat="43.4984114201944" lon="11.649714833928433"><ele>235.0</ele><time>2026-04-19T10:16:58Z</time></trkpt><trkpt lat="43.498415459304745" lon="11.64994550599459"><ele>235.0</ele><time>2026-04-19T10:16:59Z</time></trkpt><trkpt lat="43.49841780641373" lon="11.650180278840883"><ele>235.33333333333331</ele><time>2026-04-19T10:17:00Z</time></trkpt><trkpt lat="43.49842407985183" lon="11.650415855823127"><ele>235.66666666666669</ele><time>2026-04-19T10:17:01Z</time></trkpt><trkpt lat="43.49842994104122" lon="11.650648373359832"><ele>236.0</ele><time>2026-04-19T10:17:02Z</time></trkpt><trkpt lat="43.49843308634133" lon="11.650877294827824"><ele>236.0</ele><time>2026-04-19T10:17:03Z</time></trkpt><trkpt lat="43.49843627642534" lon="11.651100338233595"><ele>236.0</ele><time>2026-04-19T10:17:04Z</time></trkpt><trkpt lat="43.49844049244469" lon="11.65132215361717"><ele>236.0</ele><time>2026-04-19T10:17:05Z</time></trkpt><trkpt lat="43.49843807227605" lon="11.651539911555595"><ele>237.0</ele><time>2026-04-19T10:17:06Z</time></trkpt><trkpt lat="43.498422084609814" lon="11.651770974061778"><ele>238.0</ele><time>2026-04-19T10:17:07Z</time></trkpt><trkpt lat="43.49838487953889" lon="11.652000731683481"><ele>239.0</ele><time>2026-04-19T10:17:08Z</time></trkpt><trkpt lat="43.4983337445828" lon="11.65222434280581"><ele>239.0</ele><time>2026-04-19T10:17:09Z</time></trkpt><trkpt lat="43.49827528794152" lon="11.652441932592058"><ele>239.0</ele><time>2026-04-19T10:17:10Z</time></trkpt><trkpt lat="43.49820462228951" lon="11.652653589906267"><ele>239.0</ele><time>2026-04-19T10:17:11Z</time></trkpt><trkpt lat="43.498123650008324" lon="11.652860748682258"><ele>238.33333333333334</ele><time>2026-04-19T10:17:12Z</time></trkpt><trkpt lat="43.49804135582751" lon="11.653066582588458"><ele>237.66666666666669</ele><time>2026-04-19T10:17:13Z</time></trkpt><trkpt lat="43.49796161407569" lon="11.653274362699149"><ele>237.0</ele><time>2026-04-19T10:17:14Z</time></trkpt><trkpt lat="43.4978847349863" lon="11.653479920666726"><ele>239.66666666666669</ele><time>2026-04-19T10:17:15Z</time></trkpt><trkpt lat="43.497806810716334" lon="11.65368314970855"><ele>242.33333333333334</ele><time>2026-04-19T10:17:16Z</time></trkpt><trkpt lat="43.497728485389295" lon="11.653888379427173"><ele>245.0</ele><time>2026-04-19T10:17:17Z</time></trkpt><trkpt lat="43.49764985446814" lon="11.65409533895914"><ele>245.0</ele><time>2026-04-19T10:17:18Z</time></trkpt><trkpt lat="43.49756514915539" lon="11.654306439947037"><ele>245.0</ele><time>2026-04-19T10:17:19Z</time></trkpt><trkpt lat="43.49748740348612" lon="11.654509251568733"><ele>245.0</ele><time>2026-04-19T10:17:20Z</time></trkpt><trkpt lat="43.497416922997104" lon="11.65469945127773"><ele>245.5</ele><time>2026-04-19T10:17:21Z</time></trkpt><trkpt lat="43.49735060324065" lon="11.654871987165455"><ele>246.0</ele><time>2026-04-19T10:17:22Z</time></trkpt><trkpt lat="43.49728636054619" lon="11.65504303999104"><ele>246.5</ele><time>2026-04-19T10:17:23Z</time></trkpt><trkpt lat="43.497225904473254" lon="11.655222806298932"><ele>247.0</ele><time>2026-04-19T10:17:24Z</time></trkpt><trkpt lat="43.49715903708196" lon="11.655409934589441"><ele>245.66666666666666</ele><time>2026-04-19T10:17:25Z</time></trkpt><trkpt lat="43.49708633481678" lon="11.655599204101618"><ele>244.33333333333331</ele><time>2026-04-19T10:17:26Z</time></trkpt><trkpt lat="43.497004242456775" lon="11.65579730054919"><ele>243.0</ele><time>2026-04-19T10:17:27Z</time></trkpt><trkpt lat="43.49693340775126" lon="11.655981940621205"><ele>244.75</ele><time>2026-04-19T10:17:28Z</time></trkpt><trkpt lat="43.496869837646535" lon="11.656157437854814"><ele>246.5</ele><time>2026-04-19T10:17:29Z</time></trkpt><trkpt lat="43.496801378790266" lon="11.656333564877295"><ele>248.25</ele><time>2026-04-19T10:17:30Z</time></trkpt><trkpt lat="43.49673417793336" lon="11.656518349078329"><ele>250.0</ele><time>2026-04-19T10:17:31Z</time></trkpt><trkpt lat="43.49666342929285" lon="11.656702665113178"><ele>250.0</ele><time>2026-04-19T10:17:32Z</time></trkpt><trkpt lat="43.49659367861905" lon="11.656885892860547"><ele>250.0</ele><time>2026-04-19T10:17:33Z</time></trkpt><trkpt lat="43.49652586981736" lon="11.657069250929903"><ele>250.0</ele><time>2026-04-19T10:17:34Z</time></trkpt><trkpt lat="43.49645871902855" lon="11.65723815180036"><ele>250.0</ele><time>2026-04-19T10:17:35Z</time></trkpt><trkpt lat="43.49639722572298" lon="11.657405676821583"><ele>249.5</ele><time>2026-04-19T10:17:36Z</time></trkpt><trkpt lat="43.496335686014305" lon="11.657578125740114"><ele>249.0</ele><time>2026-04-19T10:17:37Z</time></trkpt><trkpt lat="43.496277197549205" lon="11.657743159666596"><ele>248.5</ele><time>2026-04-19T10:17:38Z</time></trkpt><trkpt lat="43.49621672774506" lon="11.657898923175964"><ele>248.0</ele><time>2026-04-19T10:17:39Z</time></trkpt><trkpt lat="43.4961643624476" lon="11.65803845996492"><ele>249.60000000000002</ele><time>2026-04-19T10:17:40Z</time></trkpt><trkpt lat="43.496118825393644" lon="11.658152577208485"><ele>251.20000000000002</ele><time>2026-04-19T10:17:41Z</time></trkpt><trkpt lat="43.49607938602987" lon="11.658251184491936"><ele>252.8</ele><time>2026-04-19T10:17:42Z</time></trkpt><trkpt lat="43.49604190747209" lon="11.65833985188434"><ele>254.4</ele><time>2026-04-19T10:17:43Z</time></trkpt><trkpt lat="43.49596878867031" lon="11.658465234010215"><ele>256.0</ele><time>2026-04-19T10:17:45Z</time></trkpt><trkpt lat="43.495860672812185" lon="11.658566149433303"><ele>255.66666666666666</ele><time>2026-04-19T10:17:47Z</time></trkpt><trkpt lat="43.49579383300422" lon="11.658623272046997"><ele>255.33333333333331</ele><time>2026-04-19T10:17:48Z</time></trkpt><trkpt lat="43.49574047596352" lon="11.658684841641488"><ele>255.0</ele><time>2026-04-19T10:17:49Z</time></trkpt><trkpt lat="43.49571568861094" lon="11.658846965551781"><ele>254.66666666666669</ele><time>2026-04-19T10:17:51Z</time></trkpt><trkpt lat="43.49574638605062" lon="11.65892761323285"><ele>254.33333333333334</ele><time>2026-04-19T10:17:52Z</time></trkpt><trkpt lat="43.495804208332956" lon="11.658985372367628"><ele>254.0</ele><time>2026-04-19T10:17:53Z</time></trkpt><trkpt lat="43.49588248002292" lon="11.659003103041115"><ele>254.0</ele><time>2026-04-19T10:17:54Z</time></trkpt><trkpt lat="43.49598123800595" lon="11.658996011473391"><ele>254.0</ele><time>2026-04-19T10:17:55Z</time></trkpt><trkpt lat="43.496103681057654" lon="11.659019137290453"><ele>254.0</ele><time>2026-04-19T10:17:56Z</time></trkpt><trkpt lat="43.49623383176281" lon="11.659098824537223"><ele>254.0</ele><time>2026-04-19T10:17:57Z</time></trkpt><trkpt lat="43.49635720533569" lon="11.659203408393832"><ele>253.0</ele><time>2026-04-19T10:17:58Z</time></trkpt><trkpt lat="43.496478561039204" lon="11.65930018243825"><ele>252.0</ele><time>2026-04-19T10:17:59Z</time></trkpt><trkpt lat="43.4965885845642" lon="11.659385777637333"><ele>251.0</ele><time>2026-04-19T10:18:00Z</time></trkpt><trkpt lat="43.49668821544383" lon="11.659468636140351"><ele>250.0</ele><time>2026-04-19T10:18:01Z</time></trkpt><trkpt lat="43.49679331364239" lon="11.659559629075455"><ele>250.0</ele><time>2026-04-19T10:18:02Z</time></trkpt><trkpt lat="43.49689567184668" lon="11.65966897867575"><ele>250.0</ele><time>2026-04-19T10:18:03Z</time></trkpt><trkpt lat="43.49698907423189" lon="11.6598015766569"><ele>250.0</ele><time>2026-04-19T10:18:04Z</time></trkpt><trkpt lat="43.4970701394062" lon="11.659930108845105"><ele>250.0</ele><time>2026-04-19T10:18:05Z</time></trkpt><trkpt lat="43.497141616193154" lon="11.66005226082359"><ele>250.0</ele><time>2026-04-19T10:18:06Z</time></trkpt><trkpt lat="43.49719282938347" lon="11.660168105727719"><ele>250.0</ele><time>2026-04-19T10:18:07Z</time></trkpt><trkpt lat="43.49722272413498" lon="11.660298332280039"><ele>250.0</ele><time>2026-04-19T10:18:08Z</time></trkpt><trkpt lat="43.497226191139234" lon="11.660432450956995"><ele>250.0</ele><time>2026-04-19T10:18:09Z</time></trkpt><trkpt lat="43.49720787018788" lon="11.660555089404506"><ele>250.0</ele><time>2026-04-19T10:18:10Z</time></trkpt><trkpt lat="43.49718408663235" lon="11.660680613969294"><ele>250.0</ele><time>2026-04-19T10:18:11Z</time></trkpt><trkpt lat="43.49716135780779" lon="11.660815719955155"><ele>250.0</ele><time>2026-04-19T10:18:12Z</time></trkpt><trkpt lat="43.49714558114624" lon="11.660926183628662"><ele>250.0</ele><time>2026-04-19T10:18:13Z</time></trkpt><trkpt lat="43.49713285491226" lon="11.661013505591075"><ele>250.0</ele><time>2026-04-19T10:18:14Z</time></trkpt><trkpt lat="43.497105805062354" lon="11.661161115941528"><ele>250.0</ele><time>2026-04-19T10:18:16Z</time></trkpt><trkpt lat="43.4970816167146" lon="11.661331738506792"><ele>249.8</ele><time>2026-04-19T10:18:18Z</time></trkpt><trkpt lat="43.497062368049264" lon="11.661454073836154"><ele>249.6</ele><time>2026-04-19T10:18:19Z</time></trkpt><trkpt lat="43.49704103368332" lon="11.661590607284698"><ele>249.39999999999998</ele><time>2026-04-19T10:18:20Z</time></trkpt><trkpt lat="43.497020844732994" lon="11.661733724985021"><ele>249.2</ele><time>2026-04-19T10:18:21Z</time></trkpt><trkpt lat="43.49700130169068" lon="11.661879233472748"><ele>249.0</ele><time>2026-04-19T10:18:22Z</time></trkpt><trkpt lat="43.49698006771677" lon="11.662019211196691"><ele>248.6</ele><time>2026-04-19T10:18:23Z</time></trkpt><trkpt lat="43.49695716232146" lon="11.662160994069232"><ele>248.2</ele><time>2026-04-19T10:18:24Z</time></trkpt><trkpt lat="43.49693480676702" lon="11.662303303198557"><ele>247.79999999999998</ele><time>2026-04-19T10:18:25Z</time></trkpt><trkpt lat="43.496915003421684" lon="11.662446681357615"><ele>247.39999999999998</ele><time>2026-04-19T10:18:26Z</time></trkpt><trkpt lat="43.49689317682093" lon="11.662591741304437"><ele>247.0</ele><time>2026-04-19T10:18:27Z</time></trkpt><trkpt lat="43.496871973138695" lon="11.662739222510627"><ele>246.75</ele><time>2026-04-19T10:18:28Z</time></trkpt><trkpt lat="43.49685578126347" lon="11.662898044580674"><ele>246.5</ele><time>2026-04-19T10:18:29Z</time></trkpt><trkpt lat="43.496856982467456" lon="11.66306188648138"><ele>246.25</ele><time>2026-04-19T10:18:30Z</time></trkpt><trkpt lat="43.49687640221652" lon="11.663241352320906"><ele>246.0</ele><time>2026-04-19T10:18:31Z</time></trkpt><trkpt lat="43.49690754787039" lon="11.66342772516176"><ele>246.0</ele><time>2026-04-19T10:18:32Z</time></trkpt><trkpt lat="43.49694875223345" lon="11.663621611496362"><ele>246.0</ele><time>2026-04-19T10:18:33Z</time></trkpt><trkpt lat="43.496994254378656" lon="11.66381490169144"><ele>246.0</ele><time>2026-04-19T10:18:34Z</time></trkpt><trkpt lat="43.49704367865967" lon="11.663995334918525"><ele>246.0</ele><time>2026-04-19T10:18:35Z</time></trkpt><trkpt lat="43.49710529979578" lon="11.664163077039518"><ele>245.75</ele><time>2026-04-19T10:18:36Z</time></trkpt><trkpt lat="43.4971886011763" lon="11.664315831880167"><ele>245.5</ele><time>2026-04-19T10:18:37Z</time></trkpt><trkpt lat="43.497288365629196" lon="11.66447115147756"><ele>245.25</ele><time>2026-04-19T10:18:38Z</time></trkpt><trkpt lat="43.49738497443369" lon="11.664630518975615"><ele>245.0</ele><time>2026-04-19T10:18:39.001Z</time></trkpt><trkpt lat="43.497474110729044" lon="11.664778588211561"><ele>246.0</ele><time>2026-04-19T10:18:40.001Z</time></trkpt><trkpt lat="43.497564521969885" lon="11.664915761702302"><ele>247.0</ele><time>2026-04-19T10:18:41.001Z</time></trkpt><trkpt lat="43.49765136898548" lon="11.665050921979997"><ele>248.0</ele><time>2026-04-19T10:18:42.001Z</time></trkpt><trkpt lat="43.49773367709322" lon="11.665184951310795"><ele>249.0</ele><time>2026-04-19T10:18:43.001Z</time></trkpt><trkpt lat="43.49781531605244" lon="11.66531041360481"><ele>249.0</ele><time>2026-04-19T10:18:44.001Z</time></trkpt><trkpt lat="43.497893904791184" lon="11.665424776659064"><ele>249.0</ele><time>2026-04-19T10:18:45.001Z</time></trkpt><trkpt lat="43.49797132624894" lon="11.66553495117911"><ele>249.0</ele><time>2026-04-19T10:18:46.001Z</time></trkpt><trkpt lat="43.498051216138684" lon="11.665645315985309"><ele>249.0</ele><time>2026-04-19T10:18:47.001Z</time></trkpt><trkpt lat="43.49814031864824" lon="11.665766227175958"><ele>249.0</ele><time>2026-04-19T10:18:48.001Z</time></trkpt><trkpt lat="43.498232962615745" lon="11.66589498685258"><ele>249.0</ele><time>2026-04-19T10:18:49.001Z</time></trkpt><trkpt lat="43.49832711208119" lon="11.666034289384152"><ele>249.0</ele><time>2026-04-19T10:18:50.001Z</time></trkpt><trkpt lat="43.49842612848975" lon="11.66617627800789"><ele>249.0</ele><time>2026-04-19T10:18:51.001Z</time></trkpt><trkpt lat="43.49853051384196" lon="11.666317779712248"><ele>249.0</ele><time>2026-04-19T10:18:52.001Z</time></trkpt><trkpt lat="43.49863670106752" lon="11.666457975589614"><ele>249.0</ele><time>2026-04-19T10:18:53Z</time></trkpt><trkpt lat="43.498740957085616" lon="11.666597369112635"><ele>249.0</ele><time>2026-04-19T10:18:54Z</time></trkpt><trkpt lat="43.49884071463463" lon="11.666735737745952"><ele>249.0</ele><time>2026-04-19T10:18:55Z</time></trkpt><trkpt lat="43.49893474353972" lon="11.66686523959029"><ele>248.5</ele><time>2026-04-19T10:18:56Z</time></trkpt><trkpt lat="43.49902195284992" lon="11.666986550688591"><ele>248.0</ele><time>2026-04-19T10:18:57Z</time></trkpt><trkpt lat="43.49910354299242" lon="11.66710356197998"><ele>247.5</ele><time>2026-04-19T10:18:58Z</time></trkpt><trkpt lat="43.499194496240776" lon="11.667229432917324"><ele>247.0</ele><time>2026-04-19T10:18:59Z</time></trkpt><trkpt lat="43.49929599025994" lon="11.667366913940368"><ele>247.0</ele><time>2026-04-19T10:19:00Z</time></trkpt><trkpt lat="43.499418645706385" lon="11.66751881297686"><ele>247.0</ele><time>2026-04-19T10:19:01Z</time></trkpt><trkpt lat="43.49956048314778" lon="11.667661801416966"><ele>247.0</ele><time>2026-04-19T10:19:02Z</time></trkpt><trkpt lat="43.499707542944904" lon="11.667786308042453"><ele>247.33333333333331</ele><time>2026-04-19T10:19:03Z</time></trkpt><trkpt lat="43.49984364057003" lon="11.66790167748329"><ele>247.66666666666669</ele><time>2026-04-19T10:19:04Z</time></trkpt><trkpt lat="43.49996386671385" lon="11.66803222303657"><ele>248.0</ele><time>2026-04-19T10:19:05Z</time></trkpt><trkpt lat="43.500066089461896" lon="11.66819289059545"><ele>248.0</ele><time>2026-04-19T10:19:06Z</time></trkpt><trkpt lat="43.500147804976294" lon="11.668386251285833"><ele>248.0</ele><time>2026-04-19T10:19:07Z</time></trkpt><trkpt lat="43.50019848905751" lon="11.668595698338455"><ele>248.0</ele><time>2026-04-19T10:19:08Z</time></trkpt><trkpt lat="43.50021409786915" lon="11.668830425999163"><ele>247.0</ele><time>2026-04-19T10:19:09Z</time></trkpt><trkpt lat="43.50019401047996" lon="11.669058645840318"><ele>246.0</ele><time>2026-04-19T10:19:10Z</time></trkpt><trkpt lat="43.50015458508887" lon="11.669278796539544"><ele>245.0</ele><time>2026-04-19T10:19:11Z</time></trkpt><trkpt lat="43.5000943091048" lon="11.669509533666103"><ele>243.33333333333334</ele><time>2026-04-19T10:19:12Z</time></trkpt><trkpt lat="43.50003384307361" lon="11.669720739167408"><ele>241.66666666666669</ele><time>2026-04-19T10:19:13Z</time></trkpt><trkpt lat="43.499975328125664" lon="11.669924689984589"><ele>240.0</ele><time>2026-04-19T10:19:14Z</time></trkpt><trkpt lat="43.499915765030856" lon="11.670123902090404"><ele>237.75</ele><time>2026-04-19T10:19:15Z</time></trkpt><trkpt lat="43.49985254561784" lon="11.670312634643734"><ele>235.5</ele><time>2026-04-19T10:19:16Z</time></trkpt><trkpt lat="43.49977775003632" lon="11.670484897749528"><ele>233.25</ele><time>2026-04-19T10:19:17Z</time></trkpt><trkpt lat="43.499693154999996" lon="11.670646871207277"><ele>231.0</ele><time>2026-04-19T10:19:18Z</time></trkpt><trkpt lat="43.499613360952175" lon="11.670804136199841"><ele>231.0</ele><time>2026-04-19T10:19:19Z</time></trkpt><trkpt lat="43.49956240105885" lon="11.67095854318076"><ele>231.0</ele><time>2026-04-19T10:19:20Z</time></trkpt><trkpt lat="43.49951424931079" lon="11.671114546564173"><ele>231.0</ele><time>2026-04-19T10:19:21Z</time></trkpt><trkpt lat="43.49951932107662" lon="11.671262944767946"><ele>231.0</ele><time>2026-04-19T10:19:22Z</time></trkpt><trkpt lat="43.4995614101293" lon="11.671389054498611"><ele>230.20000000000002</ele><time>2026-04-19T10:19:23Z</time></trkpt><trkpt lat="43.49963839999271" lon="11.671489210508934"><ele>229.40000000000003</ele><time>2026-04-19T10:19:24Z</time></trkpt><trkpt lat="43.499737074809694" lon="11.671556240712643"><ele>228.6</ele><time>2026-04-19T10:19:25Z</time></trkpt><trkpt lat="43.499849273679835" lon="11.671579003460584"><ele>227.8</ele><time>2026-04-19T10:19:26Z</time></trkpt><trkpt lat="43.49995825760782" lon="11.67154572941704"><ele>227.0</ele><time>2026-04-19T10:19:27Z</time></trkpt><trkpt lat="43.50006940692788" lon="11.671458839026641"><ele>227.0</ele><time>2026-04-19T10:19:28Z</time></trkpt><trkpt lat="43.500179336689705" lon="11.671324210705317"><ele>227.0</ele><time>2026-04-19T10:19:29Z</time></trkpt><trkpt lat="43.500272298493854" lon="11.671134311272155"><ele>227.0</ele><time>2026-04-19T10:19:30Z</time></trkpt><trkpt lat="43.500360262685085" lon="11.670909858698788"><ele>224.33333333333334</ele><time>2026-04-19T10:19:31Z</time></trkpt><trkpt lat="43.50047470632133" lon="11.670726866785284"><ele>221.66666666666669</ele><time>2026-04-19T10:19:32Z</time></trkpt><trkpt lat="43.50059304310519" lon="11.670583289915811"><ele>219.0</ele><time>2026-04-19T10:19:33Z</time></trkpt><trkpt lat="43.500701128250824" lon="11.670436830847807"><ele>219.0</ele><time>2026-04-19T10:19:34Z</time></trkpt><trkpt lat="43.500816218877716" lon="11.670329548885134"><ele>219.0</ele><time>2026-04-19T10:19:35Z</time></trkpt><trkpt lat="43.50091207188282" lon="11.67024313440955"><ele>219.0</ele><time>2026-04-19T10:19:36Z</time></trkpt><trkpt lat="43.501002300787064" lon="11.670187371382264"><ele>219.0</ele><time>2026-04-19T10:19:37Z</time></trkpt><trkpt lat="43.501106691702184" lon="11.670196573701483"><ele>219.0</ele><time>2026-04-19T10:19:38Z</time></trkpt><trkpt lat="43.501208824927446" lon="11.670239830643068"><ele>218.99999999999997</ele><time>2026-04-19T10:19:39Z</time></trkpt><trkpt lat="43.50129634561351" lon="11.670328166996363"><ele>218.99999999999997</ele><time>2026-04-19T10:19:40Z</time></trkpt><trkpt lat="43.50131978122861" lon="11.670492171441543"><ele>219.0</ele><time>2026-04-19T10:19:41Z</time></trkpt><trkpt lat="43.50133423553551" lon="11.670639655449149"><ele>219.0</ele><time>2026-04-19T10:19:42Z</time></trkpt><trkpt lat="43.50124651711535" lon="11.670774037122726"><ele>219.0</ele><time>2026-04-19T10:19:43Z</time></trkpt><trkpt lat="43.501142470626945" lon="11.67086747064337"><ele>219.0</ele><time>2026-04-19T10:19:44Z</time></trkpt><trkpt lat="43.501025683340316" lon="11.67099733141321"><ele>219.0</ele><time>2026-04-19T10:19:45Z</time></trkpt><trkpt lat="43.50093309847054" lon="11.671137564369523"><ele>219.0</ele><time>2026-04-19T10:19:46Z</time></trkpt><trkpt lat="43.50086018992894" lon="11.671272199740093"><ele>218.33333333333331</ele><time>2026-04-19T10:19:47Z</time></trkpt><trkpt lat="43.50081514477513" lon="11.671437821839456"><ele>217.66666666666666</ele><time>2026-04-19T10:19:48Z</time></trkpt><trkpt lat="43.50081057836941" lon="11.671640769003902"><ele>217.0</ele><time>2026-04-19T10:19:49Z</time></trkpt><trkpt lat="43.50086949845011" lon="11.671900441216032"><ele>216.33333333333331</ele><time>2026-04-19T10:19:50Z</time></trkpt><trkpt lat="43.50090727290985" lon="11.672136566650018"><ele>215.66666666666669</ele><time>2026-04-19T10:19:51Z</time></trkpt><trkpt lat="43.50089846932147" lon="11.672369044699835"><ele>215.0</ele><time>2026-04-19T10:19:52Z</time></trkpt><trkpt lat="43.50087003701734" lon="11.672608356102739"><ele>211.33333333333334</ele><time>2026-04-19T10:19:53Z</time></trkpt><trkpt lat="43.50082212102365" lon="11.672871483506668"><ele>207.66666666666669</ele><time>2026-04-19T10:19:54Z</time></trkpt><trkpt lat="43.50078813019672" lon="11.673142394162118"><ele>204.0</ele><time>2026-04-19T10:19:55Z</time></trkpt><trkpt lat="43.50074359929848" lon="11.673391400664464"><ele>201.0</ele><time>2026-04-19T10:19:56Z</time></trkpt><trkpt lat="43.500676393414906" lon="11.673608466236708"><ele>198.0</ele><time>2026-04-19T10:19:57Z</time></trkpt><trkpt lat="43.5006060222098" lon="11.673812646236149"><ele>195.0</ele><time>2026-04-19T10:19:58Z</time></trkpt><trkpt lat="43.50053227319686" lon="11.67400683421803"><ele>195.0</ele><time>2026-04-19T10:19:59Z</time></trkpt><trkpt lat="43.50045588840841" lon="11.674166211360234"><ele>195.0</ele><time>2026-04-19T10:20:00Z</time></trkpt><trkpt lat="43.50039956832972" lon="11.674315836150992"><ele>195.0</ele><time>2026-04-19T10:20:01Z</time></trkpt><trkpt lat="43.500360332745956" lon="11.674458597827794"><ele>195.0</ele><time>2026-04-19T10:20:02Z</time></trkpt><trkpt lat="43.50034083781455" lon="11.674605546272877"><ele>194.5</ele><time>2026-04-19T10:20:03Z</time></trkpt><trkpt lat="43.500358048227966" lon="11.674752562926152"><ele>194.0</ele><time>2026-04-19T10:20:04Z</time></trkpt><trkpt lat="43.50041377895672" lon="11.674888594674215"><ele>193.5</ele><time>2026-04-19T10:20:05Z</time></trkpt><trkpt lat="43.50050693548097" lon="11.675002803236506"><ele>193.0</ele><time>2026-04-19T10:20:06Z</time></trkpt><trkpt lat="43.50062293550238" lon="11.675067742599298"><ele>191.25</ele><time>2026-04-19T10:20:07Z</time></trkpt><trkpt lat="43.500739640731496" lon="11.675071120675282"><ele>189.5</ele><time>2026-04-19T10:20:08Z</time></trkpt><trkpt lat="43.500847947077" lon="11.675017705214769"><ele>187.75</ele><time>2026-04-19T10:20:09Z</time></trkpt><trkpt lat="43.5009399000156" lon="11.67491985354215"><ele>186.0</ele><time>2026-04-19T10:20:10Z</time></trkpt><trkpt lat="43.50100367197503" lon="11.674781181714279"><ele>186.0</ele><time>2026-04-19T10:20:11Z</time></trkpt><trkpt lat="43.501032681633426" lon="11.674612003754275"><ele>186.0</ele><time>2026-04-19T10:20:12Z</time></trkpt><trkpt lat="43.50103458064481" lon="11.67441846561035"><ele>186.0</ele><time>2026-04-19T10:20:13Z</time></trkpt><trkpt lat="43.50101972891007" lon="11.674226866035966"><ele>186.0</ele><time>2026-04-19T10:20:14Z</time></trkpt><trkpt lat="43.50100430065979" lon="11.674051874767114"><ele>185.4</ele><time>2026-04-19T10:20:15Z</time></trkpt><trkpt lat="43.50101517476687" lon="11.67388791667905"><ele>184.8</ele><time>2026-04-19T10:20:16Z</time></trkpt><trkpt lat="43.50104893923913" lon="11.673746420727541"><ele>184.20000000000002</ele><time>2026-04-19T10:20:17Z</time></trkpt><trkpt lat="43.501125255893605" lon="11.673646782452737"><ele>183.60000000000002</ele><time>2026-04-19T10:20:18Z</time></trkpt><trkpt lat="43.50122215449892" lon="11.673599940297036"><ele>183.0</ele><time>2026-04-19T10:20:19Z</time></trkpt><trkpt lat="43.501322540726804" lon="11.673590049803945"><ele>180.75</ele><time>2026-04-19T10:20:20Z</time></trkpt><trkpt lat="43.5014292649826" lon="11.673662955189563"><ele>178.5</ele><time>2026-04-19T10:20:21Z</time></trkpt><trkpt lat="43.50152388511314" lon="11.673795367342633"><ele>176.25</ele><time>2026-04-19T10:20:22Z</time></trkpt><trkpt lat="43.50160838620729" lon="11.673985380839582"><ele>174.0</ele><time>2026-04-19T10:20:23Z</time></trkpt><trkpt lat="43.50168750170689" lon="11.6742191599035"><ele>173.33333333333334</ele><time>2026-04-19T10:20:24Z</time></trkpt><trkpt lat="43.50176591239727" lon="11.674451981326902"><ele>172.66666666666669</ele><time>2026-04-19T10:20:25Z</time></trkpt><trkpt lat="43.50184377524548" lon="11.674665212491982"><ele>172.0</ele><time>2026-04-19T10:20:26Z</time></trkpt><trkpt lat="43.501925951094016" lon="11.674868349080864"><ele>172.0</ele><time>2026-04-19T10:20:27Z</time></trkpt><trkpt lat="43.50202228143442" lon="11.675071120514726"><ele>172.0</ele><time>2026-04-19T10:20:28Z</time></trkpt><trkpt lat="43.50213599064822" lon="11.675255132740599"><ele>172.0</ele><time>2026-04-19T10:20:29Z</time></trkpt><trkpt lat="43.50226265150401" lon="11.67541870232417"><ele>172.0</ele><time>2026-04-19T10:20:30Z</time></trkpt><trkpt lat="43.50239206542688" lon="11.675566312203177"><ele>172.0</ele><time>2026-04-19T10:20:31Z</time></trkpt><trkpt lat="43.50250405279035" lon="11.675700941110556"><ele>172.0</ele><time>2026-04-19T10:20:32Z</time></trkpt><trkpt lat="43.50260140764519" lon="11.675830744976373"><ele>172.0</ele><time>2026-04-19T10:20:33Z</time></trkpt><trkpt lat="43.502670416339015" lon="11.675972134592174"><ele>172.0</ele><time>2026-04-19T10:20:34Z</time></trkpt><trkpt lat="43.50268454803569" lon="11.676140950618144"><ele>172.0</ele><time>2026-04-19T10:20:35Z</time></trkpt><trkpt lat="43.50265998556421" lon="11.676330167949311"><ele>172.0</ele><time>2026-04-19T10:20:36Z</time></trkpt><trkpt lat="43.50259503354937" lon="11.676530882623208"><ele>174.0</ele><time>2026-04-19T10:20:37Z</time></trkpt><trkpt lat="43.5025136660106" lon="11.676752317848491"><ele>176.0</ele><time>2026-04-19T10:20:38.001Z</time></trkpt><trkpt lat="43.502437620763764" lon="11.676965477083355"><ele>178.0</ele><time>2026-04-19T10:20:39.001Z</time></trkpt><trkpt lat="43.50236985622882" lon="11.67717469811251"><ele>179.66666666666669</ele><time>2026-04-19T10:20:40.001Z</time></trkpt><trkpt lat="43.502302074215976" lon="11.677390157782158"><ele>181.33333333333334</ele><time>2026-04-19T10:20:41.001Z</time></trkpt><trkpt lat="43.502235826110635" lon="11.677628519076567"><ele>183.0</ele><time>2026-04-19T10:20:42.001Z</time></trkpt><trkpt lat="43.502181187233006" lon="11.67788362749576"><ele>182.66666666666666</ele><time>2026-04-19T10:20:43.001Z</time></trkpt><trkpt lat="43.502133959488596" lon="11.678148183777788"><ele>182.33333333333331</ele><time>2026-04-19T10:20:44.001Z</time></trkpt><trkpt lat="43.50208272916825" lon="11.678418283956416"><ele>182.0</ele><time>2026-04-19T10:20:45.001Z</time></trkpt><trkpt lat="43.50202772306477" lon="11.678677491732817"><ele>182.0</ele><time>2026-04-19T10:20:46.001Z</time></trkpt><trkpt lat="43.501977444683625" lon="11.678928724808193"><ele>182.0</ele><time>2026-04-19T10:20:47.001Z</time></trkpt><trkpt lat="43.50193035532705" lon="11.679179014722134"><ele>182.0</ele><time>2026-04-19T10:20:48.001Z</time></trkpt><trkpt lat="43.50188322476405" lon="11.679427844521792"><ele>181.33333333333331</ele><time>2026-04-19T10:20:49.001Z</time></trkpt><trkpt lat="43.50184335743081" lon="11.67967193145254"><ele>180.66666666666666</ele><time>2026-04-19T10:20:50.001Z</time></trkpt><trkpt lat="43.501820653241765" lon="11.6799184337512"><ele>180.0</ele><time>2026-04-19T10:20:51.001Z</time></trkpt><trkpt lat="43.501825383007755" lon="11.680182190110841"><ele>179.0</ele><time>2026-04-19T10:20:52.001Z</time></trkpt><trkpt lat="43.50185653084134" lon="11.68045673759761"><ele>178.0</ele><time>2026-04-19T10:20:53.001Z</time></trkpt><trkpt lat="43.501896614944236" lon="11.68072929545403"><ele>177.0</ele><time>2026-04-19T10:20:54.001Z</time></trkpt><trkpt lat="43.501923248337306" lon="11.68097962313765"><ele>177.0</ele><time>2026-04-19T10:20:55.001Z</time></trkpt><trkpt lat="43.50191516010009" lon="11.681221804187615"><ele>177.0</ele><time>2026-04-19T10:20:56.001Z</time></trkpt><trkpt lat="43.50187091450188" lon="11.681459368148117"><ele>177.0</ele><time>2026-04-19T10:20:57.001Z</time></trkpt><trkpt lat="43.50180240149471" lon="11.681685366941114"><ele>177.0</ele><time>2026-04-19T10:20:58.001Z</time></trkpt><trkpt lat="43.50174548871353" lon="11.681894083153116"><ele>177.0</ele><time>2026-04-19T10:20:59Z</time></trkpt><trkpt lat="43.50171918138296" lon="11.682097320378722"><ele>177.0</ele><time>2026-04-19T10:21:00Z</time></trkpt><trkpt lat="43.501724182449216" lon="11.68229267575645"><ele>176.66666666666666</ele><time>2026-04-19T10:21:01Z</time></trkpt><trkpt lat="43.50176093751209" lon="11.682502630704887"><ele>176.33333333333331</ele><time>2026-04-19T10:21:02Z</time></trkpt><trkpt lat="43.50182120994277" lon="11.682729378525316"><ele>176.0</ele><time>2026-04-19T10:21:03Z</time></trkpt><trkpt lat="43.50189544874498" lon="11.68295575852648"><ele>175.66666666666666</ele><time>2026-04-19T10:21:04Z</time></trkpt><trkpt lat="43.50194144783837" lon="11.683191758303975"><ele>175.33333333333334</ele><time>2026-04-19T10:21:05Z</time></trkpt><trkpt lat="43.50194558421454" lon="11.683450340914447"><ele>175.0</ele><time>2026-04-19T10:21:06Z</time></trkpt><trkpt lat="43.501927559700285" lon="11.683726067268108"><ele>175.0</ele><time>2026-04-19T10:21:07Z</time></trkpt><trkpt lat="43.50191656474327" lon="11.684004709970436"><ele>175.0</ele><time>2026-04-19T10:21:08Z</time></trkpt><trkpt lat="43.50192611067794" lon="11.68427592165825"><ele>175.0</ele><time>2026-04-19T10:21:09Z</time></trkpt><trkpt lat="43.5019494284918" lon="11.684549170270603"><ele>175.0</ele><time>2026-04-19T10:21:10Z</time></trkpt><trkpt lat="43.501971881492345" lon="11.684828623836813"><ele>175.0</ele><time>2026-04-19T10:21:11Z</time></trkpt><trkpt lat="43.501995917102754" lon="11.68510780621303"><ele>175.0</ele><time>2026-04-19T10:21:12Z</time></trkpt><trkpt lat="43.502018732113015" lon="11.685378237774382"><ele>175.0</ele><time>2026-04-19T10:21:13Z</time></trkpt><trkpt lat="43.502044213704565" lon="11.685636852951715"><ele>175.0</ele><time>2026-04-19T10:21:14Z</time></trkpt><trkpt lat="43.5020742748965" lon="11.68588384961295"><ele>175.0</ele><time>2026-04-19T10:21:15Z</time></trkpt><trkpt lat="43.50212165531513" lon="11.686113086097192"><ele>177.33333333333334</ele><time>2026-04-19T10:21:16Z</time></trkpt><trkpt lat="43.50219849510579" lon="11.686323652598574"><ele>179.66666666666666</ele><time>2026-04-19T10:21:17Z</time></trkpt><trkpt lat="43.502302000184265" lon="11.686515603793396"><ele>182.0</ele><time>2026-04-19T10:21:18Z</time></trkpt><trkpt lat="43.50243289489017" lon="11.686678133296441"><ele>182.0</ele><time>2026-04-19T10:21:19Z</time></trkpt><trkpt lat="43.50258119055131" lon="11.686820372130864"><ele>182.0</ele><time>2026-04-19T10:21:20Z</time></trkpt><trkpt lat="43.50272813868087" lon="11.686961636799992"><ele>182.0</ele><time>2026-04-19T10:21:21Z</time></trkpt><trkpt lat="43.50285850045866" lon="11.68711215312793"><ele>184.66666666666666</ele><time>2026-04-19T10:21:22Z</time></trkpt><trkpt lat="43.50297606633286" lon="11.687283525701192"><ele>187.33333333333334</ele><time>2026-04-19T10:21:23Z</time></trkpt><trkpt lat="43.503080798960035" lon="11.687477673439115"><ele>190.0</ele><time>2026-04-19T10:21:24Z</time></trkpt><trkpt lat="43.50317390620163" lon="11.687678111946934"><ele>189.0</ele><time>2026-04-19T10:21:25Z</time></trkpt><trkpt lat="43.50325265066953" lon="11.687858025491169"><ele>188.0</ele><time>2026-04-19T10:21:26Z</time></trkpt><trkpt lat="43.50332414800003" lon="11.688012348038674"><ele>187.0</ele><time>2026-04-19T10:21:27Z</time></trkpt><trkpt lat="43.503385499596774" lon="11.68816928867955"><ele>186.0</ele><time>2026-04-19T10:21:28Z</time></trkpt><trkpt lat="43.50342929829754" lon="11.68834992756992"><ele>186.0</ele><time>2026-04-19T10:21:29Z</time></trkpt><trkpt lat="43.503446119907395" lon="11.688547807178557"><ele>186.0</ele><time>2026-04-19T10:21:30Z</time></trkpt><trkpt lat="43.5034373364519" lon="11.688746789300707"><ele>186.0</ele><time>2026-04-19T10:21:31Z</time></trkpt><trkpt lat="43.50338327745387" lon="11.688929234648539"><ele>186.0</ele><time>2026-04-19T10:21:32Z</time></trkpt><trkpt lat="43.5033498586459" lon="11.689091738909255"><ele>186.0</ele><time>2026-04-19T10:21:33Z</time></trkpt><trkpt lat="43.503331281851" lon="11.689234115887635"><ele>186.0</ele><time>2026-04-19T10:21:34Z</time></trkpt><trkpt lat="43.50336071567152" lon="11.689392267347628"><ele>186.0</ele><time>2026-04-19T10:21:35Z</time></trkpt><trkpt lat="43.50343239317163" lon="11.68956345692603"><ele>186.0</ele><time>2026-04-19T10:21:36Z</time></trkpt><trkpt lat="43.50354589794856" lon="11.689706652460673"><ele>186.0</ele><time>2026-04-19T10:21:37Z</time></trkpt><trkpt lat="43.503688299238455" lon="11.689835206881238"><ele>186.0</ele><time>2026-04-19T10:21:38Z</time></trkpt><trkpt lat="43.50383503644836" lon="11.689970177678362"><ele>186.0</ele><time>2026-04-19T10:21:39Z</time></trkpt><trkpt lat="43.50397149318204" lon="11.690114109344176"><ele>185.66666666666666</ele><time>2026-04-19T10:21:40Z</time></trkpt><trkpt lat="43.50409680395516" lon="11.690271358682873"><ele>185.33333333333331</ele><time>2026-04-19T10:21:41Z</time></trkpt><trkpt lat="43.5041954378749" lon="11.690440222392358"><ele>185.0</ele><time>2026-04-19T10:21:42Z</time></trkpt><trkpt lat="43.504271188788245" lon="11.690628661854795"><ele>185.0</ele><time>2026-04-19T10:21:43Z</time></trkpt><trkpt lat="43.50432397912822" lon="11.690839819245031"><ele>185.0</ele><time>2026-04-19T10:21:44Z</time></trkpt><trkpt lat="43.50434706291749" lon="11.69107105611188"><ele>185.0</ele><time>2026-04-19T10:21:45Z</time></trkpt><trkpt lat="43.50434019949925" lon="11.691314550300804"><ele>184.33333333333331</ele><time>2026-04-19T10:21:46Z</time></trkpt><trkpt lat="43.50430620027782" lon="11.691563830746288"><ele>183.66666666666666</ele><time>2026-04-19T10:21:47Z</time></trkpt><trkpt lat="43.50426486673001" lon="11.691811129932857"><ele>183.0</ele><time>2026-04-19T10:21:48Z</time></trkpt><trkpt lat="43.50423315552419" lon="11.69204295051516"><ele>182.33333333333334</ele><time>2026-04-19T10:21:49Z</time></trkpt><trkpt lat="43.50420191112017" lon="11.692289049424184"><ele>181.66666666666669</ele><time>2026-04-19T10:21:50Z</time></trkpt><trkpt lat="43.504178236318566" lon="11.692559132755406"><ele>181.0</ele><time>2026-04-19T10:21:51Z</time></trkpt><trkpt lat="43.50417168853974" lon="11.692852593253297"><ele>179.0</ele><time>2026-04-19T10:21:52Z</time></trkpt><trkpt lat="43.504185098574915" lon="11.69316273242543"><ele>177.0</ele><time>2026-04-19T10:21:53Z</time></trkpt><trkpt lat="43.504203759163495" lon="11.693477271443179"><ele>176.0</ele><time>2026-04-19T10:21:54Z</time></trkpt><trkpt lat="43.504219393426155" lon="11.693790162595258"><ele>175.0</ele><time>2026-04-19T10:21:55Z</time></trkpt><trkpt lat="43.50423679932919" lon="11.694097051337863"><ele>175.0</ele><time>2026-04-19T10:21:56Z</time></trkpt><trkpt lat="43.50424988180841" lon="11.69439328944902"><ele>175.0</ele><time>2026-04-19T10:21:57Z</time></trkpt><trkpt lat="43.504264963497796" lon="11.694689925593586"><ele>175.0</ele><time>2026-04-19T10:21:58Z</time></trkpt><trkpt lat="43.504278928925935" lon="11.694981470522766"><ele>174.66666666666669</ele><time>2026-04-19T10:21:59Z</time></trkpt><trkpt lat="43.50429284503061" lon="11.695271981400579"><ele>174.33333333333334</ele><time>2026-04-19T10:22:00Z</time></trkpt><trkpt lat="43.50431028136138" lon="11.695572080149452"><ele>174.0</ele><time>2026-04-19T10:22:01Z</time></trkpt><trkpt lat="43.50432761726136" lon="11.695875876908838"><ele>173.66666666666666</ele><time>2026-04-19T10:22:02Z</time></trkpt><trkpt lat="43.50434336863664" lon="11.696179604502785"><ele>173.33333333333331</ele><time>2026-04-19T10:22:03Z</time></trkpt><trkpt lat="43.504354936800624" lon="11.696490791245989"><ele>173.0</ele><time>2026-04-19T10:22:04Z</time></trkpt><trkpt lat="43.50435553044801" lon="11.696796956385795"><ele>172.66666666666666</ele><time>2026-04-19T10:22:05Z</time></trkpt><trkpt lat="43.50434465826818" lon="11.697096615223264"><ele>172.33333333333334</ele><time>2026-04-19T10:22:06Z</time></trkpt><trkpt lat="43.50432633998742" lon="11.697381053879768"><ele>172.0</ele><time>2026-04-19T10:22:07Z</time></trkpt><trkpt lat="43.50430829953379" lon="11.697651859222612"><ele>173.0</ele><time>2026-04-19T10:22:08Z</time></trkpt><trkpt lat="43.50429530943997" lon="11.697904452414521"><ele>174.0</ele><time>2026-04-19T10:22:09Z</time></trkpt><trkpt lat="43.50428519629924" lon="11.698148113167807"><ele>175.0</ele><time>2026-04-19T10:22:10Z</time></trkpt><trkpt lat="43.50428616733756" lon="11.698398221350619"><ele>175.0</ele><time>2026-04-19T10:22:11Z</time></trkpt><trkpt lat="43.50430684081304" lon="11.698670372212767"><ele>175.0</ele><time>2026-04-19T10:22:12Z</time></trkpt><trkpt lat="43.50433348280791" lon="11.698957996346975"><ele>175.0</ele><time>2026-04-19T10:22:13Z</time></trkpt><trkpt lat="43.50436249288775" lon="11.69925400414579"><ele>174.33333333333334</ele><time>2026-04-19T10:22:14Z</time></trkpt><trkpt lat="43.504393462710716" lon="11.699545381120036"><ele>173.66666666666666</ele><time>2026-04-19T10:22:15Z</time></trkpt><trkpt lat="43.50442457209369" lon="11.699835674217434"><ele>173.0</ele><time>2026-04-19T10:22:16Z</time></trkpt><trkpt lat="43.504449689594495" lon="11.700111133475657"><ele>173.0</ele><time>2026-04-19T10:22:17Z</time></trkpt><trkpt lat="43.5044747783443" lon="11.70037189824451"><ele>173.0</ele><time>2026-04-19T10:22:18Z</time></trkpt><trkpt lat="43.504497812716245" lon="11.70061911521084"><ele>173.0</ele><time>2026-04-19T10:22:19Z</time></trkpt><trkpt lat="43.50452349291524" lon="11.700850331509505"><ele>173.0</ele><time>2026-04-19T10:22:20Z</time></trkpt><trkpt lat="43.504547159620486" lon="11.70107381117814"><ele>173.0</ele><time>2026-04-19T10:22:21Z</time></trkpt><trkpt lat="43.50456855972766" lon="11.701281444881284"><ele>173.0</ele><time>2026-04-19T10:22:22Z</time></trkpt><trkpt lat="43.50458459796356" lon="11.701477902305655"><ele>173.5</ele><time>2026-04-19T10:22:23Z</time></trkpt><trkpt lat="43.50460119159234" lon="11.701665008896473"><ele>174.0</ele><time>2026-04-19T10:22:24Z</time></trkpt><trkpt lat="43.50461893865745" lon="11.701823644947158"><ele>174.5</ele><time>2026-04-19T10:22:25Z</time></trkpt><trkpt lat="43.50461202401306" lon="11.701969217833245"><ele>175.0</ele><time>2026-04-19T10:22:26Z</time></trkpt><trkpt lat="43.5045668965797" lon="11.702098750407071"><ele>175.0</ele><time>2026-04-19T10:22:27Z</time></trkpt><trkpt lat="43.50444886191852" lon="11.702187338261288"><ele>175.0</ele><time>2026-04-19T10:22:28Z</time></trkpt><trkpt lat="43.5043164743035" lon="11.702273873522461"><ele>175.0</ele><time>2026-04-19T10:22:29Z</time></trkpt><trkpt lat="43.504166781005665" lon="11.702350397769637"><ele>175.0</ele><time>2026-04-19T10:22:30Z</time></trkpt><trkpt lat="43.50402531239642" lon="11.702456897603177"><ele>175.0</ele><time>2026-04-19T10:22:31Z</time></trkpt><trkpt lat="43.50389937509763" lon="11.702545758471247"><ele>175.0</ele><time>2026-04-19T10:22:32Z</time></trkpt><trkpt lat="43.50378742100917" lon="11.70267048542421"><ele>175.0</ele><time>2026-04-19T10:22:33Z</time></trkpt><trkpt lat="43.503688878989244" lon="11.702822579748103"><ele>175.0</ele><time>2026-04-19T10:22:34Z</time></trkpt><trkpt lat="43.5036182235128" lon="11.703000884825574"><ele>174.66666666666669</ele><time>2026-04-19T10:22:35Z</time></trkpt><trkpt lat="43.503575280895795" lon="11.703195241646055"><ele>174.33333333333334</ele><time>2026-04-19T10:22:36Z</time></trkpt><trkpt lat="43.50355957131319" lon="11.7034011402734"><ele>174.0</ele><time>2026-04-19T10:22:37Z</time></trkpt><trkpt lat="43.50357603833105" lon="11.70361955741388"><ele>173.33333333333334</ele><time>2026-04-19T10:22:38Z</time></trkpt><trkpt lat="43.50361732513253" lon="11.703855842568029"><ele>172.66666666666669</ele><time>2026-04-19T10:22:39Z</time></trkpt><trkpt lat="43.50368590451118" lon="11.704107659097104"><ele>172.0</ele><time>2026-04-19T10:22:40Z</time></trkpt><trkpt lat="43.50376652931632" lon="11.704367978673446"><ele>172.66666666666669</ele><time>2026-04-19T10:22:41Z</time></trkpt><trkpt lat="43.503840555924256" lon="11.704648561110794"><ele>173.33333333333334</ele><time>2026-04-19T10:22:42Z</time></trkpt><trkpt lat="43.50391632052763" lon="11.704942267266842"><ele>174.0</ele><time>2026-04-19T10:22:43Z</time></trkpt><trkpt lat="43.50398665660671" lon="11.705209222941228"><ele>173.33333333333334</ele><time>2026-04-19T10:22:44Z</time></trkpt><trkpt lat="43.50405661886055" lon="11.705473254772556"><ele>172.66666666666669</ele><time>2026-04-19T10:22:45Z</time></trkpt><trkpt lat="43.50412827869967" lon="11.705742489273577"><ele>172.0</ele><time>2026-04-19T10:22:46Z</time></trkpt><trkpt lat="43.50420296127876" lon="11.706025073505547"><ele>172.0</ele><time>2026-04-19T10:22:47.001Z</time></trkpt><trkpt lat="43.50427539647384" lon="11.706314048600177"><ele>172.0</ele><time>2026-04-19T10:22:48.001Z</time></trkpt><trkpt lat="43.50434611114783" lon="11.706590786000369"><ele>172.0</ele><time>2026-04-19T10:22:49.001Z</time></trkpt><trkpt lat="43.50441084648031" lon="11.70685275620661"><ele>172.0</ele><time>2026-04-19T10:22:50.001Z</time></trkpt><trkpt lat="43.50447479407235" lon="11.707095059358066"><ele>172.0</ele><time>2026-04-19T10:22:51.001Z</time></trkpt><trkpt lat="43.50453508970124" lon="11.707320599150195"><ele>172.0</ele><time>2026-04-19T10:22:52.001Z</time></trkpt><trkpt lat="43.50459126932846" lon="11.70753957244442"><ele>173.0</ele><time>2026-04-19T10:22:53.001Z</time></trkpt><trkpt lat="43.50464343234993" lon="11.707741054962158"><ele>174.0</ele><time>2026-04-19T10:22:54.001Z</time></trkpt><trkpt lat="43.50469515823901" lon="11.707951464289323"><ele>175.0</ele><time>2026-04-19T10:22:55.001Z</time></trkpt><trkpt lat="43.504736124908874" lon="11.70816412099763"><ele>175.0</ele><time>2026-04-19T10:22:56.001Z</time></trkpt><trkpt lat="43.50478350338717" lon="11.708377332279397"><ele>175.0</ele><time>2026-04-19T10:22:57.001Z</time></trkpt><trkpt lat="43.50482553590647" lon="11.708597753641696"><ele>175.0</ele><time>2026-04-19T10:22:58.001Z</time></trkpt><trkpt lat="43.50486391754385" lon="11.708833587567804"><ele>174.66666666666669</ele><time>2026-04-19T10:22:59.001Z</time></trkpt><trkpt lat="43.504905637253565" lon="11.709076220142746"><ele>174.33333333333334</ele><time>2026-04-19T10:23:00.001Z</time></trkpt><trkpt lat="43.504950462595644" lon="11.709322608871897"><ele>174.0</ele><time>2026-04-19T10:23:01.001Z</time></trkpt><trkpt lat="43.50499798427227" lon="11.70955959638093"><ele>174.0</ele><time>2026-04-19T10:23:02.001Z</time></trkpt><trkpt lat="43.505046209484775" lon="11.709786913941755"><ele>174.0</ele><time>2026-04-19T10:23:03.001Z</time></trkpt><trkpt lat="43.50510347639109" lon="11.70999833465291"><ele>174.0</ele><time>2026-04-19T10:23:04.001Z</time></trkpt><trkpt lat="43.50516607130068" lon="11.710193310013862"><ele>174.0</ele><time>2026-04-19T10:23:05Z</time></trkpt><trkpt lat="43.50522645655" lon="11.71039087350033"><ele>174.0</ele><time>2026-04-19T10:23:06Z</time></trkpt><trkpt lat="43.50528645526087" lon="11.710588764769488"><ele>174.0</ele><time>2026-04-19T10:23:07Z</time></trkpt><trkpt lat="43.50534724584066" lon="11.710781935963025"><ele>174.0</ele><time>2026-04-19T10:23:08Z</time></trkpt><trkpt lat="43.50540638475196" lon="11.710976027989886"><ele>174.0</ele><time>2026-04-19T10:23:09Z</time></trkpt><trkpt lat="43.50546114719574" lon="11.711170949779984"><ele>174.0</ele><time>2026-04-19T10:23:10Z</time></trkpt><trkpt lat="43.50551818818595" lon="11.711362891917481"><ele>174.25</ele><time>2026-04-19T10:23:11Z</time></trkpt><trkpt lat="43.50556982770762" lon="11.711546467531143"><ele>174.5</ele><time>2026-04-19T10:23:12Z</time></trkpt><trkpt lat="43.50562238516016" lon="11.711722719591023"><ele>174.75</ele><time>2026-04-19T10:23:13Z</time></trkpt><trkpt lat="43.50567576577593" lon="11.711902227656156"><ele>175.0</ele><time>2026-04-19T10:23:14Z</time></trkpt><trkpt lat="43.50572718797662" lon="11.712078368881174"><ele>175.25</ele><time>2026-04-19T10:23:15Z</time></trkpt><trkpt lat="43.505781133401634" lon="11.712248473694306"><ele>175.5</ele><time>2026-04-19T10:23:16Z</time></trkpt><trkpt lat="43.505836989856704" lon="11.712421719433143"><ele>175.75</ele><time>2026-04-19T10:23:17Z</time></trkpt><trkpt lat="43.505891511907684" lon="11.712606799051764"><ele>176.0</ele><time>2026-04-19T10:23:18Z</time></trkpt><trkpt lat="43.5059482217485" lon="11.712798337719182"><ele>176.25</ele><time>2026-04-19T10:23:19Z</time></trkpt><trkpt lat="43.50599730860045" lon="11.712970518800995"><ele>176.5</ele><time>2026-04-19T10:23:20Z</time></trkpt><trkpt lat="43.50603736019345" lon="11.713115519228223"><ele>176.75</ele><time>2026-04-19T10:23:21Z</time></trkpt><trkpt lat="43.50608028500533" lon="11.713260411688251"><ele>177.0</ele><time>2026-04-19T10:23:22Z</time></trkpt><trkpt lat="43.506131438035055" lon="11.71342531503788"><ele>177.66666666666666</ele><time>2026-04-19T10:23:23Z</time></trkpt><trkpt lat="43.50618893763111" lon="11.71360929864092"><ele>178.33333333333331</ele><time>2026-04-19T10:23:24Z</time></trkpt><trkpt lat="43.50624635983083" lon="11.713805196581822"><ele>179.0</ele><time>2026-04-19T10:23:25Z</time></trkpt><trkpt lat="43.50630270797945" lon="11.714008284559434"><ele>180.0</ele><time>2026-04-19T10:23:26Z</time></trkpt><trkpt lat="43.50635920808606" lon="11.714226232828572"><ele>181.0</ele><time>2026-04-19T10:23:27Z</time></trkpt><trkpt lat="43.506409617746165" lon="11.714454305177606"><ele>182.0</ele><time>2026-04-19T10:23:28Z</time></trkpt><trkpt lat="43.50646058097661" lon="11.714689006593181"><ele>182.66666666666666</ele><time>2026-04-19T10:23:29Z</time></trkpt><trkpt lat="43.50651229806865" lon="11.714931226332"><ele>183.33333333333334</ele><time>2026-04-19T10:23:30Z</time></trkpt><trkpt lat="43.506572369864806" lon="11.715175564326175"><ele>184.0</ele><time>2026-04-19T10:23:31Z</time></trkpt><trkpt lat="43.50664660075322" lon="11.715421804391543"><ele>185.0</ele><time>2026-04-19T10:23:32Z</time></trkpt><trkpt lat="43.50673556447862" lon="11.715658805566758"><ele>186.0</ele><time>2026-04-19T10:23:33Z</time></trkpt><trkpt lat="43.506841420657494" lon="11.715890077860353"><ele>187.0</ele><time>2026-04-19T10:23:34Z</time></trkpt><trkpt lat="43.506959081076104" lon="11.716112389025145"><ele>188.33333333333334</ele><time>2026-04-19T10:23:35Z</time></trkpt><trkpt lat="43.50706633954491" lon="11.716321018313879"><ele>189.66666666666666</ele><time>2026-04-19T10:23:36Z</time></trkpt><trkpt lat="43.50716142093024" lon="11.71653242559515"><ele>191.0</ele><time>2026-04-19T10:23:37Z</time></trkpt><trkpt lat="43.50725022449249" lon="11.716753876090777"><ele>190.33333333333331</ele><time>2026-04-19T10:23:38Z</time></trkpt><trkpt lat="43.50732949638553" lon="11.716978171084584"><ele>189.66666666666666</ele><time>2026-04-19T10:23:39Z</time></trkpt><trkpt lat="43.507406315109414" lon="11.717201964787575"><ele>189.0</ele><time>2026-04-19T10:23:40Z</time></trkpt><trkpt lat="43.507476007277496" lon="11.717428583778071"><ele>189.0</ele><time>2026-04-19T10:23:41Z</time></trkpt><trkpt lat="43.507547099580755" lon="11.717664508239968"><ele>189.0</ele><time>2026-04-19T10:23:42Z</time></trkpt><trkpt lat="43.507617849331254" lon="11.71789963893926"><ele>189.0</ele><time>2026-04-19T10:23:43Z</time></trkpt><trkpt lat="43.50769069612072" lon="11.71812343213507"><ele>188.66666666666666</ele><time>2026-04-19T10:23:44Z</time></trkpt><trkpt lat="43.50776601840095" lon="11.718336522518381"><ele>188.33333333333331</ele><time>2026-04-19T10:23:45Z</time></trkpt><trkpt lat="43.50782626308358" lon="11.71854329505613"><ele>188.0</ele><time>2026-04-19T10:23:46Z</time></trkpt><trkpt lat="43.507881324663565" lon="11.718746322533534"><ele>189.33333333333331</ele><time>2026-04-19T10:23:47Z</time></trkpt><trkpt lat="43.507919671165496" lon="11.718994119417005"><ele>190.66666666666666</ele><time>2026-04-19T10:23:48Z</time></trkpt><trkpt lat="43.50794568005558" lon="11.719270181659885"><ele>192.0</ele><time>2026-04-19T10:23:49Z</time></trkpt><trkpt lat="43.50796518564587" lon="11.719528520229321"><ele>192.0</ele><time>2026-04-19T10:23:50Z</time></trkpt><trkpt lat="43.50798513769653" lon="11.719762763300148"><ele>192.0</ele><time>2026-04-19T10:23:51Z</time></trkpt><trkpt lat="43.508010990271565" lon="11.719983930423183"><ele>192.0</ele><time>2026-04-19T10:23:52Z</time></trkpt><trkpt lat="43.50802982274172" lon="11.720196767047824"><ele>192.0</ele><time>2026-04-19T10:23:53Z</time></trkpt><trkpt lat="43.50802763779303" lon="11.720400151375516"><ele>192.0</ele><time>2026-04-19T10:23:54Z</time></trkpt><trkpt lat="43.50800374223908" lon="11.720593476457761"><ele>192.0</ele><time>2026-04-19T10:23:55Z</time></trkpt><trkpt lat="43.50795682074326" lon="11.720791954574258"><ele>192.0</ele><time>2026-04-19T10:23:56Z</time></trkpt><trkpt lat="43.507889998567634" lon="11.72102599033463"><ele>189.0</ele><time>2026-04-19T10:23:57Z</time></trkpt><trkpt lat="43.50782468011799" lon="11.721280973833565"><ele>186.0</ele><time>2026-04-19T10:23:58Z</time></trkpt><trkpt lat="43.507776164669934" lon="11.721558523628062"><ele>183.0</ele><time>2026-04-19T10:23:59Z</time></trkpt><trkpt lat="43.50774945382921" lon="11.721844540120763"><ele>183.0</ele><time>2026-04-19T10:24:00Z</time></trkpt><trkpt lat="43.50773794437923" lon="11.722139597652873"><ele>183.0</ele><time>2026-04-19T10:24:01Z</time></trkpt><trkpt lat="43.507733074603266" lon="11.722409413415484"><ele>183.0</ele><time>2026-04-19T10:24:02Z</time></trkpt><trkpt lat="43.50772232057775" lon="11.72266801020998"><ele>183.66666666666666</ele><time>2026-04-19T10:24:03Z</time></trkpt><trkpt lat="43.50770736908057" lon="11.722928685749572"><ele>184.33333333333331</ele><time>2026-04-19T10:24:04Z</time></trkpt><trkpt lat="43.50769453529778" lon="11.723194240547388"><ele>185.0</ele><time>2026-04-19T10:24:05Z</time></trkpt><trkpt lat="43.50768708598746" lon="11.723466605187598"><ele>185.0</ele><time>2026-04-19T10:24:06Z</time></trkpt><trkpt lat="43.507677946287835" lon="11.723742503868856"><ele>185.0</ele><time>2026-04-19T10:24:07Z</time></trkpt><trkpt lat="43.50766461868797" lon="11.724019957115276"><ele>185.0</ele><time>2026-04-19T10:24:08Z</time></trkpt><trkpt lat="43.50765178100393" lon="11.724292403228628"><ele>184.66666666666666</ele><time>2026-04-19T10:24:09Z</time></trkpt><trkpt lat="43.5076411736129" lon="11.724568995345118"><ele>184.33333333333334</ele><time>2026-04-19T10:24:10Z</time></trkpt><trkpt lat="43.50762779269012" lon="11.724849189480421"><ele>184.0</ele><time>2026-04-19T10:24:11Z</time></trkpt><trkpt lat="43.50761034652708" lon="11.725145008117002"><ele>184.33333333333334</ele><time>2026-04-19T10:24:12Z</time></trkpt><trkpt lat="43.50759334301741" lon="11.725430502518504"><ele>184.66666666666666</ele><time>2026-04-19T10:24:13Z</time></trkpt><trkpt lat="43.50758246518251" lon="11.725691883134388"><ele>185.0</ele><time>2026-04-19T10:24:14Z</time></trkpt><trkpt lat="43.507576771574016" lon="11.725941271020076"><ele>184.33333333333331</ele><time>2026-04-19T10:24:15Z</time></trkpt><trkpt lat="43.50757578291204" lon="11.726173688393935"><ele>183.66666666666666</ele><time>2026-04-19T10:24:16Z</time></trkpt><trkpt lat="43.50759511449298" lon="11.726389769777182"><ele>183.0</ele><time>2026-04-19T10:24:17Z</time></trkpt><trkpt lat="43.50764747395206" lon="11.726614304734287"><ele>183.0</ele><time>2026-04-19T10:24:18Z</time></trkpt><trkpt lat="43.50774367066602" lon="11.726845042180559"><ele>183.0</ele><time>2026-04-19T10:24:19Z</time></trkpt><trkpt lat="43.507866343095756" lon="11.72706379857421"><ele>183.0</ele><time>2026-04-19T10:24:20Z</time></trkpt><trkpt lat="43.50800736790302" lon="11.727268187691445"><ele>183.66666666666666</ele><time>2026-04-19T10:24:21Z</time></trkpt><trkpt lat="43.50814750061509" lon="11.727472047795677"><ele>184.33333333333331</ele><time>2026-04-19T10:24:22Z</time></trkpt><trkpt lat="43.50827968611722" lon="11.727680159751682"><ele>185.0</ele><time>2026-04-19T10:24:23Z</time></trkpt><trkpt lat="43.50839607761845" lon="11.727876498498345"><ele>185.0</ele><time>2026-04-19T10:24:24Z</time></trkpt><trkpt lat="43.50849038357999" lon="11.728073548916454"><ele>185.0</ele><time>2026-04-19T10:24:25Z</time></trkpt><trkpt lat="43.5085464036724" lon="11.728289167261586"><ele>185.0</ele><time>2026-04-19T10:24:26Z</time></trkpt><trkpt lat="43.508570490732765" lon="11.72853400271636"><ele>186.0</ele><time>2026-04-19T10:24:27Z</time></trkpt><trkpt lat="43.50853905507666" lon="11.72879248222991"><ele>187.0</ele><time>2026-04-19T10:24:28Z</time></trkpt><trkpt lat="43.50851268560068" lon="11.729069147699796"><ele>188.0</ele><time>2026-04-19T10:24:29Z</time></trkpt><trkpt lat="43.508448940628924" lon="11.729355321062013"><ele>190.0</ele><time>2026-04-19T10:24:30Z</time></trkpt><trkpt lat="43.50839171790488" lon="11.729648851413017"><ele>192.0</ele><time>2026-04-19T10:24:31Z</time></trkpt><trkpt lat="43.508344867293616" lon="11.72992109238861"><ele>194.0</ele><time>2026-04-19T10:24:32Z</time></trkpt><trkpt lat="43.50830121726955" lon="11.730156759864967"><ele>194.75</ele><time>2026-04-19T10:24:33Z</time></trkpt><trkpt lat="43.50826595513272" lon="11.730373289592219"><ele>195.5</ele><time>2026-04-19T10:24:34Z</time></trkpt><trkpt lat="43.508256208528664" lon="11.730571105583406"><ele>196.25</ele><time>2026-04-19T10:24:35Z</time></trkpt><trkpt lat="43.50826895481103" lon="11.730749571787198"><ele>197.0</ele><time>2026-04-19T10:24:36Z</time></trkpt><trkpt lat="43.50831629538462" lon="11.730918167753405"><ele>199.5</ele><time>2026-04-19T10:24:37Z</time></trkpt><trkpt lat="43.508403291720505" lon="11.731071984195857"><ele>202.0</ele><time>2026-04-19T10:24:38Z</time></trkpt><trkpt lat="43.50851793919436" lon="11.7311958719801"><ele>204.5</ele><time>2026-04-19T10:24:39Z</time></trkpt><trkpt lat="43.50865260930898" lon="11.731287290665533"><ele>207.0</ele><time>2026-04-19T10:24:40Z</time></trkpt><trkpt lat="43.50881642917011" lon="11.7313411735524"><ele>207.0</ele><time>2026-04-19T10:24:41Z</time></trkpt><trkpt lat="43.50899261620111" lon="11.73138875404162"><ele>207.0</ele><time>2026-04-19T10:24:42Z</time></trkpt><trkpt lat="43.50916493384522" lon="11.731449059935052"><ele>207.0</ele><time>2026-04-19T10:24:43Z</time></trkpt><trkpt lat="43.50931495677564" lon="11.731495511902079"><ele>207.0</ele><time>2026-04-19T10:24:44Z</time></trkpt><trkpt lat="43.50943141769552" lon="11.731531170682324"><ele>207.0</ele><time>2026-04-19T10:24:45Z</time></trkpt><trkpt lat="43.50952698014202" lon="11.731573055575554"><ele>207.0</ele><time>2026-04-19T10:24:46Z</time></trkpt><trkpt lat="43.50960919581141" lon="11.731649725209563"><ele>207.0</ele><time>2026-04-19T10:24:47Z</time></trkpt><trkpt lat="43.50967173148451" lon="11.731763153521724"><ele>207.0</ele><time>2026-04-19T10:24:48Z</time></trkpt><trkpt lat="43.509691343313264" lon="11.731905311873817"><ele>205.5</ele><time>2026-04-19T10:24:49Z</time></trkpt><trkpt lat="43.509664480807" lon="11.732043099555321"><ele>204.0</ele><time>2026-04-19T10:24:50Z</time></trkpt><trkpt lat="43.50959381796059" lon="11.732159278359186"><ele>202.5</ele><time>2026-04-19T10:24:51Z</time></trkpt><trkpt lat="43.50948793075509" lon="11.73223217752588"><ele>201.0</ele><time>2026-04-19T10:24:52Z</time></trkpt><trkpt lat="43.50936597928545" lon="11.73224964890255"><ele>204.25</ele><time>2026-04-19T10:24:53.001Z</time></trkpt><trkpt lat="43.50924936014289" lon="11.732177800167108"><ele>207.5</ele><time>2026-04-19T10:24:54.001Z</time></trkpt><trkpt lat="43.50913445460413" lon="11.732071062063754"><ele>210.75</ele><time>2026-04-19T10:24:55.001Z</time></trkpt><trkpt lat="43.50900450799321" lon="11.731991903811444"><ele>214.0</ele><time>2026-04-19T10:24:56.001Z</time></trkpt><trkpt lat="43.508891096702484" lon="11.731927442182094"><ele>214.0</ele><time>2026-04-19T10:24:57.001Z</time></trkpt><trkpt lat="43.50877890790019" lon="11.731911569708744"><ele>214.0</ele><time>2026-04-19T10:24:58.001Z</time></trkpt><trkpt lat="43.50865874383427" lon="11.731930043464695"><ele>214.0</ele><time>2026-04-19T10:24:59.001Z</time></trkpt><trkpt lat="43.508544648283326" lon="11.731993882178221"><ele>214.0</ele><time>2026-04-19T10:25:00.001Z</time></trkpt><trkpt lat="43.50845203862736" lon="11.732110085629893"><ele>216.33333333333331</ele><time>2026-04-19T10:25:01.001Z</time></trkpt><trkpt lat="43.50836246292756" lon="11.732274095379125"><ele>218.66666666666669</ele><time>2026-04-19T10:25:02.001Z</time></trkpt><trkpt lat="43.508283796065996" lon="11.73247286382357"><ele>221.0</ele><time>2026-04-19T10:25:03.001Z</time></trkpt><trkpt lat="43.50821433677946" lon="11.732690579517667"><ele>225.33333333333334</ele><time>2026-04-19T10:25:04.001Z</time></trkpt><trkpt lat="43.50815135576472" lon="11.732900526821561"><ele>229.66666666666669</ele><time>2026-04-19T10:25:05.001Z</time></trkpt><trkpt lat="43.50810456265777" lon="11.733104102264027"><ele>234.0</ele><time>2026-04-19T10:25:06.001Z</time></trkpt><trkpt lat="43.50807342390933" lon="11.733312855755257"><ele>234.0</ele><time>2026-04-19T10:25:07.001Z</time></trkpt><trkpt lat="43.50806449885409" lon="11.733529099153525"><ele>234.0</ele><time>2026-04-19T10:25:08.001Z</time></trkpt><trkpt lat="43.508081165737984" lon="11.733759750263326"><ele>234.0</ele><time>2026-04-19T10:25:09.001Z</time></trkpt><trkpt lat="43.508123178030814" lon="11.733995498862853"><ele>237.0</ele><time>2026-04-19T10:25:10.001Z</time></trkpt><trkpt lat="43.508187447018145" lon="11.734233971287757"><ele>240.0</ele><time>2026-04-19T10:25:11Z</time></trkpt><trkpt lat="43.508264352577946" lon="11.734476109207453"><ele>243.0</ele><time>2026-04-19T10:25:12Z</time></trkpt><trkpt lat="43.508338423684364" lon="11.734722231250318"><ele>244.0</ele><time>2026-04-19T10:25:13Z</time></trkpt><trkpt lat="43.508405327318634" lon="11.734945594147346"><ele>245.0</ele><time>2026-04-19T10:25:14Z</time></trkpt><trkpt lat="43.50846405569415" lon="11.735147538596003"><ele>246.0</ele><time>2026-04-19T10:25:15Z</time></trkpt><trkpt lat="43.5085271867181" lon="11.73536314669378"><ele>247.33333333333331</ele><time>2026-04-19T10:25:16Z</time></trkpt><trkpt lat="43.50860802324829" lon="11.73556789825931"><ele>248.66666666666666</ele><time>2026-04-19T10:25:17Z</time></trkpt><trkpt lat="43.508706003591406" lon="11.735764635884603"><ele>250.0</ele><time>2026-04-19T10:25:18Z</time></trkpt><trkpt lat="43.50882268217022" lon="11.735953563064587"><ele>251.25</ele><time>2026-04-19T10:25:19Z</time></trkpt><trkpt lat="43.50891918199087" lon="11.736117833735577"><ele>252.5</ele><time>2026-04-19T10:25:20Z</time></trkpt><trkpt lat="43.50899440367371" lon="11.736278896379233"><ele>253.75</ele><time>2026-04-19T10:25:21Z</time></trkpt><trkpt lat="43.509054542479376" lon="11.736459658203376"><ele>255.0</ele><time>2026-04-19T10:25:22Z</time></trkpt><trkpt lat="43.509095036309006" lon="11.736667403546976"><ele>257.0</ele><time>2026-04-19T10:25:23Z</time></trkpt><trkpt lat="43.5091234925899" lon="11.736898226879351"><ele>259.0</ele><time>2026-04-19T10:25:24Z</time></trkpt><trkpt lat="43.509130838709275" lon="11.737132665380742"><ele>261.0</ele><time>2026-04-19T10:25:25Z</time></trkpt><trkpt lat="43.50913676004019" lon="11.737369415904361"><ele>261.0</ele><time>2026-04-19T10:25:26Z</time></trkpt><trkpt lat="43.50914657771687" lon="11.737596619065517"><ele>261.0</ele><time>2026-04-19T10:25:27Z</time></trkpt><trkpt lat="43.509154947899574" lon="11.737826541075219"><ele>261.0</ele><time>2026-04-19T10:25:28Z</time></trkpt><trkpt lat="43.50916054800622" lon="11.738037041139377"><ele>262.3333333333333</ele><time>2026-04-19T10:25:29Z</time></trkpt><trkpt lat="43.509173608741875" lon="11.738235336739665"><ele>263.66666666666663</ele><time>2026-04-19T10:25:30Z</time></trkpt><trkpt lat="43.509207547361285" lon="11.738444051878474"><ele>265.0</ele><time>2026-04-19T10:25:31Z</time></trkpt><trkpt lat="43.50926463120927" lon="11.738648111162776"><ele>264.66666666666663</ele><time>2026-04-19T10:25:32Z</time></trkpt><trkpt lat="43.509342907709225" lon="11.738827309127585"><ele>264.3333333333333</ele><time>2026-04-19T10:25:33Z</time></trkpt><trkpt lat="43.50945210241541" lon="11.738998825515678"><ele>264.0</ele><time>2026-04-19T10:25:34Z</time></trkpt><trkpt lat="43.509596936553756" lon="11.739164186787553"><ele>264.0</ele><time>2026-04-19T10:25:35Z</time></trkpt><trkpt lat="43.5097646425381" lon="11.739328407926939"><ele>264.0</ele><time>2026-04-19T10:25:36Z</time></trkpt><trkpt lat="43.50993365080937" lon="11.739503754389553"><ele>264.0</ele><time>2026-04-19T10:25:37Z</time></trkpt><trkpt lat="43.510094482001215" lon="11.739682111567424"><ele>265.3333333333333</ele><time>2026-04-19T10:25:38Z</time></trkpt><trkpt lat="43.510249971120075" lon="11.739850865959504"><ele>266.66666666666663</ele><time>2026-04-19T10:25:39Z</time></trkpt><trkpt lat="43.510402249343365" lon="11.740003540557506"><ele>268.0</ele><time>2026-04-19T10:25:40Z</time></trkpt><trkpt lat="43.51054188020738" lon="11.740149001077148"><ele>268.66666666666663</ele><time>2026-04-19T10:25:41Z</time></trkpt><trkpt lat="43.5106754630435" lon="11.740302895323408"><ele>269.3333333333333</ele><time>2026-04-19T10:25:42Z</time></trkpt><trkpt lat="43.510810056523376" lon="11.740489074272418"><ele>270.0</ele><time>2026-04-19T10:25:43Z</time></trkpt><trkpt lat="43.51094046538335" lon="11.740703967745183"><ele>270.0</ele><time>2026-04-19T10:25:44Z</time></trkpt><trkpt lat="43.51105840750945" lon="11.740946115310011"><ele>270.0</ele><time>2026-04-19T10:25:45Z</time></trkpt><trkpt lat="43.51117594578149" lon="11.741190408846196"><ele>270.0</ele><time>2026-04-19T10:25:46Z</time></trkpt><trkpt lat="43.51129620571394" lon="11.741428528407267"><ele>269.6666666666667</ele><time>2026-04-19T10:25:47Z</time></trkpt><trkpt lat="43.51140714054736" lon="11.741650917468318"><ele>269.33333333333337</ele><time>2026-04-19T10:25:48Z</time></trkpt><trkpt lat="43.511522615830096" lon="11.741868878150493"><ele>269.0</ele><time>2026-04-19T10:25:49Z</time></trkpt><trkpt lat="43.511654440061385" lon="11.742091215236197"><ele>269.0</ele><time>2026-04-19T10:25:50Z</time></trkpt><trkpt lat="43.511804429292006" lon="11.742314354559255"><ele>269.0</ele><time>2026-04-19T10:25:51Z</time></trkpt><trkpt lat="43.51196799305559" lon="11.742527133011142"><ele>269.0</ele><time>2026-04-19T10:25:52Z</time></trkpt><trkpt lat="43.512133636158154" lon="11.742731156417792"><ele>266.33333333333337</ele><time>2026-04-19T10:25:53Z</time></trkpt><trkpt lat="43.51229286001474" lon="11.742930791890466"><ele>263.6666666666667</ele><time>2026-04-19T10:25:54Z</time></trkpt><trkpt lat="43.51244313938678" lon="11.743129841642878"><ele>261.0</ele><time>2026-04-19T10:25:55Z</time></trkpt><trkpt lat="43.51259258201265" lon="11.743344338210507"><ele>260.0</ele><time>2026-04-19T10:25:56Z</time></trkpt><trkpt lat="43.51273685368576" lon="11.743568515884137"><ele>259.0</ele><time>2026-04-19T10:25:57Z</time></trkpt><trkpt lat="43.512877989412665" lon="11.743797833235357"><ele>258.0</ele><time>2026-04-19T10:25:58Z</time></trkpt><trkpt lat="43.51301131856611" lon="11.74402301249777"><ele>257.6666666666667</ele><time>2026-04-19T10:25:59Z</time></trkpt><trkpt lat="43.51314360659581" lon="11.744246351724836"><ele>257.33333333333337</ele><time>2026-04-19T10:26:00Z</time></trkpt><trkpt lat="43.51326917702121" lon="11.74448451389291"><ele>257.0</ele><time>2026-04-19T10:26:01Z</time></trkpt><trkpt lat="43.51338808157803" lon="11.744736167741426"><ele>257.0</ele><time>2026-04-19T10:26:02Z</time></trkpt><trkpt lat="43.51350611496664" lon="11.744985846093126"><ele>257.0</ele><time>2026-04-19T10:26:03Z</time></trkpt><trkpt lat="43.51362041876263" lon="11.745228789642518"><ele>257.0</ele><time>2026-04-19T10:26:04Z</time></trkpt><trkpt lat="43.51373329173421" lon="11.745467869407902"><ele>257.0</ele><time>2026-04-19T10:26:05Z</time></trkpt><trkpt lat="43.513845603499696" lon="11.74570395940451"><ele>257.0</ele><time>2026-04-19T10:26:06Z</time></trkpt><trkpt lat="43.51396917013762" lon="11.745947484949108"><ele>257.0</ele><time>2026-04-19T10:26:07Z</time></trkpt><trkpt lat="43.5140986513707" lon="11.746185966703562"><ele>257.0</ele><time>2026-04-19T10:26:08Z</time></trkpt><trkpt lat="43.51423886602363" lon="11.74642699030826"><ele>257.0</ele><time>2026-04-19T10:26:09Z</time></trkpt><trkpt lat="43.514380490576286" lon="11.746662265494004"><ele>257.0</ele><time>2026-04-19T10:26:10Z</time></trkpt><trkpt lat="43.514515969229784" lon="11.746893222629632"><ele>257.0</ele><time>2026-04-19T10:26:11Z</time></trkpt><trkpt lat="43.51465360163159" lon="11.74712083414881"><ele>257.0</ele><time>2026-04-19T10:26:12Z</time></trkpt><trkpt lat="43.51479394539277" lon="11.747343952036696"><ele>257.0</ele><time>2026-04-19T10:26:13Z</time></trkpt><trkpt lat="43.514945776066796" lon="11.747564156592114"><ele>256.0</ele><time>2026-04-19T10:26:14Z</time></trkpt><trkpt lat="43.51510622221175" lon="11.747779644347657"><ele>255.0</ele><time>2026-04-19T10:26:15Z</time></trkpt><trkpt lat="43.515261564988755" lon="11.748009531788805"><ele>255.33333333333331</ele><time>2026-04-19T10:26:16Z</time></trkpt><trkpt lat="43.51541841232336" lon="11.748226583143175"><ele>255.66666666666666</ele><time>2026-04-19T10:26:17Z</time></trkpt><trkpt lat="43.51557161582641" lon="11.748426319854977"><ele>256.0</ele><time>2026-04-19T10:26:18Z</time></trkpt><trkpt lat="43.51571286804212" lon="11.748615744919727"><ele>256.0</ele><time>2026-04-19T10:26:19Z</time></trkpt><trkpt lat="43.51584861541792" lon="11.74879706138839"><ele>256.0</ele><time>2026-04-19T10:26:20Z</time></trkpt><trkpt lat="43.51598150701836" lon="11.748972704535248"><ele>256.0</ele><time>2026-04-19T10:26:21Z</time></trkpt><trkpt lat="43.51612373126146" lon="11.749158047094612"><ele>256.3333333333333</ele><time>2026-04-19T10:26:22Z</time></trkpt><trkpt lat="43.51625515032322" lon="11.749365749787042"><ele>256.6666666666667</ele><time>2026-04-19T10:26:23Z</time></trkpt><trkpt lat="43.51641113574849" lon="11.7495521493073"><ele>257.0</ele><time>2026-04-19T10:26:24Z</time></trkpt><trkpt lat="43.5165524908934" lon="11.749753083644817"><ele>257.0</ele><time>2026-04-19T10:26:25Z</time></trkpt><trkpt lat="43.51669472125271" lon="11.749947912065144"><ele>257.0</ele><time>2026-04-19T10:26:26Z</time></trkpt><trkpt lat="43.516840463029666" lon="11.750144345261887"><ele>257.0</ele><time>2026-04-19T10:26:27Z</time></trkpt><trkpt lat="43.51698775548844" lon="11.750342243467102"><ele>257.0</ele><time>2026-04-19T10:26:28Z</time></trkpt><trkpt lat="43.517127262468485" lon="11.750538350537221"><ele>257.0</ele><time>2026-04-19T10:26:29Z</time></trkpt><trkpt lat="43.51726612658024" lon="11.750727646012301"><ele>257.0</ele><time>2026-04-19T10:26:30Z</time></trkpt><trkpt lat="43.51740355884767" lon="11.750914351635892"><ele>259.6666666666667</ele><time>2026-04-19T10:26:31Z</time></trkpt><trkpt lat="43.51753766127418" lon="11.75109522296347"><ele>262.3333333333333</ele><time>2026-04-19T10:26:32Z</time></trkpt><trkpt lat="43.517671449595845" lon="11.75127569241871"><ele>265.0</ele><time>2026-04-19T10:26:33Z</time></trkpt><trkpt lat="43.517799519124566" lon="11.751456468595398"><ele>261.66666666666663</ele><time>2026-04-19T10:26:34Z</time></trkpt><trkpt lat="43.51792834200385" lon="11.75163565455536"><ele>258.3333333333333</ele><time>2026-04-19T10:26:35Z</time></trkpt><trkpt lat="43.518058900162785" lon="11.751811369689312"><ele>255.0</ele><time>2026-04-19T10:26:36Z</time></trkpt><trkpt lat="43.51818741742771" lon="11.751980343942137"><ele>255.0</ele><time>2026-04-19T10:26:37Z</time></trkpt><trkpt lat="43.518329092627205" lon="11.75213677999545"><ele>255.0</ele><time>2026-04-19T10:26:38Z</time></trkpt><trkpt lat="43.518487778420386" lon="11.752259280223056"><ele>255.0</ele><time>2026-04-19T10:26:39Z</time></trkpt><trkpt lat="43.518657085572684" lon="11.752352078166266"><ele>254.66666666666669</ele><time>2026-04-19T10:26:40Z</time></trkpt><trkpt lat="43.51887508328556" lon="11.752372245927253"><ele>254.33333333333334</ele><time>2026-04-19T10:26:41Z</time></trkpt><trkpt lat="43.519085393986735" lon="11.752407329368047"><ele>254.0</ele><time>2026-04-19T10:26:42Z</time></trkpt><trkpt lat="43.51926910831096" lon="11.752489408623905"><ele>254.0</ele><time>2026-04-19T10:26:43Z</time></trkpt><trkpt lat="43.5194279123944" lon="11.752628574065826"><ele>254.0</ele><time>2026-04-19T10:26:44Z</time></trkpt><trkpt lat="43.5196128598587" lon="11.752734033073624"><ele>254.0</ele><time>2026-04-19T10:26:45Z</time></trkpt><trkpt lat="43.5198014188626" lon="11.75284322948356"><ele>253.66666666666669</ele><time>2026-04-19T10:26:46Z</time></trkpt><trkpt lat="43.519978843839915" lon="11.752959955239755"><ele>253.33333333333331</ele><time>2026-04-19T10:26:47Z</time></trkpt><trkpt lat="43.520160357175286" lon="11.7530848071147"><ele>253.0</ele><time>2026-04-19T10:26:48Z</time></trkpt><trkpt lat="43.52034603218505" lon="11.753204743029245"><ele>254.0</ele><time>2026-04-19T10:26:49Z</time></trkpt><trkpt lat="43.5205376676013" lon="11.753328317326593"><ele>255.0</ele><time>2026-04-19T10:26:50Z</time></trkpt><trkpt lat="43.520720554761375" lon="11.753448725015712"><ele>256.0</ele><time>2026-04-19T10:26:51Z</time></trkpt><trkpt lat="43.52090771416172" lon="11.753574798357564"><ele>256.0</ele><time>2026-04-19T10:26:52Z</time></trkpt><trkpt lat="43.52110087943966" lon="11.753695439082916"><ele>256.0</ele><time>2026-04-19T10:26:53Z</time></trkpt><trkpt lat="43.52129434123492" lon="11.753821498912052"><ele>256.0</ele><time>2026-04-19T10:26:54Z</time></trkpt><trkpt lat="43.52148844999133" lon="11.753950750136658"><ele>257.0</ele><time>2026-04-19T10:26:55Z</time></trkpt><trkpt lat="43.52167076081776" lon="11.754069496722396"><ele>258.0</ele><time>2026-04-19T10:26:56Z</time></trkpt><trkpt lat="43.521846117383774" lon="11.754181077218833"><ele>259.0</ele><time>2026-04-19T10:26:57Z</time></trkpt><trkpt lat="43.5220225525553" lon="11.754296195566734"><ele>260.0</ele><time>2026-04-19T10:26:58.001Z</time></trkpt><trkpt lat="43.5222020358839" lon="11.754414630049284"><ele>261.0</ele><time>2026-04-19T10:26:59.001Z</time></trkpt><trkpt lat="43.52238172609288" lon="11.754531523480537"><ele>262.0</ele><time>2026-04-19T10:27:00.001Z</time></trkpt><trkpt lat="43.52256511807275" lon="11.754651968497635"><ele>262.0</ele><time>2026-04-19T10:27:01.001Z</time></trkpt><trkpt lat="43.522749371037065" lon="11.754774870361407"><ele>262.0</ele><time>2026-04-19T10:27:02.001Z</time></trkpt><trkpt lat="43.52293506748192" lon="11.75489442077637"><ele>262.0</ele><time>2026-04-19T10:27:03.001Z</time></trkpt><trkpt lat="43.523125914305204" lon="11.755015052497669"><ele>262.3333333333333</ele><time>2026-04-19T10:27:04.001Z</time></trkpt><trkpt lat="43.52331618374506" lon="11.755136455718775"><ele>262.6666666666667</ele><time>2026-04-19T10:27:05.001Z</time></trkpt><trkpt lat="43.52350349290282" lon="11.755255501503157"><ele>263.0</ele><time>2026-04-19T10:27:06.001Z</time></trkpt><trkpt lat="43.523678636849915" lon="11.755369878511715"><ele>264.33333333333337</ele><time>2026-04-19T10:27:07.001Z</time></trkpt><trkpt lat="43.523841320951725" lon="11.755476792661435"><ele>265.6666666666667</ele><time>2026-04-19T10:27:08.001Z</time></trkpt><trkpt lat="43.52400211605398" lon="11.755585601255987"><ele>267.0</ele><time>2026-04-19T10:27:09.001Z</time></trkpt><trkpt lat="43.52416488237783" lon="11.755695583572141"><ele>267.0</ele><time>2026-04-19T10:27:10.001Z</time></trkpt><trkpt lat="43.52432910205353" lon="11.755803497813265"><ele>267.0</ele><time>2026-04-19T10:27:11.001Z</time></trkpt><trkpt lat="43.52449392696653" lon="11.75591377652899"><ele>267.0</ele><time>2026-04-19T10:27:12.001Z</time></trkpt><trkpt lat="43.52466118716247" lon="11.75602345674928"><ele>267.3333333333333</ele><time>2026-04-19T10:27:13.001Z</time></trkpt><trkpt lat="43.524832182809185" lon="11.756136542404297"><ele>267.66666666666663</ele><time>2026-04-19T10:27:14.001Z</time></trkpt><trkpt lat="43.52500907005868" lon="11.756249304037922"><ele>268.0</ele><time>2026-04-19T10:27:15.001Z</time></trkpt><trkpt lat="43.525190449406246" lon="11.756367219586943"><ele>268.0</ele><time>2026-04-19T10:27:16.001Z</time></trkpt><trkpt lat="43.52537866819391" lon="11.756488171171437"><ele>268.0</ele><time>2026-04-19T10:27:17Z</time></trkpt><trkpt lat="43.52557317813942" lon="11.756613524853243"><ele>268.0</ele><time>2026-04-19T10:27:18Z</time></trkpt><trkpt lat="43.52577235751269" lon="11.756743635697934"><ele>268.3333333333333</ele><time>2026-04-19T10:27:19Z</time></trkpt><trkpt lat="43.52597456341845" lon="11.756876340631404"><ele>268.6666666666667</ele><time>2026-04-19T10:27:20Z</time></trkpt><trkpt lat="43.52616740990941" lon="11.757002150796499"><ele>269.0</ele><time>2026-04-19T10:27:21Z</time></trkpt><trkpt lat="43.52634527428715" lon="11.757122979822284"><ele>269.0</ele><time>2026-04-19T10:27:22Z</time></trkpt><trkpt lat="43.526516541989096" lon="11.757237837942359"><ele>269.0</ele><time>2026-04-19T10:27:23Z</time></trkpt><trkpt lat="43.526686447606686" lon="11.757345146089623"><ele>269.0</ele><time>2026-04-19T10:27:24Z</time></trkpt><trkpt lat="43.52685065440622" lon="11.757446915537788"><ele>269.0</ele><time>2026-04-19T10:27:25Z</time></trkpt><trkpt lat="43.527002722808234" lon="11.75754324379041"><ele>269.0</ele><time>2026-04-19T10:27:26Z</time></trkpt><trkpt lat="43.52714359746084" lon="11.757633391273652"><ele>269.0</ele><time>2026-04-19T10:27:27Z</time></trkpt><trkpt lat="43.52727334136685" lon="11.757723768337833"><ele>269.25</ele><time>2026-04-19T10:27:28Z</time></trkpt><trkpt lat="43.52738575388051" lon="11.75783240014569"><ele>269.5</ele><time>2026-04-19T10:27:29Z</time></trkpt><trkpt lat="43.52748130990085" lon="11.757950086528528"><ele>269.75</ele><time>2026-04-19T10:27:30Z</time></trkpt><trkpt lat="43.52756575020614" lon="11.758063631733357"><ele>270.0</ele><time>2026-04-19T10:27:31Z</time></trkpt><trkpt lat="43.52764162481313" lon="11.758167051142811"><ele>270.0</ele><time>2026-04-19T10:27:32Z</time></trkpt><trkpt lat="43.52771149227176" lon="11.758257043264805"><ele>270.0</ele><time>2026-04-19T10:27:33Z</time></trkpt><trkpt lat="43.527768773953206" lon="11.758345662112989"><ele>270.0</ele><time>2026-04-19T10:27:34Z</time></trkpt><trkpt lat="43.527827653515786" lon="11.75843699041651"><ele>270.0</ele><time>2026-04-19T10:27:35Z</time></trkpt><trkpt lat="43.527851880972406" lon="11.758544933266117"><ele>270.0</ele><time>2026-04-19T10:27:36Z</time></trkpt><trkpt lat="43.527785617249606" lon="11.758758541301571"><ele>270.5</ele><time>2026-04-19T10:27:38Z</time></trkpt><trkpt lat="43.527720219153466" lon="11.758888871879568"><ele>271.0</ele><time>2026-04-19T10:27:39Z</time></trkpt><trkpt lat="43.52763549139355" lon="11.759047982918585"><ele>271.5</ele><time>2026-04-19T10:27:40Z</time></trkpt><trkpt lat="43.52754989647548" lon="11.759205759589976"><ele>272.0</ele><time>2026-04-19T10:27:41Z</time></trkpt><trkpt lat="43.52747423446549" lon="11.759360620047094"><ele>272.0</ele><time>2026-04-19T10:27:42Z</time></trkpt><trkpt lat="43.527404855643816" lon="11.759511596295566"><ele>272.0</ele><time>2026-04-19T10:27:43Z</time></trkpt><trkpt lat="43.52733470573967" lon="11.75966880306576"><ele>272.0</ele><time>2026-04-19T10:27:44Z</time></trkpt><trkpt lat="43.52725674414981" lon="11.75982351382961"><ele>272.0</ele><time>2026-04-19T10:27:45Z</time></trkpt><trkpt lat="43.52717576896274" lon="11.759981646565324"><ele>272.0</ele><time>2026-04-19T10:27:46Z</time></trkpt><trkpt lat="43.52709012868691" lon="11.7601515645304"><ele>272.0</ele><time>2026-04-19T10:27:47Z</time></trkpt><trkpt lat="43.52699729521186" lon="11.760341273716197"><ele>272.0</ele><time>2026-04-19T10:27:48Z</time></trkpt><trkpt lat="43.526903085378954" lon="11.76053087130463"><ele>272.0</ele><time>2026-04-19T10:27:49Z</time></trkpt><trkpt lat="43.52681631706847" lon="11.760708876471273"><ele>272.0</ele><time>2026-04-19T10:27:50Z</time></trkpt><trkpt lat="43.526731044182306" lon="11.760880245958171"><ele>272.0</ele><time>2026-04-19T10:27:51Z</time></trkpt><trkpt lat="43.52664614029117" lon="11.761057251068031"><ele>271.33333333333337</ele><time>2026-04-19T10:27:52Z</time></trkpt><trkpt lat="43.52656138233818" lon="11.76123665111166"><ele>270.6666666666667</ele><time>2026-04-19T10:27:53Z</time></trkpt><trkpt lat="43.52647331892081" lon="11.761415988985135"><ele>270.0</ele><time>2026-04-19T10:27:54Z</time></trkpt><trkpt lat="43.52638196098655" lon="11.761600228081065"><ele>270.0</ele><time>2026-04-19T10:27:55Z</time></trkpt><trkpt lat="43.52628643912626" lon="11.76178132927325"><ele>270.0</ele><time>2026-04-19T10:27:56Z</time></trkpt><trkpt lat="43.52619314856598" lon="11.761947388508261"><ele>270.0</ele><time>2026-04-19T10:27:57Z</time></trkpt><trkpt lat="43.52610352291579" lon="11.762099553525932"><ele>269.75</ele><time>2026-04-19T10:27:58Z</time></trkpt><trkpt lat="43.526014310413125" lon="11.762245644902515"><ele>269.5</ele><time>2026-04-19T10:27:59Z</time></trkpt><trkpt lat="43.525923038856064" lon="11.762394173546564"><ele>269.25</ele><time>2026-04-19T10:28:00Z</time></trkpt><trkpt lat="43.52583969734714" lon="11.762525769519533"><ele>269.0</ele><time>2026-04-19T10:28:01Z</time></trkpt><trkpt lat="43.52575958687161" lon="11.76265299214852"><ele>269.25</ele><time>2026-04-19T10:28:02Z</time></trkpt><trkpt lat="43.525673251146834" lon="11.762789916832476"><ele>269.5</ele><time>2026-04-19T10:28:03Z</time></trkpt><trkpt lat="43.52557685404421" lon="11.762941435639524"><ele>269.75</ele><time>2026-04-19T10:28:04Z</time></trkpt><trkpt lat="43.52547271711827" lon="11.763098995726885"><ele>270.0</ele><time>2026-04-19T10:28:05Z</time></trkpt><trkpt lat="43.52536452352522" lon="11.76326134277105"><ele>269.0</ele><time>2026-04-19T10:28:06Z</time></trkpt><trkpt lat="43.52525682044367" lon="11.763434027309602"><ele>268.0</ele><time>2026-04-19T10:28:07Z</time></trkpt><trkpt lat="43.52514653433121" lon="11.76361663406728"><ele>267.0</ele><time>2026-04-19T10:28:08Z</time></trkpt><trkpt lat="43.52503445039136" lon="11.763797161389766"><ele>267.0</ele><time>2026-04-19T10:28:09Z</time></trkpt><trkpt lat="43.52492820777356" lon="11.76396827726134"><ele>267.0</ele><time>2026-04-19T10:28:10Z</time></trkpt><trkpt lat="43.52483377317082" lon="11.764121959645575"><ele>267.0</ele><time>2026-04-19T10:28:11Z</time></trkpt><trkpt lat="43.52475339431211" lon="11.764262335700266"><ele>267.0</ele><time>2026-04-19T10:28:12Z</time></trkpt><trkpt lat="43.524674574350385" lon="11.764400324426452"><ele>266.25</ele><time>2026-04-19T10:28:13Z</time></trkpt><trkpt lat="43.52459500050715" lon="11.764538036824657"><ele>265.5</ele><time>2026-04-19T10:28:14Z</time></trkpt><trkpt lat="43.524505312537435" lon="11.764698143826902"><ele>264.75</ele><time>2026-04-19T10:28:15Z</time></trkpt><trkpt lat="43.52440063557576" lon="11.76487631465551"><ele>264.0</ele><time>2026-04-19T10:28:16Z</time></trkpt><trkpt lat="43.52429351406829" lon="11.765061380592126"><ele>262.3333333333333</ele><time>2026-04-19T10:28:17Z</time></trkpt><trkpt lat="43.52417924482736" lon="11.765250196709546"><ele>260.66666666666663</ele><time>2026-04-19T10:28:18Z</time></trkpt><trkpt lat="43.52406258502842" lon="11.765483168972526"><ele>259.0</ele><time>2026-04-19T10:28:19Z</time></trkpt><trkpt lat="43.52394838436393" lon="11.765680549969531"><ele>259.0</ele><time>2026-04-19T10:28:20Z</time></trkpt><trkpt lat="43.52381161546687" lon="11.765915861409175"><ele>259.0</ele><time>2026-04-19T10:28:21Z</time></trkpt><trkpt lat="43.523671537935066" lon="11.76615857812616"><ele>259.0</ele><time>2026-04-19T10:28:22Z</time></trkpt><trkpt lat="43.52354056111849" lon="11.766392690714163"><ele>256.3333333333333</ele><time>2026-04-19T10:28:23Z</time></trkpt><trkpt lat="43.52341872018123" lon="11.76660944787146"><ele>253.66666666666669</ele><time>2026-04-19T10:28:24Z</time></trkpt><trkpt lat="43.52330218776182" lon="11.766813740571521"><ele>251.0</ele><time>2026-04-19T10:28:25Z</time></trkpt><trkpt lat="43.52319211082041" lon="11.767005232416349"><ele>251.0</ele><time>2026-04-19T10:28:26Z</time></trkpt><trkpt lat="43.523089188827306" lon="11.767188236470561"><ele>251.0</ele><time>2026-04-19T10:28:27Z</time></trkpt><trkpt lat="43.52299544799814" lon="11.767353965218298"><ele>251.0</ele><time>2026-04-19T10:28:28Z</time></trkpt><trkpt lat="43.52288844230973" lon="11.767542430160292"><ele>250.66666666666669</ele><time>2026-04-19T10:28:29Z</time></trkpt><trkpt lat="43.52277431264759" lon="11.767740792823787"><ele>250.33333333333331</ele><time>2026-04-19T10:28:30Z</time></trkpt><trkpt lat="43.52265590087618" lon="11.767955131233876"><ele>250.0</ele><time>2026-04-19T10:28:31Z</time></trkpt><trkpt lat="43.52253180222414" lon="11.76817712692857"><ele>250.0</ele><time>2026-04-19T10:28:32Z</time></trkpt><trkpt lat="43.52241260845892" lon="11.768388261531907"><ele>250.0</ele><time>2026-04-19T10:28:33Z</time></trkpt><trkpt lat="43.522302132335575" lon="11.768579950987926"><ele>250.0</ele><time>2026-04-19T10:28:34Z</time></trkpt><trkpt lat="43.52219678713008" lon="11.768767197076388"><ele>250.0</ele><time>2026-04-19T10:28:35Z</time></trkpt><trkpt lat="43.52209680722183" lon="11.768948766713407"><ele>250.0</ele><time>2026-04-19T10:28:36Z</time></trkpt><trkpt lat="43.52199354651478" lon="11.769130526168716"><ele>250.0</ele><time>2026-04-19T10:28:37Z</time></trkpt><trkpt lat="43.52188980909255" lon="11.769307234869625"><ele>251.0</ele><time>2026-04-19T10:28:38Z</time></trkpt><trkpt lat="43.521785665726995" lon="11.769486423312543"><ele>252.0</ele><time>2026-04-19T10:28:39Z</time></trkpt><trkpt lat="43.521684748990296" lon="11.769660434916048"><ele>253.0</ele><time>2026-04-19T10:28:40Z</time></trkpt><trkpt lat="43.52158550196073" lon="11.769837784202995"><ele>253.0</ele><time>2026-04-19T10:28:41Z</time></trkpt><trkpt lat="43.52148869374694" lon="11.770015235306543"><ele>253.0</ele><time>2026-04-19T10:28:42Z</time></trkpt><trkpt lat="43.521389407950345" lon="11.770181812618507"><ele>253.0</ele><time>2026-04-19T10:28:43Z</time></trkpt><trkpt lat="43.5212914373406" lon="11.770354937906461"><ele>252.66666666666666</ele><time>2026-04-19T10:28:44Z</time></trkpt><trkpt lat="43.521194230176086" lon="11.770531467609315"><ele>252.33333333333331</ele><time>2026-04-19T10:28:45Z</time></trkpt><trkpt lat="43.52109202603845" lon="11.770712221107114"><ele>252.0</ele><time>2026-04-19T10:28:46Z</time></trkpt><trkpt lat="43.52098108589858" lon="11.77089702170132"><ele>253.0</ele><time>2026-04-19T10:28:47Z</time></trkpt><trkpt lat="43.52086324686698" lon="11.771078018395015"><ele>254.0</ele><time>2026-04-19T10:28:48Z</time></trkpt><trkpt lat="43.5207203011513" lon="11.771261398713218"><ele>255.0</ele><time>2026-04-19T10:28:49Z</time></trkpt><trkpt lat="43.52055841608034" lon="11.771432392784103"><ele>254.33333333333331</ele><time>2026-04-19T10:28:50Z</time></trkpt><trkpt lat="43.52038131120459" lon="11.771577415549793"><ele>253.66666666666666</ele><time>2026-04-19T10:28:51Z</time></trkpt><trkpt lat="43.52018864241657" lon="11.771723250682427"><ele>253.0</ele><time>2026-04-19T10:28:52Z</time></trkpt><trkpt lat="43.52000119325058" lon="11.771833216049956"><ele>253.33333333333331</ele><time>2026-04-19T10:28:53Z</time></trkpt><trkpt lat="43.51979429953844" lon="11.771918478959659"><ele>253.66666666666669</ele><time>2026-04-19T10:28:54Z</time></trkpt><trkpt lat="43.51958535494892" lon="11.771991618583401"><ele>254.0</ele><time>2026-04-19T10:28:55Z</time></trkpt><trkpt lat="43.51935532808305" lon="11.772031702202016"><ele>254.0</ele><time>2026-04-19T10:28:56Z</time></trkpt><trkpt lat="43.51911386225777" lon="11.772091239208722"><ele>254.0</ele><time>2026-04-19T10:28:57Z</time></trkpt><trkpt lat="43.51886774824273" lon="11.772159938823668"><ele>252.5</ele><time>2026-04-19T10:28:58Z</time></trkpt><trkpt lat="43.51862433912783" lon="11.772224896726946"><ele>251.0</ele><time>2026-04-19T10:28:59Z</time></trkpt><trkpt lat="43.518397303777164" lon="11.772285820765761"><ele>251.0</ele><time>2026-04-19T10:29:00Z</time></trkpt><trkpt lat="43.518185769794165" lon="11.772335698876931"><ele>251.0</ele><time>2026-04-19T10:29:01Z</time></trkpt><trkpt lat="43.517992058432334" lon="11.77242097521867"><ele>251.0</ele><time>2026-04-19T10:29:02Z</time></trkpt><trkpt lat="43.517784882153805" lon="11.772457070939334"><ele>251.33333333333334</ele><time>2026-04-19T10:29:03Z</time></trkpt><trkpt lat="43.517571724843535" lon="11.772503153292515"><ele>251.66666666666669</ele><time>2026-04-19T10:29:04Z</time></trkpt><trkpt lat="43.51736302263793" lon="11.772560134405847"><ele>252.0</ele><time>2026-04-19T10:29:05Z</time></trkpt><trkpt lat="43.51716945908354" lon="11.772613311382935"><ele>251.66666666666669</ele><time>2026-04-19T10:29:06Z</time></trkpt><trkpt lat="43.516989216826154" lon="11.772680439242851"><ele>251.33333333333334</ele><time>2026-04-19T10:29:07.001Z</time></trkpt><trkpt lat="43.516821210350436" lon="11.772752041516188"><ele>251.0</ele><time>2026-04-19T10:29:08.001Z</time></trkpt><trkpt lat="43.51665695559955" lon="11.77284002408403"><ele>250.33333333333334</ele><time>2026-04-19T10:29:09.001Z</time></trkpt><trkpt lat="43.51649724974789" lon="11.772957495708686"><ele>249.66666666666669</ele><time>2026-04-19T10:29:10.001Z</time></trkpt><trkpt lat="43.51634271159013" lon="11.773099777034393"><ele>249.0</ele><time>2026-04-19T10:29:11.001Z</time></trkpt><trkpt lat="43.5161774877379" lon="11.77329585405857"><ele>248.33333333333331</ele><time>2026-04-19T10:29:12.001Z</time></trkpt><trkpt lat="43.516058611066946" lon="11.773484238286692"><ele>247.66666666666666</ele><time>2026-04-19T10:29:13.001Z</time></trkpt><trkpt lat="43.51594759263715" lon="11.773701986751359"><ele>247.0</ele><time>2026-04-19T10:29:14.001Z</time></trkpt><trkpt lat="43.51585193658007" lon="11.773937417975421"><ele>246.66666666666666</ele><time>2026-04-19T10:29:15.001Z</time></trkpt><trkpt lat="43.51579104783156" lon="11.774205672657652"><ele>246.33333333333331</ele><time>2026-04-19T10:29:16.001Z</time></trkpt><trkpt lat="43.51573959354328" lon="11.774472365388975"><ele>246.0</ele><time>2026-04-19T10:29:17.001Z</time></trkpt><trkpt lat="43.51570888162723" lon="11.77475485226742"><ele>247.0</ele><time>2026-04-19T10:29:18.001Z</time></trkpt><trkpt lat="43.51570013344573" lon="11.775036450221357"><ele>248.0</ele><time>2026-04-19T10:29:19.001Z</time></trkpt><trkpt lat="43.515676876701505" lon="11.775334441000544"><ele>249.0</ele><time>2026-04-19T10:29:20.001Z</time></trkpt><trkpt lat="43.5156593545635" lon="11.775534246726783"><ele>250.0</ele><time>2026-04-19T10:29:21.001Z</time></trkpt><trkpt lat="43.51560491169116" lon="11.775767657316935"><ele>251.0</ele><time>2026-04-19T10:29:22.001Z</time></trkpt><trkpt lat="43.51553129235072" lon="11.775971810127942"><ele>252.0</ele><time>2026-04-19T10:29:23Z</time></trkpt><trkpt lat="43.515403233560065" lon="11.776261184675171"><ele>252.0</ele><time>2026-04-19T10:29:24Z</time></trkpt><trkpt lat="43.515299127239544" lon="11.776508196591232"><ele>252.0</ele><time>2026-04-19T10:29:25Z</time></trkpt><trkpt lat="43.51519765808849" lon="11.776727348484904"><ele>252.0</ele><time>2026-04-19T10:29:26Z</time></trkpt><trkpt lat="43.51509123502817" lon="11.77692747451786"><ele>252.0</ele><time>2026-04-19T10:29:27Z</time></trkpt><trkpt lat="43.514966271400645" lon="11.77713151576525"><ele>252.0</ele><time>2026-04-19T10:29:28Z</time></trkpt><trkpt lat="43.51482746915968" lon="11.777316577440013"><ele>252.0</ele><time>2026-04-19T10:29:29Z</time></trkpt><trkpt lat="43.514681015548945" lon="11.777503191773212"><ele>251.0</ele><time>2026-04-19T10:29:30Z</time></trkpt><trkpt lat="43.51453605386538" lon="11.777713694760433"><ele>250.0</ele><time>2026-04-19T10:29:31Z</time></trkpt><trkpt lat="43.51440050926736" lon="11.777934320849603"><ele>249.0</ele><time>2026-04-19T10:29:32Z</time></trkpt><trkpt lat="43.514269441181376" lon="11.778129255287299"><ele>249.0</ele><time>2026-04-19T10:29:33Z</time></trkpt><trkpt lat="43.51413026972263" lon="11.778309224645222"><ele>249.0</ele><time>2026-04-19T10:29:34Z</time></trkpt><trkpt lat="43.5139873077619" lon="11.778459134682677"><ele>249.0</ele><time>2026-04-19T10:29:35Z</time></trkpt><trkpt lat="43.51383003570352" lon="11.778574762017588"><ele>249.33333333333331</ele><time>2026-04-19T10:29:36Z</time></trkpt><trkpt lat="43.513653626298364" lon="11.77863080194889"><ele>249.66666666666666</ele><time>2026-04-19T10:29:37Z</time></trkpt><trkpt lat="43.513466241726384" lon="11.778712411833855"><ele>250.0</ele><time>2026-04-19T10:29:38Z</time></trkpt><trkpt lat="43.513282947357006" lon="11.778820671653346"><ele>250.0</ele><time>2026-04-19T10:29:39Z</time></trkpt><trkpt lat="43.51310161897952" lon="11.778949104253583"><ele>250.0</ele><time>2026-04-19T10:29:40Z</time></trkpt><trkpt lat="43.51292828328535" lon="11.779094223861254"><ele>250.0</ele><time>2026-04-19T10:29:41Z</time></trkpt><trkpt lat="43.512760418011254" lon="11.779247852497887"><ele>248.66666666666666</ele><time>2026-04-19T10:29:42Z</time></trkpt><trkpt lat="43.51260478025326" lon="11.77942411939305"><ele>247.33333333333331</ele><time>2026-04-19T10:29:43Z</time></trkpt><trkpt lat="43.512452386809564" lon="11.77960685813603"><ele>246.0</ele><time>2026-04-19T10:29:44Z</time></trkpt><trkpt lat="43.512299969912576" lon="11.779789452750748"><ele>246.0</ele><time>2026-04-19T10:29:45Z</time></trkpt><trkpt lat="43.51214402464658" lon="11.779969222140949"><ele>246.0</ele><time>2026-04-19T10:29:46Z</time></trkpt><trkpt lat="43.51199020459173" lon="11.780139611231714"><ele>246.0</ele><time>2026-04-19T10:29:47Z</time></trkpt><trkpt lat="43.511846297478044" lon="11.780297201216282"><ele>244.66666666666669</ele><time>2026-04-19T10:29:48Z</time></trkpt><trkpt lat="43.511694366325905" lon="11.780447690731583"><ele>243.33333333333334</ele><time>2026-04-19T10:29:49Z</time></trkpt><trkpt lat="43.511521774692575" lon="11.780619351956286"><ele>242.0</ele><time>2026-04-19T10:29:50Z</time></trkpt><trkpt lat="43.51134053591685" lon="11.780787746727789"><ele>241.33333333333334</ele><time>2026-04-19T10:29:51Z</time></trkpt><trkpt lat="43.511151370895725" lon="11.780953028004815"><ele>240.66666666666669</ele><time>2026-04-19T10:29:52Z</time></trkpt><trkpt lat="43.510962080305895" lon="11.781122106666361"><ele>240.0</ele><time>2026-04-19T10:29:53Z</time></trkpt><trkpt lat="43.510783909507204" lon="11.78127110385927"><ele>239.66666666666669</ele><time>2026-04-19T10:29:54Z</time></trkpt><trkpt lat="43.51061132803677" lon="11.781426352837089"><ele>239.33333333333334</ele><time>2026-04-19T10:29:55Z</time></trkpt><trkpt lat="43.51043455135101" lon="11.781580002403778"><ele>239.0</ele><time>2026-04-19T10:29:56Z</time></trkpt><trkpt lat="43.51027180454347" lon="11.781720994274313"><ele>239.33333333333334</ele><time>2026-04-19T10:29:57Z</time></trkpt><trkpt lat="43.51009325401193" lon="11.781867539513737"><ele>239.66666666666669</ele><time>2026-04-19T10:29:58Z</time></trkpt><trkpt lat="43.50993064115346" lon="11.782011108407959"><ele>240.0</ele><time>2026-04-19T10:29:59Z</time></trkpt><trkpt lat="43.5097761277036" lon="11.782156252409482"><ele>240.0</ele><time>2026-04-19T10:30:00Z</time></trkpt><trkpt lat="43.50963185653872" lon="11.782309407647116"><ele>240.0</ele><time>2026-04-19T10:30:01Z</time></trkpt><trkpt lat="43.50950534034447" lon="11.782513571904783"><ele>240.0</ele><time>2026-04-19T10:30:02Z</time></trkpt><trkpt lat="43.50939076435448" lon="11.782738047704616"><ele>239.0</ele><time>2026-04-19T10:30:03Z</time></trkpt><trkpt lat="43.50928281036088" lon="11.782984820061381"><ele>238.0</ele><time>2026-04-19T10:30:04Z</time></trkpt><trkpt lat="43.50917033746858" lon="11.783229372009075"><ele>237.0</ele><time>2026-04-19T10:30:05Z</time></trkpt><trkpt lat="43.509046985357614" lon="11.783467953509305"><ele>237.33333333333331</ele><time>2026-04-19T10:30:06Z</time></trkpt><trkpt lat="43.50892562133468" lon="11.783710386802564"><ele>237.66666666666666</ele><time>2026-04-19T10:30:07Z</time></trkpt><trkpt lat="43.50880444075438" lon="11.783950661351007"><ele>238.0</ele><time>2026-04-19T10:30:08Z</time></trkpt><trkpt lat="43.50867267613932" lon="11.784180995217392"><ele>238.33333333333331</ele><time>2026-04-19T10:30:09Z</time></trkpt><trkpt lat="43.50852862871988" lon="11.784391165336288"><ele>238.66666666666669</ele><time>2026-04-19T10:30:10Z</time></trkpt><trkpt lat="43.508375233494185" lon="11.784588845300762"><ele>239.0</ele><time>2026-04-19T10:30:11Z</time></trkpt><trkpt lat="43.508221326457004" lon="11.784779551537449"><ele>239.0</ele><time>2026-04-19T10:30:12Z</time></trkpt><trkpt lat="43.50806862937187" lon="11.78497270535231"><ele>239.0</ele><time>2026-04-19T10:30:13Z</time></trkpt><trkpt lat="43.507915443799526" lon="11.785177261475761"><ele>239.0</ele><time>2026-04-19T10:30:14Z</time></trkpt><trkpt lat="43.50776430520191" lon="11.785376160796575"><ele>238.66666666666669</ele><time>2026-04-19T10:30:15Z</time></trkpt><trkpt lat="43.50760693685126" lon="11.785579757944523"><ele>238.33333333333331</ele><time>2026-04-19T10:30:16Z</time></trkpt><trkpt lat="43.50744697946146" lon="11.78578328752634"><ele>238.0</ele><time>2026-04-19T10:30:17Z</time></trkpt><trkpt lat="43.50728663136346" lon="11.785997301498247"><ele>238.0</ele><time>2026-04-19T10:30:18Z</time></trkpt><trkpt lat="43.50712664503912" lon="11.786208616258445"><ele>238.0</ele><time>2026-04-19T10:30:19Z</time></trkpt><trkpt lat="43.50696848941685" lon="11.786428994543062"><ele>238.0</ele><time>2026-04-19T10:30:20Z</time></trkpt><trkpt lat="43.50680691182968" lon="11.786639994634992"><ele>236.0</ele><time>2026-04-19T10:30:21Z</time></trkpt><trkpt lat="43.50664030604021" lon="11.78685740775159"><ele>234.0</ele><time>2026-04-19T10:30:22Z</time></trkpt><trkpt lat="43.506474845230414" lon="11.787074590882126"><ele>234.0</ele><time>2026-04-19T10:30:23Z</time></trkpt><trkpt lat="43.50630780789095" lon="11.787293935791812"><ele>234.0</ele><time>2026-04-19T10:30:24Z</time></trkpt><trkpt lat="43.506152905822404" lon="11.787506747506367"><ele>234.0</ele><time>2026-04-19T10:30:25Z</time></trkpt><trkpt lat="43.50600877587081" lon="11.787710949864973"><ele>234.0</ele><time>2026-04-19T10:30:26Z</time></trkpt><trkpt lat="43.505881841772215" lon="11.787889853474121"><ele>234.0</ele><time>2026-04-19T10:30:27Z</time></trkpt><trkpt lat="43.50572926077747" lon="11.788066468458833"><ele>234.0</ele><time>2026-04-19T10:30:28Z</time></trkpt><trkpt lat="43.505607288568754" lon="11.788219480215236"><ele>234.0</ele><time>2026-04-19T10:30:29Z</time></trkpt><trkpt lat="43.50550190125272" lon="11.788360997581183"><ele>234.0</ele><time>2026-04-19T10:30:30Z</time></trkpt><trkpt lat="43.50541870015395" lon="11.788519028937408"><ele>234.0</ele><time>2026-04-19T10:30:31Z</time></trkpt><trkpt lat="43.50534209029424" lon="11.788662777076102"><ele>234.0</ele><time>2026-04-19T10:30:32Z</time></trkpt><trkpt lat="43.50529735096308" lon="11.788863248375762"><ele>228.0</ele><time>2026-04-19T10:30:33Z</time></trkpt><trkpt lat="43.505286591358114" lon="11.789092563686284"><ele>222.0</ele><time>2026-04-19T10:30:34Z</time></trkpt><trkpt lat="43.505306228042336" lon="11.78934092241645"><ele>216.0</ele><time>2026-04-19T10:30:35Z</time></trkpt><trkpt lat="43.505337902005024" lon="11.789583253059629"><ele>216.0</ele><time>2026-04-19T10:30:36Z</time></trkpt><trkpt lat="43.505371849315814" lon="11.789816544758528"><ele>216.0</ele><time>2026-04-19T10:30:37Z</time></trkpt><trkpt lat="43.505425044142214" lon="11.790030911689056"><ele>216.0</ele><time>2026-04-19T10:30:38Z</time></trkpt><trkpt lat="43.505511398156045" lon="11.79021776776164"><ele>218.0</ele><time>2026-04-19T10:30:39Z</time></trkpt><trkpt lat="43.50563331889602" lon="11.79039521431733"><ele>220.0</ele><time>2026-04-19T10:30:40Z</time></trkpt><trkpt lat="43.50577400623649" lon="11.790585341287043"><ele>222.0</ele><time>2026-04-19T10:30:41Z</time></trkpt><trkpt lat="43.50592116225383" lon="11.790790482688951"><ele>222.0</ele><time>2026-04-19T10:30:42Z</time></trkpt><trkpt lat="43.50606269519277" lon="11.791003753525944"><ele>222.0</ele><time>2026-04-19T10:30:43Z</time></trkpt><trkpt lat="43.506199666298464" lon="11.791205383023751"><ele>222.0</ele><time>2026-04-19T10:30:44Z</time></trkpt><trkpt lat="43.50633549097031" lon="11.7913989206641"><ele>221.0</ele><time>2026-04-19T10:30:45Z</time></trkpt><trkpt lat="43.50646631820426" lon="11.791579152491078"><ele>220.0</ele><time>2026-04-19T10:30:46Z</time></trkpt><trkpt lat="43.50659437116089" lon="11.791760272066474"><ele>219.0</ele><time>2026-04-19T10:30:47Z</time></trkpt><trkpt lat="43.506714556349515" lon="11.791932772545367"><ele>216.0</ele><time>2026-04-19T10:30:48Z</time></trkpt><trkpt lat="43.506828438194155" lon="11.792102376961681"><ele>213.0</ele><time>2026-04-19T10:30:49Z</time></trkpt><trkpt lat="43.5069317170187" lon="11.792265320089536"><ele>210.0</ele><time>2026-04-19T10:30:50Z</time></trkpt><trkpt lat="43.50701254667597" lon="11.792437660251451"><ele>210.0</ele><time>2026-04-19T10:30:51Z</time></trkpt><trkpt lat="43.507064527718995" lon="11.792631167006382"><ele>210.0</ele><time>2026-04-19T10:30:52Z</time></trkpt><trkpt lat="43.50708667822202" lon="11.79282910329391"><ele>210.0</ele><time>2026-04-19T10:30:53Z</time></trkpt><trkpt lat="43.50708311360705" lon="11.793029328646075"><ele>210.0</ele><time>2026-04-19T10:30:54Z</time></trkpt><trkpt lat="43.50706049083884" lon="11.79324140342557"><ele>209.25</ele><time>2026-04-19T10:30:55Z</time></trkpt><trkpt lat="43.507032102666884" lon="11.79345564095317"><ele>208.5</ele><time>2026-04-19T10:30:56Z</time></trkpt><trkpt lat="43.507010933069395" lon="11.793657898722245"><ele>207.75</ele><time>2026-04-19T10:30:57Z</time></trkpt><trkpt lat="43.506988264664386" lon="11.793849166479834"><ele>207.0</ele><time>2026-04-19T10:30:58Z</time></trkpt><trkpt lat="43.506947455216505" lon="11.794026487458641"><ele>206.8</ele><time>2026-04-19T10:30:59Z</time></trkpt><trkpt lat="43.50688588140492" lon="11.794184869862251"><ele>206.6</ele><time>2026-04-19T10:31:00Z</time></trkpt><trkpt lat="43.506829600141764" lon="11.794323880295876"><ele>206.4</ele><time>2026-04-19T10:31:01Z</time></trkpt><trkpt lat="43.506792469772925" lon="11.794446822669915"><ele>206.20000000000002</ele><time>2026-04-19T10:31:02Z</time></trkpt><trkpt lat="43.50677889615084" lon="11.794560294109878"><ele>206.0</ele><time>2026-04-19T10:31:03Z</time></trkpt><trkpt lat="43.50679843705009" lon="11.794676619067321"><ele>206.0</ele><time>2026-04-19T10:31:04Z</time></trkpt><trkpt lat="43.50684788956816" lon="11.794765762968737"><ele>206.0</ele><time>2026-04-19T10:31:05Z</time></trkpt><trkpt lat="43.50687492109455" lon="11.794882224002293"><ele>206.0</ele><time>2026-04-19T10:31:06Z</time></trkpt><trkpt lat="43.506901521060215" lon="11.795040541901214"><ele>206.0</ele><time>2026-04-19T10:31:07Z</time></trkpt><trkpt lat="43.5069128212201" lon="11.795246060996947"><ele>206.0</ele><time>2026-04-19T10:31:08Z</time></trkpt><trkpt lat="43.50692115202807" lon="11.795485149468355"><ele>206.0</ele><time>2026-04-19T10:31:09Z</time></trkpt><trkpt lat="43.50692601094946" lon="11.79573591556307"><ele>206.0</ele><time>2026-04-19T10:31:10Z</time></trkpt><trkpt lat="43.5069334589038" lon="11.795994177608481"><ele>206.0</ele><time>2026-04-19T10:31:11Z</time></trkpt><trkpt lat="43.50694717806236" lon="11.796243796704399"><ele>206.0</ele><time>2026-04-19T10:31:12Z</time></trkpt><trkpt lat="43.50695909256648" lon="11.79647323047185"><ele>206.0</ele><time>2026-04-19T10:31:13Z</time></trkpt><trkpt lat="43.50696754045859" lon="11.796687436319298"><ele>206.0</ele><time>2026-04-19T10:31:14Z</time></trkpt><trkpt lat="43.50697815064647" lon="11.796890801493927"><ele>206.5</ele><time>2026-04-19T10:31:15Z</time></trkpt><trkpt lat="43.50698391455759" lon="11.797086678564549"><ele>207.0</ele><time>2026-04-19T10:31:16Z</time></trkpt><trkpt lat="43.50699211309106" lon="11.797273733473341"><ele>207.5</ele><time>2026-04-19T10:31:17.001Z</time></trkpt><trkpt lat="43.50699966551107" lon="11.797450852717729"><ele>208.0</ele><time>2026-04-19T10:31:18.001Z</time></trkpt><trkpt lat="43.50700825283394" lon="11.797616667841089"><ele>207.83333333333331</ele><time>2026-04-19T10:31:19.001Z</time></trkpt><trkpt lat="43.50701478742494" lon="11.797755686928527"><ele>207.66666666666666</ele><time>2026-04-19T10:31:20.001Z</time></trkpt><trkpt lat="43.507019824577135" lon="11.797872718853124"><ele>207.5</ele><time>2026-04-19T10:31:21.001Z</time></trkpt><trkpt lat="43.50702329423988" lon="11.797960683980056"><ele>207.33333333333331</ele><time>2026-04-19T10:31:22.001Z</time></trkpt><trkpt lat="43.5070243624983" lon="11.798059820251733"><ele>207.16666666666666</ele><time>2026-04-19T10:31:25.001Z</time></trkpt><trkpt lat="43.507056544282115" lon="11.798193046558957"><ele>207.0</ele><time>2026-04-19T10:31:46Z</time></trkpt><trkpt lat="43.50712014671409" lon="11.798258595864505"><ele>207.0</ele><time>2026-04-19T10:31:48Z</time></trkpt><trkpt lat="43.507199415905" lon="11.798328140091613"><ele>207.0</ele><time>2026-04-19T10:31:58Z</time></trkpt><trkpt lat="43.50733141820003" lon="11.798314080349472"><ele>207.0</ele><time>2026-04-19T10:32:00Z</time></trkpt><trkpt lat="43.50742067219656" lon="11.798255510045738"><ele>207.0</ele><time>2026-04-19T10:32:01Z</time></trkpt><trkpt lat="43.50752219530776" lon="11.798192903542734"><ele>207.0</ele><time>2026-04-19T10:32:02Z</time></trkpt><trkpt lat="43.507631346007926" lon="11.798144034992813"><ele>207.0</ele><time>2026-04-19T10:32:03Z</time></trkpt><trkpt lat="43.507745001676234" lon="11.798111322479086"><ele>207.0</ele><time>2026-04-19T10:32:04Z</time></trkpt><trkpt lat="43.507861912158525" lon="11.798105141819471"><ele>207.0</ele><time>2026-04-19T10:32:05Z</time></trkpt><trkpt lat="43.507986326873244" lon="11.79812094946599"><ele>207.0</ele><time>2026-04-19T10:32:06Z</time></trkpt><trkpt lat="43.50811633676945" lon="11.79816524685476"><ele>207.25</ele><time>2026-04-19T10:32:07Z</time></trkpt><trkpt lat="43.50825192274263" lon="11.798236051528804"><ele>207.5</ele><time>2026-04-19T10:32:08Z</time></trkpt><trkpt lat="43.5083861877502" lon="11.798317649958248"><ele>207.75</ele><time>2026-04-19T10:32:09Z</time></trkpt><trkpt lat="43.508517973281016" lon="11.798403919894936"><ele>208.0</ele><time>2026-04-19T10:32:10Z</time></trkpt><trkpt lat="43.50864170783174" lon="11.798499573482728"><ele>208.33333333333331</ele><time>2026-04-19T10:32:11Z</time></trkpt><trkpt lat="43.50875645054904" lon="11.798613575158798"><ele>208.66666666666669</ele><time>2026-04-19T10:32:12Z</time></trkpt><trkpt lat="43.50886531922494" lon="11.798754419323426"><ele>209.0</ele><time>2026-04-19T10:32:13Z</time></trkpt><trkpt lat="43.50897354072473" lon="11.798931360196118"><ele>209.0</ele><time>2026-04-19T10:32:14Z</time></trkpt><trkpt lat="43.50909231604975" lon="11.799122251380853"><ele>209.0</ele><time>2026-04-19T10:32:15Z</time></trkpt><trkpt lat="43.50921741816689" lon="11.79932100212229"><ele>209.0</ele><time>2026-04-19T10:32:16Z</time></trkpt><trkpt lat="43.50934079389767" lon="11.799516800094855"><ele>209.66666666666669</ele><time>2026-04-19T10:32:17Z</time></trkpt><trkpt lat="43.50946458215282" lon="11.799710986064216"><ele>210.33333333333331</ele><time>2026-04-19T10:32:18Z</time></trkpt><trkpt lat="43.50957947184886" lon="11.79993009438131"><ele>211.0</ele><time>2026-04-19T10:32:19Z</time></trkpt><trkpt lat="43.509713839136694" lon="11.800127563531813"><ele>210.66666666666666</ele><time>2026-04-19T10:32:20Z</time></trkpt><trkpt lat="43.50985368457221" lon="11.800314373030615"><ele>210.33333333333331</ele><time>2026-04-19T10:32:21Z</time></trkpt><trkpt lat="43.509972301883934" lon="11.800492469171994"><ele>210.0</ele><time>2026-04-19T10:32:22Z</time></trkpt><trkpt lat="43.51007452803431" lon="11.800687007841322"><ele>210.0</ele><time>2026-04-19T10:32:23Z</time></trkpt><trkpt lat="43.510159766907385" lon="11.800894895900882"><ele>210.0</ele><time>2026-04-19T10:32:24Z</time></trkpt><trkpt lat="43.510240860838174" lon="11.801106161796667"><ele>210.0</ele><time>2026-04-19T10:32:25Z</time></trkpt><trkpt lat="43.51030211146042" lon="11.801297567521205"><ele>209.75</ele><time>2026-04-19T10:32:26Z</time></trkpt><trkpt lat="43.51035075595787" lon="11.801483459976604"><ele>209.5</ele><time>2026-04-19T10:32:27Z</time></trkpt><trkpt lat="43.51034474892634" lon="11.801669846780566"><ele>209.25</ele><time>2026-04-19T10:32:28Z</time></trkpt><trkpt lat="43.51029601960352" lon="11.801840144067297"><ele>209.0</ele><time>2026-04-19T10:32:29Z</time></trkpt><trkpt lat="43.51025339727243" lon="11.802051699229427"><ele>208.33333333333334</ele><time>2026-04-19T10:32:30Z</time></trkpt><trkpt lat="43.510195299571635" lon="11.80225216424255"><ele>207.66666666666669</ele><time>2026-04-19T10:32:31Z</time></trkpt><trkpt lat="43.51017796608416" lon="11.802454232931286"><ele>207.0</ele><time>2026-04-19T10:32:32Z</time></trkpt><trkpt lat="43.51023338582221" lon="11.802681213286409"><ele>207.0</ele><time>2026-04-19T10:32:33Z</time></trkpt><trkpt lat="43.510281337627426" lon="11.80293401978144"><ele>207.0</ele><time>2026-04-19T10:32:34Z</time></trkpt><trkpt lat="43.510347853901095" lon="11.803194916693796"><ele>207.0</ele><time>2026-04-19T10:32:35Z</time></trkpt><trkpt lat="43.51040685347762" lon="11.803431289958178"><ele>208.33333333333331</ele><time>2026-04-19T10:32:36Z</time></trkpt><trkpt lat="43.51045248783628" lon="11.803653184496028"><ele>209.66666666666666</ele><time>2026-04-19T10:32:37Z</time></trkpt><trkpt lat="43.51049729777261" lon="11.803884946788765"><ele>211.0</ele><time>2026-04-19T10:32:38Z</time></trkpt><trkpt lat="43.51052917817645" lon="11.804097309106561"><ele>211.0</ele><time>2026-04-19T10:32:39Z</time></trkpt><trkpt lat="43.510546881856385" lon="11.804299047954057"><ele>211.0</ele><time>2026-04-19T10:32:40Z</time></trkpt><trkpt lat="43.51054269530716" lon="11.80449978504003"><ele>211.0</ele><time>2026-04-19T10:32:41Z</time></trkpt><trkpt lat="43.51054137870509" lon="11.804717914482778"><ele>211.33333333333331</ele><time>2026-04-19T10:32:42Z</time></trkpt><trkpt lat="43.510539126015296" lon="11.804942224811288"><ele>211.66666666666669</ele><time>2026-04-19T10:32:43Z</time></trkpt><trkpt lat="43.51054471572869" lon="11.805173009069124"><ele>212.0</ele><time>2026-04-19T10:32:44Z</time></trkpt><trkpt lat="43.51057261674977" lon="11.805403950763878"><ele>210.66666666666669</ele><time>2026-04-19T10:32:45Z</time></trkpt><trkpt lat="43.510623299695354" lon="11.805634087711178"><ele>209.33333333333331</ele><time>2026-04-19T10:32:46Z</time></trkpt><trkpt lat="43.51069897641541" lon="11.805856334148876"><ele>208.0</ele><time>2026-04-19T10:32:47Z</time></trkpt><trkpt lat="43.51078279085522" lon="11.80606333742515"><ele>207.33333333333331</ele><time>2026-04-19T10:32:48Z</time></trkpt><trkpt lat="43.51084363403156" lon="11.806263625246562"><ele>206.66666666666669</ele><time>2026-04-19T10:32:49Z</time></trkpt><trkpt lat="43.510867053430424" lon="11.806473413476485"><ele>206.0</ele><time>2026-04-19T10:32:50Z</time></trkpt><trkpt lat="43.510870926792805" lon="11.806695166037558"><ele>206.0</ele><time>2026-04-19T10:32:51Z</time></trkpt><trkpt lat="43.51086810599815" lon="11.806921295256975"><ele>206.0</ele><time>2026-04-19T10:32:52Z</time></trkpt><trkpt lat="43.51086480176638" lon="11.807142726885251"><ele>206.0</ele><time>2026-04-19T10:32:53Z</time></trkpt><trkpt lat="43.51086392720752" lon="11.807349145583578"><ele>206.0</ele><time>2026-04-19T10:32:54Z</time></trkpt><trkpt lat="43.51085697068131" lon="11.807543269709459"><ele>206.0</ele><time>2026-04-19T10:32:55Z</time></trkpt><trkpt lat="43.510848768015535" lon="11.807721227295778"><ele>206.0</ele><time>2026-04-19T10:32:56Z</time></trkpt><trkpt lat="43.51085969936829" lon="11.807894048897392"><ele>206.0</ele><time>2026-04-19T10:32:57Z</time></trkpt><trkpt lat="43.510904423377106" lon="11.808073465407936"><ele>206.66666666666669</ele><time>2026-04-19T10:32:58Z</time></trkpt><trkpt lat="43.51096437929795" lon="11.808255264156925"><ele>207.33333333333331</ele><time>2026-04-19T10:32:59Z</time></trkpt><trkpt lat="43.51103529684972" lon="11.808439838980405"><ele>208.0</ele><time>2026-04-19T10:33:00Z</time></trkpt><trkpt lat="43.51111100902969" lon="11.808636132548102"><ele>208.25</ele><time>2026-04-19T10:33:01Z</time></trkpt><trkpt lat="43.51117801404893" lon="11.80882472195107"><ele>208.5</ele><time>2026-04-19T10:33:02Z</time></trkpt><trkpt lat="43.51124216559116" lon="11.809010193181406"><ele>208.75</ele><time>2026-04-19T10:33:03Z</time></trkpt><trkpt lat="43.51130341799775" lon="11.80918589753117"><ele>209.0</ele><time>2026-04-19T10:33:04Z</time></trkpt><trkpt lat="43.51136586155082" lon="11.8093686739863"><ele>209.0</ele><time>2026-04-19T10:33:05Z</time></trkpt><trkpt lat="43.511443931801" lon="11.809556112975478"><ele>209.0</ele><time>2026-04-19T10:33:06Z</time></trkpt><trkpt lat="43.51155034715525" lon="11.809758533035653"><ele>209.0</ele><time>2026-04-19T10:33:07Z</time></trkpt><trkpt lat="43.51166749417492" lon="11.80994816713981"><ele>209.0</ele><time>2026-04-19T10:33:08Z</time></trkpt><trkpt lat="43.51178456874903" lon="11.81015181716736"><ele>209.0</ele><time>2026-04-19T10:33:09Z</time></trkpt><trkpt lat="43.511896792863915" lon="11.81035712850454"><ele>209.0</ele><time>2026-04-19T10:33:10Z</time></trkpt><trkpt lat="43.51201353950352" lon="11.81056400738189"><ele>209.33333333333334</ele><time>2026-04-19T10:33:11Z</time></trkpt><trkpt lat="43.512120960871584" lon="11.810764359475733"><ele>209.66666666666669</ele><time>2026-04-19T10:33:12Z</time></trkpt><trkpt lat="43.51223217597267" lon="11.810971244813443"><ele>210.0</ele><time>2026-04-19T10:33:13Z</time></trkpt><trkpt lat="43.51234655783906" lon="11.811181118293499"><ele>210.0</ele><time>2026-04-19T10:33:14Z</time></trkpt><trkpt lat="43.51246281364866" lon="11.811395176016003"><ele>210.0</ele><time>2026-04-19T10:33:15Z</time></trkpt><trkpt lat="43.512576105418155" lon="11.811605665535957"><ele>210.0</ele><time>2026-04-19T10:33:16Z</time></trkpt><trkpt lat="43.51268305525277" lon="11.81180338627771"><ele>209.33333333333331</ele><time>2026-04-19T10:33:17Z</time></trkpt><trkpt lat="43.51278338372091" lon="11.811989312964414"><ele>208.66666666666666</ele><time>2026-04-19T10:33:18Z</time></trkpt><trkpt lat="43.51288507439287" lon="11.812155566382629"><ele>208.0</ele><time>2026-04-19T10:33:19Z</time></trkpt><trkpt lat="43.512999191963736" lon="11.812311598084463"><ele>208.33333333333331</ele><time>2026-04-19T10:33:20Z</time></trkpt><trkpt lat="43.513144862890904" lon="11.812461979541983"><ele>208.66666666666669</ele><time>2026-04-19T10:33:21Z</time></trkpt><trkpt lat="43.51331337956485" lon="11.812605178585486"><ele>209.0</ele><time>2026-04-19T10:33:22Z</time></trkpt><trkpt lat="43.51348954611743" lon="11.812754757131563"><ele>209.0</ele><time>2026-04-19T10:33:23Z</time></trkpt><trkpt lat="43.51367750103075" lon="11.812916205904854"><ele>209.0</ele><time>2026-04-19T10:33:24Z</time></trkpt><trkpt lat="43.5138630844215" lon="11.813082481338329"><ele>209.0</ele><time>2026-04-19T10:33:25Z</time></trkpt><trkpt lat="43.5140464124155" lon="11.81324923638828"><ele>209.66666666666669</ele><time>2026-04-19T10:33:26.001Z</time></trkpt><trkpt lat="43.51422712046048" lon="11.813415286230923"><ele>210.33333333333331</ele><time>2026-04-19T10:33:27.001Z</time></trkpt><trkpt lat="43.51440665053057" lon="11.81357829299423"><ele>211.0</ele><time>2026-04-19T10:33:28.001Z</time></trkpt><trkpt lat="43.51458540822414" lon="11.8137396682702"><ele>214.66666666666666</ele><time>2026-04-19T10:33:29.001Z</time></trkpt><trkpt lat="43.51475586744268" lon="11.813894837338287"><ele>218.33333333333331</ele><time>2026-04-19T10:33:30.001Z</time></trkpt><trkpt lat="43.51491217325316" lon="11.814038118072984"><ele>222.0</ele><time>2026-04-19T10:33:31.001Z</time></trkpt><trkpt lat="43.515061434965745" lon="11.814175896415827"><ele>222.0</ele><time>2026-04-19T10:33:32.001Z</time></trkpt><trkpt lat="43.515209700471694" lon="11.814312102126953"><ele>222.0</ele><time>2026-04-19T10:33:33.001Z</time></trkpt><trkpt lat="43.51534656392275" lon="11.81443724212323"><ele>222.0</ele><time>2026-04-19T10:33:34.001Z</time></trkpt><trkpt lat="43.51547826163813" lon="11.814556716444635"><ele>221.75</ele><time>2026-04-19T10:33:35Z</time></trkpt><trkpt lat="43.5155927528776" lon="11.814680746859507"><ele>221.5</ele><time>2026-04-19T10:33:36Z</time></trkpt><trkpt lat="43.515686809871184" lon="11.814816719696065"><ele>221.25</ele><time>2026-04-19T10:33:37Z</time></trkpt><trkpt lat="43.515768656631515" lon="11.814972636587566"><ele>221.0</ele><time>2026-04-19T10:33:38Z</time></trkpt><trkpt lat="43.51582940097249" lon="11.815173884660098"><ele>221.0</ele><time>2026-04-19T10:33:39Z</time></trkpt><trkpt lat="43.515924159009785" lon="11.815375193900879"><ele>221.0</ele><time>2026-04-19T10:33:40Z</time></trkpt><trkpt lat="43.51599805442095" lon="11.815595523351657"><ele>221.0</ele><time>2026-04-19T10:33:41Z</time></trkpt><trkpt lat="43.51608238452603" lon="11.815814165459463"><ele>219.33333333333334</ele><time>2026-04-19T10:33:42Z</time></trkpt><trkpt lat="43.516164225676214" lon="11.81603718489863"><ele>217.66666666666669</ele><time>2026-04-19T10:33:43Z</time></trkpt><trkpt lat="43.516234721790646" lon="11.81626711044711"><ele>216.0</ele><time>2026-04-19T10:33:44Z</time></trkpt><trkpt lat="43.51628976475437" lon="11.816505714793445"><ele>221.0</ele><time>2026-04-19T10:33:45Z</time></trkpt><trkpt lat="43.516331642341775" lon="11.816744620568823"><ele>226.0</ele><time>2026-04-19T10:33:46Z</time></trkpt><trkpt lat="43.516376210042026" lon="11.816978690902758"><ele>231.0</ele><time>2026-04-19T10:33:47Z</time></trkpt><trkpt lat="43.516427782933484" lon="11.817211308182436"><ele>231.0</ele><time>2026-04-19T10:33:48Z</time></trkpt><trkpt lat="43.516497873016974" lon="11.817456213211887"><ele>231.0</ele><time>2026-04-19T10:33:49Z</time></trkpt><trkpt lat="43.51654614455781" lon="11.817695033156163"><ele>231.0</ele><time>2026-04-19T10:33:50Z</time></trkpt><trkpt lat="43.51659922353055" lon="11.817945349142262"><ele>228.66666666666669</ele><time>2026-04-19T10:33:51Z</time></trkpt><trkpt lat="43.51666071548696" lon="11.818206016538877"><ele>226.33333333333334</ele><time>2026-04-19T10:33:52Z</time></trkpt><trkpt lat="43.516725104152535" lon="11.818479450170287"><ele>224.0</ele><time>2026-04-19T10:33:53Z</time></trkpt><trkpt lat="43.516796305593886" lon="11.818755737748466"><ele>220.33333333333334</ele><time>2026-04-19T10:33:54Z</time></trkpt><trkpt lat="43.5168688745539" lon="11.819030617095319"><ele>216.66666666666669</ele><time>2026-04-19T10:33:55Z</time></trkpt><trkpt lat="43.51694092010147" lon="11.819306377740007"><ele>213.0</ele><time>2026-04-19T10:33:56Z</time></trkpt><trkpt lat="43.51700989020966" lon="11.819579139695188"><ele>213.33333333333331</ele><time>2026-04-19T10:33:57Z</time></trkpt><trkpt lat="43.51706887378517" lon="11.81983378888092"><ele>213.66666666666666</ele><time>2026-04-19T10:33:58Z</time></trkpt><trkpt lat="43.517126431558005" lon="11.820079232455548"><ele>214.0</ele><time>2026-04-19T10:33:59Z</time></trkpt><trkpt lat="43.5171829315943" lon="11.820329560264069"><ele>212.66666666666666</ele><time>2026-04-19T10:34:00Z</time></trkpt><trkpt lat="43.51723937393363" lon="11.820582958664904"><ele>211.33333333333331</ele><time>2026-04-19T10:34:01Z</time></trkpt><trkpt lat="43.51729204415243" lon="11.820821034479707"><ele>210.0</ele><time>2026-04-19T10:34:02Z</time></trkpt><trkpt lat="43.517339632593355" lon="11.821042207357484"><ele>210.0</ele><time>2026-04-19T10:34:03Z</time></trkpt><trkpt lat="43.51738131499552" lon="11.821229471137515"><ele>210.0</ele><time>2026-04-19T10:34:04Z</time></trkpt><trkpt lat="43.517422931785624" lon="11.821404709169618"><ele>210.0</ele><time>2026-04-19T10:34:05Z</time></trkpt><trkpt lat="43.517464324098036" lon="11.821547804739534"><ele>210.0</ele><time>2026-04-19T10:34:06Z</time></trkpt><trkpt lat="43.51751617325047" lon="11.82166862297244"><ele>210.0</ele><time>2026-04-19T10:34:07Z</time></trkpt><trkpt lat="43.51759386087545" lon="11.82176253126407"><ele>210.0</ele><time>2026-04-19T10:34:08Z</time></trkpt><trkpt lat="43.51769442044595" lon="11.821820514604546"><ele>210.0</ele><time>2026-04-19T10:34:09Z</time></trkpt><trkpt lat="43.517816735039645" lon="11.821842731508848"><ele>210.0</ele><time>2026-04-19T10:34:10Z</time></trkpt><trkpt lat="43.51796269163286" lon="11.821858658960915"><ele>211.0</ele><time>2026-04-19T10:34:11Z</time></trkpt><trkpt lat="43.518125446767854" lon="11.821871987424407"><ele>212.0</ele><time>2026-04-19T10:34:12Z</time></trkpt><trkpt lat="43.518292851869234" lon="11.821879624530974"><ele>213.0</ele><time>2026-04-19T10:34:13Z</time></trkpt><trkpt lat="43.51844991866509" lon="11.821888956551412"><ele>213.0</ele><time>2026-04-19T10:34:14Z</time></trkpt><trkpt lat="43.51859135695692" lon="11.821880091984927"><ele>213.0</ele><time>2026-04-19T10:34:15Z</time></trkpt><trkpt lat="43.518745020929046" lon="11.821866992698727"><ele>213.0</ele><time>2026-04-19T10:34:16Z</time></trkpt><trkpt lat="43.51890397986686" lon="11.821855729806778"><ele>213.33333333333331</ele><time>2026-04-19T10:34:17Z</time></trkpt><trkpt lat="43.519061335274884" lon="11.821866451407335"><ele>213.66666666666666</ele><time>2026-04-19T10:34:18Z</time></trkpt><trkpt lat="43.519222909227196" lon="11.821900834136507"><ele>214.0</ele><time>2026-04-19T10:34:19Z</time></trkpt><trkpt lat="43.519392202655894" lon="11.821948708446735"><ele>214.0</ele><time>2026-04-19T10:34:20Z</time></trkpt><trkpt lat="43.519556972879755" lon="11.822005988210167"><ele>214.0</ele><time>2026-04-19T10:34:21Z</time></trkpt><trkpt lat="43.51970701091797" lon="11.822053230016298"><ele>214.0</ele><time>2026-04-19T10:34:22Z</time></trkpt><trkpt lat="43.51983336078956" lon="11.822073884832557"><ele>214.6</ele><time>2026-04-19T10:34:23Z</time></trkpt><trkpt lat="43.51996213816497" lon="11.822111106056461"><ele>215.2</ele><time>2026-04-19T10:34:24Z</time></trkpt><trkpt lat="43.52006826417212" lon="11.822138988758384"><ele>215.79999999999998</ele><time>2026-04-19T10:34:25Z</time></trkpt><trkpt lat="43.52015491504008" lon="11.822164165693227"><ele>216.39999999999998</ele><time>2026-04-19T10:34:26Z</time></trkpt><trkpt lat="43.52022210038378" lon="11.822189306889314"><ele>217.0</ele><time>2026-04-19T10:34:27Z</time></trkpt><trkpt lat="43.520302594023995" lon="11.82221083407617"><ele>216.99999999999997</ele><time>2026-04-19T10:34:29Z</time></trkpt><trkpt lat="43.520383735485254" lon="11.822229453259732"><ele>217.0</ele><time>2026-04-19T10:34:32Z</time></trkpt><trkpt lat="43.5204794995309" lon="11.822256750660602"><ele>217.0</ele><time>2026-04-19T10:34:34Z</time></trkpt><trkpt lat="43.52055480355918" lon="11.822383812580005"><ele>217.0</ele><time>2026-04-19T10:34:36Z</time></trkpt><trkpt lat="43.52055901787049" lon="11.82247407770137"><ele>216.99999999999997</ele><time>2026-04-19T10:34:37Z</time></trkpt><trkpt lat="43.52054597013213" lon="11.822589571552678"><ele>217.0</ele><time>2026-04-19T10:34:38Z</time></trkpt><trkpt lat="43.52052615418339" lon="11.822739699234944"><ele>217.0</ele><time>2026-04-19T10:34:39Z</time></trkpt><trkpt lat="43.520508587263876" lon="11.822900785920618"><ele>217.0</ele><time>2026-04-19T10:34:40Z</time></trkpt><trkpt lat="43.520486389894984" lon="11.823070579726894"><ele>217.0</ele><time>2026-04-19T10:34:41Z</time></trkpt><trkpt lat="43.520463052691355" lon="11.823221814449235"><ele>217.0</ele><time>2026-04-19T10:34:42Z</time></trkpt><trkpt lat="43.520433516523696" lon="11.82337456381237"><ele>216.5</ele><time>2026-04-19T10:34:43Z</time></trkpt><trkpt lat="43.520387002936324" lon="11.823553006375171"><ele>216.0</ele><time>2026-04-19T10:34:44Z</time></trkpt><trkpt lat="43.52033360105517" lon="11.823736764768215"><ele>215.5</ele><time>2026-04-19T10:34:45Z</time></trkpt><trkpt lat="43.52028528524453" lon="11.82391943741754"><ele>215.0</ele><time>2026-04-19T10:34:46Z</time></trkpt><trkpt lat="43.52022818830479" lon="11.824103202208768"><ele>215.0</ele><time>2026-04-19T10:34:47Z</time></trkpt><trkpt lat="43.52017086366096" lon="11.824271318669718"><ele>215.0</ele><time>2026-04-19T10:34:48Z</time></trkpt><trkpt lat="43.52012431451016" lon="11.82441340155502"><ele>215.0</ele><time>2026-04-19T10:34:49Z</time></trkpt><trkpt lat="43.52009276228156" lon="11.824548031816189"><ele>215.0</ele><time>2026-04-19T10:34:50Z</time></trkpt><trkpt lat="43.520099006511906" lon="11.824695218614847"><ele>214.5</ele><time>2026-04-19T10:34:51Z</time></trkpt><trkpt lat="43.520130084906" lon="11.824853661317638"><ele>214.0</ele><time>2026-04-19T10:34:52Z</time></trkpt><trkpt lat="43.520182989172184" lon="11.825027903079409"><ele>213.5</ele><time>2026-04-19T10:34:53Z</time></trkpt><trkpt lat="43.52024968072673" lon="11.825204655185077"><ele>213.0</ele><time>2026-04-19T10:34:54Z</time></trkpt><trkpt lat="43.520322945138254" lon="11.825391524990925"><ele>213.0</ele><time>2026-04-19T10:34:55Z</time></trkpt><trkpt lat="43.520392806684484" lon="11.825580456895796"><ele>213.0</ele><time>2026-04-19T10:34:56Z</time></trkpt><trkpt lat="43.52044461610011" lon="11.825776153567382"><ele>213.0</ele><time>2026-04-19T10:34:57Z</time></trkpt><trkpt lat="43.5204676796097" lon="11.825978191730837"><ele>214.5</ele><time>2026-04-19T10:34:58Z</time></trkpt><trkpt lat="43.52047191971499" lon="11.826168931436648"><ele>216.0</ele><time>2026-04-19T10:34:59Z</time></trkpt><trkpt lat="43.5204804011854" lon="11.82635043016722"><ele>217.5</ele><time>2026-04-19T10:35:00Z</time></trkpt><trkpt lat="43.520489783151184" lon="11.82650532755729"><ele>219.0</ele><time>2026-04-19T10:35:01Z</time></trkpt><trkpt lat="43.52051056632331" lon="11.826627164148139"><ele>219.0</ele><time>2026-04-19T10:35:02Z</time></trkpt><trkpt lat="43.52055572945308" lon="11.826728019492904"><ele>218.99999999999997</ele><time>2026-04-19T10:35:03Z</time></trkpt><trkpt lat="43.52062701633786" lon="11.826805815882707"><ele>218.99999999999997</ele><time>2026-04-19T10:35:04Z</time></trkpt><trkpt lat="43.520709912508295" lon="11.826853012552558"><ele>219.0</ele><time>2026-04-19T10:35:05Z</time></trkpt><trkpt lat="43.52081078649804" lon="11.826863186334833"><ele>219.0</ele><time>2026-04-19T10:35:06Z</time></trkpt><trkpt lat="43.520921156216694" lon="11.82684971898753"><ele>219.0</ele><time>2026-04-19T10:35:07Z</time></trkpt><trkpt lat="43.521040762542995" lon="11.826824471530855"><ele>219.0</ele><time>2026-04-19T10:35:08Z</time></trkpt><trkpt lat="43.52116341431297" lon="11.826796569170178"><ele>219.0</ele><time>2026-04-19T10:35:09Z</time></trkpt><trkpt lat="43.52127516461651" lon="11.826771672392297"><ele>219.0</ele><time>2026-04-19T10:35:10Z</time></trkpt><trkpt lat="43.521390053135455" lon="11.826755721249606"><ele>220.25</ele><time>2026-04-19T10:35:11Z</time></trkpt><trkpt lat="43.52151603045591" lon="11.826762837971538"><ele>221.5</ele><time>2026-04-19T10:35:12Z</time></trkpt><trkpt lat="43.52164682956217" lon="11.826786554104517"><ele>222.75</ele><time>2026-04-19T10:35:13Z</time></trkpt><trkpt lat="43.52178445453858" lon="11.826841460344792"><ele>224.0</ele><time>2026-04-19T10:35:14Z</time></trkpt><trkpt lat="43.52192689899895" lon="11.826938023805427"><ele>224.0</ele><time>2026-04-19T10:35:15Z</time></trkpt><trkpt lat="43.522067553216466" lon="11.82706138393526"><ele>224.0</ele><time>2026-04-19T10:35:16Z</time></trkpt><trkpt lat="43.52220670093192" lon="11.827191151886119"><ele>224.0</ele><time>2026-04-19T10:35:17Z</time></trkpt><trkpt lat="43.522342154976236" lon="11.827316563441375"><ele>224.0</ele><time>2026-04-19T10:35:18Z</time></trkpt><trkpt lat="43.522477247904874" lon="11.827441279486084"><ele>224.0</ele><time>2026-04-19T10:35:19Z</time></trkpt><trkpt lat="43.52260770729507" lon="11.827571287092438"><ele>224.0</ele><time>2026-04-19T10:35:20Z</time></trkpt><trkpt lat="43.52272941177014" lon="11.82772252640293"><ele>223.66666666666669</ele><time>2026-04-19T10:35:21Z</time></trkpt><trkpt lat="43.52284792288744" lon="11.82791632181702"><ele>223.33333333333331</ele><time>2026-04-19T10:35:22Z</time></trkpt><trkpt lat="43.52296198264213" lon="11.828137235982318"><ele>223.0</ele><time>2026-04-19T10:35:23Z</time></trkpt><trkpt lat="43.52307049830439" lon="11.82837899492714"><ele>220.66666666666666</ele><time>2026-04-19T10:35:24Z</time></trkpt><trkpt lat="43.5231681953888" lon="11.828640997912043"><ele>218.33333333333331</ele><time>2026-04-19T10:35:25Z</time></trkpt><trkpt lat="43.52325373295746" lon="11.828905257250993"><ele>216.0</ele><time>2026-04-19T10:35:26Z</time></trkpt><trkpt lat="43.523339283971076" lon="11.829161031104722"><ele>215.33333333333331</ele><time>2026-04-19T10:35:27Z</time></trkpt><trkpt lat="43.52341873962625" lon="11.829397859599153"><ele>214.66666666666666</ele><time>2026-04-19T10:35:28Z</time></trkpt><trkpt lat="43.52349354524546" lon="11.82962041492415"><ele>214.0</ele><time>2026-04-19T10:35:29Z</time></trkpt><trkpt lat="43.52355955467534" lon="11.829820715317675"><ele>214.0</ele><time>2026-04-19T10:35:30Z</time></trkpt><trkpt lat="43.5236277204678" lon="11.830018417201472"><ele>214.0</ele><time>2026-04-19T10:35:31Z</time></trkpt><trkpt lat="43.52369147369092" lon="11.83020097833366"><ele>214.0</ele><time>2026-04-19T10:35:32Z</time></trkpt><trkpt lat="43.52375238780165" lon="11.83037018659349"><ele>214.0</ele><time>2026-04-19T10:35:33Z</time></trkpt><trkpt lat="43.52380110353378" lon="11.830519390120825"><ele>214.99999999999997</ele><time>2026-04-19T10:35:34Z</time></trkpt><trkpt lat="43.52382412315457" lon="11.830646749958357"><ele>216.0</ele><time>2026-04-19T10:35:35.001Z</time></trkpt><trkpt lat="43.52381687173021" lon="11.83076586675125"><ele>217.0</ele><time>2026-04-19T10:35:36.001Z</time></trkpt><trkpt lat="43.52379511758228" lon="11.83085569599228"><ele>218.0</ele><time>2026-04-19T10:35:37.001Z</time></trkpt><trkpt lat="43.52376991172913" lon="11.83095107573038"><ele>218.99999999999997</ele><time>2026-04-19T10:35:39.001Z</time></trkpt><trkpt lat="43.523755784484536" lon="11.831041795264229"><ele>220.0</ele><time>2026-04-19T10:35:41Z</time></trkpt><trkpt lat="43.523772957153795" lon="11.831136210465774"><ele>220.0</ele><time>2026-04-19T10:35:42Z</time></trkpt><trkpt lat="43.5237871387806" lon="11.831261366112255"><ele>220.0</ele><time>2026-04-19T10:35:43Z</time></trkpt><trkpt lat="43.52380799715721" lon="11.83142459876274"><ele>220.0</ele><time>2026-04-19T10:35:44Z</time></trkpt><trkpt lat="43.52382773674303" lon="11.831608956028315"><ele>220.0</ele><time>2026-04-19T10:35:45Z</time></trkpt><trkpt lat="43.52384503819163" lon="11.83181477329956"><ele>223.0</ele><time>2026-04-19T10:35:46Z</time></trkpt><trkpt lat="43.523863516399686" lon="11.832032283425233"><ele>223.0</ele><time>2026-04-19T10:35:47Z</time></trkpt><trkpt lat="43.52388371054819" lon="11.832263685105238"><ele>223.0</ele><time>2026-04-19T10:35:48Z</time></trkpt></trkseg></trk></gpx>